<?xml version="1.0" encoding="UTF-8" standalone="no" ?>
<gpx xmlns="http://www.topografix.com/GPX/1/1" xmlns:xsi="http://www.w3.org/2001/XMLSchema-instance" xsi:schemaLocation="http://www.topografix.com/GPX/1/1 http://www.topografix.com/GPX/1/1/gpx.xsd" version="1.1" creator="VisuGPX - https://www.visugpx.com">
  <metadata>
    <name>Sortie Moto Cajar </name>
  </metadata>
  <trk>
    <name><![CDATA[Sortie Moto Cajar _1]]></name>
    <trkseg>
      <trkpt lat="44.46227" lon="1.74744">
        <ele>149.6</ele>
        <time>2023-08-20T07:24:45Z</time>
      </trkpt>
      <trkpt lat="44.46249" lon="1.74748">
        <ele>149.8</ele>
        <time>2023-08-20T07:24:46Z</time>
      </trkpt>
      <trkpt lat="44.4624" lon="1.74737">
        <ele>150.4</ele>
        <time>2023-08-20T07:27:26Z</time>
      </trkpt>
      <trkpt lat="44.46242" lon="1.74738">
        <ele>150.4</ele>
        <time>2023-08-20T07:27:27Z</time>
      </trkpt>
      <trkpt lat="44.46245" lon="1.74739">
        <ele>150.4</ele>
        <time>2023-08-20T07:27:28Z</time>
      </trkpt>
      <trkpt lat="44.46249" lon="1.74742">
        <ele>150.2</ele>
        <time>2023-08-20T07:27:30Z</time>
      </trkpt>
      <trkpt lat="44.4625" lon="1.74743">
        <ele>150.2</ele>
        <time>2023-08-20T07:27:31Z</time>
      </trkpt>
      <trkpt lat="44.46251" lon="1.74743">
        <ele>150.2</ele>
        <time>2023-08-20T07:27:32Z</time>
      </trkpt>
      <trkpt lat="44.46252" lon="1.74744">
        <ele>150</ele>
        <time>2023-08-20T07:27:33Z</time>
      </trkpt>
      <trkpt lat="44.46253" lon="1.74748">
        <ele>149.6</ele>
        <time>2023-08-20T07:27:34Z</time>
      </trkpt>
      <trkpt lat="44.46254" lon="1.74752">
        <ele>149.4</ele>
        <time>2023-08-20T07:27:35Z</time>
      </trkpt>
      <trkpt lat="44.46254" lon="1.74758">
        <ele>149.2</ele>
        <time>2023-08-20T07:27:36Z</time>
      </trkpt>
      <trkpt lat="44.46253" lon="1.74764">
        <ele>149.2</ele>
        <time>2023-08-20T07:27:37Z</time>
      </trkpt>
      <trkpt lat="44.46251" lon="1.7477">
        <ele>149</ele>
        <time>2023-08-20T07:27:38Z</time>
      </trkpt>
      <trkpt lat="44.46242" lon="1.74787">
        <ele>148.4</ele>
        <time>2023-08-20T07:27:41Z</time>
      </trkpt>
      <trkpt lat="44.46239" lon="1.74793">
        <ele>148.2</ele>
        <time>2023-08-20T07:27:42Z</time>
      </trkpt>
      <trkpt lat="44.46236" lon="1.74798">
        <ele>147.8</ele>
        <time>2023-08-20T07:27:43Z</time>
      </trkpt>
      <trkpt lat="44.46233" lon="1.74802">
        <ele>147.6</ele>
        <time>2023-08-20T07:27:44Z</time>
      </trkpt>
      <trkpt lat="44.4623" lon="1.74806">
        <ele>147.4</ele>
        <time>2023-08-20T07:27:45Z</time>
      </trkpt>
      <trkpt lat="44.46227" lon="1.7481">
        <ele>147</ele>
        <time>2023-08-20T07:27:46Z</time>
      </trkpt>
      <trkpt lat="44.46224" lon="1.74814">
        <ele>146.6</ele>
        <time>2023-08-20T07:27:47Z</time>
      </trkpt>
      <trkpt lat="44.46221" lon="1.74818">
        <ele>146.4</ele>
        <time>2023-08-20T07:27:48Z</time>
      </trkpt>
      <trkpt lat="44.46219" lon="1.74824">
        <ele>146</ele>
        <time>2023-08-20T07:27:49Z</time>
      </trkpt>
      <trkpt lat="44.46218" lon="1.74839">
        <ele>145.8</ele>
        <time>2023-08-20T07:27:51Z</time>
      </trkpt>
      <trkpt lat="44.46219" lon="1.74847">
        <ele>145.6</ele>
        <time>2023-08-20T07:27:52Z</time>
      </trkpt>
      <trkpt lat="44.46222" lon="1.74856">
        <ele>145.6</ele>
        <time>2023-08-20T07:27:53Z</time>
      </trkpt>
      <trkpt lat="44.46225" lon="1.74864">
        <ele>145.6</ele>
        <time>2023-08-20T07:27:54Z</time>
      </trkpt>
      <trkpt lat="44.4623" lon="1.74872">
        <ele>145.6</ele>
        <time>2023-08-20T07:27:55Z</time>
      </trkpt>
      <trkpt lat="44.46234" lon="1.74881">
        <ele>145.6</ele>
        <time>2023-08-20T07:27:56Z</time>
      </trkpt>
      <trkpt lat="44.4624" lon="1.74891">
        <ele>145.6</ele>
        <time>2023-08-20T07:27:57Z</time>
      </trkpt>
      <trkpt lat="44.46246" lon="1.74901">
        <ele>146</ele>
        <time>2023-08-20T07:27:58Z</time>
      </trkpt>
      <trkpt lat="44.46262" lon="1.74913">
        <ele>146.2</ele>
        <time>2023-08-20T07:28:00Z</time>
      </trkpt>
      <trkpt lat="44.46272" lon="1.74913">
        <ele>146.4</ele>
        <time>2023-08-20T07:28:01Z</time>
      </trkpt>
      <trkpt lat="44.46283" lon="1.74911">
        <ele>146.6</ele>
        <time>2023-08-20T07:28:02Z</time>
      </trkpt>
      <trkpt lat="44.4632" lon="1.7489">
        <ele>147.4</ele>
        <time>2023-08-20T07:28:05Z</time>
      </trkpt>
      <trkpt lat="44.46333" lon="1.74882">
        <ele>147.6</ele>
        <time>2023-08-20T07:28:06Z</time>
      </trkpt>
      <trkpt lat="44.4636" lon="1.74873">
        <ele>148.4</ele>
        <time>2023-08-20T07:28:08Z</time>
      </trkpt>
      <trkpt lat="44.46373" lon="1.7487">
        <ele>148.6</ele>
        <time>2023-08-20T07:28:09Z</time>
      </trkpt>
      <trkpt lat="44.46385" lon="1.74867">
        <ele>148.8</ele>
        <time>2023-08-20T07:28:10Z</time>
      </trkpt>
      <trkpt lat="44.46396" lon="1.74864">
        <ele>149</ele>
        <time>2023-08-20T07:28:11Z</time>
      </trkpt>
      <trkpt lat="44.46407" lon="1.7486">
        <ele>149</ele>
        <time>2023-08-20T07:28:12Z</time>
      </trkpt>
      <trkpt lat="44.46417" lon="1.74857">
        <ele>149</ele>
        <time>2023-08-20T07:28:13Z</time>
      </trkpt>
      <trkpt lat="44.46427" lon="1.74853">
        <ele>149</ele>
        <time>2023-08-20T07:28:14Z</time>
      </trkpt>
      <trkpt lat="44.46435" lon="1.7485">
        <ele>149</ele>
        <time>2023-08-20T07:28:15Z</time>
      </trkpt>
      <trkpt lat="44.46444" lon="1.74846">
        <ele>149</ele>
        <time>2023-08-20T07:28:16Z</time>
      </trkpt>
      <trkpt lat="44.46451" lon="1.74841">
        <ele>148.8</ele>
        <time>2023-08-20T07:28:17Z</time>
      </trkpt>
      <trkpt lat="44.46457" lon="1.74837">
        <ele>148.8</ele>
        <time>2023-08-20T07:28:18Z</time>
      </trkpt>
      <trkpt lat="44.46462" lon="1.74833">
        <ele>148.6</ele>
        <time>2023-08-20T07:28:19Z</time>
      </trkpt>
      <trkpt lat="44.46465" lon="1.7483">
        <ele>148.6</ele>
        <time>2023-08-20T07:28:20Z</time>
      </trkpt>
      <trkpt lat="44.46468" lon="1.74826">
        <ele>148.2</ele>
        <time>2023-08-20T07:28:21Z</time>
      </trkpt>
      <trkpt lat="44.46472" lon="1.74822">
        <ele>148.2</ele>
        <time>2023-08-20T07:28:22Z</time>
      </trkpt>
      <trkpt lat="44.46476" lon="1.74817">
        <ele>148</ele>
        <time>2023-08-20T07:28:23Z</time>
      </trkpt>
      <trkpt lat="44.46483" lon="1.74811">
        <ele>148</ele>
        <time>2023-08-20T07:28:24Z</time>
      </trkpt>
      <trkpt lat="44.46491" lon="1.74804">
        <ele>148</ele>
        <time>2023-08-20T07:28:25Z</time>
      </trkpt>
      <trkpt lat="44.46501" lon="1.74798">
        <ele>147.8</ele>
        <time>2023-08-20T07:28:26Z</time>
      </trkpt>
      <trkpt lat="44.46513" lon="1.74795">
        <ele>147.8</ele>
        <time>2023-08-20T07:28:27Z</time>
      </trkpt>
      <trkpt lat="44.46526" lon="1.74798">
        <ele>147.6</ele>
        <time>2023-08-20T07:28:28Z</time>
      </trkpt>
      <trkpt lat="44.46538" lon="1.74803">
        <ele>147.6</ele>
        <time>2023-08-20T07:28:29Z</time>
      </trkpt>
      <trkpt lat="44.4655" lon="1.74811">
        <ele>147.6</ele>
        <time>2023-08-20T07:28:30Z</time>
      </trkpt>
      <trkpt lat="44.46562" lon="1.74819">
        <ele>147.6</ele>
        <time>2023-08-20T07:28:31Z</time>
      </trkpt>
      <trkpt lat="44.46573" lon="1.7483">
        <ele>147.4</ele>
        <time>2023-08-20T07:28:32Z</time>
      </trkpt>
      <trkpt lat="44.46584" lon="1.74844">
        <ele>147.4</ele>
        <time>2023-08-20T07:28:33Z</time>
      </trkpt>
      <trkpt lat="44.46604" lon="1.74881">
        <ele>147.4</ele>
        <time>2023-08-20T07:28:35Z</time>
      </trkpt>
      <trkpt lat="44.4663" lon="1.74935">
        <ele>148</ele>
        <time>2023-08-20T07:28:38Z</time>
      </trkpt>
      <trkpt lat="44.46635" lon="1.74953">
        <ele>148.2</ele>
        <time>2023-08-20T07:28:39Z</time>
      </trkpt>
      <trkpt lat="44.46639" lon="1.74971">
        <ele>148.4</ele>
        <time>2023-08-20T07:28:40Z</time>
      </trkpt>
      <trkpt lat="44.46641" lon="1.7499">
        <ele>148.4</ele>
        <time>2023-08-20T07:28:41Z</time>
      </trkpt>
      <trkpt lat="44.46642" lon="1.75008">
        <ele>148.4</ele>
        <time>2023-08-20T07:28:42Z</time>
      </trkpt>
      <trkpt lat="44.46642" lon="1.75027">
        <ele>148.4</ele>
        <time>2023-08-20T07:28:43Z</time>
      </trkpt>
      <trkpt lat="44.46634" lon="1.75082">
        <ele>147.8</ele>
        <time>2023-08-20T07:28:46Z</time>
      </trkpt>
      <trkpt lat="44.46627" lon="1.75097">
        <ele>147.2</ele>
        <time>2023-08-20T07:28:47Z</time>
      </trkpt>
      <trkpt lat="44.46618" lon="1.75109">
        <ele>146.8</ele>
        <time>2023-08-20T07:28:48Z</time>
      </trkpt>
      <trkpt lat="44.46607" lon="1.7512">
        <ele>146.4</ele>
        <time>2023-08-20T07:28:49Z</time>
      </trkpt>
      <trkpt lat="44.46595" lon="1.7513">
        <ele>146.2</ele>
        <time>2023-08-20T07:28:50Z</time>
      </trkpt>
      <trkpt lat="44.46583" lon="1.75142">
        <ele>146</ele>
        <time>2023-08-20T07:28:51Z</time>
      </trkpt>
      <trkpt lat="44.46569" lon="1.75153">
        <ele>146</ele>
        <time>2023-08-20T07:28:52Z</time>
      </trkpt>
      <trkpt lat="44.46526" lon="1.75192">
        <ele>146</ele>
        <time>2023-08-20T07:28:55Z</time>
      </trkpt>
      <trkpt lat="44.46468" lon="1.75244">
        <ele>147.4</ele>
        <time>2023-08-20T07:28:59Z</time>
      </trkpt>
      <trkpt lat="44.46457" lon="1.75256">
        <ele>148.4</ele>
        <time>2023-08-20T07:29:00Z</time>
      </trkpt>
      <trkpt lat="44.46445" lon="1.75272">
        <ele>148.8</ele>
        <time>2023-08-20T07:29:01Z</time>
      </trkpt>
      <trkpt lat="44.46421" lon="1.75307">
        <ele>149.6</ele>
        <time>2023-08-20T07:29:03Z</time>
      </trkpt>
      <trkpt lat="44.46409" lon="1.75323">
        <ele>149.6</ele>
        <time>2023-08-20T07:29:04Z</time>
      </trkpt>
      <trkpt lat="44.46382" lon="1.75351">
        <ele>149.6</ele>
        <time>2023-08-20T07:29:06Z</time>
      </trkpt>
      <trkpt lat="44.46329" lon="1.75404">
        <ele>148.8</ele>
        <time>2023-08-20T07:29:10Z</time>
      </trkpt>
      <trkpt lat="44.46316" lon="1.75416">
        <ele>148.6</ele>
        <time>2023-08-20T07:29:11Z</time>
      </trkpt>
      <trkpt lat="44.46303" lon="1.75429">
        <ele>148.6</ele>
        <time>2023-08-20T07:29:12Z</time>
      </trkpt>
      <trkpt lat="44.4629" lon="1.75441">
        <ele>148.4</ele>
        <time>2023-08-20T07:29:13Z</time>
      </trkpt>
      <trkpt lat="44.46278" lon="1.75453">
        <ele>148.2</ele>
        <time>2023-08-20T07:29:14Z</time>
      </trkpt>
      <trkpt lat="44.46265" lon="1.75465">
        <ele>148</ele>
        <time>2023-08-20T07:29:15Z</time>
      </trkpt>
      <trkpt lat="44.46225" lon="1.75499">
        <ele>147.8</ele>
        <time>2023-08-20T07:29:18Z</time>
      </trkpt>
      <trkpt lat="44.4617" lon="1.75539">
        <ele>147.2</ele>
        <time>2023-08-20T07:29:22Z</time>
      </trkpt>
      <trkpt lat="44.46156" lon="1.75548">
        <ele>147</ele>
        <time>2023-08-20T07:29:23Z</time>
      </trkpt>
      <trkpt lat="44.46103" lon="1.75587">
        <ele>146.8</ele>
        <time>2023-08-20T07:29:27Z</time>
      </trkpt>
      <trkpt lat="44.46077" lon="1.75608">
        <ele>147</ele>
        <time>2023-08-20T07:29:29Z</time>
      </trkpt>
      <trkpt lat="44.46025" lon="1.75652">
        <ele>147</ele>
        <time>2023-08-20T07:29:33Z</time>
      </trkpt>
      <trkpt lat="44.46002" lon="1.75677">
        <ele>147</ele>
        <time>2023-08-20T07:29:35Z</time>
      </trkpt>
      <trkpt lat="44.45995" lon="1.75689">
        <ele>146.8</ele>
        <time>2023-08-20T07:29:36Z</time>
      </trkpt>
      <trkpt lat="44.45989" lon="1.75702">
        <ele>146.2</ele>
        <time>2023-08-20T07:29:37Z</time>
      </trkpt>
      <trkpt lat="44.45985" lon="1.75714">
        <ele>146</ele>
        <time>2023-08-20T07:29:38Z</time>
      </trkpt>
      <trkpt lat="44.45982" lon="1.7573">
        <ele>145.4</ele>
        <time>2023-08-20T07:29:39Z</time>
      </trkpt>
      <trkpt lat="44.45981" lon="1.75746">
        <ele>145.2</ele>
        <time>2023-08-20T07:29:40Z</time>
      </trkpt>
      <trkpt lat="44.45983" lon="1.75764">
        <ele>144.8</ele>
        <time>2023-08-20T07:29:41Z</time>
      </trkpt>
      <trkpt lat="44.45986" lon="1.75783">
        <ele>144.6</ele>
        <time>2023-08-20T07:29:42Z</time>
      </trkpt>
      <trkpt lat="44.4599" lon="1.75802">
        <ele>144.6</ele>
        <time>2023-08-20T07:29:43Z</time>
      </trkpt>
      <trkpt lat="44.45994" lon="1.75822">
        <ele>144.4</ele>
        <time>2023-08-20T07:29:44Z</time>
      </trkpt>
      <trkpt lat="44.45998" lon="1.75842">
        <ele>144.4</ele>
        <time>2023-08-20T07:29:45Z</time>
      </trkpt>
      <trkpt lat="44.46007" lon="1.75908">
        <ele>144.6</ele>
        <time>2023-08-20T07:29:48Z</time>
      </trkpt>
      <trkpt lat="44.46008" lon="1.76002">
        <ele>145</ele>
        <time>2023-08-20T07:29:52Z</time>
      </trkpt>
      <trkpt lat="44.46008" lon="1.76027">
        <ele>145.2</ele>
        <time>2023-08-20T07:29:53Z</time>
      </trkpt>
      <trkpt lat="44.46007" lon="1.76105">
        <ele>146</ele>
        <time>2023-08-20T07:29:56Z</time>
      </trkpt>
      <trkpt lat="44.46008" lon="1.76131">
        <ele>146.2</ele>
        <time>2023-08-20T07:29:57Z</time>
      </trkpt>
      <trkpt lat="44.46008" lon="1.76182">
        <ele>146.4</ele>
        <time>2023-08-20T07:29:59Z</time>
      </trkpt>
      <trkpt lat="44.46006" lon="1.76207">
        <ele>146.8</ele>
        <time>2023-08-20T07:30:00Z</time>
      </trkpt>
      <trkpt lat="44.46004" lon="1.76232">
        <ele>147</ele>
        <time>2023-08-20T07:30:01Z</time>
      </trkpt>
      <trkpt lat="44.45988" lon="1.76324">
        <ele>147.4</ele>
        <time>2023-08-20T07:30:05Z</time>
      </trkpt>
      <trkpt lat="44.45983" lon="1.76353">
        <ele>147.6</ele>
        <time>2023-08-20T07:30:06Z</time>
      </trkpt>
      <trkpt lat="44.45968" lon="1.76451">
        <ele>147.4</ele>
        <time>2023-08-20T07:30:10Z</time>
      </trkpt>
      <trkpt lat="44.45956" lon="1.76544">
        <ele>147.2</ele>
        <time>2023-08-20T07:30:14Z</time>
      </trkpt>
      <trkpt lat="44.45954" lon="1.76567">
        <ele>147.2</ele>
        <time>2023-08-20T07:30:15Z</time>
      </trkpt>
      <trkpt lat="44.45952" lon="1.76589">
        <ele>147</ele>
        <time>2023-08-20T07:30:16Z</time>
      </trkpt>
      <trkpt lat="44.45951" lon="1.76611">
        <ele>146.8</ele>
        <time>2023-08-20T07:30:17Z</time>
      </trkpt>
      <trkpt lat="44.45952" lon="1.76634">
        <ele>146.6</ele>
        <time>2023-08-20T07:30:18Z</time>
      </trkpt>
      <trkpt lat="44.45953" lon="1.76655">
        <ele>146.4</ele>
        <time>2023-08-20T07:30:19Z</time>
      </trkpt>
      <trkpt lat="44.45956" lon="1.76677">
        <ele>146.2</ele>
        <time>2023-08-20T07:30:20Z</time>
      </trkpt>
      <trkpt lat="44.4596" lon="1.76698">
        <ele>146.2</ele>
        <time>2023-08-20T07:30:21Z</time>
      </trkpt>
      <trkpt lat="44.45967" lon="1.76741">
        <ele>146.2</ele>
        <time>2023-08-20T07:30:23Z</time>
      </trkpt>
      <trkpt lat="44.45982" lon="1.76826">
        <ele>146</ele>
        <time>2023-08-20T07:30:27Z</time>
      </trkpt>
      <trkpt lat="44.45986" lon="1.76847">
        <ele>146</ele>
        <time>2023-08-20T07:30:28Z</time>
      </trkpt>
      <trkpt lat="44.45994" lon="1.76887">
        <ele>146</ele>
        <time>2023-08-20T07:30:30Z</time>
      </trkpt>
      <trkpt lat="44.46001" lon="1.76929">
        <ele>146</ele>
        <time>2023-08-20T07:30:32Z</time>
      </trkpt>
      <trkpt lat="44.46009" lon="1.76971">
        <ele>146.2</ele>
        <time>2023-08-20T07:30:34Z</time>
      </trkpt>
      <trkpt lat="44.46024" lon="1.77061">
        <ele>146.4</ele>
        <time>2023-08-20T07:30:38Z</time>
      </trkpt>
      <trkpt lat="44.46032" lon="1.77106">
        <ele>146.4</ele>
        <time>2023-08-20T07:30:40Z</time>
      </trkpt>
      <trkpt lat="44.46041" lon="1.77148">
        <ele>146.4</ele>
        <time>2023-08-20T07:30:42Z</time>
      </trkpt>
      <trkpt lat="44.46046" lon="1.77169">
        <ele>146.4</ele>
        <time>2023-08-20T07:30:43Z</time>
      </trkpt>
      <trkpt lat="44.46053" lon="1.77187">
        <ele>146.4</ele>
        <time>2023-08-20T07:30:44Z</time>
      </trkpt>
      <trkpt lat="44.46062" lon="1.77205">
        <ele>146.4</ele>
        <time>2023-08-20T07:30:45Z</time>
      </trkpt>
      <trkpt lat="44.4607" lon="1.77221">
        <ele>146.4</ele>
        <time>2023-08-20T07:30:46Z</time>
      </trkpt>
      <trkpt lat="44.46078" lon="1.77237">
        <ele>146.2</ele>
        <time>2023-08-20T07:30:47Z</time>
      </trkpt>
      <trkpt lat="44.46086" lon="1.77252">
        <ele>146.2</ele>
        <time>2023-08-20T07:30:48Z</time>
      </trkpt>
      <trkpt lat="44.46094" lon="1.77267">
        <ele>146</ele>
        <time>2023-08-20T07:30:49Z</time>
      </trkpt>
      <trkpt lat="44.46102" lon="1.77281">
        <ele>146</ele>
        <time>2023-08-20T07:30:50Z</time>
      </trkpt>
      <trkpt lat="44.4611" lon="1.77296">
        <ele>146</ele>
        <time>2023-08-20T07:30:51Z</time>
      </trkpt>
      <trkpt lat="44.4611" lon="1.77296">
        <ele>145.8</ele>
        <time>2023-08-20T07:30:52Z</time>
      </trkpt>
      <trkpt lat="44.46125" lon="1.77324">
        <ele>145.6</ele>
        <time>2023-08-20T07:30:53Z</time>
      </trkpt>
      <trkpt lat="44.46132" lon="1.77339">
        <ele>145.4</ele>
        <time>2023-08-20T07:30:54Z</time>
      </trkpt>
      <trkpt lat="44.46137" lon="1.77354">
        <ele>145.4</ele>
        <time>2023-08-20T07:30:55Z</time>
      </trkpt>
      <trkpt lat="44.46141" lon="1.7737">
        <ele>145.2</ele>
        <time>2023-08-20T07:30:56Z</time>
      </trkpt>
      <trkpt lat="44.46151" lon="1.77418">
        <ele>144.8</ele>
        <time>2023-08-20T07:30:59Z</time>
      </trkpt>
      <trkpt lat="44.46156" lon="1.77433">
        <ele>144.8</ele>
        <time>2023-08-20T07:31:00Z</time>
      </trkpt>
      <trkpt lat="44.46162" lon="1.77446">
        <ele>144.8</ele>
        <time>2023-08-20T07:31:01Z</time>
      </trkpt>
      <trkpt lat="44.4617" lon="1.77458">
        <ele>144.8</ele>
        <time>2023-08-20T07:31:02Z</time>
      </trkpt>
      <trkpt lat="44.46179" lon="1.77469">
        <ele>144.8</ele>
        <time>2023-08-20T07:31:03Z</time>
      </trkpt>
      <trkpt lat="44.4619" lon="1.77479">
        <ele>144.8</ele>
        <time>2023-08-20T07:31:04Z</time>
      </trkpt>
      <trkpt lat="44.46202" lon="1.77488">
        <ele>144.8</ele>
        <time>2023-08-20T07:31:05Z</time>
      </trkpt>
      <trkpt lat="44.46214" lon="1.77497">
        <ele>144.8</ele>
        <time>2023-08-20T07:31:06Z</time>
      </trkpt>
      <trkpt lat="44.46271" lon="1.77535">
        <ele>145.4</ele>
        <time>2023-08-20T07:31:10Z</time>
      </trkpt>
      <trkpt lat="44.46315" lon="1.7755">
        <ele>145.8</ele>
        <time>2023-08-20T07:31:13Z</time>
      </trkpt>
      <trkpt lat="44.4633" lon="1.77554">
        <ele>145.8</ele>
        <time>2023-08-20T07:31:14Z</time>
      </trkpt>
      <trkpt lat="44.46344" lon="1.7756">
        <ele>145.8</ele>
        <time>2023-08-20T07:31:15Z</time>
      </trkpt>
      <trkpt lat="44.46358" lon="1.77566">
        <ele>145.8</ele>
        <time>2023-08-20T07:31:16Z</time>
      </trkpt>
      <trkpt lat="44.46371" lon="1.77572">
        <ele>145.8</ele>
        <time>2023-08-20T07:31:17Z</time>
      </trkpt>
      <trkpt lat="44.46384" lon="1.77578">
        <ele>145.8</ele>
        <time>2023-08-20T07:31:18Z</time>
      </trkpt>
      <trkpt lat="44.46396" lon="1.77583">
        <ele>145.6</ele>
        <time>2023-08-20T07:31:19Z</time>
      </trkpt>
      <trkpt lat="44.46407" lon="1.77588">
        <ele>145.6</ele>
        <time>2023-08-20T07:31:20Z</time>
      </trkpt>
      <trkpt lat="44.46418" lon="1.77592">
        <ele>145.2</ele>
        <time>2023-08-20T07:31:21Z</time>
      </trkpt>
      <trkpt lat="44.46429" lon="1.77595">
        <ele>144.8</ele>
        <time>2023-08-20T07:31:22Z</time>
      </trkpt>
      <trkpt lat="44.4644" lon="1.77598">
        <ele>144.6</ele>
        <time>2023-08-20T07:31:23Z</time>
      </trkpt>
      <trkpt lat="44.46451" lon="1.77599">
        <ele>144.4</ele>
        <time>2023-08-20T07:31:24Z</time>
      </trkpt>
      <trkpt lat="44.46462" lon="1.77599">
        <ele>144.2</ele>
        <time>2023-08-20T07:31:25Z</time>
      </trkpt>
      <trkpt lat="44.46511" lon="1.77587">
        <ele>143.4</ele>
        <time>2023-08-20T07:31:29Z</time>
      </trkpt>
      <trkpt lat="44.46567" lon="1.77569">
        <ele>143.4</ele>
        <time>2023-08-20T07:31:33Z</time>
      </trkpt>
      <trkpt lat="44.46581" lon="1.77563">
        <ele>143.4</ele>
        <time>2023-08-20T07:31:34Z</time>
      </trkpt>
      <trkpt lat="44.46623" lon="1.77547">
        <ele>144</ele>
        <time>2023-08-20T07:31:37Z</time>
      </trkpt>
      <trkpt lat="44.46638" lon="1.77545">
        <ele>144.2</ele>
        <time>2023-08-20T07:31:38Z</time>
      </trkpt>
      <trkpt lat="44.46685" lon="1.77549">
        <ele>144.4</ele>
        <time>2023-08-20T07:31:41Z</time>
      </trkpt>
      <trkpt lat="44.46745" lon="1.77562">
        <ele>145.2</ele>
        <time>2023-08-20T07:31:45Z</time>
      </trkpt>
      <trkpt lat="44.4679" lon="1.77571">
        <ele>145.4</ele>
        <time>2023-08-20T07:31:48Z</time>
      </trkpt>
      <trkpt lat="44.46805" lon="1.77572">
        <ele>145.6</ele>
        <time>2023-08-20T07:31:49Z</time>
      </trkpt>
      <trkpt lat="44.46837" lon="1.77569">
        <ele>145.8</ele>
        <time>2023-08-20T07:31:51Z</time>
      </trkpt>
      <trkpt lat="44.46901" lon="1.77558">
        <ele>146.2</ele>
        <time>2023-08-20T07:31:55Z</time>
      </trkpt>
      <trkpt lat="44.46914" lon="1.77556">
        <ele>146.4</ele>
        <time>2023-08-20T07:31:56Z</time>
      </trkpt>
      <trkpt lat="44.46934" lon="1.77554">
        <ele>146.4</ele>
        <time>2023-08-20T07:31:57Z</time>
      </trkpt>
      <trkpt lat="44.46951" lon="1.77555">
        <ele>146.6</ele>
        <time>2023-08-20T07:31:58Z</time>
      </trkpt>
      <trkpt lat="44.46967" lon="1.77557">
        <ele>146.8</ele>
        <time>2023-08-20T07:31:59Z</time>
      </trkpt>
      <trkpt lat="44.47012" lon="1.77573">
        <ele>147.4</ele>
        <time>2023-08-20T07:32:02Z</time>
      </trkpt>
      <trkpt lat="44.47027" lon="1.7758">
        <ele>147.8</ele>
        <time>2023-08-20T07:32:03Z</time>
      </trkpt>
      <trkpt lat="44.47041" lon="1.77588">
        <ele>147.8</ele>
        <time>2023-08-20T07:32:04Z</time>
      </trkpt>
      <trkpt lat="44.47055" lon="1.77595">
        <ele>148</ele>
        <time>2023-08-20T07:32:05Z</time>
      </trkpt>
      <trkpt lat="44.47068" lon="1.77603">
        <ele>148.2</ele>
        <time>2023-08-20T07:32:06Z</time>
      </trkpt>
      <trkpt lat="44.47081" lon="1.77611">
        <ele>148.4</ele>
        <time>2023-08-20T07:32:07Z</time>
      </trkpt>
      <trkpt lat="44.47092" lon="1.7762">
        <ele>148.4</ele>
        <time>2023-08-20T07:32:08Z</time>
      </trkpt>
      <trkpt lat="44.47103" lon="1.77631">
        <ele>148.6</ele>
        <time>2023-08-20T07:32:09Z</time>
      </trkpt>
      <trkpt lat="44.47113" lon="1.77642">
        <ele>148.8</ele>
        <time>2023-08-20T07:32:10Z</time>
      </trkpt>
      <trkpt lat="44.47123" lon="1.77654">
        <ele>148.8</ele>
        <time>2023-08-20T07:32:11Z</time>
      </trkpt>
      <trkpt lat="44.47132" lon="1.77667">
        <ele>148.8</ele>
        <time>2023-08-20T07:32:12Z</time>
      </trkpt>
      <trkpt lat="44.4714" lon="1.7768">
        <ele>149</ele>
        <time>2023-08-20T07:32:13Z</time>
      </trkpt>
      <trkpt lat="44.47147" lon="1.77694">
        <ele>149</ele>
        <time>2023-08-20T07:32:14Z</time>
      </trkpt>
      <trkpt lat="44.47152" lon="1.77707">
        <ele>149</ele>
        <time>2023-08-20T07:32:15Z</time>
      </trkpt>
      <trkpt lat="44.47157" lon="1.77721">
        <ele>149.4</ele>
        <time>2023-08-20T07:32:16Z</time>
      </trkpt>
      <trkpt lat="44.47162" lon="1.77735">
        <ele>149.8</ele>
        <time>2023-08-20T07:32:17Z</time>
      </trkpt>
      <trkpt lat="44.47165" lon="1.77749">
        <ele>150</ele>
        <time>2023-08-20T07:32:18Z</time>
      </trkpt>
      <trkpt lat="44.47166" lon="1.77763">
        <ele>150.2</ele>
        <time>2023-08-20T07:32:19Z</time>
      </trkpt>
      <trkpt lat="44.47165" lon="1.77777">
        <ele>150.2</ele>
        <time>2023-08-20T07:32:20Z</time>
      </trkpt>
      <trkpt lat="44.47163" lon="1.77791">
        <ele>150.2</ele>
        <time>2023-08-20T07:32:21Z</time>
      </trkpt>
      <trkpt lat="44.47159" lon="1.77805">
        <ele>150.4</ele>
        <time>2023-08-20T07:32:22Z</time>
      </trkpt>
      <trkpt lat="44.47152" lon="1.77819">
        <ele>150.4</ele>
        <time>2023-08-20T07:32:23Z</time>
      </trkpt>
      <trkpt lat="44.47146" lon="1.7783">
        <ele>150.4</ele>
        <time>2023-08-20T07:32:24Z</time>
      </trkpt>
      <trkpt lat="44.47136" lon="1.77846">
        <ele>150.4</ele>
        <time>2023-08-20T07:32:25Z</time>
      </trkpt>
      <trkpt lat="44.47128" lon="1.77859">
        <ele>150.4</ele>
        <time>2023-08-20T07:32:26Z</time>
      </trkpt>
      <trkpt lat="44.4712" lon="1.77873">
        <ele>150.4</ele>
        <time>2023-08-20T07:32:27Z</time>
      </trkpt>
      <trkpt lat="44.47113" lon="1.77887">
        <ele>150.4</ele>
        <time>2023-08-20T07:32:28Z</time>
      </trkpt>
      <trkpt lat="44.47107" lon="1.77899">
        <ele>150.4</ele>
        <time>2023-08-20T07:32:29Z</time>
      </trkpt>
      <trkpt lat="44.47101" lon="1.77908">
        <ele>150</ele>
        <time>2023-08-20T07:32:30Z</time>
      </trkpt>
      <trkpt lat="44.47097" lon="1.77916">
        <ele>150</ele>
        <time>2023-08-20T07:32:31Z</time>
      </trkpt>
      <trkpt lat="44.47096" lon="1.77924">
        <ele>149.6</ele>
        <time>2023-08-20T07:32:32Z</time>
      </trkpt>
      <trkpt lat="44.47096" lon="1.77931">
        <ele>149.4</ele>
        <time>2023-08-20T07:32:33Z</time>
      </trkpt>
      <trkpt lat="44.47096" lon="1.77937">
        <ele>149</ele>
        <time>2023-08-20T07:32:34Z</time>
      </trkpt>
      <trkpt lat="44.47099" lon="1.77944">
        <ele>148.2</ele>
        <time>2023-08-20T07:32:35Z</time>
      </trkpt>
      <trkpt lat="44.47102" lon="1.77951">
        <ele>147.8</ele>
        <time>2023-08-20T07:32:36Z</time>
      </trkpt>
      <trkpt lat="44.47108" lon="1.77955">
        <ele>147.2</ele>
        <time>2023-08-20T07:32:37Z</time>
      </trkpt>
      <trkpt lat="44.47114" lon="1.77958">
        <ele>147</ele>
        <time>2023-08-20T07:32:38Z</time>
      </trkpt>
      <trkpt lat="44.47122" lon="1.77958">
        <ele>146.8</ele>
        <time>2023-08-20T07:32:39Z</time>
      </trkpt>
      <trkpt lat="44.47132" lon="1.77957">
        <ele>146.8</ele>
        <time>2023-08-20T07:32:40Z</time>
      </trkpt>
      <trkpt lat="44.47153" lon="1.77952">
        <ele>146.8</ele>
        <time>2023-08-20T07:32:42Z</time>
      </trkpt>
      <trkpt lat="44.47164" lon="1.77949">
        <ele>146.6</ele>
        <time>2023-08-20T07:32:43Z</time>
      </trkpt>
      <trkpt lat="44.47223" lon="1.77921">
        <ele>146.6</ele>
        <time>2023-08-20T07:32:48Z</time>
      </trkpt>
      <trkpt lat="44.47262" lon="1.77908">
        <ele>146.4</ele>
        <time>2023-08-20T07:32:51Z</time>
      </trkpt>
      <trkpt lat="44.47291" lon="1.77915">
        <ele>145.8</ele>
        <time>2023-08-20T07:32:53Z</time>
      </trkpt>
      <trkpt lat="44.47305" lon="1.77922">
        <ele>145.6</ele>
        <time>2023-08-20T07:32:54Z</time>
      </trkpt>
      <trkpt lat="44.47317" lon="1.77931">
        <ele>145.4</ele>
        <time>2023-08-20T07:32:55Z</time>
      </trkpt>
      <trkpt lat="44.47329" lon="1.77941">
        <ele>145.4</ele>
        <time>2023-08-20T07:32:56Z</time>
      </trkpt>
      <trkpt lat="44.4734" lon="1.77952">
        <ele>145.2</ele>
        <time>2023-08-20T07:32:57Z</time>
      </trkpt>
      <trkpt lat="44.47349" lon="1.77962">
        <ele>145</ele>
        <time>2023-08-20T07:32:58Z</time>
      </trkpt>
      <trkpt lat="44.47358" lon="1.77971">
        <ele>144.8</ele>
        <time>2023-08-20T07:32:59Z</time>
      </trkpt>
      <trkpt lat="44.47366" lon="1.7798">
        <ele>144.6</ele>
        <time>2023-08-20T07:33:00Z</time>
      </trkpt>
      <trkpt lat="44.47373" lon="1.77988">
        <ele>144.6</ele>
        <time>2023-08-20T07:33:01Z</time>
      </trkpt>
      <trkpt lat="44.4738" lon="1.77996">
        <ele>144.4</ele>
        <time>2023-08-20T07:33:02Z</time>
      </trkpt>
      <trkpt lat="44.47387" lon="1.78004">
        <ele>144.4</ele>
        <time>2023-08-20T07:33:03Z</time>
      </trkpt>
      <trkpt lat="44.47393" lon="1.78011">
        <ele>144.4</ele>
        <time>2023-08-20T07:33:04Z</time>
      </trkpt>
      <trkpt lat="44.47399" lon="1.78017">
        <ele>144.4</ele>
        <time>2023-08-20T07:33:05Z</time>
      </trkpt>
      <trkpt lat="44.47405" lon="1.78024">
        <ele>144.4</ele>
        <time>2023-08-20T07:33:06Z</time>
      </trkpt>
      <trkpt lat="44.4741" lon="1.7803">
        <ele>144.4</ele>
        <time>2023-08-20T07:33:07Z</time>
      </trkpt>
      <trkpt lat="44.47415" lon="1.78036">
        <ele>144.4</ele>
        <time>2023-08-20T07:33:08Z</time>
      </trkpt>
      <trkpt lat="44.4742" lon="1.78042">
        <ele>144.4</ele>
        <time>2023-08-20T07:33:09Z</time>
      </trkpt>
      <trkpt lat="44.47424" lon="1.78047">
        <ele>144.4</ele>
        <time>2023-08-20T07:33:10Z</time>
      </trkpt>
      <trkpt lat="44.47426" lon="1.78052">
        <ele>144.4</ele>
        <time>2023-08-20T07:33:11Z</time>
      </trkpt>
      <trkpt lat="44.47426" lon="1.78058">
        <ele>144.4</ele>
        <time>2023-08-20T07:33:12Z</time>
      </trkpt>
      <trkpt lat="44.47425" lon="1.78064">
        <ele>144.4</ele>
        <time>2023-08-20T07:33:13Z</time>
      </trkpt>
      <trkpt lat="44.47422" lon="1.7807">
        <ele>144.4</ele>
        <time>2023-08-20T07:33:14Z</time>
      </trkpt>
      <trkpt lat="44.47417" lon="1.78077">
        <ele>144.4</ele>
        <time>2023-08-20T07:33:15Z</time>
      </trkpt>
      <trkpt lat="44.47413" lon="1.78086">
        <ele>144.6</ele>
        <time>2023-08-20T07:33:16Z</time>
      </trkpt>
      <trkpt lat="44.47407" lon="1.78095">
        <ele>144.6</ele>
        <time>2023-08-20T07:33:17Z</time>
      </trkpt>
      <trkpt lat="44.474" lon="1.78105">
        <ele>144.6</ele>
        <time>2023-08-20T07:33:18Z</time>
      </trkpt>
      <trkpt lat="44.47392" lon="1.78116">
        <ele>144.6</ele>
        <time>2023-08-20T07:33:19Z</time>
      </trkpt>
      <trkpt lat="44.47375" lon="1.78139">
        <ele>145.2</ele>
        <time>2023-08-20T07:33:21Z</time>
      </trkpt>
      <trkpt lat="44.47339" lon="1.78189">
        <ele>146</ele>
        <time>2023-08-20T07:33:25Z</time>
      </trkpt>
      <trkpt lat="44.47321" lon="1.78215">
        <ele>146.6</ele>
        <time>2023-08-20T07:33:27Z</time>
      </trkpt>
      <trkpt lat="44.47313" lon="1.78229">
        <ele>146.8</ele>
        <time>2023-08-20T07:33:28Z</time>
      </trkpt>
      <trkpt lat="44.47305" lon="1.78242">
        <ele>147.2</ele>
        <time>2023-08-20T07:33:29Z</time>
      </trkpt>
      <trkpt lat="44.47299" lon="1.78256">
        <ele>147.2</ele>
        <time>2023-08-20T07:33:30Z</time>
      </trkpt>
      <trkpt lat="44.47294" lon="1.7827">
        <ele>147.4</ele>
        <time>2023-08-20T07:33:31Z</time>
      </trkpt>
      <trkpt lat="44.47291" lon="1.78283">
        <ele>147.4</ele>
        <time>2023-08-20T07:33:32Z</time>
      </trkpt>
      <trkpt lat="44.4729" lon="1.78296">
        <ele>147.4</ele>
        <time>2023-08-20T07:33:33Z</time>
      </trkpt>
      <trkpt lat="44.47289" lon="1.78307">
        <ele>147.4</ele>
        <time>2023-08-20T07:33:34Z</time>
      </trkpt>
      <trkpt lat="44.47285" lon="1.78317">
        <ele>147.4</ele>
        <time>2023-08-20T07:33:35Z</time>
      </trkpt>
      <trkpt lat="44.47281" lon="1.78325">
        <ele>147.4</ele>
        <time>2023-08-20T07:33:36Z</time>
      </trkpt>
      <trkpt lat="44.47275" lon="1.7833">
        <ele>147.2</ele>
        <time>2023-08-20T07:33:37Z</time>
      </trkpt>
      <trkpt lat="44.47269" lon="1.78334">
        <ele>147.2</ele>
        <time>2023-08-20T07:33:38Z</time>
      </trkpt>
      <trkpt lat="44.4726" lon="1.78339">
        <ele>147</ele>
        <time>2023-08-20T07:33:39Z</time>
      </trkpt>
      <trkpt lat="44.47251" lon="1.78343">
        <ele>146.8</ele>
        <time>2023-08-20T07:33:40Z</time>
      </trkpt>
      <trkpt lat="44.47242" lon="1.78347">
        <ele>146.8</ele>
        <time>2023-08-20T07:33:41Z</time>
      </trkpt>
      <trkpt lat="44.47232" lon="1.78351">
        <ele>146.8</ele>
        <time>2023-08-20T07:33:42Z</time>
      </trkpt>
      <trkpt lat="44.47221" lon="1.78356">
        <ele>146.8</ele>
        <time>2023-08-20T07:33:43Z</time>
      </trkpt>
      <trkpt lat="44.47199" lon="1.78365">
        <ele>146.8</ele>
        <time>2023-08-20T07:33:45Z</time>
      </trkpt>
      <trkpt lat="44.47155" lon="1.78386">
        <ele>147.4</ele>
        <time>2023-08-20T07:33:49Z</time>
      </trkpt>
      <trkpt lat="44.4713" lon="1.78398">
        <ele>147.6</ele>
        <time>2023-08-20T07:33:51Z</time>
      </trkpt>
      <trkpt lat="44.47089" lon="1.78419">
        <ele>148.2</ele>
        <time>2023-08-20T07:33:54Z</time>
      </trkpt>
      <trkpt lat="44.47058" lon="1.7843">
        <ele>148.6</ele>
        <time>2023-08-20T07:33:56Z</time>
      </trkpt>
      <trkpt lat="44.47024" lon="1.78439">
        <ele>149.2</ele>
        <time>2023-08-20T07:33:58Z</time>
      </trkpt>
      <trkpt lat="44.46987" lon="1.78444">
        <ele>150</ele>
        <time>2023-08-20T07:34:00Z</time>
      </trkpt>
      <trkpt lat="44.46968" lon="1.78446">
        <ele>150.4</ele>
        <time>2023-08-20T07:34:01Z</time>
      </trkpt>
      <trkpt lat="44.46949" lon="1.78448">
        <ele>150.8</ele>
        <time>2023-08-20T07:34:02Z</time>
      </trkpt>
      <trkpt lat="44.46931" lon="1.78449">
        <ele>151.4</ele>
        <time>2023-08-20T07:34:03Z</time>
      </trkpt>
      <trkpt lat="44.46912" lon="1.7845">
        <ele>152.4</ele>
        <time>2023-08-20T07:34:04Z</time>
      </trkpt>
      <trkpt lat="44.46893" lon="1.78452">
        <ele>152.8</ele>
        <time>2023-08-20T07:34:05Z</time>
      </trkpt>
      <trkpt lat="44.46874" lon="1.78453">
        <ele>153.4</ele>
        <time>2023-08-20T07:34:06Z</time>
      </trkpt>
      <trkpt lat="44.46855" lon="1.78454">
        <ele>153.8</ele>
        <time>2023-08-20T07:34:07Z</time>
      </trkpt>
      <trkpt lat="44.46836" lon="1.78454">
        <ele>154.2</ele>
        <time>2023-08-20T07:34:08Z</time>
      </trkpt>
      <trkpt lat="44.46817" lon="1.78455">
        <ele>154.6</ele>
        <time>2023-08-20T07:34:09Z</time>
      </trkpt>
      <trkpt lat="44.46798" lon="1.78455">
        <ele>155</ele>
        <time>2023-08-20T07:34:10Z</time>
      </trkpt>
      <trkpt lat="44.46781" lon="1.78456">
        <ele>155.4</ele>
        <time>2023-08-20T07:34:11Z</time>
      </trkpt>
      <trkpt lat="44.46763" lon="1.78456">
        <ele>155.4</ele>
        <time>2023-08-20T07:34:12Z</time>
      </trkpt>
      <trkpt lat="44.46746" lon="1.78456">
        <ele>155.8</ele>
        <time>2023-08-20T07:34:13Z</time>
      </trkpt>
      <trkpt lat="44.46729" lon="1.78457">
        <ele>155.8</ele>
        <time>2023-08-20T07:34:14Z</time>
      </trkpt>
      <trkpt lat="44.46716" lon="1.78458">
        <ele>156</ele>
        <time>2023-08-20T07:34:15Z</time>
      </trkpt>
      <trkpt lat="44.46696" lon="1.78461">
        <ele>156</ele>
        <time>2023-08-20T07:34:16Z</time>
      </trkpt>
      <trkpt lat="44.4668" lon="1.78466">
        <ele>156.2</ele>
        <time>2023-08-20T07:34:17Z</time>
      </trkpt>
      <trkpt lat="44.46665" lon="1.78472">
        <ele>156.4</ele>
        <time>2023-08-20T07:34:18Z</time>
      </trkpt>
      <trkpt lat="44.46653" lon="1.78479">
        <ele>156.4</ele>
        <time>2023-08-20T07:34:19Z</time>
      </trkpt>
      <trkpt lat="44.46635" lon="1.7849">
        <ele>156.2</ele>
        <time>2023-08-20T07:34:20Z</time>
      </trkpt>
      <trkpt lat="44.46624" lon="1.78498">
        <ele>156.4</ele>
        <time>2023-08-20T07:34:21Z</time>
      </trkpt>
      <trkpt lat="44.46606" lon="1.78509">
        <ele>156.4</ele>
        <time>2023-08-20T07:34:22Z</time>
      </trkpt>
      <trkpt lat="44.46591" lon="1.78518">
        <ele>156.4</ele>
        <time>2023-08-20T07:34:23Z</time>
      </trkpt>
      <trkpt lat="44.46579" lon="1.78525">
        <ele>156.4</ele>
        <time>2023-08-20T07:34:24Z</time>
      </trkpt>
      <trkpt lat="44.46563" lon="1.78535">
        <ele>156.6</ele>
        <time>2023-08-20T07:34:25Z</time>
      </trkpt>
      <trkpt lat="44.46548" lon="1.78545">
        <ele>156.6</ele>
        <time>2023-08-20T07:34:26Z</time>
      </trkpt>
      <trkpt lat="44.4653" lon="1.78557">
        <ele>156.8</ele>
        <time>2023-08-20T07:34:27Z</time>
      </trkpt>
      <trkpt lat="44.46515" lon="1.78567">
        <ele>156.8</ele>
        <time>2023-08-20T07:34:28Z</time>
      </trkpt>
      <trkpt lat="44.46499" lon="1.78577">
        <ele>157</ele>
        <time>2023-08-20T07:34:29Z</time>
      </trkpt>
      <trkpt lat="44.46484" lon="1.78587">
        <ele>157</ele>
        <time>2023-08-20T07:34:30Z</time>
      </trkpt>
      <trkpt lat="44.46472" lon="1.78595">
        <ele>157.4</ele>
        <time>2023-08-20T07:34:31Z</time>
      </trkpt>
      <trkpt lat="44.46454" lon="1.78607">
        <ele>157.6</ele>
        <time>2023-08-20T07:34:32Z</time>
      </trkpt>
      <trkpt lat="44.4644" lon="1.78617">
        <ele>158</ele>
        <time>2023-08-20T07:34:33Z</time>
      </trkpt>
      <trkpt lat="44.46425" lon="1.78626">
        <ele>158.2</ele>
        <time>2023-08-20T07:34:34Z</time>
      </trkpt>
      <trkpt lat="44.46414" lon="1.78633">
        <ele>158.6</ele>
        <time>2023-08-20T07:34:35Z</time>
      </trkpt>
      <trkpt lat="44.46397" lon="1.78644">
        <ele>159</ele>
        <time>2023-08-20T07:34:36Z</time>
      </trkpt>
      <trkpt lat="44.46383" lon="1.78654">
        <ele>159</ele>
        <time>2023-08-20T07:34:37Z</time>
      </trkpt>
      <trkpt lat="44.46371" lon="1.78666">
        <ele>159.2</ele>
        <time>2023-08-20T07:34:38Z</time>
      </trkpt>
      <trkpt lat="44.4636" lon="1.78679">
        <ele>159.4</ele>
        <time>2023-08-20T07:34:39Z</time>
      </trkpt>
      <trkpt lat="44.46353" lon="1.78693">
        <ele>159.6</ele>
        <time>2023-08-20T07:34:40Z</time>
      </trkpt>
      <trkpt lat="44.46346" lon="1.78711">
        <ele>159.8</ele>
        <time>2023-08-20T07:34:41Z</time>
      </trkpt>
      <trkpt lat="44.46339" lon="1.78734">
        <ele>160</ele>
        <time>2023-08-20T07:34:42Z</time>
      </trkpt>
      <trkpt lat="44.46334" lon="1.78755">
        <ele>160</ele>
        <time>2023-08-20T07:34:43Z</time>
      </trkpt>
      <trkpt lat="44.46331" lon="1.78775">
        <ele>160</ele>
        <time>2023-08-20T07:34:44Z</time>
      </trkpt>
      <trkpt lat="44.4633" lon="1.78792">
        <ele>160.2</ele>
        <time>2023-08-20T07:34:45Z</time>
      </trkpt>
      <trkpt lat="44.4633" lon="1.78813">
        <ele>160.2</ele>
        <time>2023-08-20T07:34:46Z</time>
      </trkpt>
      <trkpt lat="44.46332" lon="1.78834">
        <ele>160.4</ele>
        <time>2023-08-20T07:34:47Z</time>
      </trkpt>
      <trkpt lat="44.46337" lon="1.78857">
        <ele>160.4</ele>
        <time>2023-08-20T07:34:48Z</time>
      </trkpt>
      <trkpt lat="44.46343" lon="1.78876">
        <ele>160.4</ele>
        <time>2023-08-20T07:34:49Z</time>
      </trkpt>
      <trkpt lat="44.46351" lon="1.78893">
        <ele>160.6</ele>
        <time>2023-08-20T07:34:50Z</time>
      </trkpt>
      <trkpt lat="44.46361" lon="1.78907">
        <ele>160.6</ele>
        <time>2023-08-20T07:34:51Z</time>
      </trkpt>
      <trkpt lat="44.4637" lon="1.78917">
        <ele>160.6</ele>
        <time>2023-08-20T07:34:52Z</time>
      </trkpt>
      <trkpt lat="44.46383" lon="1.78929">
        <ele>160.8</ele>
        <time>2023-08-20T07:34:53Z</time>
      </trkpt>
      <trkpt lat="44.46396" lon="1.78935">
        <ele>160.8</ele>
        <time>2023-08-20T07:34:54Z</time>
      </trkpt>
      <trkpt lat="44.46409" lon="1.78938">
        <ele>161</ele>
        <time>2023-08-20T07:34:55Z</time>
      </trkpt>
      <trkpt lat="44.46419" lon="1.7894">
        <ele>161</ele>
        <time>2023-08-20T07:34:56Z</time>
      </trkpt>
      <trkpt lat="44.46432" lon="1.78942">
        <ele>161</ele>
        <time>2023-08-20T07:34:57Z</time>
      </trkpt>
      <trkpt lat="44.46447" lon="1.78945">
        <ele>161.2</ele>
        <time>2023-08-20T07:34:58Z</time>
      </trkpt>
      <trkpt lat="44.46465" lon="1.78949">
        <ele>161.4</ele>
        <time>2023-08-20T07:34:59Z</time>
      </trkpt>
      <trkpt lat="44.46481" lon="1.78953">
        <ele>161.4</ele>
        <time>2023-08-20T07:35:00Z</time>
      </trkpt>
      <trkpt lat="44.46494" lon="1.78956">
        <ele>161.8</ele>
        <time>2023-08-20T07:35:01Z</time>
      </trkpt>
      <trkpt lat="44.46512" lon="1.7896">
        <ele>161.8</ele>
        <time>2023-08-20T07:35:02Z</time>
      </trkpt>
      <trkpt lat="44.46535" lon="1.78965">
        <ele>162</ele>
        <time>2023-08-20T07:35:03Z</time>
      </trkpt>
      <trkpt lat="44.46554" lon="1.78969">
        <ele>162.2</ele>
        <time>2023-08-20T07:35:04Z</time>
      </trkpt>
      <trkpt lat="44.46573" lon="1.78973">
        <ele>162.4</ele>
        <time>2023-08-20T07:35:05Z</time>
      </trkpt>
      <trkpt lat="44.46589" lon="1.78977">
        <ele>163</ele>
        <time>2023-08-20T07:35:06Z</time>
      </trkpt>
      <trkpt lat="44.4661" lon="1.78981">
        <ele>163.6</ele>
        <time>2023-08-20T07:35:07Z</time>
      </trkpt>
      <trkpt lat="44.46634" lon="1.78986">
        <ele>164.8</ele>
        <time>2023-08-20T07:35:08Z</time>
      </trkpt>
      <trkpt lat="44.46654" lon="1.7899">
        <ele>165.4</ele>
        <time>2023-08-20T07:35:09Z</time>
      </trkpt>
      <trkpt lat="44.46674" lon="1.78995">
        <ele>166.6</ele>
        <time>2023-08-20T07:35:10Z</time>
      </trkpt>
      <trkpt lat="44.4669" lon="1.78999">
        <ele>167</ele>
        <time>2023-08-20T07:35:11Z</time>
      </trkpt>
      <trkpt lat="44.46713" lon="1.79006">
        <ele>167.6</ele>
        <time>2023-08-20T07:35:12Z</time>
      </trkpt>
      <trkpt lat="44.46732" lon="1.79013">
        <ele>168.4</ele>
        <time>2023-08-20T07:35:13Z</time>
      </trkpt>
      <trkpt lat="44.4675" lon="1.79022">
        <ele>168.8</ele>
        <time>2023-08-20T07:35:14Z</time>
      </trkpt>
      <trkpt lat="44.46768" lon="1.79033">
        <ele>169.4</ele>
        <time>2023-08-20T07:35:15Z</time>
      </trkpt>
      <trkpt lat="44.46786" lon="1.79042">
        <ele>169.6</ele>
        <time>2023-08-20T07:35:16Z</time>
      </trkpt>
      <trkpt lat="44.46805" lon="1.79051">
        <ele>169.8</ele>
        <time>2023-08-20T07:35:17Z</time>
      </trkpt>
      <trkpt lat="44.46823" lon="1.79061">
        <ele>169.8</ele>
        <time>2023-08-20T07:35:18Z</time>
      </trkpt>
      <trkpt lat="44.46841" lon="1.79071">
        <ele>170</ele>
        <time>2023-08-20T07:35:19Z</time>
      </trkpt>
      <trkpt lat="44.46859" lon="1.79081">
        <ele>170</ele>
        <time>2023-08-20T07:35:20Z</time>
      </trkpt>
      <trkpt lat="44.46876" lon="1.79091">
        <ele>170</ele>
        <time>2023-08-20T07:35:21Z</time>
      </trkpt>
      <trkpt lat="44.46893" lon="1.79101">
        <ele>170</ele>
        <time>2023-08-20T07:35:22Z</time>
      </trkpt>
      <trkpt lat="44.46908" lon="1.79113">
        <ele>170</ele>
        <time>2023-08-20T07:35:23Z</time>
      </trkpt>
      <trkpt lat="44.46924" lon="1.79125">
        <ele>170</ele>
        <time>2023-08-20T07:35:24Z</time>
      </trkpt>
      <trkpt lat="44.46939" lon="1.79138">
        <ele>170</ele>
        <time>2023-08-20T07:35:25Z</time>
      </trkpt>
      <trkpt lat="44.46955" lon="1.79151">
        <ele>170</ele>
        <time>2023-08-20T07:35:26Z</time>
      </trkpt>
      <trkpt lat="44.46971" lon="1.79165">
        <ele>170</ele>
        <time>2023-08-20T07:35:27Z</time>
      </trkpt>
      <trkpt lat="44.46988" lon="1.79178">
        <ele>169.8</ele>
        <time>2023-08-20T07:35:28Z</time>
      </trkpt>
      <trkpt lat="44.47005" lon="1.79189">
        <ele>169.8</ele>
        <time>2023-08-20T07:35:29Z</time>
      </trkpt>
      <trkpt lat="44.47023" lon="1.792">
        <ele>169.8</ele>
        <time>2023-08-20T07:35:30Z</time>
      </trkpt>
      <trkpt lat="44.47041" lon="1.79209">
        <ele>169.8</ele>
        <time>2023-08-20T07:35:31Z</time>
      </trkpt>
      <trkpt lat="44.47059" lon="1.79217">
        <ele>170</ele>
        <time>2023-08-20T07:35:32Z</time>
      </trkpt>
      <trkpt lat="44.47078" lon="1.79224">
        <ele>170</ele>
        <time>2023-08-20T07:35:33Z</time>
      </trkpt>
      <trkpt lat="44.47096" lon="1.7923">
        <ele>170</ele>
        <time>2023-08-20T07:35:34Z</time>
      </trkpt>
      <trkpt lat="44.47114" lon="1.79235">
        <ele>170.2</ele>
        <time>2023-08-20T07:35:35Z</time>
      </trkpt>
      <trkpt lat="44.47133" lon="1.7924">
        <ele>170.4</ele>
        <time>2023-08-20T07:35:36Z</time>
      </trkpt>
      <trkpt lat="44.47151" lon="1.79244">
        <ele>170.6</ele>
        <time>2023-08-20T07:35:37Z</time>
      </trkpt>
      <trkpt lat="44.47169" lon="1.79246">
        <ele>170.8</ele>
        <time>2023-08-20T07:35:38Z</time>
      </trkpt>
      <trkpt lat="44.47188" lon="1.79247">
        <ele>171</ele>
        <time>2023-08-20T07:35:39Z</time>
      </trkpt>
      <trkpt lat="44.47206" lon="1.79249">
        <ele>171.2</ele>
        <time>2023-08-20T07:35:40Z</time>
      </trkpt>
      <trkpt lat="44.47224" lon="1.79251">
        <ele>171.2</ele>
        <time>2023-08-20T07:35:41Z</time>
      </trkpt>
      <trkpt lat="44.47242" lon="1.79256">
        <ele>171.6</ele>
        <time>2023-08-20T07:35:42Z</time>
      </trkpt>
      <trkpt lat="44.4726" lon="1.79262">
        <ele>171.8</ele>
        <time>2023-08-20T07:35:43Z</time>
      </trkpt>
      <trkpt lat="44.47277" lon="1.79268">
        <ele>171.8</ele>
        <time>2023-08-20T07:35:44Z</time>
      </trkpt>
      <trkpt lat="44.47295" lon="1.79273">
        <ele>172.2</ele>
        <time>2023-08-20T07:35:45Z</time>
      </trkpt>
      <trkpt lat="44.47316" lon="1.79277">
        <ele>172.2</ele>
        <time>2023-08-20T07:35:46Z</time>
      </trkpt>
      <trkpt lat="44.4733" lon="1.79277">
        <ele>172.2</ele>
        <time>2023-08-20T07:35:47Z</time>
      </trkpt>
      <trkpt lat="44.47351" lon="1.79277">
        <ele>172.4</ele>
        <time>2023-08-20T07:35:48Z</time>
      </trkpt>
      <trkpt lat="44.47365" lon="1.79277">
        <ele>172.4</ele>
        <time>2023-08-20T07:35:49Z</time>
      </trkpt>
      <trkpt lat="44.47382" lon="1.79279">
        <ele>172.4</ele>
        <time>2023-08-20T07:35:50Z</time>
      </trkpt>
      <trkpt lat="44.474" lon="1.79281">
        <ele>172.6</ele>
        <time>2023-08-20T07:35:51Z</time>
      </trkpt>
      <trkpt lat="44.4742" lon="1.79285">
        <ele>172.6</ele>
        <time>2023-08-20T07:35:52Z</time>
      </trkpt>
      <trkpt lat="44.47438" lon="1.79289">
        <ele>172.8</ele>
        <time>2023-08-20T07:35:53Z</time>
      </trkpt>
      <trkpt lat="44.47452" lon="1.79293">
        <ele>172.8</ele>
        <time>2023-08-20T07:35:54Z</time>
      </trkpt>
      <trkpt lat="44.47473" lon="1.793">
        <ele>172.8</ele>
        <time>2023-08-20T07:35:55Z</time>
      </trkpt>
      <trkpt lat="44.47491" lon="1.79306">
        <ele>173</ele>
        <time>2023-08-20T07:35:56Z</time>
      </trkpt>
      <trkpt lat="44.47509" lon="1.79312">
        <ele>173.2</ele>
        <time>2023-08-20T07:35:57Z</time>
      </trkpt>
      <trkpt lat="44.47527" lon="1.79318">
        <ele>173.4</ele>
        <time>2023-08-20T07:35:58Z</time>
      </trkpt>
      <trkpt lat="44.47545" lon="1.79325">
        <ele>173.8</ele>
        <time>2023-08-20T07:35:59Z</time>
      </trkpt>
      <trkpt lat="44.47559" lon="1.7933">
        <ele>174.2</ele>
        <time>2023-08-20T07:36:00Z</time>
      </trkpt>
      <trkpt lat="44.47581" lon="1.79337">
        <ele>174.6</ele>
        <time>2023-08-20T07:36:01Z</time>
      </trkpt>
      <trkpt lat="44.47599" lon="1.79343">
        <ele>175</ele>
        <time>2023-08-20T07:36:02Z</time>
      </trkpt>
      <trkpt lat="44.47616" lon="1.7935">
        <ele>175.4</ele>
        <time>2023-08-20T07:36:03Z</time>
      </trkpt>
      <trkpt lat="44.47629" lon="1.79355">
        <ele>175.6</ele>
        <time>2023-08-20T07:36:04Z</time>
      </trkpt>
      <trkpt lat="44.47649" lon="1.79364">
        <ele>175.8</ele>
        <time>2023-08-20T07:36:05Z</time>
      </trkpt>
      <trkpt lat="44.47664" lon="1.79374">
        <ele>176</ele>
        <time>2023-08-20T07:36:06Z</time>
      </trkpt>
      <trkpt lat="44.47678" lon="1.79385">
        <ele>176.4</ele>
        <time>2023-08-20T07:36:07Z</time>
      </trkpt>
      <trkpt lat="44.47689" lon="1.79396">
        <ele>176.4</ele>
        <time>2023-08-20T07:36:08Z</time>
      </trkpt>
      <trkpt lat="44.47702" lon="1.79409">
        <ele>176.4</ele>
        <time>2023-08-20T07:36:09Z</time>
      </trkpt>
      <trkpt lat="44.47718" lon="1.79426">
        <ele>176.6</ele>
        <time>2023-08-20T07:36:10Z</time>
      </trkpt>
      <trkpt lat="44.47731" lon="1.79439">
        <ele>176.8</ele>
        <time>2023-08-20T07:36:11Z</time>
      </trkpt>
      <trkpt lat="44.47744" lon="1.79452">
        <ele>176.8</ele>
        <time>2023-08-20T07:36:12Z</time>
      </trkpt>
      <trkpt lat="44.47755" lon="1.79461">
        <ele>177</ele>
        <time>2023-08-20T07:36:13Z</time>
      </trkpt>
      <trkpt lat="44.47769" lon="1.79469">
        <ele>177</ele>
        <time>2023-08-20T07:36:14Z</time>
      </trkpt>
      <trkpt lat="44.47783" lon="1.79476">
        <ele>177</ele>
        <time>2023-08-20T07:36:15Z</time>
      </trkpt>
      <trkpt lat="44.47798" lon="1.79479">
        <ele>177</ele>
        <time>2023-08-20T07:36:16Z</time>
      </trkpt>
      <trkpt lat="44.47813" lon="1.7948">
        <ele>177.2</ele>
        <time>2023-08-20T07:36:17Z</time>
      </trkpt>
      <trkpt lat="44.47828" lon="1.79483">
        <ele>177.2</ele>
        <time>2023-08-20T07:36:18Z</time>
      </trkpt>
      <trkpt lat="44.47843" lon="1.79488">
        <ele>177.2</ele>
        <time>2023-08-20T07:36:19Z</time>
      </trkpt>
      <trkpt lat="44.4786" lon="1.79497">
        <ele>177.2</ele>
        <time>2023-08-20T07:36:20Z</time>
      </trkpt>
      <trkpt lat="44.4787" lon="1.79506">
        <ele>177.4</ele>
        <time>2023-08-20T07:36:21Z</time>
      </trkpt>
      <trkpt lat="44.47884" lon="1.79521">
        <ele>177.2</ele>
        <time>2023-08-20T07:36:22Z</time>
      </trkpt>
      <trkpt lat="44.47894" lon="1.79538">
        <ele>177.4</ele>
        <time>2023-08-20T07:36:23Z</time>
      </trkpt>
      <trkpt lat="44.47902" lon="1.79552">
        <ele>177.4</ele>
        <time>2023-08-20T07:36:24Z</time>
      </trkpt>
      <trkpt lat="44.47912" lon="1.7957">
        <ele>177.6</ele>
        <time>2023-08-20T07:36:25Z</time>
      </trkpt>
      <trkpt lat="44.47922" lon="1.79588">
        <ele>177.8</ele>
        <time>2023-08-20T07:36:26Z</time>
      </trkpt>
      <trkpt lat="44.47933" lon="1.79609">
        <ele>177.8</ele>
        <time>2023-08-20T07:36:27Z</time>
      </trkpt>
      <trkpt lat="44.47943" lon="1.79627">
        <ele>178</ele>
        <time>2023-08-20T07:36:28Z</time>
      </trkpt>
      <trkpt lat="44.47951" lon="1.7964">
        <ele>178</ele>
        <time>2023-08-20T07:36:29Z</time>
      </trkpt>
      <trkpt lat="44.47965" lon="1.79657">
        <ele>178.2</ele>
        <time>2023-08-20T07:36:30Z</time>
      </trkpt>
      <trkpt lat="44.47974" lon="1.7967">
        <ele>178.4</ele>
        <time>2023-08-20T07:36:31Z</time>
      </trkpt>
      <trkpt lat="44.47983" lon="1.79688">
        <ele>178.6</ele>
        <time>2023-08-20T07:36:32Z</time>
      </trkpt>
      <trkpt lat="44.47991" lon="1.79707">
        <ele>178.6</ele>
        <time>2023-08-20T07:36:33Z</time>
      </trkpt>
      <trkpt lat="44.47997" lon="1.79728">
        <ele>178.8</ele>
        <time>2023-08-20T07:36:34Z</time>
      </trkpt>
      <trkpt lat="44.48003" lon="1.79748">
        <ele>178.8</ele>
        <time>2023-08-20T07:36:35Z</time>
      </trkpt>
      <trkpt lat="44.48009" lon="1.79769">
        <ele>179</ele>
        <time>2023-08-20T07:36:36Z</time>
      </trkpt>
      <trkpt lat="44.48013" lon="1.79791">
        <ele>179.2</ele>
        <time>2023-08-20T07:36:37Z</time>
      </trkpt>
      <trkpt lat="44.48016" lon="1.79814">
        <ele>179.4</ele>
        <time>2023-08-20T07:36:38Z</time>
      </trkpt>
      <trkpt lat="44.4802" lon="1.79838">
        <ele>179.4</ele>
        <time>2023-08-20T07:36:39Z</time>
      </trkpt>
      <trkpt lat="44.48025" lon="1.79861">
        <ele>179.6</ele>
        <time>2023-08-20T07:36:40Z</time>
      </trkpt>
      <trkpt lat="44.4803" lon="1.79885">
        <ele>179.6</ele>
        <time>2023-08-20T07:36:41Z</time>
      </trkpt>
      <trkpt lat="44.48035" lon="1.79909">
        <ele>180</ele>
        <time>2023-08-20T07:36:42Z</time>
      </trkpt>
      <trkpt lat="44.48038" lon="1.79934">
        <ele>180.4</ele>
        <time>2023-08-20T07:36:43Z</time>
      </trkpt>
      <trkpt lat="44.48041" lon="1.79958">
        <ele>180.8</ele>
        <time>2023-08-20T07:36:44Z</time>
      </trkpt>
      <trkpt lat="44.48041" lon="1.79983">
        <ele>181</ele>
        <time>2023-08-20T07:36:45Z</time>
      </trkpt>
      <trkpt lat="44.48039" lon="1.80007">
        <ele>181.4</ele>
        <time>2023-08-20T07:36:46Z</time>
      </trkpt>
      <trkpt lat="44.48035" lon="1.80031">
        <ele>181.6</ele>
        <time>2023-08-20T07:36:47Z</time>
      </trkpt>
      <trkpt lat="44.48031" lon="1.80054">
        <ele>181.8</ele>
        <time>2023-08-20T07:36:48Z</time>
      </trkpt>
      <trkpt lat="44.48026" lon="1.80077">
        <ele>182</ele>
        <time>2023-08-20T07:36:49Z</time>
      </trkpt>
      <trkpt lat="44.48021" lon="1.801">
        <ele>182.2</ele>
        <time>2023-08-20T07:36:50Z</time>
      </trkpt>
      <trkpt lat="44.48015" lon="1.80123">
        <ele>182.2</ele>
        <time>2023-08-20T07:36:51Z</time>
      </trkpt>
      <trkpt lat="44.48009" lon="1.80145">
        <ele>182.2</ele>
        <time>2023-08-20T07:36:52Z</time>
      </trkpt>
      <trkpt lat="44.48001" lon="1.80166">
        <ele>182.4</ele>
        <time>2023-08-20T07:36:53Z</time>
      </trkpt>
      <trkpt lat="44.47992" lon="1.80187">
        <ele>182.4</ele>
        <time>2023-08-20T07:36:54Z</time>
      </trkpt>
      <trkpt lat="44.47983" lon="1.80208">
        <ele>182.4</ele>
        <time>2023-08-20T07:36:55Z</time>
      </trkpt>
      <trkpt lat="44.47974" lon="1.8023">
        <ele>182.6</ele>
        <time>2023-08-20T07:36:56Z</time>
      </trkpt>
      <trkpt lat="44.47965" lon="1.80251">
        <ele>182.8</ele>
        <time>2023-08-20T07:36:57Z</time>
      </trkpt>
      <trkpt lat="44.47957" lon="1.80273">
        <ele>182.8</ele>
        <time>2023-08-20T07:36:58Z</time>
      </trkpt>
      <trkpt lat="44.47947" lon="1.80295">
        <ele>183</ele>
        <time>2023-08-20T07:36:59Z</time>
      </trkpt>
      <trkpt lat="44.47938" lon="1.80316">
        <ele>183</ele>
        <time>2023-08-20T07:37:00Z</time>
      </trkpt>
      <trkpt lat="44.47929" lon="1.80338">
        <ele>183</ele>
        <time>2023-08-20T07:37:01Z</time>
      </trkpt>
      <trkpt lat="44.47919" lon="1.8036">
        <ele>183.2</ele>
        <time>2023-08-20T07:37:02Z</time>
      </trkpt>
      <trkpt lat="44.47911" lon="1.80383">
        <ele>183.4</ele>
        <time>2023-08-20T07:37:03Z</time>
      </trkpt>
      <trkpt lat="44.47901" lon="1.80405">
        <ele>183.4</ele>
        <time>2023-08-20T07:37:04Z</time>
      </trkpt>
      <trkpt lat="44.47892" lon="1.80426">
        <ele>183.6</ele>
        <time>2023-08-20T07:37:05Z</time>
      </trkpt>
      <trkpt lat="44.47881" lon="1.80447">
        <ele>183.6</ele>
        <time>2023-08-20T07:37:06Z</time>
      </trkpt>
      <trkpt lat="44.4787" lon="1.80465">
        <ele>183.6</ele>
        <time>2023-08-20T07:37:07Z</time>
      </trkpt>
      <trkpt lat="44.47858" lon="1.80483">
        <ele>183.8</ele>
        <time>2023-08-20T07:37:08Z</time>
      </trkpt>
      <trkpt lat="44.47845" lon="1.80499">
        <ele>183.8</ele>
        <time>2023-08-20T07:37:09Z</time>
      </trkpt>
      <trkpt lat="44.47833" lon="1.80516">
        <ele>184</ele>
        <time>2023-08-20T07:37:10Z</time>
      </trkpt>
      <trkpt lat="44.4782" lon="1.80534">
        <ele>184</ele>
        <time>2023-08-20T07:37:11Z</time>
      </trkpt>
      <trkpt lat="44.47808" lon="1.80552">
        <ele>184</ele>
        <time>2023-08-20T07:37:12Z</time>
      </trkpt>
      <trkpt lat="44.47796" lon="1.80569">
        <ele>184</ele>
        <time>2023-08-20T07:37:13Z</time>
      </trkpt>
      <trkpt lat="44.47784" lon="1.80587">
        <ele>184</ele>
        <time>2023-08-20T07:37:14Z</time>
      </trkpt>
      <trkpt lat="44.47771" lon="1.80604">
        <ele>184</ele>
        <time>2023-08-20T07:37:15Z</time>
      </trkpt>
      <trkpt lat="44.47758" lon="1.80621">
        <ele>184</ele>
        <time>2023-08-20T07:37:16Z</time>
      </trkpt>
      <trkpt lat="44.47745" lon="1.80638">
        <ele>184</ele>
        <time>2023-08-20T07:37:17Z</time>
      </trkpt>
      <trkpt lat="44.47732" lon="1.80655">
        <ele>184</ele>
        <time>2023-08-20T07:37:18Z</time>
      </trkpt>
      <trkpt lat="44.4772" lon="1.80672">
        <ele>184</ele>
        <time>2023-08-20T07:37:19Z</time>
      </trkpt>
      <trkpt lat="44.47708" lon="1.80689">
        <ele>184</ele>
        <time>2023-08-20T07:37:20Z</time>
      </trkpt>
      <trkpt lat="44.47697" lon="1.80708">
        <ele>184</ele>
        <time>2023-08-20T07:37:21Z</time>
      </trkpt>
      <trkpt lat="44.47688" lon="1.80728">
        <ele>184</ele>
        <time>2023-08-20T07:37:22Z</time>
      </trkpt>
      <trkpt lat="44.47673" lon="1.80772">
        <ele>184</ele>
        <time>2023-08-20T07:37:24Z</time>
      </trkpt>
      <trkpt lat="44.47654" lon="1.80867">
        <ele>184</ele>
        <time>2023-08-20T07:37:28Z</time>
      </trkpt>
      <trkpt lat="44.47647" lon="1.80965">
        <ele>184</ele>
        <time>2023-08-20T07:37:32Z</time>
      </trkpt>
      <trkpt lat="44.47644" lon="1.81035">
        <ele>184</ele>
        <time>2023-08-20T07:37:35Z</time>
      </trkpt>
      <trkpt lat="44.47645" lon="1.81058">
        <ele>184</ele>
        <time>2023-08-20T07:37:36Z</time>
      </trkpt>
      <trkpt lat="44.47648" lon="1.81081">
        <ele>184</ele>
        <time>2023-08-20T07:37:37Z</time>
      </trkpt>
      <trkpt lat="44.47653" lon="1.81103">
        <ele>184</ele>
        <time>2023-08-20T07:37:38Z</time>
      </trkpt>
      <trkpt lat="44.47666" lon="1.81145">
        <ele>183.8</ele>
        <time>2023-08-20T07:37:40Z</time>
      </trkpt>
      <trkpt lat="44.47677" lon="1.81188">
        <ele>183.6</ele>
        <time>2023-08-20T07:37:42Z</time>
      </trkpt>
      <trkpt lat="44.47686" lon="1.81229">
        <ele>183.4</ele>
        <time>2023-08-20T07:37:44Z</time>
      </trkpt>
      <trkpt lat="44.4769" lon="1.8125">
        <ele>183.2</ele>
        <time>2023-08-20T07:37:45Z</time>
      </trkpt>
      <trkpt lat="44.47692" lon="1.8127">
        <ele>183</ele>
        <time>2023-08-20T07:37:46Z</time>
      </trkpt>
      <trkpt lat="44.4769" lon="1.81289">
        <ele>183</ele>
        <time>2023-08-20T07:37:47Z</time>
      </trkpt>
      <trkpt lat="44.47684" lon="1.81304">
        <ele>183</ele>
        <time>2023-08-20T07:37:48Z</time>
      </trkpt>
      <trkpt lat="44.47676" lon="1.81317">
        <ele>182.8</ele>
        <time>2023-08-20T07:37:49Z</time>
      </trkpt>
      <trkpt lat="44.47667" lon="1.81327">
        <ele>182.4</ele>
        <time>2023-08-20T07:37:50Z</time>
      </trkpt>
      <trkpt lat="44.47657" lon="1.81335">
        <ele>182.4</ele>
        <time>2023-08-20T07:37:51Z</time>
      </trkpt>
      <trkpt lat="44.47646" lon="1.81343">
        <ele>181.6</ele>
        <time>2023-08-20T07:37:52Z</time>
      </trkpt>
      <trkpt lat="44.47634" lon="1.8135">
        <ele>181</ele>
        <time>2023-08-20T07:37:53Z</time>
      </trkpt>
      <trkpt lat="44.47622" lon="1.81357">
        <ele>180.8</ele>
        <time>2023-08-20T07:37:54Z</time>
      </trkpt>
      <trkpt lat="44.47609" lon="1.81362">
        <ele>180.6</ele>
        <time>2023-08-20T07:37:55Z</time>
      </trkpt>
      <trkpt lat="44.47596" lon="1.81364">
        <ele>180.4</ele>
        <time>2023-08-20T07:37:56Z</time>
      </trkpt>
      <trkpt lat="44.47557" lon="1.81365">
        <ele>180.4</ele>
        <time>2023-08-20T07:37:59Z</time>
      </trkpt>
      <trkpt lat="44.47544" lon="1.8137">
        <ele>180.4</ele>
        <time>2023-08-20T07:38:00Z</time>
      </trkpt>
      <trkpt lat="44.47532" lon="1.81379">
        <ele>180.6</ele>
        <time>2023-08-20T07:38:01Z</time>
      </trkpt>
      <trkpt lat="44.47522" lon="1.81391">
        <ele>180.8</ele>
        <time>2023-08-20T07:38:02Z</time>
      </trkpt>
      <trkpt lat="44.47514" lon="1.81406">
        <ele>180.8</ele>
        <time>2023-08-20T07:38:03Z</time>
      </trkpt>
      <trkpt lat="44.47506" lon="1.81422">
        <ele>180.8</ele>
        <time>2023-08-20T07:38:04Z</time>
      </trkpt>
      <trkpt lat="44.47499" lon="1.81439">
        <ele>181</ele>
        <time>2023-08-20T07:38:05Z</time>
      </trkpt>
      <trkpt lat="44.47492" lon="1.81456">
        <ele>181</ele>
        <time>2023-08-20T07:38:06Z</time>
      </trkpt>
      <trkpt lat="44.47486" lon="1.81475">
        <ele>181</ele>
        <time>2023-08-20T07:38:07Z</time>
      </trkpt>
      <trkpt lat="44.47482" lon="1.81495">
        <ele>181.2</ele>
        <time>2023-08-20T07:38:08Z</time>
      </trkpt>
      <trkpt lat="44.4748" lon="1.81516">
        <ele>181.4</ele>
        <time>2023-08-20T07:38:09Z</time>
      </trkpt>
      <trkpt lat="44.47481" lon="1.8156">
        <ele>181.8</ele>
        <time>2023-08-20T07:38:11Z</time>
      </trkpt>
      <trkpt lat="44.47491" lon="1.81623">
        <ele>182</ele>
        <time>2023-08-20T07:38:14Z</time>
      </trkpt>
      <trkpt lat="44.47497" lon="1.81641">
        <ele>182.2</ele>
        <time>2023-08-20T07:38:15Z</time>
      </trkpt>
      <trkpt lat="44.47503" lon="1.81658">
        <ele>182.2</ele>
        <time>2023-08-20T07:38:16Z</time>
      </trkpt>
      <trkpt lat="44.47512" lon="1.81671">
        <ele>182.4</ele>
        <time>2023-08-20T07:38:17Z</time>
      </trkpt>
      <trkpt lat="44.47522" lon="1.81683">
        <ele>182.4</ele>
        <time>2023-08-20T07:38:18Z</time>
      </trkpt>
      <trkpt lat="44.47533" lon="1.81691">
        <ele>182.4</ele>
        <time>2023-08-20T07:38:19Z</time>
      </trkpt>
      <trkpt lat="44.47543" lon="1.81698">
        <ele>182.4</ele>
        <time>2023-08-20T07:38:20Z</time>
      </trkpt>
      <trkpt lat="44.47554" lon="1.81708">
        <ele>182.2</ele>
        <time>2023-08-20T07:38:21Z</time>
      </trkpt>
      <trkpt lat="44.47562" lon="1.81721">
        <ele>182.2</ele>
        <time>2023-08-20T07:38:22Z</time>
      </trkpt>
      <trkpt lat="44.4758" lon="1.81749">
        <ele>181.8</ele>
        <time>2023-08-20T07:38:24Z</time>
      </trkpt>
      <trkpt lat="44.47601" lon="1.81777">
        <ele>181.6</ele>
        <time>2023-08-20T07:38:26Z</time>
      </trkpt>
      <trkpt lat="44.47621" lon="1.81808">
        <ele>181.4</ele>
        <time>2023-08-20T07:38:28Z</time>
      </trkpt>
      <trkpt lat="44.47629" lon="1.81826">
        <ele>181.4</ele>
        <time>2023-08-20T07:38:29Z</time>
      </trkpt>
      <trkpt lat="44.47662" lon="1.81902">
        <ele>182.2</ele>
        <time>2023-08-20T07:38:33Z</time>
      </trkpt>
      <trkpt lat="44.4767" lon="1.8192">
        <ele>182.4</ele>
        <time>2023-08-20T07:38:34Z</time>
      </trkpt>
      <trkpt lat="44.47679" lon="1.81937">
        <ele>182.4</ele>
        <time>2023-08-20T07:38:35Z</time>
      </trkpt>
      <trkpt lat="44.47687" lon="1.81954">
        <ele>182.4</ele>
        <time>2023-08-20T07:38:36Z</time>
      </trkpt>
      <trkpt lat="44.47695" lon="1.8197">
        <ele>182.4</ele>
        <time>2023-08-20T07:38:37Z</time>
      </trkpt>
      <trkpt lat="44.47702" lon="1.81986">
        <ele>182.4</ele>
        <time>2023-08-20T07:38:38Z</time>
      </trkpt>
      <trkpt lat="44.4771" lon="1.82002">
        <ele>182.4</ele>
        <time>2023-08-20T07:38:39Z</time>
      </trkpt>
      <trkpt lat="44.47717" lon="1.82018">
        <ele>182.2</ele>
        <time>2023-08-20T07:38:40Z</time>
      </trkpt>
      <trkpt lat="44.47724" lon="1.82035">
        <ele>182</ele>
        <time>2023-08-20T07:38:41Z</time>
      </trkpt>
      <trkpt lat="44.47736" lon="1.8207">
        <ele>181.6</ele>
        <time>2023-08-20T07:38:43Z</time>
      </trkpt>
      <trkpt lat="44.47741" lon="1.8209">
        <ele>181.6</ele>
        <time>2023-08-20T07:38:44Z</time>
      </trkpt>
      <trkpt lat="44.47747" lon="1.82131">
        <ele>181.6</ele>
        <time>2023-08-20T07:38:46Z</time>
      </trkpt>
      <trkpt lat="44.4776" lon="1.82218">
        <ele>181.8</ele>
        <time>2023-08-20T07:38:50Z</time>
      </trkpt>
      <trkpt lat="44.47763" lon="1.82241">
        <ele>181.8</ele>
        <time>2023-08-20T07:38:51Z</time>
      </trkpt>
      <trkpt lat="44.47778" lon="1.82336">
        <ele>183</ele>
        <time>2023-08-20T07:38:55Z</time>
      </trkpt>
      <trkpt lat="44.47785" lon="1.82387">
        <ele>183.6</ele>
        <time>2023-08-20T07:38:57Z</time>
      </trkpt>
      <trkpt lat="44.47794" lon="1.82465">
        <ele>184</ele>
        <time>2023-08-20T07:39:00Z</time>
      </trkpt>
      <trkpt lat="44.47797" lon="1.82516">
        <ele>184.6</ele>
        <time>2023-08-20T07:39:02Z</time>
      </trkpt>
      <trkpt lat="44.47801" lon="1.8254">
        <ele>185</ele>
        <time>2023-08-20T07:39:03Z</time>
      </trkpt>
      <trkpt lat="44.47804" lon="1.82563">
        <ele>185</ele>
        <time>2023-08-20T07:39:04Z</time>
      </trkpt>
      <trkpt lat="44.47805" lon="1.82587">
        <ele>185</ele>
        <time>2023-08-20T07:39:05Z</time>
      </trkpt>
      <trkpt lat="44.47806" lon="1.82615">
        <ele>185.2</ele>
        <time>2023-08-20T07:39:06Z</time>
      </trkpt>
      <trkpt lat="44.47807" lon="1.82638">
        <ele>185.2</ele>
        <time>2023-08-20T07:39:07Z</time>
      </trkpt>
      <trkpt lat="44.47808" lon="1.82662">
        <ele>185.2</ele>
        <time>2023-08-20T07:39:08Z</time>
      </trkpt>
      <trkpt lat="44.4781" lon="1.82681">
        <ele>185</ele>
        <time>2023-08-20T07:39:09Z</time>
      </trkpt>
      <trkpt lat="44.47812" lon="1.82704">
        <ele>185</ele>
        <time>2023-08-20T07:39:10Z</time>
      </trkpt>
      <trkpt lat="44.47815" lon="1.82733">
        <ele>184.6</ele>
        <time>2023-08-20T07:39:11Z</time>
      </trkpt>
      <trkpt lat="44.47815" lon="1.82757">
        <ele>184.6</ele>
        <time>2023-08-20T07:39:12Z</time>
      </trkpt>
      <trkpt lat="44.47815" lon="1.82781">
        <ele>184.4</ele>
        <time>2023-08-20T07:39:13Z</time>
      </trkpt>
      <trkpt lat="44.47815" lon="1.828">
        <ele>184.4</ele>
        <time>2023-08-20T07:39:14Z</time>
      </trkpt>
      <trkpt lat="44.47816" lon="1.8283">
        <ele>184.4</ele>
        <time>2023-08-20T07:39:15Z</time>
      </trkpt>
      <trkpt lat="44.47816" lon="1.82855">
        <ele>184.4</ele>
        <time>2023-08-20T07:39:16Z</time>
      </trkpt>
      <trkpt lat="44.47816" lon="1.8288">
        <ele>184.4</ele>
        <time>2023-08-20T07:39:17Z</time>
      </trkpt>
      <trkpt lat="44.47814" lon="1.82905">
        <ele>184.6</ele>
        <time>2023-08-20T07:39:18Z</time>
      </trkpt>
      <trkpt lat="44.47809" lon="1.82949">
        <ele>184.8</ele>
        <time>2023-08-20T07:39:20Z</time>
      </trkpt>
      <trkpt lat="44.47803" lon="1.83003">
        <ele>184.8</ele>
        <time>2023-08-20T07:39:22Z</time>
      </trkpt>
      <trkpt lat="44.47795" lon="1.83099">
        <ele>185</ele>
        <time>2023-08-20T07:39:26Z</time>
      </trkpt>
      <trkpt lat="44.47786" lon="1.83197">
        <ele>185.2</ele>
        <time>2023-08-20T07:39:30Z</time>
      </trkpt>
      <trkpt lat="44.47782" lon="1.8322">
        <ele>185.2</ele>
        <time>2023-08-20T07:39:31Z</time>
      </trkpt>
      <trkpt lat="44.47778" lon="1.83242">
        <ele>185.2</ele>
        <time>2023-08-20T07:39:32Z</time>
      </trkpt>
      <trkpt lat="44.4777" lon="1.8326">
        <ele>185</ele>
        <time>2023-08-20T07:39:33Z</time>
      </trkpt>
      <trkpt lat="44.47761" lon="1.83275">
        <ele>185</ele>
        <time>2023-08-20T07:39:34Z</time>
      </trkpt>
      <trkpt lat="44.47749" lon="1.83286">
        <ele>184.8</ele>
        <time>2023-08-20T07:39:35Z</time>
      </trkpt>
      <trkpt lat="44.47736" lon="1.83292">
        <ele>184.4</ele>
        <time>2023-08-20T07:39:36Z</time>
      </trkpt>
      <trkpt lat="44.47722" lon="1.83295">
        <ele>184.2</ele>
        <time>2023-08-20T07:39:37Z</time>
      </trkpt>
      <trkpt lat="44.47709" lon="1.83296">
        <ele>183.8</ele>
        <time>2023-08-20T07:39:38Z</time>
      </trkpt>
      <trkpt lat="44.47695" lon="1.83295">
        <ele>183.6</ele>
        <time>2023-08-20T07:39:39Z</time>
      </trkpt>
      <trkpt lat="44.47681" lon="1.83294">
        <ele>183.2</ele>
        <time>2023-08-20T07:39:40Z</time>
      </trkpt>
      <trkpt lat="44.47668" lon="1.83293">
        <ele>183</ele>
        <time>2023-08-20T07:39:41Z</time>
      </trkpt>
      <trkpt lat="44.47654" lon="1.83293">
        <ele>182.4</ele>
        <time>2023-08-20T07:39:42Z</time>
      </trkpt>
      <trkpt lat="44.47625" lon="1.83297">
        <ele>182</ele>
        <time>2023-08-20T07:39:44Z</time>
      </trkpt>
      <trkpt lat="44.47598" lon="1.83312">
        <ele>181.8</ele>
        <time>2023-08-20T07:39:46Z</time>
      </trkpt>
      <trkpt lat="44.47586" lon="1.83323">
        <ele>181.6</ele>
        <time>2023-08-20T07:39:47Z</time>
      </trkpt>
      <trkpt lat="44.47574" lon="1.83336">
        <ele>181.6</ele>
        <time>2023-08-20T07:39:48Z</time>
      </trkpt>
      <trkpt lat="44.47562" lon="1.83349">
        <ele>181.6</ele>
        <time>2023-08-20T07:39:49Z</time>
      </trkpt>
      <trkpt lat="44.47541" lon="1.83375">
        <ele>181.6</ele>
        <time>2023-08-20T07:39:51Z</time>
      </trkpt>
      <trkpt lat="44.47533" lon="1.83389">
        <ele>181.6</ele>
        <time>2023-08-20T07:39:52Z</time>
      </trkpt>
      <trkpt lat="44.47528" lon="1.83404">
        <ele>181.4</ele>
        <time>2023-08-20T07:39:53Z</time>
      </trkpt>
      <trkpt lat="44.47527" lon="1.83417">
        <ele>181.4</ele>
        <time>2023-08-20T07:39:54Z</time>
      </trkpt>
      <trkpt lat="44.47528" lon="1.8343">
        <ele>181.4</ele>
        <time>2023-08-20T07:39:55Z</time>
      </trkpt>
      <trkpt lat="44.4753" lon="1.83442">
        <ele>181.4</ele>
        <time>2023-08-20T07:39:56Z</time>
      </trkpt>
      <trkpt lat="44.47535" lon="1.83453">
        <ele>181.4</ele>
        <time>2023-08-20T07:39:57Z</time>
      </trkpt>
      <trkpt lat="44.47541" lon="1.83464">
        <ele>181.2</ele>
        <time>2023-08-20T07:39:58Z</time>
      </trkpt>
      <trkpt lat="44.47548" lon="1.83475">
        <ele>181</ele>
        <time>2023-08-20T07:39:59Z</time>
      </trkpt>
      <trkpt lat="44.47555" lon="1.83486">
        <ele>181</ele>
        <time>2023-08-20T07:40:00Z</time>
      </trkpt>
      <trkpt lat="44.47562" lon="1.83497">
        <ele>180.8</ele>
        <time>2023-08-20T07:40:01Z</time>
      </trkpt>
      <trkpt lat="44.47579" lon="1.83526">
        <ele>180.6</ele>
        <time>2023-08-20T07:40:04Z</time>
      </trkpt>
      <trkpt lat="44.47581" lon="1.83532">
        <ele>180.4</ele>
        <time>2023-08-20T07:40:05Z</time>
      </trkpt>
      <trkpt lat="44.47581" lon="1.83537">
        <ele>180.4</ele>
        <time>2023-08-20T07:40:06Z</time>
      </trkpt>
      <trkpt lat="44.47581" lon="1.83542">
        <ele>180.2</ele>
        <time>2023-08-20T07:40:07Z</time>
      </trkpt>
      <trkpt lat="44.4758" lon="1.83545">
        <ele>180</ele>
        <time>2023-08-20T07:40:08Z</time>
      </trkpt>
      <trkpt lat="44.47579" lon="1.83549">
        <ele>179.8</ele>
        <time>2023-08-20T07:40:09Z</time>
      </trkpt>
      <trkpt lat="44.47579" lon="1.83552">
        <ele>179.4</ele>
        <time>2023-08-20T07:40:10Z</time>
      </trkpt>
      <trkpt lat="44.47579" lon="1.83555">
        <ele>179.2</ele>
        <time>2023-08-20T07:40:11Z</time>
      </trkpt>
      <trkpt lat="44.47578" lon="1.83559">
        <ele>178.8</ele>
        <time>2023-08-20T07:40:12Z</time>
      </trkpt>
      <trkpt lat="44.47579" lon="1.83563">
        <ele>178.6</ele>
        <time>2023-08-20T07:40:13Z</time>
      </trkpt>
      <trkpt lat="44.47581" lon="1.83568">
        <ele>178.2</ele>
        <time>2023-08-20T07:40:14Z</time>
      </trkpt>
      <trkpt lat="44.47586" lon="1.83573">
        <ele>177.8</ele>
        <time>2023-08-20T07:40:15Z</time>
      </trkpt>
      <trkpt lat="44.47592" lon="1.83578">
        <ele>177.8</ele>
        <time>2023-08-20T07:40:16Z</time>
      </trkpt>
      <trkpt lat="44.47608" lon="1.83589">
        <ele>177.6</ele>
        <time>2023-08-20T07:40:18Z</time>
      </trkpt>
      <trkpt lat="44.47648" lon="1.83619">
        <ele>177.8</ele>
        <time>2023-08-20T07:40:22Z</time>
      </trkpt>
      <trkpt lat="44.47682" lon="1.83641">
        <ele>179</ele>
        <time>2023-08-20T07:40:25Z</time>
      </trkpt>
      <trkpt lat="44.47694" lon="1.83644">
        <ele>179.4</ele>
        <time>2023-08-20T07:40:26Z</time>
      </trkpt>
      <trkpt lat="44.47707" lon="1.83645">
        <ele>179.4</ele>
        <time>2023-08-20T07:40:27Z</time>
      </trkpt>
      <trkpt lat="44.47719" lon="1.83645">
        <ele>179.6</ele>
        <time>2023-08-20T07:40:28Z</time>
      </trkpt>
      <trkpt lat="44.47732" lon="1.83643">
        <ele>179.6</ele>
        <time>2023-08-20T07:40:29Z</time>
      </trkpt>
      <trkpt lat="44.4776" lon="1.83635">
        <ele>179.6</ele>
        <time>2023-08-20T07:40:31Z</time>
      </trkpt>
      <trkpt lat="44.47774" lon="1.8363">
        <ele>179.4</ele>
        <time>2023-08-20T07:40:32Z</time>
      </trkpt>
      <trkpt lat="44.47789" lon="1.83624">
        <ele>179.2</ele>
        <time>2023-08-20T07:40:33Z</time>
      </trkpt>
      <trkpt lat="44.47824" lon="1.83617">
        <ele>179</ele>
        <time>2023-08-20T07:40:35Z</time>
      </trkpt>
      <trkpt lat="44.47878" lon="1.8362">
        <ele>178.2</ele>
        <time>2023-08-20T07:40:38Z</time>
      </trkpt>
      <trkpt lat="44.47931" lon="1.83629">
        <ele>177.4</ele>
        <time>2023-08-20T07:40:41Z</time>
      </trkpt>
      <trkpt lat="44.47965" lon="1.83638">
        <ele>177.2</ele>
        <time>2023-08-20T07:40:43Z</time>
      </trkpt>
      <trkpt lat="44.47982" lon="1.83643">
        <ele>177.2</ele>
        <time>2023-08-20T07:40:44Z</time>
      </trkpt>
      <trkpt lat="44.47997" lon="1.83649">
        <ele>177</ele>
        <time>2023-08-20T07:40:45Z</time>
      </trkpt>
      <trkpt lat="44.48013" lon="1.83654">
        <ele>176.6</ele>
        <time>2023-08-20T07:40:46Z</time>
      </trkpt>
      <trkpt lat="44.48026" lon="1.83661">
        <ele>176.2</ele>
        <time>2023-08-20T07:40:47Z</time>
      </trkpt>
      <trkpt lat="44.48041" lon="1.83667">
        <ele>175.8</ele>
        <time>2023-08-20T07:40:48Z</time>
      </trkpt>
      <trkpt lat="44.48056" lon="1.83674">
        <ele>175.2</ele>
        <time>2023-08-20T07:40:49Z</time>
      </trkpt>
      <trkpt lat="44.48071" lon="1.83679">
        <ele>175</ele>
        <time>2023-08-20T07:40:50Z</time>
      </trkpt>
      <trkpt lat="44.48087" lon="1.83684">
        <ele>174.4</ele>
        <time>2023-08-20T07:40:51Z</time>
      </trkpt>
      <trkpt lat="44.48124" lon="1.83694">
        <ele>173.4</ele>
        <time>2023-08-20T07:40:53Z</time>
      </trkpt>
      <trkpt lat="44.48198" lon="1.8371">
        <ele>172.2</ele>
        <time>2023-08-20T07:40:57Z</time>
      </trkpt>
      <trkpt lat="44.48248" lon="1.83722">
        <ele>170.6</ele>
        <time>2023-08-20T07:41:00Z</time>
      </trkpt>
      <trkpt lat="44.48268" lon="1.8373">
        <ele>170.4</ele>
        <time>2023-08-20T07:41:01Z</time>
      </trkpt>
      <trkpt lat="44.48285" lon="1.83737">
        <ele>170</ele>
        <time>2023-08-20T07:41:02Z</time>
      </trkpt>
      <trkpt lat="44.48299" lon="1.83745">
        <ele>169.2</ele>
        <time>2023-08-20T07:41:03Z</time>
      </trkpt>
      <trkpt lat="44.48313" lon="1.83752">
        <ele>168.6</ele>
        <time>2023-08-20T07:41:04Z</time>
      </trkpt>
      <trkpt lat="44.48324" lon="1.83758">
        <ele>167.6</ele>
        <time>2023-08-20T07:41:05Z</time>
      </trkpt>
      <trkpt lat="44.48333" lon="1.83763">
        <ele>166.8</ele>
        <time>2023-08-20T07:41:06Z</time>
      </trkpt>
      <trkpt lat="44.48337" lon="1.83765">
        <ele>165.8</ele>
        <time>2023-08-20T07:41:07Z</time>
      </trkpt>
      <trkpt lat="44.48339" lon="1.83766">
        <ele>165.4</ele>
        <time>2023-08-20T07:41:08Z</time>
      </trkpt>
      <trkpt lat="44.4834" lon="1.83767">
        <ele>164.4</ele>
        <time>2023-08-20T07:41:09Z</time>
      </trkpt>
      <trkpt lat="44.48341" lon="1.83767">
        <ele>163.8</ele>
        <time>2023-08-20T07:41:10Z</time>
      </trkpt>
      <trkpt lat="44.48342" lon="1.83768">
        <ele>162.4</ele>
        <time>2023-08-20T07:41:11Z</time>
      </trkpt>
      <trkpt lat="44.48343" lon="1.83768">
        <ele>161.4</ele>
        <time>2023-08-20T07:41:12Z</time>
      </trkpt>
      <trkpt lat="44.48344" lon="1.83768">
        <ele>160.8</ele>
        <time>2023-08-20T07:41:13Z</time>
      </trkpt>
      <trkpt lat="44.48344" lon="1.83768">
        <ele>160.2</ele>
        <time>2023-08-20T07:41:14Z</time>
      </trkpt>
      <trkpt lat="44.48351" lon="1.8377">
        <ele>158.4</ele>
        <time>2023-08-20T07:41:18Z</time>
      </trkpt>
      <trkpt lat="44.48355" lon="1.83772">
        <ele>158</ele>
        <time>2023-08-20T07:41:19Z</time>
      </trkpt>
      <trkpt lat="44.48386" lon="1.83787">
        <ele>157.6</ele>
        <time>2023-08-20T07:41:23Z</time>
      </trkpt>
      <trkpt lat="44.48427" lon="1.83807">
        <ele>157.8</ele>
        <time>2023-08-20T07:41:27Z</time>
      </trkpt>
      <trkpt lat="44.48483" lon="1.83829">
        <ele>159.2</ele>
        <time>2023-08-20T07:41:32Z</time>
      </trkpt>
      <trkpt lat="44.48495" lon="1.83832">
        <ele>159.4</ele>
        <time>2023-08-20T07:41:33Z</time>
      </trkpt>
      <trkpt lat="44.48504" lon="1.83835">
        <ele>159.6</ele>
        <time>2023-08-20T07:41:34Z</time>
      </trkpt>
      <trkpt lat="44.48515" lon="1.83839">
        <ele>159.6</ele>
        <time>2023-08-20T07:41:35Z</time>
      </trkpt>
      <trkpt lat="44.48549" lon="1.83857">
        <ele>159.8</ele>
        <time>2023-08-20T07:41:38Z</time>
      </trkpt>
      <trkpt lat="44.48577" lon="1.83883">
        <ele>159.8</ele>
        <time>2023-08-20T07:41:41Z</time>
      </trkpt>
      <trkpt lat="44.48584" lon="1.83893">
        <ele>159.6</ele>
        <time>2023-08-20T07:41:42Z</time>
      </trkpt>
      <trkpt lat="44.4859" lon="1.83905">
        <ele>159.4</ele>
        <time>2023-08-20T07:41:43Z</time>
      </trkpt>
      <trkpt lat="44.48593" lon="1.83917">
        <ele>159</ele>
        <time>2023-08-20T07:41:44Z</time>
      </trkpt>
      <trkpt lat="44.48593" lon="1.83929">
        <ele>158.8</ele>
        <time>2023-08-20T07:41:45Z</time>
      </trkpt>
      <trkpt lat="44.48592" lon="1.83943">
        <ele>158.4</ele>
        <time>2023-08-20T07:41:46Z</time>
      </trkpt>
      <trkpt lat="44.48591" lon="1.83956">
        <ele>158</ele>
        <time>2023-08-20T07:41:47Z</time>
      </trkpt>
      <trkpt lat="44.4859" lon="1.83969">
        <ele>157.4</ele>
        <time>2023-08-20T07:41:48Z</time>
      </trkpt>
      <trkpt lat="44.4859" lon="1.83983">
        <ele>157.2</ele>
        <time>2023-08-20T07:41:49Z</time>
      </trkpt>
      <trkpt lat="44.48589" lon="1.84007">
        <ele>156.6</ele>
        <time>2023-08-20T07:41:51Z</time>
      </trkpt>
      <trkpt lat="44.4859" lon="1.84018">
        <ele>156.2</ele>
        <time>2023-08-20T07:41:52Z</time>
      </trkpt>
      <trkpt lat="44.48589" lon="1.8403">
        <ele>155.4</ele>
        <time>2023-08-20T07:41:53Z</time>
      </trkpt>
      <trkpt lat="44.48589" lon="1.8404">
        <ele>155</ele>
        <time>2023-08-20T07:41:54Z</time>
      </trkpt>
      <trkpt lat="44.48589" lon="1.84051">
        <ele>154.4</ele>
        <time>2023-08-20T07:41:55Z</time>
      </trkpt>
      <trkpt lat="44.48589" lon="1.84062">
        <ele>154.2</ele>
        <time>2023-08-20T07:41:56Z</time>
      </trkpt>
      <trkpt lat="44.48588" lon="1.84072">
        <ele>153.6</ele>
        <time>2023-08-20T07:41:57Z</time>
      </trkpt>
      <trkpt lat="44.48587" lon="1.8409">
        <ele>152.8</ele>
        <time>2023-08-20T07:41:59Z</time>
      </trkpt>
      <trkpt lat="44.48587" lon="1.84099">
        <ele>152.4</ele>
        <time>2023-08-20T07:42:00Z</time>
      </trkpt>
      <trkpt lat="44.48586" lon="1.84108">
        <ele>152.2</ele>
        <time>2023-08-20T07:42:01Z</time>
      </trkpt>
      <trkpt lat="44.48586" lon="1.84115">
        <ele>151.6</ele>
        <time>2023-08-20T07:42:02Z</time>
      </trkpt>
      <trkpt lat="44.48585" lon="1.84122">
        <ele>151.4</ele>
        <time>2023-08-20T07:42:03Z</time>
      </trkpt>
      <trkpt lat="44.48584" lon="1.84127">
        <ele>151.2</ele>
        <time>2023-08-20T07:42:04Z</time>
      </trkpt>
      <trkpt lat="44.48585" lon="1.84132">
        <ele>151</ele>
        <time>2023-08-20T07:42:05Z</time>
      </trkpt>
      <trkpt lat="44.48585" lon="1.84137">
        <ele>150.8</ele>
        <time>2023-08-20T07:42:06Z</time>
      </trkpt>
      <trkpt lat="44.48585" lon="1.84142">
        <ele>150.6</ele>
        <time>2023-08-20T07:42:07Z</time>
      </trkpt>
      <trkpt lat="44.48585" lon="1.84146">
        <ele>150.4</ele>
        <time>2023-08-20T07:42:08Z</time>
      </trkpt>
      <trkpt lat="44.48584" lon="1.8415">
        <ele>150.2</ele>
        <time>2023-08-20T07:42:09Z</time>
      </trkpt>
      <trkpt lat="44.48584" lon="1.84154">
        <ele>150</ele>
        <time>2023-08-20T07:42:10Z</time>
      </trkpt>
      <trkpt lat="44.48583" lon="1.84158">
        <ele>150</ele>
        <time>2023-08-20T07:42:11Z</time>
      </trkpt>
      <trkpt lat="44.48583" lon="1.84162">
        <ele>149.8</ele>
        <time>2023-08-20T07:42:12Z</time>
      </trkpt>
      <trkpt lat="44.48583" lon="1.84165">
        <ele>149.6</ele>
        <time>2023-08-20T07:42:13Z</time>
      </trkpt>
      <trkpt lat="44.48583" lon="1.84167">
        <ele>149.6</ele>
        <time>2023-08-20T07:42:14Z</time>
      </trkpt>
      <trkpt lat="44.48583" lon="1.84168">
        <ele>149.4</ele>
        <time>2023-08-20T07:42:15Z</time>
      </trkpt>
      <trkpt lat="44.48585" lon="1.84169">
        <ele>149.4</ele>
        <time>2023-08-20T07:42:16Z</time>
      </trkpt>
      <trkpt lat="44.48586" lon="1.8417">
        <ele>149.2</ele>
        <time>2023-08-20T07:42:17Z</time>
      </trkpt>
      <trkpt lat="44.48587" lon="1.8417">
        <ele>149.2</ele>
        <time>2023-08-20T07:42:18Z</time>
      </trkpt>
      <trkpt lat="44.48587" lon="1.8417">
        <ele>149.2</ele>
        <time>2023-08-20T07:42:19Z</time>
      </trkpt>
      <trkpt lat="44.48587" lon="1.8417">
        <ele>149.2</ele>
        <time>2023-08-20T07:42:20Z</time>
      </trkpt>
      <trkpt lat="44.48593" lon="1.84173">
        <ele>149</ele>
        <time>2023-08-20T07:42:28Z</time>
      </trkpt>
      <trkpt lat="44.48596" lon="1.84175">
        <ele>149</ele>
        <time>2023-08-20T07:42:30Z</time>
      </trkpt>
      <trkpt lat="44.48599" lon="1.84176">
        <ele>149.2</ele>
        <time>2023-08-20T07:42:31Z</time>
      </trkpt>
      <trkpt lat="44.48613" lon="1.8418">
        <ele>149.2</ele>
        <time>2023-08-20T07:42:36Z</time>
      </trkpt>
      <trkpt lat="44.48616" lon="1.84181">
        <ele>149.4</ele>
        <time>2023-08-20T07:42:37Z</time>
      </trkpt>
      <trkpt lat="44.48618" lon="1.84181">
        <ele>149.4</ele>
        <time>2023-08-20T07:42:38Z</time>
      </trkpt>
      <trkpt lat="44.48636" lon="1.84187">
        <ele>150</ele>
        <time>2023-08-20T07:42:45Z</time>
      </trkpt>
      <trkpt lat="44.48638" lon="1.84188">
        <ele>150</ele>
        <time>2023-08-20T07:42:46Z</time>
      </trkpt>
      <trkpt lat="44.48642" lon="1.84192">
        <ele>150.2</ele>
        <time>2023-08-20T07:42:49Z</time>
      </trkpt>
      <trkpt lat="44.48642" lon="1.84192">
        <ele>150.2</ele>
        <time>2023-08-20T07:42:50Z</time>
      </trkpt>
      <trkpt lat="44.48642" lon="1.84192">
        <ele>150.2</ele>
        <time>2023-08-20T07:42:51Z</time>
      </trkpt>
      <trkpt lat="44.48646" lon="1.84196">
        <ele>150.2</ele>
        <time>2023-08-20T07:42:55Z</time>
      </trkpt>
      <trkpt lat="44.48652" lon="1.842">
        <ele>150.2</ele>
        <time>2023-08-20T07:42:57Z</time>
      </trkpt>
      <trkpt lat="44.48669" lon="1.84216">
        <ele>149.8</ele>
        <time>2023-08-20T07:43:02Z</time>
      </trkpt>
      <trkpt lat="44.48693" lon="1.84245">
        <ele>150.2</ele>
        <time>2023-08-20T07:43:08Z</time>
      </trkpt>
      <trkpt lat="44.48696" lon="1.8425">
        <ele>150.2</ele>
        <time>2023-08-20T07:43:09Z</time>
      </trkpt>
      <trkpt lat="44.48698" lon="1.84255">
        <ele>150.2</ele>
        <time>2023-08-20T07:43:10Z</time>
      </trkpt>
      <trkpt lat="44.48699" lon="1.8426">
        <ele>150.2</ele>
        <time>2023-08-20T07:43:11Z</time>
      </trkpt>
      <trkpt lat="44.48699" lon="1.84264">
        <ele>150.2</ele>
        <time>2023-08-20T07:43:12Z</time>
      </trkpt>
      <trkpt lat="44.48697" lon="1.84269">
        <ele>150.2</ele>
        <time>2023-08-20T07:43:13Z</time>
      </trkpt>
      <trkpt lat="44.48694" lon="1.84273">
        <ele>150.4</ele>
        <time>2023-08-20T07:43:14Z</time>
      </trkpt>
      <trkpt lat="44.4869" lon="1.84276">
        <ele>150</ele>
        <time>2023-08-20T07:43:15Z</time>
      </trkpt>
      <trkpt lat="44.48676" lon="1.84287">
        <ele>150</ele>
        <time>2023-08-20T07:43:19Z</time>
      </trkpt>
      <trkpt lat="44.48672" lon="1.8429">
        <ele>150</ele>
        <time>2023-08-20T07:43:20Z</time>
      </trkpt>
      <trkpt lat="44.48669" lon="1.84292">
        <ele>150</ele>
        <time>2023-08-20T07:43:21Z</time>
      </trkpt>
      <trkpt lat="44.48667" lon="1.84294">
        <ele>149.8</ele>
        <time>2023-08-20T07:43:22Z</time>
      </trkpt>
      <trkpt lat="44.48666" lon="1.84295">
        <ele>149.8</ele>
        <time>2023-08-20T07:43:23Z</time>
      </trkpt>
      <trkpt lat="44.48664" lon="1.84296">
        <ele>149.8</ele>
        <time>2023-08-20T07:43:24Z</time>
      </trkpt>
      <trkpt lat="44.48664" lon="1.84296">
        <ele>149.6</ele>
        <time>2023-08-20T07:43:25Z</time>
      </trkpt>
      <trkpt lat="44.48664" lon="1.84296">
        <ele>149.6</ele>
        <time>2023-08-20T07:43:26Z</time>
      </trkpt>
      <trkpt lat="44.48664" lon="1.84296">
        <ele>149.4</ele>
        <time>2023-08-20T07:43:27Z</time>
      </trkpt>
      <trkpt lat="44.48657" lon="1.84299">
        <ele>149.4</ele>
        <time>2023-08-20T07:43:34Z</time>
      </trkpt>
      <trkpt lat="44.48656" lon="1.843">
        <ele>149.2</ele>
        <time>2023-08-20T07:43:35Z</time>
      </trkpt>
      <trkpt lat="44.48655" lon="1.84301">
        <ele>149.2</ele>
        <time>2023-08-20T07:43:36Z</time>
      </trkpt>
      <trkpt lat="44.48655" lon="1.84301">
        <ele>149.2</ele>
        <time>2023-08-20T07:43:37Z</time>
      </trkpt>
      <trkpt lat="44.48655" lon="1.84301">
        <ele>149.2</ele>
        <time>2023-08-20T07:43:38Z</time>
      </trkpt>
      <trkpt lat="44.4865" lon="1.84308">
        <ele>149</ele>
        <time>2023-08-20T07:43:42Z</time>
      </trkpt>
      <trkpt lat="44.48647" lon="1.84311">
        <ele>149</ele>
        <time>2023-08-20T07:43:43Z</time>
      </trkpt>
      <trkpt lat="44.48644" lon="1.84314">
        <ele>149</ele>
        <time>2023-08-20T07:43:44Z</time>
      </trkpt>
      <trkpt lat="44.4863" lon="1.84324">
        <ele>149</ele>
        <time>2023-08-20T07:43:48Z</time>
      </trkpt>
      <trkpt lat="44.48627" lon="1.84327">
        <ele>149</ele>
        <time>2023-08-20T07:43:50Z</time>
      </trkpt>
      <trkpt lat="44.48627" lon="1.84328">
        <ele>149</ele>
        <time>2023-08-20T07:43:51Z</time>
      </trkpt>
      <trkpt lat="44.48627" lon="1.84328">
        <ele>149</ele>
        <time>2023-08-20T07:43:52Z</time>
      </trkpt>
      <trkpt lat="44.48626" lon="1.8433">
        <ele>149</ele>
        <time>2023-08-20T07:43:53Z</time>
      </trkpt>
      <trkpt lat="44.48617" lon="1.84338">
        <ele>149</ele>
        <time>2023-08-20T07:43:56Z</time>
      </trkpt>
      <trkpt lat="44.48606" lon="1.84348">
        <ele>149</ele>
        <time>2023-08-20T07:44:00Z</time>
      </trkpt>
      <trkpt lat="44.48603" lon="1.84351">
        <ele>149</ele>
        <time>2023-08-20T07:44:01Z</time>
      </trkpt>
      <trkpt lat="44.486" lon="1.84355">
        <ele>149</ele>
        <time>2023-08-20T07:44:02Z</time>
      </trkpt>
      <trkpt lat="44.48589" lon="1.84365">
        <ele>149</ele>
        <time>2023-08-20T07:44:06Z</time>
      </trkpt>
      <trkpt lat="44.48588" lon="1.84366">
        <ele>149</ele>
        <time>2023-08-20T07:44:07Z</time>
      </trkpt>
      <trkpt lat="44.48586" lon="1.84367">
        <ele>149</ele>
        <time>2023-08-20T07:44:08Z</time>
      </trkpt>
      <trkpt lat="44.48584" lon="1.84369">
        <ele>149.2</ele>
        <time>2023-08-20T07:44:09Z</time>
      </trkpt>
      <trkpt lat="44.48582" lon="1.8437">
        <ele>149.2</ele>
        <time>2023-08-20T07:44:10Z</time>
      </trkpt>
      <trkpt lat="44.48581" lon="1.84371">
        <ele>149.2</ele>
        <time>2023-08-20T07:44:11Z</time>
      </trkpt>
      <trkpt lat="44.4858" lon="1.84373">
        <ele>149.2</ele>
        <time>2023-08-20T07:44:12Z</time>
      </trkpt>
      <trkpt lat="44.48579" lon="1.84374">
        <ele>149.2</ele>
        <time>2023-08-20T07:44:13Z</time>
      </trkpt>
      <trkpt lat="44.48577" lon="1.84375">
        <ele>149.2</ele>
        <time>2023-08-20T07:44:14Z</time>
      </trkpt>
      <trkpt lat="44.48569" lon="1.84376">
        <ele>149.4</ele>
        <time>2023-08-20T07:44:18Z</time>
      </trkpt>
      <trkpt lat="44.48569" lon="1.84376">
        <ele>149.2</ele>
        <time>2023-08-20T07:44:19Z</time>
      </trkpt>
      <trkpt lat="44.48569" lon="1.84376">
        <ele>149.2</ele>
        <time>2023-08-20T07:44:20Z</time>
      </trkpt>
      <trkpt lat="44.48569" lon="1.84381">
        <ele>149.2</ele>
        <time>2023-08-20T07:44:38Z</time>
      </trkpt>
      <trkpt lat="44.48568" lon="1.84388">
        <ele>149.4</ele>
        <time>2023-08-20T07:44:40Z</time>
      </trkpt>
      <trkpt lat="44.48568" lon="1.84389">
        <ele>149.6</ele>
        <time>2023-08-20T07:44:42Z</time>
      </trkpt>
      <trkpt lat="44.48563" lon="1.8439">
        <ele>151.8</ele>
        <time>2023-08-20T07:57:42Z</time>
      </trkpt>
      <trkpt lat="44.48542" lon="1.84393">
        <ele>149.6</ele>
        <time>2023-08-20T07:57:46Z</time>
      </trkpt>
      <trkpt lat="44.48538" lon="1.84393">
        <ele>149.6</ele>
        <time>2023-08-20T07:57:47Z</time>
      </trkpt>
      <trkpt lat="44.48535" lon="1.84393">
        <ele>149.6</ele>
        <time>2023-08-20T07:57:48Z</time>
      </trkpt>
      <trkpt lat="44.48534" lon="1.84394">
        <ele>149.6</ele>
        <time>2023-08-20T07:57:49Z</time>
      </trkpt>
      <trkpt lat="44.48534" lon="1.84396">
        <ele>149.6</ele>
        <time>2023-08-20T07:57:50Z</time>
      </trkpt>
      <trkpt lat="44.48536" lon="1.84396">
        <ele>149.6</ele>
        <time>2023-08-20T07:57:51Z</time>
      </trkpt>
      <trkpt lat="44.4854" lon="1.84395">
        <ele>149.6</ele>
        <time>2023-08-20T07:57:52Z</time>
      </trkpt>
      <trkpt lat="44.48548" lon="1.84391">
        <ele>149.6</ele>
        <time>2023-08-20T07:57:54Z</time>
      </trkpt>
      <trkpt lat="44.48553" lon="1.84389">
        <ele>149.6</ele>
        <time>2023-08-20T07:57:55Z</time>
      </trkpt>
      <trkpt lat="44.48564" lon="1.84385">
        <ele>149.8</ele>
        <time>2023-08-20T07:57:58Z</time>
      </trkpt>
      <trkpt lat="44.48565" lon="1.84385">
        <ele>149.8</ele>
        <time>2023-08-20T07:57:59Z</time>
      </trkpt>
      <trkpt lat="44.48565" lon="1.84385">
        <ele>149.8</ele>
        <time>2023-08-20T07:58:00Z</time>
      </trkpt>
      <trkpt lat="44.48567" lon="1.84384">
        <ele>149.6</ele>
        <time>2023-08-20T07:58:10Z</time>
      </trkpt>
      <trkpt lat="44.48568" lon="1.84384">
        <ele>149.4</ele>
        <time>2023-08-20T07:58:12Z</time>
      </trkpt>
      <trkpt lat="44.48568" lon="1.84384">
        <ele>149.4</ele>
        <time>2023-08-20T07:58:13Z</time>
      </trkpt>
      <trkpt lat="44.48576" lon="1.84387">
        <ele>149.2</ele>
        <time>2023-08-20T07:59:12Z</time>
      </trkpt>
      <trkpt lat="44.48579" lon="1.84392">
        <ele>149.2</ele>
        <time>2023-08-20T07:59:13Z</time>
      </trkpt>
      <trkpt lat="44.48582" lon="1.84419">
        <ele>149.4</ele>
        <time>2023-08-20T07:59:17Z</time>
      </trkpt>
      <trkpt lat="44.48583" lon="1.84471">
        <ele>150</ele>
        <time>2023-08-20T07:59:22Z</time>
      </trkpt>
      <trkpt lat="44.48584" lon="1.84482">
        <ele>150.2</ele>
        <time>2023-08-20T07:59:23Z</time>
      </trkpt>
      <trkpt lat="44.48584" lon="1.84521">
        <ele>150.8</ele>
        <time>2023-08-20T07:59:27Z</time>
      </trkpt>
      <trkpt lat="44.48584" lon="1.84565">
        <ele>151</ele>
        <time>2023-08-20T07:59:30Z</time>
      </trkpt>
      <trkpt lat="44.48584" lon="1.84574">
        <ele>151.2</ele>
        <time>2023-08-20T07:59:31Z</time>
      </trkpt>
      <trkpt lat="44.48584" lon="1.84583">
        <ele>151.2</ele>
        <time>2023-08-20T07:59:32Z</time>
      </trkpt>
      <trkpt lat="44.48584" lon="1.84594">
        <ele>151.4</ele>
        <time>2023-08-20T07:59:33Z</time>
      </trkpt>
      <trkpt lat="44.48585" lon="1.84631">
        <ele>151.6</ele>
        <time>2023-08-20T07:59:36Z</time>
      </trkpt>
      <trkpt lat="44.48585" lon="1.8472">
        <ele>152.2</ele>
        <time>2023-08-20T07:59:42Z</time>
      </trkpt>
      <trkpt lat="44.48585" lon="1.84735">
        <ele>152.4</ele>
        <time>2023-08-20T07:59:43Z</time>
      </trkpt>
      <trkpt lat="44.48586" lon="1.84799">
        <ele>152.6</ele>
        <time>2023-08-20T07:59:47Z</time>
      </trkpt>
      <trkpt lat="44.48586" lon="1.84849">
        <ele>152.8</ele>
        <time>2023-08-20T07:59:50Z</time>
      </trkpt>
      <trkpt lat="44.48587" lon="1.84893">
        <ele>152.8</ele>
        <time>2023-08-20T07:59:53Z</time>
      </trkpt>
      <trkpt lat="44.48587" lon="1.84905">
        <ele>153</ele>
        <time>2023-08-20T07:59:54Z</time>
      </trkpt>
      <trkpt lat="44.48587" lon="1.84932">
        <ele>153.2</ele>
        <time>2023-08-20T07:59:56Z</time>
      </trkpt>
      <trkpt lat="44.48587" lon="1.84944">
        <ele>153.2</ele>
        <time>2023-08-20T07:59:57Z</time>
      </trkpt>
      <trkpt lat="44.48587" lon="1.84958">
        <ele>153.2</ele>
        <time>2023-08-20T07:59:58Z</time>
      </trkpt>
      <trkpt lat="44.48586" lon="1.84968">
        <ele>153.2</ele>
        <time>2023-08-20T07:59:59Z</time>
      </trkpt>
      <trkpt lat="44.48586" lon="1.84975">
        <ele>153</ele>
        <time>2023-08-20T08:00:00Z</time>
      </trkpt>
      <trkpt lat="44.48587" lon="1.84984">
        <ele>152.8</ele>
        <time>2023-08-20T08:00:01Z</time>
      </trkpt>
      <trkpt lat="44.48586" lon="1.84993">
        <ele>152.8</ele>
        <time>2023-08-20T08:00:02Z</time>
      </trkpt>
      <trkpt lat="44.48586" lon="1.85002">
        <ele>152.4</ele>
        <time>2023-08-20T08:00:03Z</time>
      </trkpt>
      <trkpt lat="44.48586" lon="1.85012">
        <ele>152.4</ele>
        <time>2023-08-20T08:00:04Z</time>
      </trkpt>
      <trkpt lat="44.48586" lon="1.85022">
        <ele>152.2</ele>
        <time>2023-08-20T08:00:05Z</time>
      </trkpt>
      <trkpt lat="44.48586" lon="1.85033">
        <ele>152.2</ele>
        <time>2023-08-20T08:00:06Z</time>
      </trkpt>
      <trkpt lat="44.48587" lon="1.8509">
        <ele>152.2</ele>
        <time>2023-08-20T08:00:10Z</time>
      </trkpt>
      <trkpt lat="44.48591" lon="1.85161">
        <ele>152.8</ele>
        <time>2023-08-20T08:00:14Z</time>
      </trkpt>
      <trkpt lat="44.48595" lon="1.85198">
        <ele>153.4</ele>
        <time>2023-08-20T08:00:16Z</time>
      </trkpt>
      <trkpt lat="44.486" lon="1.85229">
        <ele>153.8</ele>
        <time>2023-08-20T08:00:18Z</time>
      </trkpt>
      <trkpt lat="44.48603" lon="1.85249">
        <ele>154.2</ele>
        <time>2023-08-20T08:00:19Z</time>
      </trkpt>
      <trkpt lat="44.48606" lon="1.85264">
        <ele>154.6</ele>
        <time>2023-08-20T08:00:20Z</time>
      </trkpt>
      <trkpt lat="44.4861" lon="1.85279">
        <ele>154.8</ele>
        <time>2023-08-20T08:00:21Z</time>
      </trkpt>
      <trkpt lat="44.48614" lon="1.85293">
        <ele>155</ele>
        <time>2023-08-20T08:00:22Z</time>
      </trkpt>
      <trkpt lat="44.48616" lon="1.85307">
        <ele>155</ele>
        <time>2023-08-20T08:00:23Z</time>
      </trkpt>
      <trkpt lat="44.48616" lon="1.8532">
        <ele>155</ele>
        <time>2023-08-20T08:00:24Z</time>
      </trkpt>
      <trkpt lat="44.48615" lon="1.85334">
        <ele>155</ele>
        <time>2023-08-20T08:00:25Z</time>
      </trkpt>
      <trkpt lat="44.48615" lon="1.85346">
        <ele>155.2</ele>
        <time>2023-08-20T08:00:26Z</time>
      </trkpt>
      <trkpt lat="44.48616" lon="1.85356">
        <ele>155.2</ele>
        <time>2023-08-20T08:00:27Z</time>
      </trkpt>
      <trkpt lat="44.48621" lon="1.85371">
        <ele>155.2</ele>
        <time>2023-08-20T08:00:28Z</time>
      </trkpt>
      <trkpt lat="44.48626" lon="1.85386">
        <ele>155.2</ele>
        <time>2023-08-20T08:00:29Z</time>
      </trkpt>
      <trkpt lat="44.48632" lon="1.85403">
        <ele>155.2</ele>
        <time>2023-08-20T08:00:30Z</time>
      </trkpt>
      <trkpt lat="44.48636" lon="1.85416">
        <ele>155.2</ele>
        <time>2023-08-20T08:00:31Z</time>
      </trkpt>
      <trkpt lat="44.48642" lon="1.85433">
        <ele>155.2</ele>
        <time>2023-08-20T08:00:32Z</time>
      </trkpt>
      <trkpt lat="44.48648" lon="1.85451">
        <ele>155.2</ele>
        <time>2023-08-20T08:00:33Z</time>
      </trkpt>
      <trkpt lat="44.48654" lon="1.8547">
        <ele>155.2</ele>
        <time>2023-08-20T08:00:34Z</time>
      </trkpt>
      <trkpt lat="44.4866" lon="1.85488">
        <ele>155.4</ele>
        <time>2023-08-20T08:00:35Z</time>
      </trkpt>
      <trkpt lat="44.48671" lon="1.85525">
        <ele>156</ele>
        <time>2023-08-20T08:00:37Z</time>
      </trkpt>
      <trkpt lat="44.48676" lon="1.85544">
        <ele>156.2</ele>
        <time>2023-08-20T08:00:38Z</time>
      </trkpt>
      <trkpt lat="44.4868" lon="1.85562">
        <ele>156.6</ele>
        <time>2023-08-20T08:00:39Z</time>
      </trkpt>
      <trkpt lat="44.48685" lon="1.85581">
        <ele>156.6</ele>
        <time>2023-08-20T08:00:40Z</time>
      </trkpt>
      <trkpt lat="44.48695" lon="1.8562">
        <ele>157.2</ele>
        <time>2023-08-20T08:00:42Z</time>
      </trkpt>
      <trkpt lat="44.487" lon="1.85639">
        <ele>157.2</ele>
        <time>2023-08-20T08:00:43Z</time>
      </trkpt>
      <trkpt lat="44.48706" lon="1.85658">
        <ele>157.2</ele>
        <time>2023-08-20T08:00:44Z</time>
      </trkpt>
      <trkpt lat="44.48711" lon="1.85677">
        <ele>157.2</ele>
        <time>2023-08-20T08:00:45Z</time>
      </trkpt>
      <trkpt lat="44.48716" lon="1.85696">
        <ele>157.4</ele>
        <time>2023-08-20T08:00:46Z</time>
      </trkpt>
      <trkpt lat="44.48721" lon="1.85716">
        <ele>157.4</ele>
        <time>2023-08-20T08:00:47Z</time>
      </trkpt>
      <trkpt lat="44.48727" lon="1.85735">
        <ele>157.6</ele>
        <time>2023-08-20T08:00:48Z</time>
      </trkpt>
      <trkpt lat="44.48734" lon="1.85754">
        <ele>157.6</ele>
        <time>2023-08-20T08:00:49Z</time>
      </trkpt>
      <trkpt lat="44.48741" lon="1.85773">
        <ele>157.6</ele>
        <time>2023-08-20T08:00:50Z</time>
      </trkpt>
      <trkpt lat="44.48748" lon="1.85792">
        <ele>158</ele>
        <time>2023-08-20T08:00:51Z</time>
      </trkpt>
      <trkpt lat="44.48754" lon="1.85811">
        <ele>158</ele>
        <time>2023-08-20T08:00:52Z</time>
      </trkpt>
      <trkpt lat="44.48761" lon="1.8583">
        <ele>158</ele>
        <time>2023-08-20T08:00:53Z</time>
      </trkpt>
      <trkpt lat="44.48768" lon="1.85849">
        <ele>158.2</ele>
        <time>2023-08-20T08:00:54Z</time>
      </trkpt>
      <trkpt lat="44.48774" lon="1.85869">
        <ele>158.4</ele>
        <time>2023-08-20T08:00:55Z</time>
      </trkpt>
      <trkpt lat="44.4878" lon="1.85889">
        <ele>158.4</ele>
        <time>2023-08-20T08:00:56Z</time>
      </trkpt>
      <trkpt lat="44.48786" lon="1.85909">
        <ele>158.8</ele>
        <time>2023-08-20T08:00:57Z</time>
      </trkpt>
      <trkpt lat="44.4879" lon="1.8593">
        <ele>159.2</ele>
        <time>2023-08-20T08:00:58Z</time>
      </trkpt>
      <trkpt lat="44.48794" lon="1.85951">
        <ele>159.2</ele>
        <time>2023-08-20T08:00:59Z</time>
      </trkpt>
      <trkpt lat="44.48796" lon="1.85971">
        <ele>159.6</ele>
        <time>2023-08-20T08:01:00Z</time>
      </trkpt>
      <trkpt lat="44.48799" lon="1.85991">
        <ele>159.6</ele>
        <time>2023-08-20T08:01:01Z</time>
      </trkpt>
      <trkpt lat="44.48801" lon="1.86012">
        <ele>159.4</ele>
        <time>2023-08-20T08:01:02Z</time>
      </trkpt>
      <trkpt lat="44.48803" lon="1.86032">
        <ele>159.4</ele>
        <time>2023-08-20T08:01:03Z</time>
      </trkpt>
      <trkpt lat="44.48805" lon="1.86052">
        <ele>159.4</ele>
        <time>2023-08-20T08:01:04Z</time>
      </trkpt>
      <trkpt lat="44.48807" lon="1.86072">
        <ele>159.4</ele>
        <time>2023-08-20T08:01:05Z</time>
      </trkpt>
      <trkpt lat="44.48809" lon="1.86091">
        <ele>159.4</ele>
        <time>2023-08-20T08:01:06Z</time>
      </trkpt>
      <trkpt lat="44.4881" lon="1.8611">
        <ele>159.4</ele>
        <time>2023-08-20T08:01:07Z</time>
      </trkpt>
      <trkpt lat="44.48811" lon="1.8613">
        <ele>159.2</ele>
        <time>2023-08-20T08:01:08Z</time>
      </trkpt>
      <trkpt lat="44.48812" lon="1.86149">
        <ele>159</ele>
        <time>2023-08-20T08:01:09Z</time>
      </trkpt>
      <trkpt lat="44.48811" lon="1.86169">
        <ele>158.8</ele>
        <time>2023-08-20T08:01:10Z</time>
      </trkpt>
      <trkpt lat="44.48811" lon="1.86189">
        <ele>158.6</ele>
        <time>2023-08-20T08:01:11Z</time>
      </trkpt>
      <trkpt lat="44.4881" lon="1.86209">
        <ele>158.6</ele>
        <time>2023-08-20T08:01:12Z</time>
      </trkpt>
      <trkpt lat="44.48809" lon="1.86229">
        <ele>158.6</ele>
        <time>2023-08-20T08:01:13Z</time>
      </trkpt>
      <trkpt lat="44.48802" lon="1.86291">
        <ele>158.4</ele>
        <time>2023-08-20T08:01:16Z</time>
      </trkpt>
      <trkpt lat="44.4879" lon="1.86374">
        <ele>158.6</ele>
        <time>2023-08-20T08:01:20Z</time>
      </trkpt>
      <trkpt lat="44.48786" lon="1.86419">
        <ele>159</ele>
        <time>2023-08-20T08:01:22Z</time>
      </trkpt>
      <trkpt lat="44.48781" lon="1.86505">
        <ele>159.4</ele>
        <time>2023-08-20T08:01:26Z</time>
      </trkpt>
      <trkpt lat="44.48779" lon="1.86532">
        <ele>159.8</ele>
        <time>2023-08-20T08:01:27Z</time>
      </trkpt>
      <trkpt lat="44.48777" lon="1.86577">
        <ele>159.8</ele>
        <time>2023-08-20T08:01:29Z</time>
      </trkpt>
      <trkpt lat="44.48766" lon="1.86668">
        <ele>160.2</ele>
        <time>2023-08-20T08:01:33Z</time>
      </trkpt>
      <trkpt lat="44.48761" lon="1.86691">
        <ele>160.2</ele>
        <time>2023-08-20T08:01:34Z</time>
      </trkpt>
      <trkpt lat="44.48745" lon="1.86786">
        <ele>160.8</ele>
        <time>2023-08-20T08:01:38Z</time>
      </trkpt>
      <trkpt lat="44.48739" lon="1.8683">
        <ele>161</ele>
        <time>2023-08-20T08:01:40Z</time>
      </trkpt>
      <trkpt lat="44.48736" lon="1.86855">
        <ele>161</ele>
        <time>2023-08-20T08:01:41Z</time>
      </trkpt>
      <trkpt lat="44.48729" lon="1.86938">
        <ele>161.4</ele>
        <time>2023-08-20T08:01:44Z</time>
      </trkpt>
      <trkpt lat="44.48725" lon="1.86987">
        <ele>161.6</ele>
        <time>2023-08-20T08:01:46Z</time>
      </trkpt>
      <trkpt lat="44.48723" lon="1.87011">
        <ele>161.6</ele>
        <time>2023-08-20T08:01:47Z</time>
      </trkpt>
      <trkpt lat="44.48721" lon="1.87035">
        <ele>161.6</ele>
        <time>2023-08-20T08:01:48Z</time>
      </trkpt>
      <trkpt lat="44.48719" lon="1.87058">
        <ele>161.6</ele>
        <time>2023-08-20T08:01:49Z</time>
      </trkpt>
      <trkpt lat="44.48717" lon="1.87082">
        <ele>161.6</ele>
        <time>2023-08-20T08:01:50Z</time>
      </trkpt>
      <trkpt lat="44.48709" lon="1.87179">
        <ele>162</ele>
        <time>2023-08-20T08:01:54Z</time>
      </trkpt>
      <trkpt lat="44.48702" lon="1.8727">
        <ele>162</ele>
        <time>2023-08-20T08:01:58Z</time>
      </trkpt>
      <trkpt lat="44.48694" lon="1.87367">
        <ele>161.8</ele>
        <time>2023-08-20T08:02:02Z</time>
      </trkpt>
      <trkpt lat="44.4869" lon="1.87414">
        <ele>161.6</ele>
        <time>2023-08-20T08:02:04Z</time>
      </trkpt>
      <trkpt lat="44.48682" lon="1.87515">
        <ele>161.6</ele>
        <time>2023-08-20T08:02:08Z</time>
      </trkpt>
      <trkpt lat="44.48675" lon="1.87585">
        <ele>161.2</ele>
        <time>2023-08-20T08:02:11Z</time>
      </trkpt>
      <trkpt lat="44.48658" lon="1.87678">
        <ele>161.2</ele>
        <time>2023-08-20T08:02:15Z</time>
      </trkpt>
      <trkpt lat="44.48638" lon="1.87771">
        <ele>161.2</ele>
        <time>2023-08-20T08:02:19Z</time>
      </trkpt>
      <trkpt lat="44.48622" lon="1.87865">
        <ele>161.6</ele>
        <time>2023-08-20T08:02:23Z</time>
      </trkpt>
      <trkpt lat="44.48616" lon="1.87964">
        <ele>161.8</ele>
        <time>2023-08-20T08:02:27Z</time>
      </trkpt>
      <trkpt lat="44.48616" lon="1.87983">
        <ele>162</ele>
        <time>2023-08-20T08:02:28Z</time>
      </trkpt>
      <trkpt lat="44.48613" lon="1.88063">
        <ele>162.2</ele>
        <time>2023-08-20T08:02:31Z</time>
      </trkpt>
      <trkpt lat="44.4861" lon="1.88129">
        <ele>162.4</ele>
        <time>2023-08-20T08:02:34Z</time>
      </trkpt>
      <trkpt lat="44.48609" lon="1.88152">
        <ele>162.4</ele>
        <time>2023-08-20T08:02:35Z</time>
      </trkpt>
      <trkpt lat="44.48608" lon="1.88179">
        <ele>162.2</ele>
        <time>2023-08-20T08:02:36Z</time>
      </trkpt>
      <trkpt lat="44.48607" lon="1.88201">
        <ele>162.2</ele>
        <time>2023-08-20T08:02:37Z</time>
      </trkpt>
      <trkpt lat="44.48608" lon="1.88223">
        <ele>162.2</ele>
        <time>2023-08-20T08:02:38Z</time>
      </trkpt>
      <trkpt lat="44.48609" lon="1.8824">
        <ele>162.2</ele>
        <time>2023-08-20T08:02:39Z</time>
      </trkpt>
      <trkpt lat="44.48613" lon="1.88261">
        <ele>162</ele>
        <time>2023-08-20T08:02:40Z</time>
      </trkpt>
      <trkpt lat="44.48619" lon="1.88285">
        <ele>162</ele>
        <time>2023-08-20T08:02:41Z</time>
      </trkpt>
      <trkpt lat="44.48627" lon="1.88305">
        <ele>161.6</ele>
        <time>2023-08-20T08:02:42Z</time>
      </trkpt>
      <trkpt lat="44.48647" lon="1.88335">
        <ele>161.4</ele>
        <time>2023-08-20T08:02:44Z</time>
      </trkpt>
      <trkpt lat="44.4866" lon="1.8835">
        <ele>161.4</ele>
        <time>2023-08-20T08:02:45Z</time>
      </trkpt>
      <trkpt lat="44.48679" lon="1.88366">
        <ele>161.4</ele>
        <time>2023-08-20T08:02:46Z</time>
      </trkpt>
      <trkpt lat="44.48695" lon="1.88376">
        <ele>161.4</ele>
        <time>2023-08-20T08:02:47Z</time>
      </trkpt>
      <trkpt lat="44.48713" lon="1.88383">
        <ele>161.4</ele>
        <time>2023-08-20T08:02:48Z</time>
      </trkpt>
      <trkpt lat="44.48745" lon="1.88393">
        <ele>161.4</ele>
        <time>2023-08-20T08:02:50Z</time>
      </trkpt>
      <trkpt lat="44.48781" lon="1.88403">
        <ele>161.4</ele>
        <time>2023-08-20T08:02:52Z</time>
      </trkpt>
      <trkpt lat="44.48802" lon="1.88409">
        <ele>161.2</ele>
        <time>2023-08-20T08:02:53Z</time>
      </trkpt>
      <trkpt lat="44.48871" lon="1.88428">
        <ele>161.2</ele>
        <time>2023-08-20T08:02:57Z</time>
      </trkpt>
      <trkpt lat="44.48907" lon="1.88437">
        <ele>161</ele>
        <time>2023-08-20T08:02:59Z</time>
      </trkpt>
      <trkpt lat="44.48922" lon="1.8844">
        <ele>161</ele>
        <time>2023-08-20T08:03:00Z</time>
      </trkpt>
      <trkpt lat="44.4898" lon="1.88441">
        <ele>161</ele>
        <time>2023-08-20T08:03:03Z</time>
      </trkpt>
      <trkpt lat="44.49016" lon="1.88434">
        <ele>161.4</ele>
        <time>2023-08-20T08:03:05Z</time>
      </trkpt>
      <trkpt lat="44.49034" lon="1.88428">
        <ele>161.4</ele>
        <time>2023-08-20T08:03:06Z</time>
      </trkpt>
      <trkpt lat="44.4909" lon="1.8841">
        <ele>161.8</ele>
        <time>2023-08-20T08:03:09Z</time>
      </trkpt>
      <trkpt lat="44.49145" lon="1.88393">
        <ele>162</ele>
        <time>2023-08-20T08:03:12Z</time>
      </trkpt>
      <trkpt lat="44.49163" lon="1.8839">
        <ele>162</ele>
        <time>2023-08-20T08:03:13Z</time>
      </trkpt>
      <trkpt lat="44.49199" lon="1.88388">
        <ele>162</ele>
        <time>2023-08-20T08:03:15Z</time>
      </trkpt>
      <trkpt lat="44.49217" lon="1.88388">
        <ele>161.8</ele>
        <time>2023-08-20T08:03:16Z</time>
      </trkpt>
      <trkpt lat="44.49235" lon="1.88388">
        <ele>161.6</ele>
        <time>2023-08-20T08:03:17Z</time>
      </trkpt>
      <trkpt lat="44.49253" lon="1.88388">
        <ele>161.4</ele>
        <time>2023-08-20T08:03:18Z</time>
      </trkpt>
      <trkpt lat="44.49305" lon="1.88388">
        <ele>161</ele>
        <time>2023-08-20T08:03:21Z</time>
      </trkpt>
      <trkpt lat="44.49322" lon="1.88386">
        <ele>161</ele>
        <time>2023-08-20T08:03:22Z</time>
      </trkpt>
      <trkpt lat="44.49336" lon="1.88384">
        <ele>161</ele>
        <time>2023-08-20T08:03:23Z</time>
      </trkpt>
      <trkpt lat="44.49356" lon="1.88379">
        <ele>161</ele>
        <time>2023-08-20T08:03:24Z</time>
      </trkpt>
      <trkpt lat="44.49372" lon="1.88376">
        <ele>161</ele>
        <time>2023-08-20T08:03:25Z</time>
      </trkpt>
      <trkpt lat="44.49389" lon="1.88374">
        <ele>160.8</ele>
        <time>2023-08-20T08:03:26Z</time>
      </trkpt>
      <trkpt lat="44.49459" lon="1.88372">
        <ele>160.8</ele>
        <time>2023-08-20T08:03:30Z</time>
      </trkpt>
      <trkpt lat="44.49477" lon="1.8837">
        <ele>160.8</ele>
        <time>2023-08-20T08:03:31Z</time>
      </trkpt>
      <trkpt lat="44.49532" lon="1.88363">
        <ele>161</ele>
        <time>2023-08-20T08:03:34Z</time>
      </trkpt>
      <trkpt lat="44.49586" lon="1.88355">
        <ele>161.6</ele>
        <time>2023-08-20T08:03:37Z</time>
      </trkpt>
      <trkpt lat="44.49621" lon="1.8835">
        <ele>162</ele>
        <time>2023-08-20T08:03:39Z</time>
      </trkpt>
      <trkpt lat="44.49638" lon="1.88348">
        <ele>162</ele>
        <time>2023-08-20T08:03:40Z</time>
      </trkpt>
      <trkpt lat="44.49673" lon="1.88343">
        <ele>162.2</ele>
        <time>2023-08-20T08:03:42Z</time>
      </trkpt>
      <trkpt lat="44.4969" lon="1.88341">
        <ele>162.2</ele>
        <time>2023-08-20T08:03:43Z</time>
      </trkpt>
      <trkpt lat="44.49707" lon="1.88339">
        <ele>162.2</ele>
        <time>2023-08-20T08:03:44Z</time>
      </trkpt>
      <trkpt lat="44.49723" lon="1.88336">
        <ele>162.2</ele>
        <time>2023-08-20T08:03:45Z</time>
      </trkpt>
      <trkpt lat="44.49779" lon="1.88333">
        <ele>162.2</ele>
        <time>2023-08-20T08:03:48Z</time>
      </trkpt>
      <trkpt lat="44.49793" lon="1.88334">
        <ele>162.2</ele>
        <time>2023-08-20T08:03:49Z</time>
      </trkpt>
      <trkpt lat="44.4985" lon="1.88341">
        <ele>162.2</ele>
        <time>2023-08-20T08:03:52Z</time>
      </trkpt>
      <trkpt lat="44.49883" lon="1.88346">
        <ele>162.2</ele>
        <time>2023-08-20T08:03:54Z</time>
      </trkpt>
      <trkpt lat="44.4992" lon="1.88352">
        <ele>162.4</ele>
        <time>2023-08-20T08:03:56Z</time>
      </trkpt>
      <trkpt lat="44.49975" lon="1.88368">
        <ele>162.6</ele>
        <time>2023-08-20T08:03:59Z</time>
      </trkpt>
      <trkpt lat="44.50036" lon="1.88388">
        <ele>162.8</ele>
        <time>2023-08-20T08:04:02Z</time>
      </trkpt>
      <trkpt lat="44.50054" lon="1.88395">
        <ele>163</ele>
        <time>2023-08-20T08:04:03Z</time>
      </trkpt>
      <trkpt lat="44.50107" lon="1.88416">
        <ele>163.2</ele>
        <time>2023-08-20T08:04:06Z</time>
      </trkpt>
      <trkpt lat="44.5016" lon="1.88441">
        <ele>163.4</ele>
        <time>2023-08-20T08:04:09Z</time>
      </trkpt>
      <trkpt lat="44.50176" lon="1.8845">
        <ele>163.2</ele>
        <time>2023-08-20T08:04:10Z</time>
      </trkpt>
      <trkpt lat="44.50192" lon="1.88458">
        <ele>163.2</ele>
        <time>2023-08-20T08:04:11Z</time>
      </trkpt>
      <trkpt lat="44.50212" lon="1.88468">
        <ele>163</ele>
        <time>2023-08-20T08:04:12Z</time>
      </trkpt>
      <trkpt lat="44.50228" lon="1.88476">
        <ele>163</ele>
        <time>2023-08-20T08:04:13Z</time>
      </trkpt>
      <trkpt lat="44.5024" lon="1.88483">
        <ele>162.8</ele>
        <time>2023-08-20T08:04:14Z</time>
      </trkpt>
      <trkpt lat="44.50256" lon="1.88492">
        <ele>162.8</ele>
        <time>2023-08-20T08:04:15Z</time>
      </trkpt>
      <trkpt lat="44.50303" lon="1.88521">
        <ele>162.4</ele>
        <time>2023-08-20T08:04:18Z</time>
      </trkpt>
      <trkpt lat="44.50362" lon="1.88567">
        <ele>162.4</ele>
        <time>2023-08-20T08:04:22Z</time>
      </trkpt>
      <trkpt lat="44.50376" lon="1.8858">
        <ele>162.4</ele>
        <time>2023-08-20T08:04:23Z</time>
      </trkpt>
      <trkpt lat="44.50421" lon="1.88626">
        <ele>162.4</ele>
        <time>2023-08-20T08:04:26Z</time>
      </trkpt>
      <trkpt lat="44.50434" lon="1.88643">
        <ele>162.6</ele>
        <time>2023-08-20T08:04:27Z</time>
      </trkpt>
      <trkpt lat="44.50474" lon="1.88694">
        <ele>163</ele>
        <time>2023-08-20T08:04:30Z</time>
      </trkpt>
      <trkpt lat="44.50502" lon="1.88727">
        <ele>163.2</ele>
        <time>2023-08-20T08:04:32Z</time>
      </trkpt>
      <trkpt lat="44.50529" lon="1.8876">
        <ele>163.6</ele>
        <time>2023-08-20T08:04:34Z</time>
      </trkpt>
      <trkpt lat="44.50542" lon="1.88777">
        <ele>163.6</ele>
        <time>2023-08-20T08:04:35Z</time>
      </trkpt>
      <trkpt lat="44.50564" lon="1.88807">
        <ele>163.8</ele>
        <time>2023-08-20T08:04:37Z</time>
      </trkpt>
      <trkpt lat="44.50576" lon="1.88824">
        <ele>163.8</ele>
        <time>2023-08-20T08:04:38Z</time>
      </trkpt>
      <trkpt lat="44.50589" lon="1.88846">
        <ele>163.8</ele>
        <time>2023-08-20T08:04:39Z</time>
      </trkpt>
      <trkpt lat="44.50597" lon="1.8886">
        <ele>163.8</ele>
        <time>2023-08-20T08:04:40Z</time>
      </trkpt>
      <trkpt lat="44.50607" lon="1.88879">
        <ele>163.8</ele>
        <time>2023-08-20T08:04:41Z</time>
      </trkpt>
      <trkpt lat="44.50646" lon="1.88956">
        <ele>163.4</ele>
        <time>2023-08-20T08:04:45Z</time>
      </trkpt>
      <trkpt lat="44.50664" lon="1.88998">
        <ele>163.2</ele>
        <time>2023-08-20T08:04:47Z</time>
      </trkpt>
      <trkpt lat="44.50695" lon="1.89087">
        <ele>163.6</ele>
        <time>2023-08-20T08:04:51Z</time>
      </trkpt>
      <trkpt lat="44.50701" lon="1.8911">
        <ele>163.4</ele>
        <time>2023-08-20T08:04:52Z</time>
      </trkpt>
      <trkpt lat="44.5072" lon="1.89205">
        <ele>163.8</ele>
        <time>2023-08-20T08:04:56Z</time>
      </trkpt>
      <trkpt lat="44.50731" lon="1.89303">
        <ele>164.2</ele>
        <time>2023-08-20T08:05:00Z</time>
      </trkpt>
      <trkpt lat="44.50731" lon="1.89328">
        <ele>164.2</ele>
        <time>2023-08-20T08:05:01Z</time>
      </trkpt>
      <trkpt lat="44.50726" lon="1.89404">
        <ele>164.2</ele>
        <time>2023-08-20T08:05:04Z</time>
      </trkpt>
      <trkpt lat="44.50722" lon="1.89428">
        <ele>164.2</ele>
        <time>2023-08-20T08:05:05Z</time>
      </trkpt>
      <trkpt lat="44.507" lon="1.89522">
        <ele>164.2</ele>
        <time>2023-08-20T08:05:09Z</time>
      </trkpt>
      <trkpt lat="44.50695" lon="1.89538">
        <ele>164.2</ele>
        <time>2023-08-20T08:05:10Z</time>
      </trkpt>
      <trkpt lat="44.50686" lon="1.8956">
        <ele>164.2</ele>
        <time>2023-08-20T08:05:11Z</time>
      </trkpt>
      <trkpt lat="44.5068" lon="1.89576">
        <ele>164.2</ele>
        <time>2023-08-20T08:05:12Z</time>
      </trkpt>
      <trkpt lat="44.50674" lon="1.89588">
        <ele>164</ele>
        <time>2023-08-20T08:05:13Z</time>
      </trkpt>
      <trkpt lat="44.50671" lon="1.89598">
        <ele>164</ele>
        <time>2023-08-20T08:05:14Z</time>
      </trkpt>
      <trkpt lat="44.5067" lon="1.8961">
        <ele>163.2</ele>
        <time>2023-08-20T08:05:15Z</time>
      </trkpt>
      <trkpt lat="44.5067" lon="1.89625">
        <ele>162.6</ele>
        <time>2023-08-20T08:05:16Z</time>
      </trkpt>
      <trkpt lat="44.50671" lon="1.89637">
        <ele>161.8</ele>
        <time>2023-08-20T08:05:17Z</time>
      </trkpt>
      <trkpt lat="44.5067" lon="1.89651">
        <ele>161.6</ele>
        <time>2023-08-20T08:05:18Z</time>
      </trkpt>
      <trkpt lat="44.50668" lon="1.89662">
        <ele>161</ele>
        <time>2023-08-20T08:05:19Z</time>
      </trkpt>
      <trkpt lat="44.50664" lon="1.89676">
        <ele>160.6</ele>
        <time>2023-08-20T08:05:20Z</time>
      </trkpt>
      <trkpt lat="44.50657" lon="1.89694">
        <ele>160.4</ele>
        <time>2023-08-20T08:05:21Z</time>
      </trkpt>
      <trkpt lat="44.50652" lon="1.8971">
        <ele>160.2</ele>
        <time>2023-08-20T08:05:22Z</time>
      </trkpt>
      <trkpt lat="44.50627" lon="1.89792">
        <ele>160.4</ele>
        <time>2023-08-20T08:05:27Z</time>
      </trkpt>
      <trkpt lat="44.50625" lon="1.89808">
        <ele>160.4</ele>
        <time>2023-08-20T08:05:28Z</time>
      </trkpt>
      <trkpt lat="44.50621" lon="1.8982">
        <ele>160.4</ele>
        <time>2023-08-20T08:05:29Z</time>
      </trkpt>
      <trkpt lat="44.50616" lon="1.89834">
        <ele>160.4</ele>
        <time>2023-08-20T08:05:30Z</time>
      </trkpt>
      <trkpt lat="44.50611" lon="1.89846">
        <ele>160.4</ele>
        <time>2023-08-20T08:05:31Z</time>
      </trkpt>
      <trkpt lat="44.50604" lon="1.89859">
        <ele>160.4</ele>
        <time>2023-08-20T08:05:32Z</time>
      </trkpt>
      <trkpt lat="44.50597" lon="1.89868">
        <ele>160.2</ele>
        <time>2023-08-20T08:05:33Z</time>
      </trkpt>
      <trkpt lat="44.50589" lon="1.89876">
        <ele>160.2</ele>
        <time>2023-08-20T08:05:34Z</time>
      </trkpt>
      <trkpt lat="44.50583" lon="1.89881">
        <ele>160.2</ele>
        <time>2023-08-20T08:05:35Z</time>
      </trkpt>
      <trkpt lat="44.50574" lon="1.89887">
        <ele>160.2</ele>
        <time>2023-08-20T08:05:36Z</time>
      </trkpt>
      <trkpt lat="44.50566" lon="1.89895">
        <ele>160.2</ele>
        <time>2023-08-20T08:05:37Z</time>
      </trkpt>
      <trkpt lat="44.50556" lon="1.89906">
        <ele>160</ele>
        <time>2023-08-20T08:05:38Z</time>
      </trkpt>
      <trkpt lat="44.50523" lon="1.89957">
        <ele>160</ele>
        <time>2023-08-20T08:05:42Z</time>
      </trkpt>
      <trkpt lat="44.50483" lon="1.90027">
        <ele>160.4</ele>
        <time>2023-08-20T08:05:47Z</time>
      </trkpt>
      <trkpt lat="44.50475" lon="1.90046">
        <ele>160.6</ele>
        <time>2023-08-20T08:05:48Z</time>
      </trkpt>
      <trkpt lat="44.50464" lon="1.90076">
        <ele>161</ele>
        <time>2023-08-20T08:05:50Z</time>
      </trkpt>
      <trkpt lat="44.50459" lon="1.9009">
        <ele>161</ele>
        <time>2023-08-20T08:05:51Z</time>
      </trkpt>
      <trkpt lat="44.50454" lon="1.90104">
        <ele>161.2</ele>
        <time>2023-08-20T08:05:52Z</time>
      </trkpt>
      <trkpt lat="44.50449" lon="1.90117">
        <ele>161.2</ele>
        <time>2023-08-20T08:05:53Z</time>
      </trkpt>
      <trkpt lat="44.50444" lon="1.9013">
        <ele>161</ele>
        <time>2023-08-20T08:05:54Z</time>
      </trkpt>
      <trkpt lat="44.5044" lon="1.90143">
        <ele>160.8</ele>
        <time>2023-08-20T08:05:55Z</time>
      </trkpt>
      <trkpt lat="44.50436" lon="1.90157">
        <ele>160.6</ele>
        <time>2023-08-20T08:05:56Z</time>
      </trkpt>
      <trkpt lat="44.50433" lon="1.90172">
        <ele>160.4</ele>
        <time>2023-08-20T08:05:57Z</time>
      </trkpt>
      <trkpt lat="44.50419" lon="1.90211">
        <ele>160.2</ele>
        <time>2023-08-20T08:06:00Z</time>
      </trkpt>
      <trkpt lat="44.50413" lon="1.90221">
        <ele>159.8</ele>
        <time>2023-08-20T08:06:01Z</time>
      </trkpt>
      <trkpt lat="44.50383" lon="1.90273">
        <ele>159.4</ele>
        <time>2023-08-20T08:06:05Z</time>
      </trkpt>
      <trkpt lat="44.50371" lon="1.90299">
        <ele>159.2</ele>
        <time>2023-08-20T08:06:07Z</time>
      </trkpt>
      <trkpt lat="44.50349" lon="1.90341">
        <ele>159</ele>
        <time>2023-08-20T08:06:10Z</time>
      </trkpt>
      <trkpt lat="44.50343" lon="1.90353">
        <ele>159</ele>
        <time>2023-08-20T08:06:11Z</time>
      </trkpt>
      <trkpt lat="44.50338" lon="1.90362">
        <ele>159</ele>
        <time>2023-08-20T08:06:12Z</time>
      </trkpt>
      <trkpt lat="44.50331" lon="1.90373">
        <ele>159</ele>
        <time>2023-08-20T08:06:13Z</time>
      </trkpt>
      <trkpt lat="44.50324" lon="1.90386">
        <ele>159.2</ele>
        <time>2023-08-20T08:06:14Z</time>
      </trkpt>
      <trkpt lat="44.50318" lon="1.90396">
        <ele>159.4</ele>
        <time>2023-08-20T08:06:15Z</time>
      </trkpt>
      <trkpt lat="44.50313" lon="1.90406">
        <ele>159.4</ele>
        <time>2023-08-20T08:06:16Z</time>
      </trkpt>
      <trkpt lat="44.50306" lon="1.90414">
        <ele>159.6</ele>
        <time>2023-08-20T08:06:17Z</time>
      </trkpt>
      <trkpt lat="44.50299" lon="1.90422">
        <ele>159.6</ele>
        <time>2023-08-20T08:06:18Z</time>
      </trkpt>
      <trkpt lat="44.50292" lon="1.90428">
        <ele>159.8</ele>
        <time>2023-08-20T08:06:19Z</time>
      </trkpt>
      <trkpt lat="44.50285" lon="1.90433">
        <ele>159.8</ele>
        <time>2023-08-20T08:06:20Z</time>
      </trkpt>
      <trkpt lat="44.50276" lon="1.90438">
        <ele>160.2</ele>
        <time>2023-08-20T08:06:21Z</time>
      </trkpt>
      <trkpt lat="44.50247" lon="1.90457">
        <ele>160.8</ele>
        <time>2023-08-20T08:06:24Z</time>
      </trkpt>
      <trkpt lat="44.50226" lon="1.90478">
        <ele>161.4</ele>
        <time>2023-08-20T08:06:26Z</time>
      </trkpt>
      <trkpt lat="44.50216" lon="1.9049">
        <ele>161.6</ele>
        <time>2023-08-20T08:06:27Z</time>
      </trkpt>
      <trkpt lat="44.50193" lon="1.90514">
        <ele>162.6</ele>
        <time>2023-08-20T08:06:29Z</time>
      </trkpt>
      <trkpt lat="44.50159" lon="1.9055">
        <ele>163.6</ele>
        <time>2023-08-20T08:06:32Z</time>
      </trkpt>
      <trkpt lat="44.50149" lon="1.90562">
        <ele>164.2</ele>
        <time>2023-08-20T08:06:33Z</time>
      </trkpt>
      <trkpt lat="44.50138" lon="1.90573">
        <ele>164.4</ele>
        <time>2023-08-20T08:06:34Z</time>
      </trkpt>
      <trkpt lat="44.50127" lon="1.90586">
        <ele>164.8</ele>
        <time>2023-08-20T08:06:35Z</time>
      </trkpt>
      <trkpt lat="44.50117" lon="1.90598">
        <ele>165</ele>
        <time>2023-08-20T08:06:36Z</time>
      </trkpt>
      <trkpt lat="44.50106" lon="1.90611">
        <ele>165.2</ele>
        <time>2023-08-20T08:06:37Z</time>
      </trkpt>
      <trkpt lat="44.50095" lon="1.90623">
        <ele>165.2</ele>
        <time>2023-08-20T08:06:38Z</time>
      </trkpt>
      <trkpt lat="44.50085" lon="1.90635">
        <ele>165.4</ele>
        <time>2023-08-20T08:06:39Z</time>
      </trkpt>
      <trkpt lat="44.50073" lon="1.90646">
        <ele>165.6</ele>
        <time>2023-08-20T08:06:40Z</time>
      </trkpt>
      <trkpt lat="44.50061" lon="1.90656">
        <ele>166</ele>
        <time>2023-08-20T08:06:41Z</time>
      </trkpt>
      <trkpt lat="44.50049" lon="1.90665">
        <ele>166.4</ele>
        <time>2023-08-20T08:06:42Z</time>
      </trkpt>
      <trkpt lat="44.50038" lon="1.90674">
        <ele>166.4</ele>
        <time>2023-08-20T08:06:43Z</time>
      </trkpt>
      <trkpt lat="44.50025" lon="1.90682">
        <ele>166.8</ele>
        <time>2023-08-20T08:06:44Z</time>
      </trkpt>
      <trkpt lat="44.50013" lon="1.9069">
        <ele>167</ele>
        <time>2023-08-20T08:06:45Z</time>
      </trkpt>
      <trkpt lat="44.50001" lon="1.90698">
        <ele>167.4</ele>
        <time>2023-08-20T08:06:46Z</time>
      </trkpt>
      <trkpt lat="44.49989" lon="1.90706">
        <ele>167.4</ele>
        <time>2023-08-20T08:06:47Z</time>
      </trkpt>
      <trkpt lat="44.49977" lon="1.90714">
        <ele>167.6</ele>
        <time>2023-08-20T08:06:48Z</time>
      </trkpt>
      <trkpt lat="44.49965" lon="1.90721">
        <ele>168</ele>
        <time>2023-08-20T08:06:49Z</time>
      </trkpt>
      <trkpt lat="44.49952" lon="1.90728">
        <ele>168.2</ele>
        <time>2023-08-20T08:06:50Z</time>
      </trkpt>
      <trkpt lat="44.49938" lon="1.90734">
        <ele>168.6</ele>
        <time>2023-08-20T08:06:51Z</time>
      </trkpt>
      <trkpt lat="44.49925" lon="1.9074">
        <ele>169</ele>
        <time>2023-08-20T08:06:52Z</time>
      </trkpt>
      <trkpt lat="44.49911" lon="1.90746">
        <ele>169.4</ele>
        <time>2023-08-20T08:06:53Z</time>
      </trkpt>
      <trkpt lat="44.49897" lon="1.90751">
        <ele>169.6</ele>
        <time>2023-08-20T08:06:54Z</time>
      </trkpt>
      <trkpt lat="44.49884" lon="1.90757">
        <ele>170</ele>
        <time>2023-08-20T08:06:55Z</time>
      </trkpt>
      <trkpt lat="44.4987" lon="1.90763">
        <ele>170.4</ele>
        <time>2023-08-20T08:06:56Z</time>
      </trkpt>
      <trkpt lat="44.49856" lon="1.90769">
        <ele>170.8</ele>
        <time>2023-08-20T08:06:57Z</time>
      </trkpt>
      <trkpt lat="44.49843" lon="1.90774">
        <ele>171.4</ele>
        <time>2023-08-20T08:06:58Z</time>
      </trkpt>
      <trkpt lat="44.49829" lon="1.9078">
        <ele>171.6</ele>
        <time>2023-08-20T08:06:59Z</time>
      </trkpt>
      <trkpt lat="44.49816" lon="1.90786">
        <ele>172</ele>
        <time>2023-08-20T08:07:00Z</time>
      </trkpt>
      <trkpt lat="44.49802" lon="1.90792">
        <ele>172.2</ele>
        <time>2023-08-20T08:07:01Z</time>
      </trkpt>
      <trkpt lat="44.49788" lon="1.90798">
        <ele>172.6</ele>
        <time>2023-08-20T08:07:02Z</time>
      </trkpt>
      <trkpt lat="44.49774" lon="1.90804">
        <ele>172.8</ele>
        <time>2023-08-20T08:07:03Z</time>
      </trkpt>
      <trkpt lat="44.49759" lon="1.9081">
        <ele>173</ele>
        <time>2023-08-20T08:07:04Z</time>
      </trkpt>
      <trkpt lat="44.49744" lon="1.90817">
        <ele>173.2</ele>
        <time>2023-08-20T08:07:05Z</time>
      </trkpt>
      <trkpt lat="44.49729" lon="1.90823">
        <ele>173.4</ele>
        <time>2023-08-20T08:07:06Z</time>
      </trkpt>
      <trkpt lat="44.49713" lon="1.90829">
        <ele>173.8</ele>
        <time>2023-08-20T08:07:07Z</time>
      </trkpt>
      <trkpt lat="44.49697" lon="1.90834">
        <ele>174.2</ele>
        <time>2023-08-20T08:07:08Z</time>
      </trkpt>
      <trkpt lat="44.49683" lon="1.9084">
        <ele>175</ele>
        <time>2023-08-20T08:07:09Z</time>
      </trkpt>
      <trkpt lat="44.49671" lon="1.90843">
        <ele>175.6</ele>
        <time>2023-08-20T08:07:10Z</time>
      </trkpt>
      <trkpt lat="44.49653" lon="1.90849">
        <ele>176.4</ele>
        <time>2023-08-20T08:07:11Z</time>
      </trkpt>
      <trkpt lat="44.49639" lon="1.90853">
        <ele>176.4</ele>
        <time>2023-08-20T08:07:12Z</time>
      </trkpt>
      <trkpt lat="44.49625" lon="1.90856">
        <ele>176.8</ele>
        <time>2023-08-20T08:07:13Z</time>
      </trkpt>
      <trkpt lat="44.49611" lon="1.90859">
        <ele>177.2</ele>
        <time>2023-08-20T08:07:14Z</time>
      </trkpt>
      <trkpt lat="44.49596" lon="1.90863">
        <ele>177.4</ele>
        <time>2023-08-20T08:07:15Z</time>
      </trkpt>
      <trkpt lat="44.49581" lon="1.90866">
        <ele>177.6</ele>
        <time>2023-08-20T08:07:16Z</time>
      </trkpt>
      <trkpt lat="44.49567" lon="1.90869">
        <ele>177.8</ele>
        <time>2023-08-20T08:07:17Z</time>
      </trkpt>
      <trkpt lat="44.49552" lon="1.90872">
        <ele>178</ele>
        <time>2023-08-20T08:07:18Z</time>
      </trkpt>
      <trkpt lat="44.49538" lon="1.90875">
        <ele>178.2</ele>
        <time>2023-08-20T08:07:19Z</time>
      </trkpt>
      <trkpt lat="44.49524" lon="1.9088">
        <ele>178.4</ele>
        <time>2023-08-20T08:07:20Z</time>
      </trkpt>
      <trkpt lat="44.49513" lon="1.90887">
        <ele>178.4</ele>
        <time>2023-08-20T08:07:21Z</time>
      </trkpt>
      <trkpt lat="44.49503" lon="1.90897">
        <ele>178.6</ele>
        <time>2023-08-20T08:07:22Z</time>
      </trkpt>
      <trkpt lat="44.49494" lon="1.9091">
        <ele>178.6</ele>
        <time>2023-08-20T08:07:23Z</time>
      </trkpt>
      <trkpt lat="44.49487" lon="1.90927">
        <ele>178.6</ele>
        <time>2023-08-20T08:07:24Z</time>
      </trkpt>
      <trkpt lat="44.49481" lon="1.90945">
        <ele>179</ele>
        <time>2023-08-20T08:07:25Z</time>
      </trkpt>
      <trkpt lat="44.49476" lon="1.90964">
        <ele>179</ele>
        <time>2023-08-20T08:07:26Z</time>
      </trkpt>
      <trkpt lat="44.49471" lon="1.90983">
        <ele>179.2</ele>
        <time>2023-08-20T08:07:27Z</time>
      </trkpt>
      <trkpt lat="44.49466" lon="1.91004">
        <ele>179.4</ele>
        <time>2023-08-20T08:07:28Z</time>
      </trkpt>
      <trkpt lat="44.49461" lon="1.91024">
        <ele>179.8</ele>
        <time>2023-08-20T08:07:29Z</time>
      </trkpt>
      <trkpt lat="44.49456" lon="1.91046">
        <ele>180.2</ele>
        <time>2023-08-20T08:07:30Z</time>
      </trkpt>
      <trkpt lat="44.49451" lon="1.91068">
        <ele>180.2</ele>
        <time>2023-08-20T08:07:31Z</time>
      </trkpt>
      <trkpt lat="44.49446" lon="1.9109">
        <ele>181</ele>
        <time>2023-08-20T08:07:32Z</time>
      </trkpt>
      <trkpt lat="44.49441" lon="1.91112">
        <ele>181.4</ele>
        <time>2023-08-20T08:07:33Z</time>
      </trkpt>
      <trkpt lat="44.49436" lon="1.91134">
        <ele>181.8</ele>
        <time>2023-08-20T08:07:34Z</time>
      </trkpt>
      <trkpt lat="44.49431" lon="1.91157">
        <ele>182</ele>
        <time>2023-08-20T08:07:35Z</time>
      </trkpt>
      <trkpt lat="44.49426" lon="1.91174">
        <ele>182.6</ele>
        <time>2023-08-20T08:07:36Z</time>
      </trkpt>
      <trkpt lat="44.49421" lon="1.91196">
        <ele>182.8</ele>
        <time>2023-08-20T08:07:37Z</time>
      </trkpt>
      <trkpt lat="44.49415" lon="1.91218">
        <ele>183.2</ele>
        <time>2023-08-20T08:07:38Z</time>
      </trkpt>
      <trkpt lat="44.4941" lon="1.91244">
        <ele>183.8</ele>
        <time>2023-08-20T08:07:39Z</time>
      </trkpt>
      <trkpt lat="44.49408" lon="1.91265">
        <ele>184</ele>
        <time>2023-08-20T08:07:40Z</time>
      </trkpt>
      <trkpt lat="44.49408" lon="1.91281">
        <ele>184.6</ele>
        <time>2023-08-20T08:07:41Z</time>
      </trkpt>
      <trkpt lat="44.49409" lon="1.913">
        <ele>184.8</ele>
        <time>2023-08-20T08:07:42Z</time>
      </trkpt>
      <trkpt lat="44.49413" lon="1.91319">
        <ele>185</ele>
        <time>2023-08-20T08:07:43Z</time>
      </trkpt>
      <trkpt lat="44.49419" lon="1.9134">
        <ele>185</ele>
        <time>2023-08-20T08:07:44Z</time>
      </trkpt>
      <trkpt lat="44.49425" lon="1.91356">
        <ele>185</ele>
        <time>2023-08-20T08:07:45Z</time>
      </trkpt>
      <trkpt lat="44.49431" lon="1.91368">
        <ele>185</ele>
        <time>2023-08-20T08:07:46Z</time>
      </trkpt>
      <trkpt lat="44.49441" lon="1.9138">
        <ele>185</ele>
        <time>2023-08-20T08:07:47Z</time>
      </trkpt>
      <trkpt lat="44.49452" lon="1.91389">
        <ele>185</ele>
        <time>2023-08-20T08:07:48Z</time>
      </trkpt>
      <trkpt lat="44.49468" lon="1.91394">
        <ele>184.8</ele>
        <time>2023-08-20T08:07:49Z</time>
      </trkpt>
      <trkpt lat="44.49482" lon="1.91393">
        <ele>184.6</ele>
        <time>2023-08-20T08:07:50Z</time>
      </trkpt>
      <trkpt lat="44.49497" lon="1.91391">
        <ele>184.6</ele>
        <time>2023-08-20T08:07:51Z</time>
      </trkpt>
      <trkpt lat="44.49509" lon="1.91388">
        <ele>184.2</ele>
        <time>2023-08-20T08:07:52Z</time>
      </trkpt>
      <trkpt lat="44.49528" lon="1.91383">
        <ele>184</ele>
        <time>2023-08-20T08:07:53Z</time>
      </trkpt>
      <trkpt lat="44.49544" lon="1.91379">
        <ele>183.6</ele>
        <time>2023-08-20T08:07:54Z</time>
      </trkpt>
      <trkpt lat="44.49561" lon="1.91375">
        <ele>183.2</ele>
        <time>2023-08-20T08:07:55Z</time>
      </trkpt>
      <trkpt lat="44.49577" lon="1.9137">
        <ele>182.8</ele>
        <time>2023-08-20T08:07:56Z</time>
      </trkpt>
      <trkpt lat="44.49594" lon="1.91366">
        <ele>182.2</ele>
        <time>2023-08-20T08:07:57Z</time>
      </trkpt>
      <trkpt lat="44.49611" lon="1.91362">
        <ele>182</ele>
        <time>2023-08-20T08:07:58Z</time>
      </trkpt>
      <trkpt lat="44.49628" lon="1.91357">
        <ele>181.6</ele>
        <time>2023-08-20T08:07:59Z</time>
      </trkpt>
      <trkpt lat="44.4966" lon="1.91342">
        <ele>181.2</ele>
        <time>2023-08-20T08:08:01Z</time>
      </trkpt>
      <trkpt lat="44.49676" lon="1.91332">
        <ele>180.8</ele>
        <time>2023-08-20T08:08:02Z</time>
      </trkpt>
      <trkpt lat="44.49706" lon="1.91314">
        <ele>180</ele>
        <time>2023-08-20T08:08:04Z</time>
      </trkpt>
      <trkpt lat="44.49759" lon="1.91283">
        <ele>178.8</ele>
        <time>2023-08-20T08:08:07Z</time>
      </trkpt>
      <trkpt lat="44.49773" lon="1.91275">
        <ele>178.4</ele>
        <time>2023-08-20T08:08:08Z</time>
      </trkpt>
      <trkpt lat="44.4981" lon="1.91252">
        <ele>177.8</ele>
        <time>2023-08-20T08:08:10Z</time>
      </trkpt>
      <trkpt lat="44.4984" lon="1.91231">
        <ele>177.2</ele>
        <time>2023-08-20T08:08:12Z</time>
      </trkpt>
      <trkpt lat="44.49854" lon="1.91219">
        <ele>176.6</ele>
        <time>2023-08-20T08:08:13Z</time>
      </trkpt>
      <trkpt lat="44.49866" lon="1.91204">
        <ele>176.4</ele>
        <time>2023-08-20T08:08:14Z</time>
      </trkpt>
      <trkpt lat="44.49878" lon="1.91188">
        <ele>175.6</ele>
        <time>2023-08-20T08:08:15Z</time>
      </trkpt>
      <trkpt lat="44.4989" lon="1.91172">
        <ele>175.2</ele>
        <time>2023-08-20T08:08:16Z</time>
      </trkpt>
      <trkpt lat="44.49915" lon="1.91142">
        <ele>173.4</ele>
        <time>2023-08-20T08:08:18Z</time>
      </trkpt>
      <trkpt lat="44.49929" lon="1.91128">
        <ele>172.8</ele>
        <time>2023-08-20T08:08:19Z</time>
      </trkpt>
      <trkpt lat="44.49944" lon="1.91116">
        <ele>171.8</ele>
        <time>2023-08-20T08:08:20Z</time>
      </trkpt>
      <trkpt lat="44.49975" lon="1.91095">
        <ele>170.8</ele>
        <time>2023-08-20T08:08:22Z</time>
      </trkpt>
      <trkpt lat="44.4999" lon="1.91085">
        <ele>170.6</ele>
        <time>2023-08-20T08:08:23Z</time>
      </trkpt>
      <trkpt lat="44.50018" lon="1.91067">
        <ele>169.4</ele>
        <time>2023-08-20T08:08:25Z</time>
      </trkpt>
      <trkpt lat="44.50033" lon="1.91058">
        <ele>168.8</ele>
        <time>2023-08-20T08:08:26Z</time>
      </trkpt>
      <trkpt lat="44.50048" lon="1.91051">
        <ele>168.2</ele>
        <time>2023-08-20T08:08:27Z</time>
      </trkpt>
      <trkpt lat="44.50079" lon="1.91041">
        <ele>167</ele>
        <time>2023-08-20T08:08:29Z</time>
      </trkpt>
      <trkpt lat="44.5011" lon="1.91033">
        <ele>166.4</ele>
        <time>2023-08-20T08:08:31Z</time>
      </trkpt>
      <trkpt lat="44.50142" lon="1.91028">
        <ele>165.6</ele>
        <time>2023-08-20T08:08:33Z</time>
      </trkpt>
      <trkpt lat="44.50156" lon="1.91028">
        <ele>164.8</ele>
        <time>2023-08-20T08:08:34Z</time>
      </trkpt>
      <trkpt lat="44.50167" lon="1.91029">
        <ele>164.6</ele>
        <time>2023-08-20T08:08:35Z</time>
      </trkpt>
      <trkpt lat="44.50184" lon="1.91031">
        <ele>164.2</ele>
        <time>2023-08-20T08:08:36Z</time>
      </trkpt>
      <trkpt lat="44.50197" lon="1.91035">
        <ele>164</ele>
        <time>2023-08-20T08:08:37Z</time>
      </trkpt>
      <trkpt lat="44.50212" lon="1.91039">
        <ele>163.6</ele>
        <time>2023-08-20T08:08:38Z</time>
      </trkpt>
      <trkpt lat="44.50271" lon="1.91054">
        <ele>162.6</ele>
        <time>2023-08-20T08:08:42Z</time>
      </trkpt>
      <trkpt lat="44.50315" lon="1.91066">
        <ele>162.6</ele>
        <time>2023-08-20T08:08:45Z</time>
      </trkpt>
      <trkpt lat="44.50358" lon="1.91082">
        <ele>162.6</ele>
        <time>2023-08-20T08:08:48Z</time>
      </trkpt>
      <trkpt lat="44.50372" lon="1.91091">
        <ele>162.6</ele>
        <time>2023-08-20T08:08:49Z</time>
      </trkpt>
      <trkpt lat="44.50424" lon="1.91138">
        <ele>163</ele>
        <time>2023-08-20T08:08:53Z</time>
      </trkpt>
      <trkpt lat="44.50481" lon="1.91188">
        <ele>163.8</ele>
        <time>2023-08-20T08:08:57Z</time>
      </trkpt>
      <trkpt lat="44.50496" lon="1.91201">
        <ele>164.2</ele>
        <time>2023-08-20T08:08:58Z</time>
      </trkpt>
      <trkpt lat="44.5054" lon="1.91246">
        <ele>165.4</ele>
        <time>2023-08-20T08:09:01Z</time>
      </trkpt>
      <trkpt lat="44.50554" lon="1.91262">
        <ele>165.4</ele>
        <time>2023-08-20T08:09:02Z</time>
      </trkpt>
      <trkpt lat="44.5059" lon="1.91319">
        <ele>166.2</ele>
        <time>2023-08-20T08:09:05Z</time>
      </trkpt>
      <trkpt lat="44.50599" lon="1.91335">
        <ele>166.2</ele>
        <time>2023-08-20T08:09:06Z</time>
      </trkpt>
      <trkpt lat="44.50627" lon="1.914">
        <ele>166.2</ele>
        <time>2023-08-20T08:09:09Z</time>
      </trkpt>
      <trkpt lat="44.50633" lon="1.91416">
        <ele>166.2</ele>
        <time>2023-08-20T08:09:10Z</time>
      </trkpt>
      <trkpt lat="44.50639" lon="1.91437">
        <ele>166</ele>
        <time>2023-08-20T08:09:11Z</time>
      </trkpt>
      <trkpt lat="44.50645" lon="1.91458">
        <ele>165.6</ele>
        <time>2023-08-20T08:09:12Z</time>
      </trkpt>
      <trkpt lat="44.5065" lon="1.91479">
        <ele>165.6</ele>
        <time>2023-08-20T08:09:13Z</time>
      </trkpt>
      <trkpt lat="44.50655" lon="1.91504">
        <ele>165.4</ele>
        <time>2023-08-20T08:09:14Z</time>
      </trkpt>
      <trkpt lat="44.50658" lon="1.91521">
        <ele>165.4</ele>
        <time>2023-08-20T08:09:15Z</time>
      </trkpt>
      <trkpt lat="44.50662" lon="1.91542">
        <ele>165.2</ele>
        <time>2023-08-20T08:09:16Z</time>
      </trkpt>
      <trkpt lat="44.50673" lon="1.91605">
        <ele>165.2</ele>
        <time>2023-08-20T08:09:19Z</time>
      </trkpt>
      <trkpt lat="44.5068" lon="1.91645">
        <ele>165.2</ele>
        <time>2023-08-20T08:09:21Z</time>
      </trkpt>
      <trkpt lat="44.50683" lon="1.91664">
        <ele>165</ele>
        <time>2023-08-20T08:09:22Z</time>
      </trkpt>
      <trkpt lat="44.50686" lon="1.91682">
        <ele>165</ele>
        <time>2023-08-20T08:09:23Z</time>
      </trkpt>
      <trkpt lat="44.50689" lon="1.91698">
        <ele>165</ele>
        <time>2023-08-20T08:09:24Z</time>
      </trkpt>
      <trkpt lat="44.5069" lon="1.91712">
        <ele>164.8</ele>
        <time>2023-08-20T08:09:25Z</time>
      </trkpt>
      <trkpt lat="44.5069" lon="1.91722">
        <ele>164.6</ele>
        <time>2023-08-20T08:09:26Z</time>
      </trkpt>
      <trkpt lat="44.50689" lon="1.91732">
        <ele>164.4</ele>
        <time>2023-08-20T08:09:27Z</time>
      </trkpt>
      <trkpt lat="44.50689" lon="1.91743">
        <ele>164</ele>
        <time>2023-08-20T08:09:28Z</time>
      </trkpt>
      <trkpt lat="44.5069" lon="1.91756">
        <ele>163.6</ele>
        <time>2023-08-20T08:09:29Z</time>
      </trkpt>
      <trkpt lat="44.50693" lon="1.91766">
        <ele>163.2</ele>
        <time>2023-08-20T08:09:30Z</time>
      </trkpt>
      <trkpt lat="44.50698" lon="1.91775">
        <ele>162.8</ele>
        <time>2023-08-20T08:09:31Z</time>
      </trkpt>
      <trkpt lat="44.50705" lon="1.91783">
        <ele>162.6</ele>
        <time>2023-08-20T08:09:32Z</time>
      </trkpt>
      <trkpt lat="44.50711" lon="1.91788">
        <ele>162.4</ele>
        <time>2023-08-20T08:09:33Z</time>
      </trkpt>
      <trkpt lat="44.50718" lon="1.91797">
        <ele>162.2</ele>
        <time>2023-08-20T08:09:34Z</time>
      </trkpt>
      <trkpt lat="44.50722" lon="1.91807">
        <ele>162</ele>
        <time>2023-08-20T08:09:35Z</time>
      </trkpt>
      <trkpt lat="44.50725" lon="1.9182">
        <ele>161.8</ele>
        <time>2023-08-20T08:09:36Z</time>
      </trkpt>
      <trkpt lat="44.50726" lon="1.91831">
        <ele>161.8</ele>
        <time>2023-08-20T08:09:37Z</time>
      </trkpt>
      <trkpt lat="44.50727" lon="1.91847">
        <ele>161.8</ele>
        <time>2023-08-20T08:09:38Z</time>
      </trkpt>
      <trkpt lat="44.50729" lon="1.91868">
        <ele>161.6</ele>
        <time>2023-08-20T08:09:39Z</time>
      </trkpt>
      <trkpt lat="44.50733" lon="1.91886">
        <ele>161.8</ele>
        <time>2023-08-20T08:09:40Z</time>
      </trkpt>
      <trkpt lat="44.5074" lon="1.91925">
        <ele>162</ele>
        <time>2023-08-20T08:09:42Z</time>
      </trkpt>
      <trkpt lat="44.50747" lon="1.91965">
        <ele>162.8</ele>
        <time>2023-08-20T08:09:44Z</time>
      </trkpt>
      <trkpt lat="44.50759" lon="1.92045">
        <ele>163.6</ele>
        <time>2023-08-20T08:09:48Z</time>
      </trkpt>
      <trkpt lat="44.50762" lon="1.92059">
        <ele>163.8</ele>
        <time>2023-08-20T08:09:49Z</time>
      </trkpt>
      <trkpt lat="44.50765" lon="1.9208">
        <ele>163.8</ele>
        <time>2023-08-20T08:09:50Z</time>
      </trkpt>
      <trkpt lat="44.50768" lon="1.92097">
        <ele>163.8</ele>
        <time>2023-08-20T08:09:51Z</time>
      </trkpt>
      <trkpt lat="44.50771" lon="1.92113">
        <ele>163.8</ele>
        <time>2023-08-20T08:09:52Z</time>
      </trkpt>
      <trkpt lat="44.50773" lon="1.92127">
        <ele>163.8</ele>
        <time>2023-08-20T08:09:53Z</time>
      </trkpt>
      <trkpt lat="44.50776" lon="1.92139">
        <ele>163.8</ele>
        <time>2023-08-20T08:09:54Z</time>
      </trkpt>
      <trkpt lat="44.50778" lon="1.9215">
        <ele>163.8</ele>
        <time>2023-08-20T08:09:55Z</time>
      </trkpt>
      <trkpt lat="44.5078" lon="1.92161">
        <ele>163.4</ele>
        <time>2023-08-20T08:09:56Z</time>
      </trkpt>
      <trkpt lat="44.50782" lon="1.92171">
        <ele>163.2</ele>
        <time>2023-08-20T08:09:57Z</time>
      </trkpt>
      <trkpt lat="44.50784" lon="1.92181">
        <ele>163</ele>
        <time>2023-08-20T08:09:58Z</time>
      </trkpt>
      <trkpt lat="44.50787" lon="1.92191">
        <ele>162.8</ele>
        <time>2023-08-20T08:09:59Z</time>
      </trkpt>
      <trkpt lat="44.50791" lon="1.92202">
        <ele>162.6</ele>
        <time>2023-08-20T08:10:00Z</time>
      </trkpt>
      <trkpt lat="44.50811" lon="1.9224">
        <ele>162.2</ele>
        <time>2023-08-20T08:10:03Z</time>
      </trkpt>
      <trkpt lat="44.5084" lon="1.9229">
        <ele>162.2</ele>
        <time>2023-08-20T08:10:06Z</time>
      </trkpt>
      <trkpt lat="44.50874" lon="1.92368">
        <ele>163.4</ele>
        <time>2023-08-20T08:10:10Z</time>
      </trkpt>
      <trkpt lat="44.50885" lon="1.92411">
        <ele>164.2</ele>
        <time>2023-08-20T08:10:12Z</time>
      </trkpt>
      <trkpt lat="44.50888" lon="1.92427">
        <ele>164.2</ele>
        <time>2023-08-20T08:10:13Z</time>
      </trkpt>
      <trkpt lat="44.50891" lon="1.92449">
        <ele>164.6</ele>
        <time>2023-08-20T08:10:14Z</time>
      </trkpt>
      <trkpt lat="44.50893" lon="1.92473">
        <ele>164.6</ele>
        <time>2023-08-20T08:10:15Z</time>
      </trkpt>
      <trkpt lat="44.50894" lon="1.92494">
        <ele>164.8</ele>
        <time>2023-08-20T08:10:16Z</time>
      </trkpt>
      <trkpt lat="44.50894" lon="1.92514">
        <ele>165</ele>
        <time>2023-08-20T08:10:17Z</time>
      </trkpt>
      <trkpt lat="44.50894" lon="1.92534">
        <ele>165.2</ele>
        <time>2023-08-20T08:10:18Z</time>
      </trkpt>
      <trkpt lat="44.50893" lon="1.92553">
        <ele>165.2</ele>
        <time>2023-08-20T08:10:19Z</time>
      </trkpt>
      <trkpt lat="44.50893" lon="1.92572">
        <ele>165.2</ele>
        <time>2023-08-20T08:10:20Z</time>
      </trkpt>
      <trkpt lat="44.50893" lon="1.92592">
        <ele>165.4</ele>
        <time>2023-08-20T08:10:21Z</time>
      </trkpt>
      <trkpt lat="44.50892" lon="1.92611">
        <ele>165.4</ele>
        <time>2023-08-20T08:10:22Z</time>
      </trkpt>
      <trkpt lat="44.50889" lon="1.92691">
        <ele>165.2</ele>
        <time>2023-08-20T08:10:26Z</time>
      </trkpt>
      <trkpt lat="44.50888" lon="1.92712">
        <ele>165.2</ele>
        <time>2023-08-20T08:10:27Z</time>
      </trkpt>
      <trkpt lat="44.50886" lon="1.92789">
        <ele>165</ele>
        <time>2023-08-20T08:10:31Z</time>
      </trkpt>
      <trkpt lat="44.50884" lon="1.92804">
        <ele>165</ele>
        <time>2023-08-20T08:10:32Z</time>
      </trkpt>
      <trkpt lat="44.50883" lon="1.9282">
        <ele>165</ele>
        <time>2023-08-20T08:10:33Z</time>
      </trkpt>
      <trkpt lat="44.50885" lon="1.92837">
        <ele>165</ele>
        <time>2023-08-20T08:10:34Z</time>
      </trkpt>
      <trkpt lat="44.50888" lon="1.92855">
        <ele>165</ele>
        <time>2023-08-20T08:10:35Z</time>
      </trkpt>
      <trkpt lat="44.50898" lon="1.92896">
        <ele>165</ele>
        <time>2023-08-20T08:10:37Z</time>
      </trkpt>
      <trkpt lat="44.50919" lon="1.92963">
        <ele>165.2</ele>
        <time>2023-08-20T08:10:40Z</time>
      </trkpt>
      <trkpt lat="44.50949" lon="1.93027">
        <ele>166.2</ele>
        <time>2023-08-20T08:10:43Z</time>
      </trkpt>
      <trkpt lat="44.50959" lon="1.93047">
        <ele>166.6</ele>
        <time>2023-08-20T08:10:44Z</time>
      </trkpt>
      <trkpt lat="44.50967" lon="1.93062">
        <ele>166.8</ele>
        <time>2023-08-20T08:10:45Z</time>
      </trkpt>
      <trkpt lat="44.50979" lon="1.93084">
        <ele>167.2</ele>
        <time>2023-08-20T08:10:46Z</time>
      </trkpt>
      <trkpt lat="44.50989" lon="1.93102">
        <ele>167.2</ele>
        <time>2023-08-20T08:10:47Z</time>
      </trkpt>
      <trkpt lat="44.51" lon="1.9312">
        <ele>167.4</ele>
        <time>2023-08-20T08:10:48Z</time>
      </trkpt>
      <trkpt lat="44.5101" lon="1.93138">
        <ele>167.4</ele>
        <time>2023-08-20T08:10:49Z</time>
      </trkpt>
      <trkpt lat="44.51057" lon="1.93207">
        <ele>167</ele>
        <time>2023-08-20T08:10:53Z</time>
      </trkpt>
      <trkpt lat="44.5107" lon="1.93223">
        <ele>167</ele>
        <time>2023-08-20T08:10:54Z</time>
      </trkpt>
      <trkpt lat="44.51122" lon="1.93283">
        <ele>166.8</ele>
        <time>2023-08-20T08:10:58Z</time>
      </trkpt>
      <trkpt lat="44.51135" lon="1.93296">
        <ele>166.6</ele>
        <time>2023-08-20T08:10:59Z</time>
      </trkpt>
      <trkpt lat="44.51147" lon="1.93308">
        <ele>166.4</ele>
        <time>2023-08-20T08:11:00Z</time>
      </trkpt>
      <trkpt lat="44.51159" lon="1.9332">
        <ele>166.2</ele>
        <time>2023-08-20T08:11:01Z</time>
      </trkpt>
      <trkpt lat="44.51171" lon="1.93332">
        <ele>166.2</ele>
        <time>2023-08-20T08:11:02Z</time>
      </trkpt>
      <trkpt lat="44.51182" lon="1.93344">
        <ele>166.2</ele>
        <time>2023-08-20T08:11:03Z</time>
      </trkpt>
      <trkpt lat="44.51192" lon="1.93356">
        <ele>166</ele>
        <time>2023-08-20T08:11:04Z</time>
      </trkpt>
      <trkpt lat="44.51202" lon="1.93367">
        <ele>165.8</ele>
        <time>2023-08-20T08:11:05Z</time>
      </trkpt>
      <trkpt lat="44.51213" lon="1.93377">
        <ele>165.4</ele>
        <time>2023-08-20T08:11:06Z</time>
      </trkpt>
      <trkpt lat="44.51225" lon="1.93386">
        <ele>165.2</ele>
        <time>2023-08-20T08:11:07Z</time>
      </trkpt>
      <trkpt lat="44.51237" lon="1.93394">
        <ele>164.8</ele>
        <time>2023-08-20T08:11:08Z</time>
      </trkpt>
      <trkpt lat="44.51262" lon="1.93409">
        <ele>164.2</ele>
        <time>2023-08-20T08:11:10Z</time>
      </trkpt>
      <trkpt lat="44.51275" lon="1.93415">
        <ele>164.2</ele>
        <time>2023-08-20T08:11:11Z</time>
      </trkpt>
      <trkpt lat="44.51329" lon="1.93436">
        <ele>164</ele>
        <time>2023-08-20T08:11:15Z</time>
      </trkpt>
      <trkpt lat="44.51374" lon="1.9346">
        <ele>164.6</ele>
        <time>2023-08-20T08:11:18Z</time>
      </trkpt>
      <trkpt lat="44.51417" lon="1.93491">
        <ele>165.2</ele>
        <time>2023-08-20T08:11:21Z</time>
      </trkpt>
      <trkpt lat="44.51452" lon="1.93514">
        <ele>166</ele>
        <time>2023-08-20T08:11:23Z</time>
      </trkpt>
      <trkpt lat="44.51467" lon="1.93524">
        <ele>166.4</ele>
        <time>2023-08-20T08:11:24Z</time>
      </trkpt>
      <trkpt lat="44.51481" lon="1.93534">
        <ele>166.6</ele>
        <time>2023-08-20T08:11:25Z</time>
      </trkpt>
      <trkpt lat="44.51496" lon="1.93542">
        <ele>166.8</ele>
        <time>2023-08-20T08:11:26Z</time>
      </trkpt>
      <trkpt lat="44.51509" lon="1.93551">
        <ele>166.8</ele>
        <time>2023-08-20T08:11:27Z</time>
      </trkpt>
      <trkpt lat="44.51523" lon="1.9356">
        <ele>166.8</ele>
        <time>2023-08-20T08:11:28Z</time>
      </trkpt>
      <trkpt lat="44.51537" lon="1.93568">
        <ele>166.8</ele>
        <time>2023-08-20T08:11:29Z</time>
      </trkpt>
      <trkpt lat="44.5155" lon="1.93577">
        <ele>166.8</ele>
        <time>2023-08-20T08:11:30Z</time>
      </trkpt>
      <trkpt lat="44.51563" lon="1.93585">
        <ele>166.8</ele>
        <time>2023-08-20T08:11:31Z</time>
      </trkpt>
      <trkpt lat="44.51603" lon="1.93613">
        <ele>166.4</ele>
        <time>2023-08-20T08:11:34Z</time>
      </trkpt>
      <trkpt lat="44.51612" lon="1.93621">
        <ele>166.4</ele>
        <time>2023-08-20T08:11:35Z</time>
      </trkpt>
      <trkpt lat="44.51625" lon="1.93633">
        <ele>166.2</ele>
        <time>2023-08-20T08:11:36Z</time>
      </trkpt>
      <trkpt lat="44.51634" lon="1.9364">
        <ele>166</ele>
        <time>2023-08-20T08:11:37Z</time>
      </trkpt>
      <trkpt lat="44.51644" lon="1.93644">
        <ele>166</ele>
        <time>2023-08-20T08:11:38Z</time>
      </trkpt>
      <trkpt lat="44.51653" lon="1.93645">
        <ele>165.8</ele>
        <time>2023-08-20T08:11:39Z</time>
      </trkpt>
      <trkpt lat="44.51661" lon="1.93648">
        <ele>165.6</ele>
        <time>2023-08-20T08:11:40Z</time>
      </trkpt>
      <trkpt lat="44.51669" lon="1.93653">
        <ele>165.2</ele>
        <time>2023-08-20T08:11:41Z</time>
      </trkpt>
      <trkpt lat="44.51677" lon="1.93661">
        <ele>165</ele>
        <time>2023-08-20T08:11:42Z</time>
      </trkpt>
      <trkpt lat="44.51685" lon="1.93672">
        <ele>164.8</ele>
        <time>2023-08-20T08:11:43Z</time>
      </trkpt>
      <trkpt lat="44.51693" lon="1.93684">
        <ele>164.6</ele>
        <time>2023-08-20T08:11:44Z</time>
      </trkpt>
      <trkpt lat="44.51702" lon="1.93697">
        <ele>164.6</ele>
        <time>2023-08-20T08:11:45Z</time>
      </trkpt>
      <trkpt lat="44.51711" lon="1.93711">
        <ele>164.4</ele>
        <time>2023-08-20T08:11:46Z</time>
      </trkpt>
      <trkpt lat="44.51756" lon="1.93776">
        <ele>164.4</ele>
        <time>2023-08-20T08:11:50Z</time>
      </trkpt>
      <trkpt lat="44.51804" lon="1.93843">
        <ele>166</ele>
        <time>2023-08-20T08:11:54Z</time>
      </trkpt>
      <trkpt lat="44.51824" lon="1.93872">
        <ele>166.4</ele>
        <time>2023-08-20T08:11:56Z</time>
      </trkpt>
      <trkpt lat="44.51871" lon="1.9394">
        <ele>167.2</ele>
        <time>2023-08-20T08:12:00Z</time>
      </trkpt>
      <trkpt lat="44.51882" lon="1.93956">
        <ele>167.2</ele>
        <time>2023-08-20T08:12:01Z</time>
      </trkpt>
      <trkpt lat="44.51891" lon="1.93969">
        <ele>167.2</ele>
        <time>2023-08-20T08:12:02Z</time>
      </trkpt>
      <trkpt lat="44.51928" lon="1.9402">
        <ele>167.2</ele>
        <time>2023-08-20T08:12:05Z</time>
      </trkpt>
      <trkpt lat="44.51972" lon="1.9408">
        <ele>167.2</ele>
        <time>2023-08-20T08:12:09Z</time>
      </trkpt>
      <trkpt lat="44.51982" lon="1.94095">
        <ele>167.2</ele>
        <time>2023-08-20T08:12:10Z</time>
      </trkpt>
      <trkpt lat="44.51992" lon="1.94109">
        <ele>167.2</ele>
        <time>2023-08-20T08:12:11Z</time>
      </trkpt>
      <trkpt lat="44.52" lon="1.9412">
        <ele>167.2</ele>
        <time>2023-08-20T08:12:12Z</time>
      </trkpt>
      <trkpt lat="44.52012" lon="1.94136">
        <ele>167</ele>
        <time>2023-08-20T08:12:13Z</time>
      </trkpt>
      <trkpt lat="44.52022" lon="1.9415">
        <ele>167</ele>
        <time>2023-08-20T08:12:14Z</time>
      </trkpt>
      <trkpt lat="44.52054" lon="1.94194">
        <ele>167</ele>
        <time>2023-08-20T08:12:17Z</time>
      </trkpt>
      <trkpt lat="44.52098" lon="1.94253">
        <ele>166.8</ele>
        <time>2023-08-20T08:12:21Z</time>
      </trkpt>
      <trkpt lat="44.52121" lon="1.94283">
        <ele>166.8</ele>
        <time>2023-08-20T08:12:23Z</time>
      </trkpt>
      <trkpt lat="44.52132" lon="1.94297">
        <ele>166.8</ele>
        <time>2023-08-20T08:12:24Z</time>
      </trkpt>
      <trkpt lat="44.52175" lon="1.94358">
        <ele>166.8</ele>
        <time>2023-08-20T08:12:28Z</time>
      </trkpt>
      <trkpt lat="44.52195" lon="1.94391">
        <ele>166.8</ele>
        <time>2023-08-20T08:12:30Z</time>
      </trkpt>
      <trkpt lat="44.52231" lon="1.94462">
        <ele>167.2</ele>
        <time>2023-08-20T08:12:34Z</time>
      </trkpt>
      <trkpt lat="44.52238" lon="1.94481">
        <ele>167.4</ele>
        <time>2023-08-20T08:12:35Z</time>
      </trkpt>
      <trkpt lat="44.52265" lon="1.94559">
        <ele>167.6</ele>
        <time>2023-08-20T08:12:39Z</time>
      </trkpt>
      <trkpt lat="44.5227" lon="1.94578">
        <ele>167.4</ele>
        <time>2023-08-20T08:12:40Z</time>
      </trkpt>
      <trkpt lat="44.52275" lon="1.94598">
        <ele>167.4</ele>
        <time>2023-08-20T08:12:41Z</time>
      </trkpt>
      <trkpt lat="44.52279" lon="1.94613">
        <ele>167.4</ele>
        <time>2023-08-20T08:12:42Z</time>
      </trkpt>
      <trkpt lat="44.52284" lon="1.94632">
        <ele>167.2</ele>
        <time>2023-08-20T08:12:43Z</time>
      </trkpt>
      <trkpt lat="44.52289" lon="1.94654">
        <ele>167</ele>
        <time>2023-08-20T08:12:44Z</time>
      </trkpt>
      <trkpt lat="44.52294" lon="1.94674">
        <ele>166.8</ele>
        <time>2023-08-20T08:12:45Z</time>
      </trkpt>
      <trkpt lat="44.52298" lon="1.94694">
        <ele>166.6</ele>
        <time>2023-08-20T08:12:46Z</time>
      </trkpt>
      <trkpt lat="44.5232" lon="1.94775">
        <ele>166.2</ele>
        <time>2023-08-20T08:12:50Z</time>
      </trkpt>
      <trkpt lat="44.5233" lon="1.94816">
        <ele>166.2</ele>
        <time>2023-08-20T08:12:52Z</time>
      </trkpt>
      <trkpt lat="44.52347" lon="1.9489">
        <ele>166.8</ele>
        <time>2023-08-20T08:12:55Z</time>
      </trkpt>
      <trkpt lat="44.52357" lon="1.94929">
        <ele>167.6</ele>
        <time>2023-08-20T08:12:57Z</time>
      </trkpt>
      <trkpt lat="44.52364" lon="1.94955">
        <ele>167.6</ele>
        <time>2023-08-20T08:12:58Z</time>
      </trkpt>
      <trkpt lat="44.52369" lon="1.94972">
        <ele>167.8</ele>
        <time>2023-08-20T08:12:59Z</time>
      </trkpt>
      <trkpt lat="44.52375" lon="1.94997">
        <ele>167.8</ele>
        <time>2023-08-20T08:13:00Z</time>
      </trkpt>
      <trkpt lat="44.5238" lon="1.95016">
        <ele>167.8</ele>
        <time>2023-08-20T08:13:01Z</time>
      </trkpt>
      <trkpt lat="44.52385" lon="1.95036">
        <ele>167.8</ele>
        <time>2023-08-20T08:13:02Z</time>
      </trkpt>
      <trkpt lat="44.5239" lon="1.95057">
        <ele>167.8</ele>
        <time>2023-08-20T08:13:03Z</time>
      </trkpt>
      <trkpt lat="44.52395" lon="1.95074">
        <ele>167.8</ele>
        <time>2023-08-20T08:13:04Z</time>
      </trkpt>
      <trkpt lat="44.52417" lon="1.95158">
        <ele>167.8</ele>
        <time>2023-08-20T08:13:08Z</time>
      </trkpt>
      <trkpt lat="44.52429" lon="1.95204">
        <ele>167.4</ele>
        <time>2023-08-20T08:13:10Z</time>
      </trkpt>
      <trkpt lat="44.52435" lon="1.95224">
        <ele>167.4</ele>
        <time>2023-08-20T08:13:11Z</time>
      </trkpt>
      <trkpt lat="44.52441" lon="1.95243">
        <ele>167.4</ele>
        <time>2023-08-20T08:13:12Z</time>
      </trkpt>
      <trkpt lat="44.52447" lon="1.95261">
        <ele>167.4</ele>
        <time>2023-08-20T08:13:13Z</time>
      </trkpt>
      <trkpt lat="44.52452" lon="1.95275">
        <ele>167.2</ele>
        <time>2023-08-20T08:13:14Z</time>
      </trkpt>
      <trkpt lat="44.52458" lon="1.95291">
        <ele>167.2</ele>
        <time>2023-08-20T08:13:15Z</time>
      </trkpt>
      <trkpt lat="44.52465" lon="1.95307">
        <ele>167</ele>
        <time>2023-08-20T08:13:16Z</time>
      </trkpt>
      <trkpt lat="44.52475" lon="1.95326">
        <ele>166.8</ele>
        <time>2023-08-20T08:13:17Z</time>
      </trkpt>
      <trkpt lat="44.52481" lon="1.95337">
        <ele>166.6</ele>
        <time>2023-08-20T08:13:18Z</time>
      </trkpt>
      <trkpt lat="44.52491" lon="1.95356">
        <ele>166.6</ele>
        <time>2023-08-20T08:13:19Z</time>
      </trkpt>
      <trkpt lat="44.52508" lon="1.95388">
        <ele>166.4</ele>
        <time>2023-08-20T08:13:21Z</time>
      </trkpt>
      <trkpt lat="44.52541" lon="1.95454">
        <ele>166.6</ele>
        <time>2023-08-20T08:13:25Z</time>
      </trkpt>
      <trkpt lat="44.5255" lon="1.95471">
        <ele>166.6</ele>
        <time>2023-08-20T08:13:26Z</time>
      </trkpt>
      <trkpt lat="44.5258" lon="1.95545">
        <ele>167</ele>
        <time>2023-08-20T08:13:30Z</time>
      </trkpt>
      <trkpt lat="44.52608" lon="1.95625">
        <ele>167.4</ele>
        <time>2023-08-20T08:13:34Z</time>
      </trkpt>
      <trkpt lat="44.52635" lon="1.957">
        <ele>167.6</ele>
        <time>2023-08-20T08:13:38Z</time>
      </trkpt>
      <trkpt lat="44.52642" lon="1.9572">
        <ele>167.6</ele>
        <time>2023-08-20T08:13:39Z</time>
      </trkpt>
      <trkpt lat="44.52672" lon="1.95808">
        <ele>168.2</ele>
        <time>2023-08-20T08:13:43Z</time>
      </trkpt>
      <trkpt lat="44.52678" lon="1.95829">
        <ele>168.4</ele>
        <time>2023-08-20T08:13:44Z</time>
      </trkpt>
      <trkpt lat="44.52682" lon="1.95845">
        <ele>168.4</ele>
        <time>2023-08-20T08:13:45Z</time>
      </trkpt>
      <trkpt lat="44.52688" lon="1.9587">
        <ele>168.4</ele>
        <time>2023-08-20T08:13:46Z</time>
      </trkpt>
      <trkpt lat="44.52697" lon="1.95912">
        <ele>168.2</ele>
        <time>2023-08-20T08:13:48Z</time>
      </trkpt>
      <trkpt lat="44.5272" lon="1.95994">
        <ele>168</ele>
        <time>2023-08-20T08:13:52Z</time>
      </trkpt>
      <trkpt lat="44.52728" lon="1.96012">
        <ele>168</ele>
        <time>2023-08-20T08:13:53Z</time>
      </trkpt>
      <trkpt lat="44.52746" lon="1.96044">
        <ele>167.8</ele>
        <time>2023-08-20T08:13:55Z</time>
      </trkpt>
      <trkpt lat="44.52797" lon="1.96113">
        <ele>168.2</ele>
        <time>2023-08-20T08:13:59Z</time>
      </trkpt>
      <trkpt lat="44.52847" lon="1.96179">
        <ele>168.2</ele>
        <time>2023-08-20T08:14:03Z</time>
      </trkpt>
      <trkpt lat="44.52859" lon="1.96194">
        <ele>168.2</ele>
        <time>2023-08-20T08:14:04Z</time>
      </trkpt>
      <trkpt lat="44.5287" lon="1.96209">
        <ele>168.4</ele>
        <time>2023-08-20T08:14:05Z</time>
      </trkpt>
      <trkpt lat="44.52879" lon="1.9622">
        <ele>168.6</ele>
        <time>2023-08-20T08:14:06Z</time>
      </trkpt>
      <trkpt lat="44.52892" lon="1.96237">
        <ele>168.4</ele>
        <time>2023-08-20T08:14:07Z</time>
      </trkpt>
      <trkpt lat="44.52902" lon="1.96253">
        <ele>168.4</ele>
        <time>2023-08-20T08:14:08Z</time>
      </trkpt>
      <trkpt lat="44.52911" lon="1.9627">
        <ele>168.2</ele>
        <time>2023-08-20T08:14:09Z</time>
      </trkpt>
      <trkpt lat="44.52918" lon="1.96285">
        <ele>168.2</ele>
        <time>2023-08-20T08:14:10Z</time>
      </trkpt>
      <trkpt lat="44.52926" lon="1.96308">
        <ele>168.2</ele>
        <time>2023-08-20T08:14:11Z</time>
      </trkpt>
      <trkpt lat="44.52939" lon="1.96348">
        <ele>168.2</ele>
        <time>2023-08-20T08:14:13Z</time>
      </trkpt>
      <trkpt lat="44.52961" lon="1.96397">
        <ele>168.4</ele>
        <time>2023-08-20T08:14:16Z</time>
      </trkpt>
      <trkpt lat="44.53" lon="1.96445">
        <ele>168.4</ele>
        <time>2023-08-20T08:14:19Z</time>
      </trkpt>
      <trkpt lat="44.53051" lon="1.96499">
        <ele>168.8</ele>
        <time>2023-08-20T08:14:23Z</time>
      </trkpt>
      <trkpt lat="44.53079" lon="1.96523">
        <ele>168.8</ele>
        <time>2023-08-20T08:14:25Z</time>
      </trkpt>
      <trkpt lat="44.53142" lon="1.96565">
        <ele>169.4</ele>
        <time>2023-08-20T08:14:29Z</time>
      </trkpt>
      <trkpt lat="44.53207" lon="1.96605">
        <ele>169.8</ele>
        <time>2023-08-20T08:14:33Z</time>
      </trkpt>
      <trkpt lat="44.53256" lon="1.96634">
        <ele>170</ele>
        <time>2023-08-20T08:14:36Z</time>
      </trkpt>
      <trkpt lat="44.53286" lon="1.96652">
        <ele>170.2</ele>
        <time>2023-08-20T08:14:38Z</time>
      </trkpt>
      <trkpt lat="44.53301" lon="1.96661">
        <ele>170.2</ele>
        <time>2023-08-20T08:14:39Z</time>
      </trkpt>
      <trkpt lat="44.53316" lon="1.96671">
        <ele>170.2</ele>
        <time>2023-08-20T08:14:40Z</time>
      </trkpt>
      <trkpt lat="44.53328" lon="1.96678">
        <ele>170</ele>
        <time>2023-08-20T08:14:41Z</time>
      </trkpt>
      <trkpt lat="44.53345" lon="1.96688">
        <ele>170</ele>
        <time>2023-08-20T08:14:42Z</time>
      </trkpt>
      <trkpt lat="44.5336" lon="1.96697">
        <ele>169.8</ele>
        <time>2023-08-20T08:14:43Z</time>
      </trkpt>
      <trkpt lat="44.53418" lon="1.9673">
        <ele>169.6</ele>
        <time>2023-08-20T08:14:47Z</time>
      </trkpt>
      <trkpt lat="44.53436" lon="1.9674">
        <ele>169.6</ele>
        <time>2023-08-20T08:14:48Z</time>
      </trkpt>
      <trkpt lat="44.53499" lon="1.96783">
        <ele>169.6</ele>
        <time>2023-08-20T08:14:52Z</time>
      </trkpt>
      <trkpt lat="44.53526" lon="1.96813">
        <ele>169.8</ele>
        <time>2023-08-20T08:14:54Z</time>
      </trkpt>
      <trkpt lat="44.5354" lon="1.9683">
        <ele>169.8</ele>
        <time>2023-08-20T08:14:55Z</time>
      </trkpt>
      <trkpt lat="44.53592" lon="1.96897">
        <ele>170.2</ele>
        <time>2023-08-20T08:14:59Z</time>
      </trkpt>
      <trkpt lat="44.53606" lon="1.96911">
        <ele>170.4</ele>
        <time>2023-08-20T08:15:00Z</time>
      </trkpt>
      <trkpt lat="44.53638" lon="1.96931">
        <ele>170.6</ele>
        <time>2023-08-20T08:15:02Z</time>
      </trkpt>
      <trkpt lat="44.53692" lon="1.96945">
        <ele>170.8</ele>
        <time>2023-08-20T08:15:05Z</time>
      </trkpt>
      <trkpt lat="44.53742" lon="1.96953">
        <ele>171</ele>
        <time>2023-08-20T08:15:08Z</time>
      </trkpt>
      <trkpt lat="44.53756" lon="1.9696">
        <ele>171</ele>
        <time>2023-08-20T08:15:09Z</time>
      </trkpt>
      <trkpt lat="44.5377" lon="1.9697">
        <ele>170.8</ele>
        <time>2023-08-20T08:15:10Z</time>
      </trkpt>
      <trkpt lat="44.53782" lon="1.96982">
        <ele>170.4</ele>
        <time>2023-08-20T08:15:11Z</time>
      </trkpt>
      <trkpt lat="44.5379" lon="1.96993">
        <ele>170.4</ele>
        <time>2023-08-20T08:15:12Z</time>
      </trkpt>
      <trkpt lat="44.538" lon="1.97011">
        <ele>169.8</ele>
        <time>2023-08-20T08:15:13Z</time>
      </trkpt>
      <trkpt lat="44.53806" lon="1.97026">
        <ele>169.6</ele>
        <time>2023-08-20T08:15:14Z</time>
      </trkpt>
      <trkpt lat="44.53811" lon="1.97039">
        <ele>169.4</ele>
        <time>2023-08-20T08:15:15Z</time>
      </trkpt>
      <trkpt lat="44.53817" lon="1.97054">
        <ele>169</ele>
        <time>2023-08-20T08:15:16Z</time>
      </trkpt>
      <trkpt lat="44.53823" lon="1.97072">
        <ele>169</ele>
        <time>2023-08-20T08:15:17Z</time>
      </trkpt>
      <trkpt lat="44.53828" lon="1.97086">
        <ele>168.6</ele>
        <time>2023-08-20T08:15:18Z</time>
      </trkpt>
      <trkpt lat="44.53833" lon="1.97099">
        <ele>168.4</ele>
        <time>2023-08-20T08:15:19Z</time>
      </trkpt>
      <trkpt lat="44.53837" lon="1.97112">
        <ele>168.2</ele>
        <time>2023-08-20T08:15:20Z</time>
      </trkpt>
      <trkpt lat="44.53841" lon="1.97123">
        <ele>168</ele>
        <time>2023-08-20T08:15:21Z</time>
      </trkpt>
      <trkpt lat="44.53844" lon="1.97131">
        <ele>167.8</ele>
        <time>2023-08-20T08:15:22Z</time>
      </trkpt>
      <trkpt lat="44.53848" lon="1.97141">
        <ele>167.6</ele>
        <time>2023-08-20T08:15:23Z</time>
      </trkpt>
      <trkpt lat="44.53851" lon="1.97149">
        <ele>167.2</ele>
        <time>2023-08-20T08:15:24Z</time>
      </trkpt>
      <trkpt lat="44.53854" lon="1.97158">
        <ele>166.8</ele>
        <time>2023-08-20T08:15:25Z</time>
      </trkpt>
      <trkpt lat="44.53857" lon="1.97167">
        <ele>166.6</ele>
        <time>2023-08-20T08:15:26Z</time>
      </trkpt>
      <trkpt lat="44.5386" lon="1.97176">
        <ele>166.2</ele>
        <time>2023-08-20T08:15:27Z</time>
      </trkpt>
      <trkpt lat="44.53863" lon="1.97185">
        <ele>166</ele>
        <time>2023-08-20T08:15:28Z</time>
      </trkpt>
      <trkpt lat="44.53881" lon="1.97229">
        <ele>165</ele>
        <time>2023-08-20T08:15:32Z</time>
      </trkpt>
      <trkpt lat="44.53903" lon="1.9729">
        <ele>165</ele>
        <time>2023-08-20T08:15:36Z</time>
      </trkpt>
      <trkpt lat="44.53926" lon="1.97348">
        <ele>165.6</ele>
        <time>2023-08-20T08:15:39Z</time>
      </trkpt>
      <trkpt lat="44.5396" lon="1.97434">
        <ele>168.2</ele>
        <time>2023-08-20T08:15:43Z</time>
      </trkpt>
      <trkpt lat="44.53983" lon="1.97498">
        <ele>169.2</ele>
        <time>2023-08-20T08:15:46Z</time>
      </trkpt>
      <trkpt lat="44.53998" lon="1.97538">
        <ele>169.4</ele>
        <time>2023-08-20T08:15:48Z</time>
      </trkpt>
      <trkpt lat="44.54005" lon="1.97558">
        <ele>169.6</ele>
        <time>2023-08-20T08:15:49Z</time>
      </trkpt>
      <trkpt lat="44.54012" lon="1.97578">
        <ele>169.6</ele>
        <time>2023-08-20T08:15:50Z</time>
      </trkpt>
      <trkpt lat="44.54037" lon="1.97637">
        <ele>169.6</ele>
        <time>2023-08-20T08:15:53Z</time>
      </trkpt>
      <trkpt lat="44.54046" lon="1.97656">
        <ele>169.6</ele>
        <time>2023-08-20T08:15:54Z</time>
      </trkpt>
      <trkpt lat="44.54057" lon="1.97674">
        <ele>169.6</ele>
        <time>2023-08-20T08:15:55Z</time>
      </trkpt>
      <trkpt lat="44.54067" lon="1.97691">
        <ele>169.6</ele>
        <time>2023-08-20T08:15:56Z</time>
      </trkpt>
      <trkpt lat="44.54077" lon="1.97708">
        <ele>169.6</ele>
        <time>2023-08-20T08:15:57Z</time>
      </trkpt>
      <trkpt lat="44.54087" lon="1.97726">
        <ele>169.6</ele>
        <time>2023-08-20T08:15:58Z</time>
      </trkpt>
      <trkpt lat="44.54097" lon="1.97744">
        <ele>169.6</ele>
        <time>2023-08-20T08:15:59Z</time>
      </trkpt>
      <trkpt lat="44.54107" lon="1.97762">
        <ele>169.6</ele>
        <time>2023-08-20T08:16:00Z</time>
      </trkpt>
      <trkpt lat="44.5412" lon="1.97783">
        <ele>169.6</ele>
        <time>2023-08-20T08:16:01Z</time>
      </trkpt>
      <trkpt lat="44.54129" lon="1.97798">
        <ele>169.6</ele>
        <time>2023-08-20T08:16:02Z</time>
      </trkpt>
      <trkpt lat="44.54141" lon="1.97816">
        <ele>169.6</ele>
        <time>2023-08-20T08:16:03Z</time>
      </trkpt>
      <trkpt lat="44.54153" lon="1.97834">
        <ele>169.6</ele>
        <time>2023-08-20T08:16:04Z</time>
      </trkpt>
      <trkpt lat="44.54166" lon="1.97851">
        <ele>169.6</ele>
        <time>2023-08-20T08:16:05Z</time>
      </trkpt>
      <trkpt lat="44.5421" lon="1.97898">
        <ele>170</ele>
        <time>2023-08-20T08:16:08Z</time>
      </trkpt>
      <trkpt lat="44.54241" lon="1.97925">
        <ele>170.4</ele>
        <time>2023-08-20T08:16:10Z</time>
      </trkpt>
      <trkpt lat="44.54289" lon="1.97966">
        <ele>170.8</ele>
        <time>2023-08-20T08:16:13Z</time>
      </trkpt>
      <trkpt lat="44.54304" lon="1.97979">
        <ele>170.8</ele>
        <time>2023-08-20T08:16:14Z</time>
      </trkpt>
      <trkpt lat="44.54333" lon="1.98004">
        <ele>170.8</ele>
        <time>2023-08-20T08:16:16Z</time>
      </trkpt>
      <trkpt lat="44.54348" lon="1.98015">
        <ele>170.6</ele>
        <time>2023-08-20T08:16:17Z</time>
      </trkpt>
      <trkpt lat="44.54362" lon="1.98025">
        <ele>170.6</ele>
        <time>2023-08-20T08:16:18Z</time>
      </trkpt>
      <trkpt lat="44.54376" lon="1.98034">
        <ele>170.6</ele>
        <time>2023-08-20T08:16:19Z</time>
      </trkpt>
      <trkpt lat="44.54391" lon="1.98043">
        <ele>170.6</ele>
        <time>2023-08-20T08:16:20Z</time>
      </trkpt>
      <trkpt lat="44.54406" lon="1.9805">
        <ele>170.8</ele>
        <time>2023-08-20T08:16:21Z</time>
      </trkpt>
      <trkpt lat="44.54421" lon="1.98057">
        <ele>171</ele>
        <time>2023-08-20T08:16:22Z</time>
      </trkpt>
      <trkpt lat="44.54449" lon="1.98069">
        <ele>171</ele>
        <time>2023-08-20T08:16:24Z</time>
      </trkpt>
      <trkpt lat="44.54463" lon="1.98072">
        <ele>171</ele>
        <time>2023-08-20T08:16:25Z</time>
      </trkpt>
      <trkpt lat="44.54477" lon="1.98072">
        <ele>171.2</ele>
        <time>2023-08-20T08:16:26Z</time>
      </trkpt>
      <trkpt lat="44.54489" lon="1.98069">
        <ele>171.4</ele>
        <time>2023-08-20T08:16:27Z</time>
      </trkpt>
      <trkpt lat="44.54502" lon="1.98064">
        <ele>171.8</ele>
        <time>2023-08-20T08:16:28Z</time>
      </trkpt>
      <trkpt lat="44.54516" lon="1.98056">
        <ele>172.2</ele>
        <time>2023-08-20T08:16:29Z</time>
      </trkpt>
      <trkpt lat="44.54524" lon="1.98045">
        <ele>172.6</ele>
        <time>2023-08-20T08:16:30Z</time>
      </trkpt>
      <trkpt lat="44.54532" lon="1.98029">
        <ele>173</ele>
        <time>2023-08-20T08:16:31Z</time>
      </trkpt>
      <trkpt lat="44.5454" lon="1.98012">
        <ele>173</ele>
        <time>2023-08-20T08:16:32Z</time>
      </trkpt>
      <trkpt lat="44.54547" lon="1.97994">
        <ele>173.4</ele>
        <time>2023-08-20T08:16:33Z</time>
      </trkpt>
      <trkpt lat="44.54556" lon="1.97973">
        <ele>173.6</ele>
        <time>2023-08-20T08:16:34Z</time>
      </trkpt>
      <trkpt lat="44.54563" lon="1.9796">
        <ele>174.2</ele>
        <time>2023-08-20T08:16:35Z</time>
      </trkpt>
      <trkpt lat="44.54573" lon="1.97948">
        <ele>174.4</ele>
        <time>2023-08-20T08:16:36Z</time>
      </trkpt>
      <trkpt lat="44.54583" lon="1.97939">
        <ele>175.2</ele>
        <time>2023-08-20T08:16:37Z</time>
      </trkpt>
      <trkpt lat="44.54594" lon="1.97935">
        <ele>175.8</ele>
        <time>2023-08-20T08:16:38Z</time>
      </trkpt>
      <trkpt lat="44.54608" lon="1.97941">
        <ele>176</ele>
        <time>2023-08-20T08:16:39Z</time>
      </trkpt>
      <trkpt lat="44.54618" lon="1.97949">
        <ele>176.2</ele>
        <time>2023-08-20T08:16:40Z</time>
      </trkpt>
      <trkpt lat="44.5463" lon="1.97961">
        <ele>176.4</ele>
        <time>2023-08-20T08:16:41Z</time>
      </trkpt>
      <trkpt lat="44.54642" lon="1.97972">
        <ele>176.6</ele>
        <time>2023-08-20T08:16:42Z</time>
      </trkpt>
      <trkpt lat="44.54655" lon="1.97983">
        <ele>177</ele>
        <time>2023-08-20T08:16:43Z</time>
      </trkpt>
      <trkpt lat="44.54667" lon="1.97994">
        <ele>177.6</ele>
        <time>2023-08-20T08:16:44Z</time>
      </trkpt>
      <trkpt lat="44.54678" lon="1.98005">
        <ele>178.4</ele>
        <time>2023-08-20T08:16:45Z</time>
      </trkpt>
      <trkpt lat="44.54688" lon="1.98016">
        <ele>178.6</ele>
        <time>2023-08-20T08:16:46Z</time>
      </trkpt>
      <trkpt lat="44.54696" lon="1.98028">
        <ele>179.8</ele>
        <time>2023-08-20T08:16:47Z</time>
      </trkpt>
      <trkpt lat="44.54702" lon="1.98041">
        <ele>180.2</ele>
        <time>2023-08-20T08:16:48Z</time>
      </trkpt>
      <trkpt lat="44.54703" lon="1.98057">
        <ele>181.2</ele>
        <time>2023-08-20T08:16:49Z</time>
      </trkpt>
      <trkpt lat="44.54699" lon="1.98074">
        <ele>182</ele>
        <time>2023-08-20T08:16:50Z</time>
      </trkpt>
      <trkpt lat="44.54693" lon="1.98091">
        <ele>182.4</ele>
        <time>2023-08-20T08:16:51Z</time>
      </trkpt>
      <trkpt lat="44.54685" lon="1.98106">
        <ele>182.8</ele>
        <time>2023-08-20T08:16:52Z</time>
      </trkpt>
      <trkpt lat="44.54677" lon="1.98122">
        <ele>183.2</ele>
        <time>2023-08-20T08:16:53Z</time>
      </trkpt>
      <trkpt lat="44.54672" lon="1.98138">
        <ele>184</ele>
        <time>2023-08-20T08:16:54Z</time>
      </trkpt>
      <trkpt lat="44.54671" lon="1.98153">
        <ele>184.2</ele>
        <time>2023-08-20T08:16:55Z</time>
      </trkpt>
      <trkpt lat="44.54674" lon="1.9817">
        <ele>185</ele>
        <time>2023-08-20T08:16:56Z</time>
      </trkpt>
      <trkpt lat="44.54681" lon="1.98185">
        <ele>185.4</ele>
        <time>2023-08-20T08:16:57Z</time>
      </trkpt>
      <trkpt lat="44.54693" lon="1.98201">
        <ele>186</ele>
        <time>2023-08-20T08:16:58Z</time>
      </trkpt>
      <trkpt lat="44.54702" lon="1.98213">
        <ele>186.2</ele>
        <time>2023-08-20T08:16:59Z</time>
      </trkpt>
      <trkpt lat="44.54713" lon="1.98229">
        <ele>186.6</ele>
        <time>2023-08-20T08:17:00Z</time>
      </trkpt>
      <trkpt lat="44.54725" lon="1.98245">
        <ele>187</ele>
        <time>2023-08-20T08:17:01Z</time>
      </trkpt>
      <trkpt lat="44.54737" lon="1.98258">
        <ele>188.2</ele>
        <time>2023-08-20T08:17:02Z</time>
      </trkpt>
      <trkpt lat="44.5475" lon="1.98269">
        <ele>189</ele>
        <time>2023-08-20T08:17:03Z</time>
      </trkpt>
      <trkpt lat="44.54763" lon="1.98279">
        <ele>189.4</ele>
        <time>2023-08-20T08:17:04Z</time>
      </trkpt>
      <trkpt lat="44.54776" lon="1.98288">
        <ele>190.4</ele>
        <time>2023-08-20T08:17:05Z</time>
      </trkpt>
      <trkpt lat="44.54788" lon="1.98296">
        <ele>191.4</ele>
        <time>2023-08-20T08:17:06Z</time>
      </trkpt>
      <trkpt lat="44.54801" lon="1.98302">
        <ele>192.4</ele>
        <time>2023-08-20T08:17:07Z</time>
      </trkpt>
      <trkpt lat="44.54814" lon="1.98307">
        <ele>192.8</ele>
        <time>2023-08-20T08:17:08Z</time>
      </trkpt>
      <trkpt lat="44.54828" lon="1.98312">
        <ele>193.6</ele>
        <time>2023-08-20T08:17:09Z</time>
      </trkpt>
      <trkpt lat="44.54842" lon="1.98317">
        <ele>194</ele>
        <time>2023-08-20T08:17:10Z</time>
      </trkpt>
      <trkpt lat="44.54856" lon="1.98322">
        <ele>194.2</ele>
        <time>2023-08-20T08:17:11Z</time>
      </trkpt>
      <trkpt lat="44.5487" lon="1.98327">
        <ele>195</ele>
        <time>2023-08-20T08:17:12Z</time>
      </trkpt>
      <trkpt lat="44.54884" lon="1.98332">
        <ele>195.4</ele>
        <time>2023-08-20T08:17:13Z</time>
      </trkpt>
      <trkpt lat="44.54897" lon="1.98339">
        <ele>196</ele>
        <time>2023-08-20T08:17:14Z</time>
      </trkpt>
      <trkpt lat="44.54909" lon="1.98347">
        <ele>196.4</ele>
        <time>2023-08-20T08:17:15Z</time>
      </trkpt>
      <trkpt lat="44.54919" lon="1.98357">
        <ele>197</ele>
        <time>2023-08-20T08:17:16Z</time>
      </trkpt>
      <trkpt lat="44.54928" lon="1.9837">
        <ele>197.2</ele>
        <time>2023-08-20T08:17:17Z</time>
      </trkpt>
      <trkpt lat="44.54935" lon="1.98384">
        <ele>197.6</ele>
        <time>2023-08-20T08:17:18Z</time>
      </trkpt>
      <trkpt lat="44.54943" lon="1.98399">
        <ele>198</ele>
        <time>2023-08-20T08:17:19Z</time>
      </trkpt>
      <trkpt lat="44.54952" lon="1.98412">
        <ele>198</ele>
        <time>2023-08-20T08:17:20Z</time>
      </trkpt>
      <trkpt lat="44.54962" lon="1.98424">
        <ele>198.2</ele>
        <time>2023-08-20T08:17:21Z</time>
      </trkpt>
      <trkpt lat="44.54973" lon="1.98435">
        <ele>198.6</ele>
        <time>2023-08-20T08:17:22Z</time>
      </trkpt>
      <trkpt lat="44.54986" lon="1.98445">
        <ele>199.2</ele>
        <time>2023-08-20T08:17:23Z</time>
      </trkpt>
      <trkpt lat="44.55" lon="1.98456">
        <ele>199.4</ele>
        <time>2023-08-20T08:17:24Z</time>
      </trkpt>
      <trkpt lat="44.55014" lon="1.98467">
        <ele>200.4</ele>
        <time>2023-08-20T08:17:25Z</time>
      </trkpt>
      <trkpt lat="44.55028" lon="1.98478">
        <ele>201</ele>
        <time>2023-08-20T08:17:26Z</time>
      </trkpt>
      <trkpt lat="44.55042" lon="1.98488">
        <ele>202</ele>
        <time>2023-08-20T08:17:27Z</time>
      </trkpt>
      <trkpt lat="44.55057" lon="1.98496">
        <ele>203.2</ele>
        <time>2023-08-20T08:17:28Z</time>
      </trkpt>
      <trkpt lat="44.55073" lon="1.98504">
        <ele>203.6</ele>
        <time>2023-08-20T08:17:29Z</time>
      </trkpt>
      <trkpt lat="44.55089" lon="1.98511">
        <ele>204.6</ele>
        <time>2023-08-20T08:17:30Z</time>
      </trkpt>
      <trkpt lat="44.55103" lon="1.98518">
        <ele>205.2</ele>
        <time>2023-08-20T08:17:31Z</time>
      </trkpt>
      <trkpt lat="44.55118" lon="1.98523">
        <ele>206.4</ele>
        <time>2023-08-20T08:17:32Z</time>
      </trkpt>
      <trkpt lat="44.55132" lon="1.9853">
        <ele>207</ele>
        <time>2023-08-20T08:17:33Z</time>
      </trkpt>
      <trkpt lat="44.55146" lon="1.98538">
        <ele>207.8</ele>
        <time>2023-08-20T08:17:34Z</time>
      </trkpt>
      <trkpt lat="44.5516" lon="1.98549">
        <ele>208.4</ele>
        <time>2023-08-20T08:17:35Z</time>
      </trkpt>
      <trkpt lat="44.55176" lon="1.98562">
        <ele>208.6</ele>
        <time>2023-08-20T08:17:36Z</time>
      </trkpt>
      <trkpt lat="44.55189" lon="1.98572">
        <ele>209.4</ele>
        <time>2023-08-20T08:17:37Z</time>
      </trkpt>
      <trkpt lat="44.55201" lon="1.98582">
        <ele>209.6</ele>
        <time>2023-08-20T08:17:38Z</time>
      </trkpt>
      <trkpt lat="44.55215" lon="1.98591">
        <ele>210.4</ele>
        <time>2023-08-20T08:17:39Z</time>
      </trkpt>
      <trkpt lat="44.55229" lon="1.98599">
        <ele>210.8</ele>
        <time>2023-08-20T08:17:40Z</time>
      </trkpt>
      <trkpt lat="44.55243" lon="1.98606">
        <ele>211.4</ele>
        <time>2023-08-20T08:17:41Z</time>
      </trkpt>
      <trkpt lat="44.55257" lon="1.98613">
        <ele>211.8</ele>
        <time>2023-08-20T08:17:42Z</time>
      </trkpt>
      <trkpt lat="44.55268" lon="1.98617">
        <ele>212.4</ele>
        <time>2023-08-20T08:17:43Z</time>
      </trkpt>
      <trkpt lat="44.55286" lon="1.98622">
        <ele>213</ele>
        <time>2023-08-20T08:17:44Z</time>
      </trkpt>
      <trkpt lat="44.55301" lon="1.98625">
        <ele>213.4</ele>
        <time>2023-08-20T08:17:45Z</time>
      </trkpt>
      <trkpt lat="44.55316" lon="1.98626">
        <ele>214</ele>
        <time>2023-08-20T08:17:46Z</time>
      </trkpt>
      <trkpt lat="44.55332" lon="1.98627">
        <ele>214.2</ele>
        <time>2023-08-20T08:17:47Z</time>
      </trkpt>
      <trkpt lat="44.55347" lon="1.98628">
        <ele>215.2</ele>
        <time>2023-08-20T08:17:48Z</time>
      </trkpt>
      <trkpt lat="44.55363" lon="1.98629">
        <ele>215.6</ele>
        <time>2023-08-20T08:17:49Z</time>
      </trkpt>
      <trkpt lat="44.5538" lon="1.98628">
        <ele>216.2</ele>
        <time>2023-08-20T08:17:50Z</time>
      </trkpt>
      <trkpt lat="44.55393" lon="1.98625">
        <ele>217.2</ele>
        <time>2023-08-20T08:17:51Z</time>
      </trkpt>
      <trkpt lat="44.5541" lon="1.98619">
        <ele>217.4</ele>
        <time>2023-08-20T08:17:52Z</time>
      </trkpt>
      <trkpt lat="44.55426" lon="1.98612">
        <ele>218.2</ele>
        <time>2023-08-20T08:17:53Z</time>
      </trkpt>
      <trkpt lat="44.55447" lon="1.98605">
        <ele>218.8</ele>
        <time>2023-08-20T08:17:54Z</time>
      </trkpt>
      <trkpt lat="44.55461" lon="1.98602">
        <ele>220</ele>
        <time>2023-08-20T08:17:55Z</time>
      </trkpt>
      <trkpt lat="44.55479" lon="1.986">
        <ele>220.6</ele>
        <time>2023-08-20T08:17:56Z</time>
      </trkpt>
      <trkpt lat="44.55496" lon="1.98601">
        <ele>221.8</ele>
        <time>2023-08-20T08:17:57Z</time>
      </trkpt>
      <trkpt lat="44.55514" lon="1.98603">
        <ele>222.4</ele>
        <time>2023-08-20T08:17:58Z</time>
      </trkpt>
      <trkpt lat="44.55532" lon="1.98604">
        <ele>223.2</ele>
        <time>2023-08-20T08:17:59Z</time>
      </trkpt>
      <trkpt lat="44.55553" lon="1.98605">
        <ele>224</ele>
        <time>2023-08-20T08:18:00Z</time>
      </trkpt>
      <trkpt lat="44.55567" lon="1.98604">
        <ele>224.4</ele>
        <time>2023-08-20T08:18:01Z</time>
      </trkpt>
      <trkpt lat="44.55583" lon="1.98603">
        <ele>225.4</ele>
        <time>2023-08-20T08:18:02Z</time>
      </trkpt>
      <trkpt lat="44.55599" lon="1.98601">
        <ele>225.8</ele>
        <time>2023-08-20T08:18:03Z</time>
      </trkpt>
      <trkpt lat="44.55617" lon="1.98598">
        <ele>226.6</ele>
        <time>2023-08-20T08:18:04Z</time>
      </trkpt>
      <trkpt lat="44.55633" lon="1.98594">
        <ele>226.8</ele>
        <time>2023-08-20T08:18:05Z</time>
      </trkpt>
      <trkpt lat="44.55648" lon="1.98591">
        <ele>227.4</ele>
        <time>2023-08-20T08:18:06Z</time>
      </trkpt>
      <trkpt lat="44.55661" lon="1.98586">
        <ele>227.8</ele>
        <time>2023-08-20T08:18:07Z</time>
      </trkpt>
      <trkpt lat="44.55674" lon="1.9858">
        <ele>228</ele>
        <time>2023-08-20T08:18:08Z</time>
      </trkpt>
      <trkpt lat="44.55684" lon="1.9857">
        <ele>228.4</ele>
        <time>2023-08-20T08:18:09Z</time>
      </trkpt>
      <trkpt lat="44.55692" lon="1.98558">
        <ele>228.6</ele>
        <time>2023-08-20T08:18:10Z</time>
      </trkpt>
      <trkpt lat="44.55698" lon="1.98543">
        <ele>229</ele>
        <time>2023-08-20T08:18:11Z</time>
      </trkpt>
      <trkpt lat="44.55703" lon="1.98527">
        <ele>229.2</ele>
        <time>2023-08-20T08:18:12Z</time>
      </trkpt>
      <trkpt lat="44.55706" lon="1.98508">
        <ele>229.6</ele>
        <time>2023-08-20T08:18:13Z</time>
      </trkpt>
      <trkpt lat="44.55709" lon="1.98488">
        <ele>229.8</ele>
        <time>2023-08-20T08:18:14Z</time>
      </trkpt>
      <trkpt lat="44.5571" lon="1.98467">
        <ele>230.4</ele>
        <time>2023-08-20T08:18:15Z</time>
      </trkpt>
      <trkpt lat="44.55711" lon="1.98445">
        <ele>231</ele>
        <time>2023-08-20T08:18:16Z</time>
      </trkpt>
      <trkpt lat="44.55713" lon="1.98423">
        <ele>231.4</ele>
        <time>2023-08-20T08:18:17Z</time>
      </trkpt>
      <trkpt lat="44.55714" lon="1.98403">
        <ele>231.8</ele>
        <time>2023-08-20T08:18:18Z</time>
      </trkpt>
      <trkpt lat="44.55717" lon="1.98383">
        <ele>232</ele>
        <time>2023-08-20T08:18:19Z</time>
      </trkpt>
      <trkpt lat="44.55722" lon="1.98366">
        <ele>232.6</ele>
        <time>2023-08-20T08:18:20Z</time>
      </trkpt>
      <trkpt lat="44.55729" lon="1.98351">
        <ele>232.8</ele>
        <time>2023-08-20T08:18:21Z</time>
      </trkpt>
      <trkpt lat="44.55738" lon="1.98337">
        <ele>233.6</ele>
        <time>2023-08-20T08:18:22Z</time>
      </trkpt>
      <trkpt lat="44.55748" lon="1.98325">
        <ele>234.2</ele>
        <time>2023-08-20T08:18:23Z</time>
      </trkpt>
      <trkpt lat="44.55757" lon="1.98318">
        <ele>235</ele>
        <time>2023-08-20T08:18:24Z</time>
      </trkpt>
      <trkpt lat="44.55767" lon="1.98311">
        <ele>235.8</ele>
        <time>2023-08-20T08:18:25Z</time>
      </trkpt>
      <trkpt lat="44.5578" lon="1.98307">
        <ele>236.2</ele>
        <time>2023-08-20T08:18:26Z</time>
      </trkpt>
      <trkpt lat="44.55791" lon="1.9831">
        <ele>237.2</ele>
        <time>2023-08-20T08:18:27Z</time>
      </trkpt>
      <trkpt lat="44.55803" lon="1.98316">
        <ele>237.4</ele>
        <time>2023-08-20T08:18:28Z</time>
      </trkpt>
      <trkpt lat="44.55812" lon="1.98323">
        <ele>237.8</ele>
        <time>2023-08-20T08:18:29Z</time>
      </trkpt>
      <trkpt lat="44.55823" lon="1.98332">
        <ele>238</ele>
        <time>2023-08-20T08:18:30Z</time>
      </trkpt>
      <trkpt lat="44.55835" lon="1.98338">
        <ele>238.4</ele>
        <time>2023-08-20T08:18:31Z</time>
      </trkpt>
      <trkpt lat="44.55846" lon="1.98341">
        <ele>238.8</ele>
        <time>2023-08-20T08:18:32Z</time>
      </trkpt>
      <trkpt lat="44.55856" lon="1.98337">
        <ele>239.2</ele>
        <time>2023-08-20T08:18:33Z</time>
      </trkpt>
      <trkpt lat="44.55865" lon="1.98327">
        <ele>240.2</ele>
        <time>2023-08-20T08:18:34Z</time>
      </trkpt>
      <trkpt lat="44.55873" lon="1.9831">
        <ele>240.6</ele>
        <time>2023-08-20T08:18:35Z</time>
      </trkpt>
      <trkpt lat="44.5588" lon="1.98291">
        <ele>241.2</ele>
        <time>2023-08-20T08:18:36Z</time>
      </trkpt>
      <trkpt lat="44.55885" lon="1.98274">
        <ele>241.6</ele>
        <time>2023-08-20T08:18:37Z</time>
      </trkpt>
      <trkpt lat="44.55891" lon="1.98254">
        <ele>242</ele>
        <time>2023-08-20T08:18:38Z</time>
      </trkpt>
      <trkpt lat="44.55897" lon="1.98234">
        <ele>242.8</ele>
        <time>2023-08-20T08:18:39Z</time>
      </trkpt>
      <trkpt lat="44.55903" lon="1.98215">
        <ele>243.8</ele>
        <time>2023-08-20T08:18:40Z</time>
      </trkpt>
      <trkpt lat="44.55908" lon="1.98196">
        <ele>245</ele>
        <time>2023-08-20T08:18:41Z</time>
      </trkpt>
      <trkpt lat="44.55912" lon="1.98177">
        <ele>245.4</ele>
        <time>2023-08-20T08:18:42Z</time>
      </trkpt>
      <trkpt lat="44.55915" lon="1.98159">
        <ele>246</ele>
        <time>2023-08-20T08:18:43Z</time>
      </trkpt>
      <trkpt lat="44.5592" lon="1.98143">
        <ele>246.4</ele>
        <time>2023-08-20T08:18:44Z</time>
      </trkpt>
      <trkpt lat="44.55924" lon="1.98127">
        <ele>246.8</ele>
        <time>2023-08-20T08:18:45Z</time>
      </trkpt>
      <trkpt lat="44.55928" lon="1.98112">
        <ele>247.2</ele>
        <time>2023-08-20T08:18:46Z</time>
      </trkpt>
      <trkpt lat="44.55933" lon="1.98097">
        <ele>247.6</ele>
        <time>2023-08-20T08:18:47Z</time>
      </trkpt>
      <trkpt lat="44.55939" lon="1.98082">
        <ele>248.4</ele>
        <time>2023-08-20T08:18:48Z</time>
      </trkpt>
      <trkpt lat="44.55946" lon="1.9807">
        <ele>248.6</ele>
        <time>2023-08-20T08:18:49Z</time>
      </trkpt>
      <trkpt lat="44.55954" lon="1.9806">
        <ele>249</ele>
        <time>2023-08-20T08:18:50Z</time>
      </trkpt>
      <trkpt lat="44.55964" lon="1.98054">
        <ele>249.2</ele>
        <time>2023-08-20T08:18:51Z</time>
      </trkpt>
      <trkpt lat="44.55975" lon="1.98055">
        <ele>249.6</ele>
        <time>2023-08-20T08:18:52Z</time>
      </trkpt>
      <trkpt lat="44.55985" lon="1.98057">
        <ele>249.8</ele>
        <time>2023-08-20T08:18:53Z</time>
      </trkpt>
      <trkpt lat="44.55997" lon="1.98062">
        <ele>250.2</ele>
        <time>2023-08-20T08:18:54Z</time>
      </trkpt>
      <trkpt lat="44.56008" lon="1.98067">
        <ele>250.4</ele>
        <time>2023-08-20T08:18:55Z</time>
      </trkpt>
      <trkpt lat="44.56024" lon="1.98074">
        <ele>250.6</ele>
        <time>2023-08-20T08:18:56Z</time>
      </trkpt>
      <trkpt lat="44.56034" lon="1.98079">
        <ele>251</ele>
        <time>2023-08-20T08:18:57Z</time>
      </trkpt>
      <trkpt lat="44.56047" lon="1.98086">
        <ele>251.6</ele>
        <time>2023-08-20T08:18:58Z</time>
      </trkpt>
      <trkpt lat="44.56061" lon="1.98092">
        <ele>252.2</ele>
        <time>2023-08-20T08:18:59Z</time>
      </trkpt>
      <trkpt lat="44.56075" lon="1.98097">
        <ele>252.4</ele>
        <time>2023-08-20T08:19:00Z</time>
      </trkpt>
      <trkpt lat="44.56089" lon="1.98099">
        <ele>253.2</ele>
        <time>2023-08-20T08:19:01Z</time>
      </trkpt>
      <trkpt lat="44.56102" lon="1.98097">
        <ele>253.6</ele>
        <time>2023-08-20T08:19:02Z</time>
      </trkpt>
      <trkpt lat="44.56115" lon="1.98092">
        <ele>254.6</ele>
        <time>2023-08-20T08:19:03Z</time>
      </trkpt>
      <trkpt lat="44.56128" lon="1.98082">
        <ele>255.2</ele>
        <time>2023-08-20T08:19:04Z</time>
      </trkpt>
      <trkpt lat="44.56139" lon="1.98068">
        <ele>255.8</ele>
        <time>2023-08-20T08:19:05Z</time>
      </trkpt>
      <trkpt lat="44.56151" lon="1.98053">
        <ele>256.6</ele>
        <time>2023-08-20T08:19:06Z</time>
      </trkpt>
      <trkpt lat="44.56161" lon="1.98039">
        <ele>257.2</ele>
        <time>2023-08-20T08:19:07Z</time>
      </trkpt>
      <trkpt lat="44.56172" lon="1.98025">
        <ele>257.8</ele>
        <time>2023-08-20T08:19:08Z</time>
      </trkpt>
      <trkpt lat="44.56184" lon="1.98013">
        <ele>258.2</ele>
        <time>2023-08-20T08:19:09Z</time>
      </trkpt>
      <trkpt lat="44.56196" lon="1.98002">
        <ele>259</ele>
        <time>2023-08-20T08:19:10Z</time>
      </trkpt>
      <trkpt lat="44.56209" lon="1.97996">
        <ele>259.6</ele>
        <time>2023-08-20T08:19:11Z</time>
      </trkpt>
      <trkpt lat="44.56223" lon="1.97993">
        <ele>260.4</ele>
        <time>2023-08-20T08:19:12Z</time>
      </trkpt>
      <trkpt lat="44.56238" lon="1.97993">
        <ele>261.4</ele>
        <time>2023-08-20T08:19:13Z</time>
      </trkpt>
      <trkpt lat="44.56253" lon="1.97997">
        <ele>261.8</ele>
        <time>2023-08-20T08:19:14Z</time>
      </trkpt>
      <trkpt lat="44.56268" lon="1.98004">
        <ele>262.6</ele>
        <time>2023-08-20T08:19:15Z</time>
      </trkpt>
      <trkpt lat="44.56284" lon="1.98011">
        <ele>263</ele>
        <time>2023-08-20T08:19:16Z</time>
      </trkpt>
      <trkpt lat="44.563" lon="1.98017">
        <ele>263.4</ele>
        <time>2023-08-20T08:19:17Z</time>
      </trkpt>
      <trkpt lat="44.56315" lon="1.98023">
        <ele>263.8</ele>
        <time>2023-08-20T08:19:18Z</time>
      </trkpt>
      <trkpt lat="44.56331" lon="1.9803">
        <ele>264.4</ele>
        <time>2023-08-20T08:19:19Z</time>
      </trkpt>
      <trkpt lat="44.56347" lon="1.98038">
        <ele>264.8</ele>
        <time>2023-08-20T08:19:20Z</time>
      </trkpt>
      <trkpt lat="44.56362" lon="1.98047">
        <ele>265.8</ele>
        <time>2023-08-20T08:19:21Z</time>
      </trkpt>
      <trkpt lat="44.56376" lon="1.98058">
        <ele>266.8</ele>
        <time>2023-08-20T08:19:22Z</time>
      </trkpt>
      <trkpt lat="44.56389" lon="1.98071">
        <ele>267.2</ele>
        <time>2023-08-20T08:19:23Z</time>
      </trkpt>
      <trkpt lat="44.564" lon="1.9809">
        <ele>268.4</ele>
        <time>2023-08-20T08:19:24Z</time>
      </trkpt>
      <trkpt lat="44.56406" lon="1.98105">
        <ele>268.8</ele>
        <time>2023-08-20T08:19:25Z</time>
      </trkpt>
      <trkpt lat="44.56413" lon="1.98125">
        <ele>269.4</ele>
        <time>2023-08-20T08:19:26Z</time>
      </trkpt>
      <trkpt lat="44.56419" lon="1.98143">
        <ele>269.6</ele>
        <time>2023-08-20T08:19:27Z</time>
      </trkpt>
      <trkpt lat="44.56426" lon="1.98162">
        <ele>270.4</ele>
        <time>2023-08-20T08:19:28Z</time>
      </trkpt>
      <trkpt lat="44.56431" lon="1.98181">
        <ele>270.8</ele>
        <time>2023-08-20T08:19:29Z</time>
      </trkpt>
      <trkpt lat="44.56435" lon="1.982">
        <ele>271.6</ele>
        <time>2023-08-20T08:19:30Z</time>
      </trkpt>
      <trkpt lat="44.56437" lon="1.98221">
        <ele>272.2</ele>
        <time>2023-08-20T08:19:31Z</time>
      </trkpt>
      <trkpt lat="44.56438" lon="1.98243">
        <ele>272.4</ele>
        <time>2023-08-20T08:19:32Z</time>
      </trkpt>
      <trkpt lat="44.56435" lon="1.98265">
        <ele>273.4</ele>
        <time>2023-08-20T08:19:33Z</time>
      </trkpt>
      <trkpt lat="44.5643" lon="1.98286">
        <ele>273.8</ele>
        <time>2023-08-20T08:19:34Z</time>
      </trkpt>
      <trkpt lat="44.56425" lon="1.98307">
        <ele>274.2</ele>
        <time>2023-08-20T08:19:35Z</time>
      </trkpt>
      <trkpt lat="44.56422" lon="1.98328">
        <ele>274.4</ele>
        <time>2023-08-20T08:19:36Z</time>
      </trkpt>
      <trkpt lat="44.56419" lon="1.9835">
        <ele>275.2</ele>
        <time>2023-08-20T08:19:37Z</time>
      </trkpt>
      <trkpt lat="44.56418" lon="1.98371">
        <ele>276.4</ele>
        <time>2023-08-20T08:19:38Z</time>
      </trkpt>
      <trkpt lat="44.56419" lon="1.98392">
        <ele>277</ele>
        <time>2023-08-20T08:19:39Z</time>
      </trkpt>
      <trkpt lat="44.56423" lon="1.98413">
        <ele>277.6</ele>
        <time>2023-08-20T08:19:40Z</time>
      </trkpt>
      <trkpt lat="44.56429" lon="1.98432">
        <ele>278</ele>
        <time>2023-08-20T08:19:41Z</time>
      </trkpt>
      <trkpt lat="44.56434" lon="1.9845">
        <ele>279</ele>
        <time>2023-08-20T08:19:42Z</time>
      </trkpt>
      <trkpt lat="44.56439" lon="1.98466">
        <ele>279.4</ele>
        <time>2023-08-20T08:19:43Z</time>
      </trkpt>
      <trkpt lat="44.56444" lon="1.98483">
        <ele>280.2</ele>
        <time>2023-08-20T08:19:44Z</time>
      </trkpt>
      <trkpt lat="44.56448" lon="1.985">
        <ele>280.8</ele>
        <time>2023-08-20T08:19:45Z</time>
      </trkpt>
      <trkpt lat="44.56452" lon="1.98517">
        <ele>281.8</ele>
        <time>2023-08-20T08:19:46Z</time>
      </trkpt>
      <trkpt lat="44.56455" lon="1.98536">
        <ele>282.4</ele>
        <time>2023-08-20T08:19:47Z</time>
      </trkpt>
      <trkpt lat="44.56457" lon="1.98555">
        <ele>282.8</ele>
        <time>2023-08-20T08:19:48Z</time>
      </trkpt>
      <trkpt lat="44.56459" lon="1.98573">
        <ele>283.2</ele>
        <time>2023-08-20T08:19:49Z</time>
      </trkpt>
      <trkpt lat="44.56459" lon="1.98592">
        <ele>283.4</ele>
        <time>2023-08-20T08:19:50Z</time>
      </trkpt>
      <trkpt lat="44.5646" lon="1.9861">
        <ele>283.6</ele>
        <time>2023-08-20T08:19:51Z</time>
      </trkpt>
      <trkpt lat="44.56459" lon="1.98628">
        <ele>284</ele>
        <time>2023-08-20T08:19:52Z</time>
      </trkpt>
      <trkpt lat="44.56457" lon="1.98646">
        <ele>284.6</ele>
        <time>2023-08-20T08:19:53Z</time>
      </trkpt>
      <trkpt lat="44.56454" lon="1.98663">
        <ele>284.8</ele>
        <time>2023-08-20T08:19:54Z</time>
      </trkpt>
      <trkpt lat="44.56451" lon="1.9868">
        <ele>285.4</ele>
        <time>2023-08-20T08:19:55Z</time>
      </trkpt>
      <trkpt lat="44.56446" lon="1.98697">
        <ele>285.8</ele>
        <time>2023-08-20T08:19:56Z</time>
      </trkpt>
      <trkpt lat="44.5644" lon="1.98713">
        <ele>286.2</ele>
        <time>2023-08-20T08:19:57Z</time>
      </trkpt>
      <trkpt lat="44.56432" lon="1.98726">
        <ele>287</ele>
        <time>2023-08-20T08:19:58Z</time>
      </trkpt>
      <trkpt lat="44.56422" lon="1.98738">
        <ele>287.4</ele>
        <time>2023-08-20T08:19:59Z</time>
      </trkpt>
      <trkpt lat="44.56409" lon="1.98749">
        <ele>287.8</ele>
        <time>2023-08-20T08:20:00Z</time>
      </trkpt>
      <trkpt lat="44.56399" lon="1.98756">
        <ele>288.2</ele>
        <time>2023-08-20T08:20:01Z</time>
      </trkpt>
      <trkpt lat="44.56385" lon="1.98766">
        <ele>288.8</ele>
        <time>2023-08-20T08:20:02Z</time>
      </trkpt>
      <trkpt lat="44.56376" lon="1.98773">
        <ele>289.4</ele>
        <time>2023-08-20T08:20:03Z</time>
      </trkpt>
      <trkpt lat="44.56367" lon="1.98782">
        <ele>289.6</ele>
        <time>2023-08-20T08:20:04Z</time>
      </trkpt>
      <trkpt lat="44.5636" lon="1.98794">
        <ele>290.2</ele>
        <time>2023-08-20T08:20:05Z</time>
      </trkpt>
      <trkpt lat="44.5636" lon="1.98803">
        <ele>290.4</ele>
        <time>2023-08-20T08:20:06Z</time>
      </trkpt>
      <trkpt lat="44.56361" lon="1.98815">
        <ele>291.2</ele>
        <time>2023-08-20T08:20:07Z</time>
      </trkpt>
      <trkpt lat="44.56365" lon="1.98824">
        <ele>291.4</ele>
        <time>2023-08-20T08:20:08Z</time>
      </trkpt>
      <trkpt lat="44.56373" lon="1.98831">
        <ele>291.8</ele>
        <time>2023-08-20T08:20:09Z</time>
      </trkpt>
      <trkpt lat="44.56382" lon="1.98834">
        <ele>292</ele>
        <time>2023-08-20T08:20:10Z</time>
      </trkpt>
      <trkpt lat="44.56395" lon="1.98834">
        <ele>292.4</ele>
        <time>2023-08-20T08:20:11Z</time>
      </trkpt>
      <trkpt lat="44.56404" lon="1.98833">
        <ele>292.6</ele>
        <time>2023-08-20T08:20:12Z</time>
      </trkpt>
      <trkpt lat="44.56417" lon="1.98831">
        <ele>292.8</ele>
        <time>2023-08-20T08:20:13Z</time>
      </trkpt>
      <trkpt lat="44.5643" lon="1.9883">
        <ele>293.2</ele>
        <time>2023-08-20T08:20:14Z</time>
      </trkpt>
      <trkpt lat="44.56444" lon="1.98829">
        <ele>293.4</ele>
        <time>2023-08-20T08:20:15Z</time>
      </trkpt>
      <trkpt lat="44.56459" lon="1.98828">
        <ele>294.2</ele>
        <time>2023-08-20T08:20:16Z</time>
      </trkpt>
      <trkpt lat="44.56473" lon="1.98827">
        <ele>294.8</ele>
        <time>2023-08-20T08:20:17Z</time>
      </trkpt>
      <trkpt lat="44.56486" lon="1.98827">
        <ele>295.4</ele>
        <time>2023-08-20T08:20:18Z</time>
      </trkpt>
      <trkpt lat="44.56499" lon="1.98826">
        <ele>295.8</ele>
        <time>2023-08-20T08:20:19Z</time>
      </trkpt>
      <trkpt lat="44.56511" lon="1.98826">
        <ele>296.6</ele>
        <time>2023-08-20T08:20:20Z</time>
      </trkpt>
      <trkpt lat="44.56524" lon="1.98825">
        <ele>297.2</ele>
        <time>2023-08-20T08:20:21Z</time>
      </trkpt>
      <trkpt lat="44.56535" lon="1.98823">
        <ele>297.4</ele>
        <time>2023-08-20T08:20:22Z</time>
      </trkpt>
      <trkpt lat="44.56548" lon="1.98821">
        <ele>298.2</ele>
        <time>2023-08-20T08:20:23Z</time>
      </trkpt>
      <trkpt lat="44.56558" lon="1.9882">
        <ele>298.6</ele>
        <time>2023-08-20T08:20:24Z</time>
      </trkpt>
      <trkpt lat="44.56569" lon="1.98819">
        <ele>299</ele>
        <time>2023-08-20T08:20:25Z</time>
      </trkpt>
      <trkpt lat="44.56578" lon="1.98819">
        <ele>299.2</ele>
        <time>2023-08-20T08:20:26Z</time>
      </trkpt>
      <trkpt lat="44.56589" lon="1.98819">
        <ele>299.8</ele>
        <time>2023-08-20T08:20:27Z</time>
      </trkpt>
      <trkpt lat="44.566" lon="1.9882">
        <ele>300</ele>
        <time>2023-08-20T08:20:28Z</time>
      </trkpt>
      <trkpt lat="44.56611" lon="1.98822">
        <ele>300.2</ele>
        <time>2023-08-20T08:20:29Z</time>
      </trkpt>
      <trkpt lat="44.56622" lon="1.98826">
        <ele>300.6</ele>
        <time>2023-08-20T08:20:30Z</time>
      </trkpt>
      <trkpt lat="44.56633" lon="1.9883">
        <ele>301</ele>
        <time>2023-08-20T08:20:31Z</time>
      </trkpt>
      <trkpt lat="44.56644" lon="1.98834">
        <ele>301.4</ele>
        <time>2023-08-20T08:20:32Z</time>
      </trkpt>
      <trkpt lat="44.56654" lon="1.98838">
        <ele>301.6</ele>
        <time>2023-08-20T08:20:33Z</time>
      </trkpt>
      <trkpt lat="44.56664" lon="1.98842">
        <ele>302</ele>
        <time>2023-08-20T08:20:34Z</time>
      </trkpt>
      <trkpt lat="44.56674" lon="1.98847">
        <ele>302.2</ele>
        <time>2023-08-20T08:20:35Z</time>
      </trkpt>
      <trkpt lat="44.56683" lon="1.98851">
        <ele>302.6</ele>
        <time>2023-08-20T08:20:36Z</time>
      </trkpt>
      <trkpt lat="44.56692" lon="1.98855">
        <ele>303</ele>
        <time>2023-08-20T08:20:37Z</time>
      </trkpt>
      <trkpt lat="44.567" lon="1.98857">
        <ele>303.2</ele>
        <time>2023-08-20T08:20:38Z</time>
      </trkpt>
      <trkpt lat="44.56707" lon="1.98858">
        <ele>303.8</ele>
        <time>2023-08-20T08:20:39Z</time>
      </trkpt>
      <trkpt lat="44.56713" lon="1.98858">
        <ele>304.2</ele>
        <time>2023-08-20T08:20:40Z</time>
      </trkpt>
      <trkpt lat="44.56717" lon="1.98858">
        <ele>304.2</ele>
        <time>2023-08-20T08:20:41Z</time>
      </trkpt>
      <trkpt lat="44.56721" lon="1.98858">
        <ele>304.4</ele>
        <time>2023-08-20T08:20:42Z</time>
      </trkpt>
      <trkpt lat="44.56726" lon="1.98861">
        <ele>304.6</ele>
        <time>2023-08-20T08:20:43Z</time>
      </trkpt>
      <trkpt lat="44.5673" lon="1.98865">
        <ele>304.8</ele>
        <time>2023-08-20T08:20:44Z</time>
      </trkpt>
      <trkpt lat="44.56733" lon="1.98871">
        <ele>304.8</ele>
        <time>2023-08-20T08:20:45Z</time>
      </trkpt>
      <trkpt lat="44.56737" lon="1.98877">
        <ele>305</ele>
        <time>2023-08-20T08:20:46Z</time>
      </trkpt>
      <trkpt lat="44.56741" lon="1.98884">
        <ele>305</ele>
        <time>2023-08-20T08:20:47Z</time>
      </trkpt>
      <trkpt lat="44.56746" lon="1.98891">
        <ele>305.4</ele>
        <time>2023-08-20T08:20:48Z</time>
      </trkpt>
      <trkpt lat="44.56751" lon="1.98898">
        <ele>305.6</ele>
        <time>2023-08-20T08:20:49Z</time>
      </trkpt>
      <trkpt lat="44.56755" lon="1.98905">
        <ele>306</ele>
        <time>2023-08-20T08:20:50Z</time>
      </trkpt>
      <trkpt lat="44.56761" lon="1.98913">
        <ele>306</ele>
        <time>2023-08-20T08:20:51Z</time>
      </trkpt>
      <trkpt lat="44.56766" lon="1.98922">
        <ele>306.4</ele>
        <time>2023-08-20T08:20:52Z</time>
      </trkpt>
      <trkpt lat="44.56772" lon="1.98931">
        <ele>307</ele>
        <time>2023-08-20T08:20:53Z</time>
      </trkpt>
      <trkpt lat="44.56777" lon="1.98941">
        <ele>307.2</ele>
        <time>2023-08-20T08:20:54Z</time>
      </trkpt>
      <trkpt lat="44.56781" lon="1.98948">
        <ele>307.6</ele>
        <time>2023-08-20T08:20:55Z</time>
      </trkpt>
      <trkpt lat="44.56785" lon="1.98953">
        <ele>308</ele>
        <time>2023-08-20T08:20:56Z</time>
      </trkpt>
      <trkpt lat="44.56786" lon="1.98956">
        <ele>308.4</ele>
        <time>2023-08-20T08:20:57Z</time>
      </trkpt>
      <trkpt lat="44.56787" lon="1.98958">
        <ele>308.8</ele>
        <time>2023-08-20T08:20:58Z</time>
      </trkpt>
      <trkpt lat="44.56788" lon="1.9896">
        <ele>309.2</ele>
        <time>2023-08-20T08:20:59Z</time>
      </trkpt>
      <trkpt lat="44.56789" lon="1.98961">
        <ele>309.4</ele>
        <time>2023-08-20T08:21:00Z</time>
      </trkpt>
      <trkpt lat="44.56791" lon="1.98963">
        <ele>309.6</ele>
        <time>2023-08-20T08:21:01Z</time>
      </trkpt>
      <trkpt lat="44.56793" lon="1.98966">
        <ele>309.8</ele>
        <time>2023-08-20T08:21:02Z</time>
      </trkpt>
      <trkpt lat="44.56796" lon="1.98971">
        <ele>309.8</ele>
        <time>2023-08-20T08:21:03Z</time>
      </trkpt>
      <trkpt lat="44.56799" lon="1.98977">
        <ele>310</ele>
        <time>2023-08-20T08:21:04Z</time>
      </trkpt>
      <trkpt lat="44.56802" lon="1.98982">
        <ele>310</ele>
        <time>2023-08-20T08:21:05Z</time>
      </trkpt>
      <trkpt lat="44.56805" lon="1.98988">
        <ele>310.2</ele>
        <time>2023-08-20T08:21:06Z</time>
      </trkpt>
      <trkpt lat="44.56808" lon="1.98992">
        <ele>310.2</ele>
        <time>2023-08-20T08:21:07Z</time>
      </trkpt>
      <trkpt lat="44.56809" lon="1.98996">
        <ele>310.4</ele>
        <time>2023-08-20T08:21:08Z</time>
      </trkpt>
      <trkpt lat="44.56811" lon="1.98999">
        <ele>310.6</ele>
        <time>2023-08-20T08:21:09Z</time>
      </trkpt>
      <trkpt lat="44.56811" lon="1.98999">
        <ele>310.6</ele>
        <time>2023-08-20T08:21:10Z</time>
      </trkpt>
      <trkpt lat="44.56811" lon="1.98999">
        <ele>310.8</ele>
        <time>2023-08-20T08:21:11Z</time>
      </trkpt>
      <trkpt lat="44.56811" lon="1.98999">
        <ele>310.8</ele>
        <time>2023-08-20T08:21:12Z</time>
      </trkpt>
      <trkpt lat="44.56817" lon="1.99012">
        <ele>311.4</ele>
        <time>2023-08-20T08:21:45Z</time>
      </trkpt>
      <trkpt lat="44.5682" lon="1.9902">
        <ele>311.4</ele>
        <time>2023-08-20T08:21:46Z</time>
      </trkpt>
      <trkpt lat="44.56824" lon="1.99029">
        <ele>311.4</ele>
        <time>2023-08-20T08:21:47Z</time>
      </trkpt>
      <trkpt lat="44.56829" lon="1.99039">
        <ele>311.4</ele>
        <time>2023-08-20T08:21:48Z</time>
      </trkpt>
      <trkpt lat="44.56834" lon="1.9905">
        <ele>311.6</ele>
        <time>2023-08-20T08:21:49Z</time>
      </trkpt>
      <trkpt lat="44.56843" lon="1.99072">
        <ele>311.8</ele>
        <time>2023-08-20T08:21:51Z</time>
      </trkpt>
      <trkpt lat="44.56851" lon="1.99093">
        <ele>311.8</ele>
        <time>2023-08-20T08:21:53Z</time>
      </trkpt>
      <trkpt lat="44.56852" lon="1.99103">
        <ele>311.4</ele>
        <time>2023-08-20T08:21:54Z</time>
      </trkpt>
      <trkpt lat="44.5685" lon="1.99112">
        <ele>311.4</ele>
        <time>2023-08-20T08:21:55Z</time>
      </trkpt>
      <trkpt lat="44.56847" lon="1.99121">
        <ele>311.2</ele>
        <time>2023-08-20T08:21:56Z</time>
      </trkpt>
      <trkpt lat="44.56841" lon="1.99129">
        <ele>311</ele>
        <time>2023-08-20T08:21:57Z</time>
      </trkpt>
      <trkpt lat="44.56834" lon="1.99136">
        <ele>310.8</ele>
        <time>2023-08-20T08:21:58Z</time>
      </trkpt>
      <trkpt lat="44.56825" lon="1.99142">
        <ele>310.4</ele>
        <time>2023-08-20T08:21:59Z</time>
      </trkpt>
      <trkpt lat="44.56815" lon="1.99147">
        <ele>310.2</ele>
        <time>2023-08-20T08:22:00Z</time>
      </trkpt>
      <trkpt lat="44.56803" lon="1.99151">
        <ele>310</ele>
        <time>2023-08-20T08:22:01Z</time>
      </trkpt>
      <trkpt lat="44.56791" lon="1.99157">
        <ele>309.8</ele>
        <time>2023-08-20T08:22:02Z</time>
      </trkpt>
      <trkpt lat="44.5678" lon="1.99164">
        <ele>309.6</ele>
        <time>2023-08-20T08:22:03Z</time>
      </trkpt>
      <trkpt lat="44.5677" lon="1.99173">
        <ele>309.6</ele>
        <time>2023-08-20T08:22:04Z</time>
      </trkpt>
      <trkpt lat="44.5676" lon="1.99184">
        <ele>309.4</ele>
        <time>2023-08-20T08:22:05Z</time>
      </trkpt>
      <trkpt lat="44.56741" lon="1.99212">
        <ele>309.4</ele>
        <time>2023-08-20T08:22:07Z</time>
      </trkpt>
      <trkpt lat="44.56731" lon="1.99225">
        <ele>309.2</ele>
        <time>2023-08-20T08:22:08Z</time>
      </trkpt>
      <trkpt lat="44.5671" lon="1.99249">
        <ele>308.8</ele>
        <time>2023-08-20T08:22:10Z</time>
      </trkpt>
      <trkpt lat="44.567" lon="1.99258">
        <ele>308.6</ele>
        <time>2023-08-20T08:22:11Z</time>
      </trkpt>
      <trkpt lat="44.56691" lon="1.99263">
        <ele>308.2</ele>
        <time>2023-08-20T08:22:12Z</time>
      </trkpt>
      <trkpt lat="44.56682" lon="1.99267">
        <ele>308</ele>
        <time>2023-08-20T08:22:13Z</time>
      </trkpt>
      <trkpt lat="44.56674" lon="1.99267">
        <ele>307.6</ele>
        <time>2023-08-20T08:22:14Z</time>
      </trkpt>
      <trkpt lat="44.56666" lon="1.99266">
        <ele>307.4</ele>
        <time>2023-08-20T08:22:15Z</time>
      </trkpt>
      <trkpt lat="44.56657" lon="1.99262">
        <ele>306.8</ele>
        <time>2023-08-20T08:22:16Z</time>
      </trkpt>
      <trkpt lat="44.5665" lon="1.99255">
        <ele>306.2</ele>
        <time>2023-08-20T08:22:17Z</time>
      </trkpt>
      <trkpt lat="44.56642" lon="1.99246">
        <ele>305.8</ele>
        <time>2023-08-20T08:22:18Z</time>
      </trkpt>
      <trkpt lat="44.56635" lon="1.99239">
        <ele>305.2</ele>
        <time>2023-08-20T08:22:19Z</time>
      </trkpt>
      <trkpt lat="44.56628" lon="1.99234">
        <ele>304.8</ele>
        <time>2023-08-20T08:22:20Z</time>
      </trkpt>
      <trkpt lat="44.56619" lon="1.99231">
        <ele>304.4</ele>
        <time>2023-08-20T08:22:21Z</time>
      </trkpt>
      <trkpt lat="44.56613" lon="1.99234">
        <ele>304.2</ele>
        <time>2023-08-20T08:22:22Z</time>
      </trkpt>
      <trkpt lat="44.56607" lon="1.99241">
        <ele>303.4</ele>
        <time>2023-08-20T08:22:23Z</time>
      </trkpt>
      <trkpt lat="44.56604" lon="1.99251">
        <ele>302.6</ele>
        <time>2023-08-20T08:22:24Z</time>
      </trkpt>
      <trkpt lat="44.56601" lon="1.99265">
        <ele>302.4</ele>
        <time>2023-08-20T08:22:25Z</time>
      </trkpt>
      <trkpt lat="44.56599" lon="1.99279">
        <ele>302</ele>
        <time>2023-08-20T08:22:26Z</time>
      </trkpt>
      <trkpt lat="44.56595" lon="1.99293">
        <ele>301.8</ele>
        <time>2023-08-20T08:22:27Z</time>
      </trkpt>
      <trkpt lat="44.56589" lon="1.99305">
        <ele>301.8</ele>
        <time>2023-08-20T08:22:28Z</time>
      </trkpt>
      <trkpt lat="44.56581" lon="1.99316">
        <ele>301.6</ele>
        <time>2023-08-20T08:22:29Z</time>
      </trkpt>
      <trkpt lat="44.56572" lon="1.99324">
        <ele>301.4</ele>
        <time>2023-08-20T08:22:30Z</time>
      </trkpt>
      <trkpt lat="44.56562" lon="1.9933">
        <ele>301.4</ele>
        <time>2023-08-20T08:22:31Z</time>
      </trkpt>
      <trkpt lat="44.56552" lon="1.99331">
        <ele>301</ele>
        <time>2023-08-20T08:22:32Z</time>
      </trkpt>
      <trkpt lat="44.56541" lon="1.9933">
        <ele>300.6</ele>
        <time>2023-08-20T08:22:33Z</time>
      </trkpt>
      <trkpt lat="44.5653" lon="1.99329">
        <ele>300.6</ele>
        <time>2023-08-20T08:22:34Z</time>
      </trkpt>
      <trkpt lat="44.56519" lon="1.9933">
        <ele>300.2</ele>
        <time>2023-08-20T08:22:35Z</time>
      </trkpt>
      <trkpt lat="44.56509" lon="1.99334">
        <ele>300</ele>
        <time>2023-08-20T08:22:36Z</time>
      </trkpt>
      <trkpt lat="44.56495" lon="1.99356">
        <ele>299.2</ele>
        <time>2023-08-20T08:22:38Z</time>
      </trkpt>
      <trkpt lat="44.56489" lon="1.9937">
        <ele>299</ele>
        <time>2023-08-20T08:22:39Z</time>
      </trkpt>
      <trkpt lat="44.56481" lon="1.99401">
        <ele>298.8</ele>
        <time>2023-08-20T08:22:41Z</time>
      </trkpt>
      <trkpt lat="44.56477" lon="1.99418">
        <ele>298.6</ele>
        <time>2023-08-20T08:22:42Z</time>
      </trkpt>
      <trkpt lat="44.56471" lon="1.99473">
        <ele>298.2</ele>
        <time>2023-08-20T08:22:45Z</time>
      </trkpt>
      <trkpt lat="44.56469" lon="1.99492">
        <ele>297.8</ele>
        <time>2023-08-20T08:22:46Z</time>
      </trkpt>
      <trkpt lat="44.56468" lon="1.99528">
        <ele>296.6</ele>
        <time>2023-08-20T08:22:48Z</time>
      </trkpt>
      <trkpt lat="44.56469" lon="1.99546">
        <ele>296.2</ele>
        <time>2023-08-20T08:22:49Z</time>
      </trkpt>
      <trkpt lat="44.56476" lon="1.99581">
        <ele>295.4</ele>
        <time>2023-08-20T08:22:51Z</time>
      </trkpt>
      <trkpt lat="44.56483" lon="1.99615">
        <ele>294.4</ele>
        <time>2023-08-20T08:22:53Z</time>
      </trkpt>
      <trkpt lat="44.56486" lon="1.99632">
        <ele>294</ele>
        <time>2023-08-20T08:22:54Z</time>
      </trkpt>
      <trkpt lat="44.56491" lon="1.99665">
        <ele>293</ele>
        <time>2023-08-20T08:22:56Z</time>
      </trkpt>
      <trkpt lat="44.56495" lon="1.99679">
        <ele>292.8</ele>
        <time>2023-08-20T08:22:57Z</time>
      </trkpt>
      <trkpt lat="44.56501" lon="1.99693">
        <ele>292.2</ele>
        <time>2023-08-20T08:22:58Z</time>
      </trkpt>
      <trkpt lat="44.56508" lon="1.99704">
        <ele>292.2</ele>
        <time>2023-08-20T08:22:59Z</time>
      </trkpt>
      <trkpt lat="44.56517" lon="1.99715">
        <ele>291.8</ele>
        <time>2023-08-20T08:23:00Z</time>
      </trkpt>
      <trkpt lat="44.56526" lon="1.99723">
        <ele>291.6</ele>
        <time>2023-08-20T08:23:01Z</time>
      </trkpt>
      <trkpt lat="44.56536" lon="1.99729">
        <ele>291</ele>
        <time>2023-08-20T08:23:02Z</time>
      </trkpt>
      <trkpt lat="44.56546" lon="1.99735">
        <ele>290.6</ele>
        <time>2023-08-20T08:23:03Z</time>
      </trkpt>
      <trkpt lat="44.56557" lon="1.99741">
        <ele>290</ele>
        <time>2023-08-20T08:23:04Z</time>
      </trkpt>
      <trkpt lat="44.56566" lon="1.9975">
        <ele>289.6</ele>
        <time>2023-08-20T08:23:05Z</time>
      </trkpt>
      <trkpt lat="44.56575" lon="1.99761">
        <ele>289</ele>
        <time>2023-08-20T08:23:06Z</time>
      </trkpt>
      <trkpt lat="44.56583" lon="1.99771">
        <ele>288.4</ele>
        <time>2023-08-20T08:23:07Z</time>
      </trkpt>
      <trkpt lat="44.56602" lon="1.9978">
        <ele>287.8</ele>
        <time>2023-08-20T08:23:09Z</time>
      </trkpt>
      <trkpt lat="44.56612" lon="1.9978">
        <ele>287.6</ele>
        <time>2023-08-20T08:23:10Z</time>
      </trkpt>
      <trkpt lat="44.56622" lon="1.99779">
        <ele>287</ele>
        <time>2023-08-20T08:23:11Z</time>
      </trkpt>
      <trkpt lat="44.56632" lon="1.99783">
        <ele>287</ele>
        <time>2023-08-20T08:23:12Z</time>
      </trkpt>
      <trkpt lat="44.56641" lon="1.99786">
        <ele>286.6</ele>
        <time>2023-08-20T08:23:13Z</time>
      </trkpt>
      <trkpt lat="44.56646" lon="1.99795">
        <ele>286.2</ele>
        <time>2023-08-20T08:23:14Z</time>
      </trkpt>
      <trkpt lat="44.56649" lon="1.99808">
        <ele>285.8</ele>
        <time>2023-08-20T08:23:15Z</time>
      </trkpt>
      <trkpt lat="44.56651" lon="1.99824">
        <ele>285</ele>
        <time>2023-08-20T08:23:16Z</time>
      </trkpt>
      <trkpt lat="44.56654" lon="1.9984">
        <ele>284.6</ele>
        <time>2023-08-20T08:23:17Z</time>
      </trkpt>
      <trkpt lat="44.56657" lon="1.99854">
        <ele>284</ele>
        <time>2023-08-20T08:23:18Z</time>
      </trkpt>
      <trkpt lat="44.56669" lon="1.99878">
        <ele>283.4</ele>
        <time>2023-08-20T08:23:20Z</time>
      </trkpt>
      <trkpt lat="44.56676" lon="1.99888">
        <ele>283.2</ele>
        <time>2023-08-20T08:23:21Z</time>
      </trkpt>
      <trkpt lat="44.56685" lon="1.99896">
        <ele>283</ele>
        <time>2023-08-20T08:23:22Z</time>
      </trkpt>
      <trkpt lat="44.56693" lon="1.99904">
        <ele>282.6</ele>
        <time>2023-08-20T08:23:23Z</time>
      </trkpt>
      <trkpt lat="44.56702" lon="1.99913">
        <ele>282.6</ele>
        <time>2023-08-20T08:23:24Z</time>
      </trkpt>
      <trkpt lat="44.56708" lon="1.99923">
        <ele>282</ele>
        <time>2023-08-20T08:23:25Z</time>
      </trkpt>
      <trkpt lat="44.56711" lon="1.99937">
        <ele>282</ele>
        <time>2023-08-20T08:23:26Z</time>
      </trkpt>
      <trkpt lat="44.56712" lon="1.99952">
        <ele>281.6</ele>
        <time>2023-08-20T08:23:27Z</time>
      </trkpt>
      <trkpt lat="44.56708" lon="1.99966">
        <ele>281.4</ele>
        <time>2023-08-20T08:23:28Z</time>
      </trkpt>
      <trkpt lat="44.56702" lon="1.99977">
        <ele>281</ele>
        <time>2023-08-20T08:23:29Z</time>
      </trkpt>
      <trkpt lat="44.56695" lon="1.99985">
        <ele>280.8</ele>
        <time>2023-08-20T08:23:30Z</time>
      </trkpt>
      <trkpt lat="44.56686" lon="1.9999">
        <ele>280.4</ele>
        <time>2023-08-20T08:23:31Z</time>
      </trkpt>
      <trkpt lat="44.56677" lon="1.99994">
        <ele>280</ele>
        <time>2023-08-20T08:23:32Z</time>
      </trkpt>
      <trkpt lat="44.56666" lon="1.99997">
        <ele>279.8</ele>
        <time>2023-08-20T08:23:33Z</time>
      </trkpt>
      <trkpt lat="44.56655" lon="2.00001">
        <ele>279.6</ele>
        <time>2023-08-20T08:23:34Z</time>
      </trkpt>
      <trkpt lat="44.56642" lon="2.00004">
        <ele>279.4</ele>
        <time>2023-08-20T08:23:35Z</time>
      </trkpt>
      <trkpt lat="44.56593" lon="2.00026">
        <ele>279</ele>
        <time>2023-08-20T08:23:39Z</time>
      </trkpt>
      <trkpt lat="44.56581" lon="2.00032">
        <ele>278.8</ele>
        <time>2023-08-20T08:23:40Z</time>
      </trkpt>
      <trkpt lat="44.56571" lon="2.00039">
        <ele>278.4</ele>
        <time>2023-08-20T08:23:41Z</time>
      </trkpt>
      <trkpt lat="44.56549" lon="2.00052">
        <ele>277.8</ele>
        <time>2023-08-20T08:23:43Z</time>
      </trkpt>
      <trkpt lat="44.56528" lon="2.00065">
        <ele>277.2</ele>
        <time>2023-08-20T08:23:45Z</time>
      </trkpt>
      <trkpt lat="44.56519" lon="2.00071">
        <ele>276.8</ele>
        <time>2023-08-20T08:23:46Z</time>
      </trkpt>
      <trkpt lat="44.56512" lon="2.00078">
        <ele>276.4</ele>
        <time>2023-08-20T08:23:47Z</time>
      </trkpt>
      <trkpt lat="44.56505" lon="2.00084">
        <ele>275.6</ele>
        <time>2023-08-20T08:23:48Z</time>
      </trkpt>
      <trkpt lat="44.56498" lon="2.00091">
        <ele>275.2</ele>
        <time>2023-08-20T08:23:49Z</time>
      </trkpt>
      <trkpt lat="44.56493" lon="2.00099">
        <ele>274.6</ele>
        <time>2023-08-20T08:23:50Z</time>
      </trkpt>
      <trkpt lat="44.56488" lon="2.00109">
        <ele>274.2</ele>
        <time>2023-08-20T08:23:51Z</time>
      </trkpt>
      <trkpt lat="44.56483" lon="2.00121">
        <ele>273.4</ele>
        <time>2023-08-20T08:23:52Z</time>
      </trkpt>
      <trkpt lat="44.56479" lon="2.00134">
        <ele>273</ele>
        <time>2023-08-20T08:23:53Z</time>
      </trkpt>
      <trkpt lat="44.56462" lon="2.00186">
        <ele>271.8</ele>
        <time>2023-08-20T08:23:57Z</time>
      </trkpt>
      <trkpt lat="44.56446" lon="2.00255">
        <ele>270.8</ele>
        <time>2023-08-20T08:24:02Z</time>
      </trkpt>
      <trkpt lat="44.56443" lon="2.00269">
        <ele>270.6</ele>
        <time>2023-08-20T08:24:03Z</time>
      </trkpt>
      <trkpt lat="44.5644" lon="2.00296">
        <ele>270.2</ele>
        <time>2023-08-20T08:24:05Z</time>
      </trkpt>
      <trkpt lat="44.56441" lon="2.00309">
        <ele>270</ele>
        <time>2023-08-20T08:24:06Z</time>
      </trkpt>
      <trkpt lat="44.56443" lon="2.00321">
        <ele>269.8</ele>
        <time>2023-08-20T08:24:07Z</time>
      </trkpt>
      <trkpt lat="44.56445" lon="2.00332">
        <ele>269.6</ele>
        <time>2023-08-20T08:24:08Z</time>
      </trkpt>
      <trkpt lat="44.56446" lon="2.00344">
        <ele>269.6</ele>
        <time>2023-08-20T08:24:09Z</time>
      </trkpt>
      <trkpt lat="44.56448" lon="2.00355">
        <ele>269.4</ele>
        <time>2023-08-20T08:24:10Z</time>
      </trkpt>
      <trkpt lat="44.56451" lon="2.00365">
        <ele>269.4</ele>
        <time>2023-08-20T08:24:11Z</time>
      </trkpt>
      <trkpt lat="44.56454" lon="2.00375">
        <ele>269.2</ele>
        <time>2023-08-20T08:24:12Z</time>
      </trkpt>
      <trkpt lat="44.56459" lon="2.00384">
        <ele>269.2</ele>
        <time>2023-08-20T08:24:13Z</time>
      </trkpt>
      <trkpt lat="44.56466" lon="2.00392">
        <ele>269</ele>
        <time>2023-08-20T08:24:14Z</time>
      </trkpt>
      <trkpt lat="44.56474" lon="2.00399">
        <ele>269</ele>
        <time>2023-08-20T08:24:15Z</time>
      </trkpt>
      <trkpt lat="44.56483" lon="2.00407">
        <ele>268.8</ele>
        <time>2023-08-20T08:24:16Z</time>
      </trkpt>
      <trkpt lat="44.56493" lon="2.00414">
        <ele>268.8</ele>
        <time>2023-08-20T08:24:17Z</time>
      </trkpt>
      <trkpt lat="44.56515" lon="2.00429">
        <ele>268.6</ele>
        <time>2023-08-20T08:24:19Z</time>
      </trkpt>
      <trkpt lat="44.56566" lon="2.00451">
        <ele>268.4</ele>
        <time>2023-08-20T08:24:23Z</time>
      </trkpt>
      <trkpt lat="44.56618" lon="2.00474">
        <ele>267.8</ele>
        <time>2023-08-20T08:24:27Z</time>
      </trkpt>
      <trkpt lat="44.56631" lon="2.0048">
        <ele>267.6</ele>
        <time>2023-08-20T08:24:28Z</time>
      </trkpt>
      <trkpt lat="44.56643" lon="2.00486">
        <ele>267.4</ele>
        <time>2023-08-20T08:24:29Z</time>
      </trkpt>
      <trkpt lat="44.56692" lon="2.00509">
        <ele>266</ele>
        <time>2023-08-20T08:24:33Z</time>
      </trkpt>
      <trkpt lat="44.56704" lon="2.00513">
        <ele>265.8</ele>
        <time>2023-08-20T08:24:34Z</time>
      </trkpt>
      <trkpt lat="44.56741" lon="2.00519">
        <ele>265.2</ele>
        <time>2023-08-20T08:24:37Z</time>
      </trkpt>
      <trkpt lat="44.56754" lon="2.0052">
        <ele>264.8</ele>
        <time>2023-08-20T08:24:38Z</time>
      </trkpt>
      <trkpt lat="44.56779" lon="2.00518">
        <ele>264</ele>
        <time>2023-08-20T08:24:40Z</time>
      </trkpt>
      <trkpt lat="44.56791" lon="2.00515">
        <ele>263.8</ele>
        <time>2023-08-20T08:24:41Z</time>
      </trkpt>
      <trkpt lat="44.56803" lon="2.0051">
        <ele>263</ele>
        <time>2023-08-20T08:24:42Z</time>
      </trkpt>
      <trkpt lat="44.56814" lon="2.00505">
        <ele>262.6</ele>
        <time>2023-08-20T08:24:43Z</time>
      </trkpt>
      <trkpt lat="44.56837" lon="2.00498">
        <ele>261</ele>
        <time>2023-08-20T08:24:45Z</time>
      </trkpt>
      <trkpt lat="44.56848" lon="2.00496">
        <ele>260.6</ele>
        <time>2023-08-20T08:24:46Z</time>
      </trkpt>
      <trkpt lat="44.5686" lon="2.00496">
        <ele>259.8</ele>
        <time>2023-08-20T08:24:47Z</time>
      </trkpt>
      <trkpt lat="44.56886" lon="2.00497">
        <ele>259</ele>
        <time>2023-08-20T08:24:49Z</time>
      </trkpt>
      <trkpt lat="44.56898" lon="2.00495">
        <ele>258.8</ele>
        <time>2023-08-20T08:24:50Z</time>
      </trkpt>
      <trkpt lat="44.56911" lon="2.0049">
        <ele>258.6</ele>
        <time>2023-08-20T08:24:51Z</time>
      </trkpt>
      <trkpt lat="44.56934" lon="2.00471">
        <ele>258</ele>
        <time>2023-08-20T08:24:53Z</time>
      </trkpt>
      <trkpt lat="44.56946" lon="2.0046">
        <ele>257.6</ele>
        <time>2023-08-20T08:24:54Z</time>
      </trkpt>
      <trkpt lat="44.56957" lon="2.00449">
        <ele>257.4</ele>
        <time>2023-08-20T08:24:55Z</time>
      </trkpt>
      <trkpt lat="44.56992" lon="2.00418">
        <ele>256.2</ele>
        <time>2023-08-20T08:24:58Z</time>
      </trkpt>
      <trkpt lat="44.57013" lon="2.00402">
        <ele>255.4</ele>
        <time>2023-08-20T08:25:00Z</time>
      </trkpt>
      <trkpt lat="44.57023" lon="2.00395">
        <ele>255.2</ele>
        <time>2023-08-20T08:25:01Z</time>
      </trkpt>
      <trkpt lat="44.57033" lon="2.00388">
        <ele>254.8</ele>
        <time>2023-08-20T08:25:02Z</time>
      </trkpt>
      <trkpt lat="44.57044" lon="2.00382">
        <ele>254.2</ele>
        <time>2023-08-20T08:25:03Z</time>
      </trkpt>
      <trkpt lat="44.57054" lon="2.00377">
        <ele>253.8</ele>
        <time>2023-08-20T08:25:04Z</time>
      </trkpt>
      <trkpt lat="44.57064" lon="2.00373">
        <ele>253.4</ele>
        <time>2023-08-20T08:25:05Z</time>
      </trkpt>
      <trkpt lat="44.57075" lon="2.00372">
        <ele>253.2</ele>
        <time>2023-08-20T08:25:06Z</time>
      </trkpt>
      <trkpt lat="44.57085" lon="2.00374">
        <ele>252.8</ele>
        <time>2023-08-20T08:25:07Z</time>
      </trkpt>
      <trkpt lat="44.57095" lon="2.00379">
        <ele>252.4</ele>
        <time>2023-08-20T08:25:08Z</time>
      </trkpt>
      <trkpt lat="44.57103" lon="2.00387">
        <ele>251.8</ele>
        <time>2023-08-20T08:25:09Z</time>
      </trkpt>
      <trkpt lat="44.57111" lon="2.00396">
        <ele>251.2</ele>
        <time>2023-08-20T08:25:10Z</time>
      </trkpt>
      <trkpt lat="44.57116" lon="2.00405">
        <ele>251</ele>
        <time>2023-08-20T08:25:11Z</time>
      </trkpt>
      <trkpt lat="44.57119" lon="2.00418">
        <ele>250.6</ele>
        <time>2023-08-20T08:25:12Z</time>
      </trkpt>
      <trkpt lat="44.5712" lon="2.00433">
        <ele>250.6</ele>
        <time>2023-08-20T08:25:13Z</time>
      </trkpt>
      <trkpt lat="44.57119" lon="2.00448">
        <ele>250.4</ele>
        <time>2023-08-20T08:25:14Z</time>
      </trkpt>
      <trkpt lat="44.5712" lon="2.00464">
        <ele>250.4</ele>
        <time>2023-08-20T08:25:15Z</time>
      </trkpt>
      <trkpt lat="44.57119" lon="2.00479">
        <ele>250.4</ele>
        <time>2023-08-20T08:25:16Z</time>
      </trkpt>
      <trkpt lat="44.57118" lon="2.00495">
        <ele>250.4</ele>
        <time>2023-08-20T08:25:17Z</time>
      </trkpt>
      <trkpt lat="44.57117" lon="2.00576">
        <ele>250.8</ele>
        <time>2023-08-20T08:25:22Z</time>
      </trkpt>
      <trkpt lat="44.57117" lon="2.00609">
        <ele>251.4</ele>
        <time>2023-08-20T08:25:24Z</time>
      </trkpt>
      <trkpt lat="44.57116" lon="2.00625">
        <ele>251.6</ele>
        <time>2023-08-20T08:25:25Z</time>
      </trkpt>
      <trkpt lat="44.57109" lon="2.0065">
        <ele>251.8</ele>
        <time>2023-08-20T08:25:27Z</time>
      </trkpt>
      <trkpt lat="44.57103" lon="2.00657">
        <ele>251.8</ele>
        <time>2023-08-20T08:25:28Z</time>
      </trkpt>
      <trkpt lat="44.57096" lon="2.00661">
        <ele>251.8</ele>
        <time>2023-08-20T08:25:29Z</time>
      </trkpt>
      <trkpt lat="44.57085" lon="2.00661">
        <ele>252</ele>
        <time>2023-08-20T08:25:30Z</time>
      </trkpt>
      <trkpt lat="44.57075" lon="2.00663">
        <ele>252</ele>
        <time>2023-08-20T08:25:31Z</time>
      </trkpt>
      <trkpt lat="44.57064" lon="2.00664">
        <ele>252</ele>
        <time>2023-08-20T08:25:32Z</time>
      </trkpt>
      <trkpt lat="44.57051" lon="2.00666">
        <ele>252.2</ele>
        <time>2023-08-20T08:25:33Z</time>
      </trkpt>
      <trkpt lat="44.57039" lon="2.0067">
        <ele>252.4</ele>
        <time>2023-08-20T08:25:34Z</time>
      </trkpt>
      <trkpt lat="44.57026" lon="2.00676">
        <ele>252.6</ele>
        <time>2023-08-20T08:25:35Z</time>
      </trkpt>
      <trkpt lat="44.57013" lon="2.00684">
        <ele>252.8</ele>
        <time>2023-08-20T08:25:36Z</time>
      </trkpt>
      <trkpt lat="44.56984" lon="2.00705">
        <ele>253.8</ele>
        <time>2023-08-20T08:25:38Z</time>
      </trkpt>
      <trkpt lat="44.56972" lon="2.00717">
        <ele>254.6</ele>
        <time>2023-08-20T08:25:39Z</time>
      </trkpt>
      <trkpt lat="44.5695" lon="2.0074">
        <ele>255.2</ele>
        <time>2023-08-20T08:25:41Z</time>
      </trkpt>
      <trkpt lat="44.5694" lon="2.00752">
        <ele>255.2</ele>
        <time>2023-08-20T08:25:42Z</time>
      </trkpt>
      <trkpt lat="44.5693" lon="2.00763">
        <ele>255.2</ele>
        <time>2023-08-20T08:25:43Z</time>
      </trkpt>
      <trkpt lat="44.56921" lon="2.00773">
        <ele>255.2</ele>
        <time>2023-08-20T08:25:44Z</time>
      </trkpt>
      <trkpt lat="44.56912" lon="2.00783">
        <ele>255.2</ele>
        <time>2023-08-20T08:25:45Z</time>
      </trkpt>
      <trkpt lat="44.56904" lon="2.00792">
        <ele>255.2</ele>
        <time>2023-08-20T08:25:46Z</time>
      </trkpt>
      <trkpt lat="44.56898" lon="2.00799">
        <ele>255.2</ele>
        <time>2023-08-20T08:25:47Z</time>
      </trkpt>
      <trkpt lat="44.56888" lon="2.00808">
        <ele>255</ele>
        <time>2023-08-20T08:25:48Z</time>
      </trkpt>
      <trkpt lat="44.56879" lon="2.00814">
        <ele>254.6</ele>
        <time>2023-08-20T08:25:49Z</time>
      </trkpt>
      <trkpt lat="44.56868" lon="2.00818">
        <ele>254.2</ele>
        <time>2023-08-20T08:25:50Z</time>
      </trkpt>
      <trkpt lat="44.56857" lon="2.00822">
        <ele>254</ele>
        <time>2023-08-20T08:25:51Z</time>
      </trkpt>
      <trkpt lat="44.56846" lon="2.00825">
        <ele>253.6</ele>
        <time>2023-08-20T08:25:52Z</time>
      </trkpt>
      <trkpt lat="44.56834" lon="2.00829">
        <ele>253.4</ele>
        <time>2023-08-20T08:25:53Z</time>
      </trkpt>
      <trkpt lat="44.56823" lon="2.00832">
        <ele>253.2</ele>
        <time>2023-08-20T08:25:54Z</time>
      </trkpt>
      <trkpt lat="44.56812" lon="2.00835">
        <ele>253</ele>
        <time>2023-08-20T08:25:55Z</time>
      </trkpt>
      <trkpt lat="44.56802" lon="2.00839">
        <ele>252.8</ele>
        <time>2023-08-20T08:25:56Z</time>
      </trkpt>
      <trkpt lat="44.56793" lon="2.00844">
        <ele>252.8</ele>
        <time>2023-08-20T08:25:57Z</time>
      </trkpt>
      <trkpt lat="44.56785" lon="2.00851">
        <ele>252.6</ele>
        <time>2023-08-20T08:25:58Z</time>
      </trkpt>
      <trkpt lat="44.56781" lon="2.00862">
        <ele>252.6</ele>
        <time>2023-08-20T08:25:59Z</time>
      </trkpt>
      <trkpt lat="44.56778" lon="2.00874">
        <ele>252.2</ele>
        <time>2023-08-20T08:26:00Z</time>
      </trkpt>
      <trkpt lat="44.56776" lon="2.00887">
        <ele>252</ele>
        <time>2023-08-20T08:26:01Z</time>
      </trkpt>
      <trkpt lat="44.56771" lon="2.00899">
        <ele>251.8</ele>
        <time>2023-08-20T08:26:02Z</time>
      </trkpt>
      <trkpt lat="44.56764" lon="2.00909">
        <ele>251.8</ele>
        <time>2023-08-20T08:26:03Z</time>
      </trkpt>
      <trkpt lat="44.56756" lon="2.00918">
        <ele>251.4</ele>
        <time>2023-08-20T08:26:04Z</time>
      </trkpt>
      <trkpt lat="44.56746" lon="2.00927">
        <ele>251.4</ele>
        <time>2023-08-20T08:26:05Z</time>
      </trkpt>
      <trkpt lat="44.56736" lon="2.00935">
        <ele>251</ele>
        <time>2023-08-20T08:26:06Z</time>
      </trkpt>
      <trkpt lat="44.56726" lon="2.00943">
        <ele>250.8</ele>
        <time>2023-08-20T08:26:07Z</time>
      </trkpt>
      <trkpt lat="44.56682" lon="2.00966">
        <ele>250</ele>
        <time>2023-08-20T08:26:11Z</time>
      </trkpt>
      <trkpt lat="44.5667" lon="2.0097">
        <ele>249.8</ele>
        <time>2023-08-20T08:26:12Z</time>
      </trkpt>
      <trkpt lat="44.56613" lon="2.00985">
        <ele>248.8</ele>
        <time>2023-08-20T08:26:17Z</time>
      </trkpt>
      <trkpt lat="44.56566" lon="2.01011">
        <ele>248.2</ele>
        <time>2023-08-20T08:26:21Z</time>
      </trkpt>
      <trkpt lat="44.56546" lon="2.01029">
        <ele>247.8</ele>
        <time>2023-08-20T08:26:23Z</time>
      </trkpt>
      <trkpt lat="44.56536" lon="2.0104">
        <ele>247.2</ele>
        <time>2023-08-20T08:26:24Z</time>
      </trkpt>
      <trkpt lat="44.56528" lon="2.0105">
        <ele>246.6</ele>
        <time>2023-08-20T08:26:25Z</time>
      </trkpt>
      <trkpt lat="44.5652" lon="2.01062">
        <ele>246.4</ele>
        <time>2023-08-20T08:26:26Z</time>
      </trkpt>
      <trkpt lat="44.56513" lon="2.01074">
        <ele>245.8</ele>
        <time>2023-08-20T08:26:27Z</time>
      </trkpt>
      <trkpt lat="44.56506" lon="2.01087">
        <ele>245.4</ele>
        <time>2023-08-20T08:26:28Z</time>
      </trkpt>
      <trkpt lat="44.565" lon="2.01099">
        <ele>245</ele>
        <time>2023-08-20T08:26:29Z</time>
      </trkpt>
      <trkpt lat="44.56495" lon="2.01109">
        <ele>244.8</ele>
        <time>2023-08-20T08:26:30Z</time>
      </trkpt>
      <trkpt lat="44.5649" lon="2.01118">
        <ele>244.4</ele>
        <time>2023-08-20T08:26:31Z</time>
      </trkpt>
      <trkpt lat="44.56487" lon="2.01126">
        <ele>244.2</ele>
        <time>2023-08-20T08:26:32Z</time>
      </trkpt>
      <trkpt lat="44.56484" lon="2.01135">
        <ele>243.4</ele>
        <time>2023-08-20T08:26:33Z</time>
      </trkpt>
      <trkpt lat="44.56482" lon="2.01144">
        <ele>242.8</ele>
        <time>2023-08-20T08:26:34Z</time>
      </trkpt>
      <trkpt lat="44.56481" lon="2.01154">
        <ele>242.6</ele>
        <time>2023-08-20T08:26:35Z</time>
      </trkpt>
      <trkpt lat="44.56479" lon="2.01165">
        <ele>241.6</ele>
        <time>2023-08-20T08:26:36Z</time>
      </trkpt>
      <trkpt lat="44.56479" lon="2.01188">
        <ele>240.4</ele>
        <time>2023-08-20T08:26:38Z</time>
      </trkpt>
      <trkpt lat="44.5648" lon="2.012">
        <ele>240</ele>
        <time>2023-08-20T08:26:39Z</time>
      </trkpt>
      <trkpt lat="44.56486" lon="2.01234">
        <ele>239</ele>
        <time>2023-08-20T08:26:42Z</time>
      </trkpt>
      <trkpt lat="44.56493" lon="2.01256">
        <ele>238.4</ele>
        <time>2023-08-20T08:26:44Z</time>
      </trkpt>
      <trkpt lat="44.56497" lon="2.01266">
        <ele>238</ele>
        <time>2023-08-20T08:26:45Z</time>
      </trkpt>
      <trkpt lat="44.56509" lon="2.01298">
        <ele>236.8</ele>
        <time>2023-08-20T08:26:48Z</time>
      </trkpt>
      <trkpt lat="44.56516" lon="2.01321">
        <ele>235.6</ele>
        <time>2023-08-20T08:26:50Z</time>
      </trkpt>
      <trkpt lat="44.56522" lon="2.01345">
        <ele>234.4</ele>
        <time>2023-08-20T08:26:52Z</time>
      </trkpt>
      <trkpt lat="44.56529" lon="2.01369">
        <ele>233</ele>
        <time>2023-08-20T08:26:54Z</time>
      </trkpt>
      <trkpt lat="44.56531" lon="2.01381">
        <ele>232.8</ele>
        <time>2023-08-20T08:26:55Z</time>
      </trkpt>
      <trkpt lat="44.56533" lon="2.01393">
        <ele>232.2</ele>
        <time>2023-08-20T08:26:56Z</time>
      </trkpt>
      <trkpt lat="44.56535" lon="2.01405">
        <ele>231.8</ele>
        <time>2023-08-20T08:26:57Z</time>
      </trkpt>
      <trkpt lat="44.56539" lon="2.01429">
        <ele>230.4</ele>
        <time>2023-08-20T08:26:59Z</time>
      </trkpt>
      <trkpt lat="44.56547" lon="2.01462">
        <ele>229.4</ele>
        <time>2023-08-20T08:27:02Z</time>
      </trkpt>
      <trkpt lat="44.56552" lon="2.01483">
        <ele>228.4</ele>
        <time>2023-08-20T08:27:04Z</time>
      </trkpt>
      <trkpt lat="44.56554" lon="2.01493">
        <ele>227.6</ele>
        <time>2023-08-20T08:27:05Z</time>
      </trkpt>
      <trkpt lat="44.56554" lon="2.01501">
        <ele>227.4</ele>
        <time>2023-08-20T08:27:06Z</time>
      </trkpt>
      <trkpt lat="44.56552" lon="2.01512">
        <ele>227</ele>
        <time>2023-08-20T08:27:07Z</time>
      </trkpt>
      <trkpt lat="44.56548" lon="2.01521">
        <ele>226.4</ele>
        <time>2023-08-20T08:27:08Z</time>
      </trkpt>
      <trkpt lat="44.56544" lon="2.0153">
        <ele>226.2</ele>
        <time>2023-08-20T08:27:09Z</time>
      </trkpt>
      <trkpt lat="44.56539" lon="2.0154">
        <ele>225.6</ele>
        <time>2023-08-20T08:27:10Z</time>
      </trkpt>
      <trkpt lat="44.56534" lon="2.01551">
        <ele>225.2</ele>
        <time>2023-08-20T08:27:11Z</time>
      </trkpt>
      <trkpt lat="44.56524" lon="2.01575">
        <ele>224.4</ele>
        <time>2023-08-20T08:27:13Z</time>
      </trkpt>
      <trkpt lat="44.56518" lon="2.01589">
        <ele>224</ele>
        <time>2023-08-20T08:27:15Z</time>
      </trkpt>
      <trkpt lat="44.565" lon="2.01634">
        <ele>222.8</ele>
        <time>2023-08-20T08:27:18Z</time>
      </trkpt>
      <trkpt lat="44.56494" lon="2.01649">
        <ele>222.6</ele>
        <time>2023-08-20T08:27:19Z</time>
      </trkpt>
      <trkpt lat="44.56474" lon="2.01698">
        <ele>221.6</ele>
        <time>2023-08-20T08:27:22Z</time>
      </trkpt>
      <trkpt lat="44.56459" lon="2.01732">
        <ele>220.6</ele>
        <time>2023-08-20T08:27:24Z</time>
      </trkpt>
      <trkpt lat="44.56452" lon="2.01749">
        <ele>219.8</ele>
        <time>2023-08-20T08:27:25Z</time>
      </trkpt>
      <trkpt lat="44.56438" lon="2.01783">
        <ele>218.8</ele>
        <time>2023-08-20T08:27:27Z</time>
      </trkpt>
      <trkpt lat="44.56431" lon="2.018">
        <ele>218.4</ele>
        <time>2023-08-20T08:27:28Z</time>
      </trkpt>
      <trkpt lat="44.56425" lon="2.01818">
        <ele>217.2</ele>
        <time>2023-08-20T08:27:29Z</time>
      </trkpt>
      <trkpt lat="44.56421" lon="2.01854">
        <ele>215.6</ele>
        <time>2023-08-20T08:27:31Z</time>
      </trkpt>
      <trkpt lat="44.56423" lon="2.01873">
        <ele>214.2</ele>
        <time>2023-08-20T08:27:32Z</time>
      </trkpt>
      <trkpt lat="44.56426" lon="2.01891">
        <ele>213.6</ele>
        <time>2023-08-20T08:27:33Z</time>
      </trkpt>
      <trkpt lat="44.56429" lon="2.01909">
        <ele>212.6</ele>
        <time>2023-08-20T08:27:34Z</time>
      </trkpt>
      <trkpt lat="44.56433" lon="2.01928">
        <ele>212.2</ele>
        <time>2023-08-20T08:27:35Z</time>
      </trkpt>
      <trkpt lat="44.56435" lon="2.01947">
        <ele>211</ele>
        <time>2023-08-20T08:27:36Z</time>
      </trkpt>
      <trkpt lat="44.56441" lon="2.01985">
        <ele>209</ele>
        <time>2023-08-20T08:27:38Z</time>
      </trkpt>
      <trkpt lat="44.56447" lon="2.02023">
        <ele>207.6</ele>
        <time>2023-08-20T08:27:40Z</time>
      </trkpt>
      <trkpt lat="44.56449" lon="2.02042">
        <ele>207</ele>
        <time>2023-08-20T08:27:41Z</time>
      </trkpt>
      <trkpt lat="44.56451" lon="2.02062">
        <ele>206.4</ele>
        <time>2023-08-20T08:27:42Z</time>
      </trkpt>
      <trkpt lat="44.56452" lon="2.02082">
        <ele>205.4</ele>
        <time>2023-08-20T08:27:43Z</time>
      </trkpt>
      <trkpt lat="44.56455" lon="2.0212">
        <ele>204.2</ele>
        <time>2023-08-20T08:27:45Z</time>
      </trkpt>
      <trkpt lat="44.56456" lon="2.02159">
        <ele>203</ele>
        <time>2023-08-20T08:27:47Z</time>
      </trkpt>
      <trkpt lat="44.56456" lon="2.02177">
        <ele>202.6</ele>
        <time>2023-08-20T08:27:48Z</time>
      </trkpt>
      <trkpt lat="44.56454" lon="2.02194">
        <ele>201.8</ele>
        <time>2023-08-20T08:27:49Z</time>
      </trkpt>
      <trkpt lat="44.5645" lon="2.02211">
        <ele>200.8</ele>
        <time>2023-08-20T08:27:50Z</time>
      </trkpt>
      <trkpt lat="44.56445" lon="2.02226">
        <ele>200</ele>
        <time>2023-08-20T08:27:51Z</time>
      </trkpt>
      <trkpt lat="44.56439" lon="2.02241">
        <ele>198.8</ele>
        <time>2023-08-20T08:27:52Z</time>
      </trkpt>
      <trkpt lat="44.56432" lon="2.02256">
        <ele>198.4</ele>
        <time>2023-08-20T08:27:53Z</time>
      </trkpt>
      <trkpt lat="44.56426" lon="2.02272">
        <ele>197.6</ele>
        <time>2023-08-20T08:27:54Z</time>
      </trkpt>
      <trkpt lat="44.56412" lon="2.02302">
        <ele>196</ele>
        <time>2023-08-20T08:27:56Z</time>
      </trkpt>
      <trkpt lat="44.56404" lon="2.02317">
        <ele>194.8</ele>
        <time>2023-08-20T08:27:57Z</time>
      </trkpt>
      <trkpt lat="44.5639" lon="2.02348">
        <ele>193.6</ele>
        <time>2023-08-20T08:27:59Z</time>
      </trkpt>
      <trkpt lat="44.56375" lon="2.02376">
        <ele>192.2</ele>
        <time>2023-08-20T08:28:01Z</time>
      </trkpt>
      <trkpt lat="44.56367" lon="2.02387">
        <ele>191.8</ele>
        <time>2023-08-20T08:28:02Z</time>
      </trkpt>
      <trkpt lat="44.56357" lon="2.02394">
        <ele>191.2</ele>
        <time>2023-08-20T08:28:03Z</time>
      </trkpt>
      <trkpt lat="44.56347" lon="2.02398">
        <ele>190.6</ele>
        <time>2023-08-20T08:28:04Z</time>
      </trkpt>
      <trkpt lat="44.56337" lon="2.02398">
        <ele>189.4</ele>
        <time>2023-08-20T08:28:05Z</time>
      </trkpt>
      <trkpt lat="44.56326" lon="2.02395">
        <ele>188.2</ele>
        <time>2023-08-20T08:28:06Z</time>
      </trkpt>
      <trkpt lat="44.56315" lon="2.02391">
        <ele>187.6</ele>
        <time>2023-08-20T08:28:07Z</time>
      </trkpt>
      <trkpt lat="44.56302" lon="2.02387">
        <ele>186.8</ele>
        <time>2023-08-20T08:28:08Z</time>
      </trkpt>
      <trkpt lat="44.56289" lon="2.02381">
        <ele>186.4</ele>
        <time>2023-08-20T08:28:09Z</time>
      </trkpt>
      <trkpt lat="44.56276" lon="2.02376">
        <ele>185.4</ele>
        <time>2023-08-20T08:28:10Z</time>
      </trkpt>
      <trkpt lat="44.56249" lon="2.02367">
        <ele>184.4</ele>
        <time>2023-08-20T08:28:12Z</time>
      </trkpt>
      <trkpt lat="44.56223" lon="2.02361">
        <ele>183.2</ele>
        <time>2023-08-20T08:28:14Z</time>
      </trkpt>
      <trkpt lat="44.56211" lon="2.0236">
        <ele>182.6</ele>
        <time>2023-08-20T08:28:15Z</time>
      </trkpt>
      <trkpt lat="44.562" lon="2.02358">
        <ele>182.2</ele>
        <time>2023-08-20T08:28:16Z</time>
      </trkpt>
      <trkpt lat="44.5619" lon="2.02356">
        <ele>180.8</ele>
        <time>2023-08-20T08:28:17Z</time>
      </trkpt>
      <trkpt lat="44.56181" lon="2.02354">
        <ele>180.2</ele>
        <time>2023-08-20T08:28:18Z</time>
      </trkpt>
      <trkpt lat="44.56173" lon="2.02353">
        <ele>179.2</ele>
        <time>2023-08-20T08:28:19Z</time>
      </trkpt>
      <trkpt lat="44.56166" lon="2.02353">
        <ele>178.8</ele>
        <time>2023-08-20T08:28:20Z</time>
      </trkpt>
      <trkpt lat="44.56159" lon="2.02354">
        <ele>177.8</ele>
        <time>2023-08-20T08:28:21Z</time>
      </trkpt>
      <trkpt lat="44.56153" lon="2.02356">
        <ele>176.4</ele>
        <time>2023-08-20T08:28:22Z</time>
      </trkpt>
      <trkpt lat="44.56147" lon="2.02358">
        <ele>176</ele>
        <time>2023-08-20T08:28:23Z</time>
      </trkpt>
      <trkpt lat="44.56141" lon="2.0236">
        <ele>174.8</ele>
        <time>2023-08-20T08:28:24Z</time>
      </trkpt>
      <trkpt lat="44.56134" lon="2.02363">
        <ele>174.4</ele>
        <time>2023-08-20T08:28:25Z</time>
      </trkpt>
      <trkpt lat="44.56128" lon="2.02368">
        <ele>173.4</ele>
        <time>2023-08-20T08:28:26Z</time>
      </trkpt>
      <trkpt lat="44.56112" lon="2.02382">
        <ele>172.2</ele>
        <time>2023-08-20T08:28:29Z</time>
      </trkpt>
      <trkpt lat="44.56107" lon="2.02386">
        <ele>171.4</ele>
        <time>2023-08-20T08:28:30Z</time>
      </trkpt>
      <trkpt lat="44.56103" lon="2.0239">
        <ele>170.8</ele>
        <time>2023-08-20T08:28:31Z</time>
      </trkpt>
      <trkpt lat="44.56098" lon="2.02393">
        <ele>170.6</ele>
        <time>2023-08-20T08:28:32Z</time>
      </trkpt>
      <trkpt lat="44.56094" lon="2.02397">
        <ele>170</ele>
        <time>2023-08-20T08:28:33Z</time>
      </trkpt>
      <trkpt lat="44.5609" lon="2.02401">
        <ele>169.8</ele>
        <time>2023-08-20T08:28:34Z</time>
      </trkpt>
      <trkpt lat="44.56087" lon="2.02404">
        <ele>169.4</ele>
        <time>2023-08-20T08:28:35Z</time>
      </trkpt>
      <trkpt lat="44.56085" lon="2.02407">
        <ele>169.4</ele>
        <time>2023-08-20T08:28:36Z</time>
      </trkpt>
      <trkpt lat="44.56082" lon="2.02409">
        <ele>169.2</ele>
        <time>2023-08-20T08:28:37Z</time>
      </trkpt>
      <trkpt lat="44.5608" lon="2.0241">
        <ele>169.2</ele>
        <time>2023-08-20T08:28:38Z</time>
      </trkpt>
      <trkpt lat="44.56078" lon="2.02412">
        <ele>169</ele>
        <time>2023-08-20T08:28:39Z</time>
      </trkpt>
      <trkpt lat="44.56077" lon="2.02413">
        <ele>168.8</ele>
        <time>2023-08-20T08:28:40Z</time>
      </trkpt>
      <trkpt lat="44.56076" lon="2.02414">
        <ele>169</ele>
        <time>2023-08-20T08:28:41Z</time>
      </trkpt>
      <trkpt lat="44.56076" lon="2.02414">
        <ele>169</ele>
        <time>2023-08-20T08:28:42Z</time>
      </trkpt>
      <trkpt lat="44.56076" lon="2.02414">
        <ele>169</ele>
        <time>2023-08-20T08:28:43Z</time>
      </trkpt>
      <trkpt lat="44.56073" lon="2.0242">
        <ele>169.2</ele>
        <time>2023-08-20T08:28:54Z</time>
      </trkpt>
      <trkpt lat="44.56072" lon="2.02423">
        <ele>169</ele>
        <time>2023-08-20T08:28:55Z</time>
      </trkpt>
      <trkpt lat="44.56072" lon="2.02427">
        <ele>169</ele>
        <time>2023-08-20T08:28:56Z</time>
      </trkpt>
      <trkpt lat="44.56072" lon="2.0243">
        <ele>169</ele>
        <time>2023-08-20T08:28:57Z</time>
      </trkpt>
      <trkpt lat="44.56074" lon="2.02434">
        <ele>169</ele>
        <time>2023-08-20T08:28:58Z</time>
      </trkpt>
      <trkpt lat="44.56076" lon="2.02437">
        <ele>169</ele>
        <time>2023-08-20T08:28:59Z</time>
      </trkpt>
      <trkpt lat="44.5609" lon="2.02442">
        <ele>168.8</ele>
        <time>2023-08-20T08:29:02Z</time>
      </trkpt>
      <trkpt lat="44.56114" lon="2.02457">
        <ele>169.2</ele>
        <time>2023-08-20T08:29:06Z</time>
      </trkpt>
      <trkpt lat="44.56125" lon="2.02465">
        <ele>169.8</ele>
        <time>2023-08-20T08:29:08Z</time>
      </trkpt>
      <trkpt lat="44.5613" lon="2.02469">
        <ele>170.6</ele>
        <time>2023-08-20T08:29:09Z</time>
      </trkpt>
      <trkpt lat="44.56136" lon="2.02473">
        <ele>171</ele>
        <time>2023-08-20T08:29:10Z</time>
      </trkpt>
      <trkpt lat="44.56146" lon="2.02479">
        <ele>172.6</ele>
        <time>2023-08-20T08:29:12Z</time>
      </trkpt>
      <trkpt lat="44.56149" lon="2.02481">
        <ele>173</ele>
        <time>2023-08-20T08:29:13Z</time>
      </trkpt>
      <trkpt lat="44.56152" lon="2.02483">
        <ele>174</ele>
        <time>2023-08-20T08:29:14Z</time>
      </trkpt>
      <trkpt lat="44.56154" lon="2.02483">
        <ele>174.4</ele>
        <time>2023-08-20T08:29:15Z</time>
      </trkpt>
      <trkpt lat="44.56155" lon="2.02484">
        <ele>175</ele>
        <time>2023-08-20T08:29:16Z</time>
      </trkpt>
      <trkpt lat="44.56155" lon="2.02484">
        <ele>175.6</ele>
        <time>2023-08-20T08:29:17Z</time>
      </trkpt>
      <trkpt lat="44.56155" lon="2.02484">
        <ele>176</ele>
        <time>2023-08-20T08:29:18Z</time>
      </trkpt>
      <trkpt lat="44.56164" lon="2.02485">
        <ele>178.2</ele>
        <time>2023-08-20T08:30:42Z</time>
      </trkpt>
      <trkpt lat="44.56188" lon="2.02497">
        <ele>178.4</ele>
        <time>2023-08-20T08:30:46Z</time>
      </trkpt>
      <trkpt lat="44.56213" lon="2.02514">
        <ele>179.6</ele>
        <time>2023-08-20T08:30:49Z</time>
      </trkpt>
      <trkpt lat="44.56221" lon="2.0252">
        <ele>180</ele>
        <time>2023-08-20T08:30:50Z</time>
      </trkpt>
      <trkpt lat="44.5623" lon="2.02528">
        <ele>180.6</ele>
        <time>2023-08-20T08:30:51Z</time>
      </trkpt>
      <trkpt lat="44.56238" lon="2.02536">
        <ele>181.8</ele>
        <time>2023-08-20T08:30:52Z</time>
      </trkpt>
      <trkpt lat="44.56246" lon="2.02545">
        <ele>182.4</ele>
        <time>2023-08-20T08:30:53Z</time>
      </trkpt>
      <trkpt lat="44.56253" lon="2.02554">
        <ele>183.6</ele>
        <time>2023-08-20T08:30:54Z</time>
      </trkpt>
      <trkpt lat="44.56259" lon="2.02564">
        <ele>184.4</ele>
        <time>2023-08-20T08:30:55Z</time>
      </trkpt>
      <trkpt lat="44.56265" lon="2.02575">
        <ele>185.8</ele>
        <time>2023-08-20T08:30:56Z</time>
      </trkpt>
      <trkpt lat="44.56269" lon="2.02586">
        <ele>186.4</ele>
        <time>2023-08-20T08:30:57Z</time>
      </trkpt>
      <trkpt lat="44.56273" lon="2.02596">
        <ele>187.2</ele>
        <time>2023-08-20T08:30:58Z</time>
      </trkpt>
      <trkpt lat="44.56276" lon="2.02606">
        <ele>188</ele>
        <time>2023-08-20T08:30:59Z</time>
      </trkpt>
      <trkpt lat="44.56279" lon="2.02613">
        <ele>188.8</ele>
        <time>2023-08-20T08:31:00Z</time>
      </trkpt>
      <trkpt lat="44.56281" lon="2.02619">
        <ele>189.6</ele>
        <time>2023-08-20T08:31:01Z</time>
      </trkpt>
      <trkpt lat="44.56282" lon="2.02624">
        <ele>190</ele>
        <time>2023-08-20T08:31:02Z</time>
      </trkpt>
      <trkpt lat="44.56284" lon="2.02628">
        <ele>190.2</ele>
        <time>2023-08-20T08:31:03Z</time>
      </trkpt>
      <trkpt lat="44.56286" lon="2.0263">
        <ele>190.4</ele>
        <time>2023-08-20T08:31:04Z</time>
      </trkpt>
      <trkpt lat="44.56287" lon="2.02631">
        <ele>190.6</ele>
        <time>2023-08-20T08:31:05Z</time>
      </trkpt>
      <trkpt lat="44.56287" lon="2.02631">
        <ele>190.6</ele>
        <time>2023-08-20T08:31:06Z</time>
      </trkpt>
      <trkpt lat="44.5629" lon="2.02634">
        <ele>190</ele>
        <time>2023-08-20T08:31:36Z</time>
      </trkpt>
      <trkpt lat="44.56296" lon="2.02638">
        <ele>190</ele>
        <time>2023-08-20T08:31:37Z</time>
      </trkpt>
      <trkpt lat="44.56315" lon="2.02653">
        <ele>190.2</ele>
        <time>2023-08-20T08:31:39Z</time>
      </trkpt>
      <trkpt lat="44.56329" lon="2.02662">
        <ele>190.4</ele>
        <time>2023-08-20T08:31:40Z</time>
      </trkpt>
      <trkpt lat="44.56343" lon="2.0267">
        <ele>191</ele>
        <time>2023-08-20T08:31:41Z</time>
      </trkpt>
      <trkpt lat="44.56358" lon="2.02676">
        <ele>191.6</ele>
        <time>2023-08-20T08:31:42Z</time>
      </trkpt>
      <trkpt lat="44.56373" lon="2.02679">
        <ele>192.2</ele>
        <time>2023-08-20T08:31:43Z</time>
      </trkpt>
      <trkpt lat="44.56399" lon="2.02682">
        <ele>193.4</ele>
        <time>2023-08-20T08:31:45Z</time>
      </trkpt>
      <trkpt lat="44.56411" lon="2.02683">
        <ele>194.2</ele>
        <time>2023-08-20T08:31:46Z</time>
      </trkpt>
      <trkpt lat="44.56423" lon="2.02683">
        <ele>194.6</ele>
        <time>2023-08-20T08:31:47Z</time>
      </trkpt>
      <trkpt lat="44.56436" lon="2.02685">
        <ele>194.8</ele>
        <time>2023-08-20T08:31:48Z</time>
      </trkpt>
      <trkpt lat="44.5645" lon="2.02686">
        <ele>195.2</ele>
        <time>2023-08-20T08:31:49Z</time>
      </trkpt>
      <trkpt lat="44.56463" lon="2.02687">
        <ele>195.4</ele>
        <time>2023-08-20T08:31:50Z</time>
      </trkpt>
      <trkpt lat="44.56477" lon="2.02688">
        <ele>195.6</ele>
        <time>2023-08-20T08:31:51Z</time>
      </trkpt>
      <trkpt lat="44.56491" lon="2.02688">
        <ele>195.6</ele>
        <time>2023-08-20T08:31:52Z</time>
      </trkpt>
      <trkpt lat="44.56504" lon="2.02688">
        <ele>195.8</ele>
        <time>2023-08-20T08:31:53Z</time>
      </trkpt>
      <trkpt lat="44.56517" lon="2.02688">
        <ele>195.8</ele>
        <time>2023-08-20T08:31:54Z</time>
      </trkpt>
      <trkpt lat="44.56529" lon="2.02688">
        <ele>196</ele>
        <time>2023-08-20T08:31:55Z</time>
      </trkpt>
      <trkpt lat="44.56542" lon="2.02689">
        <ele>196.2</ele>
        <time>2023-08-20T08:31:56Z</time>
      </trkpt>
      <trkpt lat="44.56556" lon="2.02689">
        <ele>196.2</ele>
        <time>2023-08-20T08:31:57Z</time>
      </trkpt>
      <trkpt lat="44.5657" lon="2.02689">
        <ele>196.6</ele>
        <time>2023-08-20T08:31:58Z</time>
      </trkpt>
      <trkpt lat="44.56583" lon="2.02689">
        <ele>196.8</ele>
        <time>2023-08-20T08:31:59Z</time>
      </trkpt>
      <trkpt lat="44.56596" lon="2.0269">
        <ele>197.2</ele>
        <time>2023-08-20T08:32:00Z</time>
      </trkpt>
      <trkpt lat="44.5661" lon="2.0269">
        <ele>197.4</ele>
        <time>2023-08-20T08:32:01Z</time>
      </trkpt>
      <trkpt lat="44.56623" lon="2.02691">
        <ele>197.8</ele>
        <time>2023-08-20T08:32:02Z</time>
      </trkpt>
      <trkpt lat="44.56637" lon="2.02691">
        <ele>198</ele>
        <time>2023-08-20T08:32:03Z</time>
      </trkpt>
      <trkpt lat="44.56651" lon="2.02691">
        <ele>198.6</ele>
        <time>2023-08-20T08:32:04Z</time>
      </trkpt>
      <trkpt lat="44.56665" lon="2.02692">
        <ele>198.8</ele>
        <time>2023-08-20T08:32:05Z</time>
      </trkpt>
      <trkpt lat="44.5668" lon="2.02692">
        <ele>199.2</ele>
        <time>2023-08-20T08:32:06Z</time>
      </trkpt>
      <trkpt lat="44.56696" lon="2.02693">
        <ele>200</ele>
        <time>2023-08-20T08:32:07Z</time>
      </trkpt>
      <trkpt lat="44.56713" lon="2.02693">
        <ele>200.4</ele>
        <time>2023-08-20T08:32:08Z</time>
      </trkpt>
      <trkpt lat="44.56729" lon="2.02694">
        <ele>200.8</ele>
        <time>2023-08-20T08:32:09Z</time>
      </trkpt>
      <trkpt lat="44.56746" lon="2.02695">
        <ele>201.4</ele>
        <time>2023-08-20T08:32:10Z</time>
      </trkpt>
      <trkpt lat="44.56762" lon="2.02696">
        <ele>202.4</ele>
        <time>2023-08-20T08:32:11Z</time>
      </trkpt>
      <trkpt lat="44.56778" lon="2.02697">
        <ele>203</ele>
        <time>2023-08-20T08:32:12Z</time>
      </trkpt>
      <trkpt lat="44.56794" lon="2.02698">
        <ele>204.4</ele>
        <time>2023-08-20T08:32:13Z</time>
      </trkpt>
      <trkpt lat="44.56809" lon="2.02698">
        <ele>205</ele>
        <time>2023-08-20T08:32:14Z</time>
      </trkpt>
      <trkpt lat="44.56824" lon="2.02698">
        <ele>206.4</ele>
        <time>2023-08-20T08:32:15Z</time>
      </trkpt>
      <trkpt lat="44.56838" lon="2.02698">
        <ele>207.8</ele>
        <time>2023-08-20T08:32:16Z</time>
      </trkpt>
      <trkpt lat="44.56853" lon="2.02697">
        <ele>208.4</ele>
        <time>2023-08-20T08:32:17Z</time>
      </trkpt>
      <trkpt lat="44.56867" lon="2.02696">
        <ele>209</ele>
        <time>2023-08-20T08:32:18Z</time>
      </trkpt>
      <trkpt lat="44.56881" lon="2.02695">
        <ele>209.8</ele>
        <time>2023-08-20T08:32:19Z</time>
      </trkpt>
      <trkpt lat="44.56895" lon="2.02692">
        <ele>210.8</ele>
        <time>2023-08-20T08:32:20Z</time>
      </trkpt>
      <trkpt lat="44.56909" lon="2.02689">
        <ele>211.6</ele>
        <time>2023-08-20T08:32:21Z</time>
      </trkpt>
      <trkpt lat="44.56923" lon="2.02686">
        <ele>212.8</ele>
        <time>2023-08-20T08:32:22Z</time>
      </trkpt>
      <trkpt lat="44.56937" lon="2.02681">
        <ele>214.2</ele>
        <time>2023-08-20T08:32:23Z</time>
      </trkpt>
      <trkpt lat="44.56951" lon="2.02676">
        <ele>215</ele>
        <time>2023-08-20T08:32:24Z</time>
      </trkpt>
      <trkpt lat="44.56965" lon="2.02671">
        <ele>216.6</ele>
        <time>2023-08-20T08:32:25Z</time>
      </trkpt>
      <trkpt lat="44.5698" lon="2.02665">
        <ele>217.6</ele>
        <time>2023-08-20T08:32:26Z</time>
      </trkpt>
      <trkpt lat="44.56995" lon="2.02659">
        <ele>219.2</ele>
        <time>2023-08-20T08:32:27Z</time>
      </trkpt>
      <trkpt lat="44.57009" lon="2.02653">
        <ele>219.8</ele>
        <time>2023-08-20T08:32:28Z</time>
      </trkpt>
      <trkpt lat="44.57023" lon="2.02647">
        <ele>221.8</ele>
        <time>2023-08-20T08:32:29Z</time>
      </trkpt>
      <trkpt lat="44.57037" lon="2.0264">
        <ele>222.6</ele>
        <time>2023-08-20T08:32:30Z</time>
      </trkpt>
      <trkpt lat="44.57051" lon="2.02634">
        <ele>224.4</ele>
        <time>2023-08-20T08:32:31Z</time>
      </trkpt>
      <trkpt lat="44.57065" lon="2.02628">
        <ele>225.6</ele>
        <time>2023-08-20T08:32:32Z</time>
      </trkpt>
      <trkpt lat="44.57078" lon="2.02622">
        <ele>226.2</ele>
        <time>2023-08-20T08:32:33Z</time>
      </trkpt>
      <trkpt lat="44.57091" lon="2.02617">
        <ele>228</ele>
        <time>2023-08-20T08:32:34Z</time>
      </trkpt>
      <trkpt lat="44.57104" lon="2.02611">
        <ele>229</ele>
        <time>2023-08-20T08:32:35Z</time>
      </trkpt>
      <trkpt lat="44.57117" lon="2.02605">
        <ele>230.4</ele>
        <time>2023-08-20T08:32:36Z</time>
      </trkpt>
      <trkpt lat="44.57131" lon="2.02599">
        <ele>231.2</ele>
        <time>2023-08-20T08:32:37Z</time>
      </trkpt>
      <trkpt lat="44.57145" lon="2.02593">
        <ele>232.6</ele>
        <time>2023-08-20T08:32:38Z</time>
      </trkpt>
      <trkpt lat="44.57159" lon="2.02587">
        <ele>233.2</ele>
        <time>2023-08-20T08:32:39Z</time>
      </trkpt>
      <trkpt lat="44.57173" lon="2.02581">
        <ele>234.8</ele>
        <time>2023-08-20T08:32:40Z</time>
      </trkpt>
      <trkpt lat="44.57187" lon="2.02574">
        <ele>235.8</ele>
        <time>2023-08-20T08:32:41Z</time>
      </trkpt>
      <trkpt lat="44.57201" lon="2.02568">
        <ele>237</ele>
        <time>2023-08-20T08:32:42Z</time>
      </trkpt>
      <trkpt lat="44.57216" lon="2.02562">
        <ele>238.8</ele>
        <time>2023-08-20T08:32:43Z</time>
      </trkpt>
      <trkpt lat="44.57245" lon="2.02552">
        <ele>241.4</ele>
        <time>2023-08-20T08:32:45Z</time>
      </trkpt>
      <trkpt lat="44.57259" lon="2.0255">
        <ele>242.4</ele>
        <time>2023-08-20T08:32:46Z</time>
      </trkpt>
      <trkpt lat="44.57274" lon="2.02551">
        <ele>244</ele>
        <time>2023-08-20T08:32:47Z</time>
      </trkpt>
      <trkpt lat="44.57288" lon="2.02556">
        <ele>245.4</ele>
        <time>2023-08-20T08:32:48Z</time>
      </trkpt>
      <trkpt lat="44.57302" lon="2.02563">
        <ele>246.4</ele>
        <time>2023-08-20T08:32:49Z</time>
      </trkpt>
      <trkpt lat="44.57313" lon="2.02576">
        <ele>248.2</ele>
        <time>2023-08-20T08:32:50Z</time>
      </trkpt>
      <trkpt lat="44.57323" lon="2.02592">
        <ele>249</ele>
        <time>2023-08-20T08:32:51Z</time>
      </trkpt>
      <trkpt lat="44.57334" lon="2.02609">
        <ele>250.8</ele>
        <time>2023-08-20T08:32:52Z</time>
      </trkpt>
      <trkpt lat="44.57345" lon="2.02625">
        <ele>251.6</ele>
        <time>2023-08-20T08:32:53Z</time>
      </trkpt>
      <trkpt lat="44.57357" lon="2.02639">
        <ele>253</ele>
        <time>2023-08-20T08:32:54Z</time>
      </trkpt>
      <trkpt lat="44.57384" lon="2.02665">
        <ele>255.8</ele>
        <time>2023-08-20T08:32:56Z</time>
      </trkpt>
      <trkpt lat="44.57398" lon="2.02674">
        <ele>257.8</ele>
        <time>2023-08-20T08:32:57Z</time>
      </trkpt>
      <trkpt lat="44.57409" lon="2.02678">
        <ele>258.6</ele>
        <time>2023-08-20T08:32:58Z</time>
      </trkpt>
      <trkpt lat="44.57428" lon="2.02679">
        <ele>260.2</ele>
        <time>2023-08-20T08:32:59Z</time>
      </trkpt>
      <trkpt lat="44.57444" lon="2.02674">
        <ele>261</ele>
        <time>2023-08-20T08:33:00Z</time>
      </trkpt>
      <trkpt lat="44.5746" lon="2.02669">
        <ele>262.2</ele>
        <time>2023-08-20T08:33:01Z</time>
      </trkpt>
      <trkpt lat="44.57476" lon="2.02662">
        <ele>262.6</ele>
        <time>2023-08-20T08:33:02Z</time>
      </trkpt>
      <trkpt lat="44.57491" lon="2.02656">
        <ele>264.2</ele>
        <time>2023-08-20T08:33:03Z</time>
      </trkpt>
      <trkpt lat="44.57506" lon="2.02651">
        <ele>265.4</ele>
        <time>2023-08-20T08:33:04Z</time>
      </trkpt>
      <trkpt lat="44.57536" lon="2.02641">
        <ele>267</ele>
        <time>2023-08-20T08:33:06Z</time>
      </trkpt>
      <trkpt lat="44.57551" lon="2.02638">
        <ele>267.6</ele>
        <time>2023-08-20T08:33:07Z</time>
      </trkpt>
      <trkpt lat="44.57566" lon="2.02637">
        <ele>268.2</ele>
        <time>2023-08-20T08:33:08Z</time>
      </trkpt>
      <trkpt lat="44.57594" lon="2.02637">
        <ele>269.6</ele>
        <time>2023-08-20T08:33:10Z</time>
      </trkpt>
      <trkpt lat="44.57608" lon="2.02637">
        <ele>269.8</ele>
        <time>2023-08-20T08:33:11Z</time>
      </trkpt>
      <trkpt lat="44.57622" lon="2.02637">
        <ele>270.6</ele>
        <time>2023-08-20T08:33:12Z</time>
      </trkpt>
      <trkpt lat="44.57635" lon="2.02638">
        <ele>271.8</ele>
        <time>2023-08-20T08:33:13Z</time>
      </trkpt>
      <trkpt lat="44.57649" lon="2.02638">
        <ele>272.4</ele>
        <time>2023-08-20T08:33:14Z</time>
      </trkpt>
      <trkpt lat="44.57662" lon="2.0264">
        <ele>273.2</ele>
        <time>2023-08-20T08:33:15Z</time>
      </trkpt>
      <trkpt lat="44.5769" lon="2.02646">
        <ele>275</ele>
        <time>2023-08-20T08:33:17Z</time>
      </trkpt>
      <trkpt lat="44.57704" lon="2.02652">
        <ele>275.6</ele>
        <time>2023-08-20T08:33:18Z</time>
      </trkpt>
      <trkpt lat="44.57718" lon="2.02659">
        <ele>277</ele>
        <time>2023-08-20T08:33:19Z</time>
      </trkpt>
      <trkpt lat="44.57732" lon="2.02669">
        <ele>278</ele>
        <time>2023-08-20T08:33:20Z</time>
      </trkpt>
      <trkpt lat="44.57745" lon="2.02681">
        <ele>279.4</ele>
        <time>2023-08-20T08:33:21Z</time>
      </trkpt>
      <trkpt lat="44.57755" lon="2.02691">
        <ele>281.4</ele>
        <time>2023-08-20T08:33:22Z</time>
      </trkpt>
      <trkpt lat="44.57769" lon="2.02708">
        <ele>282.2</ele>
        <time>2023-08-20T08:33:23Z</time>
      </trkpt>
      <trkpt lat="44.57779" lon="2.02724">
        <ele>284.4</ele>
        <time>2023-08-20T08:33:24Z</time>
      </trkpt>
      <trkpt lat="44.57785" lon="2.02739">
        <ele>285.4</ele>
        <time>2023-08-20T08:33:25Z</time>
      </trkpt>
      <trkpt lat="44.57792" lon="2.02758">
        <ele>287</ele>
        <time>2023-08-20T08:33:26Z</time>
      </trkpt>
      <trkpt lat="44.57798" lon="2.02778">
        <ele>288</ele>
        <time>2023-08-20T08:33:27Z</time>
      </trkpt>
      <trkpt lat="44.57808" lon="2.02802">
        <ele>289.8</ele>
        <time>2023-08-20T08:33:28Z</time>
      </trkpt>
      <trkpt lat="44.57816" lon="2.0282">
        <ele>291.6</ele>
        <time>2023-08-20T08:33:29Z</time>
      </trkpt>
      <trkpt lat="44.57835" lon="2.02854">
        <ele>294.2</ele>
        <time>2023-08-20T08:33:31Z</time>
      </trkpt>
      <trkpt lat="44.57846" lon="2.02868">
        <ele>295</ele>
        <time>2023-08-20T08:33:32Z</time>
      </trkpt>
      <trkpt lat="44.57858" lon="2.02879">
        <ele>296.4</ele>
        <time>2023-08-20T08:33:33Z</time>
      </trkpt>
      <trkpt lat="44.57871" lon="2.02889">
        <ele>297</ele>
        <time>2023-08-20T08:33:34Z</time>
      </trkpt>
      <trkpt lat="44.57885" lon="2.02897">
        <ele>298.4</ele>
        <time>2023-08-20T08:33:35Z</time>
      </trkpt>
      <trkpt lat="44.57914" lon="2.02912">
        <ele>300</ele>
        <time>2023-08-20T08:33:37Z</time>
      </trkpt>
      <trkpt lat="44.57945" lon="2.02925">
        <ele>300.8</ele>
        <time>2023-08-20T08:33:39Z</time>
      </trkpt>
      <trkpt lat="44.57961" lon="2.0293">
        <ele>301.8</ele>
        <time>2023-08-20T08:33:40Z</time>
      </trkpt>
      <trkpt lat="44.57994" lon="2.02936">
        <ele>303</ele>
        <time>2023-08-20T08:33:42Z</time>
      </trkpt>
      <trkpt lat="44.58029" lon="2.02935">
        <ele>304.2</ele>
        <time>2023-08-20T08:33:44Z</time>
      </trkpt>
      <trkpt lat="44.58063" lon="2.02929">
        <ele>305.6</ele>
        <time>2023-08-20T08:33:46Z</time>
      </trkpt>
      <trkpt lat="44.58095" lon="2.02919">
        <ele>307.2</ele>
        <time>2023-08-20T08:33:48Z</time>
      </trkpt>
      <trkpt lat="44.58111" lon="2.02913">
        <ele>308.2</ele>
        <time>2023-08-20T08:33:49Z</time>
      </trkpt>
      <trkpt lat="44.58126" lon="2.02905">
        <ele>308.6</ele>
        <time>2023-08-20T08:33:50Z</time>
      </trkpt>
      <trkpt lat="44.58142" lon="2.02896">
        <ele>309.6</ele>
        <time>2023-08-20T08:33:51Z</time>
      </trkpt>
      <trkpt lat="44.58157" lon="2.02887">
        <ele>310</ele>
        <time>2023-08-20T08:33:52Z</time>
      </trkpt>
      <trkpt lat="44.58172" lon="2.02878">
        <ele>310.8</ele>
        <time>2023-08-20T08:33:53Z</time>
      </trkpt>
      <trkpt lat="44.58188" lon="2.02868">
        <ele>311</ele>
        <time>2023-08-20T08:33:54Z</time>
      </trkpt>
      <trkpt lat="44.58204" lon="2.02859">
        <ele>311.6</ele>
        <time>2023-08-20T08:33:55Z</time>
      </trkpt>
      <trkpt lat="44.5822" lon="2.02851">
        <ele>312.2</ele>
        <time>2023-08-20T08:33:56Z</time>
      </trkpt>
      <trkpt lat="44.58235" lon="2.02844">
        <ele>312.6</ele>
        <time>2023-08-20T08:33:57Z</time>
      </trkpt>
      <trkpt lat="44.58251" lon="2.0284">
        <ele>313.4</ele>
        <time>2023-08-20T08:33:58Z</time>
      </trkpt>
      <trkpt lat="44.58268" lon="2.02839">
        <ele>314</ele>
        <time>2023-08-20T08:33:59Z</time>
      </trkpt>
      <trkpt lat="44.58283" lon="2.0284">
        <ele>314.6</ele>
        <time>2023-08-20T08:34:00Z</time>
      </trkpt>
      <trkpt lat="44.58299" lon="2.02842">
        <ele>315</ele>
        <time>2023-08-20T08:34:01Z</time>
      </trkpt>
      <trkpt lat="44.58314" lon="2.02847">
        <ele>315.8</ele>
        <time>2023-08-20T08:34:02Z</time>
      </trkpt>
      <trkpt lat="44.58329" lon="2.02852">
        <ele>316.6</ele>
        <time>2023-08-20T08:34:03Z</time>
      </trkpt>
      <trkpt lat="44.58341" lon="2.02856">
        <ele>316.8</ele>
        <time>2023-08-20T08:34:04Z</time>
      </trkpt>
      <trkpt lat="44.58357" lon="2.02861">
        <ele>317.6</ele>
        <time>2023-08-20T08:34:05Z</time>
      </trkpt>
      <trkpt lat="44.58375" lon="2.02866">
        <ele>318.4</ele>
        <time>2023-08-20T08:34:06Z</time>
      </trkpt>
      <trkpt lat="44.5839" lon="2.0287">
        <ele>319.6</ele>
        <time>2023-08-20T08:34:07Z</time>
      </trkpt>
      <trkpt lat="44.58403" lon="2.02872">
        <ele>320</ele>
        <time>2023-08-20T08:34:08Z</time>
      </trkpt>
      <trkpt lat="44.58419" lon="2.02874">
        <ele>321.2</ele>
        <time>2023-08-20T08:34:09Z</time>
      </trkpt>
      <trkpt lat="44.58435" lon="2.02875">
        <ele>321.8</ele>
        <time>2023-08-20T08:34:10Z</time>
      </trkpt>
      <trkpt lat="44.58455" lon="2.02877">
        <ele>323</ele>
        <time>2023-08-20T08:34:11Z</time>
      </trkpt>
      <trkpt lat="44.58471" lon="2.02879">
        <ele>324</ele>
        <time>2023-08-20T08:34:12Z</time>
      </trkpt>
      <trkpt lat="44.58487" lon="2.02881">
        <ele>324.8</ele>
        <time>2023-08-20T08:34:13Z</time>
      </trkpt>
      <trkpt lat="44.58502" lon="2.02885">
        <ele>326</ele>
        <time>2023-08-20T08:34:14Z</time>
      </trkpt>
      <trkpt lat="44.58517" lon="2.02892">
        <ele>326.6</ele>
        <time>2023-08-20T08:34:15Z</time>
      </trkpt>
      <trkpt lat="44.58531" lon="2.02901">
        <ele>327.4</ele>
        <time>2023-08-20T08:34:16Z</time>
      </trkpt>
      <trkpt lat="44.58544" lon="2.02913">
        <ele>327.8</ele>
        <time>2023-08-20T08:34:17Z</time>
      </trkpt>
      <trkpt lat="44.58554" lon="2.02928">
        <ele>328.4</ele>
        <time>2023-08-20T08:34:18Z</time>
      </trkpt>
      <trkpt lat="44.58563" lon="2.02945">
        <ele>328.6</ele>
        <time>2023-08-20T08:34:19Z</time>
      </trkpt>
      <trkpt lat="44.58569" lon="2.02963">
        <ele>329.4</ele>
        <time>2023-08-20T08:34:20Z</time>
      </trkpt>
      <trkpt lat="44.58574" lon="2.02983">
        <ele>330.4</ele>
        <time>2023-08-20T08:34:21Z</time>
      </trkpt>
      <trkpt lat="44.58578" lon="2.03004">
        <ele>331</ele>
        <time>2023-08-20T08:34:22Z</time>
      </trkpt>
      <trkpt lat="44.5858" lon="2.03025">
        <ele>332.4</ele>
        <time>2023-08-20T08:34:23Z</time>
      </trkpt>
      <trkpt lat="44.58582" lon="2.03046">
        <ele>332.8</ele>
        <time>2023-08-20T08:34:24Z</time>
      </trkpt>
      <trkpt lat="44.58583" lon="2.03066">
        <ele>333.8</ele>
        <time>2023-08-20T08:34:25Z</time>
      </trkpt>
      <trkpt lat="44.58584" lon="2.03084">
        <ele>334.2</ele>
        <time>2023-08-20T08:34:26Z</time>
      </trkpt>
      <trkpt lat="44.58584" lon="2.03099">
        <ele>335.4</ele>
        <time>2023-08-20T08:34:27Z</time>
      </trkpt>
      <trkpt lat="44.58585" lon="2.03116">
        <ele>336.4</ele>
        <time>2023-08-20T08:34:28Z</time>
      </trkpt>
      <trkpt lat="44.58585" lon="2.03133">
        <ele>336.8</ele>
        <time>2023-08-20T08:34:29Z</time>
      </trkpt>
      <trkpt lat="44.58586" lon="2.03153">
        <ele>337.4</ele>
        <time>2023-08-20T08:34:30Z</time>
      </trkpt>
      <trkpt lat="44.58587" lon="2.03168">
        <ele>337.6</ele>
        <time>2023-08-20T08:34:31Z</time>
      </trkpt>
      <trkpt lat="44.58588" lon="2.03179">
        <ele>338.2</ele>
        <time>2023-08-20T08:34:32Z</time>
      </trkpt>
      <trkpt lat="44.58589" lon="2.03195">
        <ele>338.4</ele>
        <time>2023-08-20T08:34:33Z</time>
      </trkpt>
      <trkpt lat="44.5859" lon="2.03207">
        <ele>338.6</ele>
        <time>2023-08-20T08:34:34Z</time>
      </trkpt>
      <trkpt lat="44.58591" lon="2.03218">
        <ele>338.6</ele>
        <time>2023-08-20T08:34:35Z</time>
      </trkpt>
      <trkpt lat="44.58592" lon="2.0323">
        <ele>338.6</ele>
        <time>2023-08-20T08:34:36Z</time>
      </trkpt>
      <trkpt lat="44.58593" lon="2.0324">
        <ele>338.6</ele>
        <time>2023-08-20T08:34:37Z</time>
      </trkpt>
      <trkpt lat="44.58596" lon="2.0325">
        <ele>338.8</ele>
        <time>2023-08-20T08:34:38Z</time>
      </trkpt>
      <trkpt lat="44.58601" lon="2.03257">
        <ele>338.8</ele>
        <time>2023-08-20T08:34:39Z</time>
      </trkpt>
      <trkpt lat="44.58609" lon="2.03263">
        <ele>338.8</ele>
        <time>2023-08-20T08:34:40Z</time>
      </trkpt>
      <trkpt lat="44.58619" lon="2.03269">
        <ele>338.8</ele>
        <time>2023-08-20T08:34:41Z</time>
      </trkpt>
      <trkpt lat="44.58629" lon="2.03277">
        <ele>338.8</ele>
        <time>2023-08-20T08:34:42Z</time>
      </trkpt>
      <trkpt lat="44.5864" lon="2.03286">
        <ele>339</ele>
        <time>2023-08-20T08:34:43Z</time>
      </trkpt>
      <trkpt lat="44.58652" lon="2.03296">
        <ele>339</ele>
        <time>2023-08-20T08:34:44Z</time>
      </trkpt>
      <trkpt lat="44.58664" lon="2.03305">
        <ele>339.2</ele>
        <time>2023-08-20T08:34:45Z</time>
      </trkpt>
      <trkpt lat="44.58678" lon="2.03313">
        <ele>339.6</ele>
        <time>2023-08-20T08:34:46Z</time>
      </trkpt>
      <trkpt lat="44.58692" lon="2.03319">
        <ele>340</ele>
        <time>2023-08-20T08:34:47Z</time>
      </trkpt>
      <trkpt lat="44.58708" lon="2.03324">
        <ele>340.8</ele>
        <time>2023-08-20T08:34:48Z</time>
      </trkpt>
      <trkpt lat="44.58723" lon="2.03328">
        <ele>341.2</ele>
        <time>2023-08-20T08:34:49Z</time>
      </trkpt>
      <trkpt lat="44.58739" lon="2.03331">
        <ele>342.2</ele>
        <time>2023-08-20T08:34:50Z</time>
      </trkpt>
      <trkpt lat="44.58755" lon="2.03333">
        <ele>343</ele>
        <time>2023-08-20T08:34:51Z</time>
      </trkpt>
      <trkpt lat="44.58771" lon="2.03335">
        <ele>343.8</ele>
        <time>2023-08-20T08:34:52Z</time>
      </trkpt>
      <trkpt lat="44.58786" lon="2.03337">
        <ele>345.2</ele>
        <time>2023-08-20T08:34:53Z</time>
      </trkpt>
      <trkpt lat="44.588" lon="2.03338">
        <ele>345.6</ele>
        <time>2023-08-20T08:34:54Z</time>
      </trkpt>
      <trkpt lat="44.58814" lon="2.03338">
        <ele>346.6</ele>
        <time>2023-08-20T08:34:55Z</time>
      </trkpt>
      <trkpt lat="44.58827" lon="2.03336">
        <ele>347.2</ele>
        <time>2023-08-20T08:34:56Z</time>
      </trkpt>
      <trkpt lat="44.5884" lon="2.03334">
        <ele>348</ele>
        <time>2023-08-20T08:34:57Z</time>
      </trkpt>
      <trkpt lat="44.58853" lon="2.03331">
        <ele>348.2</ele>
        <time>2023-08-20T08:34:58Z</time>
      </trkpt>
      <trkpt lat="44.58866" lon="2.03326">
        <ele>348.8</ele>
        <time>2023-08-20T08:34:59Z</time>
      </trkpt>
      <trkpt lat="44.58879" lon="2.0332">
        <ele>349</ele>
        <time>2023-08-20T08:35:00Z</time>
      </trkpt>
      <trkpt lat="44.58891" lon="2.03312">
        <ele>349.2</ele>
        <time>2023-08-20T08:35:01Z</time>
      </trkpt>
      <trkpt lat="44.58904" lon="2.03304">
        <ele>349.4</ele>
        <time>2023-08-20T08:35:02Z</time>
      </trkpt>
      <trkpt lat="44.58918" lon="2.03297">
        <ele>349.4</ele>
        <time>2023-08-20T08:35:03Z</time>
      </trkpt>
      <trkpt lat="44.58932" lon="2.03292">
        <ele>349.6</ele>
        <time>2023-08-20T08:35:04Z</time>
      </trkpt>
      <trkpt lat="44.58947" lon="2.03289">
        <ele>349.6</ele>
        <time>2023-08-20T08:35:05Z</time>
      </trkpt>
      <trkpt lat="44.58961" lon="2.03286">
        <ele>349.6</ele>
        <time>2023-08-20T08:35:06Z</time>
      </trkpt>
      <trkpt lat="44.58975" lon="2.03283">
        <ele>349.6</ele>
        <time>2023-08-20T08:35:07Z</time>
      </trkpt>
      <trkpt lat="44.5899" lon="2.0328">
        <ele>349.6</ele>
        <time>2023-08-20T08:35:08Z</time>
      </trkpt>
      <trkpt lat="44.59004" lon="2.03277">
        <ele>349.6</ele>
        <time>2023-08-20T08:35:09Z</time>
      </trkpt>
      <trkpt lat="44.59018" lon="2.03275">
        <ele>349.2</ele>
        <time>2023-08-20T08:35:10Z</time>
      </trkpt>
      <trkpt lat="44.59032" lon="2.03272">
        <ele>349</ele>
        <time>2023-08-20T08:35:11Z</time>
      </trkpt>
      <trkpt lat="44.59046" lon="2.0327">
        <ele>348.8</ele>
        <time>2023-08-20T08:35:12Z</time>
      </trkpt>
      <trkpt lat="44.5906" lon="2.03268">
        <ele>348.6</ele>
        <time>2023-08-20T08:35:13Z</time>
      </trkpt>
      <trkpt lat="44.59073" lon="2.03267">
        <ele>348.2</ele>
        <time>2023-08-20T08:35:14Z</time>
      </trkpt>
      <trkpt lat="44.59086" lon="2.03266">
        <ele>347.6</ele>
        <time>2023-08-20T08:35:15Z</time>
      </trkpt>
      <trkpt lat="44.59096" lon="2.03267">
        <ele>347.6</ele>
        <time>2023-08-20T08:35:16Z</time>
      </trkpt>
      <trkpt lat="44.59105" lon="2.03269">
        <ele>347.2</ele>
        <time>2023-08-20T08:35:17Z</time>
      </trkpt>
      <trkpt lat="44.59111" lon="2.0327">
        <ele>346.6</ele>
        <time>2023-08-20T08:35:18Z</time>
      </trkpt>
      <trkpt lat="44.59116" lon="2.03272">
        <ele>346.2</ele>
        <time>2023-08-20T08:35:19Z</time>
      </trkpt>
      <trkpt lat="44.59121" lon="2.03273">
        <ele>345.6</ele>
        <time>2023-08-20T08:35:20Z</time>
      </trkpt>
      <trkpt lat="44.59126" lon="2.03274">
        <ele>345.2</ele>
        <time>2023-08-20T08:35:21Z</time>
      </trkpt>
      <trkpt lat="44.59132" lon="2.03275">
        <ele>344.4</ele>
        <time>2023-08-20T08:35:22Z</time>
      </trkpt>
      <trkpt lat="44.59139" lon="2.03277">
        <ele>344</ele>
        <time>2023-08-20T08:35:23Z</time>
      </trkpt>
      <trkpt lat="44.59162" lon="2.03282">
        <ele>343</ele>
        <time>2023-08-20T08:35:26Z</time>
      </trkpt>
      <trkpt lat="44.5921" lon="2.03294">
        <ele>342.6</ele>
        <time>2023-08-20T08:35:31Z</time>
      </trkpt>
      <trkpt lat="44.59268" lon="2.03306">
        <ele>343</ele>
        <time>2023-08-20T08:35:36Z</time>
      </trkpt>
      <trkpt lat="44.59315" lon="2.03315">
        <ele>343.4</ele>
        <time>2023-08-20T08:35:40Z</time>
      </trkpt>
      <trkpt lat="44.59326" lon="2.03317">
        <ele>343.4</ele>
        <time>2023-08-20T08:35:41Z</time>
      </trkpt>
      <trkpt lat="44.59337" lon="2.03321">
        <ele>343.6</ele>
        <time>2023-08-20T08:35:42Z</time>
      </trkpt>
      <trkpt lat="44.5938" lon="2.03341">
        <ele>343.6</ele>
        <time>2023-08-20T08:35:46Z</time>
      </trkpt>
      <trkpt lat="44.59389" lon="2.03347">
        <ele>343.4</ele>
        <time>2023-08-20T08:35:47Z</time>
      </trkpt>
      <trkpt lat="44.59397" lon="2.03354">
        <ele>343.4</ele>
        <time>2023-08-20T08:35:48Z</time>
      </trkpt>
      <trkpt lat="44.59403" lon="2.03362">
        <ele>343.2</ele>
        <time>2023-08-20T08:35:49Z</time>
      </trkpt>
      <trkpt lat="44.59409" lon="2.0337">
        <ele>343.2</ele>
        <time>2023-08-20T08:35:50Z</time>
      </trkpt>
      <trkpt lat="44.59415" lon="2.03378">
        <ele>343.2</ele>
        <time>2023-08-20T08:35:51Z</time>
      </trkpt>
      <trkpt lat="44.59421" lon="2.03386">
        <ele>343</ele>
        <time>2023-08-20T08:35:52Z</time>
      </trkpt>
      <trkpt lat="44.59428" lon="2.03395">
        <ele>343</ele>
        <time>2023-08-20T08:35:53Z</time>
      </trkpt>
      <trkpt lat="44.59441" lon="2.0342">
        <ele>342.8</ele>
        <time>2023-08-20T08:35:55Z</time>
      </trkpt>
      <trkpt lat="44.59446" lon="2.03435">
        <ele>342.6</ele>
        <time>2023-08-20T08:35:56Z</time>
      </trkpt>
      <trkpt lat="44.59471" lon="2.03507">
        <ele>342.6</ele>
        <time>2023-08-20T08:36:00Z</time>
      </trkpt>
      <trkpt lat="44.59499" lon="2.03596">
        <ele>343</ele>
        <time>2023-08-20T08:36:04Z</time>
      </trkpt>
      <trkpt lat="44.59519" lon="2.03668">
        <ele>343.2</ele>
        <time>2023-08-20T08:36:07Z</time>
      </trkpt>
      <trkpt lat="44.59524" lon="2.03693">
        <ele>343.2</ele>
        <time>2023-08-20T08:36:08Z</time>
      </trkpt>
      <trkpt lat="44.59535" lon="2.03743">
        <ele>343</ele>
        <time>2023-08-20T08:36:10Z</time>
      </trkpt>
      <trkpt lat="44.59557" lon="2.03844">
        <ele>342</ele>
        <time>2023-08-20T08:36:14Z</time>
      </trkpt>
      <trkpt lat="44.59563" lon="2.03869">
        <ele>341.8</ele>
        <time>2023-08-20T08:36:15Z</time>
      </trkpt>
      <trkpt lat="44.59569" lon="2.03894">
        <ele>341</ele>
        <time>2023-08-20T08:36:16Z</time>
      </trkpt>
      <trkpt lat="44.59574" lon="2.03919">
        <ele>339.8</ele>
        <time>2023-08-20T08:36:17Z</time>
      </trkpt>
      <trkpt lat="44.59585" lon="2.03968">
        <ele>338.2</ele>
        <time>2023-08-20T08:36:19Z</time>
      </trkpt>
      <trkpt lat="44.59591" lon="2.03992">
        <ele>337.8</ele>
        <time>2023-08-20T08:36:20Z</time>
      </trkpt>
      <trkpt lat="44.59596" lon="2.04015">
        <ele>337.2</ele>
        <time>2023-08-20T08:36:21Z</time>
      </trkpt>
      <trkpt lat="44.596" lon="2.04037">
        <ele>336.6</ele>
        <time>2023-08-20T08:36:22Z</time>
      </trkpt>
      <trkpt lat="44.59605" lon="2.04058">
        <ele>335.8</ele>
        <time>2023-08-20T08:36:23Z</time>
      </trkpt>
      <trkpt lat="44.5961" lon="2.04079">
        <ele>335.6</ele>
        <time>2023-08-20T08:36:24Z</time>
      </trkpt>
      <trkpt lat="44.59614" lon="2.04099">
        <ele>335.2</ele>
        <time>2023-08-20T08:36:25Z</time>
      </trkpt>
      <trkpt lat="44.59618" lon="2.04118">
        <ele>335</ele>
        <time>2023-08-20T08:36:26Z</time>
      </trkpt>
      <trkpt lat="44.59622" lon="2.04137">
        <ele>335</ele>
        <time>2023-08-20T08:36:27Z</time>
      </trkpt>
      <trkpt lat="44.59626" lon="2.04156">
        <ele>335</ele>
        <time>2023-08-20T08:36:28Z</time>
      </trkpt>
      <trkpt lat="44.5963" lon="2.04175">
        <ele>335</ele>
        <time>2023-08-20T08:36:29Z</time>
      </trkpt>
      <trkpt lat="44.59634" lon="2.04193">
        <ele>335</ele>
        <time>2023-08-20T08:36:30Z</time>
      </trkpt>
      <trkpt lat="44.59639" lon="2.04213">
        <ele>335</ele>
        <time>2023-08-20T08:36:31Z</time>
      </trkpt>
      <trkpt lat="44.59653" lon="2.04275">
        <ele>335.2</ele>
        <time>2023-08-20T08:36:34Z</time>
      </trkpt>
      <trkpt lat="44.59671" lon="2.04361">
        <ele>336.6</ele>
        <time>2023-08-20T08:36:38Z</time>
      </trkpt>
      <trkpt lat="44.59675" lon="2.04382">
        <ele>337.4</ele>
        <time>2023-08-20T08:36:39Z</time>
      </trkpt>
      <trkpt lat="44.59678" lon="2.04404">
        <ele>338</ele>
        <time>2023-08-20T08:36:40Z</time>
      </trkpt>
      <trkpt lat="44.59681" lon="2.04427">
        <ele>338.6</ele>
        <time>2023-08-20T08:36:41Z</time>
      </trkpt>
      <trkpt lat="44.59685" lon="2.04474">
        <ele>340</ele>
        <time>2023-08-20T08:36:43Z</time>
      </trkpt>
      <trkpt lat="44.59687" lon="2.04498">
        <ele>340.8</ele>
        <time>2023-08-20T08:36:44Z</time>
      </trkpt>
      <trkpt lat="44.59689" lon="2.04523">
        <ele>341.4</ele>
        <time>2023-08-20T08:36:45Z</time>
      </trkpt>
      <trkpt lat="44.59692" lon="2.04573">
        <ele>342.6</ele>
        <time>2023-08-20T08:36:47Z</time>
      </trkpt>
      <trkpt lat="44.59693" lon="2.04598">
        <ele>343.8</ele>
        <time>2023-08-20T08:36:48Z</time>
      </trkpt>
      <trkpt lat="44.59695" lon="2.04624">
        <ele>344.2</ele>
        <time>2023-08-20T08:36:49Z</time>
      </trkpt>
      <trkpt lat="44.59696" lon="2.0465">
        <ele>345.2</ele>
        <time>2023-08-20T08:36:50Z</time>
      </trkpt>
      <trkpt lat="44.59697" lon="2.04675">
        <ele>346</ele>
        <time>2023-08-20T08:36:51Z</time>
      </trkpt>
      <trkpt lat="44.59699" lon="2.04701">
        <ele>346.2</ele>
        <time>2023-08-20T08:36:52Z</time>
      </trkpt>
      <trkpt lat="44.597" lon="2.04728">
        <ele>346.6</ele>
        <time>2023-08-20T08:36:53Z</time>
      </trkpt>
      <trkpt lat="44.59701" lon="2.04754">
        <ele>346.6</ele>
        <time>2023-08-20T08:36:54Z</time>
      </trkpt>
      <trkpt lat="44.59703" lon="2.0478">
        <ele>346.8</ele>
        <time>2023-08-20T08:36:55Z</time>
      </trkpt>
      <trkpt lat="44.59704" lon="2.04806">
        <ele>346.8</ele>
        <time>2023-08-20T08:36:56Z</time>
      </trkpt>
      <trkpt lat="44.59706" lon="2.04831">
        <ele>346.8</ele>
        <time>2023-08-20T08:36:57Z</time>
      </trkpt>
      <trkpt lat="44.59707" lon="2.04856">
        <ele>346.8</ele>
        <time>2023-08-20T08:36:58Z</time>
      </trkpt>
      <trkpt lat="44.59707" lon="2.04881">
        <ele>346.8</ele>
        <time>2023-08-20T08:36:59Z</time>
      </trkpt>
      <trkpt lat="44.59708" lon="2.04906">
        <ele>346.8</ele>
        <time>2023-08-20T08:37:00Z</time>
      </trkpt>
      <trkpt lat="44.59707" lon="2.04931">
        <ele>346.4</ele>
        <time>2023-08-20T08:37:01Z</time>
      </trkpt>
      <trkpt lat="44.59706" lon="2.04957">
        <ele>345.6</ele>
        <time>2023-08-20T08:37:02Z</time>
      </trkpt>
      <trkpt lat="44.59703" lon="2.04982">
        <ele>345.4</ele>
        <time>2023-08-20T08:37:03Z</time>
      </trkpt>
      <trkpt lat="44.597" lon="2.05008">
        <ele>344.4</ele>
        <time>2023-08-20T08:37:04Z</time>
      </trkpt>
      <trkpt lat="44.59696" lon="2.05034">
        <ele>344</ele>
        <time>2023-08-20T08:37:05Z</time>
      </trkpt>
      <trkpt lat="44.59691" lon="2.05059">
        <ele>343</ele>
        <time>2023-08-20T08:37:06Z</time>
      </trkpt>
      <trkpt lat="44.59686" lon="2.05085">
        <ele>342</ele>
        <time>2023-08-20T08:37:07Z</time>
      </trkpt>
      <trkpt lat="44.59681" lon="2.05111">
        <ele>341.4</ele>
        <time>2023-08-20T08:37:08Z</time>
      </trkpt>
      <trkpt lat="44.59676" lon="2.05137">
        <ele>340.2</ele>
        <time>2023-08-20T08:37:09Z</time>
      </trkpt>
      <trkpt lat="44.59671" lon="2.05163">
        <ele>339.8</ele>
        <time>2023-08-20T08:37:10Z</time>
      </trkpt>
      <trkpt lat="44.59666" lon="2.05189">
        <ele>338.8</ele>
        <time>2023-08-20T08:37:11Z</time>
      </trkpt>
      <trkpt lat="44.59656" lon="2.0524">
        <ele>337</ele>
        <time>2023-08-20T08:37:13Z</time>
      </trkpt>
      <trkpt lat="44.59646" lon="2.0529">
        <ele>334.8</ele>
        <time>2023-08-20T08:37:15Z</time>
      </trkpt>
      <trkpt lat="44.59642" lon="2.05316">
        <ele>333.4</ele>
        <time>2023-08-20T08:37:16Z</time>
      </trkpt>
      <trkpt lat="44.59634" lon="2.05366">
        <ele>331.6</ele>
        <time>2023-08-20T08:37:18Z</time>
      </trkpt>
      <trkpt lat="44.59631" lon="2.05391">
        <ele>330.8</ele>
        <time>2023-08-20T08:37:19Z</time>
      </trkpt>
      <trkpt lat="44.59629" lon="2.05415">
        <ele>329</ele>
        <time>2023-08-20T08:37:20Z</time>
      </trkpt>
      <trkpt lat="44.59626" lon="2.05443">
        <ele>328.4</ele>
        <time>2023-08-20T08:37:21Z</time>
      </trkpt>
      <trkpt lat="44.59625" lon="2.05462">
        <ele>326.6</ele>
        <time>2023-08-20T08:37:22Z</time>
      </trkpt>
      <trkpt lat="44.59623" lon="2.05484">
        <ele>325.6</ele>
        <time>2023-08-20T08:37:23Z</time>
      </trkpt>
      <trkpt lat="44.59621" lon="2.05504">
        <ele>324</ele>
        <time>2023-08-20T08:37:24Z</time>
      </trkpt>
      <trkpt lat="44.5962" lon="2.05522">
        <ele>322.4</ele>
        <time>2023-08-20T08:37:25Z</time>
      </trkpt>
      <trkpt lat="44.59618" lon="2.05539">
        <ele>321.4</ele>
        <time>2023-08-20T08:37:26Z</time>
      </trkpt>
      <trkpt lat="44.59616" lon="2.05553">
        <ele>319.6</ele>
        <time>2023-08-20T08:37:27Z</time>
      </trkpt>
      <trkpt lat="44.59613" lon="2.05565">
        <ele>318.6</ele>
        <time>2023-08-20T08:37:28Z</time>
      </trkpt>
      <trkpt lat="44.5961" lon="2.05576">
        <ele>316.8</ele>
        <time>2023-08-20T08:37:29Z</time>
      </trkpt>
      <trkpt lat="44.59605" lon="2.05585">
        <ele>316</ele>
        <time>2023-08-20T08:37:30Z</time>
      </trkpt>
      <trkpt lat="44.59601" lon="2.05593">
        <ele>314.6</ele>
        <time>2023-08-20T08:37:31Z</time>
      </trkpt>
      <trkpt lat="44.59596" lon="2.05601">
        <ele>313.2</ele>
        <time>2023-08-20T08:37:32Z</time>
      </trkpt>
      <trkpt lat="44.59593" lon="2.0561">
        <ele>312.6</ele>
        <time>2023-08-20T08:37:33Z</time>
      </trkpt>
      <trkpt lat="44.59592" lon="2.05619">
        <ele>311.6</ele>
        <time>2023-08-20T08:37:34Z</time>
      </trkpt>
      <trkpt lat="44.59593" lon="2.05627">
        <ele>311.4</ele>
        <time>2023-08-20T08:37:35Z</time>
      </trkpt>
      <trkpt lat="44.59596" lon="2.05635">
        <ele>311</ele>
        <time>2023-08-20T08:37:36Z</time>
      </trkpt>
      <trkpt lat="44.59602" lon="2.05642">
        <ele>310.8</ele>
        <time>2023-08-20T08:37:37Z</time>
      </trkpt>
      <trkpt lat="44.59609" lon="2.05647">
        <ele>309.8</ele>
        <time>2023-08-20T08:37:38Z</time>
      </trkpt>
      <trkpt lat="44.59634" lon="2.05645">
        <ele>308.8</ele>
        <time>2023-08-20T08:37:41Z</time>
      </trkpt>
      <trkpt lat="44.59643" lon="2.05647">
        <ele>308.4</ele>
        <time>2023-08-20T08:37:42Z</time>
      </trkpt>
      <trkpt lat="44.59651" lon="2.0565">
        <ele>307.6</ele>
        <time>2023-08-20T08:37:43Z</time>
      </trkpt>
      <trkpt lat="44.59659" lon="2.05655">
        <ele>307.2</ele>
        <time>2023-08-20T08:37:44Z</time>
      </trkpt>
      <trkpt lat="44.59667" lon="2.0566">
        <ele>307</ele>
        <time>2023-08-20T08:37:45Z</time>
      </trkpt>
      <trkpt lat="44.59674" lon="2.05665">
        <ele>306.8</ele>
        <time>2023-08-20T08:37:46Z</time>
      </trkpt>
      <trkpt lat="44.59681" lon="2.05669">
        <ele>306.6</ele>
        <time>2023-08-20T08:37:47Z</time>
      </trkpt>
      <trkpt lat="44.59686" lon="2.05674">
        <ele>306.4</ele>
        <time>2023-08-20T08:37:48Z</time>
      </trkpt>
      <trkpt lat="44.59691" lon="2.05679">
        <ele>306.2</ele>
        <time>2023-08-20T08:37:49Z</time>
      </trkpt>
      <trkpt lat="44.59695" lon="2.05684">
        <ele>306</ele>
        <time>2023-08-20T08:37:50Z</time>
      </trkpt>
      <trkpt lat="44.59699" lon="2.05689">
        <ele>305.8</ele>
        <time>2023-08-20T08:37:51Z</time>
      </trkpt>
      <trkpt lat="44.59703" lon="2.05693">
        <ele>305.4</ele>
        <time>2023-08-20T08:37:52Z</time>
      </trkpt>
      <trkpt lat="44.59707" lon="2.05698">
        <ele>305</ele>
        <time>2023-08-20T08:37:53Z</time>
      </trkpt>
      <trkpt lat="44.5971" lon="2.05704">
        <ele>304.4</ele>
        <time>2023-08-20T08:37:54Z</time>
      </trkpt>
      <trkpt lat="44.59713" lon="2.05709">
        <ele>304.2</ele>
        <time>2023-08-20T08:37:55Z</time>
      </trkpt>
      <trkpt lat="44.59716" lon="2.05715">
        <ele>303.6</ele>
        <time>2023-08-20T08:37:56Z</time>
      </trkpt>
      <trkpt lat="44.59718" lon="2.05721">
        <ele>303</ele>
        <time>2023-08-20T08:37:57Z</time>
      </trkpt>
      <trkpt lat="44.5972" lon="2.05727">
        <ele>302.6</ele>
        <time>2023-08-20T08:37:58Z</time>
      </trkpt>
      <trkpt lat="44.59722" lon="2.05732">
        <ele>302.2</ele>
        <time>2023-08-20T08:37:59Z</time>
      </trkpt>
      <trkpt lat="44.59724" lon="2.05736">
        <ele>302.2</ele>
        <time>2023-08-20T08:38:00Z</time>
      </trkpt>
      <trkpt lat="44.59726" lon="2.05741">
        <ele>301.6</ele>
        <time>2023-08-20T08:38:01Z</time>
      </trkpt>
      <trkpt lat="44.59727" lon="2.05745">
        <ele>301.2</ele>
        <time>2023-08-20T08:38:02Z</time>
      </trkpt>
      <trkpt lat="44.59729" lon="2.05749">
        <ele>300.8</ele>
        <time>2023-08-20T08:38:03Z</time>
      </trkpt>
      <trkpt lat="44.59732" lon="2.05754">
        <ele>300.6</ele>
        <time>2023-08-20T08:38:04Z</time>
      </trkpt>
      <trkpt lat="44.59734" lon="2.0576">
        <ele>300.4</ele>
        <time>2023-08-20T08:38:05Z</time>
      </trkpt>
      <trkpt lat="44.59737" lon="2.05767">
        <ele>300.2</ele>
        <time>2023-08-20T08:38:06Z</time>
      </trkpt>
      <trkpt lat="44.5975" lon="2.05795">
        <ele>300</ele>
        <time>2023-08-20T08:38:09Z</time>
      </trkpt>
      <trkpt lat="44.59757" lon="2.05807">
        <ele>299.8</ele>
        <time>2023-08-20T08:38:10Z</time>
      </trkpt>
      <trkpt lat="44.59779" lon="2.05835">
        <ele>299.8</ele>
        <time>2023-08-20T08:38:12Z</time>
      </trkpt>
      <trkpt lat="44.59811" lon="2.05868">
        <ele>300</ele>
        <time>2023-08-20T08:38:14Z</time>
      </trkpt>
      <trkpt lat="44.59828" lon="2.05882">
        <ele>300.2</ele>
        <time>2023-08-20T08:38:15Z</time>
      </trkpt>
      <trkpt lat="44.5986" lon="2.05899">
        <ele>300.2</ele>
        <time>2023-08-20T08:38:17Z</time>
      </trkpt>
      <trkpt lat="44.59874" lon="2.05906">
        <ele>300.2</ele>
        <time>2023-08-20T08:38:18Z</time>
      </trkpt>
      <trkpt lat="44.59886" lon="2.05913">
        <ele>300.2</ele>
        <time>2023-08-20T08:38:19Z</time>
      </trkpt>
      <trkpt lat="44.59897" lon="2.05921">
        <ele>300.2</ele>
        <time>2023-08-20T08:38:20Z</time>
      </trkpt>
      <trkpt lat="44.59907" lon="2.05931">
        <ele>300.2</ele>
        <time>2023-08-20T08:38:21Z</time>
      </trkpt>
      <trkpt lat="44.59917" lon="2.05943">
        <ele>299.8</ele>
        <time>2023-08-20T08:38:22Z</time>
      </trkpt>
      <trkpt lat="44.59925" lon="2.05957">
        <ele>299.6</ele>
        <time>2023-08-20T08:38:23Z</time>
      </trkpt>
      <trkpt lat="44.59932" lon="2.05971">
        <ele>298.4</ele>
        <time>2023-08-20T08:38:24Z</time>
      </trkpt>
      <trkpt lat="44.59944" lon="2.06003">
        <ele>296.2</ele>
        <time>2023-08-20T08:38:26Z</time>
      </trkpt>
      <trkpt lat="44.59953" lon="2.06038">
        <ele>294.8</ele>
        <time>2023-08-20T08:38:28Z</time>
      </trkpt>
      <trkpt lat="44.59959" lon="2.06069">
        <ele>293.6</ele>
        <time>2023-08-20T08:38:30Z</time>
      </trkpt>
      <trkpt lat="44.59963" lon="2.06083">
        <ele>292.6</ele>
        <time>2023-08-20T08:38:31Z</time>
      </trkpt>
      <trkpt lat="44.59968" lon="2.06097">
        <ele>292.2</ele>
        <time>2023-08-20T08:38:32Z</time>
      </trkpt>
      <trkpt lat="44.59974" lon="2.0611">
        <ele>291.2</ele>
        <time>2023-08-20T08:38:33Z</time>
      </trkpt>
      <trkpt lat="44.59982" lon="2.06121">
        <ele>291</ele>
        <time>2023-08-20T08:38:34Z</time>
      </trkpt>
      <trkpt lat="44.59991" lon="2.0613">
        <ele>290</ele>
        <time>2023-08-20T08:38:35Z</time>
      </trkpt>
      <trkpt lat="44.60001" lon="2.06137">
        <ele>289.8</ele>
        <time>2023-08-20T08:38:36Z</time>
      </trkpt>
      <trkpt lat="44.60012" lon="2.06141">
        <ele>289</ele>
        <time>2023-08-20T08:38:37Z</time>
      </trkpt>
      <trkpt lat="44.60024" lon="2.06143">
        <ele>288.4</ele>
        <time>2023-08-20T08:38:38Z</time>
      </trkpt>
      <trkpt lat="44.60037" lon="2.06142">
        <ele>287.4</ele>
        <time>2023-08-20T08:38:39Z</time>
      </trkpt>
      <trkpt lat="44.6005" lon="2.06139">
        <ele>286.6</ele>
        <time>2023-08-20T08:38:40Z</time>
      </trkpt>
      <trkpt lat="44.60063" lon="2.06134">
        <ele>286.4</ele>
        <time>2023-08-20T08:38:41Z</time>
      </trkpt>
      <trkpt lat="44.60076" lon="2.06128">
        <ele>285.4</ele>
        <time>2023-08-20T08:38:42Z</time>
      </trkpt>
      <trkpt lat="44.60088" lon="2.06122">
        <ele>285</ele>
        <time>2023-08-20T08:38:43Z</time>
      </trkpt>
      <trkpt lat="44.60099" lon="2.06114">
        <ele>284.4</ele>
        <time>2023-08-20T08:38:44Z</time>
      </trkpt>
      <trkpt lat="44.60109" lon="2.06105">
        <ele>283.8</ele>
        <time>2023-08-20T08:38:45Z</time>
      </trkpt>
      <trkpt lat="44.60119" lon="2.06095">
        <ele>283</ele>
        <time>2023-08-20T08:38:46Z</time>
      </trkpt>
      <trkpt lat="44.60129" lon="2.06085">
        <ele>282.2</ele>
        <time>2023-08-20T08:38:47Z</time>
      </trkpt>
      <trkpt lat="44.60147" lon="2.06063">
        <ele>280.8</ele>
        <time>2023-08-20T08:38:49Z</time>
      </trkpt>
      <trkpt lat="44.60155" lon="2.06052">
        <ele>280.2</ele>
        <time>2023-08-20T08:38:50Z</time>
      </trkpt>
      <trkpt lat="44.60163" lon="2.0604">
        <ele>279.4</ele>
        <time>2023-08-20T08:38:51Z</time>
      </trkpt>
      <trkpt lat="44.60169" lon="2.06026">
        <ele>279</ele>
        <time>2023-08-20T08:38:52Z</time>
      </trkpt>
      <trkpt lat="44.60175" lon="2.06012">
        <ele>278.4</ele>
        <time>2023-08-20T08:38:53Z</time>
      </trkpt>
      <trkpt lat="44.6018" lon="2.05996">
        <ele>278.2</ele>
        <time>2023-08-20T08:38:54Z</time>
      </trkpt>
      <trkpt lat="44.60183" lon="2.0598">
        <ele>277.2</ele>
        <time>2023-08-20T08:38:55Z</time>
      </trkpt>
      <trkpt lat="44.60185" lon="2.05963">
        <ele>276.4</ele>
        <time>2023-08-20T08:38:56Z</time>
      </trkpt>
      <trkpt lat="44.60189" lon="2.05927">
        <ele>275.6</ele>
        <time>2023-08-20T08:38:58Z</time>
      </trkpt>
      <trkpt lat="44.60193" lon="2.0589">
        <ele>274.2</ele>
        <time>2023-08-20T08:39:00Z</time>
      </trkpt>
      <trkpt lat="44.60199" lon="2.05852">
        <ele>273</ele>
        <time>2023-08-20T08:39:02Z</time>
      </trkpt>
      <trkpt lat="44.60204" lon="2.05834">
        <ele>272.6</ele>
        <time>2023-08-20T08:39:03Z</time>
      </trkpt>
      <trkpt lat="44.60218" lon="2.05801">
        <ele>271.6</ele>
        <time>2023-08-20T08:39:05Z</time>
      </trkpt>
      <trkpt lat="44.60227" lon="2.05785">
        <ele>271</ele>
        <time>2023-08-20T08:39:06Z</time>
      </trkpt>
      <trkpt lat="44.60237" lon="2.05772">
        <ele>270.2</ele>
        <time>2023-08-20T08:39:07Z</time>
      </trkpt>
      <trkpt lat="44.60269" lon="2.05734">
        <ele>269</ele>
        <time>2023-08-20T08:39:10Z</time>
      </trkpt>
      <trkpt lat="44.60281" lon="2.05718">
        <ele>268.4</ele>
        <time>2023-08-20T08:39:11Z</time>
      </trkpt>
      <trkpt lat="44.60301" lon="2.05695">
        <ele>267.6</ele>
        <time>2023-08-20T08:39:13Z</time>
      </trkpt>
      <trkpt lat="44.60335" lon="2.05655">
        <ele>266.2</ele>
        <time>2023-08-20T08:39:16Z</time>
      </trkpt>
      <trkpt lat="44.60356" lon="2.05627">
        <ele>264.8</ele>
        <time>2023-08-20T08:39:18Z</time>
      </trkpt>
      <trkpt lat="44.60366" lon="2.05613">
        <ele>264.4</ele>
        <time>2023-08-20T08:39:19Z</time>
      </trkpt>
      <trkpt lat="44.60386" lon="2.05584">
        <ele>263</ele>
        <time>2023-08-20T08:39:21Z</time>
      </trkpt>
      <trkpt lat="44.60405" lon="2.05558">
        <ele>261.8</ele>
        <time>2023-08-20T08:39:23Z</time>
      </trkpt>
      <trkpt lat="44.60414" lon="2.05546">
        <ele>261.4</ele>
        <time>2023-08-20T08:39:24Z</time>
      </trkpt>
      <trkpt lat="44.60422" lon="2.05534">
        <ele>260.6</ele>
        <time>2023-08-20T08:39:25Z</time>
      </trkpt>
      <trkpt lat="44.60431" lon="2.05523">
        <ele>260</ele>
        <time>2023-08-20T08:39:26Z</time>
      </trkpt>
      <trkpt lat="44.60439" lon="2.05512">
        <ele>259</ele>
        <time>2023-08-20T08:39:27Z</time>
      </trkpt>
      <trkpt lat="44.60447" lon="2.05501">
        <ele>258.4</ele>
        <time>2023-08-20T08:39:28Z</time>
      </trkpt>
      <trkpt lat="44.60454" lon="2.05491">
        <ele>257.2</ele>
        <time>2023-08-20T08:39:29Z</time>
      </trkpt>
      <trkpt lat="44.60461" lon="2.05482">
        <ele>256.2</ele>
        <time>2023-08-20T08:39:30Z</time>
      </trkpt>
      <trkpt lat="44.60466" lon="2.05473">
        <ele>255.6</ele>
        <time>2023-08-20T08:39:31Z</time>
      </trkpt>
      <trkpt lat="44.60471" lon="2.05465">
        <ele>254.6</ele>
        <time>2023-08-20T08:39:32Z</time>
      </trkpt>
      <trkpt lat="44.60474" lon="2.05458">
        <ele>254.2</ele>
        <time>2023-08-20T08:39:33Z</time>
      </trkpt>
      <trkpt lat="44.60477" lon="2.05453">
        <ele>253.4</ele>
        <time>2023-08-20T08:39:34Z</time>
      </trkpt>
      <trkpt lat="44.60479" lon="2.05449">
        <ele>252.8</ele>
        <time>2023-08-20T08:39:35Z</time>
      </trkpt>
      <trkpt lat="44.60482" lon="2.05446">
        <ele>251.6</ele>
        <time>2023-08-20T08:39:36Z</time>
      </trkpt>
      <trkpt lat="44.60485" lon="2.05445">
        <ele>251.2</ele>
        <time>2023-08-20T08:39:37Z</time>
      </trkpt>
      <trkpt lat="44.60487" lon="2.05447">
        <ele>250.4</ele>
        <time>2023-08-20T08:39:38Z</time>
      </trkpt>
      <trkpt lat="44.60489" lon="2.05451">
        <ele>249.6</ele>
        <time>2023-08-20T08:39:39Z</time>
      </trkpt>
      <trkpt lat="44.60492" lon="2.05457">
        <ele>249.2</ele>
        <time>2023-08-20T08:39:40Z</time>
      </trkpt>
      <trkpt lat="44.60496" lon="2.05464">
        <ele>248.6</ele>
        <time>2023-08-20T08:39:41Z</time>
      </trkpt>
      <trkpt lat="44.605" lon="2.05471">
        <ele>248.4</ele>
        <time>2023-08-20T08:39:42Z</time>
      </trkpt>
      <trkpt lat="44.60504" lon="2.05478">
        <ele>248.2</ele>
        <time>2023-08-20T08:39:43Z</time>
      </trkpt>
      <trkpt lat="44.60508" lon="2.05485">
        <ele>248.2</ele>
        <time>2023-08-20T08:39:44Z</time>
      </trkpt>
      <trkpt lat="44.60524" lon="2.05505">
        <ele>248.2</ele>
        <time>2023-08-20T08:39:47Z</time>
      </trkpt>
      <trkpt lat="44.60548" lon="2.05529">
        <ele>248.4</ele>
        <time>2023-08-20T08:39:51Z</time>
      </trkpt>
      <trkpt lat="44.60553" lon="2.05535">
        <ele>248.8</ele>
        <time>2023-08-20T08:39:52Z</time>
      </trkpt>
      <trkpt lat="44.60559" lon="2.05541">
        <ele>249.2</ele>
        <time>2023-08-20T08:39:53Z</time>
      </trkpt>
      <trkpt lat="44.60564" lon="2.05548">
        <ele>249.6</ele>
        <time>2023-08-20T08:39:54Z</time>
      </trkpt>
      <trkpt lat="44.60573" lon="2.05568">
        <ele>250.6</ele>
        <time>2023-08-20T08:39:56Z</time>
      </trkpt>
      <trkpt lat="44.60576" lon="2.0558">
        <ele>251.2</ele>
        <time>2023-08-20T08:39:57Z</time>
      </trkpt>
      <trkpt lat="44.60577" lon="2.05594">
        <ele>251.6</ele>
        <time>2023-08-20T08:39:58Z</time>
      </trkpt>
      <trkpt lat="44.60577" lon="2.0561">
        <ele>252.2</ele>
        <time>2023-08-20T08:39:59Z</time>
      </trkpt>
      <trkpt lat="44.60576" lon="2.05626">
        <ele>252.8</ele>
        <time>2023-08-20T08:40:00Z</time>
      </trkpt>
      <trkpt lat="44.60575" lon="2.05642">
        <ele>253.8</ele>
        <time>2023-08-20T08:40:01Z</time>
      </trkpt>
      <trkpt lat="44.60572" lon="2.05673">
        <ele>255.2</ele>
        <time>2023-08-20T08:40:03Z</time>
      </trkpt>
      <trkpt lat="44.6057" lon="2.05689">
        <ele>256.8</ele>
        <time>2023-08-20T08:40:04Z</time>
      </trkpt>
      <trkpt lat="44.60565" lon="2.05719">
        <ele>258.6</ele>
        <time>2023-08-20T08:40:06Z</time>
      </trkpt>
      <trkpt lat="44.60561" lon="2.05735">
        <ele>259.6</ele>
        <time>2023-08-20T08:40:07Z</time>
      </trkpt>
      <trkpt lat="44.60556" lon="2.05749">
        <ele>260.8</ele>
        <time>2023-08-20T08:40:08Z</time>
      </trkpt>
      <trkpt lat="44.60551" lon="2.05764">
        <ele>261.6</ele>
        <time>2023-08-20T08:40:09Z</time>
      </trkpt>
      <trkpt lat="44.60546" lon="2.05779">
        <ele>262.6</ele>
        <time>2023-08-20T08:40:10Z</time>
      </trkpt>
      <trkpt lat="44.6054" lon="2.05794">
        <ele>264.2</ele>
        <time>2023-08-20T08:40:11Z</time>
      </trkpt>
      <trkpt lat="44.60536" lon="2.05809">
        <ele>265</ele>
        <time>2023-08-20T08:40:12Z</time>
      </trkpt>
      <trkpt lat="44.60531" lon="2.05825">
        <ele>266.6</ele>
        <time>2023-08-20T08:40:13Z</time>
      </trkpt>
      <trkpt lat="44.60527" lon="2.05841">
        <ele>267.2</ele>
        <time>2023-08-20T08:40:14Z</time>
      </trkpt>
      <trkpt lat="44.60523" lon="2.05857">
        <ele>268.6</ele>
        <time>2023-08-20T08:40:15Z</time>
      </trkpt>
      <trkpt lat="44.6052" lon="2.05874">
        <ele>269.2</ele>
        <time>2023-08-20T08:40:16Z</time>
      </trkpt>
      <trkpt lat="44.60518" lon="2.05892">
        <ele>270.8</ele>
        <time>2023-08-20T08:40:17Z</time>
      </trkpt>
      <trkpt lat="44.60517" lon="2.0591">
        <ele>271.6</ele>
        <time>2023-08-20T08:40:18Z</time>
      </trkpt>
      <trkpt lat="44.60517" lon="2.05929">
        <ele>272.8</ele>
        <time>2023-08-20T08:40:19Z</time>
      </trkpt>
      <trkpt lat="44.60518" lon="2.05948">
        <ele>274.2</ele>
        <time>2023-08-20T08:40:20Z</time>
      </trkpt>
      <trkpt lat="44.60519" lon="2.05968">
        <ele>274.8</ele>
        <time>2023-08-20T08:40:21Z</time>
      </trkpt>
      <trkpt lat="44.60519" lon="2.05988">
        <ele>276.6</ele>
        <time>2023-08-20T08:40:22Z</time>
      </trkpt>
      <trkpt lat="44.60518" lon="2.06008">
        <ele>277.4</ele>
        <time>2023-08-20T08:40:23Z</time>
      </trkpt>
      <trkpt lat="44.60515" lon="2.06027">
        <ele>278.8</ele>
        <time>2023-08-20T08:40:24Z</time>
      </trkpt>
      <trkpt lat="44.60511" lon="2.06046">
        <ele>280</ele>
        <time>2023-08-20T08:40:25Z</time>
      </trkpt>
      <trkpt lat="44.60507" lon="2.06064">
        <ele>281.8</ele>
        <time>2023-08-20T08:40:26Z</time>
      </trkpt>
      <trkpt lat="44.60502" lon="2.06082">
        <ele>282.4</ele>
        <time>2023-08-20T08:40:27Z</time>
      </trkpt>
      <trkpt lat="44.60498" lon="2.061">
        <ele>283.8</ele>
        <time>2023-08-20T08:40:28Z</time>
      </trkpt>
      <trkpt lat="44.60494" lon="2.06117">
        <ele>285.2</ele>
        <time>2023-08-20T08:40:29Z</time>
      </trkpt>
      <trkpt lat="44.60489" lon="2.06137">
        <ele>286</ele>
        <time>2023-08-20T08:40:30Z</time>
      </trkpt>
      <trkpt lat="44.60485" lon="2.06152">
        <ele>288</ele>
        <time>2023-08-20T08:40:31Z</time>
      </trkpt>
      <trkpt lat="44.60478" lon="2.06189">
        <ele>290.4</ele>
        <time>2023-08-20T08:40:33Z</time>
      </trkpt>
      <trkpt lat="44.60475" lon="2.06209">
        <ele>291</ele>
        <time>2023-08-20T08:40:34Z</time>
      </trkpt>
      <trkpt lat="44.60472" lon="2.0623">
        <ele>292.4</ele>
        <time>2023-08-20T08:40:35Z</time>
      </trkpt>
      <trkpt lat="44.60471" lon="2.06251">
        <ele>293</ele>
        <time>2023-08-20T08:40:36Z</time>
      </trkpt>
      <trkpt lat="44.60471" lon="2.06273">
        <ele>294.4</ele>
        <time>2023-08-20T08:40:37Z</time>
      </trkpt>
      <trkpt lat="44.60472" lon="2.06294">
        <ele>295.4</ele>
        <time>2023-08-20T08:40:38Z</time>
      </trkpt>
      <trkpt lat="44.60474" lon="2.06337">
        <ele>297.6</ele>
        <time>2023-08-20T08:40:40Z</time>
      </trkpt>
      <trkpt lat="44.60476" lon="2.06358">
        <ele>298.4</ele>
        <time>2023-08-20T08:40:41Z</time>
      </trkpt>
      <trkpt lat="44.60479" lon="2.06378">
        <ele>299.8</ele>
        <time>2023-08-20T08:40:42Z</time>
      </trkpt>
      <trkpt lat="44.60486" lon="2.06417">
        <ele>301.8</ele>
        <time>2023-08-20T08:40:44Z</time>
      </trkpt>
      <trkpt lat="44.60491" lon="2.06435">
        <ele>303.6</ele>
        <time>2023-08-20T08:40:45Z</time>
      </trkpt>
      <trkpt lat="44.60496" lon="2.06453">
        <ele>304.2</ele>
        <time>2023-08-20T08:40:46Z</time>
      </trkpt>
      <trkpt lat="44.60503" lon="2.06471">
        <ele>305.4</ele>
        <time>2023-08-20T08:40:47Z</time>
      </trkpt>
      <trkpt lat="44.60518" lon="2.06506">
        <ele>307.8</ele>
        <time>2023-08-20T08:40:49Z</time>
      </trkpt>
      <trkpt lat="44.60538" lon="2.06539">
        <ele>310</ele>
        <time>2023-08-20T08:40:51Z</time>
      </trkpt>
      <trkpt lat="44.60559" lon="2.06576">
        <ele>312.2</ele>
        <time>2023-08-20T08:40:53Z</time>
      </trkpt>
      <trkpt lat="44.60566" lon="2.06591">
        <ele>313.6</ele>
        <time>2023-08-20T08:40:54Z</time>
      </trkpt>
      <trkpt lat="44.60574" lon="2.06611">
        <ele>314.6</ele>
        <time>2023-08-20T08:40:55Z</time>
      </trkpt>
      <trkpt lat="44.60581" lon="2.06631">
        <ele>316.6</ele>
        <time>2023-08-20T08:40:56Z</time>
      </trkpt>
      <trkpt lat="44.60588" lon="2.06653">
        <ele>317.2</ele>
        <time>2023-08-20T08:40:57Z</time>
      </trkpt>
      <trkpt lat="44.60596" lon="2.06673">
        <ele>318.6</ele>
        <time>2023-08-20T08:40:58Z</time>
      </trkpt>
      <trkpt lat="44.60603" lon="2.06693">
        <ele>319.8</ele>
        <time>2023-08-20T08:40:59Z</time>
      </trkpt>
      <trkpt lat="44.60611" lon="2.06712">
        <ele>322.2</ele>
        <time>2023-08-20T08:41:00Z</time>
      </trkpt>
      <trkpt lat="44.60618" lon="2.06731">
        <ele>323.2</ele>
        <time>2023-08-20T08:41:01Z</time>
      </trkpt>
      <trkpt lat="44.60623" lon="2.0675">
        <ele>324.8</ele>
        <time>2023-08-20T08:41:02Z</time>
      </trkpt>
      <trkpt lat="44.60625" lon="2.06768">
        <ele>326.2</ele>
        <time>2023-08-20T08:41:03Z</time>
      </trkpt>
      <trkpt lat="44.60627" lon="2.06788">
        <ele>327</ele>
        <time>2023-08-20T08:41:04Z</time>
      </trkpt>
      <trkpt lat="44.60627" lon="2.06808">
        <ele>328.8</ele>
        <time>2023-08-20T08:41:05Z</time>
      </trkpt>
      <trkpt lat="44.60625" lon="2.06827">
        <ele>329.2</ele>
        <time>2023-08-20T08:41:06Z</time>
      </trkpt>
      <trkpt lat="44.60623" lon="2.06847">
        <ele>330.2</ele>
        <time>2023-08-20T08:41:07Z</time>
      </trkpt>
      <trkpt lat="44.60614" lon="2.06886">
        <ele>331.8</ele>
        <time>2023-08-20T08:41:09Z</time>
      </trkpt>
      <trkpt lat="44.60608" lon="2.06905">
        <ele>332.8</ele>
        <time>2023-08-20T08:41:10Z</time>
      </trkpt>
      <trkpt lat="44.60593" lon="2.06943">
        <ele>334.2</ele>
        <time>2023-08-20T08:41:12Z</time>
      </trkpt>
      <trkpt lat="44.60577" lon="2.06981">
        <ele>335.8</ele>
        <time>2023-08-20T08:41:14Z</time>
      </trkpt>
      <trkpt lat="44.60566" lon="2.07019">
        <ele>337</ele>
        <time>2023-08-20T08:41:16Z</time>
      </trkpt>
      <trkpt lat="44.60563" lon="2.07039">
        <ele>337.4</ele>
        <time>2023-08-20T08:41:17Z</time>
      </trkpt>
      <trkpt lat="44.60562" lon="2.07058">
        <ele>338.4</ele>
        <time>2023-08-20T08:41:18Z</time>
      </trkpt>
      <trkpt lat="44.60565" lon="2.07078">
        <ele>339.4</ele>
        <time>2023-08-20T08:41:19Z</time>
      </trkpt>
      <trkpt lat="44.60569" lon="2.07097">
        <ele>340</ele>
        <time>2023-08-20T08:41:20Z</time>
      </trkpt>
      <trkpt lat="44.60574" lon="2.07115">
        <ele>340.8</ele>
        <time>2023-08-20T08:41:21Z</time>
      </trkpt>
      <trkpt lat="44.60581" lon="2.07134">
        <ele>341.2</ele>
        <time>2023-08-20T08:41:22Z</time>
      </trkpt>
      <trkpt lat="44.60587" lon="2.07153">
        <ele>342.2</ele>
        <time>2023-08-20T08:41:23Z</time>
      </trkpt>
      <trkpt lat="44.60594" lon="2.07172">
        <ele>342.6</ele>
        <time>2023-08-20T08:41:24Z</time>
      </trkpt>
      <trkpt lat="44.60601" lon="2.07191">
        <ele>343.4</ele>
        <time>2023-08-20T08:41:25Z</time>
      </trkpt>
      <trkpt lat="44.60608" lon="2.0721">
        <ele>343.6</ele>
        <time>2023-08-20T08:41:26Z</time>
      </trkpt>
      <trkpt lat="44.60615" lon="2.07228">
        <ele>344.2</ele>
        <time>2023-08-20T08:41:27Z</time>
      </trkpt>
      <trkpt lat="44.60621" lon="2.07246">
        <ele>344.4</ele>
        <time>2023-08-20T08:41:28Z</time>
      </trkpt>
      <trkpt lat="44.60627" lon="2.07263">
        <ele>344.6</ele>
        <time>2023-08-20T08:41:29Z</time>
      </trkpt>
      <trkpt lat="44.60633" lon="2.0728">
        <ele>345.2</ele>
        <time>2023-08-20T08:41:30Z</time>
      </trkpt>
      <trkpt lat="44.6064" lon="2.07296">
        <ele>345.4</ele>
        <time>2023-08-20T08:41:31Z</time>
      </trkpt>
      <trkpt lat="44.60648" lon="2.0731">
        <ele>345.8</ele>
        <time>2023-08-20T08:41:32Z</time>
      </trkpt>
      <trkpt lat="44.60657" lon="2.07323">
        <ele>346</ele>
        <time>2023-08-20T08:41:33Z</time>
      </trkpt>
      <trkpt lat="44.60668" lon="2.07333">
        <ele>346.4</ele>
        <time>2023-08-20T08:41:34Z</time>
      </trkpt>
      <trkpt lat="44.6068" lon="2.07342">
        <ele>347</ele>
        <time>2023-08-20T08:41:35Z</time>
      </trkpt>
      <trkpt lat="44.60694" lon="2.07348">
        <ele>347.2</ele>
        <time>2023-08-20T08:41:36Z</time>
      </trkpt>
      <trkpt lat="44.60708" lon="2.07355">
        <ele>347.4</ele>
        <time>2023-08-20T08:41:37Z</time>
      </trkpt>
      <trkpt lat="44.60722" lon="2.07361">
        <ele>347.6</ele>
        <time>2023-08-20T08:41:38Z</time>
      </trkpt>
      <trkpt lat="44.60737" lon="2.07368">
        <ele>348</ele>
        <time>2023-08-20T08:41:39Z</time>
      </trkpt>
      <trkpt lat="44.60752" lon="2.07375">
        <ele>348</ele>
        <time>2023-08-20T08:41:40Z</time>
      </trkpt>
      <trkpt lat="44.60768" lon="2.07382">
        <ele>348.4</ele>
        <time>2023-08-20T08:41:41Z</time>
      </trkpt>
      <trkpt lat="44.60783" lon="2.07389">
        <ele>348.6</ele>
        <time>2023-08-20T08:41:42Z</time>
      </trkpt>
      <trkpt lat="44.60797" lon="2.07396">
        <ele>348.8</ele>
        <time>2023-08-20T08:41:43Z</time>
      </trkpt>
      <trkpt lat="44.60814" lon="2.07403">
        <ele>349.4</ele>
        <time>2023-08-20T08:41:44Z</time>
      </trkpt>
      <trkpt lat="44.60824" lon="2.07408">
        <ele>349.6</ele>
        <time>2023-08-20T08:41:45Z</time>
      </trkpt>
      <trkpt lat="44.60837" lon="2.07415">
        <ele>350</ele>
        <time>2023-08-20T08:41:46Z</time>
      </trkpt>
      <trkpt lat="44.60849" lon="2.07422">
        <ele>350</ele>
        <time>2023-08-20T08:41:47Z</time>
      </trkpt>
      <trkpt lat="44.60859" lon="2.07431">
        <ele>350.4</ele>
        <time>2023-08-20T08:41:48Z</time>
      </trkpt>
      <trkpt lat="44.60869" lon="2.07442">
        <ele>350.6</ele>
        <time>2023-08-20T08:41:49Z</time>
      </trkpt>
      <trkpt lat="44.60877" lon="2.07455">
        <ele>350.6</ele>
        <time>2023-08-20T08:41:50Z</time>
      </trkpt>
      <trkpt lat="44.60885" lon="2.07469">
        <ele>350.8</ele>
        <time>2023-08-20T08:41:51Z</time>
      </trkpt>
      <trkpt lat="44.60891" lon="2.07485">
        <ele>351.2</ele>
        <time>2023-08-20T08:41:52Z</time>
      </trkpt>
      <trkpt lat="44.60896" lon="2.07503">
        <ele>351.4</ele>
        <time>2023-08-20T08:41:53Z</time>
      </trkpt>
      <trkpt lat="44.60901" lon="2.07521">
        <ele>351.4</ele>
        <time>2023-08-20T08:41:54Z</time>
      </trkpt>
      <trkpt lat="44.60906" lon="2.0754">
        <ele>352</ele>
        <time>2023-08-20T08:41:55Z</time>
      </trkpt>
      <trkpt lat="44.60911" lon="2.0756">
        <ele>352.6</ele>
        <time>2023-08-20T08:41:56Z</time>
      </trkpt>
      <trkpt lat="44.60916" lon="2.07579">
        <ele>353.4</ele>
        <time>2023-08-20T08:41:57Z</time>
      </trkpt>
      <trkpt lat="44.60922" lon="2.07602">
        <ele>353.8</ele>
        <time>2023-08-20T08:41:58Z</time>
      </trkpt>
      <trkpt lat="44.60926" lon="2.07617">
        <ele>354.6</ele>
        <time>2023-08-20T08:41:59Z</time>
      </trkpt>
      <trkpt lat="44.60933" lon="2.07636">
        <ele>355.8</ele>
        <time>2023-08-20T08:42:00Z</time>
      </trkpt>
      <trkpt lat="44.60939" lon="2.07654">
        <ele>356.4</ele>
        <time>2023-08-20T08:42:01Z</time>
      </trkpt>
      <trkpt lat="44.60946" lon="2.07673">
        <ele>357.6</ele>
        <time>2023-08-20T08:42:02Z</time>
      </trkpt>
      <trkpt lat="44.60953" lon="2.0769">
        <ele>358.6</ele>
        <time>2023-08-20T08:42:03Z</time>
      </trkpt>
      <trkpt lat="44.60962" lon="2.07708">
        <ele>359.8</ele>
        <time>2023-08-20T08:42:04Z</time>
      </trkpt>
      <trkpt lat="44.6097" lon="2.07724">
        <ele>360.2</ele>
        <time>2023-08-20T08:42:05Z</time>
      </trkpt>
      <trkpt lat="44.6098" lon="2.0774">
        <ele>361.2</ele>
        <time>2023-08-20T08:42:06Z</time>
      </trkpt>
      <trkpt lat="44.60989" lon="2.07756">
        <ele>361.8</ele>
        <time>2023-08-20T08:42:07Z</time>
      </trkpt>
      <trkpt lat="44.60999" lon="2.07772">
        <ele>362.6</ele>
        <time>2023-08-20T08:42:08Z</time>
      </trkpt>
      <trkpt lat="44.6101" lon="2.07789">
        <ele>363.2</ele>
        <time>2023-08-20T08:42:09Z</time>
      </trkpt>
      <trkpt lat="44.6102" lon="2.07806">
        <ele>363.6</ele>
        <time>2023-08-20T08:42:10Z</time>
      </trkpt>
      <trkpt lat="44.61031" lon="2.07823">
        <ele>364.6</ele>
        <time>2023-08-20T08:42:11Z</time>
      </trkpt>
      <trkpt lat="44.61042" lon="2.0784">
        <ele>365</ele>
        <time>2023-08-20T08:42:12Z</time>
      </trkpt>
      <trkpt lat="44.61053" lon="2.07858">
        <ele>365.8</ele>
        <time>2023-08-20T08:42:13Z</time>
      </trkpt>
      <trkpt lat="44.61064" lon="2.07875">
        <ele>366</ele>
        <time>2023-08-20T08:42:14Z</time>
      </trkpt>
      <trkpt lat="44.61074" lon="2.07892">
        <ele>366.8</ele>
        <time>2023-08-20T08:42:15Z</time>
      </trkpt>
      <trkpt lat="44.61084" lon="2.07907">
        <ele>367</ele>
        <time>2023-08-20T08:42:16Z</time>
      </trkpt>
      <trkpt lat="44.61093" lon="2.07921">
        <ele>367.6</ele>
        <time>2023-08-20T08:42:17Z</time>
      </trkpt>
      <trkpt lat="44.61102" lon="2.07932">
        <ele>368.6</ele>
        <time>2023-08-20T08:42:18Z</time>
      </trkpt>
      <trkpt lat="44.61113" lon="2.07941">
        <ele>369</ele>
        <time>2023-08-20T08:42:19Z</time>
      </trkpt>
      <trkpt lat="44.61124" lon="2.07946">
        <ele>369.4</ele>
        <time>2023-08-20T08:42:20Z</time>
      </trkpt>
      <trkpt lat="44.61137" lon="2.07947">
        <ele>369.8</ele>
        <time>2023-08-20T08:42:21Z</time>
      </trkpt>
      <trkpt lat="44.6115" lon="2.07945">
        <ele>370</ele>
        <time>2023-08-20T08:42:22Z</time>
      </trkpt>
      <trkpt lat="44.61164" lon="2.07941">
        <ele>370.2</ele>
        <time>2023-08-20T08:42:23Z</time>
      </trkpt>
      <trkpt lat="44.61179" lon="2.07936">
        <ele>370.2</ele>
        <time>2023-08-20T08:42:24Z</time>
      </trkpt>
      <trkpt lat="44.61194" lon="2.0793">
        <ele>371.2</ele>
        <time>2023-08-20T08:42:25Z</time>
      </trkpt>
      <trkpt lat="44.61209" lon="2.07926">
        <ele>371.6</ele>
        <time>2023-08-20T08:42:26Z</time>
      </trkpt>
      <trkpt lat="44.61224" lon="2.07923">
        <ele>372</ele>
        <time>2023-08-20T08:42:27Z</time>
      </trkpt>
      <trkpt lat="44.61238" lon="2.07922">
        <ele>372.2</ele>
        <time>2023-08-20T08:42:28Z</time>
      </trkpt>
      <trkpt lat="44.61252" lon="2.07926">
        <ele>372.8</ele>
        <time>2023-08-20T08:42:29Z</time>
      </trkpt>
      <trkpt lat="44.61265" lon="2.07933">
        <ele>373.2</ele>
        <time>2023-08-20T08:42:30Z</time>
      </trkpt>
      <trkpt lat="44.61278" lon="2.07944">
        <ele>373.6</ele>
        <time>2023-08-20T08:42:31Z</time>
      </trkpt>
      <trkpt lat="44.61289" lon="2.07958">
        <ele>373.8</ele>
        <time>2023-08-20T08:42:32Z</time>
      </trkpt>
      <trkpt lat="44.61298" lon="2.07974">
        <ele>374.2</ele>
        <time>2023-08-20T08:42:33Z</time>
      </trkpt>
      <trkpt lat="44.61306" lon="2.07991">
        <ele>374.8</ele>
        <time>2023-08-20T08:42:34Z</time>
      </trkpt>
      <trkpt lat="44.61312" lon="2.08009">
        <ele>374.8</ele>
        <time>2023-08-20T08:42:35Z</time>
      </trkpt>
      <trkpt lat="44.61316" lon="2.08028">
        <ele>375</ele>
        <time>2023-08-20T08:42:36Z</time>
      </trkpt>
      <trkpt lat="44.61318" lon="2.08047">
        <ele>375.4</ele>
        <time>2023-08-20T08:42:37Z</time>
      </trkpt>
      <trkpt lat="44.61319" lon="2.08067">
        <ele>375.6</ele>
        <time>2023-08-20T08:42:38Z</time>
      </trkpt>
      <trkpt lat="44.61318" lon="2.08087">
        <ele>375.8</ele>
        <time>2023-08-20T08:42:39Z</time>
      </trkpt>
      <trkpt lat="44.61318" lon="2.08108">
        <ele>376</ele>
        <time>2023-08-20T08:42:40Z</time>
      </trkpt>
      <trkpt lat="44.61317" lon="2.08128">
        <ele>376.4</ele>
        <time>2023-08-20T08:42:41Z</time>
      </trkpt>
      <trkpt lat="44.61316" lon="2.08149">
        <ele>377</ele>
        <time>2023-08-20T08:42:42Z</time>
      </trkpt>
      <trkpt lat="44.61316" lon="2.08169">
        <ele>377.6</ele>
        <time>2023-08-20T08:42:43Z</time>
      </trkpt>
      <trkpt lat="44.61315" lon="2.08189">
        <ele>378</ele>
        <time>2023-08-20T08:42:44Z</time>
      </trkpt>
      <trkpt lat="44.61314" lon="2.08208">
        <ele>379</ele>
        <time>2023-08-20T08:42:45Z</time>
      </trkpt>
      <trkpt lat="44.61314" lon="2.08227">
        <ele>379.2</ele>
        <time>2023-08-20T08:42:46Z</time>
      </trkpt>
      <trkpt lat="44.61313" lon="2.08246">
        <ele>379.6</ele>
        <time>2023-08-20T08:42:47Z</time>
      </trkpt>
      <trkpt lat="44.61313" lon="2.08265">
        <ele>379.6</ele>
        <time>2023-08-20T08:42:48Z</time>
      </trkpt>
      <trkpt lat="44.61313" lon="2.08283">
        <ele>379.8</ele>
        <time>2023-08-20T08:42:49Z</time>
      </trkpt>
      <trkpt lat="44.61312" lon="2.08302">
        <ele>380.2</ele>
        <time>2023-08-20T08:42:50Z</time>
      </trkpt>
      <trkpt lat="44.61312" lon="2.0832">
        <ele>380.6</ele>
        <time>2023-08-20T08:42:51Z</time>
      </trkpt>
      <trkpt lat="44.61311" lon="2.08339">
        <ele>380.8</ele>
        <time>2023-08-20T08:42:52Z</time>
      </trkpt>
      <trkpt lat="44.61311" lon="2.08358">
        <ele>381</ele>
        <time>2023-08-20T08:42:53Z</time>
      </trkpt>
      <trkpt lat="44.61311" lon="2.08377">
        <ele>381.6</ele>
        <time>2023-08-20T08:42:54Z</time>
      </trkpt>
      <trkpt lat="44.61312" lon="2.08396">
        <ele>381.8</ele>
        <time>2023-08-20T08:42:55Z</time>
      </trkpt>
      <trkpt lat="44.61315" lon="2.08415">
        <ele>382.4</ele>
        <time>2023-08-20T08:42:56Z</time>
      </trkpt>
      <trkpt lat="44.61319" lon="2.08435">
        <ele>382.8</ele>
        <time>2023-08-20T08:42:57Z</time>
      </trkpt>
      <trkpt lat="44.61325" lon="2.08454">
        <ele>384</ele>
        <time>2023-08-20T08:42:58Z</time>
      </trkpt>
      <trkpt lat="44.61333" lon="2.08474">
        <ele>384.6</ele>
        <time>2023-08-20T08:42:59Z</time>
      </trkpt>
      <trkpt lat="44.61341" lon="2.08493">
        <ele>385</ele>
        <time>2023-08-20T08:43:00Z</time>
      </trkpt>
      <trkpt lat="44.6135" lon="2.08511">
        <ele>385.8</ele>
        <time>2023-08-20T08:43:01Z</time>
      </trkpt>
      <trkpt lat="44.6136" lon="2.08527">
        <ele>386.4</ele>
        <time>2023-08-20T08:43:02Z</time>
      </trkpt>
      <trkpt lat="44.61372" lon="2.08539">
        <ele>386.8</ele>
        <time>2023-08-20T08:43:03Z</time>
      </trkpt>
      <trkpt lat="44.61385" lon="2.08547">
        <ele>387</ele>
        <time>2023-08-20T08:43:04Z</time>
      </trkpt>
      <trkpt lat="44.61398" lon="2.08554">
        <ele>387.4</ele>
        <time>2023-08-20T08:43:05Z</time>
      </trkpt>
      <trkpt lat="44.61413" lon="2.0856">
        <ele>387.4</ele>
        <time>2023-08-20T08:43:06Z</time>
      </trkpt>
      <trkpt lat="44.61428" lon="2.08566">
        <ele>387.6</ele>
        <time>2023-08-20T08:43:07Z</time>
      </trkpt>
      <trkpt lat="44.61442" lon="2.08572">
        <ele>387.6</ele>
        <time>2023-08-20T08:43:08Z</time>
      </trkpt>
      <trkpt lat="44.61456" lon="2.0858">
        <ele>387.6</ele>
        <time>2023-08-20T08:43:09Z</time>
      </trkpt>
      <trkpt lat="44.61468" lon="2.08591">
        <ele>387.4</ele>
        <time>2023-08-20T08:43:10Z</time>
      </trkpt>
      <trkpt lat="44.61479" lon="2.08605">
        <ele>387.4</ele>
        <time>2023-08-20T08:43:11Z</time>
      </trkpt>
      <trkpt lat="44.61486" lon="2.08622">
        <ele>386.8</ele>
        <time>2023-08-20T08:43:12Z</time>
      </trkpt>
      <trkpt lat="44.6149" lon="2.0864">
        <ele>386.6</ele>
        <time>2023-08-20T08:43:13Z</time>
      </trkpt>
      <trkpt lat="44.61492" lon="2.08661">
        <ele>385.8</ele>
        <time>2023-08-20T08:43:14Z</time>
      </trkpt>
      <trkpt lat="44.61492" lon="2.08682">
        <ele>385.6</ele>
        <time>2023-08-20T08:43:15Z</time>
      </trkpt>
      <trkpt lat="44.61488" lon="2.08702">
        <ele>385.4</ele>
        <time>2023-08-20T08:43:16Z</time>
      </trkpt>
      <trkpt lat="44.61483" lon="2.08722">
        <ele>385.2</ele>
        <time>2023-08-20T08:43:17Z</time>
      </trkpt>
      <trkpt lat="44.61477" lon="2.08743">
        <ele>385</ele>
        <time>2023-08-20T08:43:18Z</time>
      </trkpt>
      <trkpt lat="44.61471" lon="2.08764">
        <ele>384.8</ele>
        <time>2023-08-20T08:43:19Z</time>
      </trkpt>
      <trkpt lat="44.61465" lon="2.08785">
        <ele>384.8</ele>
        <time>2023-08-20T08:43:20Z</time>
      </trkpt>
      <trkpt lat="44.6146" lon="2.08805">
        <ele>384.6</ele>
        <time>2023-08-20T08:43:21Z</time>
      </trkpt>
      <trkpt lat="44.61455" lon="2.08824">
        <ele>384.6</ele>
        <time>2023-08-20T08:43:22Z</time>
      </trkpt>
      <trkpt lat="44.61451" lon="2.08843">
        <ele>384.4</ele>
        <time>2023-08-20T08:43:23Z</time>
      </trkpt>
      <trkpt lat="44.6145" lon="2.08862">
        <ele>384.4</ele>
        <time>2023-08-20T08:43:24Z</time>
      </trkpt>
      <trkpt lat="44.61451" lon="2.0888">
        <ele>384.4</ele>
        <time>2023-08-20T08:43:25Z</time>
      </trkpt>
      <trkpt lat="44.61455" lon="2.08898">
        <ele>384.2</ele>
        <time>2023-08-20T08:43:26Z</time>
      </trkpt>
      <trkpt lat="44.61462" lon="2.08914">
        <ele>383.8</ele>
        <time>2023-08-20T08:43:27Z</time>
      </trkpt>
      <trkpt lat="44.61471" lon="2.08928">
        <ele>383.4</ele>
        <time>2023-08-20T08:43:28Z</time>
      </trkpt>
      <trkpt lat="44.6148" lon="2.08943">
        <ele>383</ele>
        <time>2023-08-20T08:43:29Z</time>
      </trkpt>
      <trkpt lat="44.6149" lon="2.08957">
        <ele>382</ele>
        <time>2023-08-20T08:43:30Z</time>
      </trkpt>
      <trkpt lat="44.61508" lon="2.08989">
        <ele>381.2</ele>
        <time>2023-08-20T08:43:32Z</time>
      </trkpt>
      <trkpt lat="44.61514" lon="2.09007">
        <ele>380.6</ele>
        <time>2023-08-20T08:43:33Z</time>
      </trkpt>
      <trkpt lat="44.61517" lon="2.09027">
        <ele>380.2</ele>
        <time>2023-08-20T08:43:34Z</time>
      </trkpt>
      <trkpt lat="44.61518" lon="2.09047">
        <ele>379.8</ele>
        <time>2023-08-20T08:43:35Z</time>
      </trkpt>
      <trkpt lat="44.61517" lon="2.09069">
        <ele>379.2</ele>
        <time>2023-08-20T08:43:36Z</time>
      </trkpt>
      <trkpt lat="44.61515" lon="2.09092">
        <ele>377.8</ele>
        <time>2023-08-20T08:43:37Z</time>
      </trkpt>
      <trkpt lat="44.61513" lon="2.09115">
        <ele>377.2</ele>
        <time>2023-08-20T08:43:38Z</time>
      </trkpt>
      <trkpt lat="44.61511" lon="2.09138">
        <ele>376.6</ele>
        <time>2023-08-20T08:43:39Z</time>
      </trkpt>
      <trkpt lat="44.61507" lon="2.09185">
        <ele>375.4</ele>
        <time>2023-08-20T08:43:41Z</time>
      </trkpt>
      <trkpt lat="44.61505" lon="2.09207">
        <ele>374.8</ele>
        <time>2023-08-20T08:43:42Z</time>
      </trkpt>
      <trkpt lat="44.61503" lon="2.09229">
        <ele>374.4</ele>
        <time>2023-08-20T08:43:43Z</time>
      </trkpt>
      <trkpt lat="44.61501" lon="2.0925">
        <ele>373.8</ele>
        <time>2023-08-20T08:43:44Z</time>
      </trkpt>
      <trkpt lat="44.615" lon="2.0927">
        <ele>373.4</ele>
        <time>2023-08-20T08:43:45Z</time>
      </trkpt>
      <trkpt lat="44.61498" lon="2.09291">
        <ele>372.6</ele>
        <time>2023-08-20T08:43:46Z</time>
      </trkpt>
      <trkpt lat="44.61496" lon="2.09312">
        <ele>372.4</ele>
        <time>2023-08-20T08:43:47Z</time>
      </trkpt>
      <trkpt lat="44.61492" lon="2.09355">
        <ele>371.2</ele>
        <time>2023-08-20T08:43:49Z</time>
      </trkpt>
      <trkpt lat="44.61491" lon="2.09377">
        <ele>370</ele>
        <time>2023-08-20T08:43:50Z</time>
      </trkpt>
      <trkpt lat="44.61487" lon="2.09421">
        <ele>368.8</ele>
        <time>2023-08-20T08:43:52Z</time>
      </trkpt>
      <trkpt lat="44.61483" lon="2.09464">
        <ele>367.8</ele>
        <time>2023-08-20T08:43:54Z</time>
      </trkpt>
      <trkpt lat="44.61482" lon="2.09484">
        <ele>366.8</ele>
        <time>2023-08-20T08:43:55Z</time>
      </trkpt>
      <trkpt lat="44.61479" lon="2.09504">
        <ele>366.2</ele>
        <time>2023-08-20T08:43:56Z</time>
      </trkpt>
      <trkpt lat="44.61478" lon="2.09524">
        <ele>365</ele>
        <time>2023-08-20T08:43:57Z</time>
      </trkpt>
      <trkpt lat="44.61476" lon="2.09544">
        <ele>364</ele>
        <time>2023-08-20T08:43:58Z</time>
      </trkpt>
      <trkpt lat="44.61475" lon="2.09605">
        <ele>362.6</ele>
        <time>2023-08-20T08:44:01Z</time>
      </trkpt>
      <trkpt lat="44.61479" lon="2.09625">
        <ele>361.6</ele>
        <time>2023-08-20T08:44:02Z</time>
      </trkpt>
      <trkpt lat="44.61485" lon="2.09644">
        <ele>361</ele>
        <time>2023-08-20T08:44:03Z</time>
      </trkpt>
      <trkpt lat="44.61494" lon="2.09662">
        <ele>360.2</ele>
        <time>2023-08-20T08:44:04Z</time>
      </trkpt>
      <trkpt lat="44.61504" lon="2.09679">
        <ele>360</ele>
        <time>2023-08-20T08:44:05Z</time>
      </trkpt>
      <trkpt lat="44.61515" lon="2.09696">
        <ele>359</ele>
        <time>2023-08-20T08:44:06Z</time>
      </trkpt>
      <trkpt lat="44.61526" lon="2.09712">
        <ele>357.6</ele>
        <time>2023-08-20T08:44:07Z</time>
      </trkpt>
      <trkpt lat="44.6155" lon="2.09744">
        <ele>356.4</ele>
        <time>2023-08-20T08:44:09Z</time>
      </trkpt>
      <trkpt lat="44.61585" lon="2.09793">
        <ele>355.4</ele>
        <time>2023-08-20T08:44:12Z</time>
      </trkpt>
      <trkpt lat="44.61597" lon="2.0981">
        <ele>354.2</ele>
        <time>2023-08-20T08:44:13Z</time>
      </trkpt>
      <trkpt lat="44.6162" lon="2.09841">
        <ele>352.8</ele>
        <time>2023-08-20T08:44:15Z</time>
      </trkpt>
      <trkpt lat="44.6163" lon="2.09856">
        <ele>352</ele>
        <time>2023-08-20T08:44:16Z</time>
      </trkpt>
      <trkpt lat="44.61641" lon="2.09871">
        <ele>351.6</ele>
        <time>2023-08-20T08:44:17Z</time>
      </trkpt>
      <trkpt lat="44.61651" lon="2.09886">
        <ele>351</ele>
        <time>2023-08-20T08:44:18Z</time>
      </trkpt>
      <trkpt lat="44.6166" lon="2.09902">
        <ele>350.4</ele>
        <time>2023-08-20T08:44:19Z</time>
      </trkpt>
      <trkpt lat="44.61669" lon="2.09917">
        <ele>349.6</ele>
        <time>2023-08-20T08:44:20Z</time>
      </trkpt>
      <trkpt lat="44.61677" lon="2.09932">
        <ele>349.2</ele>
        <time>2023-08-20T08:44:21Z</time>
      </trkpt>
      <trkpt lat="44.61685" lon="2.09947">
        <ele>348.4</ele>
        <time>2023-08-20T08:44:22Z</time>
      </trkpt>
      <trkpt lat="44.61692" lon="2.09962">
        <ele>347.6</ele>
        <time>2023-08-20T08:44:23Z</time>
      </trkpt>
      <trkpt lat="44.61698" lon="2.09977">
        <ele>347.2</ele>
        <time>2023-08-20T08:44:24Z</time>
      </trkpt>
      <trkpt lat="44.61705" lon="2.09992">
        <ele>346.4</ele>
        <time>2023-08-20T08:44:25Z</time>
      </trkpt>
      <trkpt lat="44.61712" lon="2.10006">
        <ele>346.2</ele>
        <time>2023-08-20T08:44:26Z</time>
      </trkpt>
      <trkpt lat="44.61719" lon="2.10022">
        <ele>345.6</ele>
        <time>2023-08-20T08:44:27Z</time>
      </trkpt>
      <trkpt lat="44.61726" lon="2.10037">
        <ele>345.2</ele>
        <time>2023-08-20T08:44:28Z</time>
      </trkpt>
      <trkpt lat="44.6174" lon="2.10071">
        <ele>345</ele>
        <time>2023-08-20T08:44:30Z</time>
      </trkpt>
      <trkpt lat="44.61755" lon="2.10111">
        <ele>344.2</ele>
        <time>2023-08-20T08:44:32Z</time>
      </trkpt>
      <trkpt lat="44.61764" lon="2.10144">
        <ele>343.6</ele>
        <time>2023-08-20T08:44:34Z</time>
      </trkpt>
      <trkpt lat="44.61769" lon="2.10162">
        <ele>343.6</ele>
        <time>2023-08-20T08:44:35Z</time>
      </trkpt>
      <trkpt lat="44.61774" lon="2.10181">
        <ele>343</ele>
        <time>2023-08-20T08:44:36Z</time>
      </trkpt>
      <trkpt lat="44.61778" lon="2.10198">
        <ele>343</ele>
        <time>2023-08-20T08:44:37Z</time>
      </trkpt>
      <trkpt lat="44.61791" lon="2.10252">
        <ele>341.6</ele>
        <time>2023-08-20T08:44:40Z</time>
      </trkpt>
      <trkpt lat="44.61801" lon="2.10289">
        <ele>341.2</ele>
        <time>2023-08-20T08:44:42Z</time>
      </trkpt>
      <trkpt lat="44.61806" lon="2.10309">
        <ele>340.6</ele>
        <time>2023-08-20T08:44:43Z</time>
      </trkpt>
      <trkpt lat="44.61824" lon="2.10383">
        <ele>339.8</ele>
        <time>2023-08-20T08:44:47Z</time>
      </trkpt>
      <trkpt lat="44.61828" lon="2.10399">
        <ele>339.4</ele>
        <time>2023-08-20T08:44:48Z</time>
      </trkpt>
      <trkpt lat="44.61832" lon="2.10413">
        <ele>339.4</ele>
        <time>2023-08-20T08:44:49Z</time>
      </trkpt>
      <trkpt lat="44.61835" lon="2.10425">
        <ele>339</ele>
        <time>2023-08-20T08:44:50Z</time>
      </trkpt>
      <trkpt lat="44.61837" lon="2.10436">
        <ele>338.8</ele>
        <time>2023-08-20T08:44:51Z</time>
      </trkpt>
      <trkpt lat="44.61839" lon="2.10446">
        <ele>338.2</ele>
        <time>2023-08-20T08:44:52Z</time>
      </trkpt>
      <trkpt lat="44.61841" lon="2.10455">
        <ele>337.8</ele>
        <time>2023-08-20T08:44:53Z</time>
      </trkpt>
      <trkpt lat="44.61844" lon="2.10462">
        <ele>337.2</ele>
        <time>2023-08-20T08:44:54Z</time>
      </trkpt>
      <trkpt lat="44.61848" lon="2.10468">
        <ele>336.6</ele>
        <time>2023-08-20T08:44:55Z</time>
      </trkpt>
      <trkpt lat="44.61851" lon="2.10472">
        <ele>335.8</ele>
        <time>2023-08-20T08:44:56Z</time>
      </trkpt>
      <trkpt lat="44.61856" lon="2.10476">
        <ele>335.2</ele>
        <time>2023-08-20T08:44:57Z</time>
      </trkpt>
      <trkpt lat="44.6186" lon="2.10481">
        <ele>335</ele>
        <time>2023-08-20T08:44:58Z</time>
      </trkpt>
      <trkpt lat="44.61865" lon="2.10487">
        <ele>334.6</ele>
        <time>2023-08-20T08:44:59Z</time>
      </trkpt>
      <trkpt lat="44.61875" lon="2.10501">
        <ele>334.2</ele>
        <time>2023-08-20T08:45:01Z</time>
      </trkpt>
      <trkpt lat="44.61901" lon="2.10536">
        <ele>334.2</ele>
        <time>2023-08-20T08:45:06Z</time>
      </trkpt>
      <trkpt lat="44.61926" lon="2.10576">
        <ele>335.4</ele>
        <time>2023-08-20T08:45:11Z</time>
      </trkpt>
      <trkpt lat="44.61931" lon="2.10583">
        <ele>336</ele>
        <time>2023-08-20T08:45:12Z</time>
      </trkpt>
      <trkpt lat="44.61945" lon="2.10607">
        <ele>337.4</ele>
        <time>2023-08-20T08:45:15Z</time>
      </trkpt>
      <trkpt lat="44.61949" lon="2.10615">
        <ele>338</ele>
        <time>2023-08-20T08:45:16Z</time>
      </trkpt>
      <trkpt lat="44.61953" lon="2.10624">
        <ele>338.8</ele>
        <time>2023-08-20T08:45:17Z</time>
      </trkpt>
      <trkpt lat="44.6196" lon="2.10643">
        <ele>339.8</ele>
        <time>2023-08-20T08:45:19Z</time>
      </trkpt>
      <trkpt lat="44.61963" lon="2.10653">
        <ele>340.2</ele>
        <time>2023-08-20T08:45:20Z</time>
      </trkpt>
      <trkpt lat="44.6197" lon="2.10673">
        <ele>341.8</ele>
        <time>2023-08-20T08:45:22Z</time>
      </trkpt>
      <trkpt lat="44.61974" lon="2.10684">
        <ele>342</ele>
        <time>2023-08-20T08:45:23Z</time>
      </trkpt>
      <trkpt lat="44.61977" lon="2.10694">
        <ele>342.2</ele>
        <time>2023-08-20T08:45:24Z</time>
      </trkpt>
      <trkpt lat="44.6198" lon="2.10704">
        <ele>342.2</ele>
        <time>2023-08-20T08:45:25Z</time>
      </trkpt>
      <trkpt lat="44.61983" lon="2.10712">
        <ele>342.2</ele>
        <time>2023-08-20T08:45:26Z</time>
      </trkpt>
      <trkpt lat="44.61986" lon="2.1072">
        <ele>342.2</ele>
        <time>2023-08-20T08:45:27Z</time>
      </trkpt>
      <trkpt lat="44.61989" lon="2.10728">
        <ele>342.2</ele>
        <time>2023-08-20T08:45:28Z</time>
      </trkpt>
      <trkpt lat="44.61992" lon="2.10735">
        <ele>342</ele>
        <time>2023-08-20T08:45:29Z</time>
      </trkpt>
      <trkpt lat="44.61994" lon="2.1074">
        <ele>341.8</ele>
        <time>2023-08-20T08:45:30Z</time>
      </trkpt>
      <trkpt lat="44.61995" lon="2.10744">
        <ele>341.6</ele>
        <time>2023-08-20T08:45:31Z</time>
      </trkpt>
      <trkpt lat="44.61996" lon="2.10746">
        <ele>341.2</ele>
        <time>2023-08-20T08:45:32Z</time>
      </trkpt>
      <trkpt lat="44.61996" lon="2.10748">
        <ele>340.8</ele>
        <time>2023-08-20T08:45:33Z</time>
      </trkpt>
      <trkpt lat="44.61996" lon="2.10749">
        <ele>340.4</ele>
        <time>2023-08-20T08:45:34Z</time>
      </trkpt>
      <trkpt lat="44.61996" lon="2.1075">
        <ele>339.6</ele>
        <time>2023-08-20T08:45:35Z</time>
      </trkpt>
      <trkpt lat="44.61997" lon="2.10753">
        <ele>339.4</ele>
        <time>2023-08-20T08:45:36Z</time>
      </trkpt>
      <trkpt lat="44.61997" lon="2.10754">
        <ele>338.6</ele>
        <time>2023-08-20T08:45:37Z</time>
      </trkpt>
      <trkpt lat="44.61998" lon="2.10756">
        <ele>338.2</ele>
        <time>2023-08-20T08:45:38Z</time>
      </trkpt>
      <trkpt lat="44.62" lon="2.10758">
        <ele>338</ele>
        <time>2023-08-20T08:45:39Z</time>
      </trkpt>
      <trkpt lat="44.62002" lon="2.1076">
        <ele>337.4</ele>
        <time>2023-08-20T08:45:40Z</time>
      </trkpt>
      <trkpt lat="44.62007" lon="2.1076">
        <ele>337.2</ele>
        <time>2023-08-20T08:45:41Z</time>
      </trkpt>
      <trkpt lat="44.62018" lon="2.10753">
        <ele>336.8</ele>
        <time>2023-08-20T08:45:43Z</time>
      </trkpt>
      <trkpt lat="44.62023" lon="2.10747">
        <ele>336.6</ele>
        <time>2023-08-20T08:45:44Z</time>
      </trkpt>
      <trkpt lat="44.62028" lon="2.10739">
        <ele>336.4</ele>
        <time>2023-08-20T08:45:45Z</time>
      </trkpt>
      <trkpt lat="44.62033" lon="2.10729">
        <ele>336.2</ele>
        <time>2023-08-20T08:45:46Z</time>
      </trkpt>
      <trkpt lat="44.62035" lon="2.10723">
        <ele>336.2</ele>
        <time>2023-08-20T08:45:47Z</time>
      </trkpt>
      <trkpt lat="44.62036" lon="2.10716">
        <ele>336</ele>
        <time>2023-08-20T08:45:48Z</time>
      </trkpt>
      <trkpt lat="44.62038" lon="2.10709">
        <ele>335.8</ele>
        <time>2023-08-20T08:45:49Z</time>
      </trkpt>
      <trkpt lat="44.6204" lon="2.10702">
        <ele>335.8</ele>
        <time>2023-08-20T08:45:50Z</time>
      </trkpt>
      <trkpt lat="44.62041" lon="2.10695">
        <ele>335.6</ele>
        <time>2023-08-20T08:45:51Z</time>
      </trkpt>
      <trkpt lat="44.62042" lon="2.10689">
        <ele>335.4</ele>
        <time>2023-08-20T08:45:52Z</time>
      </trkpt>
      <trkpt lat="44.62044" lon="2.10682">
        <ele>334.8</ele>
        <time>2023-08-20T08:45:53Z</time>
      </trkpt>
      <trkpt lat="44.62045" lon="2.10675">
        <ele>334.8</ele>
        <time>2023-08-20T08:45:54Z</time>
      </trkpt>
      <trkpt lat="44.62047" lon="2.10667">
        <ele>333.8</ele>
        <time>2023-08-20T08:45:55Z</time>
      </trkpt>
      <trkpt lat="44.62049" lon="2.1066">
        <ele>333.4</ele>
        <time>2023-08-20T08:45:56Z</time>
      </trkpt>
      <trkpt lat="44.62054" lon="2.10653">
        <ele>333.2</ele>
        <time>2023-08-20T08:45:57Z</time>
      </trkpt>
      <trkpt lat="44.62066" lon="2.10638">
        <ele>332.8</ele>
        <time>2023-08-20T08:45:59Z</time>
      </trkpt>
      <trkpt lat="44.62072" lon="2.10632">
        <ele>332.6</ele>
        <time>2023-08-20T08:46:00Z</time>
      </trkpt>
      <trkpt lat="44.62079" lon="2.10625">
        <ele>332.6</ele>
        <time>2023-08-20T08:46:01Z</time>
      </trkpt>
      <trkpt lat="44.62085" lon="2.10617">
        <ele>332.2</ele>
        <time>2023-08-20T08:46:02Z</time>
      </trkpt>
      <trkpt lat="44.62091" lon="2.10609">
        <ele>332.2</ele>
        <time>2023-08-20T08:46:03Z</time>
      </trkpt>
      <trkpt lat="44.62097" lon="2.10586">
        <ele>332</ele>
        <time>2023-08-20T08:46:05Z</time>
      </trkpt>
      <trkpt lat="44.62098" lon="2.10573">
        <ele>331.8</ele>
        <time>2023-08-20T08:46:06Z</time>
      </trkpt>
      <trkpt lat="44.62096" lon="2.1056">
        <ele>331.4</ele>
        <time>2023-08-20T08:46:07Z</time>
      </trkpt>
      <trkpt lat="44.62095" lon="2.10546">
        <ele>331.2</ele>
        <time>2023-08-20T08:46:08Z</time>
      </trkpt>
      <trkpt lat="44.62093" lon="2.10531">
        <ele>330.8</ele>
        <time>2023-08-20T08:46:09Z</time>
      </trkpt>
      <trkpt lat="44.6209" lon="2.10516">
        <ele>330.6</ele>
        <time>2023-08-20T08:46:10Z</time>
      </trkpt>
      <trkpt lat="44.62088" lon="2.10499">
        <ele>330</ele>
        <time>2023-08-20T08:46:11Z</time>
      </trkpt>
      <trkpt lat="44.62086" lon="2.10449">
        <ele>328.6</ele>
        <time>2023-08-20T08:46:14Z</time>
      </trkpt>
      <trkpt lat="44.62086" lon="2.10431">
        <ele>328.4</ele>
        <time>2023-08-20T08:46:15Z</time>
      </trkpt>
      <trkpt lat="44.62089" lon="2.10396">
        <ele>327.8</ele>
        <time>2023-08-20T08:46:17Z</time>
      </trkpt>
      <trkpt lat="44.62091" lon="2.10379">
        <ele>327.2</ele>
        <time>2023-08-20T08:46:18Z</time>
      </trkpt>
      <trkpt lat="44.62093" lon="2.10362">
        <ele>326.8</ele>
        <time>2023-08-20T08:46:19Z</time>
      </trkpt>
      <trkpt lat="44.62095" lon="2.10345">
        <ele>326</ele>
        <time>2023-08-20T08:46:20Z</time>
      </trkpt>
      <trkpt lat="44.621" lon="2.10307">
        <ele>324.8</ele>
        <time>2023-08-20T08:46:22Z</time>
      </trkpt>
      <trkpt lat="44.62102" lon="2.10293">
        <ele>323.8</ele>
        <time>2023-08-20T08:46:23Z</time>
      </trkpt>
      <trkpt lat="44.62105" lon="2.10277">
        <ele>323.4</ele>
        <time>2023-08-20T08:46:24Z</time>
      </trkpt>
      <trkpt lat="44.62108" lon="2.10263">
        <ele>322.8</ele>
        <time>2023-08-20T08:46:25Z</time>
      </trkpt>
      <trkpt lat="44.62112" lon="2.10251">
        <ele>322.4</ele>
        <time>2023-08-20T08:46:26Z</time>
      </trkpt>
      <trkpt lat="44.62119" lon="2.10242">
        <ele>321.4</ele>
        <time>2023-08-20T08:46:27Z</time>
      </trkpt>
      <trkpt lat="44.62127" lon="2.10236">
        <ele>320</ele>
        <time>2023-08-20T08:46:28Z</time>
      </trkpt>
      <trkpt lat="44.62135" lon="2.10234">
        <ele>319.4</ele>
        <time>2023-08-20T08:46:29Z</time>
      </trkpt>
      <trkpt lat="44.62144" lon="2.10235">
        <ele>318.4</ele>
        <time>2023-08-20T08:46:30Z</time>
      </trkpt>
      <trkpt lat="44.62153" lon="2.10241">
        <ele>318.2</ele>
        <time>2023-08-20T08:46:31Z</time>
      </trkpt>
      <trkpt lat="44.62161" lon="2.1025">
        <ele>317.6</ele>
        <time>2023-08-20T08:46:32Z</time>
      </trkpt>
      <trkpt lat="44.62168" lon="2.10262">
        <ele>317.6</ele>
        <time>2023-08-20T08:46:33Z</time>
      </trkpt>
      <trkpt lat="44.62174" lon="2.10276">
        <ele>317.6</ele>
        <time>2023-08-20T08:46:34Z</time>
      </trkpt>
      <trkpt lat="44.6218" lon="2.1029">
        <ele>317.6</ele>
        <time>2023-08-20T08:46:35Z</time>
      </trkpt>
      <trkpt lat="44.62186" lon="2.10305">
        <ele>317.8</ele>
        <time>2023-08-20T08:46:36Z</time>
      </trkpt>
      <trkpt lat="44.62197" lon="2.10337">
        <ele>317.8</ele>
        <time>2023-08-20T08:46:38Z</time>
      </trkpt>
      <trkpt lat="44.62205" lon="2.10352">
        <ele>318.2</ele>
        <time>2023-08-20T08:46:39Z</time>
      </trkpt>
      <trkpt lat="44.62225" lon="2.1038">
        <ele>319.6</ele>
        <time>2023-08-20T08:46:41Z</time>
      </trkpt>
      <trkpt lat="44.62232" lon="2.10388">
        <ele>320</ele>
        <time>2023-08-20T08:46:42Z</time>
      </trkpt>
      <trkpt lat="44.62243" lon="2.10398">
        <ele>321</ele>
        <time>2023-08-20T08:46:43Z</time>
      </trkpt>
      <trkpt lat="44.6225" lon="2.10402">
        <ele>321.4</ele>
        <time>2023-08-20T08:46:44Z</time>
      </trkpt>
      <trkpt lat="44.62259" lon="2.10404">
        <ele>322.2</ele>
        <time>2023-08-20T08:46:45Z</time>
      </trkpt>
      <trkpt lat="44.6227" lon="2.10402">
        <ele>322.8</ele>
        <time>2023-08-20T08:46:46Z</time>
      </trkpt>
      <trkpt lat="44.62281" lon="2.10397">
        <ele>323</ele>
        <time>2023-08-20T08:46:47Z</time>
      </trkpt>
      <trkpt lat="44.62292" lon="2.1039">
        <ele>323.4</ele>
        <time>2023-08-20T08:46:48Z</time>
      </trkpt>
      <trkpt lat="44.62302" lon="2.10383">
        <ele>323.6</ele>
        <time>2023-08-20T08:46:49Z</time>
      </trkpt>
      <trkpt lat="44.62311" lon="2.10374">
        <ele>324</ele>
        <time>2023-08-20T08:46:50Z</time>
      </trkpt>
      <trkpt lat="44.6232" lon="2.10365">
        <ele>324.6</ele>
        <time>2023-08-20T08:46:51Z</time>
      </trkpt>
      <trkpt lat="44.62327" lon="2.10357">
        <ele>325.6</ele>
        <time>2023-08-20T08:46:52Z</time>
      </trkpt>
      <trkpt lat="44.62336" lon="2.10348">
        <ele>326.6</ele>
        <time>2023-08-20T08:46:53Z</time>
      </trkpt>
      <trkpt lat="44.62344" lon="2.10345">
        <ele>327</ele>
        <time>2023-08-20T08:46:54Z</time>
      </trkpt>
      <trkpt lat="44.62352" lon="2.10343">
        <ele>327.6</ele>
        <time>2023-08-20T08:46:55Z</time>
      </trkpt>
      <trkpt lat="44.62358" lon="2.10344">
        <ele>327.8</ele>
        <time>2023-08-20T08:46:56Z</time>
      </trkpt>
      <trkpt lat="44.62364" lon="2.10347">
        <ele>328.4</ele>
        <time>2023-08-20T08:46:57Z</time>
      </trkpt>
      <trkpt lat="44.6237" lon="2.10355">
        <ele>329</ele>
        <time>2023-08-20T08:46:58Z</time>
      </trkpt>
      <trkpt lat="44.62372" lon="2.10366">
        <ele>329.8</ele>
        <time>2023-08-20T08:46:59Z</time>
      </trkpt>
      <trkpt lat="44.62371" lon="2.10382">
        <ele>330</ele>
        <time>2023-08-20T08:47:00Z</time>
      </trkpt>
      <trkpt lat="44.62369" lon="2.10394">
        <ele>330.2</ele>
        <time>2023-08-20T08:47:01Z</time>
      </trkpt>
      <trkpt lat="44.62366" lon="2.10407">
        <ele>330.8</ele>
        <time>2023-08-20T08:47:02Z</time>
      </trkpt>
      <trkpt lat="44.62362" lon="2.10418">
        <ele>331</ele>
        <time>2023-08-20T08:47:03Z</time>
      </trkpt>
      <trkpt lat="44.62359" lon="2.10428">
        <ele>332</ele>
        <time>2023-08-20T08:47:04Z</time>
      </trkpt>
      <trkpt lat="44.62357" lon="2.10436">
        <ele>332.2</ele>
        <time>2023-08-20T08:47:05Z</time>
      </trkpt>
      <trkpt lat="44.62356" lon="2.10441">
        <ele>332.4</ele>
        <time>2023-08-20T08:47:06Z</time>
      </trkpt>
      <trkpt lat="44.62356" lon="2.10448">
        <ele>332.8</ele>
        <time>2023-08-20T08:47:07Z</time>
      </trkpt>
      <trkpt lat="44.62357" lon="2.10455">
        <ele>333.4</ele>
        <time>2023-08-20T08:47:08Z</time>
      </trkpt>
      <trkpt lat="44.6236" lon="2.10464">
        <ele>333.6</ele>
        <time>2023-08-20T08:47:09Z</time>
      </trkpt>
      <trkpt lat="44.62364" lon="2.10468">
        <ele>333.8</ele>
        <time>2023-08-20T08:47:10Z</time>
      </trkpt>
      <trkpt lat="44.6237" lon="2.10473">
        <ele>334</ele>
        <time>2023-08-20T08:47:11Z</time>
      </trkpt>
      <trkpt lat="44.62378" lon="2.10474">
        <ele>334.2</ele>
        <time>2023-08-20T08:47:12Z</time>
      </trkpt>
      <trkpt lat="44.62387" lon="2.10474">
        <ele>334.6</ele>
        <time>2023-08-20T08:47:13Z</time>
      </trkpt>
      <trkpt lat="44.62396" lon="2.10472">
        <ele>334.6</ele>
        <time>2023-08-20T08:47:14Z</time>
      </trkpt>
      <trkpt lat="44.62404" lon="2.10469">
        <ele>335.2</ele>
        <time>2023-08-20T08:47:15Z</time>
      </trkpt>
      <trkpt lat="44.62413" lon="2.10464">
        <ele>335.4</ele>
        <time>2023-08-20T08:47:16Z</time>
      </trkpt>
      <trkpt lat="44.62424" lon="2.10458">
        <ele>336</ele>
        <time>2023-08-20T08:47:17Z</time>
      </trkpt>
      <trkpt lat="44.62433" lon="2.10451">
        <ele>336.8</ele>
        <time>2023-08-20T08:47:18Z</time>
      </trkpt>
      <trkpt lat="44.62441" lon="2.10443">
        <ele>337.2</ele>
        <time>2023-08-20T08:47:19Z</time>
      </trkpt>
      <trkpt lat="44.62448" lon="2.10437">
        <ele>337.8</ele>
        <time>2023-08-20T08:47:20Z</time>
      </trkpt>
      <trkpt lat="44.62458" lon="2.10426">
        <ele>338</ele>
        <time>2023-08-20T08:47:21Z</time>
      </trkpt>
      <trkpt lat="44.62463" lon="2.10419">
        <ele>338.8</ele>
        <time>2023-08-20T08:47:22Z</time>
      </trkpt>
      <trkpt lat="44.6247" lon="2.10408">
        <ele>339.4</ele>
        <time>2023-08-20T08:47:23Z</time>
      </trkpt>
      <trkpt lat="44.62475" lon="2.10396">
        <ele>340.2</ele>
        <time>2023-08-20T08:47:24Z</time>
      </trkpt>
      <trkpt lat="44.62479" lon="2.10383">
        <ele>340.8</ele>
        <time>2023-08-20T08:47:25Z</time>
      </trkpt>
      <trkpt lat="44.62484" lon="2.1037">
        <ele>341.4</ele>
        <time>2023-08-20T08:47:26Z</time>
      </trkpt>
      <trkpt lat="44.62488" lon="2.10357">
        <ele>342</ele>
        <time>2023-08-20T08:47:27Z</time>
      </trkpt>
      <trkpt lat="44.62492" lon="2.10344">
        <ele>342.2</ele>
        <time>2023-08-20T08:47:28Z</time>
      </trkpt>
      <trkpt lat="44.62496" lon="2.10331">
        <ele>342.6</ele>
        <time>2023-08-20T08:47:29Z</time>
      </trkpt>
      <trkpt lat="44.625" lon="2.10318">
        <ele>342.8</ele>
        <time>2023-08-20T08:47:30Z</time>
      </trkpt>
      <trkpt lat="44.62506" lon="2.10302">
        <ele>343.8</ele>
        <time>2023-08-20T08:47:31Z</time>
      </trkpt>
      <trkpt lat="44.6251" lon="2.10291">
        <ele>344.2</ele>
        <time>2023-08-20T08:47:32Z</time>
      </trkpt>
      <trkpt lat="44.62515" lon="2.1028">
        <ele>345.4</ele>
        <time>2023-08-20T08:47:33Z</time>
      </trkpt>
      <trkpt lat="44.62522" lon="2.10268">
        <ele>345.8</ele>
        <time>2023-08-20T08:47:34Z</time>
      </trkpt>
      <trkpt lat="44.62529" lon="2.10257">
        <ele>346.4</ele>
        <time>2023-08-20T08:47:35Z</time>
      </trkpt>
      <trkpt lat="44.62537" lon="2.10248">
        <ele>346.8</ele>
        <time>2023-08-20T08:47:36Z</time>
      </trkpt>
      <trkpt lat="44.62545" lon="2.10241">
        <ele>347</ele>
        <time>2023-08-20T08:47:37Z</time>
      </trkpt>
      <trkpt lat="44.62553" lon="2.10234">
        <ele>347.6</ele>
        <time>2023-08-20T08:47:38Z</time>
      </trkpt>
      <trkpt lat="44.62559" lon="2.10227">
        <ele>348</ele>
        <time>2023-08-20T08:47:39Z</time>
      </trkpt>
      <trkpt lat="44.62565" lon="2.10219">
        <ele>348.8</ele>
        <time>2023-08-20T08:47:40Z</time>
      </trkpt>
      <trkpt lat="44.62569" lon="2.1021">
        <ele>349</ele>
        <time>2023-08-20T08:47:41Z</time>
      </trkpt>
      <trkpt lat="44.62572" lon="2.10199">
        <ele>349.2</ele>
        <time>2023-08-20T08:47:42Z</time>
      </trkpt>
      <trkpt lat="44.62573" lon="2.10187">
        <ele>349.6</ele>
        <time>2023-08-20T08:47:43Z</time>
      </trkpt>
      <trkpt lat="44.62572" lon="2.10174">
        <ele>349.6</ele>
        <time>2023-08-20T08:47:44Z</time>
      </trkpt>
      <trkpt lat="44.62569" lon="2.10159">
        <ele>350.2</ele>
        <time>2023-08-20T08:47:45Z</time>
      </trkpt>
      <trkpt lat="44.62565" lon="2.10146">
        <ele>350.4</ele>
        <time>2023-08-20T08:47:46Z</time>
      </trkpt>
      <trkpt lat="44.62559" lon="2.10132">
        <ele>350.6</ele>
        <time>2023-08-20T08:47:47Z</time>
      </trkpt>
      <trkpt lat="44.62553" lon="2.1012">
        <ele>350.6</ele>
        <time>2023-08-20T08:47:48Z</time>
      </trkpt>
      <trkpt lat="44.62547" lon="2.10107">
        <ele>350.6</ele>
        <time>2023-08-20T08:47:49Z</time>
      </trkpt>
      <trkpt lat="44.62541" lon="2.10095">
        <ele>350.8</ele>
        <time>2023-08-20T08:47:50Z</time>
      </trkpt>
      <trkpt lat="44.62537" lon="2.10082">
        <ele>350.8</ele>
        <time>2023-08-20T08:47:51Z</time>
      </trkpt>
      <trkpt lat="44.62534" lon="2.10069">
        <ele>350.6</ele>
        <time>2023-08-20T08:47:52Z</time>
      </trkpt>
      <trkpt lat="44.62532" lon="2.10055">
        <ele>350.6</ele>
        <time>2023-08-20T08:47:53Z</time>
      </trkpt>
      <trkpt lat="44.62529" lon="2.10042">
        <ele>350.4</ele>
        <time>2023-08-20T08:47:54Z</time>
      </trkpt>
      <trkpt lat="44.62526" lon="2.10028">
        <ele>350</ele>
        <time>2023-08-20T08:47:55Z</time>
      </trkpt>
      <trkpt lat="44.62523" lon="2.10014">
        <ele>349.6</ele>
        <time>2023-08-20T08:47:56Z</time>
      </trkpt>
      <trkpt lat="44.62522" lon="2.10002">
        <ele>349.4</ele>
        <time>2023-08-20T08:47:57Z</time>
      </trkpt>
      <trkpt lat="44.62523" lon="2.09989">
        <ele>348.8</ele>
        <time>2023-08-20T08:47:58Z</time>
      </trkpt>
      <trkpt lat="44.62526" lon="2.09978">
        <ele>348.6</ele>
        <time>2023-08-20T08:47:59Z</time>
      </trkpt>
      <trkpt lat="44.62531" lon="2.09967">
        <ele>348.2</ele>
        <time>2023-08-20T08:48:00Z</time>
      </trkpt>
      <trkpt lat="44.62537" lon="2.09957">
        <ele>347.8</ele>
        <time>2023-08-20T08:48:01Z</time>
      </trkpt>
      <trkpt lat="44.62545" lon="2.09949">
        <ele>347.4</ele>
        <time>2023-08-20T08:48:02Z</time>
      </trkpt>
      <trkpt lat="44.62553" lon="2.09942">
        <ele>346.6</ele>
        <time>2023-08-20T08:48:03Z</time>
      </trkpt>
      <trkpt lat="44.62562" lon="2.09934">
        <ele>346.4</ele>
        <time>2023-08-20T08:48:04Z</time>
      </trkpt>
      <trkpt lat="44.62572" lon="2.09925">
        <ele>346</ele>
        <time>2023-08-20T08:48:05Z</time>
      </trkpt>
      <trkpt lat="44.62588" lon="2.09911">
        <ele>345</ele>
        <time>2023-08-20T08:48:07Z</time>
      </trkpt>
      <trkpt lat="44.62608" lon="2.09898">
        <ele>344.4</ele>
        <time>2023-08-20T08:48:09Z</time>
      </trkpt>
      <trkpt lat="44.62628" lon="2.09892">
        <ele>343.8</ele>
        <time>2023-08-20T08:48:11Z</time>
      </trkpt>
      <trkpt lat="44.62639" lon="2.09892">
        <ele>343.6</ele>
        <time>2023-08-20T08:48:12Z</time>
      </trkpt>
      <trkpt lat="44.6266" lon="2.09889">
        <ele>343.2</ele>
        <time>2023-08-20T08:48:14Z</time>
      </trkpt>
      <trkpt lat="44.6268" lon="2.09879">
        <ele>343.2</ele>
        <time>2023-08-20T08:48:16Z</time>
      </trkpt>
      <trkpt lat="44.62689" lon="2.0987">
        <ele>343.2</ele>
        <time>2023-08-20T08:48:17Z</time>
      </trkpt>
      <trkpt lat="44.62699" lon="2.09861">
        <ele>343.2</ele>
        <time>2023-08-20T08:48:18Z</time>
      </trkpt>
      <trkpt lat="44.62708" lon="2.09851">
        <ele>343.2</ele>
        <time>2023-08-20T08:48:19Z</time>
      </trkpt>
      <trkpt lat="44.62719" lon="2.0984">
        <ele>343.2</ele>
        <time>2023-08-20T08:48:20Z</time>
      </trkpt>
      <trkpt lat="44.62749" lon="2.09815">
        <ele>344.4</ele>
        <time>2023-08-20T08:48:23Z</time>
      </trkpt>
      <trkpt lat="44.62769" lon="2.09798">
        <ele>345.2</ele>
        <time>2023-08-20T08:48:25Z</time>
      </trkpt>
      <trkpt lat="44.62776" lon="2.0979">
        <ele>345.8</ele>
        <time>2023-08-20T08:48:26Z</time>
      </trkpt>
      <trkpt lat="44.62785" lon="2.09777">
        <ele>346.4</ele>
        <time>2023-08-20T08:48:27Z</time>
      </trkpt>
      <trkpt lat="44.62793" lon="2.09761">
        <ele>347</ele>
        <time>2023-08-20T08:48:28Z</time>
      </trkpt>
      <trkpt lat="44.628" lon="2.09747">
        <ele>347.4</ele>
        <time>2023-08-20T08:48:29Z</time>
      </trkpt>
      <trkpt lat="44.62822" lon="2.09715">
        <ele>349.4</ele>
        <time>2023-08-20T08:48:32Z</time>
      </trkpt>
      <trkpt lat="44.62829" lon="2.09715">
        <ele>350</ele>
        <time>2023-08-20T08:48:33Z</time>
      </trkpt>
      <trkpt lat="44.62839" lon="2.0972">
        <ele>350.6</ele>
        <time>2023-08-20T08:48:34Z</time>
      </trkpt>
      <trkpt lat="44.62845" lon="2.09726">
        <ele>351.2</ele>
        <time>2023-08-20T08:48:35Z</time>
      </trkpt>
      <trkpt lat="44.62851" lon="2.09737">
        <ele>351.6</ele>
        <time>2023-08-20T08:48:36Z</time>
      </trkpt>
      <trkpt lat="44.62857" lon="2.09751">
        <ele>352</ele>
        <time>2023-08-20T08:48:37Z</time>
      </trkpt>
      <trkpt lat="44.62858" lon="2.09763">
        <ele>352.2</ele>
        <time>2023-08-20T08:48:38Z</time>
      </trkpt>
      <trkpt lat="44.62857" lon="2.09774">
        <ele>352.4</ele>
        <time>2023-08-20T08:48:39Z</time>
      </trkpt>
      <trkpt lat="44.62855" lon="2.09788">
        <ele>352.6</ele>
        <time>2023-08-20T08:48:40Z</time>
      </trkpt>
      <trkpt lat="44.62851" lon="2.09803">
        <ele>353</ele>
        <time>2023-08-20T08:48:41Z</time>
      </trkpt>
      <trkpt lat="44.62847" lon="2.09818">
        <ele>353.8</ele>
        <time>2023-08-20T08:48:42Z</time>
      </trkpt>
      <trkpt lat="44.62843" lon="2.09835">
        <ele>354.2</ele>
        <time>2023-08-20T08:48:43Z</time>
      </trkpt>
      <trkpt lat="44.6284" lon="2.09845">
        <ele>355</ele>
        <time>2023-08-20T08:48:44Z</time>
      </trkpt>
      <trkpt lat="44.6284" lon="2.09856">
        <ele>355.6</ele>
        <time>2023-08-20T08:48:45Z</time>
      </trkpt>
      <trkpt lat="44.62841" lon="2.09868">
        <ele>356.8</ele>
        <time>2023-08-20T08:48:46Z</time>
      </trkpt>
      <trkpt lat="44.62843" lon="2.09875">
        <ele>357.2</ele>
        <time>2023-08-20T08:48:47Z</time>
      </trkpt>
      <trkpt lat="44.62847" lon="2.09884">
        <ele>358</ele>
        <time>2023-08-20T08:48:48Z</time>
      </trkpt>
      <trkpt lat="44.62853" lon="2.09891">
        <ele>358.4</ele>
        <time>2023-08-20T08:48:49Z</time>
      </trkpt>
      <trkpt lat="44.62859" lon="2.09899">
        <ele>358.6</ele>
        <time>2023-08-20T08:48:50Z</time>
      </trkpt>
      <trkpt lat="44.62866" lon="2.09906">
        <ele>359</ele>
        <time>2023-08-20T08:48:51Z</time>
      </trkpt>
      <trkpt lat="44.62875" lon="2.09913">
        <ele>359</ele>
        <time>2023-08-20T08:48:52Z</time>
      </trkpt>
      <trkpt lat="44.62885" lon="2.09918">
        <ele>359.6</ele>
        <time>2023-08-20T08:48:53Z</time>
      </trkpt>
      <trkpt lat="44.62895" lon="2.09921">
        <ele>359.8</ele>
        <time>2023-08-20T08:48:54Z</time>
      </trkpt>
      <trkpt lat="44.62905" lon="2.09924">
        <ele>360.4</ele>
        <time>2023-08-20T08:48:55Z</time>
      </trkpt>
      <trkpt lat="44.62916" lon="2.09927">
        <ele>360.8</ele>
        <time>2023-08-20T08:48:56Z</time>
      </trkpt>
      <trkpt lat="44.62927" lon="2.0993">
        <ele>361.2</ele>
        <time>2023-08-20T08:48:57Z</time>
      </trkpt>
      <trkpt lat="44.62937" lon="2.09933">
        <ele>361.8</ele>
        <time>2023-08-20T08:48:58Z</time>
      </trkpt>
      <trkpt lat="44.62948" lon="2.09938">
        <ele>362</ele>
        <time>2023-08-20T08:48:59Z</time>
      </trkpt>
      <trkpt lat="44.62958" lon="2.09943">
        <ele>362.6</ele>
        <time>2023-08-20T08:49:00Z</time>
      </trkpt>
      <trkpt lat="44.62967" lon="2.09951">
        <ele>363</ele>
        <time>2023-08-20T08:49:01Z</time>
      </trkpt>
      <trkpt lat="44.62976" lon="2.09959">
        <ele>363.4</ele>
        <time>2023-08-20T08:49:02Z</time>
      </trkpt>
      <trkpt lat="44.62984" lon="2.09967">
        <ele>363.6</ele>
        <time>2023-08-20T08:49:03Z</time>
      </trkpt>
      <trkpt lat="44.62992" lon="2.09975">
        <ele>364.2</ele>
        <time>2023-08-20T08:49:04Z</time>
      </trkpt>
      <trkpt lat="44.63" lon="2.09984">
        <ele>364.4</ele>
        <time>2023-08-20T08:49:05Z</time>
      </trkpt>
      <trkpt lat="44.63008" lon="2.09991">
        <ele>365</ele>
        <time>2023-08-20T08:49:06Z</time>
      </trkpt>
      <trkpt lat="44.63016" lon="2.1">
        <ele>365.4</ele>
        <time>2023-08-20T08:49:07Z</time>
      </trkpt>
      <trkpt lat="44.63021" lon="2.10006">
        <ele>365.8</ele>
        <time>2023-08-20T08:49:08Z</time>
      </trkpt>
      <trkpt lat="44.63027" lon="2.10012">
        <ele>366.8</ele>
        <time>2023-08-20T08:49:09Z</time>
      </trkpt>
      <trkpt lat="44.63033" lon="2.10018">
        <ele>367.2</ele>
        <time>2023-08-20T08:49:10Z</time>
      </trkpt>
      <trkpt lat="44.6304" lon="2.10023">
        <ele>367.8</ele>
        <time>2023-08-20T08:49:11Z</time>
      </trkpt>
      <trkpt lat="44.63044" lon="2.10026">
        <ele>368</ele>
        <time>2023-08-20T08:49:12Z</time>
      </trkpt>
      <trkpt lat="44.63048" lon="2.10028">
        <ele>368.6</ele>
        <time>2023-08-20T08:49:13Z</time>
      </trkpt>
      <trkpt lat="44.63054" lon="2.1003">
        <ele>368.8</ele>
        <time>2023-08-20T08:49:14Z</time>
      </trkpt>
      <trkpt lat="44.6306" lon="2.10031">
        <ele>369</ele>
        <time>2023-08-20T08:49:15Z</time>
      </trkpt>
      <trkpt lat="44.63066" lon="2.10034">
        <ele>369.2</ele>
        <time>2023-08-20T08:49:16Z</time>
      </trkpt>
      <trkpt lat="44.63073" lon="2.10038">
        <ele>369.2</ele>
        <time>2023-08-20T08:49:17Z</time>
      </trkpt>
      <trkpt lat="44.6308" lon="2.10042">
        <ele>369.4</ele>
        <time>2023-08-20T08:49:18Z</time>
      </trkpt>
      <trkpt lat="44.63087" lon="2.10044">
        <ele>369.4</ele>
        <time>2023-08-20T08:49:19Z</time>
      </trkpt>
      <trkpt lat="44.63094" lon="2.10043">
        <ele>369.4</ele>
        <time>2023-08-20T08:49:20Z</time>
      </trkpt>
      <trkpt lat="44.63102" lon="2.10039">
        <ele>369.4</ele>
        <time>2023-08-20T08:49:21Z</time>
      </trkpt>
      <trkpt lat="44.63109" lon="2.10034">
        <ele>369.4</ele>
        <time>2023-08-20T08:49:22Z</time>
      </trkpt>
      <trkpt lat="44.63116" lon="2.10028">
        <ele>369.4</ele>
        <time>2023-08-20T08:49:23Z</time>
      </trkpt>
      <trkpt lat="44.63123" lon="2.10022">
        <ele>369.2</ele>
        <time>2023-08-20T08:49:24Z</time>
      </trkpt>
      <trkpt lat="44.6313" lon="2.10015">
        <ele>369.2</ele>
        <time>2023-08-20T08:49:25Z</time>
      </trkpt>
      <trkpt lat="44.63136" lon="2.10007">
        <ele>368.8</ele>
        <time>2023-08-20T08:49:26Z</time>
      </trkpt>
      <trkpt lat="44.63141" lon="2.09998">
        <ele>368.4</ele>
        <time>2023-08-20T08:49:27Z</time>
      </trkpt>
      <trkpt lat="44.63144" lon="2.09988">
        <ele>368.2</ele>
        <time>2023-08-20T08:49:28Z</time>
      </trkpt>
      <trkpt lat="44.63146" lon="2.09978">
        <ele>368</ele>
        <time>2023-08-20T08:49:29Z</time>
      </trkpt>
      <trkpt lat="44.63147" lon="2.09966">
        <ele>367.8</ele>
        <time>2023-08-20T08:49:30Z</time>
      </trkpt>
      <trkpt lat="44.63146" lon="2.09954">
        <ele>367.4</ele>
        <time>2023-08-20T08:49:31Z</time>
      </trkpt>
      <trkpt lat="44.63144" lon="2.09942">
        <ele>367</ele>
        <time>2023-08-20T08:49:32Z</time>
      </trkpt>
      <trkpt lat="44.63141" lon="2.09929">
        <ele>366.8</ele>
        <time>2023-08-20T08:49:33Z</time>
      </trkpt>
      <trkpt lat="44.63137" lon="2.09916">
        <ele>366.6</ele>
        <time>2023-08-20T08:49:34Z</time>
      </trkpt>
      <trkpt lat="44.63134" lon="2.09904">
        <ele>366.4</ele>
        <time>2023-08-20T08:49:35Z</time>
      </trkpt>
      <trkpt lat="44.63133" lon="2.09891">
        <ele>366.4</ele>
        <time>2023-08-20T08:49:36Z</time>
      </trkpt>
      <trkpt lat="44.63135" lon="2.09879">
        <ele>366.2</ele>
        <time>2023-08-20T08:49:37Z</time>
      </trkpt>
      <trkpt lat="44.6314" lon="2.0987">
        <ele>365.8</ele>
        <time>2023-08-20T08:49:38Z</time>
      </trkpt>
      <trkpt lat="44.63146" lon="2.09863">
        <ele>365.6</ele>
        <time>2023-08-20T08:49:39Z</time>
      </trkpt>
      <trkpt lat="44.63153" lon="2.09859">
        <ele>365</ele>
        <time>2023-08-20T08:49:40Z</time>
      </trkpt>
      <trkpt lat="44.63162" lon="2.09859">
        <ele>364.4</ele>
        <time>2023-08-20T08:49:41Z</time>
      </trkpt>
      <trkpt lat="44.63182" lon="2.09861">
        <ele>363.8</ele>
        <time>2023-08-20T08:49:43Z</time>
      </trkpt>
      <trkpt lat="44.63191" lon="2.09861">
        <ele>363.8</ele>
        <time>2023-08-20T08:49:44Z</time>
      </trkpt>
      <trkpt lat="44.632" lon="2.0986">
        <ele>363.6</ele>
        <time>2023-08-20T08:49:45Z</time>
      </trkpt>
      <trkpt lat="44.63209" lon="2.09857">
        <ele>363.6</ele>
        <time>2023-08-20T08:49:46Z</time>
      </trkpt>
      <trkpt lat="44.63217" lon="2.09852">
        <ele>363.6</ele>
        <time>2023-08-20T08:49:47Z</time>
      </trkpt>
      <trkpt lat="44.63224" lon="2.09844">
        <ele>363.6</ele>
        <time>2023-08-20T08:49:48Z</time>
      </trkpt>
      <trkpt lat="44.63232" lon="2.09835">
        <ele>363.6</ele>
        <time>2023-08-20T08:49:49Z</time>
      </trkpt>
      <trkpt lat="44.63239" lon="2.09824">
        <ele>363.8</ele>
        <time>2023-08-20T08:49:50Z</time>
      </trkpt>
      <trkpt lat="44.63246" lon="2.09812">
        <ele>363.8</ele>
        <time>2023-08-20T08:49:51Z</time>
      </trkpt>
      <trkpt lat="44.63285" lon="2.09747">
        <ele>365.8</ele>
        <time>2023-08-20T08:49:56Z</time>
      </trkpt>
      <trkpt lat="44.63303" lon="2.09724">
        <ele>366.8</ele>
        <time>2023-08-20T08:49:58Z</time>
      </trkpt>
      <trkpt lat="44.6331" lon="2.09717">
        <ele>367.4</ele>
        <time>2023-08-20T08:49:59Z</time>
      </trkpt>
      <trkpt lat="44.63314" lon="2.09713">
        <ele>367.6</ele>
        <time>2023-08-20T08:50:00Z</time>
      </trkpt>
      <trkpt lat="44.63317" lon="2.09711">
        <ele>367.8</ele>
        <time>2023-08-20T08:50:01Z</time>
      </trkpt>
      <trkpt lat="44.63322" lon="2.09708">
        <ele>368</ele>
        <time>2023-08-20T08:50:02Z</time>
      </trkpt>
      <trkpt lat="44.63326" lon="2.09707">
        <ele>368</ele>
        <time>2023-08-20T08:50:03Z</time>
      </trkpt>
      <trkpt lat="44.63332" lon="2.09706">
        <ele>368.2</ele>
        <time>2023-08-20T08:50:04Z</time>
      </trkpt>
      <trkpt lat="44.63343" lon="2.09711">
        <ele>368.4</ele>
        <time>2023-08-20T08:50:06Z</time>
      </trkpt>
      <trkpt lat="44.63348" lon="2.09716">
        <ele>368.4</ele>
        <time>2023-08-20T08:50:07Z</time>
      </trkpt>
      <trkpt lat="44.63354" lon="2.09726">
        <ele>368.4</ele>
        <time>2023-08-20T08:50:08Z</time>
      </trkpt>
      <trkpt lat="44.63358" lon="2.09735">
        <ele>368.4</ele>
        <time>2023-08-20T08:50:09Z</time>
      </trkpt>
      <trkpt lat="44.63363" lon="2.09745">
        <ele>368.4</ele>
        <time>2023-08-20T08:50:10Z</time>
      </trkpt>
      <trkpt lat="44.6337" lon="2.09754">
        <ele>368.4</ele>
        <time>2023-08-20T08:50:11Z</time>
      </trkpt>
      <trkpt lat="44.63377" lon="2.09757">
        <ele>368.8</ele>
        <time>2023-08-20T08:50:12Z</time>
      </trkpt>
      <trkpt lat="44.63385" lon="2.09758">
        <ele>369.2</ele>
        <time>2023-08-20T08:50:13Z</time>
      </trkpt>
      <trkpt lat="44.63393" lon="2.09757">
        <ele>369.4</ele>
        <time>2023-08-20T08:50:14Z</time>
      </trkpt>
      <trkpt lat="44.63403" lon="2.09754">
        <ele>370</ele>
        <time>2023-08-20T08:50:15Z</time>
      </trkpt>
      <trkpt lat="44.63413" lon="2.09752">
        <ele>370.2</ele>
        <time>2023-08-20T08:50:16Z</time>
      </trkpt>
      <trkpt lat="44.6343" lon="2.09748">
        <ele>371</ele>
        <time>2023-08-20T08:50:17Z</time>
      </trkpt>
      <trkpt lat="44.63442" lon="2.0975">
        <ele>371.2</ele>
        <time>2023-08-20T08:50:18Z</time>
      </trkpt>
      <trkpt lat="44.63456" lon="2.09755">
        <ele>372.2</ele>
        <time>2023-08-20T08:50:19Z</time>
      </trkpt>
      <trkpt lat="44.63468" lon="2.09761">
        <ele>372.8</ele>
        <time>2023-08-20T08:50:20Z</time>
      </trkpt>
      <trkpt lat="44.63479" lon="2.09765">
        <ele>373.6</ele>
        <time>2023-08-20T08:50:21Z</time>
      </trkpt>
      <trkpt lat="44.6349" lon="2.09771">
        <ele>374.6</ele>
        <time>2023-08-20T08:50:22Z</time>
      </trkpt>
      <trkpt lat="44.63496" lon="2.09776">
        <ele>375</ele>
        <time>2023-08-20T08:50:23Z</time>
      </trkpt>
      <trkpt lat="44.63504" lon="2.09783">
        <ele>375.2</ele>
        <time>2023-08-20T08:50:24Z</time>
      </trkpt>
      <trkpt lat="44.63514" lon="2.09792">
        <ele>375.4</ele>
        <time>2023-08-20T08:50:25Z</time>
      </trkpt>
      <trkpt lat="44.6352" lon="2.09798">
        <ele>375.4</ele>
        <time>2023-08-20T08:50:26Z</time>
      </trkpt>
      <trkpt lat="44.63527" lon="2.09806">
        <ele>375.4</ele>
        <time>2023-08-20T08:50:27Z</time>
      </trkpt>
      <trkpt lat="44.63532" lon="2.0981">
        <ele>375.4</ele>
        <time>2023-08-20T08:50:28Z</time>
      </trkpt>
      <trkpt lat="44.63537" lon="2.09814">
        <ele>375.4</ele>
        <time>2023-08-20T08:50:29Z</time>
      </trkpt>
      <trkpt lat="44.63544" lon="2.09817">
        <ele>375.2</ele>
        <time>2023-08-20T08:50:30Z</time>
      </trkpt>
      <trkpt lat="44.63554" lon="2.0982">
        <ele>374.2</ele>
        <time>2023-08-20T08:50:31Z</time>
      </trkpt>
      <trkpt lat="44.63563" lon="2.09822">
        <ele>373.8</ele>
        <time>2023-08-20T08:50:32Z</time>
      </trkpt>
      <trkpt lat="44.63573" lon="2.09821">
        <ele>373.2</ele>
        <time>2023-08-20T08:50:33Z</time>
      </trkpt>
      <trkpt lat="44.63586" lon="2.09817">
        <ele>372.8</ele>
        <time>2023-08-20T08:50:34Z</time>
      </trkpt>
      <trkpt lat="44.63593" lon="2.09812">
        <ele>371.8</ele>
        <time>2023-08-20T08:50:35Z</time>
      </trkpt>
      <trkpt lat="44.63602" lon="2.09802">
        <ele>371.4</ele>
        <time>2023-08-20T08:50:36Z</time>
      </trkpt>
      <trkpt lat="44.63606" lon="2.09794">
        <ele>370.8</ele>
        <time>2023-08-20T08:50:37Z</time>
      </trkpt>
      <trkpt lat="44.6361" lon="2.09783">
        <ele>370</ele>
        <time>2023-08-20T08:50:38Z</time>
      </trkpt>
      <trkpt lat="44.63615" lon="2.09771">
        <ele>369.8</ele>
        <time>2023-08-20T08:50:39Z</time>
      </trkpt>
      <trkpt lat="44.63618" lon="2.0976">
        <ele>368.8</ele>
        <time>2023-08-20T08:50:40Z</time>
      </trkpt>
      <trkpt lat="44.63623" lon="2.09748">
        <ele>368.4</ele>
        <time>2023-08-20T08:50:41Z</time>
      </trkpt>
      <trkpt lat="44.63632" lon="2.09726">
        <ele>367.4</ele>
        <time>2023-08-20T08:50:43Z</time>
      </trkpt>
      <trkpt lat="44.63636" lon="2.09715">
        <ele>366.4</ele>
        <time>2023-08-20T08:50:44Z</time>
      </trkpt>
      <trkpt lat="44.63643" lon="2.09702">
        <ele>366</ele>
        <time>2023-08-20T08:50:45Z</time>
      </trkpt>
      <trkpt lat="44.63647" lon="2.09694">
        <ele>365.2</ele>
        <time>2023-08-20T08:50:46Z</time>
      </trkpt>
      <trkpt lat="44.63655" lon="2.09684">
        <ele>363.8</ele>
        <time>2023-08-20T08:50:47Z</time>
      </trkpt>
      <trkpt lat="44.63673" lon="2.09669">
        <ele>362.4</ele>
        <time>2023-08-20T08:50:49Z</time>
      </trkpt>
      <trkpt lat="44.63692" lon="2.09659">
        <ele>361.4</ele>
        <time>2023-08-20T08:50:51Z</time>
      </trkpt>
      <trkpt lat="44.63702" lon="2.09655">
        <ele>360.8</ele>
        <time>2023-08-20T08:50:52Z</time>
      </trkpt>
      <trkpt lat="44.63712" lon="2.09649">
        <ele>360</ele>
        <time>2023-08-20T08:50:53Z</time>
      </trkpt>
      <trkpt lat="44.63722" lon="2.09643">
        <ele>359.2</ele>
        <time>2023-08-20T08:50:54Z</time>
      </trkpt>
      <trkpt lat="44.63731" lon="2.09636">
        <ele>358.8</ele>
        <time>2023-08-20T08:50:55Z</time>
      </trkpt>
      <trkpt lat="44.6374" lon="2.09631">
        <ele>357.8</ele>
        <time>2023-08-20T08:50:56Z</time>
      </trkpt>
      <trkpt lat="44.63757" lon="2.09618">
        <ele>356.4</ele>
        <time>2023-08-20T08:50:58Z</time>
      </trkpt>
      <trkpt lat="44.63765" lon="2.09609">
        <ele>356</ele>
        <time>2023-08-20T08:50:59Z</time>
      </trkpt>
      <trkpt lat="44.63772" lon="2.096">
        <ele>355.6</ele>
        <time>2023-08-20T08:51:00Z</time>
      </trkpt>
      <trkpt lat="44.6378" lon="2.09592">
        <ele>355</ele>
        <time>2023-08-20T08:51:01Z</time>
      </trkpt>
      <trkpt lat="44.63787" lon="2.09586">
        <ele>353.8</ele>
        <time>2023-08-20T08:51:02Z</time>
      </trkpt>
      <trkpt lat="44.63796" lon="2.09583">
        <ele>353</ele>
        <time>2023-08-20T08:51:03Z</time>
      </trkpt>
      <trkpt lat="44.63805" lon="2.09583">
        <ele>352.8</ele>
        <time>2023-08-20T08:51:04Z</time>
      </trkpt>
      <trkpt lat="44.63813" lon="2.09581">
        <ele>351.8</ele>
        <time>2023-08-20T08:51:05Z</time>
      </trkpt>
      <trkpt lat="44.63821" lon="2.09576">
        <ele>351.2</ele>
        <time>2023-08-20T08:51:06Z</time>
      </trkpt>
      <trkpt lat="44.63829" lon="2.09569">
        <ele>350.4</ele>
        <time>2023-08-20T08:51:07Z</time>
      </trkpt>
      <trkpt lat="44.63836" lon="2.09561">
        <ele>350</ele>
        <time>2023-08-20T08:51:08Z</time>
      </trkpt>
      <trkpt lat="44.63842" lon="2.0955">
        <ele>349</ele>
        <time>2023-08-20T08:51:09Z</time>
      </trkpt>
      <trkpt lat="44.63848" lon="2.09537">
        <ele>348.4</ele>
        <time>2023-08-20T08:51:10Z</time>
      </trkpt>
      <trkpt lat="44.63854" lon="2.09522">
        <ele>347.6</ele>
        <time>2023-08-20T08:51:11Z</time>
      </trkpt>
      <trkpt lat="44.63859" lon="2.09506">
        <ele>347</ele>
        <time>2023-08-20T08:51:12Z</time>
      </trkpt>
      <trkpt lat="44.63864" lon="2.09489">
        <ele>346.8</ele>
        <time>2023-08-20T08:51:13Z</time>
      </trkpt>
      <trkpt lat="44.6387" lon="2.09473">
        <ele>346.2</ele>
        <time>2023-08-20T08:51:14Z</time>
      </trkpt>
      <trkpt lat="44.63883" lon="2.09442">
        <ele>344.6</ele>
        <time>2023-08-20T08:51:16Z</time>
      </trkpt>
      <trkpt lat="44.63891" lon="2.09429">
        <ele>344.2</ele>
        <time>2023-08-20T08:51:17Z</time>
      </trkpt>
      <trkpt lat="44.63899" lon="2.09416">
        <ele>343.6</ele>
        <time>2023-08-20T08:51:18Z</time>
      </trkpt>
      <trkpt lat="44.63908" lon="2.09403">
        <ele>342.4</ele>
        <time>2023-08-20T08:51:19Z</time>
      </trkpt>
      <trkpt lat="44.63926" lon="2.09382">
        <ele>340.4</ele>
        <time>2023-08-20T08:51:21Z</time>
      </trkpt>
      <trkpt lat="44.63935" lon="2.09374">
        <ele>339.8</ele>
        <time>2023-08-20T08:51:22Z</time>
      </trkpt>
      <trkpt lat="44.63945" lon="2.0937">
        <ele>338.6</ele>
        <time>2023-08-20T08:51:23Z</time>
      </trkpt>
      <trkpt lat="44.63955" lon="2.0937">
        <ele>338</ele>
        <time>2023-08-20T08:51:24Z</time>
      </trkpt>
      <trkpt lat="44.63964" lon="2.09372">
        <ele>336.6</ele>
        <time>2023-08-20T08:51:25Z</time>
      </trkpt>
      <trkpt lat="44.63974" lon="2.09374">
        <ele>336.2</ele>
        <time>2023-08-20T08:51:26Z</time>
      </trkpt>
      <trkpt lat="44.63984" lon="2.09376">
        <ele>334.6</ele>
        <time>2023-08-20T08:51:27Z</time>
      </trkpt>
      <trkpt lat="44.63993" lon="2.0938">
        <ele>333.6</ele>
        <time>2023-08-20T08:51:28Z</time>
      </trkpt>
      <trkpt lat="44.64003" lon="2.09385">
        <ele>333</ele>
        <time>2023-08-20T08:51:29Z</time>
      </trkpt>
      <trkpt lat="44.64012" lon="2.09391">
        <ele>332</ele>
        <time>2023-08-20T08:51:30Z</time>
      </trkpt>
      <trkpt lat="44.64019" lon="2.09399">
        <ele>331.6</ele>
        <time>2023-08-20T08:51:31Z</time>
      </trkpt>
      <trkpt lat="44.64027" lon="2.09407">
        <ele>330.2</ele>
        <time>2023-08-20T08:51:32Z</time>
      </trkpt>
      <trkpt lat="44.64042" lon="2.09419">
        <ele>328.4</ele>
        <time>2023-08-20T08:51:34Z</time>
      </trkpt>
      <trkpt lat="44.6405" lon="2.09424">
        <ele>327.6</ele>
        <time>2023-08-20T08:51:35Z</time>
      </trkpt>
      <trkpt lat="44.64058" lon="2.09427">
        <ele>326.8</ele>
        <time>2023-08-20T08:51:36Z</time>
      </trkpt>
      <trkpt lat="44.64067" lon="2.09431">
        <ele>326</ele>
        <time>2023-08-20T08:51:37Z</time>
      </trkpt>
      <trkpt lat="44.64075" lon="2.09432">
        <ele>325.4</ele>
        <time>2023-08-20T08:51:38Z</time>
      </trkpt>
      <trkpt lat="44.64082" lon="2.0943">
        <ele>324.2</ele>
        <time>2023-08-20T08:51:39Z</time>
      </trkpt>
      <trkpt lat="44.6409" lon="2.09427">
        <ele>323.6</ele>
        <time>2023-08-20T08:51:40Z</time>
      </trkpt>
      <trkpt lat="44.64098" lon="2.09423">
        <ele>322.4</ele>
        <time>2023-08-20T08:51:41Z</time>
      </trkpt>
      <trkpt lat="44.64105" lon="2.09417">
        <ele>322</ele>
        <time>2023-08-20T08:51:42Z</time>
      </trkpt>
      <trkpt lat="44.64111" lon="2.09408">
        <ele>321</ele>
        <time>2023-08-20T08:51:43Z</time>
      </trkpt>
      <trkpt lat="44.64115" lon="2.09398">
        <ele>320</ele>
        <time>2023-08-20T08:51:44Z</time>
      </trkpt>
      <trkpt lat="44.64117" lon="2.09385">
        <ele>319.6</ele>
        <time>2023-08-20T08:51:45Z</time>
      </trkpt>
      <trkpt lat="44.64119" lon="2.09371">
        <ele>319</ele>
        <time>2023-08-20T08:51:46Z</time>
      </trkpt>
      <trkpt lat="44.6412" lon="2.09357">
        <ele>318.4</ele>
        <time>2023-08-20T08:51:47Z</time>
      </trkpt>
      <trkpt lat="44.64121" lon="2.09342">
        <ele>317.4</ele>
        <time>2023-08-20T08:51:48Z</time>
      </trkpt>
      <trkpt lat="44.6412" lon="2.09325">
        <ele>317</ele>
        <time>2023-08-20T08:51:49Z</time>
      </trkpt>
      <trkpt lat="44.64117" lon="2.09291">
        <ele>316.2</ele>
        <time>2023-08-20T08:51:51Z</time>
      </trkpt>
      <trkpt lat="44.64115" lon="2.09273">
        <ele>315</ele>
        <time>2023-08-20T08:51:52Z</time>
      </trkpt>
      <trkpt lat="44.64115" lon="2.09258">
        <ele>314.4</ele>
        <time>2023-08-20T08:51:53Z</time>
      </trkpt>
      <trkpt lat="44.64117" lon="2.09243">
        <ele>314</ele>
        <time>2023-08-20T08:51:54Z</time>
      </trkpt>
      <trkpt lat="44.64122" lon="2.0923">
        <ele>313</ele>
        <time>2023-08-20T08:51:55Z</time>
      </trkpt>
      <trkpt lat="44.64129" lon="2.09219">
        <ele>312.6</ele>
        <time>2023-08-20T08:51:56Z</time>
      </trkpt>
      <trkpt lat="44.64138" lon="2.09211">
        <ele>311.6</ele>
        <time>2023-08-20T08:51:57Z</time>
      </trkpt>
      <trkpt lat="44.64147" lon="2.09206">
        <ele>311.2</ele>
        <time>2023-08-20T08:51:58Z</time>
      </trkpt>
      <trkpt lat="44.64156" lon="2.09204">
        <ele>310</ele>
        <time>2023-08-20T08:51:59Z</time>
      </trkpt>
      <trkpt lat="44.64164" lon="2.09207">
        <ele>309.2</ele>
        <time>2023-08-20T08:52:00Z</time>
      </trkpt>
      <trkpt lat="44.64172" lon="2.09212">
        <ele>308.2</ele>
        <time>2023-08-20T08:52:01Z</time>
      </trkpt>
      <trkpt lat="44.64179" lon="2.09219">
        <ele>307.2</ele>
        <time>2023-08-20T08:52:02Z</time>
      </trkpt>
      <trkpt lat="44.64186" lon="2.09229">
        <ele>306.6</ele>
        <time>2023-08-20T08:52:03Z</time>
      </trkpt>
      <trkpt lat="44.64193" lon="2.0924">
        <ele>305.8</ele>
        <time>2023-08-20T08:52:04Z</time>
      </trkpt>
      <trkpt lat="44.642" lon="2.09251">
        <ele>305.2</ele>
        <time>2023-08-20T08:52:05Z</time>
      </trkpt>
      <trkpt lat="44.64207" lon="2.09263">
        <ele>304.2</ele>
        <time>2023-08-20T08:52:06Z</time>
      </trkpt>
      <trkpt lat="44.6422" lon="2.09284">
        <ele>303</ele>
        <time>2023-08-20T08:52:08Z</time>
      </trkpt>
      <trkpt lat="44.64225" lon="2.09294">
        <ele>302.2</ele>
        <time>2023-08-20T08:52:09Z</time>
      </trkpt>
      <trkpt lat="44.64229" lon="2.09305">
        <ele>301.6</ele>
        <time>2023-08-20T08:52:10Z</time>
      </trkpt>
      <trkpt lat="44.64232" lon="2.09317">
        <ele>300.6</ele>
        <time>2023-08-20T08:52:11Z</time>
      </trkpt>
      <trkpt lat="44.64234" lon="2.0933">
        <ele>300.2</ele>
        <time>2023-08-20T08:52:12Z</time>
      </trkpt>
      <trkpt lat="44.64238" lon="2.09344">
        <ele>299.2</ele>
        <time>2023-08-20T08:52:13Z</time>
      </trkpt>
      <trkpt lat="44.64247" lon="2.09375">
        <ele>297.8</ele>
        <time>2023-08-20T08:52:15Z</time>
      </trkpt>
      <trkpt lat="44.64259" lon="2.09399">
        <ele>296.6</ele>
        <time>2023-08-20T08:52:17Z</time>
      </trkpt>
      <trkpt lat="44.64266" lon="2.09414">
        <ele>295.8</ele>
        <time>2023-08-20T08:52:18Z</time>
      </trkpt>
      <trkpt lat="44.64271" lon="2.09428">
        <ele>295.2</ele>
        <time>2023-08-20T08:52:19Z</time>
      </trkpt>
      <trkpt lat="44.64276" lon="2.09442">
        <ele>294.2</ele>
        <time>2023-08-20T08:52:20Z</time>
      </trkpt>
      <trkpt lat="44.6428" lon="2.09456">
        <ele>293.6</ele>
        <time>2023-08-20T08:52:21Z</time>
      </trkpt>
      <trkpt lat="44.64283" lon="2.09469">
        <ele>292.6</ele>
        <time>2023-08-20T08:52:22Z</time>
      </trkpt>
      <trkpt lat="44.64288" lon="2.0948">
        <ele>292</ele>
        <time>2023-08-20T08:52:23Z</time>
      </trkpt>
      <trkpt lat="44.64294" lon="2.09489">
        <ele>290.8</ele>
        <time>2023-08-20T08:52:24Z</time>
      </trkpt>
      <trkpt lat="44.643" lon="2.09495">
        <ele>289.4</ele>
        <time>2023-08-20T08:52:25Z</time>
      </trkpt>
      <trkpt lat="44.64307" lon="2.09502">
        <ele>288.8</ele>
        <time>2023-08-20T08:52:26Z</time>
      </trkpt>
      <trkpt lat="44.64312" lon="2.0951">
        <ele>287.4</ele>
        <time>2023-08-20T08:52:27Z</time>
      </trkpt>
      <trkpt lat="44.64314" lon="2.09519">
        <ele>286.8</ele>
        <time>2023-08-20T08:52:28Z</time>
      </trkpt>
      <trkpt lat="44.64314" lon="2.09529">
        <ele>285.8</ele>
        <time>2023-08-20T08:52:29Z</time>
      </trkpt>
      <trkpt lat="44.64313" lon="2.09538">
        <ele>285.4</ele>
        <time>2023-08-20T08:52:30Z</time>
      </trkpt>
      <trkpt lat="44.64311" lon="2.09548">
        <ele>283.8</ele>
        <time>2023-08-20T08:52:31Z</time>
      </trkpt>
      <trkpt lat="44.64311" lon="2.09556">
        <ele>283.2</ele>
        <time>2023-08-20T08:52:32Z</time>
      </trkpt>
      <trkpt lat="44.64311" lon="2.09567">
        <ele>282</ele>
        <time>2023-08-20T08:52:33Z</time>
      </trkpt>
      <trkpt lat="44.64314" lon="2.0958">
        <ele>281</ele>
        <time>2023-08-20T08:52:34Z</time>
      </trkpt>
      <trkpt lat="44.64319" lon="2.09591">
        <ele>280.4</ele>
        <time>2023-08-20T08:52:35Z</time>
      </trkpt>
      <trkpt lat="44.64323" lon="2.09601">
        <ele>279.6</ele>
        <time>2023-08-20T08:52:36Z</time>
      </trkpt>
      <trkpt lat="44.64326" lon="2.0961">
        <ele>279.4</ele>
        <time>2023-08-20T08:52:37Z</time>
      </trkpt>
      <trkpt lat="44.64328" lon="2.09622">
        <ele>278.6</ele>
        <time>2023-08-20T08:52:38Z</time>
      </trkpt>
      <trkpt lat="44.64328" lon="2.09636">
        <ele>278.2</ele>
        <time>2023-08-20T08:52:39Z</time>
      </trkpt>
      <trkpt lat="44.64327" lon="2.09648">
        <ele>277.2</ele>
        <time>2023-08-20T08:52:40Z</time>
      </trkpt>
      <trkpt lat="44.64326" lon="2.09661">
        <ele>276.8</ele>
        <time>2023-08-20T08:52:41Z</time>
      </trkpt>
      <trkpt lat="44.64326" lon="2.09672">
        <ele>276.2</ele>
        <time>2023-08-20T08:52:42Z</time>
      </trkpt>
      <trkpt lat="44.64325" lon="2.09685">
        <ele>275.4</ele>
        <time>2023-08-20T08:52:43Z</time>
      </trkpt>
      <trkpt lat="44.64324" lon="2.097">
        <ele>275</ele>
        <time>2023-08-20T08:52:44Z</time>
      </trkpt>
      <trkpt lat="44.64327" lon="2.09713">
        <ele>274.2</ele>
        <time>2023-08-20T08:52:45Z</time>
      </trkpt>
      <trkpt lat="44.6433" lon="2.09725">
        <ele>274</ele>
        <time>2023-08-20T08:52:46Z</time>
      </trkpt>
      <trkpt lat="44.64334" lon="2.09735">
        <ele>272.8</ele>
        <time>2023-08-20T08:52:47Z</time>
      </trkpt>
      <trkpt lat="44.64338" lon="2.09747">
        <ele>272.4</ele>
        <time>2023-08-20T08:52:48Z</time>
      </trkpt>
      <trkpt lat="44.64341" lon="2.09759">
        <ele>271.8</ele>
        <time>2023-08-20T08:52:49Z</time>
      </trkpt>
      <trkpt lat="44.64342" lon="2.09772">
        <ele>270.8</ele>
        <time>2023-08-20T08:52:50Z</time>
      </trkpt>
      <trkpt lat="44.64344" lon="2.09799">
        <ele>269.4</ele>
        <time>2023-08-20T08:52:52Z</time>
      </trkpt>
      <trkpt lat="44.64345" lon="2.09813">
        <ele>269</ele>
        <time>2023-08-20T08:52:53Z</time>
      </trkpt>
      <trkpt lat="44.64348" lon="2.09827">
        <ele>268</ele>
        <time>2023-08-20T08:52:54Z</time>
      </trkpt>
      <trkpt lat="44.64358" lon="2.09859">
        <ele>267.2</ele>
        <time>2023-08-20T08:52:56Z</time>
      </trkpt>
      <trkpt lat="44.64365" lon="2.09876">
        <ele>266.4</ele>
        <time>2023-08-20T08:52:57Z</time>
      </trkpt>
      <trkpt lat="44.64371" lon="2.0989">
        <ele>265.6</ele>
        <time>2023-08-20T08:52:58Z</time>
      </trkpt>
      <trkpt lat="44.64376" lon="2.09901">
        <ele>264.8</ele>
        <time>2023-08-20T08:52:59Z</time>
      </trkpt>
      <trkpt lat="44.64382" lon="2.09911">
        <ele>264.6</ele>
        <time>2023-08-20T08:53:00Z</time>
      </trkpt>
      <trkpt lat="44.64388" lon="2.09918">
        <ele>263.8</ele>
        <time>2023-08-20T08:53:01Z</time>
      </trkpt>
      <trkpt lat="44.64395" lon="2.09923">
        <ele>263.2</ele>
        <time>2023-08-20T08:53:02Z</time>
      </trkpt>
      <trkpt lat="44.64402" lon="2.09926">
        <ele>262.4</ele>
        <time>2023-08-20T08:53:03Z</time>
      </trkpt>
      <trkpt lat="44.64411" lon="2.0993">
        <ele>261.6</ele>
        <time>2023-08-20T08:53:04Z</time>
      </trkpt>
      <trkpt lat="44.64421" lon="2.09935">
        <ele>260</ele>
        <time>2023-08-20T08:53:05Z</time>
      </trkpt>
      <trkpt lat="44.64435" lon="2.09947">
        <ele>258.8</ele>
        <time>2023-08-20T08:53:07Z</time>
      </trkpt>
      <trkpt lat="44.64443" lon="2.09956">
        <ele>257.6</ele>
        <time>2023-08-20T08:53:08Z</time>
      </trkpt>
      <trkpt lat="44.6445" lon="2.09966">
        <ele>257.4</ele>
        <time>2023-08-20T08:53:09Z</time>
      </trkpt>
      <trkpt lat="44.64458" lon="2.09976">
        <ele>256.4</ele>
        <time>2023-08-20T08:53:10Z</time>
      </trkpt>
      <trkpt lat="44.64466" lon="2.09984">
        <ele>255.8</ele>
        <time>2023-08-20T08:53:11Z</time>
      </trkpt>
      <trkpt lat="44.64475" lon="2.09989">
        <ele>255</ele>
        <time>2023-08-20T08:53:12Z</time>
      </trkpt>
      <trkpt lat="44.64484" lon="2.0999">
        <ele>254.2</ele>
        <time>2023-08-20T08:53:13Z</time>
      </trkpt>
      <trkpt lat="44.64494" lon="2.09986">
        <ele>253.2</ele>
        <time>2023-08-20T08:53:14Z</time>
      </trkpt>
      <trkpt lat="44.64516" lon="2.09986">
        <ele>251.6</ele>
        <time>2023-08-20T08:53:16Z</time>
      </trkpt>
      <trkpt lat="44.64527" lon="2.09988">
        <ele>250.8</ele>
        <time>2023-08-20T08:53:17Z</time>
      </trkpt>
      <trkpt lat="44.64537" lon="2.09991">
        <ele>250.4</ele>
        <time>2023-08-20T08:53:18Z</time>
      </trkpt>
      <trkpt lat="44.64546" lon="2.09996">
        <ele>249.6</ele>
        <time>2023-08-20T08:53:19Z</time>
      </trkpt>
      <trkpt lat="44.64556" lon="2.10003">
        <ele>249.2</ele>
        <time>2023-08-20T08:53:20Z</time>
      </trkpt>
      <trkpt lat="44.64567" lon="2.10014">
        <ele>248</ele>
        <time>2023-08-20T08:53:21Z</time>
      </trkpt>
      <trkpt lat="44.64585" lon="2.10029">
        <ele>246.6</ele>
        <time>2023-08-20T08:53:23Z</time>
      </trkpt>
      <trkpt lat="44.64595" lon="2.10036">
        <ele>245.4</ele>
        <time>2023-08-20T08:53:24Z</time>
      </trkpt>
      <trkpt lat="44.64616" lon="2.10048">
        <ele>244</ele>
        <time>2023-08-20T08:53:26Z</time>
      </trkpt>
      <trkpt lat="44.64639" lon="2.10054">
        <ele>242.6</ele>
        <time>2023-08-20T08:53:28Z</time>
      </trkpt>
      <trkpt lat="44.64661" lon="2.10059">
        <ele>240.6</ele>
        <time>2023-08-20T08:53:30Z</time>
      </trkpt>
      <trkpt lat="44.64682" lon="2.1007">
        <ele>239.2</ele>
        <time>2023-08-20T08:53:32Z</time>
      </trkpt>
      <trkpt lat="44.64691" lon="2.10076">
        <ele>237.8</ele>
        <time>2023-08-20T08:53:33Z</time>
      </trkpt>
      <trkpt lat="44.647" lon="2.10084">
        <ele>237.4</ele>
        <time>2023-08-20T08:53:34Z</time>
      </trkpt>
      <trkpt lat="44.64708" lon="2.10092">
        <ele>236.2</ele>
        <time>2023-08-20T08:53:35Z</time>
      </trkpt>
      <trkpt lat="44.64716" lon="2.10102">
        <ele>235.8</ele>
        <time>2023-08-20T08:53:36Z</time>
      </trkpt>
      <trkpt lat="44.64723" lon="2.10112">
        <ele>234.6</ele>
        <time>2023-08-20T08:53:37Z</time>
      </trkpt>
      <trkpt lat="44.64729" lon="2.10124">
        <ele>233.8</ele>
        <time>2023-08-20T08:53:38Z</time>
      </trkpt>
      <trkpt lat="44.64733" lon="2.10136">
        <ele>232.6</ele>
        <time>2023-08-20T08:53:39Z</time>
      </trkpt>
      <trkpt lat="44.64737" lon="2.10147">
        <ele>231.4</ele>
        <time>2023-08-20T08:53:40Z</time>
      </trkpt>
      <trkpt lat="44.64742" lon="2.10154">
        <ele>230.8</ele>
        <time>2023-08-20T08:53:41Z</time>
      </trkpt>
      <trkpt lat="44.64748" lon="2.10157">
        <ele>229.6</ele>
        <time>2023-08-20T08:53:42Z</time>
      </trkpt>
      <trkpt lat="44.64754" lon="2.10158">
        <ele>228.8</ele>
        <time>2023-08-20T08:53:43Z</time>
      </trkpt>
      <trkpt lat="44.64763" lon="2.1016">
        <ele>227.6</ele>
        <time>2023-08-20T08:53:44Z</time>
      </trkpt>
      <trkpt lat="44.64784" lon="2.10158">
        <ele>226.4</ele>
        <time>2023-08-20T08:53:46Z</time>
      </trkpt>
      <trkpt lat="44.64794" lon="2.10155">
        <ele>226.2</ele>
        <time>2023-08-20T08:53:47Z</time>
      </trkpt>
      <trkpt lat="44.64823" lon="2.10145">
        <ele>225.2</ele>
        <time>2023-08-20T08:53:50Z</time>
      </trkpt>
      <trkpt lat="44.64871" lon="2.1013">
        <ele>224</ele>
        <time>2023-08-20T08:53:55Z</time>
      </trkpt>
      <trkpt lat="44.6488" lon="2.10128">
        <ele>223.6</ele>
        <time>2023-08-20T08:53:56Z</time>
      </trkpt>
      <trkpt lat="44.64889" lon="2.10125">
        <ele>223</ele>
        <time>2023-08-20T08:53:57Z</time>
      </trkpt>
      <trkpt lat="44.64897" lon="2.1012">
        <ele>222.2</ele>
        <time>2023-08-20T08:53:58Z</time>
      </trkpt>
      <trkpt lat="44.64904" lon="2.10114">
        <ele>221.8</ele>
        <time>2023-08-20T08:53:59Z</time>
      </trkpt>
      <trkpt lat="44.6491" lon="2.10107">
        <ele>220.8</ele>
        <time>2023-08-20T08:54:00Z</time>
      </trkpt>
      <trkpt lat="44.64915" lon="2.10099">
        <ele>220.2</ele>
        <time>2023-08-20T08:54:01Z</time>
      </trkpt>
      <trkpt lat="44.64918" lon="2.1009">
        <ele>219.6</ele>
        <time>2023-08-20T08:54:02Z</time>
      </trkpt>
      <trkpt lat="44.6492" lon="2.10078">
        <ele>219.4</ele>
        <time>2023-08-20T08:54:03Z</time>
      </trkpt>
      <trkpt lat="44.64922" lon="2.10066">
        <ele>218.6</ele>
        <time>2023-08-20T08:54:04Z</time>
      </trkpt>
      <trkpt lat="44.64924" lon="2.10052">
        <ele>217.8</ele>
        <time>2023-08-20T08:54:05Z</time>
      </trkpt>
      <trkpt lat="44.64925" lon="2.10039">
        <ele>217.6</ele>
        <time>2023-08-20T08:54:06Z</time>
      </trkpt>
      <trkpt lat="44.64926" lon="2.10025">
        <ele>217.2</ele>
        <time>2023-08-20T08:54:07Z</time>
      </trkpt>
      <trkpt lat="44.64931" lon="2.09973">
        <ele>215.8</ele>
        <time>2023-08-20T08:54:11Z</time>
      </trkpt>
      <trkpt lat="44.64932" lon="2.09961">
        <ele>215.6</ele>
        <time>2023-08-20T08:54:12Z</time>
      </trkpt>
      <trkpt lat="44.64933" lon="2.09951">
        <ele>215.4</ele>
        <time>2023-08-20T08:54:13Z</time>
      </trkpt>
      <trkpt lat="44.64934" lon="2.09942">
        <ele>215</ele>
        <time>2023-08-20T08:54:14Z</time>
      </trkpt>
      <trkpt lat="44.64935" lon="2.09933">
        <ele>214.8</ele>
        <time>2023-08-20T08:54:15Z</time>
      </trkpt>
      <trkpt lat="44.64936" lon="2.09926">
        <ele>214.4</ele>
        <time>2023-08-20T08:54:16Z</time>
      </trkpt>
      <trkpt lat="44.64936" lon="2.0992">
        <ele>214.2</ele>
        <time>2023-08-20T08:54:17Z</time>
      </trkpt>
      <trkpt lat="44.64937" lon="2.09914">
        <ele>214</ele>
        <time>2023-08-20T08:54:18Z</time>
      </trkpt>
      <trkpt lat="44.64937" lon="2.0991">
        <ele>214</ele>
        <time>2023-08-20T08:54:19Z</time>
      </trkpt>
      <trkpt lat="44.64938" lon="2.09906">
        <ele>213.6</ele>
        <time>2023-08-20T08:54:20Z</time>
      </trkpt>
      <trkpt lat="44.64938" lon="2.09903">
        <ele>213.2</ele>
        <time>2023-08-20T08:54:21Z</time>
      </trkpt>
      <trkpt lat="44.64938" lon="2.09903">
        <ele>212.8</ele>
        <time>2023-08-20T08:54:22Z</time>
      </trkpt>
      <trkpt lat="44.64938" lon="2.09903">
        <ele>212.4</ele>
        <time>2023-08-20T08:54:23Z</time>
      </trkpt>
      <trkpt lat="44.64938" lon="2.09903">
        <ele>212.4</ele>
        <time>2023-08-20T08:54:24Z</time>
      </trkpt>
      <trkpt lat="44.64941" lon="2.09896">
        <ele>211</ele>
        <time>2023-08-20T08:54:59Z</time>
      </trkpt>
      <trkpt lat="44.64947" lon="2.09888">
        <ele>211.2</ele>
        <time>2023-08-20T08:55:00Z</time>
      </trkpt>
      <trkpt lat="44.64955" lon="2.09882">
        <ele>211.2</ele>
        <time>2023-08-20T08:55:01Z</time>
      </trkpt>
      <trkpt lat="44.64964" lon="2.09878">
        <ele>211.2</ele>
        <time>2023-08-20T08:55:02Z</time>
      </trkpt>
      <trkpt lat="44.64973" lon="2.09879">
        <ele>211.4</ele>
        <time>2023-08-20T08:55:03Z</time>
      </trkpt>
      <trkpt lat="44.64982" lon="2.09884">
        <ele>211.6</ele>
        <time>2023-08-20T08:55:04Z</time>
      </trkpt>
      <trkpt lat="44.64991" lon="2.09892">
        <ele>211.6</ele>
        <time>2023-08-20T08:55:05Z</time>
      </trkpt>
      <trkpt lat="44.65009" lon="2.0991">
        <ele>211.8</ele>
        <time>2023-08-20T08:55:07Z</time>
      </trkpt>
      <trkpt lat="44.65019" lon="2.0992">
        <ele>212</ele>
        <time>2023-08-20T08:55:08Z</time>
      </trkpt>
      <trkpt lat="44.65038" lon="2.09937">
        <ele>212</ele>
        <time>2023-08-20T08:55:10Z</time>
      </trkpt>
      <trkpt lat="44.65069" lon="2.09966">
        <ele>212.8</ele>
        <time>2023-08-20T08:55:13Z</time>
      </trkpt>
      <trkpt lat="44.65098" lon="2.10012">
        <ele>213.2</ele>
        <time>2023-08-20T08:55:16Z</time>
      </trkpt>
      <trkpt lat="44.65132" lon="2.10083">
        <ele>214.4</ele>
        <time>2023-08-20T08:55:20Z</time>
      </trkpt>
      <trkpt lat="44.6514" lon="2.10101">
        <ele>214.6</ele>
        <time>2023-08-20T08:55:21Z</time>
      </trkpt>
      <trkpt lat="44.65149" lon="2.10118">
        <ele>214.8</ele>
        <time>2023-08-20T08:55:22Z</time>
      </trkpt>
      <trkpt lat="44.65158" lon="2.10135">
        <ele>215</ele>
        <time>2023-08-20T08:55:23Z</time>
      </trkpt>
      <trkpt lat="44.65167" lon="2.10151">
        <ele>215.2</ele>
        <time>2023-08-20T08:55:24Z</time>
      </trkpt>
      <trkpt lat="44.65177" lon="2.10167">
        <ele>215.2</ele>
        <time>2023-08-20T08:55:25Z</time>
      </trkpt>
      <trkpt lat="44.65188" lon="2.10183">
        <ele>215.4</ele>
        <time>2023-08-20T08:55:26Z</time>
      </trkpt>
      <trkpt lat="44.652" lon="2.10198">
        <ele>215.6</ele>
        <time>2023-08-20T08:55:27Z</time>
      </trkpt>
      <trkpt lat="44.65212" lon="2.10215">
        <ele>215.8</ele>
        <time>2023-08-20T08:55:28Z</time>
      </trkpt>
      <trkpt lat="44.65224" lon="2.10232">
        <ele>216.4</ele>
        <time>2023-08-20T08:55:29Z</time>
      </trkpt>
      <trkpt lat="44.65232" lon="2.10252">
        <ele>216.6</ele>
        <time>2023-08-20T08:55:30Z</time>
      </trkpt>
      <trkpt lat="44.65239" lon="2.10273">
        <ele>216.8</ele>
        <time>2023-08-20T08:55:31Z</time>
      </trkpt>
      <trkpt lat="44.65243" lon="2.10296">
        <ele>217</ele>
        <time>2023-08-20T08:55:32Z</time>
      </trkpt>
      <trkpt lat="44.65245" lon="2.10319">
        <ele>217.4</ele>
        <time>2023-08-20T08:55:33Z</time>
      </trkpt>
      <trkpt lat="44.65245" lon="2.10347">
        <ele>217.4</ele>
        <time>2023-08-20T08:55:34Z</time>
      </trkpt>
      <trkpt lat="44.65244" lon="2.10371">
        <ele>217.6</ele>
        <time>2023-08-20T08:55:35Z</time>
      </trkpt>
      <trkpt lat="44.65242" lon="2.1039">
        <ele>217.8</ele>
        <time>2023-08-20T08:55:36Z</time>
      </trkpt>
      <trkpt lat="44.65237" lon="2.10413">
        <ele>218.2</ele>
        <time>2023-08-20T08:55:37Z</time>
      </trkpt>
      <trkpt lat="44.65231" lon="2.10441">
        <ele>218.4</ele>
        <time>2023-08-20T08:55:38Z</time>
      </trkpt>
      <trkpt lat="44.65227" lon="2.10458">
        <ele>218.6</ele>
        <time>2023-08-20T08:55:39Z</time>
      </trkpt>
      <trkpt lat="44.65222" lon="2.10479">
        <ele>218.8</ele>
        <time>2023-08-20T08:55:40Z</time>
      </trkpt>
      <trkpt lat="44.65217" lon="2.105">
        <ele>219</ele>
        <time>2023-08-20T08:55:41Z</time>
      </trkpt>
      <trkpt lat="44.65212" lon="2.1052">
        <ele>219</ele>
        <time>2023-08-20T08:55:42Z</time>
      </trkpt>
      <trkpt lat="44.65207" lon="2.1054">
        <ele>219</ele>
        <time>2023-08-20T08:55:43Z</time>
      </trkpt>
      <trkpt lat="44.65201" lon="2.10558">
        <ele>219</ele>
        <time>2023-08-20T08:55:44Z</time>
      </trkpt>
      <trkpt lat="44.65194" lon="2.10575">
        <ele>219.2</ele>
        <time>2023-08-20T08:55:45Z</time>
      </trkpt>
      <trkpt lat="44.65185" lon="2.10591">
        <ele>219.2</ele>
        <time>2023-08-20T08:55:46Z</time>
      </trkpt>
      <trkpt lat="44.65175" lon="2.10605">
        <ele>219</ele>
        <time>2023-08-20T08:55:47Z</time>
      </trkpt>
      <trkpt lat="44.65163" lon="2.10616">
        <ele>219</ele>
        <time>2023-08-20T08:55:48Z</time>
      </trkpt>
      <trkpt lat="44.6515" lon="2.10622">
        <ele>218.6</ele>
        <time>2023-08-20T08:55:49Z</time>
      </trkpt>
      <trkpt lat="44.65137" lon="2.10624">
        <ele>218.6</ele>
        <time>2023-08-20T08:55:50Z</time>
      </trkpt>
      <trkpt lat="44.65123" lon="2.1062">
        <ele>218.6</ele>
        <time>2023-08-20T08:55:51Z</time>
      </trkpt>
      <trkpt lat="44.65108" lon="2.10612">
        <ele>218.4</ele>
        <time>2023-08-20T08:55:52Z</time>
      </trkpt>
      <trkpt lat="44.65092" lon="2.10603">
        <ele>218.4</ele>
        <time>2023-08-20T08:55:53Z</time>
      </trkpt>
      <trkpt lat="44.65076" lon="2.10596">
        <ele>218.4</ele>
        <time>2023-08-20T08:55:54Z</time>
      </trkpt>
      <trkpt lat="44.6506" lon="2.10588">
        <ele>218.6</ele>
        <time>2023-08-20T08:55:55Z</time>
      </trkpt>
      <trkpt lat="44.65044" lon="2.1058">
        <ele>218.8</ele>
        <time>2023-08-20T08:55:56Z</time>
      </trkpt>
      <trkpt lat="44.65028" lon="2.10573">
        <ele>219</ele>
        <time>2023-08-20T08:55:57Z</time>
      </trkpt>
      <trkpt lat="44.65011" lon="2.10566">
        <ele>219.4</ele>
        <time>2023-08-20T08:55:58Z</time>
      </trkpt>
      <trkpt lat="44.64994" lon="2.10561">
        <ele>219.6</ele>
        <time>2023-08-20T08:55:59Z</time>
      </trkpt>
      <trkpt lat="44.64925" lon="2.10554">
        <ele>220.4</ele>
        <time>2023-08-20T08:56:03Z</time>
      </trkpt>
      <trkpt lat="44.64909" lon="2.10553">
        <ele>220.4</ele>
        <time>2023-08-20T08:56:04Z</time>
      </trkpt>
      <trkpt lat="44.64893" lon="2.10552">
        <ele>220.6</ele>
        <time>2023-08-20T08:56:05Z</time>
      </trkpt>
      <trkpt lat="44.64877" lon="2.10552">
        <ele>220.6</ele>
        <time>2023-08-20T08:56:06Z</time>
      </trkpt>
      <trkpt lat="44.64862" lon="2.1055">
        <ele>220.8</ele>
        <time>2023-08-20T08:56:07Z</time>
      </trkpt>
      <trkpt lat="44.64846" lon="2.10549">
        <ele>220.8</ele>
        <time>2023-08-20T08:56:08Z</time>
      </trkpt>
      <trkpt lat="44.64831" lon="2.10549">
        <ele>221</ele>
        <time>2023-08-20T08:56:09Z</time>
      </trkpt>
      <trkpt lat="44.64815" lon="2.10551">
        <ele>221.2</ele>
        <time>2023-08-20T08:56:10Z</time>
      </trkpt>
      <trkpt lat="44.64798" lon="2.10553">
        <ele>221.2</ele>
        <time>2023-08-20T08:56:11Z</time>
      </trkpt>
      <trkpt lat="44.64781" lon="2.1056">
        <ele>221.2</ele>
        <time>2023-08-20T08:56:12Z</time>
      </trkpt>
      <trkpt lat="44.64761" lon="2.10567">
        <ele>221.2</ele>
        <time>2023-08-20T08:56:13Z</time>
      </trkpt>
      <trkpt lat="44.64741" lon="2.10575">
        <ele>221.4</ele>
        <time>2023-08-20T08:56:14Z</time>
      </trkpt>
      <trkpt lat="44.64722" lon="2.10583">
        <ele>221.6</ele>
        <time>2023-08-20T08:56:15Z</time>
      </trkpt>
      <trkpt lat="44.64703" lon="2.1059">
        <ele>222.4</ele>
        <time>2023-08-20T08:56:16Z</time>
      </trkpt>
      <trkpt lat="44.64687" lon="2.10598">
        <ele>222.6</ele>
        <time>2023-08-20T08:56:17Z</time>
      </trkpt>
      <trkpt lat="44.64671" lon="2.10607">
        <ele>222.8</ele>
        <time>2023-08-20T08:56:18Z</time>
      </trkpt>
      <trkpt lat="44.64657" lon="2.10619">
        <ele>223</ele>
        <time>2023-08-20T08:56:19Z</time>
      </trkpt>
      <trkpt lat="44.64646" lon="2.10635">
        <ele>223</ele>
        <time>2023-08-20T08:56:20Z</time>
      </trkpt>
      <trkpt lat="44.64636" lon="2.10654">
        <ele>223</ele>
        <time>2023-08-20T08:56:21Z</time>
      </trkpt>
      <trkpt lat="44.64628" lon="2.10676">
        <ele>223</ele>
        <time>2023-08-20T08:56:22Z</time>
      </trkpt>
      <trkpt lat="44.64622" lon="2.107">
        <ele>223</ele>
        <time>2023-08-20T08:56:23Z</time>
      </trkpt>
      <trkpt lat="44.64617" lon="2.10725">
        <ele>223</ele>
        <time>2023-08-20T08:56:24Z</time>
      </trkpt>
      <trkpt lat="44.64613" lon="2.1075">
        <ele>222.8</ele>
        <time>2023-08-20T08:56:25Z</time>
      </trkpt>
      <trkpt lat="44.64612" lon="2.10776">
        <ele>222.6</ele>
        <time>2023-08-20T08:56:26Z</time>
      </trkpt>
      <trkpt lat="44.64611" lon="2.108">
        <ele>222.6</ele>
        <time>2023-08-20T08:56:27Z</time>
      </trkpt>
      <trkpt lat="44.64611" lon="2.10823">
        <ele>222.4</ele>
        <time>2023-08-20T08:56:28Z</time>
      </trkpt>
      <trkpt lat="44.64612" lon="2.10844">
        <ele>222.4</ele>
        <time>2023-08-20T08:56:29Z</time>
      </trkpt>
      <trkpt lat="44.64617" lon="2.10865">
        <ele>222.2</ele>
        <time>2023-08-20T08:56:30Z</time>
      </trkpt>
      <trkpt lat="44.64623" lon="2.10887">
        <ele>222.2</ele>
        <time>2023-08-20T08:56:31Z</time>
      </trkpt>
      <trkpt lat="44.64642" lon="2.1093">
        <ele>222</ele>
        <time>2023-08-20T08:56:33Z</time>
      </trkpt>
      <trkpt lat="44.64654" lon="2.10952">
        <ele>221.8</ele>
        <time>2023-08-20T08:56:34Z</time>
      </trkpt>
      <trkpt lat="44.6468" lon="2.10994">
        <ele>221.8</ele>
        <time>2023-08-20T08:56:36Z</time>
      </trkpt>
      <trkpt lat="44.64695" lon="2.11014">
        <ele>222</ele>
        <time>2023-08-20T08:56:37Z</time>
      </trkpt>
      <trkpt lat="44.64742" lon="2.11067">
        <ele>222.2</ele>
        <time>2023-08-20T08:56:40Z</time>
      </trkpt>
      <trkpt lat="44.64757" lon="2.11084">
        <ele>222.4</ele>
        <time>2023-08-20T08:56:41Z</time>
      </trkpt>
      <trkpt lat="44.64771" lon="2.111">
        <ele>222.6</ele>
        <time>2023-08-20T08:56:42Z</time>
      </trkpt>
      <trkpt lat="44.64786" lon="2.11117">
        <ele>222.6</ele>
        <time>2023-08-20T08:56:43Z</time>
      </trkpt>
      <trkpt lat="44.64831" lon="2.11166">
        <ele>222.6</ele>
        <time>2023-08-20T08:56:46Z</time>
      </trkpt>
      <trkpt lat="44.64847" lon="2.11184">
        <ele>222.6</ele>
        <time>2023-08-20T08:56:47Z</time>
      </trkpt>
      <trkpt lat="44.64861" lon="2.112">
        <ele>222.8</ele>
        <time>2023-08-20T08:56:48Z</time>
      </trkpt>
      <trkpt lat="44.64876" lon="2.11217">
        <ele>222.8</ele>
        <time>2023-08-20T08:56:49Z</time>
      </trkpt>
      <trkpt lat="44.6489" lon="2.11234">
        <ele>222.8</ele>
        <time>2023-08-20T08:56:50Z</time>
      </trkpt>
      <trkpt lat="44.64932" lon="2.1129">
        <ele>223</ele>
        <time>2023-08-20T08:56:53Z</time>
      </trkpt>
      <trkpt lat="44.64961" lon="2.11329">
        <ele>223.2</ele>
        <time>2023-08-20T08:56:55Z</time>
      </trkpt>
      <trkpt lat="44.64975" lon="2.11348">
        <ele>223.4</ele>
        <time>2023-08-20T08:56:56Z</time>
      </trkpt>
      <trkpt lat="44.64988" lon="2.11367">
        <ele>223.6</ele>
        <time>2023-08-20T08:56:57Z</time>
      </trkpt>
      <trkpt lat="44.65002" lon="2.11385">
        <ele>223.8</ele>
        <time>2023-08-20T08:56:58Z</time>
      </trkpt>
      <trkpt lat="44.65042" lon="2.11439">
        <ele>224.2</ele>
        <time>2023-08-20T08:57:01Z</time>
      </trkpt>
      <trkpt lat="44.65056" lon="2.11456">
        <ele>224.4</ele>
        <time>2023-08-20T08:57:02Z</time>
      </trkpt>
      <trkpt lat="44.6507" lon="2.11473">
        <ele>224.4</ele>
        <time>2023-08-20T08:57:03Z</time>
      </trkpt>
      <trkpt lat="44.65084" lon="2.11489">
        <ele>224.4</ele>
        <time>2023-08-20T08:57:04Z</time>
      </trkpt>
      <trkpt lat="44.65098" lon="2.11506">
        <ele>224.6</ele>
        <time>2023-08-20T08:57:05Z</time>
      </trkpt>
      <trkpt lat="44.6514" lon="2.11559">
        <ele>224.8</ele>
        <time>2023-08-20T08:57:08Z</time>
      </trkpt>
      <trkpt lat="44.65153" lon="2.11579">
        <ele>224.8</ele>
        <time>2023-08-20T08:57:09Z</time>
      </trkpt>
      <trkpt lat="44.65186" lon="2.11647">
        <ele>225.2</ele>
        <time>2023-08-20T08:57:12Z</time>
      </trkpt>
      <trkpt lat="44.65205" lon="2.11696">
        <ele>225.8</ele>
        <time>2023-08-20T08:57:14Z</time>
      </trkpt>
      <trkpt lat="44.65214" lon="2.11721">
        <ele>226.2</ele>
        <time>2023-08-20T08:57:15Z</time>
      </trkpt>
      <trkpt lat="44.65221" lon="2.11744">
        <ele>226.4</ele>
        <time>2023-08-20T08:57:16Z</time>
      </trkpt>
      <trkpt lat="44.65228" lon="2.11767">
        <ele>226.4</ele>
        <time>2023-08-20T08:57:17Z</time>
      </trkpt>
      <trkpt lat="44.65236" lon="2.1179">
        <ele>226.4</ele>
        <time>2023-08-20T08:57:18Z</time>
      </trkpt>
      <trkpt lat="44.65244" lon="2.11811">
        <ele>226.4</ele>
        <time>2023-08-20T08:57:19Z</time>
      </trkpt>
      <trkpt lat="44.65253" lon="2.11832">
        <ele>226.4</ele>
        <time>2023-08-20T08:57:20Z</time>
      </trkpt>
      <trkpt lat="44.65266" lon="2.11854">
        <ele>226.4</ele>
        <time>2023-08-20T08:57:21Z</time>
      </trkpt>
      <trkpt lat="44.65276" lon="2.11867">
        <ele>226.4</ele>
        <time>2023-08-20T08:57:22Z</time>
      </trkpt>
      <trkpt lat="44.6529" lon="2.11882">
        <ele>226.4</ele>
        <time>2023-08-20T08:57:23Z</time>
      </trkpt>
      <trkpt lat="44.65305" lon="2.11895">
        <ele>226.4</ele>
        <time>2023-08-20T08:57:24Z</time>
      </trkpt>
      <trkpt lat="44.65324" lon="2.11909">
        <ele>226.2</ele>
        <time>2023-08-20T08:57:25Z</time>
      </trkpt>
      <trkpt lat="44.65338" lon="2.11918">
        <ele>226.2</ele>
        <time>2023-08-20T08:57:26Z</time>
      </trkpt>
      <trkpt lat="44.65356" lon="2.11928">
        <ele>226.2</ele>
        <time>2023-08-20T08:57:27Z</time>
      </trkpt>
      <trkpt lat="44.65377" lon="2.1194">
        <ele>226.2</ele>
        <time>2023-08-20T08:57:28Z</time>
      </trkpt>
      <trkpt lat="44.65394" lon="2.11948">
        <ele>226.2</ele>
        <time>2023-08-20T08:57:29Z</time>
      </trkpt>
      <trkpt lat="44.65408" lon="2.11954">
        <ele>226.2</ele>
        <time>2023-08-20T08:57:30Z</time>
      </trkpt>
      <trkpt lat="44.65429" lon="2.11963">
        <ele>226.4</ele>
        <time>2023-08-20T08:57:31Z</time>
      </trkpt>
      <trkpt lat="44.65477" lon="2.11988">
        <ele>226.6</ele>
        <time>2023-08-20T08:57:34Z</time>
      </trkpt>
      <trkpt lat="44.65531" lon="2.12007">
        <ele>227</ele>
        <time>2023-08-20T08:57:37Z</time>
      </trkpt>
      <trkpt lat="44.65566" lon="2.12019">
        <ele>227</ele>
        <time>2023-08-20T08:57:39Z</time>
      </trkpt>
      <trkpt lat="44.65582" lon="2.12028">
        <ele>227</ele>
        <time>2023-08-20T08:57:40Z</time>
      </trkpt>
      <trkpt lat="44.65598" lon="2.12037">
        <ele>227</ele>
        <time>2023-08-20T08:57:41Z</time>
      </trkpt>
      <trkpt lat="44.65614" lon="2.12047">
        <ele>227</ele>
        <time>2023-08-20T08:57:42Z</time>
      </trkpt>
      <trkpt lat="44.6563" lon="2.12057">
        <ele>227</ele>
        <time>2023-08-20T08:57:43Z</time>
      </trkpt>
      <trkpt lat="44.65662" lon="2.12076">
        <ele>227</ele>
        <time>2023-08-20T08:57:45Z</time>
      </trkpt>
      <trkpt lat="44.65694" lon="2.1209">
        <ele>227</ele>
        <time>2023-08-20T08:57:47Z</time>
      </trkpt>
      <trkpt lat="44.65711" lon="2.12094">
        <ele>227</ele>
        <time>2023-08-20T08:57:48Z</time>
      </trkpt>
      <trkpt lat="44.65727" lon="2.12098">
        <ele>227</ele>
        <time>2023-08-20T08:57:49Z</time>
      </trkpt>
      <trkpt lat="44.65744" lon="2.12101">
        <ele>226.8</ele>
        <time>2023-08-20T08:57:50Z</time>
      </trkpt>
      <trkpt lat="44.6581" lon="2.12121">
        <ele>226.6</ele>
        <time>2023-08-20T08:57:54Z</time>
      </trkpt>
      <trkpt lat="44.65857" lon="2.12135">
        <ele>226.4</ele>
        <time>2023-08-20T08:57:57Z</time>
      </trkpt>
      <trkpt lat="44.65871" lon="2.12137">
        <ele>226.2</ele>
        <time>2023-08-20T08:57:58Z</time>
      </trkpt>
      <trkpt lat="44.65885" lon="2.12138">
        <ele>226</ele>
        <time>2023-08-20T08:57:59Z</time>
      </trkpt>
      <trkpt lat="44.65899" lon="2.12141">
        <ele>226</ele>
        <time>2023-08-20T08:58:00Z</time>
      </trkpt>
      <trkpt lat="44.65915" lon="2.12148">
        <ele>225.8</ele>
        <time>2023-08-20T08:58:01Z</time>
      </trkpt>
      <trkpt lat="44.65924" lon="2.12156">
        <ele>225.4</ele>
        <time>2023-08-20T08:58:02Z</time>
      </trkpt>
      <trkpt lat="44.65935" lon="2.1217">
        <ele>225.2</ele>
        <time>2023-08-20T08:58:03Z</time>
      </trkpt>
      <trkpt lat="44.65944" lon="2.12186">
        <ele>225</ele>
        <time>2023-08-20T08:58:04Z</time>
      </trkpt>
      <trkpt lat="44.65951" lon="2.12203">
        <ele>225</ele>
        <time>2023-08-20T08:58:05Z</time>
      </trkpt>
      <trkpt lat="44.65954" lon="2.12222">
        <ele>224.8</ele>
        <time>2023-08-20T08:58:06Z</time>
      </trkpt>
      <trkpt lat="44.65954" lon="2.12241">
        <ele>224.8</ele>
        <time>2023-08-20T08:58:07Z</time>
      </trkpt>
      <trkpt lat="44.65949" lon="2.12259">
        <ele>224.8</ele>
        <time>2023-08-20T08:58:08Z</time>
      </trkpt>
      <trkpt lat="44.65935" lon="2.12296">
        <ele>224.8</ele>
        <time>2023-08-20T08:58:10Z</time>
      </trkpt>
      <trkpt lat="44.6593" lon="2.12317">
        <ele>224.8</ele>
        <time>2023-08-20T08:58:11Z</time>
      </trkpt>
      <trkpt lat="44.65927" lon="2.12339">
        <ele>224.8</ele>
        <time>2023-08-20T08:58:12Z</time>
      </trkpt>
      <trkpt lat="44.65927" lon="2.12362">
        <ele>225.4</ele>
        <time>2023-08-20T08:58:13Z</time>
      </trkpt>
      <trkpt lat="44.65927" lon="2.12386">
        <ele>225.6</ele>
        <time>2023-08-20T08:58:14Z</time>
      </trkpt>
      <trkpt lat="44.65927" lon="2.1241">
        <ele>226.2</ele>
        <time>2023-08-20T08:58:15Z</time>
      </trkpt>
      <trkpt lat="44.65923" lon="2.12457">
        <ele>227</ele>
        <time>2023-08-20T08:58:17Z</time>
      </trkpt>
      <trkpt lat="44.65918" lon="2.1248">
        <ele>227.2</ele>
        <time>2023-08-20T08:58:18Z</time>
      </trkpt>
      <trkpt lat="44.65912" lon="2.12502">
        <ele>228</ele>
        <time>2023-08-20T08:58:19Z</time>
      </trkpt>
      <trkpt lat="44.65902" lon="2.12523">
        <ele>228.4</ele>
        <time>2023-08-20T08:58:20Z</time>
      </trkpt>
      <trkpt lat="44.65893" lon="2.12544">
        <ele>228.8</ele>
        <time>2023-08-20T08:58:21Z</time>
      </trkpt>
      <trkpt lat="44.65883" lon="2.12565">
        <ele>229.2</ele>
        <time>2023-08-20T08:58:22Z</time>
      </trkpt>
      <trkpt lat="44.65855" lon="2.12625">
        <ele>229.6</ele>
        <time>2023-08-20T08:58:25Z</time>
      </trkpt>
      <trkpt lat="44.65846" lon="2.12646">
        <ele>230.2</ele>
        <time>2023-08-20T08:58:26Z</time>
      </trkpt>
      <trkpt lat="44.65837" lon="2.12666">
        <ele>230.4</ele>
        <time>2023-08-20T08:58:27Z</time>
      </trkpt>
      <trkpt lat="44.65827" lon="2.12687">
        <ele>231</ele>
        <time>2023-08-20T08:58:28Z</time>
      </trkpt>
      <trkpt lat="44.65817" lon="2.12708">
        <ele>231</ele>
        <time>2023-08-20T08:58:29Z</time>
      </trkpt>
      <trkpt lat="44.65806" lon="2.12729">
        <ele>231.4</ele>
        <time>2023-08-20T08:58:30Z</time>
      </trkpt>
      <trkpt lat="44.65795" lon="2.1275">
        <ele>231.8</ele>
        <time>2023-08-20T08:58:31Z</time>
      </trkpt>
      <trkpt lat="44.65785" lon="2.12771">
        <ele>232</ele>
        <time>2023-08-20T08:58:32Z</time>
      </trkpt>
      <trkpt lat="44.65777" lon="2.12793">
        <ele>232.4</ele>
        <time>2023-08-20T08:58:33Z</time>
      </trkpt>
      <trkpt lat="44.65769" lon="2.12816">
        <ele>232.4</ele>
        <time>2023-08-20T08:58:34Z</time>
      </trkpt>
      <trkpt lat="44.65764" lon="2.12839">
        <ele>232.6</ele>
        <time>2023-08-20T08:58:35Z</time>
      </trkpt>
      <trkpt lat="44.65759" lon="2.12864">
        <ele>232.6</ele>
        <time>2023-08-20T08:58:36Z</time>
      </trkpt>
      <trkpt lat="44.65755" lon="2.12889">
        <ele>232.8</ele>
        <time>2023-08-20T08:58:37Z</time>
      </trkpt>
      <trkpt lat="44.6575" lon="2.12914">
        <ele>233</ele>
        <time>2023-08-20T08:58:38Z</time>
      </trkpt>
      <trkpt lat="44.65746" lon="2.12939">
        <ele>233</ele>
        <time>2023-08-20T08:58:39Z</time>
      </trkpt>
      <trkpt lat="44.65741" lon="2.12964">
        <ele>233</ele>
        <time>2023-08-20T08:58:40Z</time>
      </trkpt>
      <trkpt lat="44.65737" lon="2.1299">
        <ele>233</ele>
        <time>2023-08-20T08:58:41Z</time>
      </trkpt>
      <trkpt lat="44.65731" lon="2.13014">
        <ele>232.8</ele>
        <time>2023-08-20T08:58:42Z</time>
      </trkpt>
      <trkpt lat="44.65724" lon="2.13037">
        <ele>232.8</ele>
        <time>2023-08-20T08:58:43Z</time>
      </trkpt>
      <trkpt lat="44.65715" lon="2.13059">
        <ele>232.8</ele>
        <time>2023-08-20T08:58:44Z</time>
      </trkpt>
      <trkpt lat="44.65704" lon="2.13079">
        <ele>232.8</ele>
        <time>2023-08-20T08:58:45Z</time>
      </trkpt>
      <trkpt lat="44.65693" lon="2.13098">
        <ele>232.4</ele>
        <time>2023-08-20T08:58:46Z</time>
      </trkpt>
      <trkpt lat="44.65678" lon="2.13119">
        <ele>232.4</ele>
        <time>2023-08-20T08:58:47Z</time>
      </trkpt>
      <trkpt lat="44.65667" lon="2.13132">
        <ele>232.4</ele>
        <time>2023-08-20T08:58:48Z</time>
      </trkpt>
      <trkpt lat="44.65654" lon="2.13148">
        <ele>232.4</ele>
        <time>2023-08-20T08:58:49Z</time>
      </trkpt>
      <trkpt lat="44.65642" lon="2.13166">
        <ele>232.4</ele>
        <time>2023-08-20T08:58:50Z</time>
      </trkpt>
      <trkpt lat="44.65632" lon="2.13185">
        <ele>232.4</ele>
        <time>2023-08-20T08:58:51Z</time>
      </trkpt>
      <trkpt lat="44.65625" lon="2.13206">
        <ele>232.4</ele>
        <time>2023-08-20T08:58:52Z</time>
      </trkpt>
      <trkpt lat="44.6562" lon="2.13228">
        <ele>232.4</ele>
        <time>2023-08-20T08:58:53Z</time>
      </trkpt>
      <trkpt lat="44.65619" lon="2.13252">
        <ele>232.6</ele>
        <time>2023-08-20T08:58:54Z</time>
      </trkpt>
      <trkpt lat="44.65621" lon="2.13276">
        <ele>232.6</ele>
        <time>2023-08-20T08:58:55Z</time>
      </trkpt>
      <trkpt lat="44.65626" lon="2.13299">
        <ele>232.8</ele>
        <time>2023-08-20T08:58:56Z</time>
      </trkpt>
      <trkpt lat="44.65633" lon="2.1332">
        <ele>232.8</ele>
        <time>2023-08-20T08:58:57Z</time>
      </trkpt>
      <trkpt lat="44.65642" lon="2.13341">
        <ele>232.8</ele>
        <time>2023-08-20T08:58:58Z</time>
      </trkpt>
      <trkpt lat="44.65652" lon="2.13361">
        <ele>232.8</ele>
        <time>2023-08-20T08:58:59Z</time>
      </trkpt>
      <trkpt lat="44.65689" lon="2.13419">
        <ele>233</ele>
        <time>2023-08-20T08:59:02Z</time>
      </trkpt>
      <trkpt lat="44.65721" lon="2.13446">
        <ele>233</ele>
        <time>2023-08-20T08:59:04Z</time>
      </trkpt>
      <trkpt lat="44.65756" lon="2.13461">
        <ele>233</ele>
        <time>2023-08-20T08:59:06Z</time>
      </trkpt>
      <trkpt lat="44.65778" lon="2.13467">
        <ele>233</ele>
        <time>2023-08-20T08:59:07Z</time>
      </trkpt>
      <trkpt lat="44.65809" lon="2.13476">
        <ele>233</ele>
        <time>2023-08-20T08:59:09Z</time>
      </trkpt>
      <trkpt lat="44.65829" lon="2.13484">
        <ele>232.8</ele>
        <time>2023-08-20T08:59:10Z</time>
      </trkpt>
      <trkpt lat="44.65841" lon="2.13492">
        <ele>232.8</ele>
        <time>2023-08-20T08:59:11Z</time>
      </trkpt>
      <trkpt lat="44.65857" lon="2.13504">
        <ele>232.6</ele>
        <time>2023-08-20T08:59:12Z</time>
      </trkpt>
      <trkpt lat="44.65885" lon="2.13536">
        <ele>232.2</ele>
        <time>2023-08-20T08:59:14Z</time>
      </trkpt>
      <trkpt lat="44.65925" lon="2.13592">
        <ele>231.8</ele>
        <time>2023-08-20T08:59:17Z</time>
      </trkpt>
      <trkpt lat="44.65934" lon="2.13607">
        <ele>231.6</ele>
        <time>2023-08-20T08:59:18Z</time>
      </trkpt>
      <trkpt lat="44.65953" lon="2.13647">
        <ele>231.4</ele>
        <time>2023-08-20T08:59:20Z</time>
      </trkpt>
      <trkpt lat="44.65962" lon="2.13666">
        <ele>231.4</ele>
        <time>2023-08-20T08:59:21Z</time>
      </trkpt>
      <trkpt lat="44.65972" lon="2.13684">
        <ele>231.4</ele>
        <time>2023-08-20T08:59:22Z</time>
      </trkpt>
      <trkpt lat="44.66008" lon="2.13737">
        <ele>231.4</ele>
        <time>2023-08-20T08:59:25Z</time>
      </trkpt>
      <trkpt lat="44.66048" lon="2.13789">
        <ele>231.8</ele>
        <time>2023-08-20T08:59:28Z</time>
      </trkpt>
      <trkpt lat="44.66089" lon="2.1384">
        <ele>232.2</ele>
        <time>2023-08-20T08:59:31Z</time>
      </trkpt>
      <trkpt lat="44.66103" lon="2.13857">
        <ele>232.4</ele>
        <time>2023-08-20T08:59:32Z</time>
      </trkpt>
      <trkpt lat="44.66156" lon="2.13924">
        <ele>232.8</ele>
        <time>2023-08-20T08:59:36Z</time>
      </trkpt>
      <trkpt lat="44.6618" lon="2.1396">
        <ele>232.6</ele>
        <time>2023-08-20T08:59:38Z</time>
      </trkpt>
      <trkpt lat="44.66191" lon="2.1398">
        <ele>232.6</ele>
        <time>2023-08-20T08:59:39Z</time>
      </trkpt>
      <trkpt lat="44.66201" lon="2.14001">
        <ele>232.8</ele>
        <time>2023-08-20T08:59:40Z</time>
      </trkpt>
      <trkpt lat="44.6621" lon="2.14022">
        <ele>232.6</ele>
        <time>2023-08-20T08:59:41Z</time>
      </trkpt>
      <trkpt lat="44.66217" lon="2.14045">
        <ele>232.6</ele>
        <time>2023-08-20T08:59:42Z</time>
      </trkpt>
      <trkpt lat="44.66229" lon="2.14094">
        <ele>232.6</ele>
        <time>2023-08-20T08:59:44Z</time>
      </trkpt>
      <trkpt lat="44.66235" lon="2.14172">
        <ele>232.6</ele>
        <time>2023-08-20T08:59:47Z</time>
      </trkpt>
      <trkpt lat="44.66227" lon="2.14251">
        <ele>232.8</ele>
        <time>2023-08-20T08:59:50Z</time>
      </trkpt>
      <trkpt lat="44.66215" lon="2.14327">
        <ele>233.4</ele>
        <time>2023-08-20T08:59:53Z</time>
      </trkpt>
      <trkpt lat="44.6621" lon="2.14376">
        <ele>233.6</ele>
        <time>2023-08-20T08:59:55Z</time>
      </trkpt>
      <trkpt lat="44.66209" lon="2.144">
        <ele>233.6</ele>
        <time>2023-08-20T08:59:56Z</time>
      </trkpt>
      <trkpt lat="44.6621" lon="2.14424">
        <ele>233.6</ele>
        <time>2023-08-20T08:59:57Z</time>
      </trkpt>
      <trkpt lat="44.66213" lon="2.14448">
        <ele>233.6</ele>
        <time>2023-08-20T08:59:58Z</time>
      </trkpt>
      <trkpt lat="44.66217" lon="2.14472">
        <ele>233.6</ele>
        <time>2023-08-20T08:59:59Z</time>
      </trkpt>
      <trkpt lat="44.66238" lon="2.14543">
        <ele>233.4</ele>
        <time>2023-08-20T09:00:02Z</time>
      </trkpt>
      <trkpt lat="44.66263" lon="2.14615">
        <ele>233.4</ele>
        <time>2023-08-20T09:00:05Z</time>
      </trkpt>
      <trkpt lat="44.66277" lon="2.14664">
        <ele>233.4</ele>
        <time>2023-08-20T09:00:07Z</time>
      </trkpt>
      <trkpt lat="44.66283" lon="2.14695">
        <ele>233.6</ele>
        <time>2023-08-20T09:00:08Z</time>
      </trkpt>
      <trkpt lat="44.6629" lon="2.14741">
        <ele>234</ele>
        <time>2023-08-20T09:00:10Z</time>
      </trkpt>
      <trkpt lat="44.66298" lon="2.14818">
        <ele>234.4</ele>
        <time>2023-08-20T09:00:13Z</time>
      </trkpt>
      <trkpt lat="44.66299" lon="2.14845">
        <ele>234.4</ele>
        <time>2023-08-20T09:00:14Z</time>
      </trkpt>
      <trkpt lat="44.66297" lon="2.14922">
        <ele>234.6</ele>
        <time>2023-08-20T09:00:17Z</time>
      </trkpt>
      <trkpt lat="44.66296" lon="2.14947">
        <ele>234.6</ele>
        <time>2023-08-20T09:00:18Z</time>
      </trkpt>
      <trkpt lat="44.66297" lon="2.14971">
        <ele>234.6</ele>
        <time>2023-08-20T09:00:19Z</time>
      </trkpt>
      <trkpt lat="44.663" lon="2.14995">
        <ele>234.6</ele>
        <time>2023-08-20T09:00:20Z</time>
      </trkpt>
      <trkpt lat="44.66306" lon="2.15018">
        <ele>234.6</ele>
        <time>2023-08-20T09:00:21Z</time>
      </trkpt>
      <trkpt lat="44.66334" lon="2.15083">
        <ele>234.8</ele>
        <time>2023-08-20T09:00:24Z</time>
      </trkpt>
      <trkpt lat="44.66379" lon="2.15158">
        <ele>235.2</ele>
        <time>2023-08-20T09:00:28Z</time>
      </trkpt>
      <trkpt lat="44.6639" lon="2.15176">
        <ele>235.2</ele>
        <time>2023-08-20T09:00:29Z</time>
      </trkpt>
      <trkpt lat="44.664" lon="2.15195">
        <ele>235.2</ele>
        <time>2023-08-20T09:00:30Z</time>
      </trkpt>
      <trkpt lat="44.66407" lon="2.15215">
        <ele>235.2</ele>
        <time>2023-08-20T09:00:31Z</time>
      </trkpt>
      <trkpt lat="44.66414" lon="2.15236">
        <ele>235.2</ele>
        <time>2023-08-20T09:00:32Z</time>
      </trkpt>
      <trkpt lat="44.66434" lon="2.15298">
        <ele>234.6</ele>
        <time>2023-08-20T09:00:35Z</time>
      </trkpt>
      <trkpt lat="44.6644" lon="2.15317">
        <ele>234.6</ele>
        <time>2023-08-20T09:00:36Z</time>
      </trkpt>
      <trkpt lat="44.66446" lon="2.15335">
        <ele>234.6</ele>
        <time>2023-08-20T09:00:37Z</time>
      </trkpt>
      <trkpt lat="44.66451" lon="2.15354">
        <ele>234.4</ele>
        <time>2023-08-20T09:00:38Z</time>
      </trkpt>
      <trkpt lat="44.66457" lon="2.15372">
        <ele>234.4</ele>
        <time>2023-08-20T09:00:39Z</time>
      </trkpt>
      <trkpt lat="44.66463" lon="2.15389">
        <ele>234.4</ele>
        <time>2023-08-20T09:00:40Z</time>
      </trkpt>
      <trkpt lat="44.66469" lon="2.15407">
        <ele>234.2</ele>
        <time>2023-08-20T09:00:41Z</time>
      </trkpt>
      <trkpt lat="44.66474" lon="2.15424">
        <ele>233.8</ele>
        <time>2023-08-20T09:00:42Z</time>
      </trkpt>
      <trkpt lat="44.66479" lon="2.15441">
        <ele>233.8</ele>
        <time>2023-08-20T09:00:43Z</time>
      </trkpt>
      <trkpt lat="44.66484" lon="2.15457">
        <ele>233.6</ele>
        <time>2023-08-20T09:00:44Z</time>
      </trkpt>
      <trkpt lat="44.66488" lon="2.15472">
        <ele>233.4</ele>
        <time>2023-08-20T09:00:45Z</time>
      </trkpt>
      <trkpt lat="44.66492" lon="2.15488">
        <ele>233.2</ele>
        <time>2023-08-20T09:00:46Z</time>
      </trkpt>
      <trkpt lat="44.66495" lon="2.15503">
        <ele>233.2</ele>
        <time>2023-08-20T09:00:47Z</time>
      </trkpt>
      <trkpt lat="44.66497" lon="2.15518">
        <ele>233.2</ele>
        <time>2023-08-20T09:00:48Z</time>
      </trkpt>
      <trkpt lat="44.66499" lon="2.15533">
        <ele>233</ele>
        <time>2023-08-20T09:00:49Z</time>
      </trkpt>
      <trkpt lat="44.66501" lon="2.15547">
        <ele>232.8</ele>
        <time>2023-08-20T09:00:50Z</time>
      </trkpt>
      <trkpt lat="44.66503" lon="2.1556">
        <ele>232.6</ele>
        <time>2023-08-20T09:00:51Z</time>
      </trkpt>
      <trkpt lat="44.66505" lon="2.15574">
        <ele>232.4</ele>
        <time>2023-08-20T09:00:52Z</time>
      </trkpt>
      <trkpt lat="44.66506" lon="2.15587">
        <ele>232.2</ele>
        <time>2023-08-20T09:00:53Z</time>
      </trkpt>
      <trkpt lat="44.66508" lon="2.156">
        <ele>232</ele>
        <time>2023-08-20T09:00:54Z</time>
      </trkpt>
      <trkpt lat="44.6651" lon="2.15613">
        <ele>232</ele>
        <time>2023-08-20T09:00:55Z</time>
      </trkpt>
      <trkpt lat="44.66511" lon="2.15627">
        <ele>231.6</ele>
        <time>2023-08-20T09:00:56Z</time>
      </trkpt>
      <trkpt lat="44.66515" lon="2.15655">
        <ele>231.6</ele>
        <time>2023-08-20T09:00:58Z</time>
      </trkpt>
      <trkpt lat="44.6652" lon="2.15708">
        <ele>231.4</ele>
        <time>2023-08-20T09:01:02Z</time>
      </trkpt>
      <trkpt lat="44.66521" lon="2.1572">
        <ele>231.4</ele>
        <time>2023-08-20T09:01:03Z</time>
      </trkpt>
      <trkpt lat="44.66522" lon="2.15731">
        <ele>231.2</ele>
        <time>2023-08-20T09:01:04Z</time>
      </trkpt>
      <trkpt lat="44.66524" lon="2.15741">
        <ele>231.2</ele>
        <time>2023-08-20T09:01:05Z</time>
      </trkpt>
      <trkpt lat="44.66525" lon="2.15751">
        <ele>231</ele>
        <time>2023-08-20T09:01:06Z</time>
      </trkpt>
      <trkpt lat="44.66526" lon="2.15761">
        <ele>231</ele>
        <time>2023-08-20T09:01:07Z</time>
      </trkpt>
      <trkpt lat="44.66527" lon="2.1577">
        <ele>231</ele>
        <time>2023-08-20T09:01:08Z</time>
      </trkpt>
      <trkpt lat="44.66529" lon="2.1578">
        <ele>231</ele>
        <time>2023-08-20T09:01:09Z</time>
      </trkpt>
      <trkpt lat="44.66529" lon="2.15789">
        <ele>231</ele>
        <time>2023-08-20T09:01:10Z</time>
      </trkpt>
      <trkpt lat="44.6653" lon="2.15799">
        <ele>230.8</ele>
        <time>2023-08-20T09:01:11Z</time>
      </trkpt>
      <trkpt lat="44.66532" lon="2.15808">
        <ele>230.8</ele>
        <time>2023-08-20T09:01:12Z</time>
      </trkpt>
      <trkpt lat="44.6654" lon="2.15821">
        <ele>230.8</ele>
        <time>2023-08-20T09:01:14Z</time>
      </trkpt>
      <trkpt lat="44.66546" lon="2.15826">
        <ele>230.6</ele>
        <time>2023-08-20T09:01:15Z</time>
      </trkpt>
      <trkpt lat="44.66554" lon="2.15828">
        <ele>230.6</ele>
        <time>2023-08-20T09:01:16Z</time>
      </trkpt>
      <trkpt lat="44.66562" lon="2.1583">
        <ele>230.4</ele>
        <time>2023-08-20T09:01:17Z</time>
      </trkpt>
      <trkpt lat="44.6657" lon="2.15832">
        <ele>230.4</ele>
        <time>2023-08-20T09:01:18Z</time>
      </trkpt>
      <trkpt lat="44.66578" lon="2.15833">
        <ele>230.4</ele>
        <time>2023-08-20T09:01:19Z</time>
      </trkpt>
      <trkpt lat="44.66602" lon="2.15837">
        <ele>230.4</ele>
        <time>2023-08-20T09:01:22Z</time>
      </trkpt>
      <trkpt lat="44.66609" lon="2.15838">
        <ele>230.4</ele>
        <time>2023-08-20T09:01:23Z</time>
      </trkpt>
      <trkpt lat="44.66617" lon="2.15839">
        <ele>230.2</ele>
        <time>2023-08-20T09:01:24Z</time>
      </trkpt>
      <trkpt lat="44.66653" lon="2.15846">
        <ele>230.4</ele>
        <time>2023-08-20T09:01:28Z</time>
      </trkpt>
      <trkpt lat="44.66699" lon="2.15849">
        <ele>231</ele>
        <time>2023-08-20T09:01:32Z</time>
      </trkpt>
      <trkpt lat="44.66738" lon="2.15853">
        <ele>232</ele>
        <time>2023-08-20T09:01:35Z</time>
      </trkpt>
      <trkpt lat="44.66751" lon="2.15856">
        <ele>232.2</ele>
        <time>2023-08-20T09:01:36Z</time>
      </trkpt>
      <trkpt lat="44.66764" lon="2.1586">
        <ele>233.4</ele>
        <time>2023-08-20T09:01:37Z</time>
      </trkpt>
      <trkpt lat="44.66776" lon="2.15867">
        <ele>233.6</ele>
        <time>2023-08-20T09:01:38Z</time>
      </trkpt>
      <trkpt lat="44.66787" lon="2.15876">
        <ele>233.8</ele>
        <time>2023-08-20T09:01:39Z</time>
      </trkpt>
      <trkpt lat="44.66796" lon="2.15886">
        <ele>234</ele>
        <time>2023-08-20T09:01:40Z</time>
      </trkpt>
      <trkpt lat="44.66803" lon="2.15899">
        <ele>234</ele>
        <time>2023-08-20T09:01:41Z</time>
      </trkpt>
      <trkpt lat="44.6681" lon="2.15912">
        <ele>234</ele>
        <time>2023-08-20T09:01:42Z</time>
      </trkpt>
      <trkpt lat="44.66815" lon="2.15923">
        <ele>234</ele>
        <time>2023-08-20T09:01:43Z</time>
      </trkpt>
      <trkpt lat="44.66823" lon="2.1594">
        <ele>234.2</ele>
        <time>2023-08-20T09:01:44Z</time>
      </trkpt>
      <trkpt lat="44.6683" lon="2.15955">
        <ele>234.2</ele>
        <time>2023-08-20T09:01:45Z</time>
      </trkpt>
      <trkpt lat="44.66837" lon="2.1597">
        <ele>234.2</ele>
        <time>2023-08-20T09:01:46Z</time>
      </trkpt>
      <trkpt lat="44.66844" lon="2.15985">
        <ele>234.2</ele>
        <time>2023-08-20T09:01:47Z</time>
      </trkpt>
      <trkpt lat="44.66851" lon="2.16001">
        <ele>234.2</ele>
        <time>2023-08-20T09:01:48Z</time>
      </trkpt>
      <trkpt lat="44.66859" lon="2.16018">
        <ele>234.2</ele>
        <time>2023-08-20T09:01:49Z</time>
      </trkpt>
      <trkpt lat="44.66866" lon="2.16035">
        <ele>234.4</ele>
        <time>2023-08-20T09:01:50Z</time>
      </trkpt>
      <trkpt lat="44.66874" lon="2.16052">
        <ele>234.6</ele>
        <time>2023-08-20T09:01:51Z</time>
      </trkpt>
      <trkpt lat="44.66882" lon="2.16069">
        <ele>234.8</ele>
        <time>2023-08-20T09:01:52Z</time>
      </trkpt>
      <trkpt lat="44.66889" lon="2.16087">
        <ele>235</ele>
        <time>2023-08-20T09:01:53Z</time>
      </trkpt>
      <trkpt lat="44.66897" lon="2.16105">
        <ele>235.2</ele>
        <time>2023-08-20T09:01:54Z</time>
      </trkpt>
      <trkpt lat="44.66906" lon="2.16123">
        <ele>235.6</ele>
        <time>2023-08-20T09:01:55Z</time>
      </trkpt>
      <trkpt lat="44.66914" lon="2.16142">
        <ele>235.6</ele>
        <time>2023-08-20T09:01:56Z</time>
      </trkpt>
      <trkpt lat="44.66922" lon="2.16161">
        <ele>235.8</ele>
        <time>2023-08-20T09:01:57Z</time>
      </trkpt>
      <trkpt lat="44.6693" lon="2.1618">
        <ele>235.8</ele>
        <time>2023-08-20T09:01:58Z</time>
      </trkpt>
      <trkpt lat="44.66938" lon="2.16199">
        <ele>235.8</ele>
        <time>2023-08-20T09:01:59Z</time>
      </trkpt>
      <trkpt lat="44.66947" lon="2.16217">
        <ele>236</ele>
        <time>2023-08-20T09:02:00Z</time>
      </trkpt>
      <trkpt lat="44.66955" lon="2.16235">
        <ele>236</ele>
        <time>2023-08-20T09:02:01Z</time>
      </trkpt>
      <trkpt lat="44.66962" lon="2.1625">
        <ele>236.4</ele>
        <time>2023-08-20T09:02:02Z</time>
      </trkpt>
      <trkpt lat="44.66972" lon="2.16272">
        <ele>236.4</ele>
        <time>2023-08-20T09:02:03Z</time>
      </trkpt>
      <trkpt lat="44.66979" lon="2.16287">
        <ele>236.4</ele>
        <time>2023-08-20T09:02:04Z</time>
      </trkpt>
      <trkpt lat="44.66989" lon="2.1631">
        <ele>236.6</ele>
        <time>2023-08-20T09:02:05Z</time>
      </trkpt>
      <trkpt lat="44.66998" lon="2.16329">
        <ele>236.8</ele>
        <time>2023-08-20T09:02:06Z</time>
      </trkpt>
      <trkpt lat="44.67006" lon="2.16348">
        <ele>236.8</ele>
        <time>2023-08-20T09:02:07Z</time>
      </trkpt>
      <trkpt lat="44.67013" lon="2.16363">
        <ele>236.8</ele>
        <time>2023-08-20T09:02:08Z</time>
      </trkpt>
      <trkpt lat="44.67022" lon="2.16382">
        <ele>237</ele>
        <time>2023-08-20T09:02:09Z</time>
      </trkpt>
      <trkpt lat="44.67032" lon="2.16404">
        <ele>237</ele>
        <time>2023-08-20T09:02:10Z</time>
      </trkpt>
      <trkpt lat="44.6704" lon="2.16422">
        <ele>237</ele>
        <time>2023-08-20T09:02:11Z</time>
      </trkpt>
      <trkpt lat="44.67047" lon="2.16442">
        <ele>237.2</ele>
        <time>2023-08-20T09:02:12Z</time>
      </trkpt>
      <trkpt lat="44.67052" lon="2.16462">
        <ele>237.2</ele>
        <time>2023-08-20T09:02:13Z</time>
      </trkpt>
      <trkpt lat="44.67056" lon="2.16483">
        <ele>237.2</ele>
        <time>2023-08-20T09:02:14Z</time>
      </trkpt>
      <trkpt lat="44.67055" lon="2.16505">
        <ele>237.2</ele>
        <time>2023-08-20T09:02:15Z</time>
      </trkpt>
      <trkpt lat="44.67054" lon="2.16527">
        <ele>237.4</ele>
        <time>2023-08-20T09:02:16Z</time>
      </trkpt>
      <trkpt lat="44.67052" lon="2.16548">
        <ele>237.4</ele>
        <time>2023-08-20T09:02:17Z</time>
      </trkpt>
      <trkpt lat="44.6705" lon="2.16569">
        <ele>237.4</ele>
        <time>2023-08-20T09:02:18Z</time>
      </trkpt>
      <trkpt lat="44.67048" lon="2.16589">
        <ele>237.4</ele>
        <time>2023-08-20T09:02:19Z</time>
      </trkpt>
      <trkpt lat="44.67046" lon="2.16608">
        <ele>237.4</ele>
        <time>2023-08-20T09:02:20Z</time>
      </trkpt>
      <trkpt lat="44.67044" lon="2.16628">
        <ele>237.4</ele>
        <time>2023-08-20T09:02:21Z</time>
      </trkpt>
      <trkpt lat="44.67042" lon="2.16648">
        <ele>237.4</ele>
        <time>2023-08-20T09:02:22Z</time>
      </trkpt>
      <trkpt lat="44.6704" lon="2.16668">
        <ele>237.6</ele>
        <time>2023-08-20T09:02:23Z</time>
      </trkpt>
      <trkpt lat="44.67032" lon="2.16751">
        <ele>237.6</ele>
        <time>2023-08-20T09:02:27Z</time>
      </trkpt>
      <trkpt lat="44.6703" lon="2.16772">
        <ele>237.6</ele>
        <time>2023-08-20T09:02:28Z</time>
      </trkpt>
      <trkpt lat="44.67022" lon="2.1686">
        <ele>237.6</ele>
        <time>2023-08-20T09:02:32Z</time>
      </trkpt>
      <trkpt lat="44.67016" lon="2.16927">
        <ele>237.8</ele>
        <time>2023-08-20T09:02:35Z</time>
      </trkpt>
      <trkpt lat="44.67014" lon="2.16949">
        <ele>238</ele>
        <time>2023-08-20T09:02:36Z</time>
      </trkpt>
      <trkpt lat="44.67012" lon="2.16971">
        <ele>238</ele>
        <time>2023-08-20T09:02:37Z</time>
      </trkpt>
      <trkpt lat="44.6701" lon="2.16992">
        <ele>238</ele>
        <time>2023-08-20T09:02:38Z</time>
      </trkpt>
      <trkpt lat="44.67003" lon="2.17076">
        <ele>238</ele>
        <time>2023-08-20T09:02:42Z</time>
      </trkpt>
      <trkpt lat="44.67002" lon="2.17097">
        <ele>238</ele>
        <time>2023-08-20T09:02:43Z</time>
      </trkpt>
      <trkpt lat="44.67001" lon="2.17117">
        <ele>238</ele>
        <time>2023-08-20T09:02:44Z</time>
      </trkpt>
      <trkpt lat="44.67001" lon="2.17137">
        <ele>237.8</ele>
        <time>2023-08-20T09:02:45Z</time>
      </trkpt>
      <trkpt lat="44.67001" lon="2.17157">
        <ele>237.8</ele>
        <time>2023-08-20T09:02:46Z</time>
      </trkpt>
      <trkpt lat="44.67002" lon="2.17178">
        <ele>237.8</ele>
        <time>2023-08-20T09:02:47Z</time>
      </trkpt>
      <trkpt lat="44.67005" lon="2.1724">
        <ele>237.6</ele>
        <time>2023-08-20T09:02:50Z</time>
      </trkpt>
      <trkpt lat="44.67003" lon="2.1726">
        <ele>237.6</ele>
        <time>2023-08-20T09:02:51Z</time>
      </trkpt>
      <trkpt lat="44.67001" lon="2.17279">
        <ele>237.6</ele>
        <time>2023-08-20T09:02:52Z</time>
      </trkpt>
      <trkpt lat="44.67001" lon="2.17298">
        <ele>237.6</ele>
        <time>2023-08-20T09:02:53Z</time>
      </trkpt>
      <trkpt lat="44.67004" lon="2.17318">
        <ele>237.8</ele>
        <time>2023-08-20T09:02:54Z</time>
      </trkpt>
      <trkpt lat="44.6701" lon="2.17337">
        <ele>237.8</ele>
        <time>2023-08-20T09:02:55Z</time>
      </trkpt>
      <trkpt lat="44.67016" lon="2.17356">
        <ele>238</ele>
        <time>2023-08-20T09:02:56Z</time>
      </trkpt>
      <trkpt lat="44.67023" lon="2.17373">
        <ele>238</ele>
        <time>2023-08-20T09:02:57Z</time>
      </trkpt>
      <trkpt lat="44.6703" lon="2.17391">
        <ele>238.2</ele>
        <time>2023-08-20T09:02:58Z</time>
      </trkpt>
      <trkpt lat="44.67036" lon="2.17408">
        <ele>238.2</ele>
        <time>2023-08-20T09:02:59Z</time>
      </trkpt>
      <trkpt lat="44.67043" lon="2.17425">
        <ele>238.4</ele>
        <time>2023-08-20T09:03:00Z</time>
      </trkpt>
      <trkpt lat="44.67049" lon="2.17442">
        <ele>238.4</ele>
        <time>2023-08-20T09:03:01Z</time>
      </trkpt>
      <trkpt lat="44.67056" lon="2.17458">
        <ele>238.6</ele>
        <time>2023-08-20T09:03:02Z</time>
      </trkpt>
      <trkpt lat="44.67064" lon="2.17473">
        <ele>238.8</ele>
        <time>2023-08-20T09:03:03Z</time>
      </trkpt>
      <trkpt lat="44.67073" lon="2.17487">
        <ele>238.8</ele>
        <time>2023-08-20T09:03:04Z</time>
      </trkpt>
      <trkpt lat="44.67084" lon="2.17498">
        <ele>238.8</ele>
        <time>2023-08-20T09:03:05Z</time>
      </trkpt>
      <trkpt lat="44.67096" lon="2.17509">
        <ele>239</ele>
        <time>2023-08-20T09:03:06Z</time>
      </trkpt>
      <trkpt lat="44.67108" lon="2.17518">
        <ele>239</ele>
        <time>2023-08-20T09:03:07Z</time>
      </trkpt>
      <trkpt lat="44.67162" lon="2.17551">
        <ele>239.4</ele>
        <time>2023-08-20T09:03:11Z</time>
      </trkpt>
      <trkpt lat="44.67229" lon="2.17589">
        <ele>239.8</ele>
        <time>2023-08-20T09:03:15Z</time>
      </trkpt>
      <trkpt lat="44.6725" lon="2.176">
        <ele>239.8</ele>
        <time>2023-08-20T09:03:16Z</time>
      </trkpt>
      <trkpt lat="44.67291" lon="2.17624">
        <ele>241</ele>
        <time>2023-08-20T09:03:18Z</time>
      </trkpt>
      <trkpt lat="44.67329" lon="2.17648">
        <ele>242.4</ele>
        <time>2023-08-20T09:03:20Z</time>
      </trkpt>
      <trkpt lat="44.67347" lon="2.17659">
        <ele>243.2</ele>
        <time>2023-08-20T09:03:21Z</time>
      </trkpt>
      <trkpt lat="44.67365" lon="2.17676">
        <ele>243.4</ele>
        <time>2023-08-20T09:03:22Z</time>
      </trkpt>
      <trkpt lat="44.67378" lon="2.17693">
        <ele>243.4</ele>
        <time>2023-08-20T09:03:23Z</time>
      </trkpt>
      <trkpt lat="44.67388" lon="2.17709">
        <ele>243.4</ele>
        <time>2023-08-20T09:03:24Z</time>
      </trkpt>
      <trkpt lat="44.67401" lon="2.17733">
        <ele>243.6</ele>
        <time>2023-08-20T09:03:25Z</time>
      </trkpt>
      <trkpt lat="44.6741" lon="2.17755">
        <ele>243.4</ele>
        <time>2023-08-20T09:03:26Z</time>
      </trkpt>
      <trkpt lat="44.67419" lon="2.17777">
        <ele>243.4</ele>
        <time>2023-08-20T09:03:27Z</time>
      </trkpt>
      <trkpt lat="44.67429" lon="2.17799">
        <ele>243.2</ele>
        <time>2023-08-20T09:03:28Z</time>
      </trkpt>
      <trkpt lat="44.67437" lon="2.17816">
        <ele>243.2</ele>
        <time>2023-08-20T09:03:29Z</time>
      </trkpt>
      <trkpt lat="44.67447" lon="2.17837">
        <ele>243</ele>
        <time>2023-08-20T09:03:30Z</time>
      </trkpt>
      <trkpt lat="44.67459" lon="2.17861">
        <ele>243</ele>
        <time>2023-08-20T09:03:31Z</time>
      </trkpt>
      <trkpt lat="44.67468" lon="2.17876">
        <ele>243</ele>
        <time>2023-08-20T09:03:32Z</time>
      </trkpt>
      <trkpt lat="44.6748" lon="2.17893">
        <ele>243</ele>
        <time>2023-08-20T09:03:33Z</time>
      </trkpt>
      <trkpt lat="44.67493" lon="2.1791">
        <ele>243</ele>
        <time>2023-08-20T09:03:34Z</time>
      </trkpt>
      <trkpt lat="44.67506" lon="2.17926">
        <ele>243</ele>
        <time>2023-08-20T09:03:35Z</time>
      </trkpt>
      <trkpt lat="44.67519" lon="2.17941">
        <ele>243</ele>
        <time>2023-08-20T09:03:36Z</time>
      </trkpt>
      <trkpt lat="44.67532" lon="2.17958">
        <ele>243</ele>
        <time>2023-08-20T09:03:37Z</time>
      </trkpt>
      <trkpt lat="44.67545" lon="2.17976">
        <ele>243</ele>
        <time>2023-08-20T09:03:38Z</time>
      </trkpt>
      <trkpt lat="44.67558" lon="2.17994">
        <ele>243</ele>
        <time>2023-08-20T09:03:39Z</time>
      </trkpt>
      <trkpt lat="44.67571" lon="2.18012">
        <ele>243</ele>
        <time>2023-08-20T09:03:40Z</time>
      </trkpt>
      <trkpt lat="44.67587" lon="2.18034">
        <ele>243</ele>
        <time>2023-08-20T09:03:41Z</time>
      </trkpt>
      <trkpt lat="44.67598" lon="2.18048">
        <ele>243</ele>
        <time>2023-08-20T09:03:42Z</time>
      </trkpt>
      <trkpt lat="44.67628" lon="2.18083">
        <ele>243.4</ele>
        <time>2023-08-20T09:03:44Z</time>
      </trkpt>
      <trkpt lat="44.67676" lon="2.1813">
        <ele>244</ele>
        <time>2023-08-20T09:03:47Z</time>
      </trkpt>
      <trkpt lat="44.67707" lon="2.18162">
        <ele>244.2</ele>
        <time>2023-08-20T09:03:49Z</time>
      </trkpt>
      <trkpt lat="44.67721" lon="2.18177">
        <ele>244.2</ele>
        <time>2023-08-20T09:03:50Z</time>
      </trkpt>
      <trkpt lat="44.67735" lon="2.18192">
        <ele>244.4</ele>
        <time>2023-08-20T09:03:51Z</time>
      </trkpt>
      <trkpt lat="44.67748" lon="2.18207">
        <ele>244.4</ele>
        <time>2023-08-20T09:03:52Z</time>
      </trkpt>
      <trkpt lat="44.67762" lon="2.18222">
        <ele>244.6</ele>
        <time>2023-08-20T09:03:53Z</time>
      </trkpt>
      <trkpt lat="44.67775" lon="2.18236">
        <ele>244.6</ele>
        <time>2023-08-20T09:03:54Z</time>
      </trkpt>
      <trkpt lat="44.67803" lon="2.18264">
        <ele>244.8</ele>
        <time>2023-08-20T09:03:56Z</time>
      </trkpt>
      <trkpt lat="44.6782" lon="2.18275">
        <ele>245</ele>
        <time>2023-08-20T09:03:57Z</time>
      </trkpt>
      <trkpt lat="44.67874" lon="2.18311">
        <ele>244.8</ele>
        <time>2023-08-20T09:04:00Z</time>
      </trkpt>
      <trkpt lat="44.67887" lon="2.18322">
        <ele>244.8</ele>
        <time>2023-08-20T09:04:01Z</time>
      </trkpt>
      <trkpt lat="44.67924" lon="2.1835">
        <ele>244.8</ele>
        <time>2023-08-20T09:04:03Z</time>
      </trkpt>
      <trkpt lat="44.6794" lon="2.18359">
        <ele>244.8</ele>
        <time>2023-08-20T09:04:04Z</time>
      </trkpt>
      <trkpt lat="44.67958" lon="2.18367">
        <ele>244.8</ele>
        <time>2023-08-20T09:04:05Z</time>
      </trkpt>
      <trkpt lat="44.6799" lon="2.18374">
        <ele>244.8</ele>
        <time>2023-08-20T09:04:07Z</time>
      </trkpt>
      <trkpt lat="44.68025" lon="2.18383">
        <ele>244.8</ele>
        <time>2023-08-20T09:04:09Z</time>
      </trkpt>
      <trkpt lat="44.68041" lon="2.18392">
        <ele>244.8</ele>
        <time>2023-08-20T09:04:10Z</time>
      </trkpt>
      <trkpt lat="44.68056" lon="2.18404">
        <ele>244.6</ele>
        <time>2023-08-20T09:04:11Z</time>
      </trkpt>
      <trkpt lat="44.68073" lon="2.18421">
        <ele>244.6</ele>
        <time>2023-08-20T09:04:12Z</time>
      </trkpt>
      <trkpt lat="44.68083" lon="2.18435">
        <ele>244.6</ele>
        <time>2023-08-20T09:04:13Z</time>
      </trkpt>
      <trkpt lat="44.68094" lon="2.18454">
        <ele>244.4</ele>
        <time>2023-08-20T09:04:14Z</time>
      </trkpt>
      <trkpt lat="44.68103" lon="2.18476">
        <ele>244.4</ele>
        <time>2023-08-20T09:04:15Z</time>
      </trkpt>
      <trkpt lat="44.68109" lon="2.18501">
        <ele>244.4</ele>
        <time>2023-08-20T09:04:16Z</time>
      </trkpt>
      <trkpt lat="44.68112" lon="2.18526">
        <ele>244.2</ele>
        <time>2023-08-20T09:04:17Z</time>
      </trkpt>
      <trkpt lat="44.68113" lon="2.18557">
        <ele>244.2</ele>
        <time>2023-08-20T09:04:18Z</time>
      </trkpt>
      <trkpt lat="44.68106" lon="2.18579">
        <ele>244.2</ele>
        <time>2023-08-20T09:04:19Z</time>
      </trkpt>
      <trkpt lat="44.68097" lon="2.18599">
        <ele>244.2</ele>
        <time>2023-08-20T09:04:20Z</time>
      </trkpt>
      <trkpt lat="44.68087" lon="2.18612">
        <ele>244.2</ele>
        <time>2023-08-20T09:04:21Z</time>
      </trkpt>
      <trkpt lat="44.68073" lon="2.18627">
        <ele>244.2</ele>
        <time>2023-08-20T09:04:22Z</time>
      </trkpt>
      <trkpt lat="44.68055" lon="2.18636">
        <ele>244.2</ele>
        <time>2023-08-20T09:04:23Z</time>
      </trkpt>
      <trkpt lat="44.68037" lon="2.18642">
        <ele>244.2</ele>
        <time>2023-08-20T09:04:24Z</time>
      </trkpt>
      <trkpt lat="44.68018" lon="2.18646">
        <ele>244.2</ele>
        <time>2023-08-20T09:04:25Z</time>
      </trkpt>
      <trkpt lat="44.68001" lon="2.18649">
        <ele>244.2</ele>
        <time>2023-08-20T09:04:26Z</time>
      </trkpt>
      <trkpt lat="44.67985" lon="2.18654">
        <ele>244.4</ele>
        <time>2023-08-20T09:04:27Z</time>
      </trkpt>
      <trkpt lat="44.67972" lon="2.18663">
        <ele>244.2</ele>
        <time>2023-08-20T09:04:28Z</time>
      </trkpt>
      <trkpt lat="44.67962" lon="2.18672">
        <ele>244.2</ele>
        <time>2023-08-20T09:04:29Z</time>
      </trkpt>
      <trkpt lat="44.67955" lon="2.18685">
        <ele>244.2</ele>
        <time>2023-08-20T09:04:30Z</time>
      </trkpt>
      <trkpt lat="44.67954" lon="2.18704">
        <ele>244</ele>
        <time>2023-08-20T09:04:31Z</time>
      </trkpt>
      <trkpt lat="44.67959" lon="2.18723">
        <ele>244</ele>
        <time>2023-08-20T09:04:32Z</time>
      </trkpt>
      <trkpt lat="44.67984" lon="2.18757">
        <ele>243.8</ele>
        <time>2023-08-20T09:04:34Z</time>
      </trkpt>
      <trkpt lat="44.68016" lon="2.18787">
        <ele>243.8</ele>
        <time>2023-08-20T09:04:36Z</time>
      </trkpt>
      <trkpt lat="44.68031" lon="2.18801">
        <ele>243.8</ele>
        <time>2023-08-20T09:04:37Z</time>
      </trkpt>
      <trkpt lat="44.6806" lon="2.1883">
        <ele>244</ele>
        <time>2023-08-20T09:04:39Z</time>
      </trkpt>
      <trkpt lat="44.68071" lon="2.1884">
        <ele>244</ele>
        <time>2023-08-20T09:04:40Z</time>
      </trkpt>
      <trkpt lat="44.68083" lon="2.18851">
        <ele>244</ele>
        <time>2023-08-20T09:04:41Z</time>
      </trkpt>
      <trkpt lat="44.68095" lon="2.18861">
        <ele>244</ele>
        <time>2023-08-20T09:04:42Z</time>
      </trkpt>
      <trkpt lat="44.68108" lon="2.18869">
        <ele>244.2</ele>
        <time>2023-08-20T09:04:43Z</time>
      </trkpt>
      <trkpt lat="44.68121" lon="2.18874">
        <ele>244</ele>
        <time>2023-08-20T09:04:44Z</time>
      </trkpt>
      <trkpt lat="44.68137" lon="2.18876">
        <ele>244</ele>
        <time>2023-08-20T09:04:45Z</time>
      </trkpt>
      <trkpt lat="44.68152" lon="2.18875">
        <ele>244</ele>
        <time>2023-08-20T09:04:46Z</time>
      </trkpt>
      <trkpt lat="44.68168" lon="2.1887">
        <ele>244</ele>
        <time>2023-08-20T09:04:47Z</time>
      </trkpt>
      <trkpt lat="44.68183" lon="2.18862">
        <ele>244</ele>
        <time>2023-08-20T09:04:48Z</time>
      </trkpt>
      <trkpt lat="44.68197" lon="2.18851">
        <ele>244</ele>
        <time>2023-08-20T09:04:49Z</time>
      </trkpt>
      <trkpt lat="44.68211" lon="2.18837">
        <ele>244</ele>
        <time>2023-08-20T09:04:50Z</time>
      </trkpt>
      <trkpt lat="44.68223" lon="2.1882">
        <ele>244</ele>
        <time>2023-08-20T09:04:51Z</time>
      </trkpt>
      <trkpt lat="44.68234" lon="2.18801">
        <ele>244</ele>
        <time>2023-08-20T09:04:52Z</time>
      </trkpt>
      <trkpt lat="44.68244" lon="2.18784">
        <ele>244.4</ele>
        <time>2023-08-20T09:04:53Z</time>
      </trkpt>
      <trkpt lat="44.68252" lon="2.18768">
        <ele>244.4</ele>
        <time>2023-08-20T09:04:54Z</time>
      </trkpt>
      <trkpt lat="44.68258" lon="2.18751">
        <ele>244.6</ele>
        <time>2023-08-20T09:04:55Z</time>
      </trkpt>
      <trkpt lat="44.6826" lon="2.18733">
        <ele>244.6</ele>
        <time>2023-08-20T09:04:56Z</time>
      </trkpt>
      <trkpt lat="44.68261" lon="2.18712">
        <ele>244.6</ele>
        <time>2023-08-20T09:04:57Z</time>
      </trkpt>
      <trkpt lat="44.68261" lon="2.18691">
        <ele>244.6</ele>
        <time>2023-08-20T09:04:58Z</time>
      </trkpt>
      <trkpt lat="44.68261" lon="2.18671">
        <ele>244.6</ele>
        <time>2023-08-20T09:04:59Z</time>
      </trkpt>
      <trkpt lat="44.68262" lon="2.18651">
        <ele>244.6</ele>
        <time>2023-08-20T09:05:00Z</time>
      </trkpt>
      <trkpt lat="44.68266" lon="2.1863">
        <ele>244.6</ele>
        <time>2023-08-20T09:05:01Z</time>
      </trkpt>
      <trkpt lat="44.68279" lon="2.18594">
        <ele>244.6</ele>
        <time>2023-08-20T09:05:03Z</time>
      </trkpt>
      <trkpt lat="44.68288" lon="2.18578">
        <ele>244.4</ele>
        <time>2023-08-20T09:05:04Z</time>
      </trkpt>
      <trkpt lat="44.68302" lon="2.18566">
        <ele>244.4</ele>
        <time>2023-08-20T09:05:05Z</time>
      </trkpt>
      <trkpt lat="44.68316" lon="2.18556">
        <ele>244.4</ele>
        <time>2023-08-20T09:05:06Z</time>
      </trkpt>
      <trkpt lat="44.68332" lon="2.18549">
        <ele>244.4</ele>
        <time>2023-08-20T09:05:07Z</time>
      </trkpt>
      <trkpt lat="44.68349" lon="2.18544">
        <ele>244.4</ele>
        <time>2023-08-20T09:05:08Z</time>
      </trkpt>
      <trkpt lat="44.68366" lon="2.18543">
        <ele>244.8</ele>
        <time>2023-08-20T09:05:09Z</time>
      </trkpt>
      <trkpt lat="44.68384" lon="2.18549">
        <ele>244.8</ele>
        <time>2023-08-20T09:05:10Z</time>
      </trkpt>
      <trkpt lat="44.68401" lon="2.1856">
        <ele>245.4</ele>
        <time>2023-08-20T09:05:11Z</time>
      </trkpt>
      <trkpt lat="44.68416" lon="2.18576">
        <ele>245.6</ele>
        <time>2023-08-20T09:05:12Z</time>
      </trkpt>
      <trkpt lat="44.68427" lon="2.18595">
        <ele>246</ele>
        <time>2023-08-20T09:05:13Z</time>
      </trkpt>
      <trkpt lat="44.68437" lon="2.18616">
        <ele>246</ele>
        <time>2023-08-20T09:05:14Z</time>
      </trkpt>
      <trkpt lat="44.68443" lon="2.18637">
        <ele>246.2</ele>
        <time>2023-08-20T09:05:15Z</time>
      </trkpt>
      <trkpt lat="44.68446" lon="2.18657">
        <ele>246.4</ele>
        <time>2023-08-20T09:05:16Z</time>
      </trkpt>
      <trkpt lat="44.6845" lon="2.18675">
        <ele>246.6</ele>
        <time>2023-08-20T09:05:17Z</time>
      </trkpt>
      <trkpt lat="44.68455" lon="2.18693">
        <ele>247</ele>
        <time>2023-08-20T09:05:18Z</time>
      </trkpt>
      <trkpt lat="44.68462" lon="2.1871">
        <ele>247.2</ele>
        <time>2023-08-20T09:05:19Z</time>
      </trkpt>
      <trkpt lat="44.68471" lon="2.18727">
        <ele>247.4</ele>
        <time>2023-08-20T09:05:20Z</time>
      </trkpt>
      <trkpt lat="44.68483" lon="2.18739">
        <ele>247.6</ele>
        <time>2023-08-20T09:05:21Z</time>
      </trkpt>
      <trkpt lat="44.68497" lon="2.18751">
        <ele>247.8</ele>
        <time>2023-08-20T09:05:22Z</time>
      </trkpt>
      <trkpt lat="44.68511" lon="2.18762">
        <ele>248</ele>
        <time>2023-08-20T09:05:23Z</time>
      </trkpt>
      <trkpt lat="44.68525" lon="2.18771">
        <ele>248.2</ele>
        <time>2023-08-20T09:05:24Z</time>
      </trkpt>
      <trkpt lat="44.68541" lon="2.18776">
        <ele>248.4</ele>
        <time>2023-08-20T09:05:25Z</time>
      </trkpt>
      <trkpt lat="44.68557" lon="2.18777">
        <ele>248.6</ele>
        <time>2023-08-20T09:05:26Z</time>
      </trkpt>
      <trkpt lat="44.68575" lon="2.18775">
        <ele>248.6</ele>
        <time>2023-08-20T09:05:27Z</time>
      </trkpt>
      <trkpt lat="44.68593" lon="2.18772">
        <ele>248.8</ele>
        <time>2023-08-20T09:05:28Z</time>
      </trkpt>
      <trkpt lat="44.68611" lon="2.18768">
        <ele>248.8</ele>
        <time>2023-08-20T09:05:29Z</time>
      </trkpt>
      <trkpt lat="44.68629" lon="2.18764">
        <ele>248.8</ele>
        <time>2023-08-20T09:05:30Z</time>
      </trkpt>
      <trkpt lat="44.68647" lon="2.18759">
        <ele>248.8</ele>
        <time>2023-08-20T09:05:31Z</time>
      </trkpt>
      <trkpt lat="44.68665" lon="2.18753">
        <ele>248.8</ele>
        <time>2023-08-20T09:05:32Z</time>
      </trkpt>
      <trkpt lat="44.68683" lon="2.18746">
        <ele>249</ele>
        <time>2023-08-20T09:05:33Z</time>
      </trkpt>
      <trkpt lat="44.68705" lon="2.18741">
        <ele>249</ele>
        <time>2023-08-20T09:05:34Z</time>
      </trkpt>
      <trkpt lat="44.68719" lon="2.1874">
        <ele>249.2</ele>
        <time>2023-08-20T09:05:35Z</time>
      </trkpt>
      <trkpt lat="44.68735" lon="2.1874">
        <ele>249.4</ele>
        <time>2023-08-20T09:05:36Z</time>
      </trkpt>
      <trkpt lat="44.68755" lon="2.18742">
        <ele>249.4</ele>
        <time>2023-08-20T09:05:37Z</time>
      </trkpt>
      <trkpt lat="44.68767" lon="2.18744">
        <ele>249.4</ele>
        <time>2023-08-20T09:05:38Z</time>
      </trkpt>
      <trkpt lat="44.68787" lon="2.18749">
        <ele>249.4</ele>
        <time>2023-08-20T09:05:39Z</time>
      </trkpt>
      <trkpt lat="44.688" lon="2.18754">
        <ele>249.4</ele>
        <time>2023-08-20T09:05:40Z</time>
      </trkpt>
      <trkpt lat="44.68817" lon="2.18759">
        <ele>249.4</ele>
        <time>2023-08-20T09:05:41Z</time>
      </trkpt>
      <trkpt lat="44.68834" lon="2.18765">
        <ele>249.6</ele>
        <time>2023-08-20T09:05:42Z</time>
      </trkpt>
      <trkpt lat="44.6885" lon="2.18771">
        <ele>249.2</ele>
        <time>2023-08-20T09:05:43Z</time>
      </trkpt>
      <trkpt lat="44.68866" lon="2.18777">
        <ele>249.2</ele>
        <time>2023-08-20T09:05:44Z</time>
      </trkpt>
      <trkpt lat="44.68883" lon="2.18782">
        <ele>249.2</ele>
        <time>2023-08-20T09:05:45Z</time>
      </trkpt>
      <trkpt lat="44.68899" lon="2.18787">
        <ele>249</ele>
        <time>2023-08-20T09:05:46Z</time>
      </trkpt>
      <trkpt lat="44.6892" lon="2.18794">
        <ele>249</ele>
        <time>2023-08-20T09:05:47Z</time>
      </trkpt>
      <trkpt lat="44.68973" lon="2.1881">
        <ele>249.4</ele>
        <time>2023-08-20T09:05:50Z</time>
      </trkpt>
      <trkpt lat="44.68992" lon="2.18814">
        <ele>249.4</ele>
        <time>2023-08-20T09:05:51Z</time>
      </trkpt>
      <trkpt lat="44.69048" lon="2.18825">
        <ele>250.6</ele>
        <time>2023-08-20T09:05:54Z</time>
      </trkpt>
      <trkpt lat="44.69067" lon="2.18829">
        <ele>250.8</ele>
        <time>2023-08-20T09:05:55Z</time>
      </trkpt>
      <trkpt lat="44.69085" lon="2.18833">
        <ele>251.2</ele>
        <time>2023-08-20T09:05:56Z</time>
      </trkpt>
      <trkpt lat="44.69121" lon="2.18843">
        <ele>251.6</ele>
        <time>2023-08-20T09:05:58Z</time>
      </trkpt>
      <trkpt lat="44.69139" lon="2.18849">
        <ele>251.8</ele>
        <time>2023-08-20T09:05:59Z</time>
      </trkpt>
      <trkpt lat="44.69173" lon="2.18862">
        <ele>252</ele>
        <time>2023-08-20T09:06:01Z</time>
      </trkpt>
      <trkpt lat="44.6919" lon="2.18869">
        <ele>252</ele>
        <time>2023-08-20T09:06:02Z</time>
      </trkpt>
      <trkpt lat="44.69203" lon="2.18875">
        <ele>252</ele>
        <time>2023-08-20T09:06:03Z</time>
      </trkpt>
      <trkpt lat="44.69219" lon="2.18883">
        <ele>252</ele>
        <time>2023-08-20T09:06:04Z</time>
      </trkpt>
      <trkpt lat="44.69235" lon="2.18891">
        <ele>252</ele>
        <time>2023-08-20T09:06:05Z</time>
      </trkpt>
      <trkpt lat="44.6925" lon="2.18898">
        <ele>252.2</ele>
        <time>2023-08-20T09:06:06Z</time>
      </trkpt>
      <trkpt lat="44.69268" lon="2.18907">
        <ele>252.2</ele>
        <time>2023-08-20T09:06:07Z</time>
      </trkpt>
      <trkpt lat="44.69279" lon="2.18913">
        <ele>252.4</ele>
        <time>2023-08-20T09:06:08Z</time>
      </trkpt>
      <trkpt lat="44.69297" lon="2.18923">
        <ele>252.4</ele>
        <time>2023-08-20T09:06:09Z</time>
      </trkpt>
      <trkpt lat="44.69309" lon="2.18929">
        <ele>252.4</ele>
        <time>2023-08-20T09:06:10Z</time>
      </trkpt>
      <trkpt lat="44.69326" lon="2.1894">
        <ele>252.6</ele>
        <time>2023-08-20T09:06:11Z</time>
      </trkpt>
      <trkpt lat="44.69338" lon="2.18949">
        <ele>252.6</ele>
        <time>2023-08-20T09:06:12Z</time>
      </trkpt>
      <trkpt lat="44.69353" lon="2.18962">
        <ele>252.6</ele>
        <time>2023-08-20T09:06:13Z</time>
      </trkpt>
      <trkpt lat="44.69367" lon="2.18974">
        <ele>252.8</ele>
        <time>2023-08-20T09:06:14Z</time>
      </trkpt>
      <trkpt lat="44.69382" lon="2.18986">
        <ele>253</ele>
        <time>2023-08-20T09:06:15Z</time>
      </trkpt>
      <trkpt lat="44.69397" lon="2.18997">
        <ele>253</ele>
        <time>2023-08-20T09:06:16Z</time>
      </trkpt>
      <trkpt lat="44.69412" lon="2.19007">
        <ele>253.2</ele>
        <time>2023-08-20T09:06:17Z</time>
      </trkpt>
      <trkpt lat="44.69428" lon="2.19015">
        <ele>253.4</ele>
        <time>2023-08-20T09:06:18Z</time>
      </trkpt>
      <trkpt lat="44.69444" lon="2.19023">
        <ele>253.8</ele>
        <time>2023-08-20T09:06:19Z</time>
      </trkpt>
      <trkpt lat="44.6946" lon="2.1903">
        <ele>254</ele>
        <time>2023-08-20T09:06:20Z</time>
      </trkpt>
      <trkpt lat="44.69476" lon="2.19037">
        <ele>254.4</ele>
        <time>2023-08-20T09:06:21Z</time>
      </trkpt>
      <trkpt lat="44.69493" lon="2.19044">
        <ele>254.4</ele>
        <time>2023-08-20T09:06:22Z</time>
      </trkpt>
      <trkpt lat="44.6951" lon="2.19052">
        <ele>255</ele>
        <time>2023-08-20T09:06:23Z</time>
      </trkpt>
      <trkpt lat="44.69526" lon="2.19061">
        <ele>255.6</ele>
        <time>2023-08-20T09:06:24Z</time>
      </trkpt>
      <trkpt lat="44.69541" lon="2.19072">
        <ele>255.8</ele>
        <time>2023-08-20T09:06:25Z</time>
      </trkpt>
      <trkpt lat="44.69555" lon="2.19085">
        <ele>255.8</ele>
        <time>2023-08-20T09:06:26Z</time>
      </trkpt>
      <trkpt lat="44.69567" lon="2.19099">
        <ele>256</ele>
        <time>2023-08-20T09:06:27Z</time>
      </trkpt>
      <trkpt lat="44.6958" lon="2.1911">
        <ele>256</ele>
        <time>2023-08-20T09:06:28Z</time>
      </trkpt>
      <trkpt lat="44.69593" lon="2.19119">
        <ele>256</ele>
        <time>2023-08-20T09:06:29Z</time>
      </trkpt>
      <trkpt lat="44.69607" lon="2.19124">
        <ele>256</ele>
        <time>2023-08-20T09:06:30Z</time>
      </trkpt>
      <trkpt lat="44.69622" lon="2.19126">
        <ele>256</ele>
        <time>2023-08-20T09:06:31Z</time>
      </trkpt>
      <trkpt lat="44.69638" lon="2.19126">
        <ele>256</ele>
        <time>2023-08-20T09:06:32Z</time>
      </trkpt>
      <trkpt lat="44.69654" lon="2.19125">
        <ele>256</ele>
        <time>2023-08-20T09:06:33Z</time>
      </trkpt>
      <trkpt lat="44.69671" lon="2.19123">
        <ele>256</ele>
        <time>2023-08-20T09:06:34Z</time>
      </trkpt>
      <trkpt lat="44.69689" lon="2.19122">
        <ele>256.2</ele>
        <time>2023-08-20T09:06:35Z</time>
      </trkpt>
      <trkpt lat="44.69707" lon="2.19122">
        <ele>256</ele>
        <time>2023-08-20T09:06:36Z</time>
      </trkpt>
      <trkpt lat="44.69726" lon="2.19121">
        <ele>256</ele>
        <time>2023-08-20T09:06:37Z</time>
      </trkpt>
      <trkpt lat="44.69744" lon="2.19121">
        <ele>256.2</ele>
        <time>2023-08-20T09:06:38Z</time>
      </trkpt>
      <trkpt lat="44.69767" lon="2.19121">
        <ele>256.6</ele>
        <time>2023-08-20T09:06:39Z</time>
      </trkpt>
      <trkpt lat="44.69781" lon="2.19121">
        <ele>257</ele>
        <time>2023-08-20T09:06:40Z</time>
      </trkpt>
      <trkpt lat="44.69799" lon="2.19122">
        <ele>257.2</ele>
        <time>2023-08-20T09:06:41Z</time>
      </trkpt>
      <trkpt lat="44.69817" lon="2.19123">
        <ele>257.8</ele>
        <time>2023-08-20T09:06:42Z</time>
      </trkpt>
      <trkpt lat="44.69833" lon="2.19123">
        <ele>258.4</ele>
        <time>2023-08-20T09:06:43Z</time>
      </trkpt>
      <trkpt lat="44.6985" lon="2.19125">
        <ele>258.8</ele>
        <time>2023-08-20T09:06:44Z</time>
      </trkpt>
      <trkpt lat="44.69866" lon="2.19129">
        <ele>259</ele>
        <time>2023-08-20T09:06:45Z</time>
      </trkpt>
      <trkpt lat="44.69881" lon="2.19134">
        <ele>259.4</ele>
        <time>2023-08-20T09:06:46Z</time>
      </trkpt>
      <trkpt lat="44.69896" lon="2.1914">
        <ele>259.6</ele>
        <time>2023-08-20T09:06:47Z</time>
      </trkpt>
      <trkpt lat="44.69911" lon="2.19148">
        <ele>259.8</ele>
        <time>2023-08-20T09:06:48Z</time>
      </trkpt>
      <trkpt lat="44.69926" lon="2.19156">
        <ele>259.8</ele>
        <time>2023-08-20T09:06:49Z</time>
      </trkpt>
      <trkpt lat="44.69941" lon="2.19164">
        <ele>259.8</ele>
        <time>2023-08-20T09:06:50Z</time>
      </trkpt>
      <trkpt lat="44.69956" lon="2.19172">
        <ele>260.2</ele>
        <time>2023-08-20T09:06:51Z</time>
      </trkpt>
      <trkpt lat="44.69971" lon="2.19181">
        <ele>260.2</ele>
        <time>2023-08-20T09:06:52Z</time>
      </trkpt>
      <trkpt lat="44.69985" lon="2.19189">
        <ele>260.2</ele>
        <time>2023-08-20T09:06:53Z</time>
      </trkpt>
      <trkpt lat="44.69998" lon="2.19199">
        <ele>260.2</ele>
        <time>2023-08-20T09:06:54Z</time>
      </trkpt>
      <trkpt lat="44.70011" lon="2.19208">
        <ele>260.4</ele>
        <time>2023-08-20T09:06:55Z</time>
      </trkpt>
      <trkpt lat="44.70023" lon="2.19218">
        <ele>260.4</ele>
        <time>2023-08-20T09:06:56Z</time>
      </trkpt>
      <trkpt lat="44.70034" lon="2.19229">
        <ele>260.6</ele>
        <time>2023-08-20T09:06:57Z</time>
      </trkpt>
      <trkpt lat="44.70046" lon="2.19241">
        <ele>260.6</ele>
        <time>2023-08-20T09:06:58Z</time>
      </trkpt>
      <trkpt lat="44.70058" lon="2.19251">
        <ele>260.6</ele>
        <time>2023-08-20T09:06:59Z</time>
      </trkpt>
      <trkpt lat="44.70071" lon="2.19261">
        <ele>260.8</ele>
        <time>2023-08-20T09:07:00Z</time>
      </trkpt>
      <trkpt lat="44.70084" lon="2.19271">
        <ele>260.8</ele>
        <time>2023-08-20T09:07:01Z</time>
      </trkpt>
      <trkpt lat="44.70097" lon="2.1928">
        <ele>261</ele>
        <time>2023-08-20T09:07:02Z</time>
      </trkpt>
      <trkpt lat="44.7011" lon="2.19288">
        <ele>261</ele>
        <time>2023-08-20T09:07:03Z</time>
      </trkpt>
      <trkpt lat="44.70124" lon="2.19295">
        <ele>261</ele>
        <time>2023-08-20T09:07:04Z</time>
      </trkpt>
      <trkpt lat="44.70137" lon="2.19302">
        <ele>261.6</ele>
        <time>2023-08-20T09:07:05Z</time>
      </trkpt>
      <trkpt lat="44.7015" lon="2.19308">
        <ele>261.8</ele>
        <time>2023-08-20T09:07:06Z</time>
      </trkpt>
      <trkpt lat="44.70164" lon="2.19314">
        <ele>262.2</ele>
        <time>2023-08-20T09:07:07Z</time>
      </trkpt>
      <trkpt lat="44.70178" lon="2.1932">
        <ele>262.2</ele>
        <time>2023-08-20T09:07:08Z</time>
      </trkpt>
      <trkpt lat="44.70192" lon="2.19326">
        <ele>262.6</ele>
        <time>2023-08-20T09:07:09Z</time>
      </trkpt>
      <trkpt lat="44.70207" lon="2.19332">
        <ele>262.6</ele>
        <time>2023-08-20T09:07:10Z</time>
      </trkpt>
      <trkpt lat="44.70222" lon="2.19338">
        <ele>263</ele>
        <time>2023-08-20T09:07:11Z</time>
      </trkpt>
      <trkpt lat="44.70237" lon="2.19344">
        <ele>263.2</ele>
        <time>2023-08-20T09:07:12Z</time>
      </trkpt>
      <trkpt lat="44.70251" lon="2.1935">
        <ele>263.6</ele>
        <time>2023-08-20T09:07:13Z</time>
      </trkpt>
      <trkpt lat="44.70265" lon="2.19356">
        <ele>264</ele>
        <time>2023-08-20T09:07:14Z</time>
      </trkpt>
      <trkpt lat="44.70279" lon="2.19362">
        <ele>264</ele>
        <time>2023-08-20T09:07:15Z</time>
      </trkpt>
      <trkpt lat="44.7029" lon="2.19366">
        <ele>264.2</ele>
        <time>2023-08-20T09:07:16Z</time>
      </trkpt>
      <trkpt lat="44.70303" lon="2.19372">
        <ele>264.2</ele>
        <time>2023-08-20T09:07:17Z</time>
      </trkpt>
      <trkpt lat="44.70315" lon="2.19377">
        <ele>264.2</ele>
        <time>2023-08-20T09:07:18Z</time>
      </trkpt>
      <trkpt lat="44.7033" lon="2.19384">
        <ele>264.2</ele>
        <time>2023-08-20T09:07:19Z</time>
      </trkpt>
      <trkpt lat="44.70343" lon="2.19389">
        <ele>264.2</ele>
        <time>2023-08-20T09:07:20Z</time>
      </trkpt>
      <trkpt lat="44.70353" lon="2.19393">
        <ele>264.2</ele>
        <time>2023-08-20T09:07:21Z</time>
      </trkpt>
      <trkpt lat="44.70365" lon="2.19398">
        <ele>264.2</ele>
        <time>2023-08-20T09:07:22Z</time>
      </trkpt>
      <trkpt lat="44.70377" lon="2.19403">
        <ele>264.2</ele>
        <time>2023-08-20T09:07:23Z</time>
      </trkpt>
      <trkpt lat="44.70391" lon="2.19409">
        <ele>264.2</ele>
        <time>2023-08-20T09:07:24Z</time>
      </trkpt>
      <trkpt lat="44.70404" lon="2.19414">
        <ele>264</ele>
        <time>2023-08-20T09:07:25Z</time>
      </trkpt>
      <trkpt lat="44.70416" lon="2.1942">
        <ele>264</ele>
        <time>2023-08-20T09:07:26Z</time>
      </trkpt>
      <trkpt lat="44.70429" lon="2.19425">
        <ele>263.8</ele>
        <time>2023-08-20T09:07:27Z</time>
      </trkpt>
      <trkpt lat="44.70441" lon="2.1943">
        <ele>263.6</ele>
        <time>2023-08-20T09:07:28Z</time>
      </trkpt>
      <trkpt lat="44.70454" lon="2.19435">
        <ele>263.4</ele>
        <time>2023-08-20T09:07:29Z</time>
      </trkpt>
      <trkpt lat="44.70466" lon="2.1944">
        <ele>263.2</ele>
        <time>2023-08-20T09:07:30Z</time>
      </trkpt>
      <trkpt lat="44.70478" lon="2.19445">
        <ele>262.8</ele>
        <time>2023-08-20T09:07:31Z</time>
      </trkpt>
      <trkpt lat="44.70501" lon="2.19455">
        <ele>262.4</ele>
        <time>2023-08-20T09:07:33Z</time>
      </trkpt>
      <trkpt lat="44.70512" lon="2.19459">
        <ele>262</ele>
        <time>2023-08-20T09:07:34Z</time>
      </trkpt>
      <trkpt lat="44.70522" lon="2.19462">
        <ele>261.6</ele>
        <time>2023-08-20T09:07:35Z</time>
      </trkpt>
      <trkpt lat="44.70531" lon="2.19465">
        <ele>261.2</ele>
        <time>2023-08-20T09:07:36Z</time>
      </trkpt>
      <trkpt lat="44.70539" lon="2.19468">
        <ele>261</ele>
        <time>2023-08-20T09:07:37Z</time>
      </trkpt>
      <trkpt lat="44.70545" lon="2.19471">
        <ele>260.6</ele>
        <time>2023-08-20T09:07:38Z</time>
      </trkpt>
      <trkpt lat="44.70551" lon="2.19474">
        <ele>260.4</ele>
        <time>2023-08-20T09:07:39Z</time>
      </trkpt>
      <trkpt lat="44.70556" lon="2.19478">
        <ele>260.2</ele>
        <time>2023-08-20T09:07:40Z</time>
      </trkpt>
      <trkpt lat="44.70562" lon="2.19482">
        <ele>260</ele>
        <time>2023-08-20T09:07:41Z</time>
      </trkpt>
      <trkpt lat="44.70568" lon="2.19485">
        <ele>259.8</ele>
        <time>2023-08-20T09:07:42Z</time>
      </trkpt>
      <trkpt lat="44.70592" lon="2.19494">
        <ele>259.2</ele>
        <time>2023-08-20T09:07:45Z</time>
      </trkpt>
      <trkpt lat="44.70648" lon="2.19518">
        <ele>259.6</ele>
        <time>2023-08-20T09:07:51Z</time>
      </trkpt>
      <trkpt lat="44.70666" lon="2.19526">
        <ele>259.8</ele>
        <time>2023-08-20T09:07:53Z</time>
      </trkpt>
      <trkpt lat="44.70674" lon="2.19529">
        <ele>260.2</ele>
        <time>2023-08-20T09:07:54Z</time>
      </trkpt>
      <trkpt lat="44.70723" lon="2.19549">
        <ele>261.4</ele>
        <time>2023-08-20T09:07:59Z</time>
      </trkpt>
      <trkpt lat="44.70764" lon="2.19565">
        <ele>262.6</ele>
        <time>2023-08-20T09:08:03Z</time>
      </trkpt>
      <trkpt lat="44.70797" lon="2.19578">
        <ele>264</ele>
        <time>2023-08-20T09:08:06Z</time>
      </trkpt>
      <trkpt lat="44.70808" lon="2.19583">
        <ele>264.4</ele>
        <time>2023-08-20T09:08:07Z</time>
      </trkpt>
      <trkpt lat="44.7083" lon="2.19593">
        <ele>265.4</ele>
        <time>2023-08-20T09:08:09Z</time>
      </trkpt>
      <trkpt lat="44.70841" lon="2.19597">
        <ele>265.8</ele>
        <time>2023-08-20T09:08:10Z</time>
      </trkpt>
      <trkpt lat="44.70852" lon="2.19602">
        <ele>266</ele>
        <time>2023-08-20T09:08:11Z</time>
      </trkpt>
      <trkpt lat="44.70862" lon="2.19606">
        <ele>266.8</ele>
        <time>2023-08-20T09:08:12Z</time>
      </trkpt>
      <trkpt lat="44.70872" lon="2.1961">
        <ele>267.2</ele>
        <time>2023-08-20T09:08:13Z</time>
      </trkpt>
      <trkpt lat="44.70882" lon="2.19614">
        <ele>267.4</ele>
        <time>2023-08-20T09:08:14Z</time>
      </trkpt>
      <trkpt lat="44.70891" lon="2.19618">
        <ele>268</ele>
        <time>2023-08-20T09:08:15Z</time>
      </trkpt>
      <trkpt lat="44.70901" lon="2.19622">
        <ele>268.4</ele>
        <time>2023-08-20T09:08:16Z</time>
      </trkpt>
      <trkpt lat="44.70911" lon="2.19627">
        <ele>269.4</ele>
        <time>2023-08-20T09:08:17Z</time>
      </trkpt>
      <trkpt lat="44.7092" lon="2.1963">
        <ele>269.6</ele>
        <time>2023-08-20T09:08:18Z</time>
      </trkpt>
      <trkpt lat="44.7093" lon="2.19635">
        <ele>270.6</ele>
        <time>2023-08-20T09:08:19Z</time>
      </trkpt>
      <trkpt lat="44.7094" lon="2.19641">
        <ele>271</ele>
        <time>2023-08-20T09:08:20Z</time>
      </trkpt>
      <trkpt lat="44.70951" lon="2.19647">
        <ele>271.4</ele>
        <time>2023-08-20T09:08:21Z</time>
      </trkpt>
      <trkpt lat="44.70959" lon="2.19653">
        <ele>272.4</ele>
        <time>2023-08-20T09:08:22Z</time>
      </trkpt>
      <trkpt lat="44.70968" lon="2.19658">
        <ele>272.6</ele>
        <time>2023-08-20T09:08:23Z</time>
      </trkpt>
      <trkpt lat="44.70976" lon="2.19664">
        <ele>273.6</ele>
        <time>2023-08-20T09:08:24Z</time>
      </trkpt>
      <trkpt lat="44.70984" lon="2.1967">
        <ele>273.8</ele>
        <time>2023-08-20T09:08:25Z</time>
      </trkpt>
      <trkpt lat="44.70993" lon="2.19676">
        <ele>274.4</ele>
        <time>2023-08-20T09:08:26Z</time>
      </trkpt>
      <trkpt lat="44.71001" lon="2.19682">
        <ele>274.6</ele>
        <time>2023-08-20T09:08:27Z</time>
      </trkpt>
      <trkpt lat="44.7101" lon="2.19687">
        <ele>275.2</ele>
        <time>2023-08-20T09:08:28Z</time>
      </trkpt>
      <trkpt lat="44.71018" lon="2.19693">
        <ele>275.6</ele>
        <time>2023-08-20T09:08:29Z</time>
      </trkpt>
      <trkpt lat="44.71026" lon="2.19698">
        <ele>276</ele>
        <time>2023-08-20T09:08:30Z</time>
      </trkpt>
      <trkpt lat="44.71034" lon="2.19703">
        <ele>276.8</ele>
        <time>2023-08-20T09:08:31Z</time>
      </trkpt>
      <trkpt lat="44.71042" lon="2.19708">
        <ele>277.2</ele>
        <time>2023-08-20T09:08:32Z</time>
      </trkpt>
      <trkpt lat="44.71049" lon="2.19713">
        <ele>277.6</ele>
        <time>2023-08-20T09:08:33Z</time>
      </trkpt>
      <trkpt lat="44.71057" lon="2.19717">
        <ele>278</ele>
        <time>2023-08-20T09:08:34Z</time>
      </trkpt>
      <trkpt lat="44.71064" lon="2.1972">
        <ele>278.6</ele>
        <time>2023-08-20T09:08:35Z</time>
      </trkpt>
      <trkpt lat="44.71071" lon="2.19723">
        <ele>278.8</ele>
        <time>2023-08-20T09:08:36Z</time>
      </trkpt>
      <trkpt lat="44.71078" lon="2.19726">
        <ele>279.2</ele>
        <time>2023-08-20T09:08:37Z</time>
      </trkpt>
      <trkpt lat="44.71085" lon="2.19728">
        <ele>279.6</ele>
        <time>2023-08-20T09:08:38Z</time>
      </trkpt>
      <trkpt lat="44.71091" lon="2.19731">
        <ele>280</ele>
        <time>2023-08-20T09:08:39Z</time>
      </trkpt>
      <trkpt lat="44.71097" lon="2.19733">
        <ele>280.4</ele>
        <time>2023-08-20T09:08:40Z</time>
      </trkpt>
      <trkpt lat="44.71102" lon="2.19737">
        <ele>280.8</ele>
        <time>2023-08-20T09:08:41Z</time>
      </trkpt>
      <trkpt lat="44.71108" lon="2.19741">
        <ele>281</ele>
        <time>2023-08-20T09:08:42Z</time>
      </trkpt>
      <trkpt lat="44.71113" lon="2.19747">
        <ele>281.2</ele>
        <time>2023-08-20T09:08:43Z</time>
      </trkpt>
      <trkpt lat="44.71117" lon="2.19754">
        <ele>281.4</ele>
        <time>2023-08-20T09:08:44Z</time>
      </trkpt>
      <trkpt lat="44.71121" lon="2.19763">
        <ele>281.4</ele>
        <time>2023-08-20T09:08:45Z</time>
      </trkpt>
      <trkpt lat="44.71125" lon="2.19771">
        <ele>281.8</ele>
        <time>2023-08-20T09:08:46Z</time>
      </trkpt>
      <trkpt lat="44.7113" lon="2.1978">
        <ele>282.2</ele>
        <time>2023-08-20T09:08:47Z</time>
      </trkpt>
      <trkpt lat="44.71136" lon="2.19788">
        <ele>282.2</ele>
        <time>2023-08-20T09:08:48Z</time>
      </trkpt>
      <trkpt lat="44.71142" lon="2.19794">
        <ele>282.6</ele>
        <time>2023-08-20T09:08:49Z</time>
      </trkpt>
      <trkpt lat="44.71148" lon="2.19799">
        <ele>282.8</ele>
        <time>2023-08-20T09:08:50Z</time>
      </trkpt>
      <trkpt lat="44.71156" lon="2.19802">
        <ele>282.8</ele>
        <time>2023-08-20T09:08:51Z</time>
      </trkpt>
      <trkpt lat="44.71163" lon="2.19803">
        <ele>283</ele>
        <time>2023-08-20T09:08:52Z</time>
      </trkpt>
      <trkpt lat="44.71169" lon="2.19803">
        <ele>283.2</ele>
        <time>2023-08-20T09:08:53Z</time>
      </trkpt>
      <trkpt lat="44.71176" lon="2.19802">
        <ele>283.4</ele>
        <time>2023-08-20T09:08:54Z</time>
      </trkpt>
      <trkpt lat="44.71182" lon="2.19802">
        <ele>283.6</ele>
        <time>2023-08-20T09:08:55Z</time>
      </trkpt>
      <trkpt lat="44.71189" lon="2.19805">
        <ele>283.8</ele>
        <time>2023-08-20T09:08:56Z</time>
      </trkpt>
      <trkpt lat="44.71196" lon="2.1981">
        <ele>283.8</ele>
        <time>2023-08-20T09:08:57Z</time>
      </trkpt>
      <trkpt lat="44.71203" lon="2.19815">
        <ele>283.8</ele>
        <time>2023-08-20T09:08:58Z</time>
      </trkpt>
      <trkpt lat="44.71211" lon="2.19822">
        <ele>283.8</ele>
        <time>2023-08-20T09:08:59Z</time>
      </trkpt>
      <trkpt lat="44.71218" lon="2.19831">
        <ele>283.8</ele>
        <time>2023-08-20T09:09:00Z</time>
      </trkpt>
      <trkpt lat="44.71225" lon="2.19841">
        <ele>283.8</ele>
        <time>2023-08-20T09:09:01Z</time>
      </trkpt>
      <trkpt lat="44.71231" lon="2.19851">
        <ele>283.8</ele>
        <time>2023-08-20T09:09:02Z</time>
      </trkpt>
      <trkpt lat="44.71238" lon="2.19863">
        <ele>283.6</ele>
        <time>2023-08-20T09:09:03Z</time>
      </trkpt>
      <trkpt lat="44.71244" lon="2.19875">
        <ele>283.4</ele>
        <time>2023-08-20T09:09:04Z</time>
      </trkpt>
      <trkpt lat="44.71251" lon="2.19886">
        <ele>283.4</ele>
        <time>2023-08-20T09:09:05Z</time>
      </trkpt>
      <trkpt lat="44.71258" lon="2.19898">
        <ele>283.2</ele>
        <time>2023-08-20T09:09:06Z</time>
      </trkpt>
      <trkpt lat="44.71265" lon="2.19909">
        <ele>282.8</ele>
        <time>2023-08-20T09:09:07Z</time>
      </trkpt>
      <trkpt lat="44.71272" lon="2.19921">
        <ele>282.8</ele>
        <time>2023-08-20T09:09:08Z</time>
      </trkpt>
      <trkpt lat="44.71279" lon="2.19932">
        <ele>282.4</ele>
        <time>2023-08-20T09:09:09Z</time>
      </trkpt>
      <trkpt lat="44.71286" lon="2.19944">
        <ele>282.2</ele>
        <time>2023-08-20T09:09:10Z</time>
      </trkpt>
      <trkpt lat="44.71294" lon="2.19956">
        <ele>282</ele>
        <time>2023-08-20T09:09:11Z</time>
      </trkpt>
      <trkpt lat="44.71301" lon="2.19968">
        <ele>281.8</ele>
        <time>2023-08-20T09:09:12Z</time>
      </trkpt>
      <trkpt lat="44.71324" lon="2.20005">
        <ele>280.6</ele>
        <time>2023-08-20T09:09:15Z</time>
      </trkpt>
      <trkpt lat="44.7134" lon="2.20032">
        <ele>279.6</ele>
        <time>2023-08-20T09:09:17Z</time>
      </trkpt>
      <trkpt lat="44.71349" lon="2.20047">
        <ele>279.2</ele>
        <time>2023-08-20T09:09:18Z</time>
      </trkpt>
      <trkpt lat="44.71381" lon="2.20099">
        <ele>278.4</ele>
        <time>2023-08-20T09:09:22Z</time>
      </trkpt>
      <trkpt lat="44.71388" lon="2.20112">
        <ele>277.8</ele>
        <time>2023-08-20T09:09:23Z</time>
      </trkpt>
      <trkpt lat="44.71396" lon="2.20124">
        <ele>277.4</ele>
        <time>2023-08-20T09:09:24Z</time>
      </trkpt>
      <trkpt lat="44.71403" lon="2.20135">
        <ele>277</ele>
        <time>2023-08-20T09:09:25Z</time>
      </trkpt>
      <trkpt lat="44.71409" lon="2.20145">
        <ele>276.8</ele>
        <time>2023-08-20T09:09:26Z</time>
      </trkpt>
      <trkpt lat="44.71418" lon="2.20159">
        <ele>276.4</ele>
        <time>2023-08-20T09:09:27Z</time>
      </trkpt>
      <trkpt lat="44.71425" lon="2.20171">
        <ele>276.2</ele>
        <time>2023-08-20T09:09:28Z</time>
      </trkpt>
      <trkpt lat="44.71433" lon="2.20183">
        <ele>275.4</ele>
        <time>2023-08-20T09:09:29Z</time>
      </trkpt>
      <trkpt lat="44.71439" lon="2.20193">
        <ele>274.2</ele>
        <time>2023-08-20T09:09:30Z</time>
      </trkpt>
      <trkpt lat="44.71455" lon="2.2022">
        <ele>273</ele>
        <time>2023-08-20T09:09:32Z</time>
      </trkpt>
      <trkpt lat="44.71474" lon="2.20251">
        <ele>271.8</ele>
        <time>2023-08-20T09:09:34Z</time>
      </trkpt>
      <trkpt lat="44.71511" lon="2.20312">
        <ele>271</ele>
        <time>2023-08-20T09:09:38Z</time>
      </trkpt>
      <trkpt lat="44.71553" lon="2.20377">
        <ele>271.2</ele>
        <time>2023-08-20T09:09:42Z</time>
      </trkpt>
      <trkpt lat="44.71584" lon="2.20427">
        <ele>273</ele>
        <time>2023-08-20T09:09:45Z</time>
      </trkpt>
      <trkpt lat="44.71592" lon="2.2044">
        <ele>273.6</ele>
        <time>2023-08-20T09:09:46Z</time>
      </trkpt>
      <trkpt lat="44.71601" lon="2.20455">
        <ele>274.2</ele>
        <time>2023-08-20T09:09:47Z</time>
      </trkpt>
      <trkpt lat="44.71613" lon="2.20473">
        <ele>275</ele>
        <time>2023-08-20T09:09:48Z</time>
      </trkpt>
      <trkpt lat="44.71622" lon="2.20488">
        <ele>275.4</ele>
        <time>2023-08-20T09:09:49Z</time>
      </trkpt>
      <trkpt lat="44.71631" lon="2.20503">
        <ele>276</ele>
        <time>2023-08-20T09:09:50Z</time>
      </trkpt>
      <trkpt lat="44.71648" lon="2.20531">
        <ele>277</ele>
        <time>2023-08-20T09:09:52Z</time>
      </trkpt>
      <trkpt lat="44.71677" lon="2.20579">
        <ele>278.4</ele>
        <time>2023-08-20T09:09:55Z</time>
      </trkpt>
      <trkpt lat="44.71696" lon="2.20608">
        <ele>279.4</ele>
        <time>2023-08-20T09:09:57Z</time>
      </trkpt>
      <trkpt lat="44.71705" lon="2.20624">
        <ele>279.8</ele>
        <time>2023-08-20T09:09:58Z</time>
      </trkpt>
      <trkpt lat="44.71715" lon="2.20639">
        <ele>280.2</ele>
        <time>2023-08-20T09:09:59Z</time>
      </trkpt>
      <trkpt lat="44.71725" lon="2.20655">
        <ele>280.6</ele>
        <time>2023-08-20T09:10:00Z</time>
      </trkpt>
      <trkpt lat="44.71735" lon="2.20672">
        <ele>281.2</ele>
        <time>2023-08-20T09:10:01Z</time>
      </trkpt>
      <trkpt lat="44.71746" lon="2.20689">
        <ele>281.4</ele>
        <time>2023-08-20T09:10:02Z</time>
      </trkpt>
      <trkpt lat="44.71756" lon="2.20705">
        <ele>282</ele>
        <time>2023-08-20T09:10:03Z</time>
      </trkpt>
      <trkpt lat="44.71766" lon="2.20722">
        <ele>282.8</ele>
        <time>2023-08-20T09:10:04Z</time>
      </trkpt>
      <trkpt lat="44.71776" lon="2.20738">
        <ele>283</ele>
        <time>2023-08-20T09:10:05Z</time>
      </trkpt>
      <trkpt lat="44.71786" lon="2.20753">
        <ele>283.4</ele>
        <time>2023-08-20T09:10:06Z</time>
      </trkpt>
      <trkpt lat="44.71795" lon="2.20768">
        <ele>283.6</ele>
        <time>2023-08-20T09:10:07Z</time>
      </trkpt>
      <trkpt lat="44.71803" lon="2.20782">
        <ele>283.6</ele>
        <time>2023-08-20T09:10:08Z</time>
      </trkpt>
      <trkpt lat="44.71812" lon="2.20796">
        <ele>283.6</ele>
        <time>2023-08-20T09:10:09Z</time>
      </trkpt>
      <trkpt lat="44.7182" lon="2.2081">
        <ele>283.8</ele>
        <time>2023-08-20T09:10:10Z</time>
      </trkpt>
      <trkpt lat="44.71829" lon="2.20824">
        <ele>284</ele>
        <time>2023-08-20T09:10:11Z</time>
      </trkpt>
      <trkpt lat="44.71838" lon="2.20838">
        <ele>284</ele>
        <time>2023-08-20T09:10:12Z</time>
      </trkpt>
      <trkpt lat="44.71845" lon="2.2085">
        <ele>284</ele>
        <time>2023-08-20T09:10:13Z</time>
      </trkpt>
      <trkpt lat="44.71854" lon="2.20865">
        <ele>284.2</ele>
        <time>2023-08-20T09:10:14Z</time>
      </trkpt>
      <trkpt lat="44.71865" lon="2.20883">
        <ele>284.4</ele>
        <time>2023-08-20T09:10:15Z</time>
      </trkpt>
      <trkpt lat="44.71874" lon="2.20898">
        <ele>284.4</ele>
        <time>2023-08-20T09:10:16Z</time>
      </trkpt>
      <trkpt lat="44.71881" lon="2.2091">
        <ele>284.6</ele>
        <time>2023-08-20T09:10:17Z</time>
      </trkpt>
      <trkpt lat="44.71892" lon="2.20927">
        <ele>284.6</ele>
        <time>2023-08-20T09:10:18Z</time>
      </trkpt>
      <trkpt lat="44.71901" lon="2.20941">
        <ele>284.6</ele>
        <time>2023-08-20T09:10:19Z</time>
      </trkpt>
      <trkpt lat="44.71909" lon="2.20955">
        <ele>284.8</ele>
        <time>2023-08-20T09:10:20Z</time>
      </trkpt>
      <trkpt lat="44.71917" lon="2.20968">
        <ele>284.8</ele>
        <time>2023-08-20T09:10:21Z</time>
      </trkpt>
      <trkpt lat="44.71925" lon="2.20981">
        <ele>285</ele>
        <time>2023-08-20T09:10:22Z</time>
      </trkpt>
      <trkpt lat="44.71934" lon="2.20994">
        <ele>285</ele>
        <time>2023-08-20T09:10:23Z</time>
      </trkpt>
      <trkpt lat="44.71941" lon="2.21003">
        <ele>285.2</ele>
        <time>2023-08-20T09:10:24Z</time>
      </trkpt>
      <trkpt lat="44.71953" lon="2.21018">
        <ele>285.2</ele>
        <time>2023-08-20T09:10:25Z</time>
      </trkpt>
      <trkpt lat="44.71962" lon="2.21028">
        <ele>285.2</ele>
        <time>2023-08-20T09:10:26Z</time>
      </trkpt>
      <trkpt lat="44.71972" lon="2.21038">
        <ele>285.2</ele>
        <time>2023-08-20T09:10:27Z</time>
      </trkpt>
      <trkpt lat="44.71981" lon="2.21047">
        <ele>285</ele>
        <time>2023-08-20T09:10:28Z</time>
      </trkpt>
      <trkpt lat="44.71987" lon="2.21053">
        <ele>285</ele>
        <time>2023-08-20T09:10:29Z</time>
      </trkpt>
      <trkpt lat="44.71993" lon="2.21062">
        <ele>285</ele>
        <time>2023-08-20T09:10:30Z</time>
      </trkpt>
      <trkpt lat="44.71994" lon="2.21071">
        <ele>285</ele>
        <time>2023-08-20T09:10:31Z</time>
      </trkpt>
      <trkpt lat="44.71994" lon="2.2108">
        <ele>284.8</ele>
        <time>2023-08-20T09:10:32Z</time>
      </trkpt>
      <trkpt lat="44.71996" lon="2.21089">
        <ele>284.8</ele>
        <time>2023-08-20T09:10:33Z</time>
      </trkpt>
      <trkpt lat="44.71998" lon="2.21096">
        <ele>284.8</ele>
        <time>2023-08-20T09:10:34Z</time>
      </trkpt>
      <trkpt lat="44.72002" lon="2.21107">
        <ele>284.6</ele>
        <time>2023-08-20T09:10:35Z</time>
      </trkpt>
      <trkpt lat="44.72008" lon="2.21116">
        <ele>284.6</ele>
        <time>2023-08-20T09:10:36Z</time>
      </trkpt>
      <trkpt lat="44.72014" lon="2.21125">
        <ele>284.4</ele>
        <time>2023-08-20T09:10:37Z</time>
      </trkpt>
      <trkpt lat="44.72018" lon="2.21132">
        <ele>284.4</ele>
        <time>2023-08-20T09:10:38Z</time>
      </trkpt>
      <trkpt lat="44.72024" lon="2.21142">
        <ele>284.4</ele>
        <time>2023-08-20T09:10:39Z</time>
      </trkpt>
      <trkpt lat="44.7206" lon="2.21201">
        <ele>284.2</ele>
        <time>2023-08-20T09:10:45Z</time>
      </trkpt>
      <trkpt lat="44.72066" lon="2.21212">
        <ele>284.2</ele>
        <time>2023-08-20T09:10:46Z</time>
      </trkpt>
      <trkpt lat="44.72071" lon="2.21221">
        <ele>284.2</ele>
        <time>2023-08-20T09:10:47Z</time>
      </trkpt>
      <trkpt lat="44.72077" lon="2.21229">
        <ele>284.2</ele>
        <time>2023-08-20T09:10:48Z</time>
      </trkpt>
      <trkpt lat="44.72082" lon="2.21236">
        <ele>284.4</ele>
        <time>2023-08-20T09:10:49Z</time>
      </trkpt>
      <trkpt lat="44.72088" lon="2.21244">
        <ele>284.4</ele>
        <time>2023-08-20T09:10:50Z</time>
      </trkpt>
      <trkpt lat="44.72094" lon="2.21251">
        <ele>284.4</ele>
        <time>2023-08-20T09:10:51Z</time>
      </trkpt>
      <trkpt lat="44.72107" lon="2.21261">
        <ele>284.6</ele>
        <time>2023-08-20T09:10:53Z</time>
      </trkpt>
      <trkpt lat="44.72115" lon="2.21264">
        <ele>284.8</ele>
        <time>2023-08-20T09:10:54Z</time>
      </trkpt>
      <trkpt lat="44.72123" lon="2.21264">
        <ele>284.8</ele>
        <time>2023-08-20T09:10:55Z</time>
      </trkpt>
      <trkpt lat="44.72131" lon="2.21263">
        <ele>284.8</ele>
        <time>2023-08-20T09:10:56Z</time>
      </trkpt>
      <trkpt lat="44.7214" lon="2.2126">
        <ele>284.6</ele>
        <time>2023-08-20T09:10:57Z</time>
      </trkpt>
      <trkpt lat="44.72181" lon="2.21247">
        <ele>284.8</ele>
        <time>2023-08-20T09:11:01Z</time>
      </trkpt>
      <trkpt lat="44.72232" lon="2.21229">
        <ele>285</ele>
        <time>2023-08-20T09:11:05Z</time>
      </trkpt>
      <trkpt lat="44.72288" lon="2.21221">
        <ele>284.4</ele>
        <time>2023-08-20T09:11:09Z</time>
      </trkpt>
      <trkpt lat="44.723" lon="2.21219">
        <ele>284.6</ele>
        <time>2023-08-20T09:11:10Z</time>
      </trkpt>
      <trkpt lat="44.72312" lon="2.21218">
        <ele>284.4</ele>
        <time>2023-08-20T09:11:11Z</time>
      </trkpt>
      <trkpt lat="44.72325" lon="2.21215">
        <ele>284.2</ele>
        <time>2023-08-20T09:11:12Z</time>
      </trkpt>
      <trkpt lat="44.72338" lon="2.21213">
        <ele>284</ele>
        <time>2023-08-20T09:11:13Z</time>
      </trkpt>
      <trkpt lat="44.72379" lon="2.21202">
        <ele>283.2</ele>
        <time>2023-08-20T09:11:16Z</time>
      </trkpt>
      <trkpt lat="44.72421" lon="2.21186">
        <ele>282.4</ele>
        <time>2023-08-20T09:11:19Z</time>
      </trkpt>
      <trkpt lat="44.72434" lon="2.2118">
        <ele>282.2</ele>
        <time>2023-08-20T09:11:20Z</time>
      </trkpt>
      <trkpt lat="44.7246" lon="2.2117">
        <ele>281.6</ele>
        <time>2023-08-20T09:11:22Z</time>
      </trkpt>
      <trkpt lat="44.72472" lon="2.21166">
        <ele>281.4</ele>
        <time>2023-08-20T09:11:23Z</time>
      </trkpt>
      <trkpt lat="44.72484" lon="2.21163">
        <ele>281.2</ele>
        <time>2023-08-20T09:11:24Z</time>
      </trkpt>
      <trkpt lat="44.72495" lon="2.21161">
        <ele>280.6</ele>
        <time>2023-08-20T09:11:25Z</time>
      </trkpt>
      <trkpt lat="44.72507" lon="2.2116">
        <ele>280.4</ele>
        <time>2023-08-20T09:11:26Z</time>
      </trkpt>
      <trkpt lat="44.72518" lon="2.21159">
        <ele>279.8</ele>
        <time>2023-08-20T09:11:27Z</time>
      </trkpt>
      <trkpt lat="44.72531" lon="2.2116">
        <ele>279.2</ele>
        <time>2023-08-20T09:11:28Z</time>
      </trkpt>
      <trkpt lat="44.7257" lon="2.21165">
        <ele>278.2</ele>
        <time>2023-08-20T09:11:31Z</time>
      </trkpt>
      <trkpt lat="44.72583" lon="2.21169">
        <ele>278</ele>
        <time>2023-08-20T09:11:32Z</time>
      </trkpt>
      <trkpt lat="44.72619" lon="2.21183">
        <ele>277.4</ele>
        <time>2023-08-20T09:11:35Z</time>
      </trkpt>
      <trkpt lat="44.7263" lon="2.21188">
        <ele>276.8</ele>
        <time>2023-08-20T09:11:36Z</time>
      </trkpt>
      <trkpt lat="44.72641" lon="2.21192">
        <ele>276.4</ele>
        <time>2023-08-20T09:11:37Z</time>
      </trkpt>
      <trkpt lat="44.72653" lon="2.21196">
        <ele>276.2</ele>
        <time>2023-08-20T09:11:38Z</time>
      </trkpt>
      <trkpt lat="44.72665" lon="2.21199">
        <ele>275.8</ele>
        <time>2023-08-20T09:11:39Z</time>
      </trkpt>
      <trkpt lat="44.72692" lon="2.21206">
        <ele>275.2</ele>
        <time>2023-08-20T09:11:41Z</time>
      </trkpt>
      <trkpt lat="44.7275" lon="2.21212">
        <ele>274.6</ele>
        <time>2023-08-20T09:11:45Z</time>
      </trkpt>
      <trkpt lat="44.72791" lon="2.21212">
        <ele>274.4</ele>
        <time>2023-08-20T09:11:48Z</time>
      </trkpt>
      <trkpt lat="44.72802" lon="2.21213">
        <ele>274.2</ele>
        <time>2023-08-20T09:11:49Z</time>
      </trkpt>
      <trkpt lat="44.72813" lon="2.21214">
        <ele>274</ele>
        <time>2023-08-20T09:11:50Z</time>
      </trkpt>
      <trkpt lat="44.72823" lon="2.21217">
        <ele>273.8</ele>
        <time>2023-08-20T09:11:51Z</time>
      </trkpt>
      <trkpt lat="44.72834" lon="2.2122">
        <ele>273</ele>
        <time>2023-08-20T09:11:52Z</time>
      </trkpt>
      <trkpt lat="44.72844" lon="2.21223">
        <ele>272.8</ele>
        <time>2023-08-20T09:11:53Z</time>
      </trkpt>
      <trkpt lat="44.72853" lon="2.21227">
        <ele>272.2</ele>
        <time>2023-08-20T09:11:54Z</time>
      </trkpt>
      <trkpt lat="44.72863" lon="2.21232">
        <ele>271.4</ele>
        <time>2023-08-20T09:11:55Z</time>
      </trkpt>
      <trkpt lat="44.72884" lon="2.21246">
        <ele>270.4</ele>
        <time>2023-08-20T09:11:57Z</time>
      </trkpt>
      <trkpt lat="44.72894" lon="2.21254">
        <ele>270.2</ele>
        <time>2023-08-20T09:11:58Z</time>
      </trkpt>
      <trkpt lat="44.72911" lon="2.21269">
        <ele>269.4</ele>
        <time>2023-08-20T09:12:00Z</time>
      </trkpt>
      <trkpt lat="44.72918" lon="2.21276">
        <ele>269</ele>
        <time>2023-08-20T09:12:01Z</time>
      </trkpt>
      <trkpt lat="44.72925" lon="2.21283">
        <ele>268.4</ele>
        <time>2023-08-20T09:12:02Z</time>
      </trkpt>
      <trkpt lat="44.72929" lon="2.2129">
        <ele>268.2</ele>
        <time>2023-08-20T09:12:03Z</time>
      </trkpt>
      <trkpt lat="44.72933" lon="2.21298">
        <ele>267.6</ele>
        <time>2023-08-20T09:12:04Z</time>
      </trkpt>
      <trkpt lat="44.72934" lon="2.21306">
        <ele>267.4</ele>
        <time>2023-08-20T09:12:05Z</time>
      </trkpt>
      <trkpt lat="44.72934" lon="2.21314">
        <ele>267</ele>
        <time>2023-08-20T09:12:06Z</time>
      </trkpt>
      <trkpt lat="44.72933" lon="2.21323">
        <ele>266.8</ele>
        <time>2023-08-20T09:12:07Z</time>
      </trkpt>
      <trkpt lat="44.72932" lon="2.21333">
        <ele>266.2</ele>
        <time>2023-08-20T09:12:08Z</time>
      </trkpt>
      <trkpt lat="44.7293" lon="2.21344">
        <ele>266</ele>
        <time>2023-08-20T09:12:09Z</time>
      </trkpt>
      <trkpt lat="44.72925" lon="2.21369">
        <ele>265.6</ele>
        <time>2023-08-20T09:12:11Z</time>
      </trkpt>
      <trkpt lat="44.72909" lon="2.21427">
        <ele>265.6</ele>
        <time>2023-08-20T09:12:16Z</time>
      </trkpt>
      <trkpt lat="44.72906" lon="2.21438">
        <ele>265.6</ele>
        <time>2023-08-20T09:12:17Z</time>
      </trkpt>
      <trkpt lat="44.72895" lon="2.21494">
        <ele>265.8</ele>
        <time>2023-08-20T09:12:21Z</time>
      </trkpt>
      <trkpt lat="44.7288" lon="2.21547">
        <ele>266.2</ele>
        <time>2023-08-20T09:12:24Z</time>
      </trkpt>
      <trkpt lat="44.72866" lon="2.21588">
        <ele>267.4</ele>
        <time>2023-08-20T09:12:26Z</time>
      </trkpt>
      <trkpt lat="44.72859" lon="2.21607">
        <ele>268</ele>
        <time>2023-08-20T09:12:27Z</time>
      </trkpt>
      <trkpt lat="44.72851" lon="2.21624">
        <ele>269.4</ele>
        <time>2023-08-20T09:12:28Z</time>
      </trkpt>
      <trkpt lat="44.72843" lon="2.21638">
        <ele>270</ele>
        <time>2023-08-20T09:12:29Z</time>
      </trkpt>
      <trkpt lat="44.72834" lon="2.21651">
        <ele>270.4</ele>
        <time>2023-08-20T09:12:30Z</time>
      </trkpt>
      <trkpt lat="44.72824" lon="2.21661">
        <ele>270.6</ele>
        <time>2023-08-20T09:12:31Z</time>
      </trkpt>
      <trkpt lat="44.72814" lon="2.21669">
        <ele>270.6</ele>
        <time>2023-08-20T09:12:32Z</time>
      </trkpt>
      <trkpt lat="44.72806" lon="2.21674">
        <ele>270.8</ele>
        <time>2023-08-20T09:12:33Z</time>
      </trkpt>
      <trkpt lat="44.72794" lon="2.21683">
        <ele>270.8</ele>
        <time>2023-08-20T09:12:34Z</time>
      </trkpt>
      <trkpt lat="44.72783" lon="2.21689">
        <ele>271</ele>
        <time>2023-08-20T09:12:35Z</time>
      </trkpt>
      <trkpt lat="44.7277" lon="2.21695">
        <ele>271</ele>
        <time>2023-08-20T09:12:36Z</time>
      </trkpt>
      <trkpt lat="44.72757" lon="2.21702">
        <ele>271.2</ele>
        <time>2023-08-20T09:12:37Z</time>
      </trkpt>
      <trkpt lat="44.72747" lon="2.21708">
        <ele>271.2</ele>
        <time>2023-08-20T09:12:38Z</time>
      </trkpt>
      <trkpt lat="44.72732" lon="2.21719">
        <ele>271.4</ele>
        <time>2023-08-20T09:12:39Z</time>
      </trkpt>
      <trkpt lat="44.72719" lon="2.21729">
        <ele>271.6</ele>
        <time>2023-08-20T09:12:40Z</time>
      </trkpt>
      <trkpt lat="44.72706" lon="2.21737">
        <ele>271.6</ele>
        <time>2023-08-20T09:12:41Z</time>
      </trkpt>
      <trkpt lat="44.72694" lon="2.21746">
        <ele>272</ele>
        <time>2023-08-20T09:12:42Z</time>
      </trkpt>
      <trkpt lat="44.72681" lon="2.21754">
        <ele>272.2</ele>
        <time>2023-08-20T09:12:43Z</time>
      </trkpt>
      <trkpt lat="44.72668" lon="2.21762">
        <ele>272.6</ele>
        <time>2023-08-20T09:12:44Z</time>
      </trkpt>
      <trkpt lat="44.72654" lon="2.21768">
        <ele>272.8</ele>
        <time>2023-08-20T09:12:45Z</time>
      </trkpt>
      <trkpt lat="44.7264" lon="2.21774">
        <ele>272.8</ele>
        <time>2023-08-20T09:12:46Z</time>
      </trkpt>
      <trkpt lat="44.72626" lon="2.21779">
        <ele>273</ele>
        <time>2023-08-20T09:12:47Z</time>
      </trkpt>
      <trkpt lat="44.72613" lon="2.21786">
        <ele>273</ele>
        <time>2023-08-20T09:12:48Z</time>
      </trkpt>
      <trkpt lat="44.72602" lon="2.21795">
        <ele>273.2</ele>
        <time>2023-08-20T09:12:49Z</time>
      </trkpt>
      <trkpt lat="44.72592" lon="2.21807">
        <ele>273.2</ele>
        <time>2023-08-20T09:12:50Z</time>
      </trkpt>
      <trkpt lat="44.72585" lon="2.21821">
        <ele>273.2</ele>
        <time>2023-08-20T09:12:51Z</time>
      </trkpt>
      <trkpt lat="44.72578" lon="2.2184">
        <ele>273.4</ele>
        <time>2023-08-20T09:12:52Z</time>
      </trkpt>
      <trkpt lat="44.72572" lon="2.21858">
        <ele>273.6</ele>
        <time>2023-08-20T09:12:53Z</time>
      </trkpt>
      <trkpt lat="44.72567" lon="2.21877">
        <ele>273.6</ele>
        <time>2023-08-20T09:12:54Z</time>
      </trkpt>
      <trkpt lat="44.72564" lon="2.21895">
        <ele>273.6</ele>
        <time>2023-08-20T09:12:55Z</time>
      </trkpt>
      <trkpt lat="44.72562" lon="2.21914">
        <ele>273.8</ele>
        <time>2023-08-20T09:12:56Z</time>
      </trkpt>
      <trkpt lat="44.72561" lon="2.21932">
        <ele>274</ele>
        <time>2023-08-20T09:12:57Z</time>
      </trkpt>
      <trkpt lat="44.72563" lon="2.21948">
        <ele>274</ele>
        <time>2023-08-20T09:12:58Z</time>
      </trkpt>
      <trkpt lat="44.72565" lon="2.21963">
        <ele>274</ele>
        <time>2023-08-20T09:12:59Z</time>
      </trkpt>
      <trkpt lat="44.72566" lon="2.21978">
        <ele>274</ele>
        <time>2023-08-20T09:13:00Z</time>
      </trkpt>
      <trkpt lat="44.72565" lon="2.21994">
        <ele>274</ele>
        <time>2023-08-20T09:13:01Z</time>
      </trkpt>
      <trkpt lat="44.72564" lon="2.22009">
        <ele>274</ele>
        <time>2023-08-20T09:13:02Z</time>
      </trkpt>
      <trkpt lat="44.72563" lon="2.22024">
        <ele>274</ele>
        <time>2023-08-20T09:13:03Z</time>
      </trkpt>
      <trkpt lat="44.72563" lon="2.22039">
        <ele>274</ele>
        <time>2023-08-20T09:13:04Z</time>
      </trkpt>
      <trkpt lat="44.72565" lon="2.22053">
        <ele>274</ele>
        <time>2023-08-20T09:13:05Z</time>
      </trkpt>
      <trkpt lat="44.72569" lon="2.22067">
        <ele>274</ele>
        <time>2023-08-20T09:13:06Z</time>
      </trkpt>
      <trkpt lat="44.72574" lon="2.22081">
        <ele>273.8</ele>
        <time>2023-08-20T09:13:07Z</time>
      </trkpt>
      <trkpt lat="44.7258" lon="2.22095">
        <ele>273.8</ele>
        <time>2023-08-20T09:13:08Z</time>
      </trkpt>
      <trkpt lat="44.72585" lon="2.22111">
        <ele>273.6</ele>
        <time>2023-08-20T09:13:09Z</time>
      </trkpt>
      <trkpt lat="44.7259" lon="2.22127">
        <ele>273.6</ele>
        <time>2023-08-20T09:13:10Z</time>
      </trkpt>
      <trkpt lat="44.72595" lon="2.22143">
        <ele>273.6</ele>
        <time>2023-08-20T09:13:11Z</time>
      </trkpt>
      <trkpt lat="44.72598" lon="2.2216">
        <ele>273.6</ele>
        <time>2023-08-20T09:13:12Z</time>
      </trkpt>
      <trkpt lat="44.72598" lon="2.22177">
        <ele>273.6</ele>
        <time>2023-08-20T09:13:13Z</time>
      </trkpt>
      <trkpt lat="44.72599" lon="2.22193">
        <ele>273.6</ele>
        <time>2023-08-20T09:13:14Z</time>
      </trkpt>
      <trkpt lat="44.72601" lon="2.22209">
        <ele>273.8</ele>
        <time>2023-08-20T09:13:15Z</time>
      </trkpt>
      <trkpt lat="44.72604" lon="2.22224">
        <ele>273.8</ele>
        <time>2023-08-20T09:13:16Z</time>
      </trkpt>
      <trkpt lat="44.72608" lon="2.22237">
        <ele>273.8</ele>
        <time>2023-08-20T09:13:17Z</time>
      </trkpt>
      <trkpt lat="44.72613" lon="2.22249">
        <ele>273.6</ele>
        <time>2023-08-20T09:13:18Z</time>
      </trkpt>
      <trkpt lat="44.7262" lon="2.22259">
        <ele>273.6</ele>
        <time>2023-08-20T09:13:19Z</time>
      </trkpt>
      <trkpt lat="44.72627" lon="2.22269">
        <ele>273.6</ele>
        <time>2023-08-20T09:13:20Z</time>
      </trkpt>
      <trkpt lat="44.72634" lon="2.22278">
        <ele>273.6</ele>
        <time>2023-08-20T09:13:21Z</time>
      </trkpt>
      <trkpt lat="44.72641" lon="2.22286">
        <ele>273.4</ele>
        <time>2023-08-20T09:13:22Z</time>
      </trkpt>
      <trkpt lat="44.72648" lon="2.22294">
        <ele>273.4</ele>
        <time>2023-08-20T09:13:23Z</time>
      </trkpt>
      <trkpt lat="44.72654" lon="2.22299">
        <ele>273.4</ele>
        <time>2023-08-20T09:13:24Z</time>
      </trkpt>
      <trkpt lat="44.72661" lon="2.223">
        <ele>273.2</ele>
        <time>2023-08-20T09:13:25Z</time>
      </trkpt>
      <trkpt lat="44.7267" lon="2.22297">
        <ele>273.2</ele>
        <time>2023-08-20T09:13:26Z</time>
      </trkpt>
      <trkpt lat="44.72677" lon="2.22292">
        <ele>273.2</ele>
        <time>2023-08-20T09:13:27Z</time>
      </trkpt>
      <trkpt lat="44.72685" lon="2.22285">
        <ele>272.8</ele>
        <time>2023-08-20T09:13:28Z</time>
      </trkpt>
      <trkpt lat="44.727" lon="2.22269">
        <ele>272.6</ele>
        <time>2023-08-20T09:13:30Z</time>
      </trkpt>
      <trkpt lat="44.72717" lon="2.22262">
        <ele>272.2</ele>
        <time>2023-08-20T09:13:32Z</time>
      </trkpt>
      <trkpt lat="44.72725" lon="2.22265">
        <ele>272.2</ele>
        <time>2023-08-20T09:13:33Z</time>
      </trkpt>
      <trkpt lat="44.72733" lon="2.22271">
        <ele>272.2</ele>
        <time>2023-08-20T09:13:34Z</time>
      </trkpt>
      <trkpt lat="44.72758" lon="2.223">
        <ele>272</ele>
        <time>2023-08-20T09:13:37Z</time>
      </trkpt>
      <trkpt lat="44.72767" lon="2.2231">
        <ele>272</ele>
        <time>2023-08-20T09:13:38Z</time>
      </trkpt>
      <trkpt lat="44.72804" lon="2.22342">
        <ele>272.2</ele>
        <time>2023-08-20T09:13:41Z</time>
      </trkpt>
      <trkpt lat="44.72833" lon="2.22371">
        <ele>272.4</ele>
        <time>2023-08-20T09:13:44Z</time>
      </trkpt>
      <trkpt lat="44.72841" lon="2.22379">
        <ele>272.8</ele>
        <time>2023-08-20T09:13:45Z</time>
      </trkpt>
      <trkpt lat="44.7285" lon="2.22384">
        <ele>273.6</ele>
        <time>2023-08-20T09:13:46Z</time>
      </trkpt>
      <trkpt lat="44.72859" lon="2.22387">
        <ele>274</ele>
        <time>2023-08-20T09:13:47Z</time>
      </trkpt>
      <trkpt lat="44.72867" lon="2.22391">
        <ele>274.2</ele>
        <time>2023-08-20T09:13:48Z</time>
      </trkpt>
      <trkpt lat="44.72875" lon="2.22398">
        <ele>274.4</ele>
        <time>2023-08-20T09:13:49Z</time>
      </trkpt>
      <trkpt lat="44.72882" lon="2.2241">
        <ele>274.6</ele>
        <time>2023-08-20T09:13:50Z</time>
      </trkpt>
      <trkpt lat="44.7289" lon="2.22423">
        <ele>274.8</ele>
        <time>2023-08-20T09:13:51Z</time>
      </trkpt>
      <trkpt lat="44.72899" lon="2.22435">
        <ele>275</ele>
        <time>2023-08-20T09:13:52Z</time>
      </trkpt>
      <trkpt lat="44.7291" lon="2.22446">
        <ele>275.2</ele>
        <time>2023-08-20T09:13:53Z</time>
      </trkpt>
      <trkpt lat="44.72922" lon="2.22458">
        <ele>275.4</ele>
        <time>2023-08-20T09:13:54Z</time>
      </trkpt>
      <trkpt lat="44.72933" lon="2.22473">
        <ele>275.8</ele>
        <time>2023-08-20T09:13:55Z</time>
      </trkpt>
      <trkpt lat="44.72944" lon="2.2249">
        <ele>276.2</ele>
        <time>2023-08-20T09:13:56Z</time>
      </trkpt>
      <trkpt lat="44.72954" lon="2.22509">
        <ele>277</ele>
        <time>2023-08-20T09:13:57Z</time>
      </trkpt>
      <trkpt lat="44.72963" lon="2.22528">
        <ele>277.2</ele>
        <time>2023-08-20T09:13:58Z</time>
      </trkpt>
      <trkpt lat="44.72971" lon="2.22547">
        <ele>278</ele>
        <time>2023-08-20T09:13:59Z</time>
      </trkpt>
      <trkpt lat="44.72979" lon="2.22568">
        <ele>278.2</ele>
        <time>2023-08-20T09:14:00Z</time>
      </trkpt>
      <trkpt lat="44.72985" lon="2.22586">
        <ele>278.6</ele>
        <time>2023-08-20T09:14:01Z</time>
      </trkpt>
      <trkpt lat="44.7299" lon="2.22605">
        <ele>278.8</ele>
        <time>2023-08-20T09:14:02Z</time>
      </trkpt>
      <trkpt lat="44.72994" lon="2.22624">
        <ele>279</ele>
        <time>2023-08-20T09:14:03Z</time>
      </trkpt>
      <trkpt lat="44.72997" lon="2.2264">
        <ele>279.2</ele>
        <time>2023-08-20T09:14:04Z</time>
      </trkpt>
      <trkpt lat="44.73001" lon="2.22664">
        <ele>279.4</ele>
        <time>2023-08-20T09:14:05Z</time>
      </trkpt>
      <trkpt lat="44.73003" lon="2.22686">
        <ele>279.4</ele>
        <time>2023-08-20T09:14:06Z</time>
      </trkpt>
      <trkpt lat="44.73003" lon="2.22707">
        <ele>279.6</ele>
        <time>2023-08-20T09:14:07Z</time>
      </trkpt>
      <trkpt lat="44.73003" lon="2.22728">
        <ele>279.6</ele>
        <time>2023-08-20T09:14:08Z</time>
      </trkpt>
      <trkpt lat="44.73002" lon="2.22748">
        <ele>279.6</ele>
        <time>2023-08-20T09:14:09Z</time>
      </trkpt>
      <trkpt lat="44.72999" lon="2.22768">
        <ele>279.6</ele>
        <time>2023-08-20T09:14:10Z</time>
      </trkpt>
      <trkpt lat="44.72997" lon="2.22788">
        <ele>279.6</ele>
        <time>2023-08-20T09:14:11Z</time>
      </trkpt>
      <trkpt lat="44.72993" lon="2.22808">
        <ele>279.6</ele>
        <time>2023-08-20T09:14:12Z</time>
      </trkpt>
      <trkpt lat="44.72988" lon="2.22827">
        <ele>279.6</ele>
        <time>2023-08-20T09:14:13Z</time>
      </trkpt>
      <trkpt lat="44.72983" lon="2.22845">
        <ele>279.4</ele>
        <time>2023-08-20T09:14:14Z</time>
      </trkpt>
      <trkpt lat="44.72978" lon="2.22864">
        <ele>279.4</ele>
        <time>2023-08-20T09:14:15Z</time>
      </trkpt>
      <trkpt lat="44.72975" lon="2.22882">
        <ele>279.4</ele>
        <time>2023-08-20T09:14:16Z</time>
      </trkpt>
      <trkpt lat="44.72971" lon="2.229">
        <ele>279.4</ele>
        <time>2023-08-20T09:14:17Z</time>
      </trkpt>
      <trkpt lat="44.72969" lon="2.22918">
        <ele>279.2</ele>
        <time>2023-08-20T09:14:18Z</time>
      </trkpt>
      <trkpt lat="44.72966" lon="2.22936">
        <ele>279.2</ele>
        <time>2023-08-20T09:14:19Z</time>
      </trkpt>
      <trkpt lat="44.72964" lon="2.22954">
        <ele>279.2</ele>
        <time>2023-08-20T09:14:20Z</time>
      </trkpt>
      <trkpt lat="44.72963" lon="2.2297">
        <ele>279.2</ele>
        <time>2023-08-20T09:14:21Z</time>
      </trkpt>
      <trkpt lat="44.72962" lon="2.22986">
        <ele>279.2</ele>
        <time>2023-08-20T09:14:22Z</time>
      </trkpt>
      <trkpt lat="44.72961" lon="2.22999">
        <ele>279.2</ele>
        <time>2023-08-20T09:14:23Z</time>
      </trkpt>
      <trkpt lat="44.72961" lon="2.23015">
        <ele>278.8</ele>
        <time>2023-08-20T09:14:24Z</time>
      </trkpt>
      <trkpt lat="44.72961" lon="2.23033">
        <ele>278.8</ele>
        <time>2023-08-20T09:14:25Z</time>
      </trkpt>
      <trkpt lat="44.72963" lon="2.23048">
        <ele>278.8</ele>
        <time>2023-08-20T09:14:26Z</time>
      </trkpt>
      <trkpt lat="44.72967" lon="2.23063">
        <ele>278.8</ele>
        <time>2023-08-20T09:14:27Z</time>
      </trkpt>
      <trkpt lat="44.72979" lon="2.23092">
        <ele>278.8</ele>
        <time>2023-08-20T09:14:29Z</time>
      </trkpt>
      <trkpt lat="44.73009" lon="2.23149">
        <ele>279.2</ele>
        <time>2023-08-20T09:14:33Z</time>
      </trkpt>
      <trkpt lat="44.73019" lon="2.23162">
        <ele>279.2</ele>
        <time>2023-08-20T09:14:34Z</time>
      </trkpt>
      <trkpt lat="44.7306" lon="2.23203">
        <ele>279.8</ele>
        <time>2023-08-20T09:14:37Z</time>
      </trkpt>
      <trkpt lat="44.73093" lon="2.23223">
        <ele>281.2</ele>
        <time>2023-08-20T09:14:39Z</time>
      </trkpt>
      <trkpt lat="44.7311" lon="2.23229">
        <ele>282</ele>
        <time>2023-08-20T09:14:40Z</time>
      </trkpt>
      <trkpt lat="44.73143" lon="2.23235">
        <ele>282.4</ele>
        <time>2023-08-20T09:14:42Z</time>
      </trkpt>
      <trkpt lat="44.73159" lon="2.23236">
        <ele>282.6</ele>
        <time>2023-08-20T09:14:43Z</time>
      </trkpt>
      <trkpt lat="44.73174" lon="2.23238">
        <ele>282.8</ele>
        <time>2023-08-20T09:14:44Z</time>
      </trkpt>
      <trkpt lat="44.73188" lon="2.23239">
        <ele>282.8</ele>
        <time>2023-08-20T09:14:45Z</time>
      </trkpt>
      <trkpt lat="44.73202" lon="2.2324">
        <ele>282.8</ele>
        <time>2023-08-20T09:14:46Z</time>
      </trkpt>
      <trkpt lat="44.73216" lon="2.23239">
        <ele>282.8</ele>
        <time>2023-08-20T09:14:47Z</time>
      </trkpt>
      <trkpt lat="44.73228" lon="2.23237">
        <ele>282.8</ele>
        <time>2023-08-20T09:14:48Z</time>
      </trkpt>
      <trkpt lat="44.7324" lon="2.23234">
        <ele>282.6</ele>
        <time>2023-08-20T09:14:49Z</time>
      </trkpt>
      <trkpt lat="44.73252" lon="2.23229">
        <ele>282.6</ele>
        <time>2023-08-20T09:14:50Z</time>
      </trkpt>
      <trkpt lat="44.73263" lon="2.23223">
        <ele>282.2</ele>
        <time>2023-08-20T09:14:51Z</time>
      </trkpt>
      <trkpt lat="44.73274" lon="2.23215">
        <ele>282</ele>
        <time>2023-08-20T09:14:52Z</time>
      </trkpt>
      <trkpt lat="44.73282" lon="2.23207">
        <ele>281.8</ele>
        <time>2023-08-20T09:14:53Z</time>
      </trkpt>
      <trkpt lat="44.73293" lon="2.23193">
        <ele>281.8</ele>
        <time>2023-08-20T09:14:54Z</time>
      </trkpt>
      <trkpt lat="44.73302" lon="2.2318">
        <ele>281.8</ele>
        <time>2023-08-20T09:14:55Z</time>
      </trkpt>
      <trkpt lat="44.73309" lon="2.23169">
        <ele>281.6</ele>
        <time>2023-08-20T09:14:56Z</time>
      </trkpt>
      <trkpt lat="44.73317" lon="2.23153">
        <ele>281.6</ele>
        <time>2023-08-20T09:14:57Z</time>
      </trkpt>
      <trkpt lat="44.73325" lon="2.23138">
        <ele>281.6</ele>
        <time>2023-08-20T09:14:58Z</time>
      </trkpt>
      <trkpt lat="44.7335" lon="2.23095">
        <ele>281.8</ele>
        <time>2023-08-20T09:15:01Z</time>
      </trkpt>
      <trkpt lat="44.73381" lon="2.23037">
        <ele>282</ele>
        <time>2023-08-20T09:15:05Z</time>
      </trkpt>
      <trkpt lat="44.73394" lon="2.23005">
        <ele>282.2</ele>
        <time>2023-08-20T09:15:07Z</time>
      </trkpt>
      <trkpt lat="44.73397" lon="2.22989">
        <ele>282.2</ele>
        <time>2023-08-20T09:15:08Z</time>
      </trkpt>
      <trkpt lat="44.73399" lon="2.22968">
        <ele>282.4</ele>
        <time>2023-08-20T09:15:09Z</time>
      </trkpt>
      <trkpt lat="44.73401" lon="2.22955">
        <ele>282.4</ele>
        <time>2023-08-20T09:15:10Z</time>
      </trkpt>
      <trkpt lat="44.73404" lon="2.22938">
        <ele>282.6</ele>
        <time>2023-08-20T09:15:11Z</time>
      </trkpt>
      <trkpt lat="44.73413" lon="2.22905">
        <ele>282.8</ele>
        <time>2023-08-20T09:15:13Z</time>
      </trkpt>
      <trkpt lat="44.7342" lon="2.22891">
        <ele>282.8</ele>
        <time>2023-08-20T09:15:14Z</time>
      </trkpt>
      <trkpt lat="44.7343" lon="2.22876">
        <ele>283</ele>
        <time>2023-08-20T09:15:15Z</time>
      </trkpt>
      <trkpt lat="44.73439" lon="2.22866">
        <ele>283.2</ele>
        <time>2023-08-20T09:15:16Z</time>
      </trkpt>
      <trkpt lat="44.73449" lon="2.22861">
        <ele>283.4</ele>
        <time>2023-08-20T09:15:17Z</time>
      </trkpt>
      <trkpt lat="44.73461" lon="2.22857">
        <ele>283.6</ele>
        <time>2023-08-20T09:15:18Z</time>
      </trkpt>
      <trkpt lat="44.73475" lon="2.22854">
        <ele>283.6</ele>
        <time>2023-08-20T09:15:19Z</time>
      </trkpt>
      <trkpt lat="44.73488" lon="2.22854">
        <ele>283.6</ele>
        <time>2023-08-20T09:15:20Z</time>
      </trkpt>
      <trkpt lat="44.73498" lon="2.22857">
        <ele>283.6</ele>
        <time>2023-08-20T09:15:21Z</time>
      </trkpt>
      <trkpt lat="44.73511" lon="2.22862">
        <ele>283.6</ele>
        <time>2023-08-20T09:15:22Z</time>
      </trkpt>
      <trkpt lat="44.73526" lon="2.22872">
        <ele>283.6</ele>
        <time>2023-08-20T09:15:23Z</time>
      </trkpt>
      <trkpt lat="44.73538" lon="2.22883">
        <ele>283.6</ele>
        <time>2023-08-20T09:15:24Z</time>
      </trkpt>
      <trkpt lat="44.7355" lon="2.22895">
        <ele>283.4</ele>
        <time>2023-08-20T09:15:25Z</time>
      </trkpt>
      <trkpt lat="44.73573" lon="2.22921">
        <ele>283.2</ele>
        <time>2023-08-20T09:15:27Z</time>
      </trkpt>
      <trkpt lat="44.73592" lon="2.22953">
        <ele>283.2</ele>
        <time>2023-08-20T09:15:29Z</time>
      </trkpt>
      <trkpt lat="44.736" lon="2.22969">
        <ele>283.2</ele>
        <time>2023-08-20T09:15:30Z</time>
      </trkpt>
      <trkpt lat="44.73608" lon="2.22984">
        <ele>283.2</ele>
        <time>2023-08-20T09:15:31Z</time>
      </trkpt>
      <trkpt lat="44.73617" lon="2.22998">
        <ele>283.4</ele>
        <time>2023-08-20T09:15:32Z</time>
      </trkpt>
      <trkpt lat="44.73627" lon="2.2301">
        <ele>283.4</ele>
        <time>2023-08-20T09:15:33Z</time>
      </trkpt>
      <trkpt lat="44.73637" lon="2.23023">
        <ele>283.4</ele>
        <time>2023-08-20T09:15:34Z</time>
      </trkpt>
      <trkpt lat="44.73647" lon="2.23038">
        <ele>283.6</ele>
        <time>2023-08-20T09:15:35Z</time>
      </trkpt>
      <trkpt lat="44.73653" lon="2.23051">
        <ele>283.8</ele>
        <time>2023-08-20T09:15:36Z</time>
      </trkpt>
      <trkpt lat="44.73661" lon="2.23072">
        <ele>283.8</ele>
        <time>2023-08-20T09:15:37Z</time>
      </trkpt>
      <trkpt lat="44.73665" lon="2.23091">
        <ele>284</ele>
        <time>2023-08-20T09:15:38Z</time>
      </trkpt>
      <trkpt lat="44.73668" lon="2.2311">
        <ele>284</ele>
        <time>2023-08-20T09:15:39Z</time>
      </trkpt>
      <trkpt lat="44.7367" lon="2.23129">
        <ele>284</ele>
        <time>2023-08-20T09:15:40Z</time>
      </trkpt>
      <trkpt lat="44.7367" lon="2.23149">
        <ele>284.2</ele>
        <time>2023-08-20T09:15:41Z</time>
      </trkpt>
      <trkpt lat="44.73668" lon="2.23168">
        <ele>284.4</ele>
        <time>2023-08-20T09:15:42Z</time>
      </trkpt>
      <trkpt lat="44.7366" lon="2.23206">
        <ele>285.2</ele>
        <time>2023-08-20T09:15:44Z</time>
      </trkpt>
      <trkpt lat="44.7365" lon="2.23238">
        <ele>285.6</ele>
        <time>2023-08-20T09:15:46Z</time>
      </trkpt>
      <trkpt lat="44.73637" lon="2.23277">
        <ele>285.8</ele>
        <time>2023-08-20T09:15:48Z</time>
      </trkpt>
      <trkpt lat="44.7363" lon="2.23293">
        <ele>286</ele>
        <time>2023-08-20T09:15:49Z</time>
      </trkpt>
      <trkpt lat="44.73623" lon="2.23306">
        <ele>286.2</ele>
        <time>2023-08-20T09:15:50Z</time>
      </trkpt>
      <trkpt lat="44.73615" lon="2.2332">
        <ele>286.2</ele>
        <time>2023-08-20T09:15:51Z</time>
      </trkpt>
      <trkpt lat="44.73607" lon="2.23332">
        <ele>286.4</ele>
        <time>2023-08-20T09:15:52Z</time>
      </trkpt>
      <trkpt lat="44.736" lon="2.23342">
        <ele>286.6</ele>
        <time>2023-08-20T09:15:53Z</time>
      </trkpt>
      <trkpt lat="44.73592" lon="2.23353">
        <ele>286.8</ele>
        <time>2023-08-20T09:15:54Z</time>
      </trkpt>
      <trkpt lat="44.73582" lon="2.23364">
        <ele>287</ele>
        <time>2023-08-20T09:15:55Z</time>
      </trkpt>
      <trkpt lat="44.73573" lon="2.23375">
        <ele>287.2</ele>
        <time>2023-08-20T09:15:56Z</time>
      </trkpt>
      <trkpt lat="44.73562" lon="2.23385">
        <ele>287.4</ele>
        <time>2023-08-20T09:15:57Z</time>
      </trkpt>
      <trkpt lat="44.73549" lon="2.23396">
        <ele>287.6</ele>
        <time>2023-08-20T09:15:58Z</time>
      </trkpt>
      <trkpt lat="44.73537" lon="2.23404">
        <ele>287.8</ele>
        <time>2023-08-20T09:15:59Z</time>
      </trkpt>
      <trkpt lat="44.73528" lon="2.23408">
        <ele>288.2</ele>
        <time>2023-08-20T09:16:00Z</time>
      </trkpt>
      <trkpt lat="44.73515" lon="2.23412">
        <ele>288.2</ele>
        <time>2023-08-20T09:16:01Z</time>
      </trkpt>
      <trkpt lat="44.73505" lon="2.23415">
        <ele>288.6</ele>
        <time>2023-08-20T09:16:02Z</time>
      </trkpt>
      <trkpt lat="44.73497" lon="2.2342">
        <ele>288.8</ele>
        <time>2023-08-20T09:16:03Z</time>
      </trkpt>
      <trkpt lat="44.73489" lon="2.23429">
        <ele>289.2</ele>
        <time>2023-08-20T09:16:04Z</time>
      </trkpt>
      <trkpt lat="44.73483" lon="2.2344">
        <ele>289.4</ele>
        <time>2023-08-20T09:16:05Z</time>
      </trkpt>
      <trkpt lat="44.73479" lon="2.23451">
        <ele>289.8</ele>
        <time>2023-08-20T09:16:06Z</time>
      </trkpt>
      <trkpt lat="44.73477" lon="2.23463">
        <ele>290.2</ele>
        <time>2023-08-20T09:16:07Z</time>
      </trkpt>
      <trkpt lat="44.73477" lon="2.23472">
        <ele>290.2</ele>
        <time>2023-08-20T09:16:08Z</time>
      </trkpt>
      <trkpt lat="44.73479" lon="2.2348">
        <ele>290.6</ele>
        <time>2023-08-20T09:16:09Z</time>
      </trkpt>
      <trkpt lat="44.73485" lon="2.23483">
        <ele>290.8</ele>
        <time>2023-08-20T09:16:10Z</time>
      </trkpt>
      <trkpt lat="44.73491" lon="2.23486">
        <ele>291.2</ele>
        <time>2023-08-20T09:16:11Z</time>
      </trkpt>
      <trkpt lat="44.73496" lon="2.23487">
        <ele>291</ele>
        <time>2023-08-20T09:16:12Z</time>
      </trkpt>
      <trkpt lat="44.73506" lon="2.23488">
        <ele>291.4</ele>
        <time>2023-08-20T09:16:13Z</time>
      </trkpt>
      <trkpt lat="44.73514" lon="2.23488">
        <ele>291.4</ele>
        <time>2023-08-20T09:16:14Z</time>
      </trkpt>
      <trkpt lat="44.73534" lon="2.23485">
        <ele>292</ele>
        <time>2023-08-20T09:16:15Z</time>
      </trkpt>
      <trkpt lat="44.73555" lon="2.23486">
        <ele>292.8</ele>
        <time>2023-08-20T09:16:16Z</time>
      </trkpt>
      <trkpt lat="44.73569" lon="2.23488">
        <ele>293.2</ele>
        <time>2023-08-20T09:16:17Z</time>
      </trkpt>
      <trkpt lat="44.73585" lon="2.23491">
        <ele>293.8</ele>
        <time>2023-08-20T09:16:18Z</time>
      </trkpt>
      <trkpt lat="44.736" lon="2.23496">
        <ele>293.8</ele>
        <time>2023-08-20T09:16:19Z</time>
      </trkpt>
      <trkpt lat="44.73614" lon="2.23503">
        <ele>294</ele>
        <time>2023-08-20T09:16:20Z</time>
      </trkpt>
      <trkpt lat="44.73628" lon="2.23512">
        <ele>294.2</ele>
        <time>2023-08-20T09:16:21Z</time>
      </trkpt>
      <trkpt lat="44.7364" lon="2.23519">
        <ele>294.2</ele>
        <time>2023-08-20T09:16:22Z</time>
      </trkpt>
      <trkpt lat="44.73651" lon="2.23527">
        <ele>294.2</ele>
        <time>2023-08-20T09:16:23Z</time>
      </trkpt>
      <trkpt lat="44.73659" lon="2.23534">
        <ele>294.2</ele>
        <time>2023-08-20T09:16:24Z</time>
      </trkpt>
      <trkpt lat="44.73667" lon="2.23546">
        <ele>294.4</ele>
        <time>2023-08-20T09:16:25Z</time>
      </trkpt>
      <trkpt lat="44.73677" lon="2.23563">
        <ele>294.4</ele>
        <time>2023-08-20T09:16:26Z</time>
      </trkpt>
      <trkpt lat="44.73685" lon="2.23578">
        <ele>294.4</ele>
        <time>2023-08-20T09:16:27Z</time>
      </trkpt>
      <trkpt lat="44.73693" lon="2.23594">
        <ele>294.4</ele>
        <time>2023-08-20T09:16:28Z</time>
      </trkpt>
      <trkpt lat="44.73699" lon="2.23608">
        <ele>294.4</ele>
        <time>2023-08-20T09:16:29Z</time>
      </trkpt>
      <trkpt lat="44.73708" lon="2.23628">
        <ele>294.4</ele>
        <time>2023-08-20T09:16:30Z</time>
      </trkpt>
      <trkpt lat="44.73715" lon="2.23646">
        <ele>294.6</ele>
        <time>2023-08-20T09:16:31Z</time>
      </trkpt>
      <trkpt lat="44.73722" lon="2.23665">
        <ele>294.8</ele>
        <time>2023-08-20T09:16:32Z</time>
      </trkpt>
      <trkpt lat="44.73728" lon="2.23682">
        <ele>295</ele>
        <time>2023-08-20T09:16:33Z</time>
      </trkpt>
      <trkpt lat="44.73734" lon="2.23694">
        <ele>295.4</ele>
        <time>2023-08-20T09:16:34Z</time>
      </trkpt>
      <trkpt lat="44.73741" lon="2.23712">
        <ele>295.8</ele>
        <time>2023-08-20T09:16:35Z</time>
      </trkpt>
      <trkpt lat="44.73744" lon="2.23724">
        <ele>296.2</ele>
        <time>2023-08-20T09:16:36Z</time>
      </trkpt>
      <trkpt lat="44.73747" lon="2.2374">
        <ele>296.4</ele>
        <time>2023-08-20T09:16:37Z</time>
      </trkpt>
      <trkpt lat="44.73749" lon="2.23756">
        <ele>296.8</ele>
        <time>2023-08-20T09:16:38Z</time>
      </trkpt>
      <trkpt lat="44.73752" lon="2.23772">
        <ele>297</ele>
        <time>2023-08-20T09:16:39Z</time>
      </trkpt>
      <trkpt lat="44.73756" lon="2.23791">
        <ele>297.2</ele>
        <time>2023-08-20T09:16:40Z</time>
      </trkpt>
      <trkpt lat="44.73762" lon="2.23806">
        <ele>297.4</ele>
        <time>2023-08-20T09:16:41Z</time>
      </trkpt>
      <trkpt lat="44.73769" lon="2.23821">
        <ele>297.4</ele>
        <time>2023-08-20T09:16:42Z</time>
      </trkpt>
      <trkpt lat="44.73775" lon="2.23832">
        <ele>297.8</ele>
        <time>2023-08-20T09:16:43Z</time>
      </trkpt>
      <trkpt lat="44.73783" lon="2.23848">
        <ele>298</ele>
        <time>2023-08-20T09:16:44Z</time>
      </trkpt>
      <trkpt lat="44.7379" lon="2.2386">
        <ele>298.4</ele>
        <time>2023-08-20T09:16:45Z</time>
      </trkpt>
      <trkpt lat="44.73798" lon="2.2387">
        <ele>298.6</ele>
        <time>2023-08-20T09:16:46Z</time>
      </trkpt>
      <trkpt lat="44.73807" lon="2.23879">
        <ele>298.8</ele>
        <time>2023-08-20T09:16:47Z</time>
      </trkpt>
      <trkpt lat="44.73815" lon="2.23886">
        <ele>298.8</ele>
        <time>2023-08-20T09:16:48Z</time>
      </trkpt>
      <trkpt lat="44.73826" lon="2.23898">
        <ele>299</ele>
        <time>2023-08-20T09:16:49Z</time>
      </trkpt>
      <trkpt lat="44.73834" lon="2.2391">
        <ele>299.2</ele>
        <time>2023-08-20T09:16:50Z</time>
      </trkpt>
      <trkpt lat="44.73841" lon="2.23923">
        <ele>299.4</ele>
        <time>2023-08-20T09:16:51Z</time>
      </trkpt>
      <trkpt lat="44.73849" lon="2.23937">
        <ele>299.4</ele>
        <time>2023-08-20T09:16:52Z</time>
      </trkpt>
      <trkpt lat="44.73857" lon="2.23949">
        <ele>299.6</ele>
        <time>2023-08-20T09:16:53Z</time>
      </trkpt>
      <trkpt lat="44.73865" lon="2.2396">
        <ele>299.8</ele>
        <time>2023-08-20T09:16:54Z</time>
      </trkpt>
      <trkpt lat="44.73873" lon="2.23968">
        <ele>299.8</ele>
        <time>2023-08-20T09:16:55Z</time>
      </trkpt>
      <trkpt lat="44.73882" lon="2.23973">
        <ele>300.2</ele>
        <time>2023-08-20T09:16:56Z</time>
      </trkpt>
      <trkpt lat="44.73888" lon="2.23973">
        <ele>300.6</ele>
        <time>2023-08-20T09:16:57Z</time>
      </trkpt>
      <trkpt lat="44.73895" lon="2.23966">
        <ele>300.6</ele>
        <time>2023-08-20T09:16:58Z</time>
      </trkpt>
      <trkpt lat="44.739" lon="2.23955">
        <ele>300.8</ele>
        <time>2023-08-20T09:16:59Z</time>
      </trkpt>
      <trkpt lat="44.73906" lon="2.23938">
        <ele>301</ele>
        <time>2023-08-20T09:17:00Z</time>
      </trkpt>
      <trkpt lat="44.73912" lon="2.23923">
        <ele>301</ele>
        <time>2023-08-20T09:17:01Z</time>
      </trkpt>
      <trkpt lat="44.73919" lon="2.2391">
        <ele>301.2</ele>
        <time>2023-08-20T09:17:02Z</time>
      </trkpt>
      <trkpt lat="44.7393" lon="2.23894">
        <ele>301.6</ele>
        <time>2023-08-20T09:17:03Z</time>
      </trkpt>
      <trkpt lat="44.73944" lon="2.23877">
        <ele>301.6</ele>
        <time>2023-08-20T09:17:04Z</time>
      </trkpt>
      <trkpt lat="44.73956" lon="2.23864">
        <ele>302</ele>
        <time>2023-08-20T09:17:05Z</time>
      </trkpt>
      <trkpt lat="44.73965" lon="2.23856">
        <ele>302.6</ele>
        <time>2023-08-20T09:17:06Z</time>
      </trkpt>
      <trkpt lat="44.73976" lon="2.23848">
        <ele>303</ele>
        <time>2023-08-20T09:17:07Z</time>
      </trkpt>
      <trkpt lat="44.73986" lon="2.23842">
        <ele>303.6</ele>
        <time>2023-08-20T09:17:08Z</time>
      </trkpt>
      <trkpt lat="44.73998" lon="2.23838">
        <ele>303.8</ele>
        <time>2023-08-20T09:17:09Z</time>
      </trkpt>
      <trkpt lat="44.74009" lon="2.23838">
        <ele>304</ele>
        <time>2023-08-20T09:17:10Z</time>
      </trkpt>
      <trkpt lat="44.7402" lon="2.23839">
        <ele>304</ele>
        <time>2023-08-20T09:17:11Z</time>
      </trkpt>
      <trkpt lat="44.74031" lon="2.23844">
        <ele>304.4</ele>
        <time>2023-08-20T09:17:12Z</time>
      </trkpt>
      <trkpt lat="44.74042" lon="2.23851">
        <ele>304.4</ele>
        <time>2023-08-20T09:17:13Z</time>
      </trkpt>
      <trkpt lat="44.74053" lon="2.23857">
        <ele>304.8</ele>
        <time>2023-08-20T09:17:14Z</time>
      </trkpt>
      <trkpt lat="44.74063" lon="2.23862">
        <ele>304.8</ele>
        <time>2023-08-20T09:17:15Z</time>
      </trkpt>
      <trkpt lat="44.74074" lon="2.23867">
        <ele>305</ele>
        <time>2023-08-20T09:17:16Z</time>
      </trkpt>
      <trkpt lat="44.74082" lon="2.23872">
        <ele>305.2</ele>
        <time>2023-08-20T09:17:17Z</time>
      </trkpt>
      <trkpt lat="44.74092" lon="2.23886">
        <ele>305.4</ele>
        <time>2023-08-20T09:17:18Z</time>
      </trkpt>
      <trkpt lat="44.741" lon="2.23901">
        <ele>305.4</ele>
        <time>2023-08-20T09:17:19Z</time>
      </trkpt>
      <trkpt lat="44.74107" lon="2.23918">
        <ele>305.6</ele>
        <time>2023-08-20T09:17:20Z</time>
      </trkpt>
      <trkpt lat="44.74112" lon="2.23937">
        <ele>305.8</ele>
        <time>2023-08-20T09:17:21Z</time>
      </trkpt>
      <trkpt lat="44.74116" lon="2.23952">
        <ele>306</ele>
        <time>2023-08-20T09:17:22Z</time>
      </trkpt>
      <trkpt lat="44.74121" lon="2.23971">
        <ele>306.2</ele>
        <time>2023-08-20T09:17:23Z</time>
      </trkpt>
      <trkpt lat="44.74125" lon="2.23994">
        <ele>306.6</ele>
        <time>2023-08-20T09:17:24Z</time>
      </trkpt>
      <trkpt lat="44.74128" lon="2.24013">
        <ele>307</ele>
        <time>2023-08-20T09:17:25Z</time>
      </trkpt>
      <trkpt lat="44.74131" lon="2.24031">
        <ele>307.6</ele>
        <time>2023-08-20T09:17:26Z</time>
      </trkpt>
      <trkpt lat="44.74135" lon="2.24049">
        <ele>307.8</ele>
        <time>2023-08-20T09:17:27Z</time>
      </trkpt>
      <trkpt lat="44.74139" lon="2.24068">
        <ele>308.6</ele>
        <time>2023-08-20T09:17:28Z</time>
      </trkpt>
      <trkpt lat="44.74144" lon="2.24085">
        <ele>308.8</ele>
        <time>2023-08-20T09:17:29Z</time>
      </trkpt>
      <trkpt lat="44.7415" lon="2.24102">
        <ele>309.2</ele>
        <time>2023-08-20T09:17:30Z</time>
      </trkpt>
      <trkpt lat="44.74156" lon="2.24119">
        <ele>309.6</ele>
        <time>2023-08-20T09:17:31Z</time>
      </trkpt>
      <trkpt lat="44.74164" lon="2.24135">
        <ele>309.8</ele>
        <time>2023-08-20T09:17:32Z</time>
      </trkpt>
      <trkpt lat="44.74171" lon="2.24151">
        <ele>310.2</ele>
        <time>2023-08-20T09:17:33Z</time>
      </trkpt>
      <trkpt lat="44.74178" lon="2.24168">
        <ele>310.2</ele>
        <time>2023-08-20T09:17:34Z</time>
      </trkpt>
      <trkpt lat="44.74183" lon="2.24184">
        <ele>310.4</ele>
        <time>2023-08-20T09:17:35Z</time>
      </trkpt>
      <trkpt lat="44.74187" lon="2.242">
        <ele>310.4</ele>
        <time>2023-08-20T09:17:36Z</time>
      </trkpt>
      <trkpt lat="44.74191" lon="2.24215">
        <ele>310.4</ele>
        <time>2023-08-20T09:17:37Z</time>
      </trkpt>
      <trkpt lat="44.74195" lon="2.24225">
        <ele>310.4</ele>
        <time>2023-08-20T09:17:38Z</time>
      </trkpt>
      <trkpt lat="44.74205" lon="2.2424">
        <ele>310.4</ele>
        <time>2023-08-20T09:17:39Z</time>
      </trkpt>
      <trkpt lat="44.74214" lon="2.24253">
        <ele>310.4</ele>
        <time>2023-08-20T09:17:40Z</time>
      </trkpt>
      <trkpt lat="44.74221" lon="2.24264">
        <ele>310.4</ele>
        <time>2023-08-20T09:17:41Z</time>
      </trkpt>
      <trkpt lat="44.74233" lon="2.24281">
        <ele>310.4</ele>
        <time>2023-08-20T09:17:42Z</time>
      </trkpt>
      <trkpt lat="44.74243" lon="2.24296">
        <ele>310.4</ele>
        <time>2023-08-20T09:17:43Z</time>
      </trkpt>
      <trkpt lat="44.74254" lon="2.24311">
        <ele>310.4</ele>
        <time>2023-08-20T09:17:44Z</time>
      </trkpt>
      <trkpt lat="44.74263" lon="2.24325">
        <ele>310.6</ele>
        <time>2023-08-20T09:17:45Z</time>
      </trkpt>
      <trkpt lat="44.74272" lon="2.24338">
        <ele>310.6</ele>
        <time>2023-08-20T09:17:46Z</time>
      </trkpt>
      <trkpt lat="44.74281" lon="2.24345">
        <ele>310.8</ele>
        <time>2023-08-20T09:17:47Z</time>
      </trkpt>
      <trkpt lat="44.74294" lon="2.24347">
        <ele>310.8</ele>
        <time>2023-08-20T09:17:48Z</time>
      </trkpt>
      <trkpt lat="44.74308" lon="2.24348">
        <ele>310.8</ele>
        <time>2023-08-20T09:17:49Z</time>
      </trkpt>
      <trkpt lat="44.74323" lon="2.24347">
        <ele>310.8</ele>
        <time>2023-08-20T09:17:50Z</time>
      </trkpt>
      <trkpt lat="44.74336" lon="2.24344">
        <ele>310.8</ele>
        <time>2023-08-20T09:17:51Z</time>
      </trkpt>
      <trkpt lat="44.74349" lon="2.24341">
        <ele>311</ele>
        <time>2023-08-20T09:17:52Z</time>
      </trkpt>
      <trkpt lat="44.74361" lon="2.2434">
        <ele>311</ele>
        <time>2023-08-20T09:17:53Z</time>
      </trkpt>
      <trkpt lat="44.74373" lon="2.24343">
        <ele>311</ele>
        <time>2023-08-20T09:17:54Z</time>
      </trkpt>
      <trkpt lat="44.74383" lon="2.24351">
        <ele>311</ele>
        <time>2023-08-20T09:17:55Z</time>
      </trkpt>
      <trkpt lat="44.74395" lon="2.24358">
        <ele>311</ele>
        <time>2023-08-20T09:17:56Z</time>
      </trkpt>
      <trkpt lat="44.74407" lon="2.24365">
        <ele>311</ele>
        <time>2023-08-20T09:17:57Z</time>
      </trkpt>
      <trkpt lat="44.74421" lon="2.24371">
        <ele>311</ele>
        <time>2023-08-20T09:17:58Z</time>
      </trkpt>
      <trkpt lat="44.74433" lon="2.24381">
        <ele>311</ele>
        <time>2023-08-20T09:17:59Z</time>
      </trkpt>
      <trkpt lat="44.74444" lon="2.24392">
        <ele>311</ele>
        <time>2023-08-20T09:18:00Z</time>
      </trkpt>
      <trkpt lat="44.74454" lon="2.24402">
        <ele>311</ele>
        <time>2023-08-20T09:18:01Z</time>
      </trkpt>
      <trkpt lat="44.74465" lon="2.24411">
        <ele>311</ele>
        <time>2023-08-20T09:18:02Z</time>
      </trkpt>
      <trkpt lat="44.74474" lon="2.2442">
        <ele>311</ele>
        <time>2023-08-20T09:18:03Z</time>
      </trkpt>
      <trkpt lat="44.74484" lon="2.24429">
        <ele>311</ele>
        <time>2023-08-20T09:18:04Z</time>
      </trkpt>
      <trkpt lat="44.74493" lon="2.24437">
        <ele>311</ele>
        <time>2023-08-20T09:18:05Z</time>
      </trkpt>
      <trkpt lat="44.74502" lon="2.2444">
        <ele>311</ele>
        <time>2023-08-20T09:18:06Z</time>
      </trkpt>
      <trkpt lat="44.74512" lon="2.2444">
        <ele>311</ele>
        <time>2023-08-20T09:18:07Z</time>
      </trkpt>
      <trkpt lat="44.74522" lon="2.24437">
        <ele>311</ele>
        <time>2023-08-20T09:18:08Z</time>
      </trkpt>
      <trkpt lat="44.7453" lon="2.2443">
        <ele>310.8</ele>
        <time>2023-08-20T09:18:09Z</time>
      </trkpt>
      <trkpt lat="44.74539" lon="2.2442">
        <ele>310.8</ele>
        <time>2023-08-20T09:18:10Z</time>
      </trkpt>
      <trkpt lat="44.74549" lon="2.24406">
        <ele>310.8</ele>
        <time>2023-08-20T09:18:11Z</time>
      </trkpt>
      <trkpt lat="44.74555" lon="2.24393">
        <ele>310.8</ele>
        <time>2023-08-20T09:18:12Z</time>
      </trkpt>
      <trkpt lat="44.74559" lon="2.24378">
        <ele>310.8</ele>
        <time>2023-08-20T09:18:13Z</time>
      </trkpt>
      <trkpt lat="44.74561" lon="2.24361">
        <ele>310.8</ele>
        <time>2023-08-20T09:18:14Z</time>
      </trkpt>
      <trkpt lat="44.7456" lon="2.24348">
        <ele>310.8</ele>
        <time>2023-08-20T09:18:15Z</time>
      </trkpt>
      <trkpt lat="44.7456" lon="2.24332">
        <ele>310.8</ele>
        <time>2023-08-20T09:18:16Z</time>
      </trkpt>
      <trkpt lat="44.74564" lon="2.24315">
        <ele>310.8</ele>
        <time>2023-08-20T09:18:17Z</time>
      </trkpt>
      <trkpt lat="44.74569" lon="2.24304">
        <ele>311</ele>
        <time>2023-08-20T09:18:18Z</time>
      </trkpt>
      <trkpt lat="44.74577" lon="2.24293">
        <ele>311</ele>
        <time>2023-08-20T09:18:19Z</time>
      </trkpt>
      <trkpt lat="44.74588" lon="2.24279">
        <ele>311.2</ele>
        <time>2023-08-20T09:18:20Z</time>
      </trkpt>
      <trkpt lat="44.74596" lon="2.2427">
        <ele>311.2</ele>
        <time>2023-08-20T09:18:21Z</time>
      </trkpt>
      <trkpt lat="44.74608" lon="2.24259">
        <ele>311.6</ele>
        <time>2023-08-20T09:18:22Z</time>
      </trkpt>
      <trkpt lat="44.74621" lon="2.2425">
        <ele>312</ele>
        <time>2023-08-20T09:18:23Z</time>
      </trkpt>
      <trkpt lat="44.74631" lon="2.24244">
        <ele>312</ele>
        <time>2023-08-20T09:18:24Z</time>
      </trkpt>
      <trkpt lat="44.74651" lon="2.24227">
        <ele>312.2</ele>
        <time>2023-08-20T09:18:26Z</time>
      </trkpt>
      <trkpt lat="44.74659" lon="2.24215">
        <ele>312.2</ele>
        <time>2023-08-20T09:18:27Z</time>
      </trkpt>
      <trkpt lat="44.74667" lon="2.242">
        <ele>312.2</ele>
        <time>2023-08-20T09:18:28Z</time>
      </trkpt>
      <trkpt lat="44.74676" lon="2.24182">
        <ele>312.4</ele>
        <time>2023-08-20T09:18:29Z</time>
      </trkpt>
      <trkpt lat="44.74686" lon="2.24162">
        <ele>312.4</ele>
        <time>2023-08-20T09:18:30Z</time>
      </trkpt>
      <trkpt lat="44.74694" lon="2.24148">
        <ele>312.4</ele>
        <time>2023-08-20T09:18:31Z</time>
      </trkpt>
      <trkpt lat="44.74701" lon="2.24138">
        <ele>312.4</ele>
        <time>2023-08-20T09:18:32Z</time>
      </trkpt>
      <trkpt lat="44.7471" lon="2.24129">
        <ele>312.4</ele>
        <time>2023-08-20T09:18:33Z</time>
      </trkpt>
      <trkpt lat="44.74723" lon="2.24122">
        <ele>312.4</ele>
        <time>2023-08-20T09:18:34Z</time>
      </trkpt>
      <trkpt lat="44.74732" lon="2.2412">
        <ele>312.4</ele>
        <time>2023-08-20T09:18:35Z</time>
      </trkpt>
      <trkpt lat="44.74744" lon="2.24119">
        <ele>312.4</ele>
        <time>2023-08-20T09:18:36Z</time>
      </trkpt>
      <trkpt lat="44.74755" lon="2.24123">
        <ele>312.4</ele>
        <time>2023-08-20T09:18:37Z</time>
      </trkpt>
      <trkpt lat="44.74763" lon="2.24125">
        <ele>312.2</ele>
        <time>2023-08-20T09:18:38Z</time>
      </trkpt>
      <trkpt lat="44.74775" lon="2.2413">
        <ele>312</ele>
        <time>2023-08-20T09:18:39Z</time>
      </trkpt>
      <trkpt lat="44.74784" lon="2.24132">
        <ele>311.8</ele>
        <time>2023-08-20T09:18:40Z</time>
      </trkpt>
      <trkpt lat="44.74792" lon="2.24134">
        <ele>311.8</ele>
        <time>2023-08-20T09:18:41Z</time>
      </trkpt>
      <trkpt lat="44.74801" lon="2.24137">
        <ele>311.6</ele>
        <time>2023-08-20T09:18:42Z</time>
      </trkpt>
      <trkpt lat="44.74809" lon="2.24141">
        <ele>311.4</ele>
        <time>2023-08-20T09:18:43Z</time>
      </trkpt>
      <trkpt lat="44.74817" lon="2.24146">
        <ele>311.2</ele>
        <time>2023-08-20T09:18:44Z</time>
      </trkpt>
      <trkpt lat="44.74823" lon="2.24153">
        <ele>311</ele>
        <time>2023-08-20T09:18:45Z</time>
      </trkpt>
      <trkpt lat="44.74827" lon="2.24162">
        <ele>311</ele>
        <time>2023-08-20T09:18:46Z</time>
      </trkpt>
      <trkpt lat="44.74828" lon="2.2417">
        <ele>310.6</ele>
        <time>2023-08-20T09:18:47Z</time>
      </trkpt>
      <trkpt lat="44.74827" lon="2.24179">
        <ele>310.4</ele>
        <time>2023-08-20T09:18:48Z</time>
      </trkpt>
      <trkpt lat="44.74822" lon="2.24187">
        <ele>310.2</ele>
        <time>2023-08-20T09:18:49Z</time>
      </trkpt>
      <trkpt lat="44.74816" lon="2.24194">
        <ele>310</ele>
        <time>2023-08-20T09:18:50Z</time>
      </trkpt>
      <trkpt lat="44.74799" lon="2.24208">
        <ele>310</ele>
        <time>2023-08-20T09:18:52Z</time>
      </trkpt>
      <trkpt lat="44.74791" lon="2.24213">
        <ele>310</ele>
        <time>2023-08-20T09:18:53Z</time>
      </trkpt>
      <trkpt lat="44.74784" lon="2.24218">
        <ele>310</ele>
        <time>2023-08-20T09:18:54Z</time>
      </trkpt>
      <trkpt lat="44.74779" lon="2.24223">
        <ele>310</ele>
        <time>2023-08-20T09:18:55Z</time>
      </trkpt>
      <trkpt lat="44.74774" lon="2.24231">
        <ele>310.2</ele>
        <time>2023-08-20T09:18:56Z</time>
      </trkpt>
      <trkpt lat="44.74771" lon="2.24239">
        <ele>310.6</ele>
        <time>2023-08-20T09:18:57Z</time>
      </trkpt>
      <trkpt lat="44.74769" lon="2.2425">
        <ele>311</ele>
        <time>2023-08-20T09:18:58Z</time>
      </trkpt>
      <trkpt lat="44.74769" lon="2.24264">
        <ele>311.6</ele>
        <time>2023-08-20T09:18:59Z</time>
      </trkpt>
      <trkpt lat="44.74773" lon="2.24294">
        <ele>312</ele>
        <time>2023-08-20T09:19:01Z</time>
      </trkpt>
      <trkpt lat="44.74777" lon="2.24308">
        <ele>312.4</ele>
        <time>2023-08-20T09:19:02Z</time>
      </trkpt>
      <trkpt lat="44.74783" lon="2.2432">
        <ele>313.2</ele>
        <time>2023-08-20T09:19:03Z</time>
      </trkpt>
      <trkpt lat="44.74792" lon="2.2433">
        <ele>314.4</ele>
        <time>2023-08-20T09:19:04Z</time>
      </trkpt>
      <trkpt lat="44.74801" lon="2.24338">
        <ele>314.8</ele>
        <time>2023-08-20T09:19:05Z</time>
      </trkpt>
      <trkpt lat="44.74811" lon="2.24344">
        <ele>315.6</ele>
        <time>2023-08-20T09:19:06Z</time>
      </trkpt>
      <trkpt lat="44.7482" lon="2.2435">
        <ele>316</ele>
        <time>2023-08-20T09:19:07Z</time>
      </trkpt>
      <trkpt lat="44.74829" lon="2.24357">
        <ele>316.8</ele>
        <time>2023-08-20T09:19:08Z</time>
      </trkpt>
      <trkpt lat="44.74835" lon="2.24364">
        <ele>317.2</ele>
        <time>2023-08-20T09:19:09Z</time>
      </trkpt>
      <trkpt lat="44.7484" lon="2.24374">
        <ele>317.6</ele>
        <time>2023-08-20T09:19:10Z</time>
      </trkpt>
      <trkpt lat="44.74843" lon="2.24385">
        <ele>318.2</ele>
        <time>2023-08-20T09:19:11Z</time>
      </trkpt>
      <trkpt lat="44.74846" lon="2.24397">
        <ele>318.8</ele>
        <time>2023-08-20T09:19:12Z</time>
      </trkpt>
      <trkpt lat="44.74849" lon="2.24412">
        <ele>319.2</ele>
        <time>2023-08-20T09:19:13Z</time>
      </trkpt>
      <trkpt lat="44.74853" lon="2.24429">
        <ele>319.6</ele>
        <time>2023-08-20T09:19:14Z</time>
      </trkpt>
      <trkpt lat="44.74855" lon="2.24447">
        <ele>320.6</ele>
        <time>2023-08-20T09:19:15Z</time>
      </trkpt>
      <trkpt lat="44.74857" lon="2.24465">
        <ele>321.2</ele>
        <time>2023-08-20T09:19:16Z</time>
      </trkpt>
      <trkpt lat="44.74859" lon="2.24482">
        <ele>322.4</ele>
        <time>2023-08-20T09:19:17Z</time>
      </trkpt>
      <trkpt lat="44.74858" lon="2.24501">
        <ele>322.8</ele>
        <time>2023-08-20T09:19:18Z</time>
      </trkpt>
      <trkpt lat="44.74855" lon="2.2452">
        <ele>323.8</ele>
        <time>2023-08-20T09:19:19Z</time>
      </trkpt>
      <trkpt lat="44.74852" lon="2.24539">
        <ele>324</ele>
        <time>2023-08-20T09:19:20Z</time>
      </trkpt>
      <trkpt lat="44.74848" lon="2.2456">
        <ele>324.8</ele>
        <time>2023-08-20T09:19:21Z</time>
      </trkpt>
      <trkpt lat="44.74846" lon="2.24572">
        <ele>325.2</ele>
        <time>2023-08-20T09:19:22Z</time>
      </trkpt>
      <trkpt lat="44.74845" lon="2.24587">
        <ele>325.8</ele>
        <time>2023-08-20T09:19:23Z</time>
      </trkpt>
      <trkpt lat="44.74847" lon="2.24602">
        <ele>326.8</ele>
        <time>2023-08-20T09:19:24Z</time>
      </trkpt>
      <trkpt lat="44.74851" lon="2.24618">
        <ele>327.2</ele>
        <time>2023-08-20T09:19:25Z</time>
      </trkpt>
      <trkpt lat="44.74857" lon="2.24632">
        <ele>328</ele>
        <time>2023-08-20T09:19:26Z</time>
      </trkpt>
      <trkpt lat="44.74862" lon="2.24649">
        <ele>328.2</ele>
        <time>2023-08-20T09:19:27Z</time>
      </trkpt>
      <trkpt lat="44.74867" lon="2.24667">
        <ele>328.6</ele>
        <time>2023-08-20T09:19:28Z</time>
      </trkpt>
      <trkpt lat="44.7487" lon="2.24685">
        <ele>328.8</ele>
        <time>2023-08-20T09:19:29Z</time>
      </trkpt>
      <trkpt lat="44.74869" lon="2.24704">
        <ele>329</ele>
        <time>2023-08-20T09:19:30Z</time>
      </trkpt>
      <trkpt lat="44.74867" lon="2.24722">
        <ele>329.6</ele>
        <time>2023-08-20T09:19:31Z</time>
      </trkpt>
      <trkpt lat="44.74866" lon="2.2474">
        <ele>330</ele>
        <time>2023-08-20T09:19:32Z</time>
      </trkpt>
      <trkpt lat="44.74864" lon="2.24758">
        <ele>330.4</ele>
        <time>2023-08-20T09:19:33Z</time>
      </trkpt>
      <trkpt lat="44.74864" lon="2.24775">
        <ele>330.8</ele>
        <time>2023-08-20T09:19:34Z</time>
      </trkpt>
      <trkpt lat="44.74866" lon="2.24795">
        <ele>331.4</ele>
        <time>2023-08-20T09:19:35Z</time>
      </trkpt>
      <trkpt lat="44.74868" lon="2.24812">
        <ele>331.6</ele>
        <time>2023-08-20T09:19:36Z</time>
      </trkpt>
      <trkpt lat="44.74869" lon="2.24826">
        <ele>332.2</ele>
        <time>2023-08-20T09:19:37Z</time>
      </trkpt>
      <trkpt lat="44.74872" lon="2.24843">
        <ele>332.8</ele>
        <time>2023-08-20T09:19:38Z</time>
      </trkpt>
      <trkpt lat="44.74876" lon="2.24863">
        <ele>333.2</ele>
        <time>2023-08-20T09:19:39Z</time>
      </trkpt>
      <trkpt lat="44.74882" lon="2.24879">
        <ele>333.6</ele>
        <time>2023-08-20T09:19:40Z</time>
      </trkpt>
      <trkpt lat="44.74889" lon="2.24892">
        <ele>333.8</ele>
        <time>2023-08-20T09:19:41Z</time>
      </trkpt>
      <trkpt lat="44.74896" lon="2.24901">
        <ele>334.6</ele>
        <time>2023-08-20T09:19:42Z</time>
      </trkpt>
      <trkpt lat="44.74908" lon="2.24913">
        <ele>335</ele>
        <time>2023-08-20T09:19:43Z</time>
      </trkpt>
      <trkpt lat="44.74917" lon="2.24918">
        <ele>335.8</ele>
        <time>2023-08-20T09:19:44Z</time>
      </trkpt>
      <trkpt lat="44.74929" lon="2.24924">
        <ele>336.2</ele>
        <time>2023-08-20T09:19:45Z</time>
      </trkpt>
      <trkpt lat="44.74942" lon="2.24929">
        <ele>336.8</ele>
        <time>2023-08-20T09:19:46Z</time>
      </trkpt>
      <trkpt lat="44.74954" lon="2.24934">
        <ele>337.6</ele>
        <time>2023-08-20T09:19:47Z</time>
      </trkpt>
      <trkpt lat="44.74966" lon="2.24941">
        <ele>338</ele>
        <time>2023-08-20T09:19:48Z</time>
      </trkpt>
      <trkpt lat="44.74979" lon="2.2495">
        <ele>339</ele>
        <time>2023-08-20T09:19:49Z</time>
      </trkpt>
      <trkpt lat="44.74987" lon="2.2496">
        <ele>339.2</ele>
        <time>2023-08-20T09:19:50Z</time>
      </trkpt>
      <trkpt lat="44.74991" lon="2.24969">
        <ele>339.8</ele>
        <time>2023-08-20T09:19:51Z</time>
      </trkpt>
      <trkpt lat="44.74993" lon="2.24981">
        <ele>340</ele>
        <time>2023-08-20T09:19:52Z</time>
      </trkpt>
      <trkpt lat="44.74994" lon="2.24997">
        <ele>340.6</ele>
        <time>2023-08-20T09:19:53Z</time>
      </trkpt>
      <trkpt lat="44.7499" lon="2.2501">
        <ele>340.8</ele>
        <time>2023-08-20T09:19:54Z</time>
      </trkpt>
      <trkpt lat="44.74986" lon="2.25024">
        <ele>341</ele>
        <time>2023-08-20T09:19:55Z</time>
      </trkpt>
      <trkpt lat="44.74984" lon="2.25035">
        <ele>341.4</ele>
        <time>2023-08-20T09:19:56Z</time>
      </trkpt>
      <trkpt lat="44.74986" lon="2.25045">
        <ele>341.8</ele>
        <time>2023-08-20T09:19:57Z</time>
      </trkpt>
      <trkpt lat="44.7499" lon="2.25053">
        <ele>342</ele>
        <time>2023-08-20T09:19:58Z</time>
      </trkpt>
      <trkpt lat="44.74998" lon="2.25058">
        <ele>342</ele>
        <time>2023-08-20T09:19:59Z</time>
      </trkpt>
      <trkpt lat="44.7501" lon="2.25061">
        <ele>342.4</ele>
        <time>2023-08-20T09:20:00Z</time>
      </trkpt>
      <trkpt lat="44.75022" lon="2.25062">
        <ele>342.8</ele>
        <time>2023-08-20T09:20:01Z</time>
      </trkpt>
      <trkpt lat="44.75037" lon="2.25064">
        <ele>343.2</ele>
        <time>2023-08-20T09:20:02Z</time>
      </trkpt>
      <trkpt lat="44.75052" lon="2.25068">
        <ele>344.6</ele>
        <time>2023-08-20T09:20:03Z</time>
      </trkpt>
      <trkpt lat="44.75065" lon="2.25072">
        <ele>345</ele>
        <time>2023-08-20T09:20:04Z</time>
      </trkpt>
      <trkpt lat="44.75077" lon="2.25077">
        <ele>346</ele>
        <time>2023-08-20T09:20:05Z</time>
      </trkpt>
      <trkpt lat="44.75088" lon="2.25084">
        <ele>346.2</ele>
        <time>2023-08-20T09:20:06Z</time>
      </trkpt>
      <trkpt lat="44.75099" lon="2.25093">
        <ele>348</ele>
        <time>2023-08-20T09:20:07Z</time>
      </trkpt>
      <trkpt lat="44.75108" lon="2.25105">
        <ele>348.4</ele>
        <time>2023-08-20T09:20:08Z</time>
      </trkpt>
      <trkpt lat="44.75114" lon="2.25118">
        <ele>349.2</ele>
        <time>2023-08-20T09:20:09Z</time>
      </trkpt>
      <trkpt lat="44.75117" lon="2.25133">
        <ele>349.6</ele>
        <time>2023-08-20T09:20:10Z</time>
      </trkpt>
      <trkpt lat="44.75118" lon="2.2515">
        <ele>350</ele>
        <time>2023-08-20T09:20:11Z</time>
      </trkpt>
      <trkpt lat="44.75119" lon="2.25164">
        <ele>350.2</ele>
        <time>2023-08-20T09:20:12Z</time>
      </trkpt>
      <trkpt lat="44.75118" lon="2.25185">
        <ele>350.4</ele>
        <time>2023-08-20T09:20:13Z</time>
      </trkpt>
      <trkpt lat="44.75115" lon="2.252">
        <ele>350.8</ele>
        <time>2023-08-20T09:20:14Z</time>
      </trkpt>
      <trkpt lat="44.7511" lon="2.25214">
        <ele>351.2</ele>
        <time>2023-08-20T09:20:15Z</time>
      </trkpt>
      <trkpt lat="44.75108" lon="2.25221">
        <ele>351.6</ele>
        <time>2023-08-20T09:20:16Z</time>
      </trkpt>
      <trkpt lat="44.75106" lon="2.25231">
        <ele>351.8</ele>
        <time>2023-08-20T09:20:17Z</time>
      </trkpt>
      <trkpt lat="44.75104" lon="2.25242">
        <ele>352.2</ele>
        <time>2023-08-20T09:20:18Z</time>
      </trkpt>
      <trkpt lat="44.75103" lon="2.25256">
        <ele>352.4</ele>
        <time>2023-08-20T09:20:19Z</time>
      </trkpt>
      <trkpt lat="44.75102" lon="2.25265">
        <ele>352.6</ele>
        <time>2023-08-20T09:20:20Z</time>
      </trkpt>
      <trkpt lat="44.75103" lon="2.25278">
        <ele>352.8</ele>
        <time>2023-08-20T09:20:21Z</time>
      </trkpt>
      <trkpt lat="44.75105" lon="2.25291">
        <ele>352.8</ele>
        <time>2023-08-20T09:20:22Z</time>
      </trkpt>
      <trkpt lat="44.75109" lon="2.25304">
        <ele>353.2</ele>
        <time>2023-08-20T09:20:23Z</time>
      </trkpt>
      <trkpt lat="44.75114" lon="2.25318">
        <ele>353.4</ele>
        <time>2023-08-20T09:20:24Z</time>
      </trkpt>
      <trkpt lat="44.75122" lon="2.25331">
        <ele>353.6</ele>
        <time>2023-08-20T09:20:25Z</time>
      </trkpt>
      <trkpt lat="44.75131" lon="2.25344">
        <ele>353.8</ele>
        <time>2023-08-20T09:20:26Z</time>
      </trkpt>
      <trkpt lat="44.75141" lon="2.2536">
        <ele>354.2</ele>
        <time>2023-08-20T09:20:27Z</time>
      </trkpt>
      <trkpt lat="44.75152" lon="2.25377">
        <ele>354.8</ele>
        <time>2023-08-20T09:20:28Z</time>
      </trkpt>
      <trkpt lat="44.75163" lon="2.25396">
        <ele>355</ele>
        <time>2023-08-20T09:20:29Z</time>
      </trkpt>
      <trkpt lat="44.75176" lon="2.25415">
        <ele>355.6</ele>
        <time>2023-08-20T09:20:30Z</time>
      </trkpt>
      <trkpt lat="44.75186" lon="2.25426">
        <ele>356.4</ele>
        <time>2023-08-20T09:20:31Z</time>
      </trkpt>
      <trkpt lat="44.75197" lon="2.25437">
        <ele>358</ele>
        <time>2023-08-20T09:20:32Z</time>
      </trkpt>
      <trkpt lat="44.75207" lon="2.25448">
        <ele>358.6</ele>
        <time>2023-08-20T09:20:33Z</time>
      </trkpt>
      <trkpt lat="44.75216" lon="2.25457">
        <ele>359.6</ele>
        <time>2023-08-20T09:20:34Z</time>
      </trkpt>
      <trkpt lat="44.75225" lon="2.25467">
        <ele>360</ele>
        <time>2023-08-20T09:20:35Z</time>
      </trkpt>
      <trkpt lat="44.75234" lon="2.25476">
        <ele>360.6</ele>
        <time>2023-08-20T09:20:36Z</time>
      </trkpt>
      <trkpt lat="44.75243" lon="2.25486">
        <ele>361</ele>
        <time>2023-08-20T09:20:37Z</time>
      </trkpt>
      <trkpt lat="44.75254" lon="2.25498">
        <ele>361.2</ele>
        <time>2023-08-20T09:20:38Z</time>
      </trkpt>
      <trkpt lat="44.75262" lon="2.25507">
        <ele>361.4</ele>
        <time>2023-08-20T09:20:39Z</time>
      </trkpt>
      <trkpt lat="44.75271" lon="2.25518">
        <ele>361.4</ele>
        <time>2023-08-20T09:20:40Z</time>
      </trkpt>
      <trkpt lat="44.75283" lon="2.2553">
        <ele>361.6</ele>
        <time>2023-08-20T09:20:41Z</time>
      </trkpt>
      <trkpt lat="44.75292" lon="2.25536">
        <ele>361.6</ele>
        <time>2023-08-20T09:20:42Z</time>
      </trkpt>
      <trkpt lat="44.75307" lon="2.25544">
        <ele>362</ele>
        <time>2023-08-20T09:20:43Z</time>
      </trkpt>
      <trkpt lat="44.75316" lon="2.25549">
        <ele>362.2</ele>
        <time>2023-08-20T09:20:44Z</time>
      </trkpt>
      <trkpt lat="44.75328" lon="2.25555">
        <ele>362.8</ele>
        <time>2023-08-20T09:20:45Z</time>
      </trkpt>
      <trkpt lat="44.7534" lon="2.25561">
        <ele>363.2</ele>
        <time>2023-08-20T09:20:46Z</time>
      </trkpt>
      <trkpt lat="44.75352" lon="2.2557">
        <ele>363.2</ele>
        <time>2023-08-20T09:20:47Z</time>
      </trkpt>
      <trkpt lat="44.75364" lon="2.25581">
        <ele>363.8</ele>
        <time>2023-08-20T09:20:48Z</time>
      </trkpt>
      <trkpt lat="44.75375" lon="2.25595">
        <ele>363.8</ele>
        <time>2023-08-20T09:20:49Z</time>
      </trkpt>
      <trkpt lat="44.75384" lon="2.25609">
        <ele>364</ele>
        <time>2023-08-20T09:20:50Z</time>
      </trkpt>
      <trkpt lat="44.75393" lon="2.25623">
        <ele>364.2</ele>
        <time>2023-08-20T09:20:51Z</time>
      </trkpt>
      <trkpt lat="44.75402" lon="2.25635">
        <ele>364.2</ele>
        <time>2023-08-20T09:20:52Z</time>
      </trkpt>
      <trkpt lat="44.75412" lon="2.25646">
        <ele>364.6</ele>
        <time>2023-08-20T09:20:53Z</time>
      </trkpt>
      <trkpt lat="44.75424" lon="2.25655">
        <ele>364.8</ele>
        <time>2023-08-20T09:20:54Z</time>
      </trkpt>
      <trkpt lat="44.75437" lon="2.25661">
        <ele>364.8</ele>
        <time>2023-08-20T09:20:55Z</time>
      </trkpt>
      <trkpt lat="44.75451" lon="2.25667">
        <ele>365.2</ele>
        <time>2023-08-20T09:20:56Z</time>
      </trkpt>
      <trkpt lat="44.75464" lon="2.25672">
        <ele>365.2</ele>
        <time>2023-08-20T09:20:57Z</time>
      </trkpt>
      <trkpt lat="44.75477" lon="2.25675">
        <ele>365.4</ele>
        <time>2023-08-20T09:20:58Z</time>
      </trkpt>
      <trkpt lat="44.75491" lon="2.25676">
        <ele>366</ele>
        <time>2023-08-20T09:20:59Z</time>
      </trkpt>
      <trkpt lat="44.75504" lon="2.25673">
        <ele>366.4</ele>
        <time>2023-08-20T09:21:00Z</time>
      </trkpt>
      <trkpt lat="44.75516" lon="2.25668">
        <ele>367.2</ele>
        <time>2023-08-20T09:21:01Z</time>
      </trkpt>
      <trkpt lat="44.75529" lon="2.25659">
        <ele>367.8</ele>
        <time>2023-08-20T09:21:02Z</time>
      </trkpt>
      <trkpt lat="44.75542" lon="2.25649">
        <ele>367.8</ele>
        <time>2023-08-20T09:21:03Z</time>
      </trkpt>
      <trkpt lat="44.75556" lon="2.25638">
        <ele>368.4</ele>
        <time>2023-08-20T09:21:04Z</time>
      </trkpt>
      <trkpt lat="44.7557" lon="2.25628">
        <ele>368.4</ele>
        <time>2023-08-20T09:21:05Z</time>
      </trkpt>
      <trkpt lat="44.75585" lon="2.25617">
        <ele>369.6</ele>
        <time>2023-08-20T09:21:06Z</time>
      </trkpt>
      <trkpt lat="44.75599" lon="2.25607">
        <ele>370.4</ele>
        <time>2023-08-20T09:21:07Z</time>
      </trkpt>
      <trkpt lat="44.75613" lon="2.25598">
        <ele>371</ele>
        <time>2023-08-20T09:21:08Z</time>
      </trkpt>
      <trkpt lat="44.75626" lon="2.25592">
        <ele>371.6</ele>
        <time>2023-08-20T09:21:09Z</time>
      </trkpt>
      <trkpt lat="44.75639" lon="2.25587">
        <ele>372.2</ele>
        <time>2023-08-20T09:21:10Z</time>
      </trkpt>
      <trkpt lat="44.75652" lon="2.25584">
        <ele>373</ele>
        <time>2023-08-20T09:21:11Z</time>
      </trkpt>
      <trkpt lat="44.75664" lon="2.25583">
        <ele>373.2</ele>
        <time>2023-08-20T09:21:12Z</time>
      </trkpt>
      <trkpt lat="44.75676" lon="2.25583">
        <ele>374</ele>
        <time>2023-08-20T09:21:13Z</time>
      </trkpt>
      <trkpt lat="44.75687" lon="2.25584">
        <ele>374.2</ele>
        <time>2023-08-20T09:21:14Z</time>
      </trkpt>
      <trkpt lat="44.75698" lon="2.25588">
        <ele>374.4</ele>
        <time>2023-08-20T09:21:15Z</time>
      </trkpt>
      <trkpt lat="44.75709" lon="2.25594">
        <ele>374.4</ele>
        <time>2023-08-20T09:21:16Z</time>
      </trkpt>
      <trkpt lat="44.75719" lon="2.25603">
        <ele>374.8</ele>
        <time>2023-08-20T09:21:17Z</time>
      </trkpt>
      <trkpt lat="44.75732" lon="2.25614">
        <ele>374.8</ele>
        <time>2023-08-20T09:21:18Z</time>
      </trkpt>
      <trkpt lat="44.75741" lon="2.25622">
        <ele>374.8</ele>
        <time>2023-08-20T09:21:19Z</time>
      </trkpt>
      <trkpt lat="44.75753" lon="2.25633">
        <ele>375.2</ele>
        <time>2023-08-20T09:21:20Z</time>
      </trkpt>
      <trkpt lat="44.75764" lon="2.25645">
        <ele>375.2</ele>
        <time>2023-08-20T09:21:21Z</time>
      </trkpt>
      <trkpt lat="44.75777" lon="2.25662">
        <ele>375.4</ele>
        <time>2023-08-20T09:21:22Z</time>
      </trkpt>
      <trkpt lat="44.75784" lon="2.25675">
        <ele>375.4</ele>
        <time>2023-08-20T09:21:23Z</time>
      </trkpt>
      <trkpt lat="44.75793" lon="2.25693">
        <ele>376</ele>
        <time>2023-08-20T09:21:24Z</time>
      </trkpt>
      <trkpt lat="44.758" lon="2.25712">
        <ele>376.2</ele>
        <time>2023-08-20T09:21:25Z</time>
      </trkpt>
      <trkpt lat="44.75807" lon="2.25731">
        <ele>376.6</ele>
        <time>2023-08-20T09:21:26Z</time>
      </trkpt>
      <trkpt lat="44.75814" lon="2.2575">
        <ele>376.6</ele>
        <time>2023-08-20T09:21:27Z</time>
      </trkpt>
      <trkpt lat="44.7582" lon="2.2577">
        <ele>377</ele>
        <time>2023-08-20T09:21:28Z</time>
      </trkpt>
      <trkpt lat="44.75826" lon="2.2579">
        <ele>377.8</ele>
        <time>2023-08-20T09:21:29Z</time>
      </trkpt>
      <trkpt lat="44.75831" lon="2.2581">
        <ele>378.2</ele>
        <time>2023-08-20T09:21:30Z</time>
      </trkpt>
      <trkpt lat="44.75836" lon="2.25829">
        <ele>378.8</ele>
        <time>2023-08-20T09:21:31Z</time>
      </trkpt>
      <trkpt lat="44.75841" lon="2.25848">
        <ele>379</ele>
        <time>2023-08-20T09:21:32Z</time>
      </trkpt>
      <trkpt lat="44.75845" lon="2.25867">
        <ele>379.4</ele>
        <time>2023-08-20T09:21:33Z</time>
      </trkpt>
      <trkpt lat="44.7585" lon="2.25885">
        <ele>379.6</ele>
        <time>2023-08-20T09:21:34Z</time>
      </trkpt>
      <trkpt lat="44.75854" lon="2.25902">
        <ele>380.2</ele>
        <time>2023-08-20T09:21:35Z</time>
      </trkpt>
      <trkpt lat="44.75857" lon="2.25918">
        <ele>380.8</ele>
        <time>2023-08-20T09:21:36Z</time>
      </trkpt>
      <trkpt lat="44.7586" lon="2.25933">
        <ele>381.2</ele>
        <time>2023-08-20T09:21:37Z</time>
      </trkpt>
      <trkpt lat="44.75863" lon="2.25945">
        <ele>381.4</ele>
        <time>2023-08-20T09:21:38Z</time>
      </trkpt>
      <trkpt lat="44.75868" lon="2.25956">
        <ele>381.6</ele>
        <time>2023-08-20T09:21:39Z</time>
      </trkpt>
      <trkpt lat="44.75873" lon="2.25964">
        <ele>381.6</ele>
        <time>2023-08-20T09:21:40Z</time>
      </trkpt>
      <trkpt lat="44.7588" lon="2.25971">
        <ele>381.6</ele>
        <time>2023-08-20T09:21:41Z</time>
      </trkpt>
      <trkpt lat="44.7589" lon="2.25975">
        <ele>381.6</ele>
        <time>2023-08-20T09:21:42Z</time>
      </trkpt>
      <trkpt lat="44.75901" lon="2.25979">
        <ele>381.6</ele>
        <time>2023-08-20T09:21:43Z</time>
      </trkpt>
      <trkpt lat="44.75912" lon="2.25983">
        <ele>381.4</ele>
        <time>2023-08-20T09:21:44Z</time>
      </trkpt>
      <trkpt lat="44.75924" lon="2.25986">
        <ele>381.2</ele>
        <time>2023-08-20T09:21:45Z</time>
      </trkpt>
      <trkpt lat="44.75935" lon="2.25989">
        <ele>381.2</ele>
        <time>2023-08-20T09:21:46Z</time>
      </trkpt>
      <trkpt lat="44.75946" lon="2.25993">
        <ele>381</ele>
        <time>2023-08-20T09:21:47Z</time>
      </trkpt>
      <trkpt lat="44.75955" lon="2.25998">
        <ele>380.8</ele>
        <time>2023-08-20T09:21:48Z</time>
      </trkpt>
      <trkpt lat="44.75963" lon="2.26006">
        <ele>380.4</ele>
        <time>2023-08-20T09:21:49Z</time>
      </trkpt>
      <trkpt lat="44.75968" lon="2.26015">
        <ele>380.2</ele>
        <time>2023-08-20T09:21:50Z</time>
      </trkpt>
      <trkpt lat="44.75971" lon="2.26025">
        <ele>379.8</ele>
        <time>2023-08-20T09:21:51Z</time>
      </trkpt>
      <trkpt lat="44.75972" lon="2.26033">
        <ele>379.4</ele>
        <time>2023-08-20T09:21:52Z</time>
      </trkpt>
      <trkpt lat="44.75972" lon="2.2604">
        <ele>379</ele>
        <time>2023-08-20T09:21:53Z</time>
      </trkpt>
      <trkpt lat="44.75971" lon="2.26046">
        <ele>378.6</ele>
        <time>2023-08-20T09:21:54Z</time>
      </trkpt>
      <trkpt lat="44.7597" lon="2.2605">
        <ele>378.2</ele>
        <time>2023-08-20T09:21:55Z</time>
      </trkpt>
      <trkpt lat="44.7597" lon="2.26053">
        <ele>377.6</ele>
        <time>2023-08-20T09:21:56Z</time>
      </trkpt>
      <trkpt lat="44.75969" lon="2.26055">
        <ele>377.2</ele>
        <time>2023-08-20T09:21:57Z</time>
      </trkpt>
      <trkpt lat="44.75967" lon="2.26059">
        <ele>376.8</ele>
        <time>2023-08-20T09:21:58Z</time>
      </trkpt>
      <trkpt lat="44.75965" lon="2.26065">
        <ele>376.8</ele>
        <time>2023-08-20T09:21:59Z</time>
      </trkpt>
      <trkpt lat="44.75961" lon="2.26071">
        <ele>376.8</ele>
        <time>2023-08-20T09:22:00Z</time>
      </trkpt>
      <trkpt lat="44.75956" lon="2.26077">
        <ele>376.8</ele>
        <time>2023-08-20T09:22:01Z</time>
      </trkpt>
      <trkpt lat="44.75937" lon="2.26095">
        <ele>376.8</ele>
        <time>2023-08-20T09:22:04Z</time>
      </trkpt>
      <trkpt lat="44.75931" lon="2.26103">
        <ele>376.8</ele>
        <time>2023-08-20T09:22:05Z</time>
      </trkpt>
      <trkpt lat="44.75927" lon="2.26113">
        <ele>376.8</ele>
        <time>2023-08-20T09:22:06Z</time>
      </trkpt>
      <trkpt lat="44.75924" lon="2.26124">
        <ele>377.4</ele>
        <time>2023-08-20T09:22:07Z</time>
      </trkpt>
      <trkpt lat="44.75923" lon="2.26136">
        <ele>377.6</ele>
        <time>2023-08-20T09:22:08Z</time>
      </trkpt>
      <trkpt lat="44.75925" lon="2.26149">
        <ele>378</ele>
        <time>2023-08-20T09:22:09Z</time>
      </trkpt>
      <trkpt lat="44.75927" lon="2.26161">
        <ele>378.4</ele>
        <time>2023-08-20T09:22:10Z</time>
      </trkpt>
      <trkpt lat="44.75931" lon="2.26173">
        <ele>378.6</ele>
        <time>2023-08-20T09:22:11Z</time>
      </trkpt>
      <trkpt lat="44.75938" lon="2.26184">
        <ele>379</ele>
        <time>2023-08-20T09:22:12Z</time>
      </trkpt>
      <trkpt lat="44.75947" lon="2.26196">
        <ele>379.2</ele>
        <time>2023-08-20T09:22:13Z</time>
      </trkpt>
      <trkpt lat="44.75958" lon="2.26209">
        <ele>379.8</ele>
        <time>2023-08-20T09:22:14Z</time>
      </trkpt>
      <trkpt lat="44.75971" lon="2.26222">
        <ele>380.2</ele>
        <time>2023-08-20T09:22:15Z</time>
      </trkpt>
      <trkpt lat="44.75984" lon="2.26236">
        <ele>381</ele>
        <time>2023-08-20T09:22:16Z</time>
      </trkpt>
      <trkpt lat="44.75997" lon="2.26247">
        <ele>381.6</ele>
        <time>2023-08-20T09:22:17Z</time>
      </trkpt>
      <trkpt lat="44.7601" lon="2.26257">
        <ele>382.8</ele>
        <time>2023-08-20T09:22:18Z</time>
      </trkpt>
      <trkpt lat="44.76023" lon="2.26266">
        <ele>384.2</ele>
        <time>2023-08-20T09:22:19Z</time>
      </trkpt>
      <trkpt lat="44.76036" lon="2.26274">
        <ele>384.8</ele>
        <time>2023-08-20T09:22:20Z</time>
      </trkpt>
      <trkpt lat="44.76048" lon="2.26282">
        <ele>385.8</ele>
        <time>2023-08-20T09:22:21Z</time>
      </trkpt>
      <trkpt lat="44.76059" lon="2.2629">
        <ele>386.2</ele>
        <time>2023-08-20T09:22:22Z</time>
      </trkpt>
      <trkpt lat="44.76066" lon="2.263">
        <ele>387.2</ele>
        <time>2023-08-20T09:22:23Z</time>
      </trkpt>
      <trkpt lat="44.76071" lon="2.26312">
        <ele>387.6</ele>
        <time>2023-08-20T09:22:24Z</time>
      </trkpt>
      <trkpt lat="44.76072" lon="2.26326">
        <ele>388</ele>
        <time>2023-08-20T09:22:25Z</time>
      </trkpt>
      <trkpt lat="44.76071" lon="2.26342">
        <ele>388.4</ele>
        <time>2023-08-20T09:22:26Z</time>
      </trkpt>
      <trkpt lat="44.7607" lon="2.26359">
        <ele>388.4</ele>
        <time>2023-08-20T09:22:27Z</time>
      </trkpt>
      <trkpt lat="44.76067" lon="2.26376">
        <ele>388.8</ele>
        <time>2023-08-20T09:22:28Z</time>
      </trkpt>
      <trkpt lat="44.76064" lon="2.26393">
        <ele>389</ele>
        <time>2023-08-20T09:22:29Z</time>
      </trkpt>
      <trkpt lat="44.7606" lon="2.26408">
        <ele>389.4</ele>
        <time>2023-08-20T09:22:30Z</time>
      </trkpt>
      <trkpt lat="44.76055" lon="2.26423">
        <ele>389.6</ele>
        <time>2023-08-20T09:22:31Z</time>
      </trkpt>
      <trkpt lat="44.76051" lon="2.26438">
        <ele>389.8</ele>
        <time>2023-08-20T09:22:32Z</time>
      </trkpt>
      <trkpt lat="44.76049" lon="2.26451">
        <ele>389.8</ele>
        <time>2023-08-20T09:22:33Z</time>
      </trkpt>
      <trkpt lat="44.7605" lon="2.26463">
        <ele>389.8</ele>
        <time>2023-08-20T09:22:34Z</time>
      </trkpt>
      <trkpt lat="44.76053" lon="2.26473">
        <ele>390</ele>
        <time>2023-08-20T09:22:35Z</time>
      </trkpt>
      <trkpt lat="44.76058" lon="2.26483">
        <ele>390</ele>
        <time>2023-08-20T09:22:36Z</time>
      </trkpt>
      <trkpt lat="44.76064" lon="2.26491">
        <ele>390</ele>
        <time>2023-08-20T09:22:37Z</time>
      </trkpt>
      <trkpt lat="44.76072" lon="2.26495">
        <ele>390</ele>
        <time>2023-08-20T09:22:38Z</time>
      </trkpt>
      <trkpt lat="44.76081" lon="2.265">
        <ele>390</ele>
        <time>2023-08-20T09:22:39Z</time>
      </trkpt>
      <trkpt lat="44.7609" lon="2.26505">
        <ele>390</ele>
        <time>2023-08-20T09:22:40Z</time>
      </trkpt>
      <trkpt lat="44.76099" lon="2.26515">
        <ele>390</ele>
        <time>2023-08-20T09:22:41Z</time>
      </trkpt>
      <trkpt lat="44.76108" lon="2.26527">
        <ele>390</ele>
        <time>2023-08-20T09:22:42Z</time>
      </trkpt>
      <trkpt lat="44.76116" lon="2.2654">
        <ele>390</ele>
        <time>2023-08-20T09:22:43Z</time>
      </trkpt>
      <trkpt lat="44.76124" lon="2.26553">
        <ele>390.2</ele>
        <time>2023-08-20T09:22:44Z</time>
      </trkpt>
      <trkpt lat="44.76131" lon="2.26564">
        <ele>390.2</ele>
        <time>2023-08-20T09:22:45Z</time>
      </trkpt>
      <trkpt lat="44.7614" lon="2.26573">
        <ele>390.2</ele>
        <time>2023-08-20T09:22:46Z</time>
      </trkpt>
      <trkpt lat="44.76149" lon="2.26579">
        <ele>390.4</ele>
        <time>2023-08-20T09:22:47Z</time>
      </trkpt>
      <trkpt lat="44.76159" lon="2.26583">
        <ele>390.8</ele>
        <time>2023-08-20T09:22:48Z</time>
      </trkpt>
      <trkpt lat="44.7617" lon="2.26588">
        <ele>391</ele>
        <time>2023-08-20T09:22:49Z</time>
      </trkpt>
      <trkpt lat="44.7618" lon="2.26595">
        <ele>391.2</ele>
        <time>2023-08-20T09:22:50Z</time>
      </trkpt>
      <trkpt lat="44.7619" lon="2.26603">
        <ele>391.4</ele>
        <time>2023-08-20T09:22:51Z</time>
      </trkpt>
      <trkpt lat="44.76199" lon="2.26613">
        <ele>391.8</ele>
        <time>2023-08-20T09:22:52Z</time>
      </trkpt>
      <trkpt lat="44.76206" lon="2.26624">
        <ele>392</ele>
        <time>2023-08-20T09:22:53Z</time>
      </trkpt>
      <trkpt lat="44.76214" lon="2.26636">
        <ele>392</ele>
        <time>2023-08-20T09:22:54Z</time>
      </trkpt>
      <trkpt lat="44.76223" lon="2.26644">
        <ele>392.2</ele>
        <time>2023-08-20T09:22:55Z</time>
      </trkpt>
      <trkpt lat="44.76232" lon="2.26648">
        <ele>392.4</ele>
        <time>2023-08-20T09:22:56Z</time>
      </trkpt>
      <trkpt lat="44.76243" lon="2.2665">
        <ele>392.4</ele>
        <time>2023-08-20T09:22:57Z</time>
      </trkpt>
      <trkpt lat="44.76254" lon="2.2665">
        <ele>392.6</ele>
        <time>2023-08-20T09:22:58Z</time>
      </trkpt>
      <trkpt lat="44.76264" lon="2.26654">
        <ele>392.8</ele>
        <time>2023-08-20T09:22:59Z</time>
      </trkpt>
      <trkpt lat="44.76272" lon="2.26661">
        <ele>392.8</ele>
        <time>2023-08-20T09:23:00Z</time>
      </trkpt>
      <trkpt lat="44.76277" lon="2.26672">
        <ele>392.8</ele>
        <time>2023-08-20T09:23:01Z</time>
      </trkpt>
      <trkpt lat="44.76277" lon="2.26685">
        <ele>393</ele>
        <time>2023-08-20T09:23:02Z</time>
      </trkpt>
      <trkpt lat="44.76275" lon="2.267">
        <ele>393</ele>
        <time>2023-08-20T09:23:03Z</time>
      </trkpt>
      <trkpt lat="44.76273" lon="2.26717">
        <ele>393</ele>
        <time>2023-08-20T09:23:04Z</time>
      </trkpt>
      <trkpt lat="44.76275" lon="2.26732">
        <ele>393.2</ele>
        <time>2023-08-20T09:23:05Z</time>
      </trkpt>
      <trkpt lat="44.76279" lon="2.26747">
        <ele>393.8</ele>
        <time>2023-08-20T09:23:06Z</time>
      </trkpt>
      <trkpt lat="44.76287" lon="2.26762">
        <ele>394</ele>
        <time>2023-08-20T09:23:07Z</time>
      </trkpt>
      <trkpt lat="44.76298" lon="2.26778">
        <ele>394.2</ele>
        <time>2023-08-20T09:23:08Z</time>
      </trkpt>
      <trkpt lat="44.7631" lon="2.26797">
        <ele>395</ele>
        <time>2023-08-20T09:23:09Z</time>
      </trkpt>
      <trkpt lat="44.76321" lon="2.26814">
        <ele>395.2</ele>
        <time>2023-08-20T09:23:10Z</time>
      </trkpt>
      <trkpt lat="44.76333" lon="2.2683">
        <ele>396.6</ele>
        <time>2023-08-20T09:23:11Z</time>
      </trkpt>
      <trkpt lat="44.76345" lon="2.26844">
        <ele>397</ele>
        <time>2023-08-20T09:23:12Z</time>
      </trkpt>
      <trkpt lat="44.76357" lon="2.26857">
        <ele>397.6</ele>
        <time>2023-08-20T09:23:13Z</time>
      </trkpt>
      <trkpt lat="44.76369" lon="2.2687">
        <ele>397.8</ele>
        <time>2023-08-20T09:23:14Z</time>
      </trkpt>
      <trkpt lat="44.76379" lon="2.26883">
        <ele>398</ele>
        <time>2023-08-20T09:23:15Z</time>
      </trkpt>
      <trkpt lat="44.76387" lon="2.26896">
        <ele>398</ele>
        <time>2023-08-20T09:23:16Z</time>
      </trkpt>
      <trkpt lat="44.76394" lon="2.26908">
        <ele>398</ele>
        <time>2023-08-20T09:23:17Z</time>
      </trkpt>
      <trkpt lat="44.76402" lon="2.26921">
        <ele>398.2</ele>
        <time>2023-08-20T09:23:18Z</time>
      </trkpt>
      <trkpt lat="44.76411" lon="2.26934">
        <ele>398.2</ele>
        <time>2023-08-20T09:23:19Z</time>
      </trkpt>
      <trkpt lat="44.7642" lon="2.26948">
        <ele>398.4</ele>
        <time>2023-08-20T09:23:20Z</time>
      </trkpt>
      <trkpt lat="44.76429" lon="2.26965">
        <ele>398.4</ele>
        <time>2023-08-20T09:23:21Z</time>
      </trkpt>
      <trkpt lat="44.76438" lon="2.26985">
        <ele>398.6</ele>
        <time>2023-08-20T09:23:22Z</time>
      </trkpt>
      <trkpt lat="44.76447" lon="2.27005">
        <ele>398.6</ele>
        <time>2023-08-20T09:23:23Z</time>
      </trkpt>
      <trkpt lat="44.76456" lon="2.27024">
        <ele>398.8</ele>
        <time>2023-08-20T09:23:24Z</time>
      </trkpt>
      <trkpt lat="44.76463" lon="2.27041">
        <ele>399.6</ele>
        <time>2023-08-20T09:23:25Z</time>
      </trkpt>
      <trkpt lat="44.7647" lon="2.27057">
        <ele>399.8</ele>
        <time>2023-08-20T09:23:26Z</time>
      </trkpt>
      <trkpt lat="44.76477" lon="2.27073">
        <ele>400</ele>
        <time>2023-08-20T09:23:27Z</time>
      </trkpt>
      <trkpt lat="44.76483" lon="2.27088">
        <ele>400.2</ele>
        <time>2023-08-20T09:23:28Z</time>
      </trkpt>
      <trkpt lat="44.7649" lon="2.27102">
        <ele>400.4</ele>
        <time>2023-08-20T09:23:29Z</time>
      </trkpt>
      <trkpt lat="44.76496" lon="2.27117">
        <ele>400.6</ele>
        <time>2023-08-20T09:23:30Z</time>
      </trkpt>
      <trkpt lat="44.765" lon="2.27132">
        <ele>400.6</ele>
        <time>2023-08-20T09:23:31Z</time>
      </trkpt>
      <trkpt lat="44.76503" lon="2.27147">
        <ele>400.8</ele>
        <time>2023-08-20T09:23:32Z</time>
      </trkpt>
      <trkpt lat="44.76505" lon="2.27164">
        <ele>400.8</ele>
        <time>2023-08-20T09:23:33Z</time>
      </trkpt>
      <trkpt lat="44.76505" lon="2.27181">
        <ele>400.8</ele>
        <time>2023-08-20T09:23:34Z</time>
      </trkpt>
      <trkpt lat="44.76501" lon="2.27201">
        <ele>401</ele>
        <time>2023-08-20T09:23:35Z</time>
      </trkpt>
      <trkpt lat="44.76496" lon="2.27221">
        <ele>401</ele>
        <time>2023-08-20T09:23:36Z</time>
      </trkpt>
      <trkpt lat="44.76491" lon="2.2724">
        <ele>401.2</ele>
        <time>2023-08-20T09:23:37Z</time>
      </trkpt>
      <trkpt lat="44.76487" lon="2.27261">
        <ele>401.6</ele>
        <time>2023-08-20T09:23:38Z</time>
      </trkpt>
      <trkpt lat="44.76482" lon="2.27278">
        <ele>401.6</ele>
        <time>2023-08-20T09:23:39Z</time>
      </trkpt>
      <trkpt lat="44.76477" lon="2.27294">
        <ele>402.2</ele>
        <time>2023-08-20T09:23:40Z</time>
      </trkpt>
      <trkpt lat="44.76471" lon="2.27309">
        <ele>402.2</ele>
        <time>2023-08-20T09:23:41Z</time>
      </trkpt>
      <trkpt lat="44.76466" lon="2.27322">
        <ele>402.6</ele>
        <time>2023-08-20T09:23:42Z</time>
      </trkpt>
      <trkpt lat="44.76463" lon="2.27334">
        <ele>402.6</ele>
        <time>2023-08-20T09:23:43Z</time>
      </trkpt>
      <trkpt lat="44.76465" lon="2.27348">
        <ele>402.8</ele>
        <time>2023-08-20T09:23:44Z</time>
      </trkpt>
      <trkpt lat="44.7647" lon="2.27362">
        <ele>402.8</ele>
        <time>2023-08-20T09:23:45Z</time>
      </trkpt>
      <trkpt lat="44.76479" lon="2.27377">
        <ele>402.8</ele>
        <time>2023-08-20T09:23:46Z</time>
      </trkpt>
      <trkpt lat="44.7649" lon="2.27395">
        <ele>403</ele>
        <time>2023-08-20T09:23:47Z</time>
      </trkpt>
      <trkpt lat="44.765" lon="2.27413">
        <ele>403.2</ele>
        <time>2023-08-20T09:23:48Z</time>
      </trkpt>
      <trkpt lat="44.7651" lon="2.27432">
        <ele>403.2</ele>
        <time>2023-08-20T09:23:49Z</time>
      </trkpt>
      <trkpt lat="44.76519" lon="2.27451">
        <ele>403.2</ele>
        <time>2023-08-20T09:23:50Z</time>
      </trkpt>
      <trkpt lat="44.76525" lon="2.27468">
        <ele>403.8</ele>
        <time>2023-08-20T09:23:51Z</time>
      </trkpt>
      <trkpt lat="44.76529" lon="2.27485">
        <ele>404.6</ele>
        <time>2023-08-20T09:23:52Z</time>
      </trkpt>
      <trkpt lat="44.7653" lon="2.27502">
        <ele>404.6</ele>
        <time>2023-08-20T09:23:53Z</time>
      </trkpt>
      <trkpt lat="44.76529" lon="2.27517">
        <ele>404.8</ele>
        <time>2023-08-20T09:23:54Z</time>
      </trkpt>
      <trkpt lat="44.7653" lon="2.27532">
        <ele>404.8</ele>
        <time>2023-08-20T09:23:55Z</time>
      </trkpt>
      <trkpt lat="44.76532" lon="2.27543">
        <ele>405</ele>
        <time>2023-08-20T09:23:56Z</time>
      </trkpt>
      <trkpt lat="44.7654" lon="2.27555">
        <ele>405</ele>
        <time>2023-08-20T09:23:57Z</time>
      </trkpt>
      <trkpt lat="44.76549" lon="2.27562">
        <ele>405</ele>
        <time>2023-08-20T09:23:58Z</time>
      </trkpt>
      <trkpt lat="44.7656" lon="2.27567">
        <ele>405</ele>
        <time>2023-08-20T09:23:59Z</time>
      </trkpt>
      <trkpt lat="44.7657" lon="2.27572">
        <ele>405</ele>
        <time>2023-08-20T09:24:00Z</time>
      </trkpt>
      <trkpt lat="44.76581" lon="2.27581">
        <ele>405</ele>
        <time>2023-08-20T09:24:01Z</time>
      </trkpt>
      <trkpt lat="44.76594" lon="2.27595">
        <ele>405</ele>
        <time>2023-08-20T09:24:02Z</time>
      </trkpt>
      <trkpt lat="44.76604" lon="2.27606">
        <ele>405</ele>
        <time>2023-08-20T09:24:03Z</time>
      </trkpt>
      <trkpt lat="44.76612" lon="2.27617">
        <ele>405.2</ele>
        <time>2023-08-20T09:24:04Z</time>
      </trkpt>
      <trkpt lat="44.76619" lon="2.27626">
        <ele>405.2</ele>
        <time>2023-08-20T09:24:05Z</time>
      </trkpt>
      <trkpt lat="44.76625" lon="2.27634">
        <ele>405.2</ele>
        <time>2023-08-20T09:24:06Z</time>
      </trkpt>
      <trkpt lat="44.76633" lon="2.27641">
        <ele>405.2</ele>
        <time>2023-08-20T09:24:07Z</time>
      </trkpt>
      <trkpt lat="44.76641" lon="2.27646">
        <ele>405.2</ele>
        <time>2023-08-20T09:24:08Z</time>
      </trkpt>
      <trkpt lat="44.76646" lon="2.27649">
        <ele>405.2</ele>
        <time>2023-08-20T09:24:09Z</time>
      </trkpt>
      <trkpt lat="44.76653" lon="2.2765">
        <ele>405.2</ele>
        <time>2023-08-20T09:24:10Z</time>
      </trkpt>
      <trkpt lat="44.76661" lon="2.27651">
        <ele>405.2</ele>
        <time>2023-08-20T09:24:11Z</time>
      </trkpt>
      <trkpt lat="44.76669" lon="2.27654">
        <ele>405</ele>
        <time>2023-08-20T09:24:12Z</time>
      </trkpt>
      <trkpt lat="44.76677" lon="2.27658">
        <ele>405</ele>
        <time>2023-08-20T09:24:13Z</time>
      </trkpt>
      <trkpt lat="44.76683" lon="2.27668">
        <ele>404.8</ele>
        <time>2023-08-20T09:24:14Z</time>
      </trkpt>
      <trkpt lat="44.76686" lon="2.27693">
        <ele>404.8</ele>
        <time>2023-08-20T09:24:16Z</time>
      </trkpt>
      <trkpt lat="44.76685" lon="2.27704">
        <ele>404.8</ele>
        <time>2023-08-20T09:24:17Z</time>
      </trkpt>
      <trkpt lat="44.76687" lon="2.27717">
        <ele>404.8</ele>
        <time>2023-08-20T09:24:18Z</time>
      </trkpt>
      <trkpt lat="44.76691" lon="2.2773">
        <ele>405</ele>
        <time>2023-08-20T09:24:19Z</time>
      </trkpt>
      <trkpt lat="44.76696" lon="2.27737">
        <ele>405</ele>
        <time>2023-08-20T09:24:20Z</time>
      </trkpt>
      <trkpt lat="44.76705" lon="2.27743">
        <ele>405.2</ele>
        <time>2023-08-20T09:24:21Z</time>
      </trkpt>
      <trkpt lat="44.76716" lon="2.27745">
        <ele>405.2</ele>
        <time>2023-08-20T09:24:22Z</time>
      </trkpt>
      <trkpt lat="44.76729" lon="2.27746">
        <ele>405.6</ele>
        <time>2023-08-20T09:24:23Z</time>
      </trkpt>
      <trkpt lat="44.76753" lon="2.27748">
        <ele>406</ele>
        <time>2023-08-20T09:24:25Z</time>
      </trkpt>
      <trkpt lat="44.76777" lon="2.27769">
        <ele>406.6</ele>
        <time>2023-08-20T09:24:27Z</time>
      </trkpt>
      <trkpt lat="44.76789" lon="2.27786">
        <ele>407.2</ele>
        <time>2023-08-20T09:24:28Z</time>
      </trkpt>
      <trkpt lat="44.76805" lon="2.2781">
        <ele>408</ele>
        <time>2023-08-20T09:24:30Z</time>
      </trkpt>
      <trkpt lat="44.76815" lon="2.27821">
        <ele>408.4</ele>
        <time>2023-08-20T09:24:31Z</time>
      </trkpt>
      <trkpt lat="44.76825" lon="2.27825">
        <ele>409</ele>
        <time>2023-08-20T09:24:32Z</time>
      </trkpt>
      <trkpt lat="44.76835" lon="2.27824">
        <ele>409</ele>
        <time>2023-08-20T09:24:33Z</time>
      </trkpt>
      <trkpt lat="44.76842" lon="2.27822">
        <ele>409.2</ele>
        <time>2023-08-20T09:24:34Z</time>
      </trkpt>
      <trkpt lat="44.76851" lon="2.27819">
        <ele>409.4</ele>
        <time>2023-08-20T09:24:35Z</time>
      </trkpt>
      <trkpt lat="44.76859" lon="2.27819">
        <ele>409.4</ele>
        <time>2023-08-20T09:24:36Z</time>
      </trkpt>
      <trkpt lat="44.76866" lon="2.27822">
        <ele>409.4</ele>
        <time>2023-08-20T09:24:37Z</time>
      </trkpt>
      <trkpt lat="44.76873" lon="2.27831">
        <ele>409.6</ele>
        <time>2023-08-20T09:24:38Z</time>
      </trkpt>
      <trkpt lat="44.76877" lon="2.27842">
        <ele>409.6</ele>
        <time>2023-08-20T09:24:39Z</time>
      </trkpt>
      <trkpt lat="44.76879" lon="2.27852">
        <ele>409.6</ele>
        <time>2023-08-20T09:24:40Z</time>
      </trkpt>
      <trkpt lat="44.76878" lon="2.27863">
        <ele>409.6</ele>
        <time>2023-08-20T09:24:41Z</time>
      </trkpt>
      <trkpt lat="44.76877" lon="2.27875">
        <ele>409.6</ele>
        <time>2023-08-20T09:24:42Z</time>
      </trkpt>
      <trkpt lat="44.76876" lon="2.27888">
        <ele>409.6</ele>
        <time>2023-08-20T09:24:43Z</time>
      </trkpt>
      <trkpt lat="44.76877" lon="2.27901">
        <ele>409.8</ele>
        <time>2023-08-20T09:24:44Z</time>
      </trkpt>
      <trkpt lat="44.76878" lon="2.27915">
        <ele>409.8</ele>
        <time>2023-08-20T09:24:45Z</time>
      </trkpt>
      <trkpt lat="44.7688" lon="2.27929">
        <ele>410.2</ele>
        <time>2023-08-20T09:24:46Z</time>
      </trkpt>
      <trkpt lat="44.76881" lon="2.27944">
        <ele>410.2</ele>
        <time>2023-08-20T09:24:47Z</time>
      </trkpt>
      <trkpt lat="44.76881" lon="2.27955">
        <ele>410.6</ele>
        <time>2023-08-20T09:24:48Z</time>
      </trkpt>
      <trkpt lat="44.76879" lon="2.27968">
        <ele>410.8</ele>
        <time>2023-08-20T09:24:49Z</time>
      </trkpt>
      <trkpt lat="44.76877" lon="2.27983">
        <ele>411</ele>
        <time>2023-08-20T09:24:50Z</time>
      </trkpt>
      <trkpt lat="44.76874" lon="2.27994">
        <ele>411.2</ele>
        <time>2023-08-20T09:24:51Z</time>
      </trkpt>
      <trkpt lat="44.76872" lon="2.28004">
        <ele>411.2</ele>
        <time>2023-08-20T09:24:52Z</time>
      </trkpt>
      <trkpt lat="44.76869" lon="2.28014">
        <ele>411.4</ele>
        <time>2023-08-20T09:24:53Z</time>
      </trkpt>
      <trkpt lat="44.76866" lon="2.28025">
        <ele>411.4</ele>
        <time>2023-08-20T09:24:54Z</time>
      </trkpt>
      <trkpt lat="44.76862" lon="2.28035">
        <ele>411.6</ele>
        <time>2023-08-20T09:24:55Z</time>
      </trkpt>
      <trkpt lat="44.76858" lon="2.28046">
        <ele>411.6</ele>
        <time>2023-08-20T09:24:56Z</time>
      </trkpt>
      <trkpt lat="44.76854" lon="2.28057">
        <ele>411.8</ele>
        <time>2023-08-20T09:24:57Z</time>
      </trkpt>
      <trkpt lat="44.7685" lon="2.28067">
        <ele>411.8</ele>
        <time>2023-08-20T09:24:58Z</time>
      </trkpt>
      <trkpt lat="44.76846" lon="2.28077">
        <ele>412</ele>
        <time>2023-08-20T09:24:59Z</time>
      </trkpt>
      <trkpt lat="44.76843" lon="2.28087">
        <ele>412</ele>
        <time>2023-08-20T09:25:00Z</time>
      </trkpt>
      <trkpt lat="44.76842" lon="2.28097">
        <ele>412</ele>
        <time>2023-08-20T09:25:01Z</time>
      </trkpt>
      <trkpt lat="44.76842" lon="2.28105">
        <ele>412.2</ele>
        <time>2023-08-20T09:25:02Z</time>
      </trkpt>
      <trkpt lat="44.76843" lon="2.28113">
        <ele>412.2</ele>
        <time>2023-08-20T09:25:03Z</time>
      </trkpt>
      <trkpt lat="44.76844" lon="2.2812">
        <ele>412</ele>
        <time>2023-08-20T09:25:04Z</time>
      </trkpt>
      <trkpt lat="44.76847" lon="2.28126">
        <ele>412</ele>
        <time>2023-08-20T09:25:05Z</time>
      </trkpt>
      <trkpt lat="44.7685" lon="2.28132">
        <ele>412</ele>
        <time>2023-08-20T09:25:06Z</time>
      </trkpt>
      <trkpt lat="44.76855" lon="2.28137">
        <ele>412.2</ele>
        <time>2023-08-20T09:25:07Z</time>
      </trkpt>
      <trkpt lat="44.76862" lon="2.28139">
        <ele>412.2</ele>
        <time>2023-08-20T09:25:08Z</time>
      </trkpt>
      <trkpt lat="44.76871" lon="2.28139">
        <ele>412</ele>
        <time>2023-08-20T09:25:09Z</time>
      </trkpt>
      <trkpt lat="44.7688" lon="2.28139">
        <ele>412</ele>
        <time>2023-08-20T09:25:10Z</time>
      </trkpt>
      <trkpt lat="44.7689" lon="2.28139">
        <ele>412.2</ele>
        <time>2023-08-20T09:25:11Z</time>
      </trkpt>
      <trkpt lat="44.769" lon="2.2814">
        <ele>412.2</ele>
        <time>2023-08-20T09:25:12Z</time>
      </trkpt>
      <trkpt lat="44.76922" lon="2.28148">
        <ele>412.4</ele>
        <time>2023-08-20T09:25:14Z</time>
      </trkpt>
      <trkpt lat="44.76931" lon="2.28154">
        <ele>412.6</ele>
        <time>2023-08-20T09:25:15Z</time>
      </trkpt>
      <trkpt lat="44.7694" lon="2.28159">
        <ele>412.6</ele>
        <time>2023-08-20T09:25:16Z</time>
      </trkpt>
      <trkpt lat="44.76949" lon="2.28163">
        <ele>412.8</ele>
        <time>2023-08-20T09:25:17Z</time>
      </trkpt>
      <trkpt lat="44.76957" lon="2.28164">
        <ele>413</ele>
        <time>2023-08-20T09:25:18Z</time>
      </trkpt>
      <trkpt lat="44.76965" lon="2.28163">
        <ele>413.2</ele>
        <time>2023-08-20T09:25:19Z</time>
      </trkpt>
      <trkpt lat="44.76972" lon="2.28159">
        <ele>413.4</ele>
        <time>2023-08-20T09:25:20Z</time>
      </trkpt>
      <trkpt lat="44.76977" lon="2.28153">
        <ele>413.4</ele>
        <time>2023-08-20T09:25:21Z</time>
      </trkpt>
      <trkpt lat="44.76983" lon="2.28144">
        <ele>413.6</ele>
        <time>2023-08-20T09:25:22Z</time>
      </trkpt>
      <trkpt lat="44.76988" lon="2.28136">
        <ele>413.6</ele>
        <time>2023-08-20T09:25:23Z</time>
      </trkpt>
      <trkpt lat="44.76994" lon="2.28128">
        <ele>413.8</ele>
        <time>2023-08-20T09:25:24Z</time>
      </trkpt>
      <trkpt lat="44.77009" lon="2.28109">
        <ele>414</ele>
        <time>2023-08-20T09:25:26Z</time>
      </trkpt>
      <trkpt lat="44.77018" lon="2.28102">
        <ele>414</ele>
        <time>2023-08-20T09:25:27Z</time>
      </trkpt>
      <trkpt lat="44.77027" lon="2.28097">
        <ele>414</ele>
        <time>2023-08-20T09:25:28Z</time>
      </trkpt>
      <trkpt lat="44.77038" lon="2.28094">
        <ele>414.2</ele>
        <time>2023-08-20T09:25:29Z</time>
      </trkpt>
      <trkpt lat="44.77049" lon="2.28095">
        <ele>414.4</ele>
        <time>2023-08-20T09:25:30Z</time>
      </trkpt>
      <trkpt lat="44.77061" lon="2.28097">
        <ele>414.4</ele>
        <time>2023-08-20T09:25:31Z</time>
      </trkpt>
      <trkpt lat="44.77073" lon="2.28097">
        <ele>414.6</ele>
        <time>2023-08-20T09:25:32Z</time>
      </trkpt>
      <trkpt lat="44.77094" lon="2.28093">
        <ele>414.6</ele>
        <time>2023-08-20T09:25:34Z</time>
      </trkpt>
      <trkpt lat="44.77103" lon="2.2809">
        <ele>414.6</ele>
        <time>2023-08-20T09:25:35Z</time>
      </trkpt>
      <trkpt lat="44.77111" lon="2.28086">
        <ele>414.6</ele>
        <time>2023-08-20T09:25:36Z</time>
      </trkpt>
      <trkpt lat="44.77119" lon="2.28083">
        <ele>414.4</ele>
        <time>2023-08-20T09:25:37Z</time>
      </trkpt>
      <trkpt lat="44.77126" lon="2.28082">
        <ele>414.4</ele>
        <time>2023-08-20T09:25:38Z</time>
      </trkpt>
      <trkpt lat="44.77133" lon="2.28082">
        <ele>414.4</ele>
        <time>2023-08-20T09:25:39Z</time>
      </trkpt>
      <trkpt lat="44.7714" lon="2.28083">
        <ele>414.2</ele>
        <time>2023-08-20T09:25:40Z</time>
      </trkpt>
      <trkpt lat="44.77146" lon="2.28087">
        <ele>414</ele>
        <time>2023-08-20T09:25:41Z</time>
      </trkpt>
      <trkpt lat="44.77151" lon="2.28093">
        <ele>413.8</ele>
        <time>2023-08-20T09:25:42Z</time>
      </trkpt>
      <trkpt lat="44.77156" lon="2.28101">
        <ele>413.4</ele>
        <time>2023-08-20T09:25:43Z</time>
      </trkpt>
      <trkpt lat="44.7716" lon="2.28111">
        <ele>413.4</ele>
        <time>2023-08-20T09:25:44Z</time>
      </trkpt>
      <trkpt lat="44.77164" lon="2.28121">
        <ele>413.2</ele>
        <time>2023-08-20T09:25:45Z</time>
      </trkpt>
      <trkpt lat="44.77169" lon="2.2813">
        <ele>413.2</ele>
        <time>2023-08-20T09:25:46Z</time>
      </trkpt>
      <trkpt lat="44.77188" lon="2.28152">
        <ele>413</ele>
        <time>2023-08-20T09:25:49Z</time>
      </trkpt>
      <trkpt lat="44.77194" lon="2.28158">
        <ele>413</ele>
        <time>2023-08-20T09:25:50Z</time>
      </trkpt>
      <trkpt lat="44.77199" lon="2.28166">
        <ele>413</ele>
        <time>2023-08-20T09:25:51Z</time>
      </trkpt>
      <trkpt lat="44.77203" lon="2.28175">
        <ele>413</ele>
        <time>2023-08-20T09:25:52Z</time>
      </trkpt>
      <trkpt lat="44.77205" lon="2.28183">
        <ele>412.8</ele>
        <time>2023-08-20T09:25:53Z</time>
      </trkpt>
      <trkpt lat="44.77205" lon="2.28194">
        <ele>413</ele>
        <time>2023-08-20T09:25:54Z</time>
      </trkpt>
      <trkpt lat="44.77205" lon="2.28202">
        <ele>413</ele>
        <time>2023-08-20T09:25:55Z</time>
      </trkpt>
      <trkpt lat="44.77207" lon="2.2821">
        <ele>412.8</ele>
        <time>2023-08-20T09:25:56Z</time>
      </trkpt>
      <trkpt lat="44.77209" lon="2.2822">
        <ele>412.8</ele>
        <time>2023-08-20T09:25:57Z</time>
      </trkpt>
      <trkpt lat="44.77213" lon="2.28229">
        <ele>412.8</ele>
        <time>2023-08-20T09:25:58Z</time>
      </trkpt>
      <trkpt lat="44.77217" lon="2.2824">
        <ele>412.8</ele>
        <time>2023-08-20T09:25:59Z</time>
      </trkpt>
      <trkpt lat="44.77221" lon="2.28253">
        <ele>412.8</ele>
        <time>2023-08-20T09:26:00Z</time>
      </trkpt>
      <trkpt lat="44.7723" lon="2.2828">
        <ele>413</ele>
        <time>2023-08-20T09:26:02Z</time>
      </trkpt>
      <trkpt lat="44.77246" lon="2.28335">
        <ele>413.4</ele>
        <time>2023-08-20T09:26:06Z</time>
      </trkpt>
      <trkpt lat="44.77251" lon="2.28346">
        <ele>413.6</ele>
        <time>2023-08-20T09:26:07Z</time>
      </trkpt>
      <trkpt lat="44.77256" lon="2.28354">
        <ele>413.6</ele>
        <time>2023-08-20T09:26:08Z</time>
      </trkpt>
      <trkpt lat="44.77262" lon="2.28359">
        <ele>413.6</ele>
        <time>2023-08-20T09:26:09Z</time>
      </trkpt>
      <trkpt lat="44.77269" lon="2.28363">
        <ele>413.8</ele>
        <time>2023-08-20T09:26:10Z</time>
      </trkpt>
      <trkpt lat="44.77277" lon="2.28367">
        <ele>413.8</ele>
        <time>2023-08-20T09:26:11Z</time>
      </trkpt>
      <trkpt lat="44.77286" lon="2.2837">
        <ele>413.6</ele>
        <time>2023-08-20T09:26:12Z</time>
      </trkpt>
      <trkpt lat="44.77296" lon="2.28373">
        <ele>413.6</ele>
        <time>2023-08-20T09:26:13Z</time>
      </trkpt>
      <trkpt lat="44.77337" lon="2.28388">
        <ele>413.6</ele>
        <time>2023-08-20T09:26:17Z</time>
      </trkpt>
      <trkpt lat="44.77348" lon="2.2839">
        <ele>413.6</ele>
        <time>2023-08-20T09:26:18Z</time>
      </trkpt>
      <trkpt lat="44.77378" lon="2.28385">
        <ele>413.6</ele>
        <time>2023-08-20T09:26:21Z</time>
      </trkpt>
      <trkpt lat="44.77389" lon="2.2838">
        <ele>413.6</ele>
        <time>2023-08-20T09:26:22Z</time>
      </trkpt>
      <trkpt lat="44.77412" lon="2.28374">
        <ele>413.6</ele>
        <time>2023-08-20T09:26:24Z</time>
      </trkpt>
      <trkpt lat="44.77423" lon="2.28377">
        <ele>413.8</ele>
        <time>2023-08-20T09:26:25Z</time>
      </trkpt>
      <trkpt lat="44.77433" lon="2.28385">
        <ele>414</ele>
        <time>2023-08-20T09:26:26Z</time>
      </trkpt>
      <trkpt lat="44.77442" lon="2.28398">
        <ele>414</ele>
        <time>2023-08-20T09:26:27Z</time>
      </trkpt>
      <trkpt lat="44.77449" lon="2.28417">
        <ele>414.2</ele>
        <time>2023-08-20T09:26:28Z</time>
      </trkpt>
      <trkpt lat="44.7746" lon="2.28443">
        <ele>414.2</ele>
        <time>2023-08-20T09:26:30Z</time>
      </trkpt>
      <trkpt lat="44.77466" lon="2.28452">
        <ele>414.4</ele>
        <time>2023-08-20T09:26:31Z</time>
      </trkpt>
      <trkpt lat="44.77472" lon="2.28456">
        <ele>414.6</ele>
        <time>2023-08-20T09:26:32Z</time>
      </trkpt>
      <trkpt lat="44.77481" lon="2.28459">
        <ele>414.6</ele>
        <time>2023-08-20T09:26:33Z</time>
      </trkpt>
      <trkpt lat="44.77488" lon="2.28459">
        <ele>414.6</ele>
        <time>2023-08-20T09:26:34Z</time>
      </trkpt>
      <trkpt lat="44.77495" lon="2.28457">
        <ele>414.6</ele>
        <time>2023-08-20T09:26:35Z</time>
      </trkpt>
      <trkpt lat="44.77502" lon="2.28453">
        <ele>414.6</ele>
        <time>2023-08-20T09:26:36Z</time>
      </trkpt>
      <trkpt lat="44.77508" lon="2.28448">
        <ele>414.6</ele>
        <time>2023-08-20T09:26:37Z</time>
      </trkpt>
      <trkpt lat="44.77515" lon="2.28444">
        <ele>414.6</ele>
        <time>2023-08-20T09:26:38Z</time>
      </trkpt>
      <trkpt lat="44.77557" lon="2.2842">
        <ele>414.6</ele>
        <time>2023-08-20T09:26:44Z</time>
      </trkpt>
      <trkpt lat="44.77582" lon="2.28418">
        <ele>414.6</ele>
        <time>2023-08-20T09:26:47Z</time>
      </trkpt>
      <trkpt lat="44.77592" lon="2.28419">
        <ele>414.8</ele>
        <time>2023-08-20T09:26:48Z</time>
      </trkpt>
      <trkpt lat="44.77607" lon="2.28426">
        <ele>414.8</ele>
        <time>2023-08-20T09:26:49Z</time>
      </trkpt>
      <trkpt lat="44.77633" lon="2.28446">
        <ele>415.6</ele>
        <time>2023-08-20T09:26:51Z</time>
      </trkpt>
      <trkpt lat="44.77647" lon="2.2846">
        <ele>415.8</ele>
        <time>2023-08-20T09:26:52Z</time>
      </trkpt>
      <trkpt lat="44.77662" lon="2.28477">
        <ele>417</ele>
        <time>2023-08-20T09:26:53Z</time>
      </trkpt>
      <trkpt lat="44.7767" lon="2.28489">
        <ele>417.4</ele>
        <time>2023-08-20T09:26:54Z</time>
      </trkpt>
      <trkpt lat="44.77678" lon="2.28505">
        <ele>418</ele>
        <time>2023-08-20T09:26:55Z</time>
      </trkpt>
      <trkpt lat="44.77686" lon="2.28526">
        <ele>418</ele>
        <time>2023-08-20T09:26:56Z</time>
      </trkpt>
      <trkpt lat="44.77692" lon="2.28546">
        <ele>418.2</ele>
        <time>2023-08-20T09:26:57Z</time>
      </trkpt>
      <trkpt lat="44.77697" lon="2.28565">
        <ele>418.2</ele>
        <time>2023-08-20T09:26:58Z</time>
      </trkpt>
      <trkpt lat="44.77703" lon="2.28581">
        <ele>418.2</ele>
        <time>2023-08-20T09:26:59Z</time>
      </trkpt>
      <trkpt lat="44.77708" lon="2.28598">
        <ele>418.2</ele>
        <time>2023-08-20T09:27:00Z</time>
      </trkpt>
      <trkpt lat="44.77712" lon="2.28611">
        <ele>418.2</ele>
        <time>2023-08-20T09:27:01Z</time>
      </trkpt>
      <trkpt lat="44.77715" lon="2.28626">
        <ele>418.2</ele>
        <time>2023-08-20T09:27:02Z</time>
      </trkpt>
      <trkpt lat="44.77718" lon="2.28639">
        <ele>418</ele>
        <time>2023-08-20T09:27:03Z</time>
      </trkpt>
      <trkpt lat="44.7772" lon="2.28653">
        <ele>417.8</ele>
        <time>2023-08-20T09:27:04Z</time>
      </trkpt>
      <trkpt lat="44.77722" lon="2.28664">
        <ele>417.8</ele>
        <time>2023-08-20T09:27:05Z</time>
      </trkpt>
      <trkpt lat="44.77724" lon="2.28673">
        <ele>417.4</ele>
        <time>2023-08-20T09:27:06Z</time>
      </trkpt>
      <trkpt lat="44.77725" lon="2.28683">
        <ele>417.4</ele>
        <time>2023-08-20T09:27:07Z</time>
      </trkpt>
      <trkpt lat="44.77726" lon="2.28693">
        <ele>417</ele>
        <time>2023-08-20T09:27:08Z</time>
      </trkpt>
      <trkpt lat="44.77727" lon="2.28704">
        <ele>416.6</ele>
        <time>2023-08-20T09:27:09Z</time>
      </trkpt>
      <trkpt lat="44.77729" lon="2.28715">
        <ele>416.4</ele>
        <time>2023-08-20T09:27:10Z</time>
      </trkpt>
      <trkpt lat="44.77729" lon="2.28727">
        <ele>416.2</ele>
        <time>2023-08-20T09:27:11Z</time>
      </trkpt>
      <trkpt lat="44.7773" lon="2.28738">
        <ele>416.2</ele>
        <time>2023-08-20T09:27:12Z</time>
      </trkpt>
      <trkpt lat="44.77729" lon="2.28783">
        <ele>415.6</ele>
        <time>2023-08-20T09:27:16Z</time>
      </trkpt>
      <trkpt lat="44.77728" lon="2.28797">
        <ele>415.6</ele>
        <time>2023-08-20T09:27:17Z</time>
      </trkpt>
      <trkpt lat="44.77724" lon="2.28828">
        <ele>415.6</ele>
        <time>2023-08-20T09:27:20Z</time>
      </trkpt>
      <trkpt lat="44.77725" lon="2.2884">
        <ele>415.6</ele>
        <time>2023-08-20T09:27:21Z</time>
      </trkpt>
      <trkpt lat="44.77726" lon="2.28849">
        <ele>415.6</ele>
        <time>2023-08-20T09:27:22Z</time>
      </trkpt>
      <trkpt lat="44.77729" lon="2.28857">
        <ele>415.8</ele>
        <time>2023-08-20T09:27:23Z</time>
      </trkpt>
      <trkpt lat="44.77734" lon="2.28865">
        <ele>415.8</ele>
        <time>2023-08-20T09:27:24Z</time>
      </trkpt>
      <trkpt lat="44.77738" lon="2.2887">
        <ele>416</ele>
        <time>2023-08-20T09:27:25Z</time>
      </trkpt>
      <trkpt lat="44.77745" lon="2.28878">
        <ele>416</ele>
        <time>2023-08-20T09:27:26Z</time>
      </trkpt>
      <trkpt lat="44.77751" lon="2.28882">
        <ele>416</ele>
        <time>2023-08-20T09:27:27Z</time>
      </trkpt>
      <trkpt lat="44.77758" lon="2.28885">
        <ele>416</ele>
        <time>2023-08-20T09:27:28Z</time>
      </trkpt>
      <trkpt lat="44.77765" lon="2.28887">
        <ele>416.2</ele>
        <time>2023-08-20T09:27:29Z</time>
      </trkpt>
      <trkpt lat="44.77772" lon="2.28888">
        <ele>416.2</ele>
        <time>2023-08-20T09:27:30Z</time>
      </trkpt>
      <trkpt lat="44.77778" lon="2.28888">
        <ele>416.4</ele>
        <time>2023-08-20T09:27:31Z</time>
      </trkpt>
      <trkpt lat="44.77785" lon="2.28886">
        <ele>416.4</ele>
        <time>2023-08-20T09:27:32Z</time>
      </trkpt>
      <trkpt lat="44.77791" lon="2.28884">
        <ele>416.6</ele>
        <time>2023-08-20T09:27:33Z</time>
      </trkpt>
      <trkpt lat="44.77795" lon="2.28881">
        <ele>416.6</ele>
        <time>2023-08-20T09:27:34Z</time>
      </trkpt>
      <trkpt lat="44.77801" lon="2.28878">
        <ele>416.8</ele>
        <time>2023-08-20T09:27:35Z</time>
      </trkpt>
      <trkpt lat="44.77821" lon="2.28863">
        <ele>417.2</ele>
        <time>2023-08-20T09:27:38Z</time>
      </trkpt>
      <trkpt lat="44.77827" lon="2.2886">
        <ele>417.2</ele>
        <time>2023-08-20T09:27:39Z</time>
      </trkpt>
      <trkpt lat="44.77836" lon="2.28858">
        <ele>417.6</ele>
        <time>2023-08-20T09:27:40Z</time>
      </trkpt>
      <trkpt lat="44.77851" lon="2.28866">
        <ele>417.8</ele>
        <time>2023-08-20T09:27:42Z</time>
      </trkpt>
      <trkpt lat="44.77867" lon="2.28885">
        <ele>418.2</ele>
        <time>2023-08-20T09:27:44Z</time>
      </trkpt>
      <trkpt lat="44.77875" lon="2.28899">
        <ele>418.4</ele>
        <time>2023-08-20T09:27:45Z</time>
      </trkpt>
      <trkpt lat="44.77896" lon="2.28936">
        <ele>419.4</ele>
        <time>2023-08-20T09:27:48Z</time>
      </trkpt>
      <trkpt lat="44.77902" lon="2.28948">
        <ele>420.2</ele>
        <time>2023-08-20T09:27:49Z</time>
      </trkpt>
      <trkpt lat="44.77911" lon="2.28964">
        <ele>420.8</ele>
        <time>2023-08-20T09:27:50Z</time>
      </trkpt>
      <trkpt lat="44.77918" lon="2.2898">
        <ele>421</ele>
        <time>2023-08-20T09:27:51Z</time>
      </trkpt>
      <trkpt lat="44.77926" lon="2.28992">
        <ele>421.4</ele>
        <time>2023-08-20T09:27:52Z</time>
      </trkpt>
      <trkpt lat="44.77935" lon="2.29008">
        <ele>421.6</ele>
        <time>2023-08-20T09:27:53Z</time>
      </trkpt>
      <trkpt lat="44.77944" lon="2.29023">
        <ele>422.6</ele>
        <time>2023-08-20T09:27:54Z</time>
      </trkpt>
      <trkpt lat="44.77955" lon="2.29037">
        <ele>422.8</ele>
        <time>2023-08-20T09:27:55Z</time>
      </trkpt>
      <trkpt lat="44.77965" lon="2.29049">
        <ele>423.6</ele>
        <time>2023-08-20T09:27:56Z</time>
      </trkpt>
      <trkpt lat="44.77978" lon="2.2906">
        <ele>423.8</ele>
        <time>2023-08-20T09:27:57Z</time>
      </trkpt>
      <trkpt lat="44.77987" lon="2.29065">
        <ele>424.6</ele>
        <time>2023-08-20T09:27:58Z</time>
      </trkpt>
      <trkpt lat="44.77999" lon="2.29068">
        <ele>425.2</ele>
        <time>2023-08-20T09:27:59Z</time>
      </trkpt>
      <trkpt lat="44.78013" lon="2.29072">
        <ele>425.4</ele>
        <time>2023-08-20T09:28:00Z</time>
      </trkpt>
      <trkpt lat="44.78022" lon="2.29076">
        <ele>425.6</ele>
        <time>2023-08-20T09:28:01Z</time>
      </trkpt>
      <trkpt lat="44.78036" lon="2.29085">
        <ele>425.8</ele>
        <time>2023-08-20T09:28:02Z</time>
      </trkpt>
      <trkpt lat="44.78045" lon="2.29093">
        <ele>426</ele>
        <time>2023-08-20T09:28:03Z</time>
      </trkpt>
      <trkpt lat="44.78056" lon="2.29104">
        <ele>426.2</ele>
        <time>2023-08-20T09:28:04Z</time>
      </trkpt>
      <trkpt lat="44.78067" lon="2.29116">
        <ele>426.4</ele>
        <time>2023-08-20T09:28:05Z</time>
      </trkpt>
      <trkpt lat="44.78078" lon="2.2913">
        <ele>426.6</ele>
        <time>2023-08-20T09:28:06Z</time>
      </trkpt>
      <trkpt lat="44.78088" lon="2.29148">
        <ele>426.8</ele>
        <time>2023-08-20T09:28:07Z</time>
      </trkpt>
      <trkpt lat="44.78093" lon="2.29161">
        <ele>427.2</ele>
        <time>2023-08-20T09:28:08Z</time>
      </trkpt>
      <trkpt lat="44.78098" lon="2.29181">
        <ele>427.4</ele>
        <time>2023-08-20T09:28:09Z</time>
      </trkpt>
      <trkpt lat="44.781" lon="2.29199">
        <ele>428.4</ele>
        <time>2023-08-20T09:28:10Z</time>
      </trkpt>
      <trkpt lat="44.781" lon="2.29218">
        <ele>428.8</ele>
        <time>2023-08-20T09:28:11Z</time>
      </trkpt>
      <trkpt lat="44.781" lon="2.29235">
        <ele>429.4</ele>
        <time>2023-08-20T09:28:12Z</time>
      </trkpt>
      <trkpt lat="44.78099" lon="2.29255">
        <ele>429.8</ele>
        <time>2023-08-20T09:28:13Z</time>
      </trkpt>
      <trkpt lat="44.78098" lon="2.29278">
        <ele>430.4</ele>
        <time>2023-08-20T09:28:14Z</time>
      </trkpt>
      <trkpt lat="44.78097" lon="2.29297">
        <ele>430.8</ele>
        <time>2023-08-20T09:28:15Z</time>
      </trkpt>
      <trkpt lat="44.78095" lon="2.29314">
        <ele>430.8</ele>
        <time>2023-08-20T09:28:16Z</time>
      </trkpt>
      <trkpt lat="44.78093" lon="2.29329">
        <ele>431.8</ele>
        <time>2023-08-20T09:28:17Z</time>
      </trkpt>
      <trkpt lat="44.7809" lon="2.29347">
        <ele>432</ele>
        <time>2023-08-20T09:28:18Z</time>
      </trkpt>
      <trkpt lat="44.78084" lon="2.29368">
        <ele>432.4</ele>
        <time>2023-08-20T09:28:19Z</time>
      </trkpt>
      <trkpt lat="44.7808" lon="2.29387">
        <ele>432.8</ele>
        <time>2023-08-20T09:28:20Z</time>
      </trkpt>
      <trkpt lat="44.78074" lon="2.29404">
        <ele>433</ele>
        <time>2023-08-20T09:28:21Z</time>
      </trkpt>
      <trkpt lat="44.7807" lon="2.29418">
        <ele>433.4</ele>
        <time>2023-08-20T09:28:22Z</time>
      </trkpt>
      <trkpt lat="44.78067" lon="2.29434">
        <ele>433.8</ele>
        <time>2023-08-20T09:28:23Z</time>
      </trkpt>
      <trkpt lat="44.78066" lon="2.29453">
        <ele>434.2</ele>
        <time>2023-08-20T09:28:24Z</time>
      </trkpt>
      <trkpt lat="44.78067" lon="2.29469">
        <ele>434.4</ele>
        <time>2023-08-20T09:28:25Z</time>
      </trkpt>
      <trkpt lat="44.78069" lon="2.29484">
        <ele>434.8</ele>
        <time>2023-08-20T09:28:26Z</time>
      </trkpt>
      <trkpt lat="44.7807" lon="2.29497">
        <ele>435</ele>
        <time>2023-08-20T09:28:27Z</time>
      </trkpt>
      <trkpt lat="44.7807" lon="2.29518">
        <ele>435.2</ele>
        <time>2023-08-20T09:28:28Z</time>
      </trkpt>
      <trkpt lat="44.7807" lon="2.29536">
        <ele>435.2</ele>
        <time>2023-08-20T09:28:29Z</time>
      </trkpt>
      <trkpt lat="44.78071" lon="2.29552">
        <ele>435.6</ele>
        <time>2023-08-20T09:28:30Z</time>
      </trkpt>
      <trkpt lat="44.78074" lon="2.29567">
        <ele>436</ele>
        <time>2023-08-20T09:28:31Z</time>
      </trkpt>
      <trkpt lat="44.78078" lon="2.29578">
        <ele>436.6</ele>
        <time>2023-08-20T09:28:32Z</time>
      </trkpt>
      <trkpt lat="44.78083" lon="2.29587">
        <ele>436.8</ele>
        <time>2023-08-20T09:28:33Z</time>
      </trkpt>
      <trkpt lat="44.78091" lon="2.29589">
        <ele>437.2</ele>
        <time>2023-08-20T09:28:34Z</time>
      </trkpt>
      <trkpt lat="44.78099" lon="2.29589">
        <ele>437.6</ele>
        <time>2023-08-20T09:28:35Z</time>
      </trkpt>
      <trkpt lat="44.78106" lon="2.2959">
        <ele>437.8</ele>
        <time>2023-08-20T09:28:36Z</time>
      </trkpt>
      <trkpt lat="44.78119" lon="2.29586">
        <ele>438.2</ele>
        <time>2023-08-20T09:28:37Z</time>
      </trkpt>
      <trkpt lat="44.78136" lon="2.29584">
        <ele>438.4</ele>
        <time>2023-08-20T09:28:38Z</time>
      </trkpt>
      <trkpt lat="44.7815" lon="2.29582">
        <ele>438.8</ele>
        <time>2023-08-20T09:28:39Z</time>
      </trkpt>
      <trkpt lat="44.78161" lon="2.29583">
        <ele>439</ele>
        <time>2023-08-20T09:28:40Z</time>
      </trkpt>
      <trkpt lat="44.78176" lon="2.29585">
        <ele>439.8</ele>
        <time>2023-08-20T09:28:41Z</time>
      </trkpt>
      <trkpt lat="44.78185" lon="2.29586">
        <ele>440.6</ele>
        <time>2023-08-20T09:28:42Z</time>
      </trkpt>
      <trkpt lat="44.78196" lon="2.29587">
        <ele>440.8</ele>
        <time>2023-08-20T09:28:43Z</time>
      </trkpt>
      <trkpt lat="44.78207" lon="2.29586">
        <ele>441.2</ele>
        <time>2023-08-20T09:28:44Z</time>
      </trkpt>
      <trkpt lat="44.78217" lon="2.29582">
        <ele>441.4</ele>
        <time>2023-08-20T09:28:45Z</time>
      </trkpt>
      <trkpt lat="44.78225" lon="2.29576">
        <ele>441.8</ele>
        <time>2023-08-20T09:28:46Z</time>
      </trkpt>
      <trkpt lat="44.78237" lon="2.29567">
        <ele>441.8</ele>
        <time>2023-08-20T09:28:47Z</time>
      </trkpt>
      <trkpt lat="44.78247" lon="2.2956">
        <ele>442</ele>
        <time>2023-08-20T09:28:48Z</time>
      </trkpt>
      <trkpt lat="44.78256" lon="2.29551">
        <ele>442.2</ele>
        <time>2023-08-20T09:28:49Z</time>
      </trkpt>
      <trkpt lat="44.78264" lon="2.29545">
        <ele>442.4</ele>
        <time>2023-08-20T09:28:50Z</time>
      </trkpt>
      <trkpt lat="44.78278" lon="2.29535">
        <ele>443</ele>
        <time>2023-08-20T09:28:51Z</time>
      </trkpt>
      <trkpt lat="44.78287" lon="2.29529">
        <ele>443.2</ele>
        <time>2023-08-20T09:28:52Z</time>
      </trkpt>
      <trkpt lat="44.78302" lon="2.29522">
        <ele>443.8</ele>
        <time>2023-08-20T09:28:53Z</time>
      </trkpt>
      <trkpt lat="44.78314" lon="2.29516">
        <ele>444</ele>
        <time>2023-08-20T09:28:54Z</time>
      </trkpt>
      <trkpt lat="44.78325" lon="2.29511">
        <ele>444.8</ele>
        <time>2023-08-20T09:28:55Z</time>
      </trkpt>
      <trkpt lat="44.78335" lon="2.29508">
        <ele>445.2</ele>
        <time>2023-08-20T09:28:56Z</time>
      </trkpt>
      <trkpt lat="44.78345" lon="2.29507">
        <ele>445.6</ele>
        <time>2023-08-20T09:28:57Z</time>
      </trkpt>
      <trkpt lat="44.78354" lon="2.29509">
        <ele>446</ele>
        <time>2023-08-20T09:28:58Z</time>
      </trkpt>
      <trkpt lat="44.78362" lon="2.29518">
        <ele>446.2</ele>
        <time>2023-08-20T09:28:59Z</time>
      </trkpt>
      <trkpt lat="44.78367" lon="2.29529">
        <ele>446.6</ele>
        <time>2023-08-20T09:29:00Z</time>
      </trkpt>
      <trkpt lat="44.78371" lon="2.29541">
        <ele>446.8</ele>
        <time>2023-08-20T09:29:01Z</time>
      </trkpt>
      <trkpt lat="44.78369" lon="2.29554">
        <ele>447</ele>
        <time>2023-08-20T09:29:02Z</time>
      </trkpt>
      <trkpt lat="44.78366" lon="2.29567">
        <ele>447</ele>
        <time>2023-08-20T09:29:03Z</time>
      </trkpt>
      <trkpt lat="44.7836" lon="2.29578">
        <ele>447.2</ele>
        <time>2023-08-20T09:29:04Z</time>
      </trkpt>
      <trkpt lat="44.78352" lon="2.29587">
        <ele>447.2</ele>
        <time>2023-08-20T09:29:05Z</time>
      </trkpt>
      <trkpt lat="44.78341" lon="2.2959">
        <ele>447.4</ele>
        <time>2023-08-20T09:29:06Z</time>
      </trkpt>
      <trkpt lat="44.7833" lon="2.29593">
        <ele>447.6</ele>
        <time>2023-08-20T09:29:07Z</time>
      </trkpt>
      <trkpt lat="44.78319" lon="2.29596">
        <ele>447.6</ele>
        <time>2023-08-20T09:29:08Z</time>
      </trkpt>
      <trkpt lat="44.7831" lon="2.296">
        <ele>448.2</ele>
        <time>2023-08-20T09:29:09Z</time>
      </trkpt>
      <trkpt lat="44.78302" lon="2.29605">
        <ele>448.6</ele>
        <time>2023-08-20T09:29:10Z</time>
      </trkpt>
      <trkpt lat="44.78292" lon="2.29616">
        <ele>449</ele>
        <time>2023-08-20T09:29:11Z</time>
      </trkpt>
      <trkpt lat="44.78284" lon="2.29625">
        <ele>449.2</ele>
        <time>2023-08-20T09:29:12Z</time>
      </trkpt>
      <trkpt lat="44.78271" lon="2.29638">
        <ele>449.8</ele>
        <time>2023-08-20T09:29:13Z</time>
      </trkpt>
      <trkpt lat="44.7826" lon="2.2965">
        <ele>450.6</ele>
        <time>2023-08-20T09:29:14Z</time>
      </trkpt>
      <trkpt lat="44.7825" lon="2.29659">
        <ele>451</ele>
        <time>2023-08-20T09:29:15Z</time>
      </trkpt>
      <trkpt lat="44.78239" lon="2.2967">
        <ele>451.6</ele>
        <time>2023-08-20T09:29:16Z</time>
      </trkpt>
      <trkpt lat="44.78226" lon="2.29682">
        <ele>452</ele>
        <time>2023-08-20T09:29:17Z</time>
      </trkpt>
      <trkpt lat="44.78218" lon="2.29693">
        <ele>452.6</ele>
        <time>2023-08-20T09:29:18Z</time>
      </trkpt>
      <trkpt lat="44.78212" lon="2.29705">
        <ele>453</ele>
        <time>2023-08-20T09:29:19Z</time>
      </trkpt>
      <trkpt lat="44.78208" lon="2.29716">
        <ele>453.4</ele>
        <time>2023-08-20T09:29:20Z</time>
      </trkpt>
      <trkpt lat="44.78205" lon="2.29733">
        <ele>453.4</ele>
        <time>2023-08-20T09:29:21Z</time>
      </trkpt>
      <trkpt lat="44.78205" lon="2.29747">
        <ele>453.6</ele>
        <time>2023-08-20T09:29:22Z</time>
      </trkpt>
      <trkpt lat="44.78207" lon="2.29762">
        <ele>453.6</ele>
        <time>2023-08-20T09:29:23Z</time>
      </trkpt>
      <trkpt lat="44.78213" lon="2.29776">
        <ele>453.6</ele>
        <time>2023-08-20T09:29:24Z</time>
      </trkpt>
      <trkpt lat="44.78218" lon="2.29787">
        <ele>454</ele>
        <time>2023-08-20T09:29:25Z</time>
      </trkpt>
      <trkpt lat="44.78228" lon="2.29803">
        <ele>454</ele>
        <time>2023-08-20T09:29:26Z</time>
      </trkpt>
      <trkpt lat="44.78238" lon="2.29818">
        <ele>454.2</ele>
        <time>2023-08-20T09:29:27Z</time>
      </trkpt>
      <trkpt lat="44.78247" lon="2.29834">
        <ele>454.2</ele>
        <time>2023-08-20T09:29:28Z</time>
      </trkpt>
      <trkpt lat="44.78255" lon="2.2985">
        <ele>454.4</ele>
        <time>2023-08-20T09:29:29Z</time>
      </trkpt>
      <trkpt lat="44.78261" lon="2.29863">
        <ele>454.6</ele>
        <time>2023-08-20T09:29:30Z</time>
      </trkpt>
      <trkpt lat="44.78268" lon="2.29881">
        <ele>455</ele>
        <time>2023-08-20T09:29:31Z</time>
      </trkpt>
      <trkpt lat="44.78275" lon="2.29894">
        <ele>455.6</ele>
        <time>2023-08-20T09:29:32Z</time>
      </trkpt>
      <trkpt lat="44.78282" lon="2.29904">
        <ele>455.8</ele>
        <time>2023-08-20T09:29:33Z</time>
      </trkpt>
      <trkpt lat="44.78288" lon="2.2991">
        <ele>456.2</ele>
        <time>2023-08-20T09:29:34Z</time>
      </trkpt>
      <trkpt lat="44.78299" lon="2.29917">
        <ele>456.4</ele>
        <time>2023-08-20T09:29:35Z</time>
      </trkpt>
      <trkpt lat="44.78308" lon="2.29921">
        <ele>456.6</ele>
        <time>2023-08-20T09:29:36Z</time>
      </trkpt>
      <trkpt lat="44.78321" lon="2.29927">
        <ele>456.8</ele>
        <time>2023-08-20T09:29:37Z</time>
      </trkpt>
      <trkpt lat="44.7833" lon="2.29931">
        <ele>457</ele>
        <time>2023-08-20T09:29:38Z</time>
      </trkpt>
      <trkpt lat="44.78343" lon="2.29937">
        <ele>457.2</ele>
        <time>2023-08-20T09:29:39Z</time>
      </trkpt>
      <trkpt lat="44.78355" lon="2.29943">
        <ele>457.4</ele>
        <time>2023-08-20T09:29:40Z</time>
      </trkpt>
      <trkpt lat="44.78367" lon="2.2995">
        <ele>457.8</ele>
        <time>2023-08-20T09:29:41Z</time>
      </trkpt>
      <trkpt lat="44.78375" lon="2.29957">
        <ele>458</ele>
        <time>2023-08-20T09:29:42Z</time>
      </trkpt>
      <trkpt lat="44.78385" lon="2.29968">
        <ele>458.6</ele>
        <time>2023-08-20T09:29:43Z</time>
      </trkpt>
      <trkpt lat="44.78394" lon="2.29982">
        <ele>459.2</ele>
        <time>2023-08-20T09:29:44Z</time>
      </trkpt>
      <trkpt lat="44.78399" lon="2.29993">
        <ele>459.8</ele>
        <time>2023-08-20T09:29:45Z</time>
      </trkpt>
      <trkpt lat="44.78405" lon="2.30009">
        <ele>460.2</ele>
        <time>2023-08-20T09:29:46Z</time>
      </trkpt>
      <trkpt lat="44.7841" lon="2.30022">
        <ele>460.8</ele>
        <time>2023-08-20T09:29:47Z</time>
      </trkpt>
      <trkpt lat="44.78414" lon="2.3003">
        <ele>461.2</ele>
        <time>2023-08-20T09:29:48Z</time>
      </trkpt>
      <trkpt lat="44.7842" lon="2.30039">
        <ele>461.6</ele>
        <time>2023-08-20T09:29:49Z</time>
      </trkpt>
      <trkpt lat="44.78428" lon="2.30045">
        <ele>462.2</ele>
        <time>2023-08-20T09:29:50Z</time>
      </trkpt>
      <trkpt lat="44.78439" lon="2.30052">
        <ele>462.4</ele>
        <time>2023-08-20T09:29:51Z</time>
      </trkpt>
      <trkpt lat="44.78447" lon="2.3006">
        <ele>462.6</ele>
        <time>2023-08-20T09:29:52Z</time>
      </trkpt>
      <trkpt lat="44.78452" lon="2.30068">
        <ele>462.6</ele>
        <time>2023-08-20T09:29:53Z</time>
      </trkpt>
      <trkpt lat="44.78458" lon="2.30082">
        <ele>462.8</ele>
        <time>2023-08-20T09:29:54Z</time>
      </trkpt>
      <trkpt lat="44.78459" lon="2.30093">
        <ele>463</ele>
        <time>2023-08-20T09:29:55Z</time>
      </trkpt>
      <trkpt lat="44.78458" lon="2.30108">
        <ele>463.2</ele>
        <time>2023-08-20T09:29:56Z</time>
      </trkpt>
      <trkpt lat="44.78453" lon="2.30122">
        <ele>463.4</ele>
        <time>2023-08-20T09:29:57Z</time>
      </trkpt>
      <trkpt lat="44.7845" lon="2.30132">
        <ele>463.6</ele>
        <time>2023-08-20T09:29:58Z</time>
      </trkpt>
      <trkpt lat="44.78446" lon="2.30148">
        <ele>463.8</ele>
        <time>2023-08-20T09:29:59Z</time>
      </trkpt>
      <trkpt lat="44.78443" lon="2.30163">
        <ele>464</ele>
        <time>2023-08-20T09:30:00Z</time>
      </trkpt>
      <trkpt lat="44.7844" lon="2.30179">
        <ele>464.8</ele>
        <time>2023-08-20T09:30:01Z</time>
      </trkpt>
      <trkpt lat="44.78436" lon="2.30192">
        <ele>465.2</ele>
        <time>2023-08-20T09:30:02Z</time>
      </trkpt>
      <trkpt lat="44.78429" lon="2.30207">
        <ele>465.6</ele>
        <time>2023-08-20T09:30:03Z</time>
      </trkpt>
      <trkpt lat="44.78421" lon="2.3022">
        <ele>465.6</ele>
        <time>2023-08-20T09:30:04Z</time>
      </trkpt>
      <trkpt lat="44.7841" lon="2.30231">
        <ele>466</ele>
        <time>2023-08-20T09:30:05Z</time>
      </trkpt>
      <trkpt lat="44.78398" lon="2.30239">
        <ele>466.4</ele>
        <time>2023-08-20T09:30:06Z</time>
      </trkpt>
      <trkpt lat="44.78388" lon="2.30247">
        <ele>466.8</ele>
        <time>2023-08-20T09:30:07Z</time>
      </trkpt>
      <trkpt lat="44.7838" lon="2.30256">
        <ele>467.6</ele>
        <time>2023-08-20T09:30:08Z</time>
      </trkpt>
      <trkpt lat="44.78376" lon="2.30267">
        <ele>468</ele>
        <time>2023-08-20T09:30:09Z</time>
      </trkpt>
      <trkpt lat="44.78374" lon="2.3028">
        <ele>468.2</ele>
        <time>2023-08-20T09:30:10Z</time>
      </trkpt>
      <trkpt lat="44.78373" lon="2.30295">
        <ele>468.4</ele>
        <time>2023-08-20T09:30:11Z</time>
      </trkpt>
      <trkpt lat="44.78374" lon="2.30312">
        <ele>468.8</ele>
        <time>2023-08-20T09:30:12Z</time>
      </trkpt>
      <trkpt lat="44.78376" lon="2.30328">
        <ele>469</ele>
        <time>2023-08-20T09:30:13Z</time>
      </trkpt>
      <trkpt lat="44.7838" lon="2.30344">
        <ele>469</ele>
        <time>2023-08-20T09:30:14Z</time>
      </trkpt>
      <trkpt lat="44.78387" lon="2.30356">
        <ele>469.2</ele>
        <time>2023-08-20T09:30:15Z</time>
      </trkpt>
      <trkpt lat="44.78396" lon="2.30366">
        <ele>469.2</ele>
        <time>2023-08-20T09:30:16Z</time>
      </trkpt>
      <trkpt lat="44.78407" lon="2.30373">
        <ele>469.4</ele>
        <time>2023-08-20T09:30:17Z</time>
      </trkpt>
      <trkpt lat="44.78419" lon="2.30379">
        <ele>469.6</ele>
        <time>2023-08-20T09:30:18Z</time>
      </trkpt>
      <trkpt lat="44.78432" lon="2.30385">
        <ele>469.8</ele>
        <time>2023-08-20T09:30:19Z</time>
      </trkpt>
      <trkpt lat="44.78446" lon="2.30392">
        <ele>469.8</ele>
        <time>2023-08-20T09:30:20Z</time>
      </trkpt>
      <trkpt lat="44.78459" lon="2.30401">
        <ele>470.2</ele>
        <time>2023-08-20T09:30:21Z</time>
      </trkpt>
      <trkpt lat="44.78472" lon="2.3041">
        <ele>470.4</ele>
        <time>2023-08-20T09:30:22Z</time>
      </trkpt>
      <trkpt lat="44.78483" lon="2.30419">
        <ele>470.6</ele>
        <time>2023-08-20T09:30:23Z</time>
      </trkpt>
      <trkpt lat="44.78494" lon="2.30425">
        <ele>470.8</ele>
        <time>2023-08-20T09:30:24Z</time>
      </trkpt>
      <trkpt lat="44.78504" lon="2.30425">
        <ele>471.2</ele>
        <time>2023-08-20T09:30:25Z</time>
      </trkpt>
      <trkpt lat="44.78518" lon="2.30419">
        <ele>471.4</ele>
        <time>2023-08-20T09:30:26Z</time>
      </trkpt>
      <trkpt lat="44.78528" lon="2.30412">
        <ele>471.6</ele>
        <time>2023-08-20T09:30:27Z</time>
      </trkpt>
      <trkpt lat="44.78541" lon="2.30404">
        <ele>472</ele>
        <time>2023-08-20T09:30:28Z</time>
      </trkpt>
      <trkpt lat="44.78554" lon="2.30396">
        <ele>472</ele>
        <time>2023-08-20T09:30:29Z</time>
      </trkpt>
      <trkpt lat="44.78567" lon="2.30389">
        <ele>472.6</ele>
        <time>2023-08-20T09:30:30Z</time>
      </trkpt>
      <trkpt lat="44.7858" lon="2.30384">
        <ele>473</ele>
        <time>2023-08-20T09:30:31Z</time>
      </trkpt>
      <trkpt lat="44.78595" lon="2.30379">
        <ele>473.4</ele>
        <time>2023-08-20T09:30:32Z</time>
      </trkpt>
      <trkpt lat="44.7861" lon="2.30377">
        <ele>474.2</ele>
        <time>2023-08-20T09:30:33Z</time>
      </trkpt>
      <trkpt lat="44.78626" lon="2.30378">
        <ele>474.4</ele>
        <time>2023-08-20T09:30:34Z</time>
      </trkpt>
      <trkpt lat="44.78642" lon="2.30381">
        <ele>474.8</ele>
        <time>2023-08-20T09:30:35Z</time>
      </trkpt>
      <trkpt lat="44.78657" lon="2.30381">
        <ele>475.2</ele>
        <time>2023-08-20T09:30:36Z</time>
      </trkpt>
      <trkpt lat="44.78671" lon="2.30379">
        <ele>476</ele>
        <time>2023-08-20T09:30:37Z</time>
      </trkpt>
      <trkpt lat="44.78685" lon="2.30376">
        <ele>476.2</ele>
        <time>2023-08-20T09:30:38Z</time>
      </trkpt>
      <trkpt lat="44.78697" lon="2.30373">
        <ele>476.6</ele>
        <time>2023-08-20T09:30:39Z</time>
      </trkpt>
      <trkpt lat="44.7871" lon="2.30373">
        <ele>476.8</ele>
        <time>2023-08-20T09:30:40Z</time>
      </trkpt>
      <trkpt lat="44.78722" lon="2.30375">
        <ele>477</ele>
        <time>2023-08-20T09:30:41Z</time>
      </trkpt>
      <trkpt lat="44.78733" lon="2.30383">
        <ele>477</ele>
        <time>2023-08-20T09:30:42Z</time>
      </trkpt>
      <trkpt lat="44.78742" lon="2.30391">
        <ele>477</ele>
        <time>2023-08-20T09:30:43Z</time>
      </trkpt>
      <trkpt lat="44.7875" lon="2.304">
        <ele>477</ele>
        <time>2023-08-20T09:30:44Z</time>
      </trkpt>
      <trkpt lat="44.78758" lon="2.30408">
        <ele>477</ele>
        <time>2023-08-20T09:30:45Z</time>
      </trkpt>
      <trkpt lat="44.78766" lon="2.30413">
        <ele>477</ele>
        <time>2023-08-20T09:30:46Z</time>
      </trkpt>
      <trkpt lat="44.78774" lon="2.30414">
        <ele>476.8</ele>
        <time>2023-08-20T09:30:47Z</time>
      </trkpt>
      <trkpt lat="44.78782" lon="2.3041">
        <ele>476.8</ele>
        <time>2023-08-20T09:30:48Z</time>
      </trkpt>
      <trkpt lat="44.78791" lon="2.30403">
        <ele>476.8</ele>
        <time>2023-08-20T09:30:49Z</time>
      </trkpt>
      <trkpt lat="44.78801" lon="2.30397">
        <ele>476.8</ele>
        <time>2023-08-20T09:30:50Z</time>
      </trkpt>
      <trkpt lat="44.78813" lon="2.30391">
        <ele>476.8</ele>
        <time>2023-08-20T09:30:51Z</time>
      </trkpt>
      <trkpt lat="44.78826" lon="2.30392">
        <ele>476.8</ele>
        <time>2023-08-20T09:30:52Z</time>
      </trkpt>
      <trkpt lat="44.78838" lon="2.30398">
        <ele>477</ele>
        <time>2023-08-20T09:30:53Z</time>
      </trkpt>
      <trkpt lat="44.78849" lon="2.30408">
        <ele>477</ele>
        <time>2023-08-20T09:30:54Z</time>
      </trkpt>
      <trkpt lat="44.78858" lon="2.30422">
        <ele>477.4</ele>
        <time>2023-08-20T09:30:55Z</time>
      </trkpt>
      <trkpt lat="44.78864" lon="2.30436">
        <ele>477.8</ele>
        <time>2023-08-20T09:30:56Z</time>
      </trkpt>
      <trkpt lat="44.78868" lon="2.30451">
        <ele>478</ele>
        <time>2023-08-20T09:30:57Z</time>
      </trkpt>
      <trkpt lat="44.7887" lon="2.30468">
        <ele>478.4</ele>
        <time>2023-08-20T09:30:58Z</time>
      </trkpt>
      <trkpt lat="44.7887" lon="2.30485">
        <ele>478.4</ele>
        <time>2023-08-20T09:30:59Z</time>
      </trkpt>
      <trkpt lat="44.78869" lon="2.30503">
        <ele>478.8</ele>
        <time>2023-08-20T09:31:00Z</time>
      </trkpt>
      <trkpt lat="44.78867" lon="2.30522">
        <ele>479</ele>
        <time>2023-08-20T09:31:01Z</time>
      </trkpt>
      <trkpt lat="44.78864" lon="2.30541">
        <ele>479.2</ele>
        <time>2023-08-20T09:31:02Z</time>
      </trkpt>
      <trkpt lat="44.7886" lon="2.3056">
        <ele>479.6</ele>
        <time>2023-08-20T09:31:03Z</time>
      </trkpt>
      <trkpt lat="44.78855" lon="2.30579">
        <ele>479.8</ele>
        <time>2023-08-20T09:31:04Z</time>
      </trkpt>
      <trkpt lat="44.7885" lon="2.30597">
        <ele>480.2</ele>
        <time>2023-08-20T09:31:05Z</time>
      </trkpt>
      <trkpt lat="44.78844" lon="2.30615">
        <ele>480.4</ele>
        <time>2023-08-20T09:31:06Z</time>
      </trkpt>
      <trkpt lat="44.78838" lon="2.30634">
        <ele>481</ele>
        <time>2023-08-20T09:31:07Z</time>
      </trkpt>
      <trkpt lat="44.78833" lon="2.30651">
        <ele>481.4</ele>
        <time>2023-08-20T09:31:08Z</time>
      </trkpt>
      <trkpt lat="44.78828" lon="2.30667">
        <ele>481.6</ele>
        <time>2023-08-20T09:31:09Z</time>
      </trkpt>
      <trkpt lat="44.78824" lon="2.30682">
        <ele>481.8</ele>
        <time>2023-08-20T09:31:10Z</time>
      </trkpt>
      <trkpt lat="44.78822" lon="2.30697">
        <ele>482.2</ele>
        <time>2023-08-20T09:31:11Z</time>
      </trkpt>
      <trkpt lat="44.78823" lon="2.3071">
        <ele>482.2</ele>
        <time>2023-08-20T09:31:12Z</time>
      </trkpt>
      <trkpt lat="44.78825" lon="2.30722">
        <ele>482.6</ele>
        <time>2023-08-20T09:31:13Z</time>
      </trkpt>
      <trkpt lat="44.78829" lon="2.30732">
        <ele>482.8</ele>
        <time>2023-08-20T09:31:14Z</time>
      </trkpt>
      <trkpt lat="44.78835" lon="2.30739">
        <ele>482.8</ele>
        <time>2023-08-20T09:31:15Z</time>
      </trkpt>
      <trkpt lat="44.78841" lon="2.30742">
        <ele>483</ele>
        <time>2023-08-20T09:31:16Z</time>
      </trkpt>
      <trkpt lat="44.78846" lon="2.30742">
        <ele>483</ele>
        <time>2023-08-20T09:31:17Z</time>
      </trkpt>
      <trkpt lat="44.78851" lon="2.30741">
        <ele>483.2</ele>
        <time>2023-08-20T09:31:18Z</time>
      </trkpt>
      <trkpt lat="44.78856" lon="2.30736">
        <ele>483.4</ele>
        <time>2023-08-20T09:31:19Z</time>
      </trkpt>
      <trkpt lat="44.78865" lon="2.3073">
        <ele>483.4</ele>
        <time>2023-08-20T09:31:20Z</time>
      </trkpt>
      <trkpt lat="44.78876" lon="2.30724">
        <ele>483.6</ele>
        <time>2023-08-20T09:31:21Z</time>
      </trkpt>
      <trkpt lat="44.78888" lon="2.30719">
        <ele>483.8</ele>
        <time>2023-08-20T09:31:22Z</time>
      </trkpt>
      <trkpt lat="44.78899" lon="2.30715">
        <ele>484</ele>
        <time>2023-08-20T09:31:23Z</time>
      </trkpt>
      <trkpt lat="44.7891" lon="2.30714">
        <ele>484</ele>
        <time>2023-08-20T09:31:24Z</time>
      </trkpt>
      <trkpt lat="44.78921" lon="2.30717">
        <ele>484.2</ele>
        <time>2023-08-20T09:31:25Z</time>
      </trkpt>
      <trkpt lat="44.78933" lon="2.30718">
        <ele>484.4</ele>
        <time>2023-08-20T09:31:26Z</time>
      </trkpt>
      <trkpt lat="44.78945" lon="2.30719">
        <ele>484.8</ele>
        <time>2023-08-20T09:31:27Z</time>
      </trkpt>
      <trkpt lat="44.7896" lon="2.30724">
        <ele>485</ele>
        <time>2023-08-20T09:31:28Z</time>
      </trkpt>
      <trkpt lat="44.78969" lon="2.30731">
        <ele>485.2</ele>
        <time>2023-08-20T09:31:29Z</time>
      </trkpt>
      <trkpt lat="44.7898" lon="2.30743">
        <ele>485.4</ele>
        <time>2023-08-20T09:31:30Z</time>
      </trkpt>
      <trkpt lat="44.7899" lon="2.30756">
        <ele>485.6</ele>
        <time>2023-08-20T09:31:31Z</time>
      </trkpt>
      <trkpt lat="44.79002" lon="2.30766">
        <ele>486</ele>
        <time>2023-08-20T09:31:32Z</time>
      </trkpt>
      <trkpt lat="44.79014" lon="2.30773">
        <ele>486.2</ele>
        <time>2023-08-20T09:31:33Z</time>
      </trkpt>
      <trkpt lat="44.79027" lon="2.30776">
        <ele>486.6</ele>
        <time>2023-08-20T09:31:34Z</time>
      </trkpt>
      <trkpt lat="44.79042" lon="2.30778">
        <ele>486.8</ele>
        <time>2023-08-20T09:31:35Z</time>
      </trkpt>
      <trkpt lat="44.79057" lon="2.30778">
        <ele>487.2</ele>
        <time>2023-08-20T09:31:36Z</time>
      </trkpt>
      <trkpt lat="44.79073" lon="2.30775">
        <ele>487.2</ele>
        <time>2023-08-20T09:31:37Z</time>
      </trkpt>
      <trkpt lat="44.79089" lon="2.30774">
        <ele>487.6</ele>
        <time>2023-08-20T09:31:38Z</time>
      </trkpt>
      <trkpt lat="44.79103" lon="2.30777">
        <ele>488.2</ele>
        <time>2023-08-20T09:31:39Z</time>
      </trkpt>
      <trkpt lat="44.79115" lon="2.30785">
        <ele>488.4</ele>
        <time>2023-08-20T09:31:40Z</time>
      </trkpt>
      <trkpt lat="44.79126" lon="2.30797">
        <ele>488.6</ele>
        <time>2023-08-20T09:31:41Z</time>
      </trkpt>
      <trkpt lat="44.79135" lon="2.3081">
        <ele>488.8</ele>
        <time>2023-08-20T09:31:42Z</time>
      </trkpt>
      <trkpt lat="44.79141" lon="2.30825">
        <ele>489</ele>
        <time>2023-08-20T09:31:43Z</time>
      </trkpt>
      <trkpt lat="44.79145" lon="2.30842">
        <ele>489</ele>
        <time>2023-08-20T09:31:44Z</time>
      </trkpt>
      <trkpt lat="44.79147" lon="2.30859">
        <ele>489.2</ele>
        <time>2023-08-20T09:31:45Z</time>
      </trkpt>
      <trkpt lat="44.7915" lon="2.30873">
        <ele>489.2</ele>
        <time>2023-08-20T09:31:46Z</time>
      </trkpt>
      <trkpt lat="44.79154" lon="2.30887">
        <ele>489.4</ele>
        <time>2023-08-20T09:31:47Z</time>
      </trkpt>
      <trkpt lat="44.7916" lon="2.30899">
        <ele>489.4</ele>
        <time>2023-08-20T09:31:48Z</time>
      </trkpt>
      <trkpt lat="44.79167" lon="2.30907">
        <ele>489.4</ele>
        <time>2023-08-20T09:31:49Z</time>
      </trkpt>
      <trkpt lat="44.79176" lon="2.3091">
        <ele>489.6</ele>
        <time>2023-08-20T09:31:50Z</time>
      </trkpt>
      <trkpt lat="44.79187" lon="2.30913">
        <ele>489.6</ele>
        <time>2023-08-20T09:31:51Z</time>
      </trkpt>
      <trkpt lat="44.79199" lon="2.30918">
        <ele>489.8</ele>
        <time>2023-08-20T09:31:52Z</time>
      </trkpt>
      <trkpt lat="44.79213" lon="2.30925">
        <ele>489.8</ele>
        <time>2023-08-20T09:31:53Z</time>
      </trkpt>
      <trkpt lat="44.79228" lon="2.30936">
        <ele>490</ele>
        <time>2023-08-20T09:31:54Z</time>
      </trkpt>
      <trkpt lat="44.79242" lon="2.30948">
        <ele>490</ele>
        <time>2023-08-20T09:31:55Z</time>
      </trkpt>
      <trkpt lat="44.79255" lon="2.30961">
        <ele>490.2</ele>
        <time>2023-08-20T09:31:56Z</time>
      </trkpt>
      <trkpt lat="44.79268" lon="2.30973">
        <ele>491</ele>
        <time>2023-08-20T09:31:57Z</time>
      </trkpt>
      <trkpt lat="44.79278" lon="2.30986">
        <ele>491.4</ele>
        <time>2023-08-20T09:31:58Z</time>
      </trkpt>
      <trkpt lat="44.79286" lon="2.31">
        <ele>491.8</ele>
        <time>2023-08-20T09:31:59Z</time>
      </trkpt>
      <trkpt lat="44.79292" lon="2.31016">
        <ele>491.8</ele>
        <time>2023-08-20T09:32:00Z</time>
      </trkpt>
      <trkpt lat="44.79296" lon="2.31031">
        <ele>492</ele>
        <time>2023-08-20T09:32:01Z</time>
      </trkpt>
      <trkpt lat="44.79299" lon="2.31047">
        <ele>492</ele>
        <time>2023-08-20T09:32:02Z</time>
      </trkpt>
      <trkpt lat="44.79301" lon="2.31064">
        <ele>492</ele>
        <time>2023-08-20T09:32:03Z</time>
      </trkpt>
      <trkpt lat="44.79301" lon="2.31082">
        <ele>492</ele>
        <time>2023-08-20T09:32:04Z</time>
      </trkpt>
      <trkpt lat="44.79301" lon="2.311">
        <ele>492</ele>
        <time>2023-08-20T09:32:05Z</time>
      </trkpt>
      <trkpt lat="44.79298" lon="2.31119">
        <ele>491.8</ele>
        <time>2023-08-20T09:32:06Z</time>
      </trkpt>
      <trkpt lat="44.79293" lon="2.31137">
        <ele>491.6</ele>
        <time>2023-08-20T09:32:07Z</time>
      </trkpt>
      <trkpt lat="44.79287" lon="2.31152">
        <ele>491.4</ele>
        <time>2023-08-20T09:32:08Z</time>
      </trkpt>
      <trkpt lat="44.7928" lon="2.31166">
        <ele>491.4</ele>
        <time>2023-08-20T09:32:09Z</time>
      </trkpt>
      <trkpt lat="44.7927" lon="2.31178">
        <ele>491.4</ele>
        <time>2023-08-20T09:32:10Z</time>
      </trkpt>
      <trkpt lat="44.79259" lon="2.31183">
        <ele>491.4</ele>
        <time>2023-08-20T09:32:11Z</time>
      </trkpt>
      <trkpt lat="44.79247" lon="2.31187">
        <ele>491.4</ele>
        <time>2023-08-20T09:32:12Z</time>
      </trkpt>
      <trkpt lat="44.79235" lon="2.31191">
        <ele>491.4</ele>
        <time>2023-08-20T09:32:13Z</time>
      </trkpt>
      <trkpt lat="44.79224" lon="2.31196">
        <ele>491.4</ele>
        <time>2023-08-20T09:32:14Z</time>
      </trkpt>
      <trkpt lat="44.79214" lon="2.31202">
        <ele>491.6</ele>
        <time>2023-08-20T09:32:15Z</time>
      </trkpt>
      <trkpt lat="44.79206" lon="2.3121">
        <ele>491.6</ele>
        <time>2023-08-20T09:32:16Z</time>
      </trkpt>
      <trkpt lat="44.792" lon="2.31219">
        <ele>492</ele>
        <time>2023-08-20T09:32:17Z</time>
      </trkpt>
      <trkpt lat="44.79198" lon="2.31232">
        <ele>492</ele>
        <time>2023-08-20T09:32:18Z</time>
      </trkpt>
      <trkpt lat="44.79199" lon="2.31246">
        <ele>492.2</ele>
        <time>2023-08-20T09:32:19Z</time>
      </trkpt>
      <trkpt lat="44.79201" lon="2.31263">
        <ele>492.2</ele>
        <time>2023-08-20T09:32:20Z</time>
      </trkpt>
      <trkpt lat="44.79206" lon="2.3128">
        <ele>492.4</ele>
        <time>2023-08-20T09:32:21Z</time>
      </trkpt>
      <trkpt lat="44.79211" lon="2.31297">
        <ele>492.6</ele>
        <time>2023-08-20T09:32:22Z</time>
      </trkpt>
      <trkpt lat="44.79216" lon="2.31313">
        <ele>492.6</ele>
        <time>2023-08-20T09:32:23Z</time>
      </trkpt>
      <trkpt lat="44.79222" lon="2.31325">
        <ele>493</ele>
        <time>2023-08-20T09:32:24Z</time>
      </trkpt>
      <trkpt lat="44.79229" lon="2.31334">
        <ele>493</ele>
        <time>2023-08-20T09:32:25Z</time>
      </trkpt>
      <trkpt lat="44.79239" lon="2.31338">
        <ele>493.2</ele>
        <time>2023-08-20T09:32:26Z</time>
      </trkpt>
      <trkpt lat="44.7925" lon="2.31339">
        <ele>493.2</ele>
        <time>2023-08-20T09:32:27Z</time>
      </trkpt>
      <trkpt lat="44.79276" lon="2.31341">
        <ele>493.4</ele>
        <time>2023-08-20T09:32:29Z</time>
      </trkpt>
      <trkpt lat="44.79287" lon="2.31345">
        <ele>493.4</ele>
        <time>2023-08-20T09:32:30Z</time>
      </trkpt>
      <trkpt lat="44.79296" lon="2.31354">
        <ele>493.4</ele>
        <time>2023-08-20T09:32:31Z</time>
      </trkpt>
      <trkpt lat="44.79303" lon="2.31366">
        <ele>493.4</ele>
        <time>2023-08-20T09:32:32Z</time>
      </trkpt>
      <trkpt lat="44.79308" lon="2.31381">
        <ele>493.4</ele>
        <time>2023-08-20T09:32:33Z</time>
      </trkpt>
      <trkpt lat="44.79316" lon="2.31415">
        <ele>493.6</ele>
        <time>2023-08-20T09:32:35Z</time>
      </trkpt>
      <trkpt lat="44.79322" lon="2.31431">
        <ele>493.6</ele>
        <time>2023-08-20T09:32:36Z</time>
      </trkpt>
      <trkpt lat="44.7933" lon="2.31446">
        <ele>493.8</ele>
        <time>2023-08-20T09:32:37Z</time>
      </trkpt>
      <trkpt lat="44.7934" lon="2.31459">
        <ele>493.8</ele>
        <time>2023-08-20T09:32:38Z</time>
      </trkpt>
      <trkpt lat="44.79349" lon="2.31473">
        <ele>494</ele>
        <time>2023-08-20T09:32:39Z</time>
      </trkpt>
      <trkpt lat="44.79357" lon="2.31486">
        <ele>494</ele>
        <time>2023-08-20T09:32:40Z</time>
      </trkpt>
      <trkpt lat="44.79363" lon="2.31499">
        <ele>493.8</ele>
        <time>2023-08-20T09:32:41Z</time>
      </trkpt>
      <trkpt lat="44.79367" lon="2.31512">
        <ele>493.8</ele>
        <time>2023-08-20T09:32:42Z</time>
      </trkpt>
      <trkpt lat="44.79369" lon="2.31522">
        <ele>493.8</ele>
        <time>2023-08-20T09:32:43Z</time>
      </trkpt>
      <trkpt lat="44.7937" lon="2.31533">
        <ele>493.6</ele>
        <time>2023-08-20T09:32:44Z</time>
      </trkpt>
      <trkpt lat="44.79368" lon="2.31541">
        <ele>493.4</ele>
        <time>2023-08-20T09:32:45Z</time>
      </trkpt>
      <trkpt lat="44.79363" lon="2.31548">
        <ele>493.2</ele>
        <time>2023-08-20T09:32:46Z</time>
      </trkpt>
      <trkpt lat="44.79357" lon="2.31553">
        <ele>492.8</ele>
        <time>2023-08-20T09:32:47Z</time>
      </trkpt>
      <trkpt lat="44.79351" lon="2.31557">
        <ele>492.8</ele>
        <time>2023-08-20T09:32:48Z</time>
      </trkpt>
      <trkpt lat="44.79342" lon="2.31561">
        <ele>492.6</ele>
        <time>2023-08-20T09:32:49Z</time>
      </trkpt>
      <trkpt lat="44.79333" lon="2.31568">
        <ele>492.4</ele>
        <time>2023-08-20T09:32:50Z</time>
      </trkpt>
      <trkpt lat="44.79325" lon="2.31577">
        <ele>492.4</ele>
        <time>2023-08-20T09:32:51Z</time>
      </trkpt>
      <trkpt lat="44.79317" lon="2.31588">
        <ele>492.4</ele>
        <time>2023-08-20T09:32:52Z</time>
      </trkpt>
      <trkpt lat="44.79311" lon="2.31601">
        <ele>492.4</ele>
        <time>2023-08-20T09:32:53Z</time>
      </trkpt>
      <trkpt lat="44.79305" lon="2.31615">
        <ele>492.4</ele>
        <time>2023-08-20T09:32:54Z</time>
      </trkpt>
      <trkpt lat="44.79302" lon="2.31631">
        <ele>492.4</ele>
        <time>2023-08-20T09:32:55Z</time>
      </trkpt>
      <trkpt lat="44.79302" lon="2.31647">
        <ele>492.8</ele>
        <time>2023-08-20T09:32:56Z</time>
      </trkpt>
      <trkpt lat="44.79304" lon="2.31661">
        <ele>493</ele>
        <time>2023-08-20T09:32:57Z</time>
      </trkpt>
      <trkpt lat="44.79308" lon="2.31675">
        <ele>493.8</ele>
        <time>2023-08-20T09:32:58Z</time>
      </trkpt>
      <trkpt lat="44.79314" lon="2.31689">
        <ele>494</ele>
        <time>2023-08-20T09:32:59Z</time>
      </trkpt>
      <trkpt lat="44.79321" lon="2.31703">
        <ele>494.6</ele>
        <time>2023-08-20T09:33:00Z</time>
      </trkpt>
      <trkpt lat="44.79329" lon="2.31716">
        <ele>495.2</ele>
        <time>2023-08-20T09:33:01Z</time>
      </trkpt>
      <trkpt lat="44.79348" lon="2.31741">
        <ele>496.4</ele>
        <time>2023-08-20T09:33:03Z</time>
      </trkpt>
      <trkpt lat="44.79357" lon="2.31753">
        <ele>497</ele>
        <time>2023-08-20T09:33:04Z</time>
      </trkpt>
      <trkpt lat="44.79365" lon="2.31768">
        <ele>497.4</ele>
        <time>2023-08-20T09:33:05Z</time>
      </trkpt>
      <trkpt lat="44.79371" lon="2.31784">
        <ele>497.8</ele>
        <time>2023-08-20T09:33:06Z</time>
      </trkpt>
      <trkpt lat="44.79375" lon="2.31802">
        <ele>498.4</ele>
        <time>2023-08-20T09:33:07Z</time>
      </trkpt>
      <trkpt lat="44.79378" lon="2.3182">
        <ele>498.8</ele>
        <time>2023-08-20T09:33:08Z</time>
      </trkpt>
      <trkpt lat="44.7938" lon="2.31837">
        <ele>499.2</ele>
        <time>2023-08-20T09:33:09Z</time>
      </trkpt>
      <trkpt lat="44.79384" lon="2.31853">
        <ele>499.8</ele>
        <time>2023-08-20T09:33:10Z</time>
      </trkpt>
      <trkpt lat="44.79391" lon="2.31866">
        <ele>500.8</ele>
        <time>2023-08-20T09:33:11Z</time>
      </trkpt>
      <trkpt lat="44.79398" lon="2.3188">
        <ele>501.2</ele>
        <time>2023-08-20T09:33:12Z</time>
      </trkpt>
      <trkpt lat="44.79403" lon="2.31894">
        <ele>502</ele>
        <time>2023-08-20T09:33:13Z</time>
      </trkpt>
      <trkpt lat="44.79407" lon="2.3191">
        <ele>502.6</ele>
        <time>2023-08-20T09:33:14Z</time>
      </trkpt>
      <trkpt lat="44.79408" lon="2.31926">
        <ele>502.8</ele>
        <time>2023-08-20T09:33:15Z</time>
      </trkpt>
      <trkpt lat="44.79409" lon="2.31941">
        <ele>503.2</ele>
        <time>2023-08-20T09:33:16Z</time>
      </trkpt>
      <trkpt lat="44.79412" lon="2.31955">
        <ele>503.4</ele>
        <time>2023-08-20T09:33:17Z</time>
      </trkpt>
      <trkpt lat="44.79418" lon="2.31968">
        <ele>504</ele>
        <time>2023-08-20T09:33:18Z</time>
      </trkpt>
      <trkpt lat="44.79426" lon="2.31978">
        <ele>504.2</ele>
        <time>2023-08-20T09:33:19Z</time>
      </trkpt>
      <trkpt lat="44.79437" lon="2.31988">
        <ele>504.6</ele>
        <time>2023-08-20T09:33:20Z</time>
      </trkpt>
      <trkpt lat="44.79447" lon="2.31997">
        <ele>505</ele>
        <time>2023-08-20T09:33:21Z</time>
      </trkpt>
      <trkpt lat="44.79457" lon="2.32006">
        <ele>505.2</ele>
        <time>2023-08-20T09:33:22Z</time>
      </trkpt>
      <trkpt lat="44.79465" lon="2.32019">
        <ele>505.8</ele>
        <time>2023-08-20T09:33:23Z</time>
      </trkpt>
      <trkpt lat="44.79469" lon="2.32037">
        <ele>506.2</ele>
        <time>2023-08-20T09:33:24Z</time>
      </trkpt>
      <trkpt lat="44.79472" lon="2.32057">
        <ele>506.6</ele>
        <time>2023-08-20T09:33:25Z</time>
      </trkpt>
      <trkpt lat="44.79474" lon="2.32078">
        <ele>506.8</ele>
        <time>2023-08-20T09:33:26Z</time>
      </trkpt>
      <trkpt lat="44.79476" lon="2.32097">
        <ele>507.2</ele>
        <time>2023-08-20T09:33:27Z</time>
      </trkpt>
      <trkpt lat="44.79481" lon="2.32113">
        <ele>507.6</ele>
        <time>2023-08-20T09:33:28Z</time>
      </trkpt>
      <trkpt lat="44.79488" lon="2.32125">
        <ele>508.6</ele>
        <time>2023-08-20T09:33:29Z</time>
      </trkpt>
      <trkpt lat="44.79498" lon="2.32135">
        <ele>509.8</ele>
        <time>2023-08-20T09:33:30Z</time>
      </trkpt>
      <trkpt lat="44.79508" lon="2.32143">
        <ele>510.2</ele>
        <time>2023-08-20T09:33:31Z</time>
      </trkpt>
      <trkpt lat="44.7952" lon="2.3215">
        <ele>511.2</ele>
        <time>2023-08-20T09:33:32Z</time>
      </trkpt>
      <trkpt lat="44.7953" lon="2.32158">
        <ele>511.4</ele>
        <time>2023-08-20T09:33:33Z</time>
      </trkpt>
      <trkpt lat="44.7954" lon="2.32168">
        <ele>511.6</ele>
        <time>2023-08-20T09:33:34Z</time>
      </trkpt>
      <trkpt lat="44.79547" lon="2.3218">
        <ele>511.8</ele>
        <time>2023-08-20T09:33:35Z</time>
      </trkpt>
      <trkpt lat="44.79552" lon="2.32196">
        <ele>512.2</ele>
        <time>2023-08-20T09:33:36Z</time>
      </trkpt>
      <trkpt lat="44.79556" lon="2.32212">
        <ele>512.4</ele>
        <time>2023-08-20T09:33:37Z</time>
      </trkpt>
      <trkpt lat="44.79559" lon="2.32228">
        <ele>512.8</ele>
        <time>2023-08-20T09:33:38Z</time>
      </trkpt>
      <trkpt lat="44.79562" lon="2.32243">
        <ele>513.4</ele>
        <time>2023-08-20T09:33:39Z</time>
      </trkpt>
      <trkpt lat="44.79568" lon="2.32255">
        <ele>514</ele>
        <time>2023-08-20T09:33:40Z</time>
      </trkpt>
      <trkpt lat="44.79575" lon="2.32265">
        <ele>514.8</ele>
        <time>2023-08-20T09:33:41Z</time>
      </trkpt>
      <trkpt lat="44.79583" lon="2.32274">
        <ele>515.2</ele>
        <time>2023-08-20T09:33:42Z</time>
      </trkpt>
      <trkpt lat="44.7959" lon="2.32284">
        <ele>515.8</ele>
        <time>2023-08-20T09:33:43Z</time>
      </trkpt>
      <trkpt lat="44.79594" lon="2.32294">
        <ele>516.2</ele>
        <time>2023-08-20T09:33:44Z</time>
      </trkpt>
      <trkpt lat="44.79596" lon="2.32306">
        <ele>516.4</ele>
        <time>2023-08-20T09:33:45Z</time>
      </trkpt>
      <trkpt lat="44.79595" lon="2.3232">
        <ele>516.6</ele>
        <time>2023-08-20T09:33:46Z</time>
      </trkpt>
      <trkpt lat="44.79592" lon="2.32336">
        <ele>516.8</ele>
        <time>2023-08-20T09:33:47Z</time>
      </trkpt>
      <trkpt lat="44.79587" lon="2.32352">
        <ele>517.4</ele>
        <time>2023-08-20T09:33:48Z</time>
      </trkpt>
      <trkpt lat="44.79582" lon="2.32368">
        <ele>517.8</ele>
        <time>2023-08-20T09:33:49Z</time>
      </trkpt>
      <trkpt lat="44.79577" lon="2.32384">
        <ele>518.4</ele>
        <time>2023-08-20T09:33:50Z</time>
      </trkpt>
      <trkpt lat="44.79572" lon="2.324">
        <ele>518.6</ele>
        <time>2023-08-20T09:33:51Z</time>
      </trkpt>
      <trkpt lat="44.79569" lon="2.32417">
        <ele>519.4</ele>
        <time>2023-08-20T09:33:52Z</time>
      </trkpt>
      <trkpt lat="44.79566" lon="2.32435">
        <ele>520</ele>
        <time>2023-08-20T09:33:53Z</time>
      </trkpt>
      <trkpt lat="44.79565" lon="2.32454">
        <ele>521</ele>
        <time>2023-08-20T09:33:54Z</time>
      </trkpt>
      <trkpt lat="44.79565" lon="2.32472">
        <ele>521.4</ele>
        <time>2023-08-20T09:33:55Z</time>
      </trkpt>
      <trkpt lat="44.79566" lon="2.32491">
        <ele>522.2</ele>
        <time>2023-08-20T09:33:56Z</time>
      </trkpt>
      <trkpt lat="44.79568" lon="2.32509">
        <ele>523</ele>
        <time>2023-08-20T09:33:57Z</time>
      </trkpt>
      <trkpt lat="44.7957" lon="2.32527">
        <ele>523.6</ele>
        <time>2023-08-20T09:33:58Z</time>
      </trkpt>
      <trkpt lat="44.7957" lon="2.32545">
        <ele>524.6</ele>
        <time>2023-08-20T09:33:59Z</time>
      </trkpt>
      <trkpt lat="44.79568" lon="2.32562">
        <ele>525.4</ele>
        <time>2023-08-20T09:34:00Z</time>
      </trkpt>
      <trkpt lat="44.79566" lon="2.32578">
        <ele>526.4</ele>
        <time>2023-08-20T09:34:01Z</time>
      </trkpt>
      <trkpt lat="44.79566" lon="2.32593">
        <ele>526.6</ele>
        <time>2023-08-20T09:34:02Z</time>
      </trkpt>
      <trkpt lat="44.79567" lon="2.32607">
        <ele>527.4</ele>
        <time>2023-08-20T09:34:03Z</time>
      </trkpt>
      <trkpt lat="44.79568" lon="2.32622">
        <ele>528</ele>
        <time>2023-08-20T09:34:04Z</time>
      </trkpt>
      <trkpt lat="44.79569" lon="2.32636">
        <ele>528.6</ele>
        <time>2023-08-20T09:34:05Z</time>
      </trkpt>
      <trkpt lat="44.79568" lon="2.32649">
        <ele>529.2</ele>
        <time>2023-08-20T09:34:06Z</time>
      </trkpt>
      <trkpt lat="44.79566" lon="2.3266">
        <ele>529.4</ele>
        <time>2023-08-20T09:34:07Z</time>
      </trkpt>
      <trkpt lat="44.79563" lon="2.32671">
        <ele>530</ele>
        <time>2023-08-20T09:34:08Z</time>
      </trkpt>
      <trkpt lat="44.7956" lon="2.32681">
        <ele>530.2</ele>
        <time>2023-08-20T09:34:09Z</time>
      </trkpt>
      <trkpt lat="44.79556" lon="2.32691">
        <ele>530.6</ele>
        <time>2023-08-20T09:34:10Z</time>
      </trkpt>
      <trkpt lat="44.79551" lon="2.32703">
        <ele>530.6</ele>
        <time>2023-08-20T09:34:11Z</time>
      </trkpt>
      <trkpt lat="44.79546" lon="2.32717">
        <ele>531.2</ele>
        <time>2023-08-20T09:34:12Z</time>
      </trkpt>
      <trkpt lat="44.7954" lon="2.32731">
        <ele>531.6</ele>
        <time>2023-08-20T09:34:13Z</time>
      </trkpt>
      <trkpt lat="44.79534" lon="2.32746">
        <ele>532.2</ele>
        <time>2023-08-20T09:34:14Z</time>
      </trkpt>
      <trkpt lat="44.79528" lon="2.32762">
        <ele>532.8</ele>
        <time>2023-08-20T09:34:15Z</time>
      </trkpt>
      <trkpt lat="44.79524" lon="2.32778">
        <ele>533.2</ele>
        <time>2023-08-20T09:34:16Z</time>
      </trkpt>
      <trkpt lat="44.79522" lon="2.32794">
        <ele>533.6</ele>
        <time>2023-08-20T09:34:17Z</time>
      </trkpt>
      <trkpt lat="44.79522" lon="2.3281">
        <ele>534.2</ele>
        <time>2023-08-20T09:34:18Z</time>
      </trkpt>
      <trkpt lat="44.79525" lon="2.32828">
        <ele>534.6</ele>
        <time>2023-08-20T09:34:19Z</time>
      </trkpt>
      <trkpt lat="44.79529" lon="2.32846">
        <ele>535</ele>
        <time>2023-08-20T09:34:20Z</time>
      </trkpt>
      <trkpt lat="44.79535" lon="2.32866">
        <ele>535.2</ele>
        <time>2023-08-20T09:34:21Z</time>
      </trkpt>
      <trkpt lat="44.7954" lon="2.32886">
        <ele>535.6</ele>
        <time>2023-08-20T09:34:22Z</time>
      </trkpt>
      <trkpt lat="44.79544" lon="2.32906">
        <ele>535.6</ele>
        <time>2023-08-20T09:34:23Z</time>
      </trkpt>
      <trkpt lat="44.79547" lon="2.32925">
        <ele>536</ele>
        <time>2023-08-20T09:34:24Z</time>
      </trkpt>
      <trkpt lat="44.7955" lon="2.32944">
        <ele>536.2</ele>
        <time>2023-08-20T09:34:25Z</time>
      </trkpt>
      <trkpt lat="44.79554" lon="2.3296">
        <ele>536.8</ele>
        <time>2023-08-20T09:34:26Z</time>
      </trkpt>
      <trkpt lat="44.79561" lon="2.32973">
        <ele>537</ele>
        <time>2023-08-20T09:34:27Z</time>
      </trkpt>
      <trkpt lat="44.7957" lon="2.32985">
        <ele>537.2</ele>
        <time>2023-08-20T09:34:28Z</time>
      </trkpt>
      <trkpt lat="44.7958" lon="2.32998">
        <ele>537.2</ele>
        <time>2023-08-20T09:34:29Z</time>
      </trkpt>
      <trkpt lat="44.79589" lon="2.33011">
        <ele>537.2</ele>
        <time>2023-08-20T09:34:30Z</time>
      </trkpt>
      <trkpt lat="44.79598" lon="2.33027">
        <ele>537.4</ele>
        <time>2023-08-20T09:34:31Z</time>
      </trkpt>
      <trkpt lat="44.79604" lon="2.33043">
        <ele>537.4</ele>
        <time>2023-08-20T09:34:32Z</time>
      </trkpt>
      <trkpt lat="44.79609" lon="2.3306">
        <ele>537.4</ele>
        <time>2023-08-20T09:34:33Z</time>
      </trkpt>
      <trkpt lat="44.79611" lon="2.33077">
        <ele>537.4</ele>
        <time>2023-08-20T09:34:34Z</time>
      </trkpt>
      <trkpt lat="44.79608" lon="2.33094">
        <ele>537.4</ele>
        <time>2023-08-20T09:34:35Z</time>
      </trkpt>
      <trkpt lat="44.79603" lon="2.33113">
        <ele>537.4</ele>
        <time>2023-08-20T09:34:36Z</time>
      </trkpt>
      <trkpt lat="44.79598" lon="2.33124">
        <ele>537.6</ele>
        <time>2023-08-20T09:34:37Z</time>
      </trkpt>
      <trkpt lat="44.79592" lon="2.33138">
        <ele>537.6</ele>
        <time>2023-08-20T09:34:38Z</time>
      </trkpt>
      <trkpt lat="44.79587" lon="2.33154">
        <ele>538</ele>
        <time>2023-08-20T09:34:39Z</time>
      </trkpt>
      <trkpt lat="44.79584" lon="2.33171">
        <ele>538</ele>
        <time>2023-08-20T09:34:40Z</time>
      </trkpt>
      <trkpt lat="44.79584" lon="2.33188">
        <ele>538.4</ele>
        <time>2023-08-20T09:34:41Z</time>
      </trkpt>
      <trkpt lat="44.79587" lon="2.33205">
        <ele>538.8</ele>
        <time>2023-08-20T09:34:42Z</time>
      </trkpt>
      <trkpt lat="44.79592" lon="2.33222">
        <ele>539</ele>
        <time>2023-08-20T09:34:43Z</time>
      </trkpt>
      <trkpt lat="44.79596" lon="2.33238">
        <ele>539.2</ele>
        <time>2023-08-20T09:34:44Z</time>
      </trkpt>
      <trkpt lat="44.796" lon="2.33255">
        <ele>539.4</ele>
        <time>2023-08-20T09:34:45Z</time>
      </trkpt>
      <trkpt lat="44.79602" lon="2.3327">
        <ele>539.8</ele>
        <time>2023-08-20T09:34:46Z</time>
      </trkpt>
      <trkpt lat="44.79598" lon="2.33286">
        <ele>540</ele>
        <time>2023-08-20T09:34:47Z</time>
      </trkpt>
      <trkpt lat="44.79593" lon="2.33301">
        <ele>540.2</ele>
        <time>2023-08-20T09:34:48Z</time>
      </trkpt>
      <trkpt lat="44.79586" lon="2.33316">
        <ele>540.4</ele>
        <time>2023-08-20T09:34:49Z</time>
      </trkpt>
      <trkpt lat="44.79577" lon="2.3333">
        <ele>540.6</ele>
        <time>2023-08-20T09:34:50Z</time>
      </trkpt>
      <trkpt lat="44.79567" lon="2.33341">
        <ele>541</ele>
        <time>2023-08-20T09:34:51Z</time>
      </trkpt>
      <trkpt lat="44.79556" lon="2.3335">
        <ele>541.2</ele>
        <time>2023-08-20T09:34:52Z</time>
      </trkpt>
      <trkpt lat="44.79545" lon="2.33357">
        <ele>541.6</ele>
        <time>2023-08-20T09:34:53Z</time>
      </trkpt>
      <trkpt lat="44.79533" lon="2.3336">
        <ele>541.8</ele>
        <time>2023-08-20T09:34:54Z</time>
      </trkpt>
      <trkpt lat="44.79521" lon="2.33362">
        <ele>542.2</ele>
        <time>2023-08-20T09:34:55Z</time>
      </trkpt>
      <trkpt lat="44.7951" lon="2.33363">
        <ele>542.4</ele>
        <time>2023-08-20T09:34:56Z</time>
      </trkpt>
      <trkpt lat="44.79499" lon="2.33364">
        <ele>542.8</ele>
        <time>2023-08-20T09:34:57Z</time>
      </trkpt>
      <trkpt lat="44.79488" lon="2.33365">
        <ele>543.2</ele>
        <time>2023-08-20T09:34:58Z</time>
      </trkpt>
      <trkpt lat="44.79478" lon="2.33366">
        <ele>543.4</ele>
        <time>2023-08-20T09:34:59Z</time>
      </trkpt>
      <trkpt lat="44.79468" lon="2.3337">
        <ele>543.6</ele>
        <time>2023-08-20T09:35:00Z</time>
      </trkpt>
      <trkpt lat="44.79458" lon="2.33375">
        <ele>544</ele>
        <time>2023-08-20T09:35:01Z</time>
      </trkpt>
      <trkpt lat="44.79448" lon="2.33383">
        <ele>544.4</ele>
        <time>2023-08-20T09:35:02Z</time>
      </trkpt>
      <trkpt lat="44.79438" lon="2.33393">
        <ele>544.4</ele>
        <time>2023-08-20T09:35:03Z</time>
      </trkpt>
      <trkpt lat="44.79428" lon="2.33403">
        <ele>544.8</ele>
        <time>2023-08-20T09:35:04Z</time>
      </trkpt>
      <trkpt lat="44.7942" lon="2.33415">
        <ele>544.8</ele>
        <time>2023-08-20T09:35:05Z</time>
      </trkpt>
      <trkpt lat="44.79413" lon="2.3343">
        <ele>545</ele>
        <time>2023-08-20T09:35:06Z</time>
      </trkpt>
      <trkpt lat="44.79407" lon="2.33446">
        <ele>545.4</ele>
        <time>2023-08-20T09:35:07Z</time>
      </trkpt>
      <trkpt lat="44.79402" lon="2.33463">
        <ele>545.8</ele>
        <time>2023-08-20T09:35:08Z</time>
      </trkpt>
      <trkpt lat="44.79395" lon="2.3348">
        <ele>546.4</ele>
        <time>2023-08-20T09:35:09Z</time>
      </trkpt>
      <trkpt lat="44.79386" lon="2.33495">
        <ele>546.6</ele>
        <time>2023-08-20T09:35:10Z</time>
      </trkpt>
      <trkpt lat="44.79376" lon="2.33509">
        <ele>547</ele>
        <time>2023-08-20T09:35:11Z</time>
      </trkpt>
      <trkpt lat="44.79363" lon="2.33518">
        <ele>547.2</ele>
        <time>2023-08-20T09:35:12Z</time>
      </trkpt>
      <trkpt lat="44.7935" lon="2.33521">
        <ele>547.6</ele>
        <time>2023-08-20T09:35:13Z</time>
      </trkpt>
      <trkpt lat="44.79335" lon="2.3352">
        <ele>548</ele>
        <time>2023-08-20T09:35:14Z</time>
      </trkpt>
      <trkpt lat="44.79321" lon="2.33516">
        <ele>548.2</ele>
        <time>2023-08-20T09:35:15Z</time>
      </trkpt>
      <trkpt lat="44.79309" lon="2.33511">
        <ele>548.2</ele>
        <time>2023-08-20T09:35:16Z</time>
      </trkpt>
      <trkpt lat="44.79297" lon="2.33506">
        <ele>548.4</ele>
        <time>2023-08-20T09:35:17Z</time>
      </trkpt>
      <trkpt lat="44.79287" lon="2.33502">
        <ele>548.6</ele>
        <time>2023-08-20T09:35:18Z</time>
      </trkpt>
      <trkpt lat="44.79278" lon="2.33503">
        <ele>548.6</ele>
        <time>2023-08-20T09:35:19Z</time>
      </trkpt>
      <trkpt lat="44.7927" lon="2.3351">
        <ele>548.8</ele>
        <time>2023-08-20T09:35:20Z</time>
      </trkpt>
      <trkpt lat="44.79264" lon="2.33522">
        <ele>549</ele>
        <time>2023-08-20T09:35:21Z</time>
      </trkpt>
      <trkpt lat="44.79259" lon="2.33537">
        <ele>549</ele>
        <time>2023-08-20T09:35:22Z</time>
      </trkpt>
      <trkpt lat="44.79256" lon="2.33556">
        <ele>549.2</ele>
        <time>2023-08-20T09:35:23Z</time>
      </trkpt>
      <trkpt lat="44.79254" lon="2.33575">
        <ele>549.4</ele>
        <time>2023-08-20T09:35:24Z</time>
      </trkpt>
      <trkpt lat="44.79254" lon="2.33594">
        <ele>549.6</ele>
        <time>2023-08-20T09:35:25Z</time>
      </trkpt>
      <trkpt lat="44.79256" lon="2.33611">
        <ele>549.8</ele>
        <time>2023-08-20T09:35:26Z</time>
      </trkpt>
      <trkpt lat="44.79259" lon="2.33626">
        <ele>549.8</ele>
        <time>2023-08-20T09:35:27Z</time>
      </trkpt>
      <trkpt lat="44.79266" lon="2.33638">
        <ele>549.8</ele>
        <time>2023-08-20T09:35:28Z</time>
      </trkpt>
      <trkpt lat="44.79275" lon="2.33646">
        <ele>550</ele>
        <time>2023-08-20T09:35:29Z</time>
      </trkpt>
      <trkpt lat="44.79285" lon="2.33652">
        <ele>550</ele>
        <time>2023-08-20T09:35:30Z</time>
      </trkpt>
      <trkpt lat="44.79297" lon="2.33655">
        <ele>550.2</ele>
        <time>2023-08-20T09:35:31Z</time>
      </trkpt>
      <trkpt lat="44.79311" lon="2.33655">
        <ele>550.4</ele>
        <time>2023-08-20T09:35:32Z</time>
      </trkpt>
      <trkpt lat="44.79327" lon="2.33654">
        <ele>550.6</ele>
        <time>2023-08-20T09:35:33Z</time>
      </trkpt>
      <trkpt lat="44.79345" lon="2.33651">
        <ele>550.8</ele>
        <time>2023-08-20T09:35:34Z</time>
      </trkpt>
      <trkpt lat="44.79363" lon="2.33649">
        <ele>551</ele>
        <time>2023-08-20T09:35:35Z</time>
      </trkpt>
      <trkpt lat="44.79381" lon="2.33649">
        <ele>551.4</ele>
        <time>2023-08-20T09:35:36Z</time>
      </trkpt>
      <trkpt lat="44.79398" lon="2.33652">
        <ele>551.8</ele>
        <time>2023-08-20T09:35:37Z</time>
      </trkpt>
      <trkpt lat="44.79414" lon="2.33657">
        <ele>552.4</ele>
        <time>2023-08-20T09:35:38Z</time>
      </trkpt>
      <trkpt lat="44.79429" lon="2.33663">
        <ele>552.8</ele>
        <time>2023-08-20T09:35:39Z</time>
      </trkpt>
      <trkpt lat="44.79445" lon="2.33671">
        <ele>553</ele>
        <time>2023-08-20T09:35:40Z</time>
      </trkpt>
      <trkpt lat="44.79457" lon="2.33678">
        <ele>553</ele>
        <time>2023-08-20T09:35:41Z</time>
      </trkpt>
      <trkpt lat="44.79466" lon="2.33684">
        <ele>553</ele>
        <time>2023-08-20T09:35:42Z</time>
      </trkpt>
      <trkpt lat="44.79477" lon="2.33695">
        <ele>553</ele>
        <time>2023-08-20T09:35:43Z</time>
      </trkpt>
      <trkpt lat="44.79487" lon="2.33705">
        <ele>553</ele>
        <time>2023-08-20T09:35:44Z</time>
      </trkpt>
      <trkpt lat="44.79499" lon="2.33713">
        <ele>553</ele>
        <time>2023-08-20T09:35:45Z</time>
      </trkpt>
      <trkpt lat="44.79512" lon="2.33718">
        <ele>553</ele>
        <time>2023-08-20T09:35:46Z</time>
      </trkpt>
      <trkpt lat="44.79525" lon="2.33719">
        <ele>553</ele>
        <time>2023-08-20T09:35:47Z</time>
      </trkpt>
      <trkpt lat="44.79538" lon="2.3372">
        <ele>553</ele>
        <time>2023-08-20T09:35:48Z</time>
      </trkpt>
      <trkpt lat="44.79553" lon="2.33723">
        <ele>553</ele>
        <time>2023-08-20T09:35:49Z</time>
      </trkpt>
      <trkpt lat="44.79567" lon="2.33727">
        <ele>553</ele>
        <time>2023-08-20T09:35:50Z</time>
      </trkpt>
      <trkpt lat="44.79581" lon="2.33742">
        <ele>553</ele>
        <time>2023-08-20T09:35:51Z</time>
      </trkpt>
      <trkpt lat="44.79595" lon="2.33746">
        <ele>553</ele>
        <time>2023-08-20T09:35:52Z</time>
      </trkpt>
      <trkpt lat="44.79607" lon="2.33752">
        <ele>552.8</ele>
        <time>2023-08-20T09:35:53Z</time>
      </trkpt>
      <trkpt lat="44.79619" lon="2.33756">
        <ele>552.8</ele>
        <time>2023-08-20T09:35:54Z</time>
      </trkpt>
      <trkpt lat="44.7963" lon="2.33759">
        <ele>552.8</ele>
        <time>2023-08-20T09:35:55Z</time>
      </trkpt>
      <trkpt lat="44.79641" lon="2.33759">
        <ele>552.8</ele>
        <time>2023-08-20T09:35:56Z</time>
      </trkpt>
      <trkpt lat="44.79651" lon="2.33755">
        <ele>552.8</ele>
        <time>2023-08-20T09:35:57Z</time>
      </trkpt>
      <trkpt lat="44.79662" lon="2.3375">
        <ele>552.8</ele>
        <time>2023-08-20T09:35:58Z</time>
      </trkpt>
      <trkpt lat="44.79673" lon="2.33743">
        <ele>552.8</ele>
        <time>2023-08-20T09:35:59Z</time>
      </trkpt>
      <trkpt lat="44.79684" lon="2.33735">
        <ele>552.8</ele>
        <time>2023-08-20T09:36:00Z</time>
      </trkpt>
      <trkpt lat="44.79695" lon="2.33731">
        <ele>552.8</ele>
        <time>2023-08-20T09:36:01Z</time>
      </trkpt>
      <trkpt lat="44.79719" lon="2.33731">
        <ele>553</ele>
        <time>2023-08-20T09:36:03Z</time>
      </trkpt>
      <trkpt lat="44.7973" lon="2.33735">
        <ele>553</ele>
        <time>2023-08-20T09:36:04Z</time>
      </trkpt>
      <trkpt lat="44.79741" lon="2.33743">
        <ele>553</ele>
        <time>2023-08-20T09:36:05Z</time>
      </trkpt>
      <trkpt lat="44.79751" lon="2.33755">
        <ele>553.2</ele>
        <time>2023-08-20T09:36:06Z</time>
      </trkpt>
      <trkpt lat="44.7976" lon="2.33769">
        <ele>553.4</ele>
        <time>2023-08-20T09:36:07Z</time>
      </trkpt>
      <trkpt lat="44.79767" lon="2.33786">
        <ele>553.8</ele>
        <time>2023-08-20T09:36:08Z</time>
      </trkpt>
      <trkpt lat="44.79773" lon="2.33808">
        <ele>554</ele>
        <time>2023-08-20T09:36:09Z</time>
      </trkpt>
      <trkpt lat="44.79777" lon="2.33827">
        <ele>554.4</ele>
        <time>2023-08-20T09:36:10Z</time>
      </trkpt>
      <trkpt lat="44.79779" lon="2.33843">
        <ele>554.4</ele>
        <time>2023-08-20T09:36:11Z</time>
      </trkpt>
      <trkpt lat="44.79782" lon="2.33868">
        <ele>554.8</ele>
        <time>2023-08-20T09:36:12Z</time>
      </trkpt>
      <trkpt lat="44.79783" lon="2.33909">
        <ele>555.8</ele>
        <time>2023-08-20T09:36:14Z</time>
      </trkpt>
      <trkpt lat="44.79782" lon="2.33929">
        <ele>556.4</ele>
        <time>2023-08-20T09:36:15Z</time>
      </trkpt>
      <trkpt lat="44.79781" lon="2.33944">
        <ele>556.6</ele>
        <time>2023-08-20T09:36:16Z</time>
      </trkpt>
      <trkpt lat="44.79781" lon="2.33963">
        <ele>557</ele>
        <time>2023-08-20T09:36:17Z</time>
      </trkpt>
      <trkpt lat="44.7978" lon="2.33981">
        <ele>557</ele>
        <time>2023-08-20T09:36:18Z</time>
      </trkpt>
      <trkpt lat="44.79779" lon="2.33997">
        <ele>557.4</ele>
        <time>2023-08-20T09:36:19Z</time>
      </trkpt>
      <trkpt lat="44.79779" lon="2.34013">
        <ele>557.6</ele>
        <time>2023-08-20T09:36:20Z</time>
      </trkpt>
      <trkpt lat="44.79778" lon="2.34029">
        <ele>557.8</ele>
        <time>2023-08-20T09:36:21Z</time>
      </trkpt>
      <trkpt lat="44.79779" lon="2.34043">
        <ele>558</ele>
        <time>2023-08-20T09:36:22Z</time>
      </trkpt>
      <trkpt lat="44.7978" lon="2.34056">
        <ele>558</ele>
        <time>2023-08-20T09:36:23Z</time>
      </trkpt>
      <trkpt lat="44.79783" lon="2.34068">
        <ele>558</ele>
        <time>2023-08-20T09:36:24Z</time>
      </trkpt>
      <trkpt lat="44.79787" lon="2.34077">
        <ele>558.2</ele>
        <time>2023-08-20T09:36:25Z</time>
      </trkpt>
      <trkpt lat="44.79792" lon="2.34086">
        <ele>558.4</ele>
        <time>2023-08-20T09:36:26Z</time>
      </trkpt>
      <trkpt lat="44.79798" lon="2.34093">
        <ele>558.4</ele>
        <time>2023-08-20T09:36:27Z</time>
      </trkpt>
      <trkpt lat="44.79805" lon="2.34097">
        <ele>558.4</ele>
        <time>2023-08-20T09:36:28Z</time>
      </trkpt>
      <trkpt lat="44.79813" lon="2.341">
        <ele>558.6</ele>
        <time>2023-08-20T09:36:29Z</time>
      </trkpt>
      <trkpt lat="44.79822" lon="2.341">
        <ele>558.6</ele>
        <time>2023-08-20T09:36:30Z</time>
      </trkpt>
      <trkpt lat="44.79831" lon="2.34098">
        <ele>558.6</ele>
        <time>2023-08-20T09:36:31Z</time>
      </trkpt>
      <trkpt lat="44.79839" lon="2.34094">
        <ele>558.6</ele>
        <time>2023-08-20T09:36:32Z</time>
      </trkpt>
      <trkpt lat="44.79846" lon="2.34091">
        <ele>558.6</ele>
        <time>2023-08-20T09:36:33Z</time>
      </trkpt>
      <trkpt lat="44.79851" lon="2.34089">
        <ele>558.6</ele>
        <time>2023-08-20T09:36:34Z</time>
      </trkpt>
      <trkpt lat="44.79854" lon="2.34087">
        <ele>558.6</ele>
        <time>2023-08-20T09:36:35Z</time>
      </trkpt>
      <trkpt lat="44.79857" lon="2.34088">
        <ele>558.6</ele>
        <time>2023-08-20T09:36:36Z</time>
      </trkpt>
      <trkpt lat="44.79859" lon="2.3409">
        <ele>558.6</ele>
        <time>2023-08-20T09:36:37Z</time>
      </trkpt>
      <trkpt lat="44.7986" lon="2.34093">
        <ele>558.6</ele>
        <time>2023-08-20T09:36:38Z</time>
      </trkpt>
      <trkpt lat="44.7986" lon="2.34095">
        <ele>558.6</ele>
        <time>2023-08-20T09:36:39Z</time>
      </trkpt>
      <trkpt lat="44.79858" lon="2.34098">
        <ele>558.6</ele>
        <time>2023-08-20T09:36:40Z</time>
      </trkpt>
      <trkpt lat="44.79854" lon="2.34101">
        <ele>558.6</ele>
        <time>2023-08-20T09:36:41Z</time>
      </trkpt>
      <trkpt lat="44.7985" lon="2.34103">
        <ele>558.6</ele>
        <time>2023-08-20T09:36:42Z</time>
      </trkpt>
      <trkpt lat="44.79845" lon="2.34107">
        <ele>558.6</ele>
        <time>2023-08-20T09:36:43Z</time>
      </trkpt>
      <trkpt lat="44.79837" lon="2.34112">
        <ele>558.4</ele>
        <time>2023-08-20T09:36:44Z</time>
      </trkpt>
      <trkpt lat="44.79828" lon="2.34117">
        <ele>558.2</ele>
        <time>2023-08-20T09:36:45Z</time>
      </trkpt>
      <trkpt lat="44.79819" lon="2.34121">
        <ele>558</ele>
        <time>2023-08-20T09:36:46Z</time>
      </trkpt>
      <trkpt lat="44.79809" lon="2.34123">
        <ele>558</ele>
        <time>2023-08-20T09:36:47Z</time>
      </trkpt>
      <trkpt lat="44.79787" lon="2.34122">
        <ele>557.6</ele>
        <time>2023-08-20T09:36:49Z</time>
      </trkpt>
      <trkpt lat="44.79768" lon="2.3411">
        <ele>557.4</ele>
        <time>2023-08-20T09:36:51Z</time>
      </trkpt>
      <trkpt lat="44.7976" lon="2.34101">
        <ele>557.2</ele>
        <time>2023-08-20T09:36:52Z</time>
      </trkpt>
      <trkpt lat="44.79753" lon="2.34091">
        <ele>556.6</ele>
        <time>2023-08-20T09:36:53Z</time>
      </trkpt>
      <trkpt lat="44.79746" lon="2.34081">
        <ele>556.4</ele>
        <time>2023-08-20T09:36:54Z</time>
      </trkpt>
      <trkpt lat="44.7974" lon="2.34072">
        <ele>556</ele>
        <time>2023-08-20T09:36:55Z</time>
      </trkpt>
      <trkpt lat="44.79734" lon="2.34064">
        <ele>555.8</ele>
        <time>2023-08-20T09:36:56Z</time>
      </trkpt>
      <trkpt lat="44.79727" lon="2.34057">
        <ele>555.2</ele>
        <time>2023-08-20T09:36:57Z</time>
      </trkpt>
      <trkpt lat="44.7972" lon="2.34051">
        <ele>554.6</ele>
        <time>2023-08-20T09:36:58Z</time>
      </trkpt>
      <trkpt lat="44.79711" lon="2.34048">
        <ele>554.4</ele>
        <time>2023-08-20T09:36:59Z</time>
      </trkpt>
      <trkpt lat="44.79702" lon="2.34045">
        <ele>553.8</ele>
        <time>2023-08-20T09:37:00Z</time>
      </trkpt>
      <trkpt lat="44.79691" lon="2.34044">
        <ele>553.8</ele>
        <time>2023-08-20T09:37:01Z</time>
      </trkpt>
      <trkpt lat="44.79679" lon="2.34043">
        <ele>553.6</ele>
        <time>2023-08-20T09:37:02Z</time>
      </trkpt>
      <trkpt lat="44.79626" lon="2.34038">
        <ele>553.6</ele>
        <time>2023-08-20T09:37:06Z</time>
      </trkpt>
      <trkpt lat="44.79584" lon="2.34033">
        <ele>554.6</ele>
        <time>2023-08-20T09:37:09Z</time>
      </trkpt>
      <trkpt lat="44.79558" lon="2.3403">
        <ele>555.8</ele>
        <time>2023-08-20T09:37:11Z</time>
      </trkpt>
      <trkpt lat="44.79546" lon="2.34029">
        <ele>556.2</ele>
        <time>2023-08-20T09:37:12Z</time>
      </trkpt>
      <trkpt lat="44.79533" lon="2.34031">
        <ele>556.6</ele>
        <time>2023-08-20T09:37:13Z</time>
      </trkpt>
      <trkpt lat="44.79522" lon="2.34035">
        <ele>557</ele>
        <time>2023-08-20T09:37:14Z</time>
      </trkpt>
      <trkpt lat="44.7951" lon="2.34042">
        <ele>557.2</ele>
        <time>2023-08-20T09:37:15Z</time>
      </trkpt>
      <trkpt lat="44.795" lon="2.34051">
        <ele>557.8</ele>
        <time>2023-08-20T09:37:16Z</time>
      </trkpt>
      <trkpt lat="44.79489" lon="2.34059">
        <ele>558.2</ele>
        <time>2023-08-20T09:37:17Z</time>
      </trkpt>
      <trkpt lat="44.79467" lon="2.34076">
        <ele>559</ele>
        <time>2023-08-20T09:37:19Z</time>
      </trkpt>
      <trkpt lat="44.79457" lon="2.34084">
        <ele>559.4</ele>
        <time>2023-08-20T09:37:20Z</time>
      </trkpt>
      <trkpt lat="44.79448" lon="2.34092">
        <ele>559.6</ele>
        <time>2023-08-20T09:37:21Z</time>
      </trkpt>
      <trkpt lat="44.79438" lon="2.34099">
        <ele>560</ele>
        <time>2023-08-20T09:37:22Z</time>
      </trkpt>
      <trkpt lat="44.79429" lon="2.34106">
        <ele>560.4</ele>
        <time>2023-08-20T09:37:23Z</time>
      </trkpt>
      <trkpt lat="44.79419" lon="2.34112">
        <ele>560.8</ele>
        <time>2023-08-20T09:37:24Z</time>
      </trkpt>
      <trkpt lat="44.79409" lon="2.34115">
        <ele>561</ele>
        <time>2023-08-20T09:37:25Z</time>
      </trkpt>
      <trkpt lat="44.79398" lon="2.34115">
        <ele>561.2</ele>
        <time>2023-08-20T09:37:26Z</time>
      </trkpt>
      <trkpt lat="44.79387" lon="2.34113">
        <ele>561.4</ele>
        <time>2023-08-20T09:37:27Z</time>
      </trkpt>
      <trkpt lat="44.79375" lon="2.3411">
        <ele>561.8</ele>
        <time>2023-08-20T09:37:28Z</time>
      </trkpt>
      <trkpt lat="44.79363" lon="2.3411">
        <ele>562.2</ele>
        <time>2023-08-20T09:37:29Z</time>
      </trkpt>
      <trkpt lat="44.79351" lon="2.34112">
        <ele>562.4</ele>
        <time>2023-08-20T09:37:30Z</time>
      </trkpt>
      <trkpt lat="44.79339" lon="2.34116">
        <ele>563.2</ele>
        <time>2023-08-20T09:37:31Z</time>
      </trkpt>
      <trkpt lat="44.79328" lon="2.3412">
        <ele>563.8</ele>
        <time>2023-08-20T09:37:32Z</time>
      </trkpt>
      <trkpt lat="44.79318" lon="2.34125">
        <ele>564.2</ele>
        <time>2023-08-20T09:37:33Z</time>
      </trkpt>
      <trkpt lat="44.7931" lon="2.3413">
        <ele>564.6</ele>
        <time>2023-08-20T09:37:34Z</time>
      </trkpt>
      <trkpt lat="44.79303" lon="2.34136">
        <ele>565.2</ele>
        <time>2023-08-20T09:37:35Z</time>
      </trkpt>
      <trkpt lat="44.79299" lon="2.34144">
        <ele>565.8</ele>
        <time>2023-08-20T09:37:36Z</time>
      </trkpt>
      <trkpt lat="44.79298" lon="2.34151">
        <ele>566.2</ele>
        <time>2023-08-20T09:37:37Z</time>
      </trkpt>
      <trkpt lat="44.79301" lon="2.34159">
        <ele>566.6</ele>
        <time>2023-08-20T09:37:38Z</time>
      </trkpt>
      <trkpt lat="44.79308" lon="2.34165">
        <ele>566.8</ele>
        <time>2023-08-20T09:37:39Z</time>
      </trkpt>
      <trkpt lat="44.79316" lon="2.34171">
        <ele>567.2</ele>
        <time>2023-08-20T09:37:40Z</time>
      </trkpt>
      <trkpt lat="44.79326" lon="2.34178">
        <ele>568.2</ele>
        <time>2023-08-20T09:37:41Z</time>
      </trkpt>
      <trkpt lat="44.79336" lon="2.34186">
        <ele>568.6</ele>
        <time>2023-08-20T09:37:42Z</time>
      </trkpt>
      <trkpt lat="44.79344" lon="2.34197">
        <ele>569.6</ele>
        <time>2023-08-20T09:37:43Z</time>
      </trkpt>
      <trkpt lat="44.79349" lon="2.3421">
        <ele>570.2</ele>
        <time>2023-08-20T09:37:44Z</time>
      </trkpt>
      <trkpt lat="44.79351" lon="2.34224">
        <ele>571</ele>
        <time>2023-08-20T09:37:45Z</time>
      </trkpt>
      <trkpt lat="44.79349" lon="2.34239">
        <ele>571.4</ele>
        <time>2023-08-20T09:37:46Z</time>
      </trkpt>
      <trkpt lat="44.79344" lon="2.34254">
        <ele>572</ele>
        <time>2023-08-20T09:37:47Z</time>
      </trkpt>
      <trkpt lat="44.79335" lon="2.34268">
        <ele>572.2</ele>
        <time>2023-08-20T09:37:48Z</time>
      </trkpt>
      <trkpt lat="44.79325" lon="2.34278">
        <ele>573</ele>
        <time>2023-08-20T09:37:49Z</time>
      </trkpt>
      <trkpt lat="44.79313" lon="2.34284">
        <ele>573.8</ele>
        <time>2023-08-20T09:37:50Z</time>
      </trkpt>
      <trkpt lat="44.79301" lon="2.34288">
        <ele>574</ele>
        <time>2023-08-20T09:37:51Z</time>
      </trkpt>
      <trkpt lat="44.79289" lon="2.34289">
        <ele>575</ele>
        <time>2023-08-20T09:37:52Z</time>
      </trkpt>
      <trkpt lat="44.79277" lon="2.34291">
        <ele>575.4</ele>
        <time>2023-08-20T09:37:53Z</time>
      </trkpt>
      <trkpt lat="44.79266" lon="2.34292">
        <ele>576.4</ele>
        <time>2023-08-20T09:37:54Z</time>
      </trkpt>
      <trkpt lat="44.79255" lon="2.34293">
        <ele>576.8</ele>
        <time>2023-08-20T09:37:55Z</time>
      </trkpt>
      <trkpt lat="44.79244" lon="2.34293">
        <ele>577.6</ele>
        <time>2023-08-20T09:37:56Z</time>
      </trkpt>
      <trkpt lat="44.79233" lon="2.3429">
        <ele>578.4</ele>
        <time>2023-08-20T09:37:57Z</time>
      </trkpt>
      <trkpt lat="44.79223" lon="2.34286">
        <ele>579</ele>
        <time>2023-08-20T09:37:58Z</time>
      </trkpt>
      <trkpt lat="44.79213" lon="2.3428">
        <ele>579.6</ele>
        <time>2023-08-20T09:37:59Z</time>
      </trkpt>
      <trkpt lat="44.79205" lon="2.34275">
        <ele>579.8</ele>
        <time>2023-08-20T09:38:00Z</time>
      </trkpt>
      <trkpt lat="44.79197" lon="2.34273">
        <ele>580.4</ele>
        <time>2023-08-20T09:38:01Z</time>
      </trkpt>
      <trkpt lat="44.7919" lon="2.34274">
        <ele>580.8</ele>
        <time>2023-08-20T09:38:02Z</time>
      </trkpt>
      <trkpt lat="44.79183" lon="2.34279">
        <ele>581.2</ele>
        <time>2023-08-20T09:38:03Z</time>
      </trkpt>
      <trkpt lat="44.79178" lon="2.34287">
        <ele>581.4</ele>
        <time>2023-08-20T09:38:04Z</time>
      </trkpt>
      <trkpt lat="44.79173" lon="2.34298">
        <ele>581.8</ele>
        <time>2023-08-20T09:38:05Z</time>
      </trkpt>
      <trkpt lat="44.79168" lon="2.34309">
        <ele>582.2</ele>
        <time>2023-08-20T09:38:06Z</time>
      </trkpt>
      <trkpt lat="44.79162" lon="2.34318">
        <ele>582.4</ele>
        <time>2023-08-20T09:38:07Z</time>
      </trkpt>
      <trkpt lat="44.79155" lon="2.34324">
        <ele>583.2</ele>
        <time>2023-08-20T09:38:08Z</time>
      </trkpt>
      <trkpt lat="44.79146" lon="2.34327">
        <ele>583.6</ele>
        <time>2023-08-20T09:38:09Z</time>
      </trkpt>
      <trkpt lat="44.79137" lon="2.34326">
        <ele>584.2</ele>
        <time>2023-08-20T09:38:10Z</time>
      </trkpt>
      <trkpt lat="44.79127" lon="2.34324">
        <ele>584.8</ele>
        <time>2023-08-20T09:38:11Z</time>
      </trkpt>
      <trkpt lat="44.79118" lon="2.34322">
        <ele>585.6</ele>
        <time>2023-08-20T09:38:12Z</time>
      </trkpt>
      <trkpt lat="44.7911" lon="2.34322">
        <ele>586.2</ele>
        <time>2023-08-20T09:38:13Z</time>
      </trkpt>
      <trkpt lat="44.79102" lon="2.34327">
        <ele>587.2</ele>
        <time>2023-08-20T09:38:14Z</time>
      </trkpt>
      <trkpt lat="44.79097" lon="2.34336">
        <ele>588</ele>
        <time>2023-08-20T09:38:15Z</time>
      </trkpt>
      <trkpt lat="44.79093" lon="2.34347">
        <ele>588.4</ele>
        <time>2023-08-20T09:38:16Z</time>
      </trkpt>
      <trkpt lat="44.79094" lon="2.34358">
        <ele>589.4</ele>
        <time>2023-08-20T09:38:17Z</time>
      </trkpt>
      <trkpt lat="44.79098" lon="2.34369">
        <ele>589.6</ele>
        <time>2023-08-20T09:38:18Z</time>
      </trkpt>
      <trkpt lat="44.79105" lon="2.34379">
        <ele>590</ele>
        <time>2023-08-20T09:38:19Z</time>
      </trkpt>
      <trkpt lat="44.79115" lon="2.3439">
        <ele>590.4</ele>
        <time>2023-08-20T09:38:20Z</time>
      </trkpt>
      <trkpt lat="44.79126" lon="2.34399">
        <ele>591.2</ele>
        <time>2023-08-20T09:38:21Z</time>
      </trkpt>
      <trkpt lat="44.79138" lon="2.34409">
        <ele>592</ele>
        <time>2023-08-20T09:38:22Z</time>
      </trkpt>
      <trkpt lat="44.7915" lon="2.34419">
        <ele>593.4</ele>
        <time>2023-08-20T09:38:23Z</time>
      </trkpt>
      <trkpt lat="44.79159" lon="2.34429">
        <ele>594.6</ele>
        <time>2023-08-20T09:38:24Z</time>
      </trkpt>
      <trkpt lat="44.79167" lon="2.3444">
        <ele>595</ele>
        <time>2023-08-20T09:38:25Z</time>
      </trkpt>
      <trkpt lat="44.79172" lon="2.34451">
        <ele>596.4</ele>
        <time>2023-08-20T09:38:26Z</time>
      </trkpt>
      <trkpt lat="44.79174" lon="2.34464">
        <ele>596.8</ele>
        <time>2023-08-20T09:38:27Z</time>
      </trkpt>
      <trkpt lat="44.79173" lon="2.34476">
        <ele>597.2</ele>
        <time>2023-08-20T09:38:28Z</time>
      </trkpt>
      <trkpt lat="44.79168" lon="2.34487">
        <ele>597.6</ele>
        <time>2023-08-20T09:38:29Z</time>
      </trkpt>
      <trkpt lat="44.79161" lon="2.34498">
        <ele>598</ele>
        <time>2023-08-20T09:38:30Z</time>
      </trkpt>
      <trkpt lat="44.79152" lon="2.34508">
        <ele>598.4</ele>
        <time>2023-08-20T09:38:31Z</time>
      </trkpt>
      <trkpt lat="44.79142" lon="2.34519">
        <ele>598.8</ele>
        <time>2023-08-20T09:38:32Z</time>
      </trkpt>
      <trkpt lat="44.79131" lon="2.3453">
        <ele>599.6</ele>
        <time>2023-08-20T09:38:33Z</time>
      </trkpt>
      <trkpt lat="44.7912" lon="2.3454">
        <ele>600</ele>
        <time>2023-08-20T09:38:34Z</time>
      </trkpt>
      <trkpt lat="44.79108" lon="2.34551">
        <ele>600.8</ele>
        <time>2023-08-20T09:38:35Z</time>
      </trkpt>
      <trkpt lat="44.79097" lon="2.34561">
        <ele>601.4</ele>
        <time>2023-08-20T09:38:36Z</time>
      </trkpt>
      <trkpt lat="44.79086" lon="2.34569">
        <ele>602.6</ele>
        <time>2023-08-20T09:38:37Z</time>
      </trkpt>
      <trkpt lat="44.79074" lon="2.34577">
        <ele>603.2</ele>
        <time>2023-08-20T09:38:38Z</time>
      </trkpt>
      <trkpt lat="44.7906" lon="2.34582">
        <ele>604</ele>
        <time>2023-08-20T09:38:39Z</time>
      </trkpt>
      <trkpt lat="44.79047" lon="2.34585">
        <ele>604.8</ele>
        <time>2023-08-20T09:38:40Z</time>
      </trkpt>
      <trkpt lat="44.79033" lon="2.34585">
        <ele>605.2</ele>
        <time>2023-08-20T09:38:41Z</time>
      </trkpt>
      <trkpt lat="44.7902" lon="2.34582">
        <ele>605.8</ele>
        <time>2023-08-20T09:38:42Z</time>
      </trkpt>
      <trkpt lat="44.79007" lon="2.34578">
        <ele>606.2</ele>
        <time>2023-08-20T09:38:43Z</time>
      </trkpt>
      <trkpt lat="44.78996" lon="2.34578">
        <ele>607.2</ele>
        <time>2023-08-20T09:38:44Z</time>
      </trkpt>
      <trkpt lat="44.78984" lon="2.34581">
        <ele>607.6</ele>
        <time>2023-08-20T09:38:45Z</time>
      </trkpt>
      <trkpt lat="44.78973" lon="2.34586">
        <ele>608.4</ele>
        <time>2023-08-20T09:38:46Z</time>
      </trkpt>
      <trkpt lat="44.78961" lon="2.34589">
        <ele>608.8</ele>
        <time>2023-08-20T09:38:47Z</time>
      </trkpt>
      <trkpt lat="44.78948" lon="2.34592">
        <ele>609.6</ele>
        <time>2023-08-20T09:38:48Z</time>
      </trkpt>
      <trkpt lat="44.78935" lon="2.34594">
        <ele>610.4</ele>
        <time>2023-08-20T09:38:49Z</time>
      </trkpt>
      <trkpt lat="44.78922" lon="2.34596">
        <ele>611</ele>
        <time>2023-08-20T09:38:50Z</time>
      </trkpt>
      <trkpt lat="44.78909" lon="2.34598">
        <ele>612</ele>
        <time>2023-08-20T09:38:51Z</time>
      </trkpt>
      <trkpt lat="44.78899" lon="2.34601">
        <ele>612.8</ele>
        <time>2023-08-20T09:38:52Z</time>
      </trkpt>
      <trkpt lat="44.7889" lon="2.34607">
        <ele>613.6</ele>
        <time>2023-08-20T09:38:53Z</time>
      </trkpt>
      <trkpt lat="44.78883" lon="2.34616">
        <ele>613.8</ele>
        <time>2023-08-20T09:38:54Z</time>
      </trkpt>
      <trkpt lat="44.7888" lon="2.34625">
        <ele>614.6</ele>
        <time>2023-08-20T09:38:55Z</time>
      </trkpt>
      <trkpt lat="44.78879" lon="2.34634">
        <ele>614.8</ele>
        <time>2023-08-20T09:38:56Z</time>
      </trkpt>
      <trkpt lat="44.78878" lon="2.34644">
        <ele>615</ele>
        <time>2023-08-20T09:38:57Z</time>
      </trkpt>
      <trkpt lat="44.78878" lon="2.34656">
        <ele>615.2</ele>
        <time>2023-08-20T09:38:58Z</time>
      </trkpt>
      <trkpt lat="44.78879" lon="2.34668">
        <ele>615.6</ele>
        <time>2023-08-20T09:38:59Z</time>
      </trkpt>
      <trkpt lat="44.78892" lon="2.3469">
        <ele>616.4</ele>
        <time>2023-08-20T09:39:00Z</time>
      </trkpt>
      <trkpt lat="44.78901" lon="2.34709">
        <ele>617.2</ele>
        <time>2023-08-20T09:39:01Z</time>
      </trkpt>
      <trkpt lat="44.78907" lon="2.34728">
        <ele>618.4</ele>
        <time>2023-08-20T09:39:02Z</time>
      </trkpt>
      <trkpt lat="44.78911" lon="2.34746">
        <ele>619</ele>
        <time>2023-08-20T09:39:03Z</time>
      </trkpt>
      <trkpt lat="44.78912" lon="2.34762">
        <ele>619.8</ele>
        <time>2023-08-20T09:39:04Z</time>
      </trkpt>
      <trkpt lat="44.78908" lon="2.34776">
        <ele>620.4</ele>
        <time>2023-08-20T09:39:05Z</time>
      </trkpt>
      <trkpt lat="44.78902" lon="2.3479">
        <ele>621.2</ele>
        <time>2023-08-20T09:39:06Z</time>
      </trkpt>
      <trkpt lat="44.78895" lon="2.34802">
        <ele>621.6</ele>
        <time>2023-08-20T09:39:07Z</time>
      </trkpt>
      <trkpt lat="44.78885" lon="2.34814">
        <ele>621.8</ele>
        <time>2023-08-20T09:39:08Z</time>
      </trkpt>
      <trkpt lat="44.78876" lon="2.34825">
        <ele>622</ele>
        <time>2023-08-20T09:39:09Z</time>
      </trkpt>
      <trkpt lat="44.78866" lon="2.34835">
        <ele>622.4</ele>
        <time>2023-08-20T09:39:10Z</time>
      </trkpt>
      <trkpt lat="44.78856" lon="2.34846">
        <ele>622.8</ele>
        <time>2023-08-20T09:39:11Z</time>
      </trkpt>
      <trkpt lat="44.78848" lon="2.34858">
        <ele>623</ele>
        <time>2023-08-20T09:39:12Z</time>
      </trkpt>
      <trkpt lat="44.78842" lon="2.3487">
        <ele>623.6</ele>
        <time>2023-08-20T09:39:13Z</time>
      </trkpt>
      <trkpt lat="44.78838" lon="2.34883">
        <ele>624.2</ele>
        <time>2023-08-20T09:39:14Z</time>
      </trkpt>
      <trkpt lat="44.78835" lon="2.34897">
        <ele>624.8</ele>
        <time>2023-08-20T09:39:15Z</time>
      </trkpt>
      <trkpt lat="44.78832" lon="2.34911">
        <ele>625.4</ele>
        <time>2023-08-20T09:39:16Z</time>
      </trkpt>
      <trkpt lat="44.78828" lon="2.34925">
        <ele>625.8</ele>
        <time>2023-08-20T09:39:17Z</time>
      </trkpt>
      <trkpt lat="44.78821" lon="2.34939">
        <ele>626.2</ele>
        <time>2023-08-20T09:39:18Z</time>
      </trkpt>
      <trkpt lat="44.78814" lon="2.34952">
        <ele>626.4</ele>
        <time>2023-08-20T09:39:19Z</time>
      </trkpt>
      <trkpt lat="44.78808" lon="2.34966">
        <ele>626.6</ele>
        <time>2023-08-20T09:39:20Z</time>
      </trkpt>
      <trkpt lat="44.78807" lon="2.34978">
        <ele>626.8</ele>
        <time>2023-08-20T09:39:21Z</time>
      </trkpt>
      <trkpt lat="44.78809" lon="2.34989">
        <ele>627.2</ele>
        <time>2023-08-20T09:39:22Z</time>
      </trkpt>
      <trkpt lat="44.78811" lon="2.35">
        <ele>627.4</ele>
        <time>2023-08-20T09:39:23Z</time>
      </trkpt>
      <trkpt lat="44.78811" lon="2.35011">
        <ele>627.4</ele>
        <time>2023-08-20T09:39:24Z</time>
      </trkpt>
      <trkpt lat="44.78809" lon="2.3502">
        <ele>627.8</ele>
        <time>2023-08-20T09:39:25Z</time>
      </trkpt>
      <trkpt lat="44.78803" lon="2.35031">
        <ele>628</ele>
        <time>2023-08-20T09:39:26Z</time>
      </trkpt>
      <trkpt lat="44.78792" lon="2.35045">
        <ele>628.2</ele>
        <time>2023-08-20T09:39:27Z</time>
      </trkpt>
      <trkpt lat="44.7878" lon="2.35056">
        <ele>628.2</ele>
        <time>2023-08-20T09:39:28Z</time>
      </trkpt>
      <trkpt lat="44.7877" lon="2.35065">
        <ele>628.8</ele>
        <time>2023-08-20T09:39:29Z</time>
      </trkpt>
      <trkpt lat="44.78761" lon="2.35074">
        <ele>629</ele>
        <time>2023-08-20T09:39:30Z</time>
      </trkpt>
      <trkpt lat="44.78751" lon="2.3508">
        <ele>629.2</ele>
        <time>2023-08-20T09:39:31Z</time>
      </trkpt>
      <trkpt lat="44.78741" lon="2.35081">
        <ele>630</ele>
        <time>2023-08-20T09:39:32Z</time>
      </trkpt>
      <trkpt lat="44.78733" lon="2.3508">
        <ele>630.4</ele>
        <time>2023-08-20T09:39:33Z</time>
      </trkpt>
      <trkpt lat="44.78725" lon="2.35081">
        <ele>631</ele>
        <time>2023-08-20T09:39:34Z</time>
      </trkpt>
      <trkpt lat="44.78718" lon="2.35084">
        <ele>631.2</ele>
        <time>2023-08-20T09:39:35Z</time>
      </trkpt>
      <trkpt lat="44.78713" lon="2.35087">
        <ele>631.8</ele>
        <time>2023-08-20T09:39:36Z</time>
      </trkpt>
      <trkpt lat="44.78709" lon="2.35093">
        <ele>632</ele>
        <time>2023-08-20T09:39:37Z</time>
      </trkpt>
      <trkpt lat="44.78704" lon="2.35102">
        <ele>632.2</ele>
        <time>2023-08-20T09:39:38Z</time>
      </trkpt>
      <trkpt lat="44.78698" lon="2.35114">
        <ele>632.4</ele>
        <time>2023-08-20T09:39:39Z</time>
      </trkpt>
      <trkpt lat="44.78691" lon="2.35125">
        <ele>632.8</ele>
        <time>2023-08-20T09:39:40Z</time>
      </trkpt>
      <trkpt lat="44.78682" lon="2.35137">
        <ele>633.2</ele>
        <time>2023-08-20T09:39:41Z</time>
      </trkpt>
      <trkpt lat="44.7867" lon="2.35149">
        <ele>633.8</ele>
        <time>2023-08-20T09:39:42Z</time>
      </trkpt>
      <trkpt lat="44.78657" lon="2.35162">
        <ele>634.4</ele>
        <time>2023-08-20T09:39:43Z</time>
      </trkpt>
      <trkpt lat="44.78643" lon="2.35172">
        <ele>634.6</ele>
        <time>2023-08-20T09:39:44Z</time>
      </trkpt>
      <trkpt lat="44.78629" lon="2.35182">
        <ele>635.8</ele>
        <time>2023-08-20T09:39:45Z</time>
      </trkpt>
      <trkpt lat="44.78615" lon="2.35192">
        <ele>636.6</ele>
        <time>2023-08-20T09:39:46Z</time>
      </trkpt>
      <trkpt lat="44.78601" lon="2.35204">
        <ele>638</ele>
        <time>2023-08-20T09:39:47Z</time>
      </trkpt>
      <trkpt lat="44.78593" lon="2.35215">
        <ele>638.8</ele>
        <time>2023-08-20T09:39:48Z</time>
      </trkpt>
      <trkpt lat="44.78586" lon="2.35226">
        <ele>639.8</ele>
        <time>2023-08-20T09:39:49Z</time>
      </trkpt>
      <trkpt lat="44.78581" lon="2.3524">
        <ele>640.4</ele>
        <time>2023-08-20T09:39:50Z</time>
      </trkpt>
      <trkpt lat="44.78576" lon="2.35255">
        <ele>640.6</ele>
        <time>2023-08-20T09:39:51Z</time>
      </trkpt>
      <trkpt lat="44.78572" lon="2.35271">
        <ele>641.2</ele>
        <time>2023-08-20T09:39:52Z</time>
      </trkpt>
      <trkpt lat="44.78567" lon="2.35291">
        <ele>641.4</ele>
        <time>2023-08-20T09:39:53Z</time>
      </trkpt>
      <trkpt lat="44.78564" lon="2.35305">
        <ele>641.8</ele>
        <time>2023-08-20T09:39:54Z</time>
      </trkpt>
      <trkpt lat="44.78561" lon="2.35322">
        <ele>642</ele>
        <time>2023-08-20T09:39:55Z</time>
      </trkpt>
      <trkpt lat="44.78558" lon="2.35337">
        <ele>643</ele>
        <time>2023-08-20T09:39:56Z</time>
      </trkpt>
      <trkpt lat="44.78556" lon="2.35351">
        <ele>643.8</ele>
        <time>2023-08-20T09:39:57Z</time>
      </trkpt>
      <trkpt lat="44.78554" lon="2.35363">
        <ele>644.4</ele>
        <time>2023-08-20T09:39:58Z</time>
      </trkpt>
      <trkpt lat="44.7855" lon="2.35374">
        <ele>645.2</ele>
        <time>2023-08-20T09:39:59Z</time>
      </trkpt>
      <trkpt lat="44.78546" lon="2.35382">
        <ele>645.6</ele>
        <time>2023-08-20T09:40:00Z</time>
      </trkpt>
      <trkpt lat="44.7854" lon="2.35388">
        <ele>645.6</ele>
        <time>2023-08-20T09:40:01Z</time>
      </trkpt>
      <trkpt lat="44.78534" lon="2.35391">
        <ele>645.8</ele>
        <time>2023-08-20T09:40:02Z</time>
      </trkpt>
      <trkpt lat="44.78526" lon="2.3539">
        <ele>646.2</ele>
        <time>2023-08-20T09:40:03Z</time>
      </trkpt>
      <trkpt lat="44.78518" lon="2.35389">
        <ele>646.4</ele>
        <time>2023-08-20T09:40:04Z</time>
      </trkpt>
      <trkpt lat="44.78509" lon="2.35389">
        <ele>647</ele>
        <time>2023-08-20T09:40:05Z</time>
      </trkpt>
      <trkpt lat="44.785" lon="2.35389">
        <ele>647.2</ele>
        <time>2023-08-20T09:40:06Z</time>
      </trkpt>
      <trkpt lat="44.78491" lon="2.35389">
        <ele>647.6</ele>
        <time>2023-08-20T09:40:07Z</time>
      </trkpt>
      <trkpt lat="44.78481" lon="2.35391">
        <ele>648.2</ele>
        <time>2023-08-20T09:40:08Z</time>
      </trkpt>
      <trkpt lat="44.78472" lon="2.35392">
        <ele>648.4</ele>
        <time>2023-08-20T09:40:09Z</time>
      </trkpt>
      <trkpt lat="44.78461" lon="2.35394">
        <ele>648.8</ele>
        <time>2023-08-20T09:40:10Z</time>
      </trkpt>
      <trkpt lat="44.78451" lon="2.35397">
        <ele>649.2</ele>
        <time>2023-08-20T09:40:11Z</time>
      </trkpt>
      <trkpt lat="44.7844" lon="2.354">
        <ele>650</ele>
        <time>2023-08-20T09:40:12Z</time>
      </trkpt>
      <trkpt lat="44.7843" lon="2.35403">
        <ele>650.2</ele>
        <time>2023-08-20T09:40:13Z</time>
      </trkpt>
      <trkpt lat="44.78419" lon="2.35405">
        <ele>650.8</ele>
        <time>2023-08-20T09:40:14Z</time>
      </trkpt>
      <trkpt lat="44.78408" lon="2.35408">
        <ele>651.4</ele>
        <time>2023-08-20T09:40:15Z</time>
      </trkpt>
      <trkpt lat="44.78398" lon="2.35411">
        <ele>651.6</ele>
        <time>2023-08-20T09:40:16Z</time>
      </trkpt>
      <trkpt lat="44.78389" lon="2.35414">
        <ele>652</ele>
        <time>2023-08-20T09:40:17Z</time>
      </trkpt>
      <trkpt lat="44.7838" lon="2.35415">
        <ele>652.8</ele>
        <time>2023-08-20T09:40:18Z</time>
      </trkpt>
      <trkpt lat="44.78371" lon="2.35415">
        <ele>653.4</ele>
        <time>2023-08-20T09:40:19Z</time>
      </trkpt>
      <trkpt lat="44.78363" lon="2.35412">
        <ele>653.6</ele>
        <time>2023-08-20T09:40:20Z</time>
      </trkpt>
      <trkpt lat="44.78355" lon="2.35408">
        <ele>654</ele>
        <time>2023-08-20T09:40:21Z</time>
      </trkpt>
      <trkpt lat="44.7834" lon="2.35396">
        <ele>654.2</ele>
        <time>2023-08-20T09:40:22Z</time>
      </trkpt>
      <trkpt lat="44.7834" lon="2.35396">
        <ele>654.2</ele>
        <time>2023-08-20T09:40:23Z</time>
      </trkpt>
      <trkpt lat="44.78326" lon="2.35382">
        <ele>654.2</ele>
        <time>2023-08-20T09:40:24Z</time>
      </trkpt>
      <trkpt lat="44.78319" lon="2.35374">
        <ele>654.2</ele>
        <time>2023-08-20T09:40:25Z</time>
      </trkpt>
      <trkpt lat="44.78311" lon="2.35368">
        <ele>654.2</ele>
        <time>2023-08-20T09:40:26Z</time>
      </trkpt>
      <trkpt lat="44.78303" lon="2.35362">
        <ele>654.2</ele>
        <time>2023-08-20T09:40:27Z</time>
      </trkpt>
      <trkpt lat="44.78303" lon="2.35362">
        <ele>654.2</ele>
        <time>2023-08-20T09:40:28Z</time>
      </trkpt>
      <trkpt lat="44.78286" lon="2.35357">
        <ele>654.2</ele>
        <time>2023-08-20T09:40:29Z</time>
      </trkpt>
      <trkpt lat="44.78278" lon="2.35356">
        <ele>654.2</ele>
        <time>2023-08-20T09:40:30Z</time>
      </trkpt>
      <trkpt lat="44.78269" lon="2.35357">
        <ele>654.2</ele>
        <time>2023-08-20T09:40:31Z</time>
      </trkpt>
      <trkpt lat="44.78262" lon="2.3536">
        <ele>654.2</ele>
        <time>2023-08-20T09:40:32Z</time>
      </trkpt>
      <trkpt lat="44.78257" lon="2.35363">
        <ele>654</ele>
        <time>2023-08-20T09:40:33Z</time>
      </trkpt>
      <trkpt lat="44.78252" lon="2.35366">
        <ele>654</ele>
        <time>2023-08-20T09:40:34Z</time>
      </trkpt>
      <trkpt lat="44.78248" lon="2.35369">
        <ele>654</ele>
        <time>2023-08-20T09:40:35Z</time>
      </trkpt>
      <trkpt lat="44.78248" lon="2.35369">
        <ele>654</ele>
        <time>2023-08-20T09:40:36Z</time>
      </trkpt>
      <trkpt lat="44.78238" lon="2.35376">
        <ele>654</ele>
        <time>2023-08-20T09:40:37Z</time>
      </trkpt>
      <trkpt lat="44.78232" lon="2.35379">
        <ele>654</ele>
        <time>2023-08-20T09:40:38Z</time>
      </trkpt>
      <trkpt lat="44.78225" lon="2.35381">
        <ele>654</ele>
        <time>2023-08-20T09:40:39Z</time>
      </trkpt>
      <trkpt lat="44.78225" lon="2.35381">
        <ele>654</ele>
        <time>2023-08-20T09:40:40Z</time>
      </trkpt>
      <trkpt lat="44.78218" lon="2.35383">
        <ele>654</ele>
        <time>2023-08-20T09:40:41Z</time>
      </trkpt>
      <trkpt lat="44.78212" lon="2.35382">
        <ele>654</ele>
        <time>2023-08-20T09:40:42Z</time>
      </trkpt>
      <trkpt lat="44.78203" lon="2.35381">
        <ele>654</ele>
        <time>2023-08-20T09:40:43Z</time>
      </trkpt>
      <trkpt lat="44.78199" lon="2.35381">
        <ele>654</ele>
        <time>2023-08-20T09:40:44Z</time>
      </trkpt>
      <trkpt lat="44.78194" lon="2.35382">
        <ele>654</ele>
        <time>2023-08-20T09:40:45Z</time>
      </trkpt>
      <trkpt lat="44.7819" lon="2.35382">
        <ele>654</ele>
        <time>2023-08-20T09:40:46Z</time>
      </trkpt>
      <trkpt lat="44.7819" lon="2.35382">
        <ele>654</ele>
        <time>2023-08-20T09:40:47Z</time>
      </trkpt>
      <trkpt lat="44.78184" lon="2.35383">
        <ele>654</ele>
        <time>2023-08-20T09:40:48Z</time>
      </trkpt>
      <trkpt lat="44.78154" lon="2.35383">
        <ele>654.2</ele>
        <time>2023-08-20T09:40:52Z</time>
      </trkpt>
      <trkpt lat="44.78147" lon="2.35381">
        <ele>654.6</ele>
        <time>2023-08-20T09:40:54Z</time>
      </trkpt>
      <trkpt lat="44.78135" lon="2.35372">
        <ele>654.8</ele>
        <time>2023-08-20T09:40:55Z</time>
      </trkpt>
      <trkpt lat="44.78131" lon="2.35364">
        <ele>655</ele>
        <time>2023-08-20T09:40:56Z</time>
      </trkpt>
      <trkpt lat="44.78131" lon="2.35364">
        <ele>655.2</ele>
        <time>2023-08-20T09:40:57Z</time>
      </trkpt>
      <trkpt lat="44.78126" lon="2.35345">
        <ele>655.4</ele>
        <time>2023-08-20T09:40:58Z</time>
      </trkpt>
      <trkpt lat="44.78126" lon="2.35335">
        <ele>655.6</ele>
        <time>2023-08-20T09:40:59Z</time>
      </trkpt>
      <trkpt lat="44.78125" lon="2.35325">
        <ele>655.6</ele>
        <time>2023-08-20T09:41:00Z</time>
      </trkpt>
      <trkpt lat="44.78125" lon="2.35325">
        <ele>655.8</ele>
        <time>2023-08-20T09:41:01Z</time>
      </trkpt>
      <trkpt lat="44.78124" lon="2.35302">
        <ele>656.4</ele>
        <time>2023-08-20T09:41:02Z</time>
      </trkpt>
      <trkpt lat="44.78123" lon="2.3529">
        <ele>656.8</ele>
        <time>2023-08-20T09:41:04Z</time>
      </trkpt>
      <trkpt lat="44.78122" lon="2.35277">
        <ele>657.6</ele>
        <time>2023-08-20T09:41:05Z</time>
      </trkpt>
      <trkpt lat="44.78122" lon="2.35264">
        <ele>657.8</ele>
        <time>2023-08-20T09:41:06Z</time>
      </trkpt>
      <trkpt lat="44.78122" lon="2.35251">
        <ele>658.2</ele>
        <time>2023-08-20T09:41:07Z</time>
      </trkpt>
      <trkpt lat="44.78123" lon="2.3524">
        <ele>658.6</ele>
        <time>2023-08-20T09:41:08Z</time>
      </trkpt>
      <trkpt lat="44.78127" lon="2.3522">
        <ele>659.2</ele>
        <time>2023-08-20T09:41:09Z</time>
      </trkpt>
      <trkpt lat="44.7813" lon="2.35213">
        <ele>659.4</ele>
        <time>2023-08-20T09:41:10Z</time>
      </trkpt>
      <trkpt lat="44.7813" lon="2.35213">
        <ele>660</ele>
        <time>2023-08-20T09:41:11Z</time>
      </trkpt>
      <trkpt lat="44.78133" lon="2.35199">
        <ele>660.2</ele>
        <time>2023-08-20T09:41:12Z</time>
      </trkpt>
      <trkpt lat="44.78133" lon="2.35199">
        <ele>660.8</ele>
        <time>2023-08-20T09:41:13Z</time>
      </trkpt>
      <trkpt lat="44.78132" lon="2.35193">
        <ele>661.2</ele>
        <time>2023-08-20T09:41:14Z</time>
      </trkpt>
      <trkpt lat="44.78129" lon="2.35185">
        <ele>661.2</ele>
        <time>2023-08-20T09:41:15Z</time>
      </trkpt>
      <trkpt lat="44.78129" lon="2.35185">
        <ele>661.4</ele>
        <time>2023-08-20T09:41:16Z</time>
      </trkpt>
      <trkpt lat="44.78123" lon="2.35179">
        <ele>661.6</ele>
        <time>2023-08-20T09:41:17Z</time>
      </trkpt>
      <trkpt lat="44.78118" lon="2.35175">
        <ele>661.8</ele>
        <time>2023-08-20T09:41:18Z</time>
      </trkpt>
      <trkpt lat="44.78118" lon="2.35175">
        <ele>661.8</ele>
        <time>2023-08-20T09:41:19Z</time>
      </trkpt>
      <trkpt lat="44.78103" lon="2.35167">
        <ele>662.2</ele>
        <time>2023-08-20T09:41:20Z</time>
      </trkpt>
      <trkpt lat="44.78094" lon="2.35162">
        <ele>662.6</ele>
        <time>2023-08-20T09:41:21Z</time>
      </trkpt>
      <trkpt lat="44.78084" lon="2.35158">
        <ele>663</ele>
        <time>2023-08-20T09:41:22Z</time>
      </trkpt>
      <trkpt lat="44.78072" lon="2.35155">
        <ele>663.2</ele>
        <time>2023-08-20T09:41:23Z</time>
      </trkpt>
      <trkpt lat="44.7806" lon="2.35151">
        <ele>663.2</ele>
        <time>2023-08-20T09:41:24Z</time>
      </trkpt>
      <trkpt lat="44.78047" lon="2.35148">
        <ele>664</ele>
        <time>2023-08-20T09:41:25Z</time>
      </trkpt>
      <trkpt lat="44.78036" lon="2.35145">
        <ele>664.2</ele>
        <time>2023-08-20T09:41:26Z</time>
      </trkpt>
      <trkpt lat="44.78025" lon="2.35142">
        <ele>665.2</ele>
        <time>2023-08-20T09:41:27Z</time>
      </trkpt>
      <trkpt lat="44.78015" lon="2.35138">
        <ele>665.6</ele>
        <time>2023-08-20T09:41:28Z</time>
      </trkpt>
      <trkpt lat="44.78006" lon="2.35136">
        <ele>666.2</ele>
        <time>2023-08-20T09:41:29Z</time>
      </trkpt>
      <trkpt lat="44.78006" lon="2.35136">
        <ele>666.6</ele>
        <time>2023-08-20T09:41:30Z</time>
      </trkpt>
      <trkpt lat="44.77989" lon="2.35131">
        <ele>667</ele>
        <time>2023-08-20T09:41:31Z</time>
      </trkpt>
      <trkpt lat="44.77979" lon="2.35128">
        <ele>667.2</ele>
        <time>2023-08-20T09:41:32Z</time>
      </trkpt>
      <trkpt lat="44.77979" lon="2.35128">
        <ele>667.2</ele>
        <time>2023-08-20T09:41:33Z</time>
      </trkpt>
      <trkpt lat="44.77958" lon="2.35125">
        <ele>667.6</ele>
        <time>2023-08-20T09:41:34Z</time>
      </trkpt>
      <trkpt lat="44.77946" lon="2.35124">
        <ele>667.8</ele>
        <time>2023-08-20T09:41:35Z</time>
      </trkpt>
      <trkpt lat="44.77933" lon="2.35125">
        <ele>668.2</ele>
        <time>2023-08-20T09:41:36Z</time>
      </trkpt>
      <trkpt lat="44.77933" lon="2.35125">
        <ele>668.2</ele>
        <time>2023-08-20T09:41:37Z</time>
      </trkpt>
      <trkpt lat="44.77909" lon="2.35127">
        <ele>668.6</ele>
        <time>2023-08-20T09:41:38Z</time>
      </trkpt>
      <trkpt lat="44.77897" lon="2.3513">
        <ele>669.4</ele>
        <time>2023-08-20T09:41:39Z</time>
      </trkpt>
      <trkpt lat="44.77885" lon="2.35133">
        <ele>670</ele>
        <time>2023-08-20T09:41:40Z</time>
      </trkpt>
      <trkpt lat="44.77873" lon="2.35137">
        <ele>670.8</ele>
        <time>2023-08-20T09:41:41Z</time>
      </trkpt>
      <trkpt lat="44.77861" lon="2.35142">
        <ele>671.2</ele>
        <time>2023-08-20T09:41:42Z</time>
      </trkpt>
      <trkpt lat="44.7785" lon="2.35147">
        <ele>672</ele>
        <time>2023-08-20T09:41:43Z</time>
      </trkpt>
      <trkpt lat="44.77838" lon="2.35152">
        <ele>672.4</ele>
        <time>2023-08-20T09:41:44Z</time>
      </trkpt>
      <trkpt lat="44.77826" lon="2.35157">
        <ele>673.6</ele>
        <time>2023-08-20T09:41:45Z</time>
      </trkpt>
      <trkpt lat="44.77814" lon="2.35161">
        <ele>674.2</ele>
        <time>2023-08-20T09:41:46Z</time>
      </trkpt>
      <trkpt lat="44.77803" lon="2.35164">
        <ele>675.4</ele>
        <time>2023-08-20T09:41:47Z</time>
      </trkpt>
      <trkpt lat="44.77803" lon="2.35164">
        <ele>676.4</ele>
        <time>2023-08-20T09:41:48Z</time>
      </trkpt>
      <trkpt lat="44.77781" lon="2.35172">
        <ele>677.2</ele>
        <time>2023-08-20T09:41:49Z</time>
      </trkpt>
      <trkpt lat="44.7777" lon="2.35177">
        <ele>678</ele>
        <time>2023-08-20T09:41:50Z</time>
      </trkpt>
      <trkpt lat="44.77759" lon="2.35181">
        <ele>678.4</ele>
        <time>2023-08-20T09:41:51Z</time>
      </trkpt>
      <trkpt lat="44.77748" lon="2.35184">
        <ele>679.2</ele>
        <time>2023-08-20T09:41:52Z</time>
      </trkpt>
      <trkpt lat="44.77737" lon="2.35188">
        <ele>679.8</ele>
        <time>2023-08-20T09:41:53Z</time>
      </trkpt>
      <trkpt lat="44.77726" lon="2.35193">
        <ele>680.6</ele>
        <time>2023-08-20T09:41:54Z</time>
      </trkpt>
      <trkpt lat="44.77715" lon="2.35197">
        <ele>681.2</ele>
        <time>2023-08-20T09:41:55Z</time>
      </trkpt>
      <trkpt lat="44.77703" lon="2.35201">
        <ele>681.6</ele>
        <time>2023-08-20T09:41:56Z</time>
      </trkpt>
      <trkpt lat="44.77691" lon="2.35204">
        <ele>682.6</ele>
        <time>2023-08-20T09:41:57Z</time>
      </trkpt>
      <trkpt lat="44.77679" lon="2.35205">
        <ele>683</ele>
        <time>2023-08-20T09:41:58Z</time>
      </trkpt>
      <trkpt lat="44.77667" lon="2.35205">
        <ele>684.2</ele>
        <time>2023-08-20T09:41:59Z</time>
      </trkpt>
      <trkpt lat="44.77652" lon="2.35205">
        <ele>684.6</ele>
        <time>2023-08-20T09:42:00Z</time>
      </trkpt>
      <trkpt lat="44.7764" lon="2.35205">
        <ele>685.4</ele>
        <time>2023-08-20T09:42:01Z</time>
      </trkpt>
      <trkpt lat="44.77628" lon="2.35203">
        <ele>685.8</ele>
        <time>2023-08-20T09:42:02Z</time>
      </trkpt>
      <trkpt lat="44.77619" lon="2.35202">
        <ele>686.6</ele>
        <time>2023-08-20T09:42:03Z</time>
      </trkpt>
      <trkpt lat="44.77608" lon="2.35199">
        <ele>687.4</ele>
        <time>2023-08-20T09:42:04Z</time>
      </trkpt>
      <trkpt lat="44.77597" lon="2.35197">
        <ele>687.6</ele>
        <time>2023-08-20T09:42:05Z</time>
      </trkpt>
      <trkpt lat="44.77584" lon="2.35194">
        <ele>688.4</ele>
        <time>2023-08-20T09:42:06Z</time>
      </trkpt>
      <trkpt lat="44.77573" lon="2.35192">
        <ele>689</ele>
        <time>2023-08-20T09:42:07Z</time>
      </trkpt>
      <trkpt lat="44.77564" lon="2.35192">
        <ele>690</ele>
        <time>2023-08-20T09:42:08Z</time>
      </trkpt>
      <trkpt lat="44.77552" lon="2.35193">
        <ele>690.4</ele>
        <time>2023-08-20T09:42:09Z</time>
      </trkpt>
      <trkpt lat="44.7754" lon="2.35196">
        <ele>691</ele>
        <time>2023-08-20T09:42:10Z</time>
      </trkpt>
      <trkpt lat="44.77527" lon="2.352">
        <ele>691.4</ele>
        <time>2023-08-20T09:42:11Z</time>
      </trkpt>
      <trkpt lat="44.77513" lon="2.35204">
        <ele>692.2</ele>
        <time>2023-08-20T09:42:12Z</time>
      </trkpt>
      <trkpt lat="44.77513" lon="2.35204">
        <ele>693</ele>
        <time>2023-08-20T09:42:13Z</time>
      </trkpt>
      <trkpt lat="44.775" lon="2.35209">
        <ele>693.2</ele>
        <time>2023-08-20T09:42:14Z</time>
      </trkpt>
      <trkpt lat="44.77472" lon="2.35218">
        <ele>693.8</ele>
        <time>2023-08-20T09:42:15Z</time>
      </trkpt>
      <trkpt lat="44.77456" lon="2.35223">
        <ele>694.2</ele>
        <time>2023-08-20T09:42:16Z</time>
      </trkpt>
      <trkpt lat="44.77442" lon="2.35228">
        <ele>694.6</ele>
        <time>2023-08-20T09:42:17Z</time>
      </trkpt>
      <trkpt lat="44.77431" lon="2.35231">
        <ele>694.8</ele>
        <time>2023-08-20T09:42:18Z</time>
      </trkpt>
      <trkpt lat="44.77418" lon="2.35235">
        <ele>695</ele>
        <time>2023-08-20T09:42:19Z</time>
      </trkpt>
      <trkpt lat="44.77402" lon="2.3524">
        <ele>695</ele>
        <time>2023-08-20T09:42:20Z</time>
      </trkpt>
      <trkpt lat="44.77392" lon="2.35243">
        <ele>695.2</ele>
        <time>2023-08-20T09:42:21Z</time>
      </trkpt>
      <trkpt lat="44.77379" lon="2.35246">
        <ele>695.2</ele>
        <time>2023-08-20T09:42:22Z</time>
      </trkpt>
      <trkpt lat="44.77367" lon="2.35249">
        <ele>695.2</ele>
        <time>2023-08-20T09:42:23Z</time>
      </trkpt>
      <trkpt lat="44.77355" lon="2.35253">
        <ele>695</ele>
        <time>2023-08-20T09:42:24Z</time>
      </trkpt>
      <trkpt lat="44.7734" lon="2.35257">
        <ele>695</ele>
        <time>2023-08-20T09:42:25Z</time>
      </trkpt>
      <trkpt lat="44.77331" lon="2.35261">
        <ele>694.8</ele>
        <time>2023-08-20T09:42:26Z</time>
      </trkpt>
      <trkpt lat="44.77318" lon="2.35265">
        <ele>694.8</ele>
        <time>2023-08-20T09:42:27Z</time>
      </trkpt>
      <trkpt lat="44.77318" lon="2.35265">
        <ele>694.6</ele>
        <time>2023-08-20T09:42:28Z</time>
      </trkpt>
      <trkpt lat="44.77292" lon="2.35272">
        <ele>694.2</ele>
        <time>2023-08-20T09:42:29Z</time>
      </trkpt>
      <trkpt lat="44.77278" lon="2.35274">
        <ele>694.2</ele>
        <time>2023-08-20T09:42:30Z</time>
      </trkpt>
      <trkpt lat="44.77262" lon="2.35276">
        <ele>694.2</ele>
        <time>2023-08-20T09:42:31Z</time>
      </trkpt>
      <trkpt lat="44.77244" lon="2.35278">
        <ele>694</ele>
        <time>2023-08-20T09:42:32Z</time>
      </trkpt>
      <trkpt lat="44.77225" lon="2.35279">
        <ele>694</ele>
        <time>2023-08-20T09:42:33Z</time>
      </trkpt>
      <trkpt lat="44.77202" lon="2.35282">
        <ele>694</ele>
        <time>2023-08-20T09:42:34Z</time>
      </trkpt>
      <trkpt lat="44.77183" lon="2.35284">
        <ele>694.2</ele>
        <time>2023-08-20T09:42:35Z</time>
      </trkpt>
      <trkpt lat="44.77169" lon="2.35285">
        <ele>694.2</ele>
        <time>2023-08-20T09:42:36Z</time>
      </trkpt>
      <trkpt lat="44.77151" lon="2.35287">
        <ele>694.2</ele>
        <time>2023-08-20T09:42:37Z</time>
      </trkpt>
      <trkpt lat="44.77134" lon="2.35288">
        <ele>694</ele>
        <time>2023-08-20T09:42:38Z</time>
      </trkpt>
      <trkpt lat="44.77117" lon="2.3529">
        <ele>694</ele>
        <time>2023-08-20T09:42:39Z</time>
      </trkpt>
      <trkpt lat="44.77099" lon="2.35291">
        <ele>694</ele>
        <time>2023-08-20T09:42:40Z</time>
      </trkpt>
      <trkpt lat="44.77086" lon="2.35292">
        <ele>694</ele>
        <time>2023-08-20T09:42:41Z</time>
      </trkpt>
      <trkpt lat="44.77086" lon="2.35292">
        <ele>693.6</ele>
        <time>2023-08-20T09:42:42Z</time>
      </trkpt>
      <trkpt lat="44.77057" lon="2.35296">
        <ele>693.4</ele>
        <time>2023-08-20T09:42:43Z</time>
      </trkpt>
      <trkpt lat="44.7704" lon="2.353">
        <ele>692.2</ele>
        <time>2023-08-20T09:42:44Z</time>
      </trkpt>
      <trkpt lat="44.77026" lon="2.35303">
        <ele>691.4</ele>
        <time>2023-08-20T09:42:45Z</time>
      </trkpt>
      <trkpt lat="44.77014" lon="2.35305">
        <ele>689.6</ele>
        <time>2023-08-20T09:42:46Z</time>
      </trkpt>
      <trkpt lat="44.77014" lon="2.35305">
        <ele>688.2</ele>
        <time>2023-08-20T09:42:47Z</time>
      </trkpt>
      <trkpt lat="44.76985" lon="2.35313">
        <ele>687.8</ele>
        <time>2023-08-20T09:42:48Z</time>
      </trkpt>
      <trkpt lat="44.76971" lon="2.35316">
        <ele>686.6</ele>
        <time>2023-08-20T09:42:49Z</time>
      </trkpt>
      <trkpt lat="44.7694" lon="2.35326">
        <ele>684.8</ele>
        <time>2023-08-20T09:42:51Z</time>
      </trkpt>
      <trkpt lat="44.76909" lon="2.35334">
        <ele>683.6</ele>
        <time>2023-08-20T09:42:53Z</time>
      </trkpt>
      <trkpt lat="44.76891" lon="2.3534">
        <ele>683.4</ele>
        <time>2023-08-20T09:42:54Z</time>
      </trkpt>
      <trkpt lat="44.76864" lon="2.35349">
        <ele>682</ele>
        <time>2023-08-20T09:42:56Z</time>
      </trkpt>
      <trkpt lat="44.76848" lon="2.35355">
        <ele>681.6</ele>
        <time>2023-08-20T09:42:57Z</time>
      </trkpt>
      <trkpt lat="44.76838" lon="2.35359">
        <ele>680.4</ele>
        <time>2023-08-20T09:42:58Z</time>
      </trkpt>
      <trkpt lat="44.76825" lon="2.35364">
        <ele>680.2</ele>
        <time>2023-08-20T09:42:59Z</time>
      </trkpt>
      <trkpt lat="44.76813" lon="2.3537">
        <ele>679.8</ele>
        <time>2023-08-20T09:43:00Z</time>
      </trkpt>
      <trkpt lat="44.76813" lon="2.3537">
        <ele>679.8</ele>
        <time>2023-08-20T09:43:01Z</time>
      </trkpt>
      <trkpt lat="44.76792" lon="2.35389">
        <ele>679.6</ele>
        <time>2023-08-20T09:43:02Z</time>
      </trkpt>
      <trkpt lat="44.76781" lon="2.35403">
        <ele>679.4</ele>
        <time>2023-08-20T09:43:03Z</time>
      </trkpt>
      <trkpt lat="44.76774" lon="2.35417">
        <ele>679.4</ele>
        <time>2023-08-20T09:43:04Z</time>
      </trkpt>
      <trkpt lat="44.76769" lon="2.3543">
        <ele>679</ele>
        <time>2023-08-20T09:43:05Z</time>
      </trkpt>
      <trkpt lat="44.76764" lon="2.35446">
        <ele>678.8</ele>
        <time>2023-08-20T09:43:06Z</time>
      </trkpt>
      <trkpt lat="44.76764" lon="2.35446">
        <ele>678.4</ele>
        <time>2023-08-20T09:43:07Z</time>
      </trkpt>
      <trkpt lat="44.76756" lon="2.35482">
        <ele>678.4</ele>
        <time>2023-08-20T09:43:08Z</time>
      </trkpt>
      <trkpt lat="44.76753" lon="2.35498">
        <ele>677.8</ele>
        <time>2023-08-20T09:43:09Z</time>
      </trkpt>
      <trkpt lat="44.76749" lon="2.35515">
        <ele>677.4</ele>
        <time>2023-08-20T09:43:10Z</time>
      </trkpt>
      <trkpt lat="44.76745" lon="2.3553">
        <ele>676.8</ele>
        <time>2023-08-20T09:43:11Z</time>
      </trkpt>
      <trkpt lat="44.76736" lon="2.35559">
        <ele>675.8</ele>
        <time>2023-08-20T09:43:13Z</time>
      </trkpt>
      <trkpt lat="44.7673" lon="2.35572">
        <ele>675</ele>
        <time>2023-08-20T09:43:14Z</time>
      </trkpt>
      <trkpt lat="44.76723" lon="2.35584">
        <ele>674.6</ele>
        <time>2023-08-20T09:43:15Z</time>
      </trkpt>
      <trkpt lat="44.76713" lon="2.35595">
        <ele>673.8</ele>
        <time>2023-08-20T09:43:16Z</time>
      </trkpt>
      <trkpt lat="44.76702" lon="2.35606">
        <ele>673</ele>
        <time>2023-08-20T09:43:17Z</time>
      </trkpt>
      <trkpt lat="44.76688" lon="2.35618">
        <ele>672.2</ele>
        <time>2023-08-20T09:43:18Z</time>
      </trkpt>
      <trkpt lat="44.7665" lon="2.35649">
        <ele>670.6</ele>
        <time>2023-08-20T09:43:21Z</time>
      </trkpt>
      <trkpt lat="44.76624" lon="2.35667">
        <ele>669.6</ele>
        <time>2023-08-20T09:43:23Z</time>
      </trkpt>
      <trkpt lat="44.766" lon="2.35686">
        <ele>668.4</ele>
        <time>2023-08-20T09:43:25Z</time>
      </trkpt>
      <trkpt lat="44.76586" lon="2.35696">
        <ele>668.2</ele>
        <time>2023-08-20T09:43:26Z</time>
      </trkpt>
      <trkpt lat="44.76575" lon="2.35704">
        <ele>667.6</ele>
        <time>2023-08-20T09:43:27Z</time>
      </trkpt>
      <trkpt lat="44.76567" lon="2.3571">
        <ele>667.4</ele>
        <time>2023-08-20T09:43:28Z</time>
      </trkpt>
      <trkpt lat="44.76556" lon="2.35717">
        <ele>667</ele>
        <time>2023-08-20T09:43:29Z</time>
      </trkpt>
      <trkpt lat="44.76545" lon="2.35726">
        <ele>665.6</ele>
        <time>2023-08-20T09:43:30Z</time>
      </trkpt>
      <trkpt lat="44.76522" lon="2.35743">
        <ele>664</ele>
        <time>2023-08-20T09:43:32Z</time>
      </trkpt>
      <trkpt lat="44.765" lon="2.3576">
        <ele>662.8</ele>
        <time>2023-08-20T09:43:34Z</time>
      </trkpt>
      <trkpt lat="44.76489" lon="2.35765">
        <ele>662.4</ele>
        <time>2023-08-20T09:43:35Z</time>
      </trkpt>
      <trkpt lat="44.76477" lon="2.35769">
        <ele>661.4</ele>
        <time>2023-08-20T09:43:36Z</time>
      </trkpt>
      <trkpt lat="44.76477" lon="2.35769">
        <ele>661</ele>
        <time>2023-08-20T09:43:37Z</time>
      </trkpt>
      <trkpt lat="44.76454" lon="2.35771">
        <ele>660.8</ele>
        <time>2023-08-20T09:43:38Z</time>
      </trkpt>
      <trkpt lat="44.76454" lon="2.35771">
        <ele>660.4</ele>
        <time>2023-08-20T09:43:39Z</time>
      </trkpt>
      <trkpt lat="44.76429" lon="2.35771">
        <ele>659.8</ele>
        <time>2023-08-20T09:43:40Z</time>
      </trkpt>
      <trkpt lat="44.76415" lon="2.35772">
        <ele>658.8</ele>
        <time>2023-08-20T09:43:41Z</time>
      </trkpt>
      <trkpt lat="44.76386" lon="2.35774">
        <ele>658</ele>
        <time>2023-08-20T09:43:43Z</time>
      </trkpt>
      <trkpt lat="44.76386" lon="2.35774">
        <ele>657.6</ele>
        <time>2023-08-20T09:43:44Z</time>
      </trkpt>
      <trkpt lat="44.76326" lon="2.35774">
        <ele>656.4</ele>
        <time>2023-08-20T09:43:47Z</time>
      </trkpt>
      <trkpt lat="44.76311" lon="2.35774">
        <ele>656.2</ele>
        <time>2023-08-20T09:43:48Z</time>
      </trkpt>
      <trkpt lat="44.76283" lon="2.35774">
        <ele>655.2</ele>
        <time>2023-08-20T09:43:50Z</time>
      </trkpt>
      <trkpt lat="44.76266" lon="2.35774">
        <ele>655</ele>
        <time>2023-08-20T09:43:51Z</time>
      </trkpt>
      <trkpt lat="44.76256" lon="2.35774">
        <ele>654.2</ele>
        <time>2023-08-20T09:43:52Z</time>
      </trkpt>
      <trkpt lat="44.76245" lon="2.35774">
        <ele>654</ele>
        <time>2023-08-20T09:43:53Z</time>
      </trkpt>
      <trkpt lat="44.76235" lon="2.35776">
        <ele>653</ele>
        <time>2023-08-20T09:43:54Z</time>
      </trkpt>
      <trkpt lat="44.76227" lon="2.3578">
        <ele>652.2</ele>
        <time>2023-08-20T09:43:55Z</time>
      </trkpt>
      <trkpt lat="44.7622" lon="2.35787">
        <ele>651.2</ele>
        <time>2023-08-20T09:43:56Z</time>
      </trkpt>
      <trkpt lat="44.76214" lon="2.35796">
        <ele>649.8</ele>
        <time>2023-08-20T09:43:57Z</time>
      </trkpt>
      <trkpt lat="44.7621" lon="2.35808">
        <ele>649.4</ele>
        <time>2023-08-20T09:43:58Z</time>
      </trkpt>
      <trkpt lat="44.76206" lon="2.35822">
        <ele>648.2</ele>
        <time>2023-08-20T09:43:59Z</time>
      </trkpt>
      <trkpt lat="44.76203" lon="2.35838">
        <ele>647.8</ele>
        <time>2023-08-20T09:44:00Z</time>
      </trkpt>
      <trkpt lat="44.76199" lon="2.35854">
        <ele>647</ele>
        <time>2023-08-20T09:44:01Z</time>
      </trkpt>
      <trkpt lat="44.76192" lon="2.35871">
        <ele>646.4</ele>
        <time>2023-08-20T09:44:02Z</time>
      </trkpt>
      <trkpt lat="44.76186" lon="2.35888">
        <ele>645</ele>
        <time>2023-08-20T09:44:03Z</time>
      </trkpt>
      <trkpt lat="44.76179" lon="2.35921">
        <ele>644.2</ele>
        <time>2023-08-20T09:44:05Z</time>
      </trkpt>
      <trkpt lat="44.76179" lon="2.3594">
        <ele>643.2</ele>
        <time>2023-08-20T09:44:06Z</time>
      </trkpt>
      <trkpt lat="44.7618" lon="2.35959">
        <ele>642.8</ele>
        <time>2023-08-20T09:44:07Z</time>
      </trkpt>
      <trkpt lat="44.76186" lon="2.35981">
        <ele>642.2</ele>
        <time>2023-08-20T09:44:08Z</time>
      </trkpt>
      <trkpt lat="44.76193" lon="2.35999">
        <ele>642</ele>
        <time>2023-08-20T09:44:09Z</time>
      </trkpt>
      <trkpt lat="44.76193" lon="2.35999">
        <ele>641.4</ele>
        <time>2023-08-20T09:44:10Z</time>
      </trkpt>
      <trkpt lat="44.76207" lon="2.36033">
        <ele>640.6</ele>
        <time>2023-08-20T09:44:11Z</time>
      </trkpt>
      <trkpt lat="44.76209" lon="2.36049">
        <ele>640.2</ele>
        <time>2023-08-20T09:44:12Z</time>
      </trkpt>
      <trkpt lat="44.76207" lon="2.36066">
        <ele>639.2</ele>
        <time>2023-08-20T09:44:13Z</time>
      </trkpt>
      <trkpt lat="44.762" lon="2.36081">
        <ele>639</ele>
        <time>2023-08-20T09:44:14Z</time>
      </trkpt>
      <trkpt lat="44.762" lon="2.36081">
        <ele>638.2</ele>
        <time>2023-08-20T09:44:15Z</time>
      </trkpt>
      <trkpt lat="44.76181" lon="2.36105">
        <ele>638</ele>
        <time>2023-08-20T09:44:16Z</time>
      </trkpt>
      <trkpt lat="44.7617" lon="2.36108">
        <ele>636.8</ele>
        <time>2023-08-20T09:44:17Z</time>
      </trkpt>
      <trkpt lat="44.76157" lon="2.3611">
        <ele>636.2</ele>
        <time>2023-08-20T09:44:18Z</time>
      </trkpt>
      <trkpt lat="44.76144" lon="2.36109">
        <ele>635.2</ele>
        <time>2023-08-20T09:44:19Z</time>
      </trkpt>
      <trkpt lat="44.76128" lon="2.3611">
        <ele>634.2</ele>
        <time>2023-08-20T09:44:20Z</time>
      </trkpt>
      <trkpt lat="44.76112" lon="2.36109">
        <ele>634</ele>
        <time>2023-08-20T09:44:21Z</time>
      </trkpt>
      <trkpt lat="44.76071" lon="2.36098">
        <ele>632.8</ele>
        <time>2023-08-20T09:44:24Z</time>
      </trkpt>
      <trkpt lat="44.76059" lon="2.36092">
        <ele>632.8</ele>
        <time>2023-08-20T09:44:25Z</time>
      </trkpt>
      <trkpt lat="44.76048" lon="2.36086">
        <ele>632.6</ele>
        <time>2023-08-20T09:44:26Z</time>
      </trkpt>
      <trkpt lat="44.76037" lon="2.36078">
        <ele>632.6</ele>
        <time>2023-08-20T09:44:27Z</time>
      </trkpt>
      <trkpt lat="44.76037" lon="2.36078">
        <ele>632.4</ele>
        <time>2023-08-20T09:44:28Z</time>
      </trkpt>
      <trkpt lat="44.76017" lon="2.36061">
        <ele>632.2</ele>
        <time>2023-08-20T09:44:29Z</time>
      </trkpt>
      <trkpt lat="44.76008" lon="2.36052">
        <ele>632</ele>
        <time>2023-08-20T09:44:30Z</time>
      </trkpt>
      <trkpt lat="44.75987" lon="2.36035">
        <ele>632</ele>
        <time>2023-08-20T09:44:32Z</time>
      </trkpt>
      <trkpt lat="44.75965" lon="2.36028">
        <ele>632.2</ele>
        <time>2023-08-20T09:44:34Z</time>
      </trkpt>
      <trkpt lat="44.75952" lon="2.36031">
        <ele>632.2</ele>
        <time>2023-08-20T09:44:35Z</time>
      </trkpt>
      <trkpt lat="44.75939" lon="2.36036">
        <ele>632.4</ele>
        <time>2023-08-20T09:44:36Z</time>
      </trkpt>
      <trkpt lat="44.75926" lon="2.36044">
        <ele>632.8</ele>
        <time>2023-08-20T09:44:37Z</time>
      </trkpt>
      <trkpt lat="44.75914" lon="2.36055">
        <ele>633.4</ele>
        <time>2023-08-20T09:44:38Z</time>
      </trkpt>
      <trkpt lat="44.75903" lon="2.36067">
        <ele>633.8</ele>
        <time>2023-08-20T09:44:39Z</time>
      </trkpt>
      <trkpt lat="44.75892" lon="2.36081">
        <ele>635.2</ele>
        <time>2023-08-20T09:44:40Z</time>
      </trkpt>
      <trkpt lat="44.75871" lon="2.36106">
        <ele>637.2</ele>
        <time>2023-08-20T09:44:42Z</time>
      </trkpt>
      <trkpt lat="44.75861" lon="2.36114">
        <ele>638</ele>
        <time>2023-08-20T09:44:43Z</time>
      </trkpt>
      <trkpt lat="44.7585" lon="2.36117">
        <ele>639.4</ele>
        <time>2023-08-20T09:44:44Z</time>
      </trkpt>
      <trkpt lat="44.7584" lon="2.36116">
        <ele>640.4</ele>
        <time>2023-08-20T09:44:45Z</time>
      </trkpt>
      <trkpt lat="44.7583" lon="2.3611">
        <ele>640.8</ele>
        <time>2023-08-20T09:44:46Z</time>
      </trkpt>
      <trkpt lat="44.7583" lon="2.3611">
        <ele>641.4</ele>
        <time>2023-08-20T09:44:47Z</time>
      </trkpt>
      <trkpt lat="44.75793" lon="2.36088">
        <ele>642.6</ele>
        <time>2023-08-20T09:44:49Z</time>
      </trkpt>
      <trkpt lat="44.7578" lon="2.36081">
        <ele>643.2</ele>
        <time>2023-08-20T09:44:50Z</time>
      </trkpt>
      <trkpt lat="44.75768" lon="2.36073">
        <ele>643.8</ele>
        <time>2023-08-20T09:44:51Z</time>
      </trkpt>
      <trkpt lat="44.75768" lon="2.36073">
        <ele>644.4</ele>
        <time>2023-08-20T09:44:52Z</time>
      </trkpt>
      <trkpt lat="44.75744" lon="2.36055">
        <ele>646.2</ele>
        <time>2023-08-20T09:44:53Z</time>
      </trkpt>
      <trkpt lat="44.75734" lon="2.36047">
        <ele>647.4</ele>
        <time>2023-08-20T09:44:54Z</time>
      </trkpt>
      <trkpt lat="44.75725" lon="2.36038">
        <ele>647.8</ele>
        <time>2023-08-20T09:44:55Z</time>
      </trkpt>
      <trkpt lat="44.75716" lon="2.3603">
        <ele>648.8</ele>
        <time>2023-08-20T09:44:56Z</time>
      </trkpt>
      <trkpt lat="44.75708" lon="2.36022">
        <ele>649.2</ele>
        <time>2023-08-20T09:44:57Z</time>
      </trkpt>
      <trkpt lat="44.757" lon="2.36012">
        <ele>650.4</ele>
        <time>2023-08-20T09:44:58Z</time>
      </trkpt>
      <trkpt lat="44.75693" lon="2.36003">
        <ele>651</ele>
        <time>2023-08-20T09:44:59Z</time>
      </trkpt>
      <trkpt lat="44.75687" lon="2.35994">
        <ele>652</ele>
        <time>2023-08-20T09:45:00Z</time>
      </trkpt>
      <trkpt lat="44.75679" lon="2.35986">
        <ele>652.6</ele>
        <time>2023-08-20T09:45:01Z</time>
      </trkpt>
      <trkpt lat="44.75679" lon="2.35986">
        <ele>653.8</ele>
        <time>2023-08-20T09:45:02Z</time>
      </trkpt>
      <trkpt lat="44.75664" lon="2.35968">
        <ele>654.8</ele>
        <time>2023-08-20T09:45:03Z</time>
      </trkpt>
      <trkpt lat="44.75654" lon="2.35959">
        <ele>655.2</ele>
        <time>2023-08-20T09:45:04Z</time>
      </trkpt>
      <trkpt lat="44.75644" lon="2.3595">
        <ele>656</ele>
        <time>2023-08-20T09:45:05Z</time>
      </trkpt>
      <trkpt lat="44.75631" lon="2.35941">
        <ele>656.4</ele>
        <time>2023-08-20T09:45:06Z</time>
      </trkpt>
      <trkpt lat="44.75631" lon="2.35941">
        <ele>656.6</ele>
        <time>2023-08-20T09:45:07Z</time>
      </trkpt>
      <trkpt lat="44.75606" lon="2.35926">
        <ele>656.8</ele>
        <time>2023-08-20T09:45:08Z</time>
      </trkpt>
      <trkpt lat="44.75591" lon="2.35916">
        <ele>656.8</ele>
        <time>2023-08-20T09:45:09Z</time>
      </trkpt>
      <trkpt lat="44.75581" lon="2.3591">
        <ele>656.8</ele>
        <time>2023-08-20T09:45:10Z</time>
      </trkpt>
      <trkpt lat="44.75569" lon="2.35902">
        <ele>656.8</ele>
        <time>2023-08-20T09:45:11Z</time>
      </trkpt>
      <trkpt lat="44.75556" lon="2.35895">
        <ele>656.6</ele>
        <time>2023-08-20T09:45:12Z</time>
      </trkpt>
      <trkpt lat="44.75542" lon="2.35888">
        <ele>656.4</ele>
        <time>2023-08-20T09:45:13Z</time>
      </trkpt>
      <trkpt lat="44.75529" lon="2.35881">
        <ele>656.2</ele>
        <time>2023-08-20T09:45:14Z</time>
      </trkpt>
      <trkpt lat="44.75516" lon="2.35873">
        <ele>656</ele>
        <time>2023-08-20T09:45:15Z</time>
      </trkpt>
      <trkpt lat="44.75503" lon="2.35867">
        <ele>655.2</ele>
        <time>2023-08-20T09:45:16Z</time>
      </trkpt>
      <trkpt lat="44.7549" lon="2.3586">
        <ele>654.8</ele>
        <time>2023-08-20T09:45:17Z</time>
      </trkpt>
      <trkpt lat="44.75478" lon="2.35853">
        <ele>654</ele>
        <time>2023-08-20T09:45:18Z</time>
      </trkpt>
      <trkpt lat="44.75466" lon="2.35846">
        <ele>653.2</ele>
        <time>2023-08-20T09:45:19Z</time>
      </trkpt>
      <trkpt lat="44.75454" lon="2.35839">
        <ele>652.8</ele>
        <time>2023-08-20T09:45:20Z</time>
      </trkpt>
      <trkpt lat="44.75442" lon="2.35833">
        <ele>651.6</ele>
        <time>2023-08-20T09:45:21Z</time>
      </trkpt>
      <trkpt lat="44.7543" lon="2.35827">
        <ele>651.2</ele>
        <time>2023-08-20T09:45:22Z</time>
      </trkpt>
      <trkpt lat="44.75419" lon="2.35824">
        <ele>650.4</ele>
        <time>2023-08-20T09:45:23Z</time>
      </trkpt>
      <trkpt lat="44.75409" lon="2.35825">
        <ele>650</ele>
        <time>2023-08-20T09:45:24Z</time>
      </trkpt>
      <trkpt lat="44.754" lon="2.35829">
        <ele>648.8</ele>
        <time>2023-08-20T09:45:25Z</time>
      </trkpt>
      <trkpt lat="44.75392" lon="2.35836">
        <ele>648</ele>
        <time>2023-08-20T09:45:26Z</time>
      </trkpt>
      <trkpt lat="44.75384" lon="2.35846">
        <ele>646.8</ele>
        <time>2023-08-20T09:45:27Z</time>
      </trkpt>
      <trkpt lat="44.75376" lon="2.35858">
        <ele>646.4</ele>
        <time>2023-08-20T09:45:28Z</time>
      </trkpt>
      <trkpt lat="44.75366" lon="2.35873">
        <ele>646.2</ele>
        <time>2023-08-20T09:45:29Z</time>
      </trkpt>
      <trkpt lat="44.75359" lon="2.35883">
        <ele>646</ele>
        <time>2023-08-20T09:45:30Z</time>
      </trkpt>
      <trkpt lat="44.7535" lon="2.35896">
        <ele>646</ele>
        <time>2023-08-20T09:45:31Z</time>
      </trkpt>
      <trkpt lat="44.75329" lon="2.35922">
        <ele>646</ele>
        <time>2023-08-20T09:45:33Z</time>
      </trkpt>
      <trkpt lat="44.75318" lon="2.35934">
        <ele>646</ele>
        <time>2023-08-20T09:45:34Z</time>
      </trkpt>
      <trkpt lat="44.75285" lon="2.35962">
        <ele>647.4</ele>
        <time>2023-08-20T09:45:37Z</time>
      </trkpt>
      <trkpt lat="44.75275" lon="2.35966">
        <ele>647.6</ele>
        <time>2023-08-20T09:45:38Z</time>
      </trkpt>
      <trkpt lat="44.75265" lon="2.35968">
        <ele>648</ele>
        <time>2023-08-20T09:45:39Z</time>
      </trkpt>
      <trkpt lat="44.75265" lon="2.35968">
        <ele>648.2</ele>
        <time>2023-08-20T09:45:40Z</time>
      </trkpt>
      <trkpt lat="44.75248" lon="2.35962">
        <ele>648.4</ele>
        <time>2023-08-20T09:45:41Z</time>
      </trkpt>
      <trkpt lat="44.75237" lon="2.35958">
        <ele>648.4</ele>
        <time>2023-08-20T09:45:42Z</time>
      </trkpt>
      <trkpt lat="44.75226" lon="2.35956">
        <ele>648.6</ele>
        <time>2023-08-20T09:45:43Z</time>
      </trkpt>
      <trkpt lat="44.75212" lon="2.35958">
        <ele>648.6</ele>
        <time>2023-08-20T09:45:44Z</time>
      </trkpt>
      <trkpt lat="44.75182" lon="2.3597">
        <ele>648.8</ele>
        <time>2023-08-20T09:45:46Z</time>
      </trkpt>
      <trkpt lat="44.75164" lon="2.35978">
        <ele>649.2</ele>
        <time>2023-08-20T09:45:47Z</time>
      </trkpt>
      <trkpt lat="44.75153" lon="2.35982">
        <ele>650</ele>
        <time>2023-08-20T09:45:48Z</time>
      </trkpt>
      <trkpt lat="44.7514" lon="2.35989">
        <ele>650.2</ele>
        <time>2023-08-20T09:45:49Z</time>
      </trkpt>
      <trkpt lat="44.75128" lon="2.35998">
        <ele>651.8</ele>
        <time>2023-08-20T09:45:50Z</time>
      </trkpt>
      <trkpt lat="44.75117" lon="2.36009">
        <ele>652.6</ele>
        <time>2023-08-20T09:45:51Z</time>
      </trkpt>
      <trkpt lat="44.75108" lon="2.36022">
        <ele>653.4</ele>
        <time>2023-08-20T09:45:52Z</time>
      </trkpt>
      <trkpt lat="44.75092" lon="2.36058">
        <ele>654.4</ele>
        <time>2023-08-20T09:45:54Z</time>
      </trkpt>
      <trkpt lat="44.75083" lon="2.36081">
        <ele>654.8</ele>
        <time>2023-08-20T09:45:55Z</time>
      </trkpt>
      <trkpt lat="44.75074" lon="2.36104">
        <ele>655</ele>
        <time>2023-08-20T09:45:56Z</time>
      </trkpt>
      <trkpt lat="44.75066" lon="2.36125">
        <ele>655.8</ele>
        <time>2023-08-20T09:45:57Z</time>
      </trkpt>
      <trkpt lat="44.75058" lon="2.36145">
        <ele>656</ele>
        <time>2023-08-20T09:45:58Z</time>
      </trkpt>
      <trkpt lat="44.75051" lon="2.36165">
        <ele>657.2</ele>
        <time>2023-08-20T09:45:59Z</time>
      </trkpt>
      <trkpt lat="44.75042" lon="2.36184">
        <ele>657.6</ele>
        <time>2023-08-20T09:46:00Z</time>
      </trkpt>
      <trkpt lat="44.75035" lon="2.36203">
        <ele>658</ele>
        <time>2023-08-20T09:46:01Z</time>
      </trkpt>
      <trkpt lat="44.75027" lon="2.36221">
        <ele>658.4</ele>
        <time>2023-08-20T09:46:02Z</time>
      </trkpt>
      <trkpt lat="44.75019" lon="2.36238">
        <ele>658.6</ele>
        <time>2023-08-20T09:46:03Z</time>
      </trkpt>
      <trkpt lat="44.75019" lon="2.36238">
        <ele>658.8</ele>
        <time>2023-08-20T09:46:04Z</time>
      </trkpt>
      <trkpt lat="44.75003" lon="2.3627">
        <ele>659</ele>
        <time>2023-08-20T09:46:05Z</time>
      </trkpt>
      <trkpt lat="44.74994" lon="2.36284">
        <ele>659.2</ele>
        <time>2023-08-20T09:46:06Z</time>
      </trkpt>
      <trkpt lat="44.74984" lon="2.36297">
        <ele>659.2</ele>
        <time>2023-08-20T09:46:07Z</time>
      </trkpt>
      <trkpt lat="44.74974" lon="2.36309">
        <ele>659.4</ele>
        <time>2023-08-20T09:46:08Z</time>
      </trkpt>
      <trkpt lat="44.74963" lon="2.36321">
        <ele>659.6</ele>
        <time>2023-08-20T09:46:09Z</time>
      </trkpt>
      <trkpt lat="44.74963" lon="2.36321">
        <ele>659.8</ele>
        <time>2023-08-20T09:46:10Z</time>
      </trkpt>
      <trkpt lat="44.74942" lon="2.3634">
        <ele>660.2</ele>
        <time>2023-08-20T09:46:11Z</time>
      </trkpt>
      <trkpt lat="44.74932" lon="2.36347">
        <ele>660.4</ele>
        <time>2023-08-20T09:46:12Z</time>
      </trkpt>
      <trkpt lat="44.74922" lon="2.36354">
        <ele>660.8</ele>
        <time>2023-08-20T09:46:13Z</time>
      </trkpt>
      <trkpt lat="44.74912" lon="2.36358">
        <ele>661</ele>
        <time>2023-08-20T09:46:14Z</time>
      </trkpt>
      <trkpt lat="44.74901" lon="2.36362">
        <ele>661.6</ele>
        <time>2023-08-20T09:46:15Z</time>
      </trkpt>
      <trkpt lat="44.7489" lon="2.36366">
        <ele>661.8</ele>
        <time>2023-08-20T09:46:16Z</time>
      </trkpt>
      <trkpt lat="44.74879" lon="2.36369">
        <ele>662.2</ele>
        <time>2023-08-20T09:46:17Z</time>
      </trkpt>
      <trkpt lat="44.74869" lon="2.36371">
        <ele>663</ele>
        <time>2023-08-20T09:46:18Z</time>
      </trkpt>
      <trkpt lat="44.74858" lon="2.36373">
        <ele>663.2</ele>
        <time>2023-08-20T09:46:19Z</time>
      </trkpt>
      <trkpt lat="44.74846" lon="2.36376">
        <ele>663.8</ele>
        <time>2023-08-20T09:46:20Z</time>
      </trkpt>
      <trkpt lat="44.74839" lon="2.36379">
        <ele>664.2</ele>
        <time>2023-08-20T09:46:21Z</time>
      </trkpt>
      <trkpt lat="44.74831" lon="2.36383">
        <ele>665.2</ele>
        <time>2023-08-20T09:46:22Z</time>
      </trkpt>
      <trkpt lat="44.74822" lon="2.36391">
        <ele>665.6</ele>
        <time>2023-08-20T09:46:23Z</time>
      </trkpt>
      <trkpt lat="44.74816" lon="2.36399">
        <ele>666.4</ele>
        <time>2023-08-20T09:46:24Z</time>
      </trkpt>
      <trkpt lat="44.7481" lon="2.3641">
        <ele>666.6</ele>
        <time>2023-08-20T09:46:25Z</time>
      </trkpt>
      <trkpt lat="44.74804" lon="2.36422">
        <ele>667</ele>
        <time>2023-08-20T09:46:26Z</time>
      </trkpt>
      <trkpt lat="44.74799" lon="2.36436">
        <ele>667.8</ele>
        <time>2023-08-20T09:46:27Z</time>
      </trkpt>
      <trkpt lat="44.74796" lon="2.36453">
        <ele>668</ele>
        <time>2023-08-20T09:46:28Z</time>
      </trkpt>
      <trkpt lat="44.74795" lon="2.36471">
        <ele>668.4</ele>
        <time>2023-08-20T09:46:29Z</time>
      </trkpt>
      <trkpt lat="44.74795" lon="2.3649">
        <ele>668.6</ele>
        <time>2023-08-20T09:46:30Z</time>
      </trkpt>
      <trkpt lat="44.74794" lon="2.3651">
        <ele>669</ele>
        <time>2023-08-20T09:46:31Z</time>
      </trkpt>
      <trkpt lat="44.74793" lon="2.36529">
        <ele>669.2</ele>
        <time>2023-08-20T09:46:32Z</time>
      </trkpt>
      <trkpt lat="44.7479" lon="2.36548">
        <ele>669.8</ele>
        <time>2023-08-20T09:46:33Z</time>
      </trkpt>
      <trkpt lat="44.74785" lon="2.36565">
        <ele>670</ele>
        <time>2023-08-20T09:46:34Z</time>
      </trkpt>
      <trkpt lat="44.74778" lon="2.36582">
        <ele>670.2</ele>
        <time>2023-08-20T09:46:35Z</time>
      </trkpt>
      <trkpt lat="44.74771" lon="2.36598">
        <ele>670.4</ele>
        <time>2023-08-20T09:46:36Z</time>
      </trkpt>
      <trkpt lat="44.74765" lon="2.36613">
        <ele>670.4</ele>
        <time>2023-08-20T09:46:37Z</time>
      </trkpt>
      <trkpt lat="44.74758" lon="2.36627">
        <ele>670.4</ele>
        <time>2023-08-20T09:46:38Z</time>
      </trkpt>
      <trkpt lat="44.74752" lon="2.36641">
        <ele>670.4</ele>
        <time>2023-08-20T09:46:39Z</time>
      </trkpt>
      <trkpt lat="44.74744" lon="2.36653">
        <ele>670.2</ele>
        <time>2023-08-20T09:46:40Z</time>
      </trkpt>
      <trkpt lat="44.74735" lon="2.36662">
        <ele>670.2</ele>
        <time>2023-08-20T09:46:41Z</time>
      </trkpt>
      <trkpt lat="44.74726" lon="2.36667">
        <ele>670</ele>
        <time>2023-08-20T09:46:42Z</time>
      </trkpt>
      <trkpt lat="44.74716" lon="2.36667">
        <ele>669.8</ele>
        <time>2023-08-20T09:46:43Z</time>
      </trkpt>
      <trkpt lat="44.74707" lon="2.36661">
        <ele>669.6</ele>
        <time>2023-08-20T09:46:44Z</time>
      </trkpt>
      <trkpt lat="44.747" lon="2.36651">
        <ele>669.4</ele>
        <time>2023-08-20T09:46:45Z</time>
      </trkpt>
      <trkpt lat="44.74695" lon="2.36638">
        <ele>669.2</ele>
        <time>2023-08-20T09:46:46Z</time>
      </trkpt>
      <trkpt lat="44.7469" lon="2.36624">
        <ele>669</ele>
        <time>2023-08-20T09:46:47Z</time>
      </trkpt>
      <trkpt lat="44.74685" lon="2.36611">
        <ele>668.8</ele>
        <time>2023-08-20T09:46:48Z</time>
      </trkpt>
      <trkpt lat="44.74679" lon="2.36601">
        <ele>668.6</ele>
        <time>2023-08-20T09:46:49Z</time>
      </trkpt>
      <trkpt lat="44.74671" lon="2.36596">
        <ele>668.6</ele>
        <time>2023-08-20T09:46:50Z</time>
      </trkpt>
      <trkpt lat="44.74661" lon="2.36598">
        <ele>668.4</ele>
        <time>2023-08-20T09:46:51Z</time>
      </trkpt>
      <trkpt lat="44.7465" lon="2.36603">
        <ele>668.2</ele>
        <time>2023-08-20T09:46:52Z</time>
      </trkpt>
      <trkpt lat="44.74639" lon="2.36611">
        <ele>668.2</ele>
        <time>2023-08-20T09:46:53Z</time>
      </trkpt>
      <trkpt lat="44.74627" lon="2.36618">
        <ele>668.2</ele>
        <time>2023-08-20T09:46:54Z</time>
      </trkpt>
      <trkpt lat="44.74615" lon="2.36626">
        <ele>668.2</ele>
        <time>2023-08-20T09:46:55Z</time>
      </trkpt>
      <trkpt lat="44.74602" lon="2.36631">
        <ele>668.4</ele>
        <time>2023-08-20T09:46:56Z</time>
      </trkpt>
      <trkpt lat="44.74589" lon="2.36631">
        <ele>668.4</ele>
        <time>2023-08-20T09:46:57Z</time>
      </trkpt>
      <trkpt lat="44.74577" lon="2.36625">
        <ele>668.2</ele>
        <time>2023-08-20T09:46:58Z</time>
      </trkpt>
      <trkpt lat="44.74566" lon="2.36616">
        <ele>668</ele>
        <time>2023-08-20T09:46:59Z</time>
      </trkpt>
      <trkpt lat="44.74556" lon="2.36605">
        <ele>668</ele>
        <time>2023-08-20T09:47:00Z</time>
      </trkpt>
      <trkpt lat="44.74531" lon="2.36576">
        <ele>668.4</ele>
        <time>2023-08-20T09:47:02Z</time>
      </trkpt>
      <trkpt lat="44.74516" lon="2.36562">
        <ele>668.2</ele>
        <time>2023-08-20T09:47:03Z</time>
      </trkpt>
      <trkpt lat="44.74482" lon="2.36533">
        <ele>668.6</ele>
        <time>2023-08-20T09:47:05Z</time>
      </trkpt>
      <trkpt lat="44.74455" lon="2.36514">
        <ele>668.6</ele>
        <time>2023-08-20T09:47:07Z</time>
      </trkpt>
      <trkpt lat="44.74444" lon="2.36506">
        <ele>668.8</ele>
        <time>2023-08-20T09:47:08Z</time>
      </trkpt>
      <trkpt lat="44.74433" lon="2.36499">
        <ele>668.8</ele>
        <time>2023-08-20T09:47:09Z</time>
      </trkpt>
      <trkpt lat="44.74424" lon="2.36492">
        <ele>668.8</ele>
        <time>2023-08-20T09:47:10Z</time>
      </trkpt>
      <trkpt lat="44.74414" lon="2.36485">
        <ele>668.8</ele>
        <time>2023-08-20T09:47:11Z</time>
      </trkpt>
      <trkpt lat="44.74403" lon="2.36479">
        <ele>668.8</ele>
        <time>2023-08-20T09:47:12Z</time>
      </trkpt>
      <trkpt lat="44.74392" lon="2.36474">
        <ele>668.8</ele>
        <time>2023-08-20T09:47:13Z</time>
      </trkpt>
      <trkpt lat="44.74368" lon="2.36465">
        <ele>668.2</ele>
        <time>2023-08-20T09:47:15Z</time>
      </trkpt>
      <trkpt lat="44.74355" lon="2.36463">
        <ele>667.6</ele>
        <time>2023-08-20T09:47:16Z</time>
      </trkpt>
      <trkpt lat="44.7432" lon="2.36459">
        <ele>666.4</ele>
        <time>2023-08-20T09:47:19Z</time>
      </trkpt>
      <trkpt lat="44.74312" lon="2.36455">
        <ele>666.2</ele>
        <time>2023-08-20T09:47:20Z</time>
      </trkpt>
      <trkpt lat="44.74303" lon="2.36446">
        <ele>665.6</ele>
        <time>2023-08-20T09:47:21Z</time>
      </trkpt>
      <trkpt lat="44.74295" lon="2.36435">
        <ele>665.4</ele>
        <time>2023-08-20T09:47:22Z</time>
      </trkpt>
      <trkpt lat="44.74286" lon="2.36423">
        <ele>664.2</ele>
        <time>2023-08-20T09:47:23Z</time>
      </trkpt>
      <trkpt lat="44.74275" lon="2.36411">
        <ele>664</ele>
        <time>2023-08-20T09:47:24Z</time>
      </trkpt>
      <trkpt lat="44.74264" lon="2.36399">
        <ele>662.8</ele>
        <time>2023-08-20T09:47:25Z</time>
      </trkpt>
      <trkpt lat="44.74229" lon="2.36366">
        <ele>661.2</ele>
        <time>2023-08-20T09:47:28Z</time>
      </trkpt>
      <trkpt lat="44.74207" lon="2.36347">
        <ele>660.2</ele>
        <time>2023-08-20T09:47:30Z</time>
      </trkpt>
      <trkpt lat="44.74207" lon="2.36347">
        <ele>659.8</ele>
        <time>2023-08-20T09:47:31Z</time>
      </trkpt>
      <trkpt lat="44.74187" lon="2.36332">
        <ele>658.6</ele>
        <time>2023-08-20T09:47:32Z</time>
      </trkpt>
      <trkpt lat="44.74175" lon="2.36329">
        <ele>657.8</ele>
        <time>2023-08-20T09:47:33Z</time>
      </trkpt>
      <trkpt lat="44.74163" lon="2.36329">
        <ele>656</ele>
        <time>2023-08-20T09:47:34Z</time>
      </trkpt>
      <trkpt lat="44.7415" lon="2.36334">
        <ele>654.8</ele>
        <time>2023-08-20T09:47:35Z</time>
      </trkpt>
      <trkpt lat="44.74133" lon="2.36344">
        <ele>654</ele>
        <time>2023-08-20T09:47:36Z</time>
      </trkpt>
      <trkpt lat="44.74119" lon="2.36356">
        <ele>653</ele>
        <time>2023-08-20T09:47:37Z</time>
      </trkpt>
      <trkpt lat="44.74105" lon="2.36369">
        <ele>652.2</ele>
        <time>2023-08-20T09:47:38Z</time>
      </trkpt>
      <trkpt lat="44.74092" lon="2.36382">
        <ele>650.8</ele>
        <time>2023-08-20T09:47:39Z</time>
      </trkpt>
      <trkpt lat="44.7408" lon="2.36394">
        <ele>650.2</ele>
        <time>2023-08-20T09:47:40Z</time>
      </trkpt>
      <trkpt lat="44.74067" lon="2.36407">
        <ele>649.4</ele>
        <time>2023-08-20T09:47:41Z</time>
      </trkpt>
      <trkpt lat="44.74054" lon="2.36419">
        <ele>648.4</ele>
        <time>2023-08-20T09:47:42Z</time>
      </trkpt>
      <trkpt lat="44.74041" lon="2.36429">
        <ele>648</ele>
        <time>2023-08-20T09:47:43Z</time>
      </trkpt>
      <trkpt lat="44.74029" lon="2.36436">
        <ele>647.2</ele>
        <time>2023-08-20T09:47:44Z</time>
      </trkpt>
      <trkpt lat="44.74016" lon="2.36441">
        <ele>646.6</ele>
        <time>2023-08-20T09:47:45Z</time>
      </trkpt>
      <trkpt lat="44.74005" lon="2.36445">
        <ele>645.8</ele>
        <time>2023-08-20T09:47:46Z</time>
      </trkpt>
      <trkpt lat="44.73994" lon="2.36447">
        <ele>645.4</ele>
        <time>2023-08-20T09:47:47Z</time>
      </trkpt>
      <trkpt lat="44.73983" lon="2.36446">
        <ele>644.4</ele>
        <time>2023-08-20T09:47:48Z</time>
      </trkpt>
      <trkpt lat="44.73975" lon="2.3644">
        <ele>643.6</ele>
        <time>2023-08-20T09:47:49Z</time>
      </trkpt>
      <trkpt lat="44.73966" lon="2.36434">
        <ele>642.4</ele>
        <time>2023-08-20T09:47:50Z</time>
      </trkpt>
      <trkpt lat="44.73957" lon="2.36426">
        <ele>641</ele>
        <time>2023-08-20T09:47:51Z</time>
      </trkpt>
      <trkpt lat="44.73947" lon="2.36418">
        <ele>640.2</ele>
        <time>2023-08-20T09:47:52Z</time>
      </trkpt>
      <trkpt lat="44.73936" lon="2.36411">
        <ele>639</ele>
        <time>2023-08-20T09:47:53Z</time>
      </trkpt>
      <trkpt lat="44.73925" lon="2.36405">
        <ele>638.2</ele>
        <time>2023-08-20T09:47:54Z</time>
      </trkpt>
      <trkpt lat="44.73909" lon="2.36395">
        <ele>637</ele>
        <time>2023-08-20T09:47:55Z</time>
      </trkpt>
      <trkpt lat="44.73884" lon="2.36379">
        <ele>635.4</ele>
        <time>2023-08-20T09:47:57Z</time>
      </trkpt>
      <trkpt lat="44.73862" lon="2.36361">
        <ele>634.4</ele>
        <time>2023-08-20T09:47:59Z</time>
      </trkpt>
      <trkpt lat="44.73849" lon="2.36351">
        <ele>633.6</ele>
        <time>2023-08-20T09:48:00Z</time>
      </trkpt>
      <trkpt lat="44.73837" lon="2.36344">
        <ele>633</ele>
        <time>2023-08-20T09:48:01Z</time>
      </trkpt>
      <trkpt lat="44.73825" lon="2.36343">
        <ele>631.6</ele>
        <time>2023-08-20T09:48:02Z</time>
      </trkpt>
      <trkpt lat="44.73815" lon="2.36342">
        <ele>631.2</ele>
        <time>2023-08-20T09:48:03Z</time>
      </trkpt>
      <trkpt lat="44.73802" lon="2.36343">
        <ele>630.2</ele>
        <time>2023-08-20T09:48:04Z</time>
      </trkpt>
      <trkpt lat="44.73789" lon="2.36346">
        <ele>629.2</ele>
        <time>2023-08-20T09:48:05Z</time>
      </trkpt>
      <trkpt lat="44.73774" lon="2.3635">
        <ele>628.2</ele>
        <time>2023-08-20T09:48:06Z</time>
      </trkpt>
      <trkpt lat="44.7375" lon="2.36358">
        <ele>626.4</ele>
        <time>2023-08-20T09:48:08Z</time>
      </trkpt>
      <trkpt lat="44.73735" lon="2.36364">
        <ele>625.4</ele>
        <time>2023-08-20T09:48:09Z</time>
      </trkpt>
      <trkpt lat="44.73711" lon="2.36373">
        <ele>624</ele>
        <time>2023-08-20T09:48:11Z</time>
      </trkpt>
      <trkpt lat="44.737" lon="2.36376">
        <ele>623.8</ele>
        <time>2023-08-20T09:48:12Z</time>
      </trkpt>
      <trkpt lat="44.73691" lon="2.36378">
        <ele>623</ele>
        <time>2023-08-20T09:48:13Z</time>
      </trkpt>
      <trkpt lat="44.73677" lon="2.36378">
        <ele>622.6</ele>
        <time>2023-08-20T09:48:14Z</time>
      </trkpt>
      <trkpt lat="44.73665" lon="2.36376">
        <ele>621.8</ele>
        <time>2023-08-20T09:48:15Z</time>
      </trkpt>
      <trkpt lat="44.73655" lon="2.36371">
        <ele>620.2</ele>
        <time>2023-08-20T09:48:16Z</time>
      </trkpt>
      <trkpt lat="44.73646" lon="2.36365">
        <ele>619.6</ele>
        <time>2023-08-20T09:48:17Z</time>
      </trkpt>
      <trkpt lat="44.73641" lon="2.36358">
        <ele>618.4</ele>
        <time>2023-08-20T09:48:18Z</time>
      </trkpt>
      <trkpt lat="44.73635" lon="2.36346">
        <ele>617.8</ele>
        <time>2023-08-20T09:48:19Z</time>
      </trkpt>
      <trkpt lat="44.73632" lon="2.36334">
        <ele>617</ele>
        <time>2023-08-20T09:48:20Z</time>
      </trkpt>
      <trkpt lat="44.73631" lon="2.36321">
        <ele>616</ele>
        <time>2023-08-20T09:48:21Z</time>
      </trkpt>
      <trkpt lat="44.73631" lon="2.36308">
        <ele>614.6</ele>
        <time>2023-08-20T09:48:22Z</time>
      </trkpt>
      <trkpt lat="44.73632" lon="2.36292">
        <ele>613.8</ele>
        <time>2023-08-20T09:48:23Z</time>
      </trkpt>
      <trkpt lat="44.73633" lon="2.36275">
        <ele>612.4</ele>
        <time>2023-08-20T09:48:24Z</time>
      </trkpt>
      <trkpt lat="44.73634" lon="2.36255">
        <ele>611.4</ele>
        <time>2023-08-20T09:48:25Z</time>
      </trkpt>
      <trkpt lat="44.73634" lon="2.36228">
        <ele>610</ele>
        <time>2023-08-20T09:48:27Z</time>
      </trkpt>
      <trkpt lat="44.73632" lon="2.36213">
        <ele>609.4</ele>
        <time>2023-08-20T09:48:28Z</time>
      </trkpt>
      <trkpt lat="44.73632" lon="2.36213">
        <ele>608.4</ele>
        <time>2023-08-20T09:48:29Z</time>
      </trkpt>
      <trkpt lat="44.7362" lon="2.36204">
        <ele>608</ele>
        <time>2023-08-20T09:48:30Z</time>
      </trkpt>
      <trkpt lat="44.73612" lon="2.36204">
        <ele>607</ele>
        <time>2023-08-20T09:48:31Z</time>
      </trkpt>
      <trkpt lat="44.73603" lon="2.36207">
        <ele>606.6</ele>
        <time>2023-08-20T09:48:32Z</time>
      </trkpt>
      <trkpt lat="44.73594" lon="2.3621">
        <ele>605.4</ele>
        <time>2023-08-20T09:48:33Z</time>
      </trkpt>
      <trkpt lat="44.73586" lon="2.36215">
        <ele>604</ele>
        <time>2023-08-20T09:48:34Z</time>
      </trkpt>
      <trkpt lat="44.73573" lon="2.36231">
        <ele>603.2</ele>
        <time>2023-08-20T09:48:36Z</time>
      </trkpt>
      <trkpt lat="44.73567" lon="2.36242">
        <ele>603.2</ele>
        <time>2023-08-20T09:48:37Z</time>
      </trkpt>
      <trkpt lat="44.73567" lon="2.36242">
        <ele>603</ele>
        <time>2023-08-20T09:48:38Z</time>
      </trkpt>
      <trkpt lat="44.73551" lon="2.36271">
        <ele>603</ele>
        <time>2023-08-20T09:48:39Z</time>
      </trkpt>
      <trkpt lat="44.73551" lon="2.36271">
        <ele>603</ele>
        <time>2023-08-20T09:48:40Z</time>
      </trkpt>
      <trkpt lat="44.73526" lon="2.36315">
        <ele>603.6</ele>
        <time>2023-08-20T09:48:42Z</time>
      </trkpt>
      <trkpt lat="44.73516" lon="2.36322">
        <ele>605</ele>
        <time>2023-08-20T09:48:43Z</time>
      </trkpt>
      <trkpt lat="44.73509" lon="2.36328">
        <ele>605.4</ele>
        <time>2023-08-20T09:48:44Z</time>
      </trkpt>
      <trkpt lat="44.73501" lon="2.3633">
        <ele>606.6</ele>
        <time>2023-08-20T09:48:45Z</time>
      </trkpt>
      <trkpt lat="44.73491" lon="2.36328">
        <ele>607</ele>
        <time>2023-08-20T09:48:46Z</time>
      </trkpt>
      <trkpt lat="44.73482" lon="2.36325">
        <ele>607.6</ele>
        <time>2023-08-20T09:48:47Z</time>
      </trkpt>
      <trkpt lat="44.73471" lon="2.36324">
        <ele>607.8</ele>
        <time>2023-08-20T09:48:48Z</time>
      </trkpt>
      <trkpt lat="44.73457" lon="2.36325">
        <ele>608.6</ele>
        <time>2023-08-20T09:48:49Z</time>
      </trkpt>
      <trkpt lat="44.73446" lon="2.36327">
        <ele>609</ele>
        <time>2023-08-20T09:48:50Z</time>
      </trkpt>
      <trkpt lat="44.7343" lon="2.36333">
        <ele>609.4</ele>
        <time>2023-08-20T09:48:51Z</time>
      </trkpt>
      <trkpt lat="44.73412" lon="2.36341">
        <ele>609.8</ele>
        <time>2023-08-20T09:48:52Z</time>
      </trkpt>
      <trkpt lat="44.73389" lon="2.3635">
        <ele>611.4</ele>
        <time>2023-08-20T09:48:54Z</time>
      </trkpt>
      <trkpt lat="44.73382" lon="2.36347">
        <ele>612.2</ele>
        <time>2023-08-20T09:48:55Z</time>
      </trkpt>
      <trkpt lat="44.73375" lon="2.36342">
        <ele>613.4</ele>
        <time>2023-08-20T09:48:56Z</time>
      </trkpt>
      <trkpt lat="44.73368" lon="2.36338">
        <ele>614.2</ele>
        <time>2023-08-20T09:48:57Z</time>
      </trkpt>
      <trkpt lat="44.73357" lon="2.36328">
        <ele>615.8</ele>
        <time>2023-08-20T09:48:58Z</time>
      </trkpt>
      <trkpt lat="44.73357" lon="2.36328">
        <ele>616.8</ele>
        <time>2023-08-20T09:48:59Z</time>
      </trkpt>
      <trkpt lat="44.73336" lon="2.36323">
        <ele>617</ele>
        <time>2023-08-20T09:49:00Z</time>
      </trkpt>
      <trkpt lat="44.73323" lon="2.36325">
        <ele>617.6</ele>
        <time>2023-08-20T09:49:01Z</time>
      </trkpt>
      <trkpt lat="44.73308" lon="2.36327">
        <ele>618.2</ele>
        <time>2023-08-20T09:49:02Z</time>
      </trkpt>
      <trkpt lat="44.73295" lon="2.3633">
        <ele>618.8</ele>
        <time>2023-08-20T09:49:03Z</time>
      </trkpt>
      <trkpt lat="44.73285" lon="2.36331">
        <ele>619.4</ele>
        <time>2023-08-20T09:49:04Z</time>
      </trkpt>
      <trkpt lat="44.73272" lon="2.36329">
        <ele>620.8</ele>
        <time>2023-08-20T09:49:05Z</time>
      </trkpt>
      <trkpt lat="44.73257" lon="2.36324">
        <ele>621.2</ele>
        <time>2023-08-20T09:49:06Z</time>
      </trkpt>
      <trkpt lat="44.73245" lon="2.3632">
        <ele>623</ele>
        <time>2023-08-20T09:49:07Z</time>
      </trkpt>
      <trkpt lat="44.73235" lon="2.36318">
        <ele>624.4</ele>
        <time>2023-08-20T09:49:08Z</time>
      </trkpt>
      <trkpt lat="44.73224" lon="2.36318">
        <ele>625</ele>
        <time>2023-08-20T09:49:09Z</time>
      </trkpt>
      <trkpt lat="44.73212" lon="2.36319">
        <ele>626.6</ele>
        <time>2023-08-20T09:49:10Z</time>
      </trkpt>
      <trkpt lat="44.73197" lon="2.36325">
        <ele>627.2</ele>
        <time>2023-08-20T09:49:11Z</time>
      </trkpt>
      <trkpt lat="44.73182" lon="2.36333">
        <ele>628.6</ele>
        <time>2023-08-20T09:49:12Z</time>
      </trkpt>
      <trkpt lat="44.73167" lon="2.3634">
        <ele>629.2</ele>
        <time>2023-08-20T09:49:13Z</time>
      </trkpt>
      <trkpt lat="44.73153" lon="2.36348">
        <ele>630.8</ele>
        <time>2023-08-20T09:49:14Z</time>
      </trkpt>
      <trkpt lat="44.7314" lon="2.36354">
        <ele>632.4</ele>
        <time>2023-08-20T09:49:15Z</time>
      </trkpt>
      <trkpt lat="44.73129" lon="2.36358">
        <ele>633</ele>
        <time>2023-08-20T09:49:16Z</time>
      </trkpt>
      <trkpt lat="44.73119" lon="2.36361">
        <ele>635</ele>
        <time>2023-08-20T09:49:17Z</time>
      </trkpt>
      <trkpt lat="44.73111" lon="2.36359">
        <ele>636.2</ele>
        <time>2023-08-20T09:49:18Z</time>
      </trkpt>
      <trkpt lat="44.73104" lon="2.36354">
        <ele>637.8</ele>
        <time>2023-08-20T09:49:19Z</time>
      </trkpt>
      <trkpt lat="44.73094" lon="2.36346">
        <ele>638.4</ele>
        <time>2023-08-20T09:49:20Z</time>
      </trkpt>
      <trkpt lat="44.73084" lon="2.36338">
        <ele>639.4</ele>
        <time>2023-08-20T09:49:21Z</time>
      </trkpt>
      <trkpt lat="44.73073" lon="2.36332">
        <ele>639.8</ele>
        <time>2023-08-20T09:49:22Z</time>
      </trkpt>
      <trkpt lat="44.73062" lon="2.36329">
        <ele>640.6</ele>
        <time>2023-08-20T09:49:23Z</time>
      </trkpt>
      <trkpt lat="44.73052" lon="2.3633">
        <ele>641.6</ele>
        <time>2023-08-20T09:49:24Z</time>
      </trkpt>
      <trkpt lat="44.73037" lon="2.36334">
        <ele>642.2</ele>
        <time>2023-08-20T09:49:25Z</time>
      </trkpt>
      <trkpt lat="44.73024" lon="2.36337">
        <ele>643</ele>
        <time>2023-08-20T09:49:26Z</time>
      </trkpt>
      <trkpt lat="44.73024" lon="2.36337">
        <ele>643.8</ele>
        <time>2023-08-20T09:49:27Z</time>
      </trkpt>
      <trkpt lat="44.73008" lon="2.36339">
        <ele>644.6</ele>
        <time>2023-08-20T09:49:28Z</time>
      </trkpt>
      <trkpt lat="44.73002" lon="2.36335">
        <ele>645</ele>
        <time>2023-08-20T09:49:29Z</time>
      </trkpt>
      <trkpt lat="44.72997" lon="2.36329">
        <ele>646.4</ele>
        <time>2023-08-20T09:49:30Z</time>
      </trkpt>
      <trkpt lat="44.72991" lon="2.36317">
        <ele>646.8</ele>
        <time>2023-08-20T09:49:31Z</time>
      </trkpt>
      <trkpt lat="44.72988" lon="2.36305">
        <ele>647.4</ele>
        <time>2023-08-20T09:49:32Z</time>
      </trkpt>
      <trkpt lat="44.72986" lon="2.36288">
        <ele>648</ele>
        <time>2023-08-20T09:49:33Z</time>
      </trkpt>
      <trkpt lat="44.72984" lon="2.36268">
        <ele>648</ele>
        <time>2023-08-20T09:49:34Z</time>
      </trkpt>
      <trkpt lat="44.72979" lon="2.36242">
        <ele>648.2</ele>
        <time>2023-08-20T09:49:35Z</time>
      </trkpt>
      <trkpt lat="44.72975" lon="2.36222">
        <ele>648.4</ele>
        <time>2023-08-20T09:49:36Z</time>
      </trkpt>
      <trkpt lat="44.72971" lon="2.36204">
        <ele>649.2</ele>
        <time>2023-08-20T09:49:37Z</time>
      </trkpt>
      <trkpt lat="44.72968" lon="2.36189">
        <ele>649.4</ele>
        <time>2023-08-20T09:49:38Z</time>
      </trkpt>
      <trkpt lat="44.72966" lon="2.36171">
        <ele>650</ele>
        <time>2023-08-20T09:49:39Z</time>
      </trkpt>
      <trkpt lat="44.72961" lon="2.36151">
        <ele>650.4</ele>
        <time>2023-08-20T09:49:40Z</time>
      </trkpt>
      <trkpt lat="44.72956" lon="2.36135">
        <ele>650.8</ele>
        <time>2023-08-20T09:49:41Z</time>
      </trkpt>
      <trkpt lat="44.72951" lon="2.36123">
        <ele>651.4</ele>
        <time>2023-08-20T09:49:42Z</time>
      </trkpt>
      <trkpt lat="44.72943" lon="2.3611">
        <ele>651.6</ele>
        <time>2023-08-20T09:49:43Z</time>
      </trkpt>
      <trkpt lat="44.72931" lon="2.36096">
        <ele>651.8</ele>
        <time>2023-08-20T09:49:44Z</time>
      </trkpt>
      <trkpt lat="44.7292" lon="2.36084">
        <ele>652</ele>
        <time>2023-08-20T09:49:45Z</time>
      </trkpt>
      <trkpt lat="44.72908" lon="2.36072">
        <ele>652.6</ele>
        <time>2023-08-20T09:49:46Z</time>
      </trkpt>
      <trkpt lat="44.729" lon="2.36062">
        <ele>652.6</ele>
        <time>2023-08-20T09:49:47Z</time>
      </trkpt>
      <trkpt lat="44.72889" lon="2.36045">
        <ele>653</ele>
        <time>2023-08-20T09:49:48Z</time>
      </trkpt>
      <trkpt lat="44.72883" lon="2.36034">
        <ele>653.4</ele>
        <time>2023-08-20T09:49:49Z</time>
      </trkpt>
      <trkpt lat="44.72877" lon="2.36019">
        <ele>653.6</ele>
        <time>2023-08-20T09:49:50Z</time>
      </trkpt>
      <trkpt lat="44.72871" lon="2.36005">
        <ele>653.6</ele>
        <time>2023-08-20T09:49:51Z</time>
      </trkpt>
      <trkpt lat="44.72865" lon="2.35991">
        <ele>653.6</ele>
        <time>2023-08-20T09:49:52Z</time>
      </trkpt>
      <trkpt lat="44.72856" lon="2.35975">
        <ele>653.6</ele>
        <time>2023-08-20T09:49:53Z</time>
      </trkpt>
      <trkpt lat="44.72848" lon="2.35962">
        <ele>653.6</ele>
        <time>2023-08-20T09:49:54Z</time>
      </trkpt>
      <trkpt lat="44.72838" lon="2.35949">
        <ele>653.6</ele>
        <time>2023-08-20T09:49:55Z</time>
      </trkpt>
      <trkpt lat="44.7283" lon="2.35939">
        <ele>653.6</ele>
        <time>2023-08-20T09:49:56Z</time>
      </trkpt>
      <trkpt lat="44.72819" lon="2.35926">
        <ele>653.6</ele>
        <time>2023-08-20T09:49:57Z</time>
      </trkpt>
      <trkpt lat="44.72807" lon="2.3591">
        <ele>653.4</ele>
        <time>2023-08-20T09:49:58Z</time>
      </trkpt>
      <trkpt lat="44.72799" lon="2.359">
        <ele>653.2</ele>
        <time>2023-08-20T09:49:59Z</time>
      </trkpt>
      <trkpt lat="44.72789" lon="2.35887">
        <ele>652.6</ele>
        <time>2023-08-20T09:50:00Z</time>
      </trkpt>
      <trkpt lat="44.72778" lon="2.35875">
        <ele>652.6</ele>
        <time>2023-08-20T09:50:01Z</time>
      </trkpt>
      <trkpt lat="44.72768" lon="2.35862">
        <ele>652.2</ele>
        <time>2023-08-20T09:50:02Z</time>
      </trkpt>
      <trkpt lat="44.72757" lon="2.3585">
        <ele>652</ele>
        <time>2023-08-20T09:50:03Z</time>
      </trkpt>
      <trkpt lat="44.72746" lon="2.35838">
        <ele>651.6</ele>
        <time>2023-08-20T09:50:04Z</time>
      </trkpt>
      <trkpt lat="44.72734" lon="2.35826">
        <ele>651.2</ele>
        <time>2023-08-20T09:50:05Z</time>
      </trkpt>
      <trkpt lat="44.72721" lon="2.35814">
        <ele>650.6</ele>
        <time>2023-08-20T09:50:06Z</time>
      </trkpt>
      <trkpt lat="44.72709" lon="2.35803">
        <ele>650</ele>
        <time>2023-08-20T09:50:07Z</time>
      </trkpt>
      <trkpt lat="44.72697" lon="2.35792">
        <ele>649.8</ele>
        <time>2023-08-20T09:50:08Z</time>
      </trkpt>
      <trkpt lat="44.72685" lon="2.35781">
        <ele>649.4</ele>
        <time>2023-08-20T09:50:09Z</time>
      </trkpt>
      <trkpt lat="44.72674" lon="2.35772">
        <ele>649.2</ele>
        <time>2023-08-20T09:50:10Z</time>
      </trkpt>
      <trkpt lat="44.72663" lon="2.35762">
        <ele>648.2</ele>
        <time>2023-08-20T09:50:11Z</time>
      </trkpt>
      <trkpt lat="44.72652" lon="2.35753">
        <ele>647.6</ele>
        <time>2023-08-20T09:50:12Z</time>
      </trkpt>
      <trkpt lat="44.72641" lon="2.35745">
        <ele>646.2</ele>
        <time>2023-08-20T09:50:13Z</time>
      </trkpt>
      <trkpt lat="44.72631" lon="2.35738">
        <ele>644.2</ele>
        <time>2023-08-20T09:50:14Z</time>
      </trkpt>
      <trkpt lat="44.7262" lon="2.35731">
        <ele>643.4</ele>
        <time>2023-08-20T09:50:15Z</time>
      </trkpt>
      <trkpt lat="44.72609" lon="2.35726">
        <ele>642.2</ele>
        <time>2023-08-20T09:50:16Z</time>
      </trkpt>
      <trkpt lat="44.72596" lon="2.35721">
        <ele>641.4</ele>
        <time>2023-08-20T09:50:17Z</time>
      </trkpt>
      <trkpt lat="44.72582" lon="2.35718">
        <ele>640.2</ele>
        <time>2023-08-20T09:50:18Z</time>
      </trkpt>
      <trkpt lat="44.72557" lon="2.35711">
        <ele>638.2</ele>
        <time>2023-08-20T09:50:20Z</time>
      </trkpt>
      <trkpt lat="44.72545" lon="2.35708">
        <ele>637.4</ele>
        <time>2023-08-20T09:50:21Z</time>
      </trkpt>
      <trkpt lat="44.72533" lon="2.35706">
        <ele>636.2</ele>
        <time>2023-08-20T09:50:22Z</time>
      </trkpt>
      <trkpt lat="44.72522" lon="2.35705">
        <ele>635.2</ele>
        <time>2023-08-20T09:50:23Z</time>
      </trkpt>
      <trkpt lat="44.72511" lon="2.35708">
        <ele>634.6</ele>
        <time>2023-08-20T09:50:24Z</time>
      </trkpt>
      <trkpt lat="44.72501" lon="2.35714">
        <ele>633.4</ele>
        <time>2023-08-20T09:50:25Z</time>
      </trkpt>
      <trkpt lat="44.72491" lon="2.35723">
        <ele>632.6</ele>
        <time>2023-08-20T09:50:26Z</time>
      </trkpt>
      <trkpt lat="44.72483" lon="2.35733">
        <ele>631.6</ele>
        <time>2023-08-20T09:50:27Z</time>
      </trkpt>
      <trkpt lat="44.72478" lon="2.35744">
        <ele>631.2</ele>
        <time>2023-08-20T09:50:28Z</time>
      </trkpt>
      <trkpt lat="44.72473" lon="2.35757">
        <ele>630.2</ele>
        <time>2023-08-20T09:50:29Z</time>
      </trkpt>
      <trkpt lat="44.72468" lon="2.35769">
        <ele>629.4</ele>
        <time>2023-08-20T09:50:30Z</time>
      </trkpt>
      <trkpt lat="44.72462" lon="2.35779">
        <ele>627.6</ele>
        <time>2023-08-20T09:50:31Z</time>
      </trkpt>
      <trkpt lat="44.72455" lon="2.35788">
        <ele>626.4</ele>
        <time>2023-08-20T09:50:32Z</time>
      </trkpt>
      <trkpt lat="44.72445" lon="2.35794">
        <ele>625.8</ele>
        <time>2023-08-20T09:50:33Z</time>
      </trkpt>
      <trkpt lat="44.72435" lon="2.35794">
        <ele>624</ele>
        <time>2023-08-20T09:50:34Z</time>
      </trkpt>
      <trkpt lat="44.72426" lon="2.35791">
        <ele>623.4</ele>
        <time>2023-08-20T09:50:35Z</time>
      </trkpt>
      <trkpt lat="44.72417" lon="2.35782">
        <ele>622.4</ele>
        <time>2023-08-20T09:50:36Z</time>
      </trkpt>
      <trkpt lat="44.72411" lon="2.35772">
        <ele>621.6</ele>
        <time>2023-08-20T09:50:37Z</time>
      </trkpt>
      <trkpt lat="44.72405" lon="2.35761">
        <ele>620.2</ele>
        <time>2023-08-20T09:50:38Z</time>
      </trkpt>
      <trkpt lat="44.724" lon="2.3575">
        <ele>619.2</ele>
        <time>2023-08-20T09:50:39Z</time>
      </trkpt>
      <trkpt lat="44.72396" lon="2.3574">
        <ele>618.6</ele>
        <time>2023-08-20T09:50:40Z</time>
      </trkpt>
      <trkpt lat="44.72392" lon="2.35731">
        <ele>617.2</ele>
        <time>2023-08-20T09:50:41Z</time>
      </trkpt>
      <trkpt lat="44.72388" lon="2.35721">
        <ele>616.8</ele>
        <time>2023-08-20T09:50:42Z</time>
      </trkpt>
      <trkpt lat="44.72384" lon="2.35713">
        <ele>615.6</ele>
        <time>2023-08-20T09:50:43Z</time>
      </trkpt>
      <trkpt lat="44.72379" lon="2.35706">
        <ele>615</ele>
        <time>2023-08-20T09:50:44Z</time>
      </trkpt>
      <trkpt lat="44.72373" lon="2.357">
        <ele>614</ele>
        <time>2023-08-20T09:50:45Z</time>
      </trkpt>
      <trkpt lat="44.72367" lon="2.35696">
        <ele>613.4</ele>
        <time>2023-08-20T09:50:46Z</time>
      </trkpt>
      <trkpt lat="44.72361" lon="2.35692">
        <ele>612.8</ele>
        <time>2023-08-20T09:50:47Z</time>
      </trkpt>
      <trkpt lat="44.72354" lon="2.35688">
        <ele>611.8</ele>
        <time>2023-08-20T09:50:48Z</time>
      </trkpt>
      <trkpt lat="44.72347" lon="2.35683">
        <ele>611.6</ele>
        <time>2023-08-20T09:50:49Z</time>
      </trkpt>
      <trkpt lat="44.72333" lon="2.35674">
        <ele>610.4</ele>
        <time>2023-08-20T09:50:51Z</time>
      </trkpt>
      <trkpt lat="44.72325" lon="2.35669">
        <ele>609.6</ele>
        <time>2023-08-20T09:50:52Z</time>
      </trkpt>
      <trkpt lat="44.72317" lon="2.35661">
        <ele>609.4</ele>
        <time>2023-08-20T09:50:53Z</time>
      </trkpt>
      <trkpt lat="44.72312" lon="2.35654">
        <ele>608.8</ele>
        <time>2023-08-20T09:50:54Z</time>
      </trkpt>
      <trkpt lat="44.72301" lon="2.35635">
        <ele>607.6</ele>
        <time>2023-08-20T09:50:56Z</time>
      </trkpt>
      <trkpt lat="44.72297" lon="2.35627">
        <ele>607</ele>
        <time>2023-08-20T09:50:57Z</time>
      </trkpt>
      <trkpt lat="44.72295" lon="2.35622">
        <ele>606.6</ele>
        <time>2023-08-20T09:50:58Z</time>
      </trkpt>
      <trkpt lat="44.72292" lon="2.35616">
        <ele>606</ele>
        <time>2023-08-20T09:50:59Z</time>
      </trkpt>
      <trkpt lat="44.7229" lon="2.35612">
        <ele>605.6</ele>
        <time>2023-08-20T09:51:00Z</time>
      </trkpt>
      <trkpt lat="44.72288" lon="2.3561">
        <ele>604.8</ele>
        <time>2023-08-20T09:51:01Z</time>
      </trkpt>
      <trkpt lat="44.72287" lon="2.35609">
        <ele>604.4</ele>
        <time>2023-08-20T09:51:02Z</time>
      </trkpt>
      <trkpt lat="44.72287" lon="2.35609">
        <ele>603.6</ele>
        <time>2023-08-20T09:51:03Z</time>
      </trkpt>
      <trkpt lat="44.72287" lon="2.35609">
        <ele>603.2</ele>
        <time>2023-08-20T09:51:04Z</time>
      </trkpt>
      <trkpt lat="44.72285" lon="2.35607">
        <ele>597.8</ele>
        <time>2023-08-20T10:00:22Z</time>
      </trkpt>
      <trkpt lat="44.72276" lon="2.35598">
        <ele>597.8</ele>
        <time>2023-08-20T10:00:24Z</time>
      </trkpt>
      <trkpt lat="44.72256" lon="2.35567">
        <ele>597.8</ele>
        <time>2023-08-20T10:00:28Z</time>
      </trkpt>
      <trkpt lat="44.72251" lon="2.3556">
        <ele>597.6</ele>
        <time>2023-08-20T10:00:29Z</time>
      </trkpt>
      <trkpt lat="44.72232" lon="2.35544">
        <ele>597</ele>
        <time>2023-08-20T10:00:32Z</time>
      </trkpt>
      <trkpt lat="44.72218" lon="2.35535">
        <ele>596.2</ele>
        <time>2023-08-20T10:00:34Z</time>
      </trkpt>
      <trkpt lat="44.72209" lon="2.35531">
        <ele>595.8</ele>
        <time>2023-08-20T10:00:35Z</time>
      </trkpt>
      <trkpt lat="44.72191" lon="2.35529">
        <ele>595.4</ele>
        <time>2023-08-20T10:00:37Z</time>
      </trkpt>
      <trkpt lat="44.72181" lon="2.3553">
        <ele>595</ele>
        <time>2023-08-20T10:00:38Z</time>
      </trkpt>
      <trkpt lat="44.7215" lon="2.35538">
        <ele>593.6</ele>
        <time>2023-08-20T10:00:41Z</time>
      </trkpt>
      <trkpt lat="44.72139" lon="2.35541">
        <ele>593.4</ele>
        <time>2023-08-20T10:00:42Z</time>
      </trkpt>
      <trkpt lat="44.72128" lon="2.35544">
        <ele>592.6</ele>
        <time>2023-08-20T10:00:43Z</time>
      </trkpt>
      <trkpt lat="44.72107" lon="2.35548">
        <ele>592</ele>
        <time>2023-08-20T10:00:45Z</time>
      </trkpt>
      <trkpt lat="44.72097" lon="2.35551">
        <ele>591.4</ele>
        <time>2023-08-20T10:00:46Z</time>
      </trkpt>
      <trkpt lat="44.72087" lon="2.35554">
        <ele>590.2</ele>
        <time>2023-08-20T10:00:47Z</time>
      </trkpt>
      <trkpt lat="44.72078" lon="2.35557">
        <ele>589.8</ele>
        <time>2023-08-20T10:00:48Z</time>
      </trkpt>
      <trkpt lat="44.72069" lon="2.35562">
        <ele>588.2</ele>
        <time>2023-08-20T10:00:49Z</time>
      </trkpt>
      <trkpt lat="44.72061" lon="2.35569">
        <ele>587</ele>
        <time>2023-08-20T10:00:50Z</time>
      </trkpt>
      <trkpt lat="44.72046" lon="2.35583">
        <ele>585.4</ele>
        <time>2023-08-20T10:00:52Z</time>
      </trkpt>
      <trkpt lat="44.72039" lon="2.3559">
        <ele>584.8</ele>
        <time>2023-08-20T10:00:53Z</time>
      </trkpt>
      <trkpt lat="44.72032" lon="2.35597">
        <ele>583.8</ele>
        <time>2023-08-20T10:00:54Z</time>
      </trkpt>
      <trkpt lat="44.72026" lon="2.35603">
        <ele>583.6</ele>
        <time>2023-08-20T10:00:55Z</time>
      </trkpt>
      <trkpt lat="44.7202" lon="2.35609">
        <ele>582.8</ele>
        <time>2023-08-20T10:00:56Z</time>
      </trkpt>
      <trkpt lat="44.72015" lon="2.35612">
        <ele>582</ele>
        <time>2023-08-20T10:00:57Z</time>
      </trkpt>
      <trkpt lat="44.7201" lon="2.35615">
        <ele>581.4</ele>
        <time>2023-08-20T10:00:58Z</time>
      </trkpt>
      <trkpt lat="44.72005" lon="2.35617">
        <ele>580.6</ele>
        <time>2023-08-20T10:00:59Z</time>
      </trkpt>
      <trkpt lat="44.71999" lon="2.35619">
        <ele>580</ele>
        <time>2023-08-20T10:01:00Z</time>
      </trkpt>
      <trkpt lat="44.71994" lon="2.35621">
        <ele>579.2</ele>
        <time>2023-08-20T10:01:01Z</time>
      </trkpt>
      <trkpt lat="44.71988" lon="2.35623">
        <ele>579</ele>
        <time>2023-08-20T10:01:02Z</time>
      </trkpt>
      <trkpt lat="44.71974" lon="2.35629">
        <ele>578.2</ele>
        <time>2023-08-20T10:01:04Z</time>
      </trkpt>
      <trkpt lat="44.71967" lon="2.35632">
        <ele>577.2</ele>
        <time>2023-08-20T10:01:05Z</time>
      </trkpt>
      <trkpt lat="44.71946" lon="2.3564">
        <ele>576.2</ele>
        <time>2023-08-20T10:01:08Z</time>
      </trkpt>
      <trkpt lat="44.71938" lon="2.35642">
        <ele>576</ele>
        <time>2023-08-20T10:01:09Z</time>
      </trkpt>
      <trkpt lat="44.71931" lon="2.35645">
        <ele>575.4</ele>
        <time>2023-08-20T10:01:10Z</time>
      </trkpt>
      <trkpt lat="44.71924" lon="2.35649">
        <ele>575.2</ele>
        <time>2023-08-20T10:01:11Z</time>
      </trkpt>
      <trkpt lat="44.71898" lon="2.35665">
        <ele>574</ele>
        <time>2023-08-20T10:01:15Z</time>
      </trkpt>
      <trkpt lat="44.71891" lon="2.3567">
        <ele>573.6</ele>
        <time>2023-08-20T10:01:16Z</time>
      </trkpt>
      <trkpt lat="44.71878" lon="2.35679">
        <ele>572.8</ele>
        <time>2023-08-20T10:01:18Z</time>
      </trkpt>
      <trkpt lat="44.71857" lon="2.35693">
        <ele>571.6</ele>
        <time>2023-08-20T10:01:21Z</time>
      </trkpt>
      <trkpt lat="44.7185" lon="2.35697">
        <ele>571</ele>
        <time>2023-08-20T10:01:22Z</time>
      </trkpt>
      <trkpt lat="44.71843" lon="2.357">
        <ele>570.6</ele>
        <time>2023-08-20T10:01:23Z</time>
      </trkpt>
      <trkpt lat="44.71837" lon="2.35704">
        <ele>570</ele>
        <time>2023-08-20T10:01:24Z</time>
      </trkpt>
      <trkpt lat="44.7183" lon="2.35708">
        <ele>569.6</ele>
        <time>2023-08-20T10:01:25Z</time>
      </trkpt>
      <trkpt lat="44.71825" lon="2.35713">
        <ele>568.8</ele>
        <time>2023-08-20T10:01:26Z</time>
      </trkpt>
      <trkpt lat="44.7182" lon="2.3572">
        <ele>568.2</ele>
        <time>2023-08-20T10:01:27Z</time>
      </trkpt>
      <trkpt lat="44.71814" lon="2.35729">
        <ele>567.4</ele>
        <time>2023-08-20T10:01:28Z</time>
      </trkpt>
      <trkpt lat="44.71809" lon="2.35737">
        <ele>566.8</ele>
        <time>2023-08-20T10:01:29Z</time>
      </trkpt>
      <trkpt lat="44.71803" lon="2.35746">
        <ele>565.6</ele>
        <time>2023-08-20T10:01:30Z</time>
      </trkpt>
      <trkpt lat="44.71797" lon="2.35754">
        <ele>564.6</ele>
        <time>2023-08-20T10:01:31Z</time>
      </trkpt>
      <trkpt lat="44.71791" lon="2.35762">
        <ele>564.2</ele>
        <time>2023-08-20T10:01:32Z</time>
      </trkpt>
      <trkpt lat="44.71785" lon="2.3577">
        <ele>563.4</ele>
        <time>2023-08-20T10:01:33Z</time>
      </trkpt>
      <trkpt lat="44.71779" lon="2.35778">
        <ele>562.8</ele>
        <time>2023-08-20T10:01:34Z</time>
      </trkpt>
      <trkpt lat="44.71775" lon="2.35784">
        <ele>562</ele>
        <time>2023-08-20T10:01:35Z</time>
      </trkpt>
      <trkpt lat="44.71771" lon="2.3579">
        <ele>561</ele>
        <time>2023-08-20T10:01:36Z</time>
      </trkpt>
      <trkpt lat="44.71767" lon="2.35795">
        <ele>560</ele>
        <time>2023-08-20T10:01:37Z</time>
      </trkpt>
      <trkpt lat="44.71765" lon="2.35799">
        <ele>559.4</ele>
        <time>2023-08-20T10:01:38Z</time>
      </trkpt>
      <trkpt lat="44.71762" lon="2.35802">
        <ele>558</ele>
        <time>2023-08-20T10:01:39Z</time>
      </trkpt>
      <trkpt lat="44.7176" lon="2.35805">
        <ele>556.2</ele>
        <time>2023-08-20T10:01:40Z</time>
      </trkpt>
      <trkpt lat="44.71758" lon="2.35808">
        <ele>555.6</ele>
        <time>2023-08-20T10:01:41Z</time>
      </trkpt>
      <trkpt lat="44.71755" lon="2.3581">
        <ele>554.6</ele>
        <time>2023-08-20T10:01:42Z</time>
      </trkpt>
      <trkpt lat="44.71753" lon="2.35811">
        <ele>554</ele>
        <time>2023-08-20T10:01:43Z</time>
      </trkpt>
      <trkpt lat="44.71751" lon="2.35811">
        <ele>553</ele>
        <time>2023-08-20T10:01:44Z</time>
      </trkpt>
      <trkpt lat="44.71749" lon="2.3581">
        <ele>552.4</ele>
        <time>2023-08-20T10:01:45Z</time>
      </trkpt>
      <trkpt lat="44.71748" lon="2.35809">
        <ele>551.6</ele>
        <time>2023-08-20T10:01:46Z</time>
      </trkpt>
      <trkpt lat="44.71746" lon="2.35807">
        <ele>550.8</ele>
        <time>2023-08-20T10:01:47Z</time>
      </trkpt>
      <trkpt lat="44.71744" lon="2.35803">
        <ele>550.4</ele>
        <time>2023-08-20T10:01:48Z</time>
      </trkpt>
      <trkpt lat="44.71743" lon="2.35798">
        <ele>549.8</ele>
        <time>2023-08-20T10:01:49Z</time>
      </trkpt>
      <trkpt lat="44.71741" lon="2.35792">
        <ele>549.4</ele>
        <time>2023-08-20T10:01:50Z</time>
      </trkpt>
      <trkpt lat="44.71739" lon="2.35785">
        <ele>549</ele>
        <time>2023-08-20T10:01:51Z</time>
      </trkpt>
      <trkpt lat="44.71736" lon="2.3578">
        <ele>548.6</ele>
        <time>2023-08-20T10:01:52Z</time>
      </trkpt>
      <trkpt lat="44.71733" lon="2.35775">
        <ele>548.4</ele>
        <time>2023-08-20T10:01:53Z</time>
      </trkpt>
      <trkpt lat="44.71729" lon="2.35771">
        <ele>548.2</ele>
        <time>2023-08-20T10:01:54Z</time>
      </trkpt>
      <trkpt lat="44.71723" lon="2.3577">
        <ele>547.8</ele>
        <time>2023-08-20T10:01:55Z</time>
      </trkpt>
      <trkpt lat="44.71719" lon="2.35771">
        <ele>547.4</ele>
        <time>2023-08-20T10:01:56Z</time>
      </trkpt>
      <trkpt lat="44.7171" lon="2.35775">
        <ele>547</ele>
        <time>2023-08-20T10:01:58Z</time>
      </trkpt>
      <trkpt lat="44.71704" lon="2.35776">
        <ele>547</ele>
        <time>2023-08-20T10:01:59Z</time>
      </trkpt>
      <trkpt lat="44.71698" lon="2.35776">
        <ele>546.8</ele>
        <time>2023-08-20T10:02:00Z</time>
      </trkpt>
      <trkpt lat="44.71691" lon="2.35775">
        <ele>546.8</ele>
        <time>2023-08-20T10:02:01Z</time>
      </trkpt>
      <trkpt lat="44.71683" lon="2.35771">
        <ele>546.6</ele>
        <time>2023-08-20T10:02:02Z</time>
      </trkpt>
      <trkpt lat="44.71683" lon="2.35771">
        <ele>546.4</ele>
        <time>2023-08-20T10:02:03Z</time>
      </trkpt>
      <trkpt lat="44.71665" lon="2.35758">
        <ele>546.4</ele>
        <time>2023-08-20T10:02:04Z</time>
      </trkpt>
      <trkpt lat="44.71655" lon="2.35751">
        <ele>546.2</ele>
        <time>2023-08-20T10:02:05Z</time>
      </trkpt>
      <trkpt lat="44.71616" lon="2.35725">
        <ele>545.4</ele>
        <time>2023-08-20T10:02:09Z</time>
      </trkpt>
      <trkpt lat="44.71598" lon="2.35715">
        <ele>544.6</ele>
        <time>2023-08-20T10:02:11Z</time>
      </trkpt>
      <trkpt lat="44.71589" lon="2.3571">
        <ele>544.4</ele>
        <time>2023-08-20T10:02:12Z</time>
      </trkpt>
      <trkpt lat="44.71581" lon="2.35705">
        <ele>544.2</ele>
        <time>2023-08-20T10:02:13Z</time>
      </trkpt>
      <trkpt lat="44.71572" lon="2.35702">
        <ele>543.2</ele>
        <time>2023-08-20T10:02:14Z</time>
      </trkpt>
      <trkpt lat="44.71563" lon="2.357">
        <ele>543</ele>
        <time>2023-08-20T10:02:15Z</time>
      </trkpt>
      <trkpt lat="44.71554" lon="2.357">
        <ele>542.2</ele>
        <time>2023-08-20T10:02:16Z</time>
      </trkpt>
      <trkpt lat="44.71545" lon="2.35702">
        <ele>541.8</ele>
        <time>2023-08-20T10:02:17Z</time>
      </trkpt>
      <trkpt lat="44.71536" lon="2.35704">
        <ele>541.2</ele>
        <time>2023-08-20T10:02:18Z</time>
      </trkpt>
      <trkpt lat="44.71509" lon="2.35713">
        <ele>539.8</ele>
        <time>2023-08-20T10:02:21Z</time>
      </trkpt>
      <trkpt lat="44.71489" lon="2.35719">
        <ele>538.4</ele>
        <time>2023-08-20T10:02:23Z</time>
      </trkpt>
      <trkpt lat="44.71472" lon="2.35724">
        <ele>537.2</ele>
        <time>2023-08-20T10:02:25Z</time>
      </trkpt>
      <trkpt lat="44.71463" lon="2.35727">
        <ele>537</ele>
        <time>2023-08-20T10:02:26Z</time>
      </trkpt>
      <trkpt lat="44.71454" lon="2.35729">
        <ele>535.8</ele>
        <time>2023-08-20T10:02:27Z</time>
      </trkpt>
      <trkpt lat="44.71425" lon="2.35738">
        <ele>534.2</ele>
        <time>2023-08-20T10:02:30Z</time>
      </trkpt>
      <trkpt lat="44.71403" lon="2.35745">
        <ele>533</ele>
        <time>2023-08-20T10:02:32Z</time>
      </trkpt>
      <trkpt lat="44.71392" lon="2.35747">
        <ele>532.6</ele>
        <time>2023-08-20T10:02:33Z</time>
      </trkpt>
      <trkpt lat="44.7136" lon="2.35751">
        <ele>531.8</ele>
        <time>2023-08-20T10:02:36Z</time>
      </trkpt>
      <trkpt lat="44.71351" lon="2.35752">
        <ele>531.6</ele>
        <time>2023-08-20T10:02:37Z</time>
      </trkpt>
      <trkpt lat="44.71343" lon="2.35756">
        <ele>531.6</ele>
        <time>2023-08-20T10:02:38Z</time>
      </trkpt>
      <trkpt lat="44.71335" lon="2.35762">
        <ele>531.6</ele>
        <time>2023-08-20T10:02:39Z</time>
      </trkpt>
      <trkpt lat="44.71331" lon="2.35769">
        <ele>531.6</ele>
        <time>2023-08-20T10:02:40Z</time>
      </trkpt>
      <trkpt lat="44.71327" lon="2.35781">
        <ele>531.8</ele>
        <time>2023-08-20T10:02:41Z</time>
      </trkpt>
      <trkpt lat="44.71323" lon="2.35793">
        <ele>531.8</ele>
        <time>2023-08-20T10:02:42Z</time>
      </trkpt>
      <trkpt lat="44.71318" lon="2.3581">
        <ele>532</ele>
        <time>2023-08-20T10:02:43Z</time>
      </trkpt>
      <trkpt lat="44.71313" lon="2.35824">
        <ele>532</ele>
        <time>2023-08-20T10:02:44Z</time>
      </trkpt>
      <trkpt lat="44.71309" lon="2.3584">
        <ele>532</ele>
        <time>2023-08-20T10:02:45Z</time>
      </trkpt>
      <trkpt lat="44.71301" lon="2.3587">
        <ele>532.6</ele>
        <time>2023-08-20T10:02:47Z</time>
      </trkpt>
      <trkpt lat="44.71296" lon="2.35881">
        <ele>533.2</ele>
        <time>2023-08-20T10:02:48Z</time>
      </trkpt>
      <trkpt lat="44.71287" lon="2.35895">
        <ele>533.8</ele>
        <time>2023-08-20T10:02:49Z</time>
      </trkpt>
      <trkpt lat="44.71277" lon="2.35905">
        <ele>534.4</ele>
        <time>2023-08-20T10:02:50Z</time>
      </trkpt>
      <trkpt lat="44.71267" lon="2.35914">
        <ele>535</ele>
        <time>2023-08-20T10:02:51Z</time>
      </trkpt>
      <trkpt lat="44.71256" lon="2.35921">
        <ele>535.6</ele>
        <time>2023-08-20T10:02:52Z</time>
      </trkpt>
      <trkpt lat="44.71245" lon="2.35928">
        <ele>535.8</ele>
        <time>2023-08-20T10:02:53Z</time>
      </trkpt>
      <trkpt lat="44.71235" lon="2.35936">
        <ele>537</ele>
        <time>2023-08-20T10:02:54Z</time>
      </trkpt>
      <trkpt lat="44.71227" lon="2.35946">
        <ele>538</ele>
        <time>2023-08-20T10:02:55Z</time>
      </trkpt>
      <trkpt lat="44.7122" lon="2.35958">
        <ele>538.4</ele>
        <time>2023-08-20T10:02:56Z</time>
      </trkpt>
      <trkpt lat="44.71215" lon="2.35972">
        <ele>539.6</ele>
        <time>2023-08-20T10:02:57Z</time>
      </trkpt>
      <trkpt lat="44.71211" lon="2.35987">
        <ele>540</ele>
        <time>2023-08-20T10:02:58Z</time>
      </trkpt>
      <trkpt lat="44.71209" lon="2.36002">
        <ele>540.4</ele>
        <time>2023-08-20T10:02:59Z</time>
      </trkpt>
      <trkpt lat="44.71208" lon="2.36018">
        <ele>540.6</ele>
        <time>2023-08-20T10:03:00Z</time>
      </trkpt>
      <trkpt lat="44.71208" lon="2.36034">
        <ele>540.8</ele>
        <time>2023-08-20T10:03:01Z</time>
      </trkpt>
      <trkpt lat="44.71208" lon="2.36049">
        <ele>540.8</ele>
        <time>2023-08-20T10:03:02Z</time>
      </trkpt>
      <trkpt lat="44.71208" lon="2.3606">
        <ele>541</ele>
        <time>2023-08-20T10:03:03Z</time>
      </trkpt>
      <trkpt lat="44.71206" lon="2.36077">
        <ele>541.2</ele>
        <time>2023-08-20T10:03:04Z</time>
      </trkpt>
      <trkpt lat="44.71202" lon="2.3609">
        <ele>541.2</ele>
        <time>2023-08-20T10:03:05Z</time>
      </trkpt>
      <trkpt lat="44.71197" lon="2.36103">
        <ele>541.6</ele>
        <time>2023-08-20T10:03:06Z</time>
      </trkpt>
      <trkpt lat="44.71192" lon="2.36115">
        <ele>541.6</ele>
        <time>2023-08-20T10:03:07Z</time>
      </trkpt>
      <trkpt lat="44.71185" lon="2.36128">
        <ele>541.8</ele>
        <time>2023-08-20T10:03:08Z</time>
      </trkpt>
      <trkpt lat="44.71179" lon="2.36141">
        <ele>542</ele>
        <time>2023-08-20T10:03:09Z</time>
      </trkpt>
      <trkpt lat="44.71173" lon="2.36154">
        <ele>542.2</ele>
        <time>2023-08-20T10:03:10Z</time>
      </trkpt>
      <trkpt lat="44.71167" lon="2.36167">
        <ele>542.6</ele>
        <time>2023-08-20T10:03:11Z</time>
      </trkpt>
      <trkpt lat="44.71161" lon="2.36178">
        <ele>542.8</ele>
        <time>2023-08-20T10:03:12Z</time>
      </trkpt>
      <trkpt lat="44.71155" lon="2.36188">
        <ele>543.4</ele>
        <time>2023-08-20T10:03:13Z</time>
      </trkpt>
      <trkpt lat="44.71148" lon="2.36195">
        <ele>543.6</ele>
        <time>2023-08-20T10:03:14Z</time>
      </trkpt>
      <trkpt lat="44.7114" lon="2.36202">
        <ele>544.2</ele>
        <time>2023-08-20T10:03:15Z</time>
      </trkpt>
      <trkpt lat="44.7113" lon="2.36207">
        <ele>544.4</ele>
        <time>2023-08-20T10:03:16Z</time>
      </trkpt>
      <trkpt lat="44.7112" lon="2.36211">
        <ele>544.6</ele>
        <time>2023-08-20T10:03:17Z</time>
      </trkpt>
      <trkpt lat="44.71111" lon="2.36213">
        <ele>544.8</ele>
        <time>2023-08-20T10:03:18Z</time>
      </trkpt>
      <trkpt lat="44.71098" lon="2.36216">
        <ele>545</ele>
        <time>2023-08-20T10:03:19Z</time>
      </trkpt>
      <trkpt lat="44.71086" lon="2.36219">
        <ele>545.4</ele>
        <time>2023-08-20T10:03:20Z</time>
      </trkpt>
      <trkpt lat="44.71073" lon="2.36222">
        <ele>545.4</ele>
        <time>2023-08-20T10:03:21Z</time>
      </trkpt>
      <trkpt lat="44.71061" lon="2.36224">
        <ele>546</ele>
        <time>2023-08-20T10:03:22Z</time>
      </trkpt>
      <trkpt lat="44.71049" lon="2.36227">
        <ele>546.4</ele>
        <time>2023-08-20T10:03:23Z</time>
      </trkpt>
      <trkpt lat="44.71036" lon="2.3623">
        <ele>546.8</ele>
        <time>2023-08-20T10:03:24Z</time>
      </trkpt>
      <trkpt lat="44.71026" lon="2.36231">
        <ele>547.2</ele>
        <time>2023-08-20T10:03:25Z</time>
      </trkpt>
      <trkpt lat="44.71011" lon="2.3623">
        <ele>547.6</ele>
        <time>2023-08-20T10:03:26Z</time>
      </trkpt>
      <trkpt lat="44.70999" lon="2.36224">
        <ele>547.6</ele>
        <time>2023-08-20T10:03:27Z</time>
      </trkpt>
      <trkpt lat="44.70987" lon="2.36218">
        <ele>547.8</ele>
        <time>2023-08-20T10:03:28Z</time>
      </trkpt>
      <trkpt lat="44.70974" lon="2.36212">
        <ele>548</ele>
        <time>2023-08-20T10:03:29Z</time>
      </trkpt>
      <trkpt lat="44.70962" lon="2.36206">
        <ele>548</ele>
        <time>2023-08-20T10:03:30Z</time>
      </trkpt>
      <trkpt lat="44.7095" lon="2.362">
        <ele>547.8</ele>
        <time>2023-08-20T10:03:31Z</time>
      </trkpt>
      <trkpt lat="44.70937" lon="2.36193">
        <ele>547.8</ele>
        <time>2023-08-20T10:03:32Z</time>
      </trkpt>
      <trkpt lat="44.70925" lon="2.36187">
        <ele>547.6</ele>
        <time>2023-08-20T10:03:33Z</time>
      </trkpt>
      <trkpt lat="44.70914" lon="2.36179">
        <ele>547.4</ele>
        <time>2023-08-20T10:03:34Z</time>
      </trkpt>
      <trkpt lat="44.70902" lon="2.36171">
        <ele>546.8</ele>
        <time>2023-08-20T10:03:35Z</time>
      </trkpt>
      <trkpt lat="44.70891" lon="2.36162">
        <ele>546.4</ele>
        <time>2023-08-20T10:03:36Z</time>
      </trkpt>
      <trkpt lat="44.70879" lon="2.36152">
        <ele>546</ele>
        <time>2023-08-20T10:03:37Z</time>
      </trkpt>
      <trkpt lat="44.70867" lon="2.36143">
        <ele>545.8</ele>
        <time>2023-08-20T10:03:38Z</time>
      </trkpt>
      <trkpt lat="44.70855" lon="2.36134">
        <ele>545.4</ele>
        <time>2023-08-20T10:03:39Z</time>
      </trkpt>
      <trkpt lat="44.70842" lon="2.36125">
        <ele>544.8</ele>
        <time>2023-08-20T10:03:40Z</time>
      </trkpt>
      <trkpt lat="44.70829" lon="2.36115">
        <ele>544.2</ele>
        <time>2023-08-20T10:03:41Z</time>
      </trkpt>
      <trkpt lat="44.70815" lon="2.36105">
        <ele>543.4</ele>
        <time>2023-08-20T10:03:42Z</time>
      </trkpt>
      <trkpt lat="44.708" lon="2.36095">
        <ele>543</ele>
        <time>2023-08-20T10:03:43Z</time>
      </trkpt>
      <trkpt lat="44.70785" lon="2.36083">
        <ele>542.2</ele>
        <time>2023-08-20T10:03:44Z</time>
      </trkpt>
      <trkpt lat="44.7077" lon="2.36071">
        <ele>541</ele>
        <time>2023-08-20T10:03:45Z</time>
      </trkpt>
      <trkpt lat="44.70742" lon="2.36045">
        <ele>540</ele>
        <time>2023-08-20T10:03:47Z</time>
      </trkpt>
      <trkpt lat="44.7073" lon="2.36032">
        <ele>539.6</ele>
        <time>2023-08-20T10:03:48Z</time>
      </trkpt>
      <trkpt lat="44.70717" lon="2.3602">
        <ele>538.6</ele>
        <time>2023-08-20T10:03:49Z</time>
      </trkpt>
      <trkpt lat="44.70705" lon="2.36008">
        <ele>538.2</ele>
        <time>2023-08-20T10:03:50Z</time>
      </trkpt>
      <trkpt lat="44.70693" lon="2.35997">
        <ele>537.6</ele>
        <time>2023-08-20T10:03:51Z</time>
      </trkpt>
      <trkpt lat="44.70681" lon="2.35987">
        <ele>537.2</ele>
        <time>2023-08-20T10:03:52Z</time>
      </trkpt>
      <trkpt lat="44.70669" lon="2.35978">
        <ele>536.4</ele>
        <time>2023-08-20T10:03:53Z</time>
      </trkpt>
      <trkpt lat="44.70657" lon="2.35972">
        <ele>535.6</ele>
        <time>2023-08-20T10:03:54Z</time>
      </trkpt>
      <trkpt lat="44.70645" lon="2.35967">
        <ele>535</ele>
        <time>2023-08-20T10:03:55Z</time>
      </trkpt>
      <trkpt lat="44.70632" lon="2.35964">
        <ele>534</ele>
        <time>2023-08-20T10:03:56Z</time>
      </trkpt>
      <trkpt lat="44.70618" lon="2.35961">
        <ele>533.6</ele>
        <time>2023-08-20T10:03:57Z</time>
      </trkpt>
      <trkpt lat="44.70604" lon="2.35958">
        <ele>532.8</ele>
        <time>2023-08-20T10:03:58Z</time>
      </trkpt>
      <trkpt lat="44.70577" lon="2.35952">
        <ele>531.6</ele>
        <time>2023-08-20T10:04:00Z</time>
      </trkpt>
      <trkpt lat="44.70566" lon="2.3595">
        <ele>531</ele>
        <time>2023-08-20T10:04:01Z</time>
      </trkpt>
      <trkpt lat="44.70539" lon="2.35942">
        <ele>530.4</ele>
        <time>2023-08-20T10:04:03Z</time>
      </trkpt>
      <trkpt lat="44.70527" lon="2.3594">
        <ele>530</ele>
        <time>2023-08-20T10:04:04Z</time>
      </trkpt>
      <trkpt lat="44.70516" lon="2.35938">
        <ele>529.2</ele>
        <time>2023-08-20T10:04:05Z</time>
      </trkpt>
      <trkpt lat="44.70504" lon="2.35937">
        <ele>528.8</ele>
        <time>2023-08-20T10:04:06Z</time>
      </trkpt>
      <trkpt lat="44.70492" lon="2.35937">
        <ele>527.8</ele>
        <time>2023-08-20T10:04:07Z</time>
      </trkpt>
      <trkpt lat="44.70457" lon="2.35939">
        <ele>526.2</ele>
        <time>2023-08-20T10:04:10Z</time>
      </trkpt>
      <trkpt lat="44.70447" lon="2.3594">
        <ele>525.6</ele>
        <time>2023-08-20T10:04:11Z</time>
      </trkpt>
      <trkpt lat="44.70436" lon="2.35942">
        <ele>525.2</ele>
        <time>2023-08-20T10:04:12Z</time>
      </trkpt>
      <trkpt lat="44.70427" lon="2.35945">
        <ele>524.8</ele>
        <time>2023-08-20T10:04:13Z</time>
      </trkpt>
      <trkpt lat="44.70417" lon="2.3595">
        <ele>524.4</ele>
        <time>2023-08-20T10:04:14Z</time>
      </trkpt>
      <trkpt lat="44.70408" lon="2.35955">
        <ele>524.2</ele>
        <time>2023-08-20T10:04:15Z</time>
      </trkpt>
      <trkpt lat="44.704" lon="2.3596">
        <ele>523.4</ele>
        <time>2023-08-20T10:04:16Z</time>
      </trkpt>
      <trkpt lat="44.70391" lon="2.35965">
        <ele>522.8</ele>
        <time>2023-08-20T10:04:17Z</time>
      </trkpt>
      <trkpt lat="44.70383" lon="2.3597">
        <ele>522.4</ele>
        <time>2023-08-20T10:04:18Z</time>
      </trkpt>
      <trkpt lat="44.70375" lon="2.35976">
        <ele>522</ele>
        <time>2023-08-20T10:04:19Z</time>
      </trkpt>
      <trkpt lat="44.70359" lon="2.35986">
        <ele>521.4</ele>
        <time>2023-08-20T10:04:21Z</time>
      </trkpt>
      <trkpt lat="44.70352" lon="2.3599">
        <ele>521.2</ele>
        <time>2023-08-20T10:04:22Z</time>
      </trkpt>
      <trkpt lat="44.70345" lon="2.35994">
        <ele>520.4</ele>
        <time>2023-08-20T10:04:23Z</time>
      </trkpt>
      <trkpt lat="44.70339" lon="2.35997">
        <ele>520.2</ele>
        <time>2023-08-20T10:04:24Z</time>
      </trkpt>
      <trkpt lat="44.70334" lon="2.35999">
        <ele>519.8</ele>
        <time>2023-08-20T10:04:25Z</time>
      </trkpt>
      <trkpt lat="44.7033" lon="2.36002">
        <ele>519</ele>
        <time>2023-08-20T10:04:26Z</time>
      </trkpt>
      <trkpt lat="44.70326" lon="2.36005">
        <ele>518.6</ele>
        <time>2023-08-20T10:04:27Z</time>
      </trkpt>
      <trkpt lat="44.70324" lon="2.36007">
        <ele>518.2</ele>
        <time>2023-08-20T10:04:28Z</time>
      </trkpt>
      <trkpt lat="44.70322" lon="2.3601">
        <ele>517.8</ele>
        <time>2023-08-20T10:04:29Z</time>
      </trkpt>
      <trkpt lat="44.70321" lon="2.36013">
        <ele>517.2</ele>
        <time>2023-08-20T10:04:30Z</time>
      </trkpt>
      <trkpt lat="44.7032" lon="2.36017">
        <ele>516.8</ele>
        <time>2023-08-20T10:04:31Z</time>
      </trkpt>
      <trkpt lat="44.70319" lon="2.3602">
        <ele>516.4</ele>
        <time>2023-08-20T10:04:32Z</time>
      </trkpt>
      <trkpt lat="44.70318" lon="2.36023">
        <ele>516</ele>
        <time>2023-08-20T10:04:33Z</time>
      </trkpt>
      <trkpt lat="44.70317" lon="2.36026">
        <ele>515.6</ele>
        <time>2023-08-20T10:04:34Z</time>
      </trkpt>
      <trkpt lat="44.70315" lon="2.36028">
        <ele>515.2</ele>
        <time>2023-08-20T10:04:35Z</time>
      </trkpt>
      <trkpt lat="44.70313" lon="2.36028">
        <ele>515.2</ele>
        <time>2023-08-20T10:04:36Z</time>
      </trkpt>
      <trkpt lat="44.70311" lon="2.36027">
        <ele>515</ele>
        <time>2023-08-20T10:04:37Z</time>
      </trkpt>
      <trkpt lat="44.7031" lon="2.36026">
        <ele>515</ele>
        <time>2023-08-20T10:04:38Z</time>
      </trkpt>
      <trkpt lat="44.70309" lon="2.36026">
        <ele>514.6</ele>
        <time>2023-08-20T10:04:39Z</time>
      </trkpt>
      <trkpt lat="44.70309" lon="2.36026">
        <ele>514.4</ele>
        <time>2023-08-20T10:04:40Z</time>
      </trkpt>
      <trkpt lat="44.70309" lon="2.36026">
        <ele>514.2</ele>
        <time>2023-08-20T10:04:41Z</time>
      </trkpt>
      <trkpt lat="44.70305" lon="2.36023">
        <ele>513.4</ele>
        <time>2023-08-20T10:20:39Z</time>
      </trkpt>
      <trkpt lat="44.70298" lon="2.36025">
        <ele>513.2</ele>
        <time>2023-08-20T10:20:41Z</time>
      </trkpt>
      <trkpt lat="44.70289" lon="2.36028">
        <ele>513.2</ele>
        <time>2023-08-20T10:20:43Z</time>
      </trkpt>
      <trkpt lat="44.70282" lon="2.36031">
        <ele>513.2</ele>
        <time>2023-08-20T10:20:44Z</time>
      </trkpt>
      <trkpt lat="44.70277" lon="2.36032">
        <ele>513.2</ele>
        <time>2023-08-20T10:20:45Z</time>
      </trkpt>
      <trkpt lat="44.7027" lon="2.36035">
        <ele>513.2</ele>
        <time>2023-08-20T10:20:46Z</time>
      </trkpt>
      <trkpt lat="44.70247" lon="2.36038">
        <ele>513.4</ele>
        <time>2023-08-20T10:20:49Z</time>
      </trkpt>
      <trkpt lat="44.70205" lon="2.36038">
        <ele>513.4</ele>
        <time>2023-08-20T10:20:53Z</time>
      </trkpt>
      <trkpt lat="44.70148" lon="2.36036">
        <ele>513</ele>
        <time>2023-08-20T10:20:58Z</time>
      </trkpt>
      <trkpt lat="44.70111" lon="2.36034">
        <ele>512</ele>
        <time>2023-08-20T10:21:01Z</time>
      </trkpt>
      <trkpt lat="44.70074" lon="2.36033">
        <ele>510.6</ele>
        <time>2023-08-20T10:21:04Z</time>
      </trkpt>
      <trkpt lat="44.70049" lon="2.36033">
        <ele>509.6</ele>
        <time>2023-08-20T10:21:06Z</time>
      </trkpt>
      <trkpt lat="44.70036" lon="2.36033">
        <ele>509.4</ele>
        <time>2023-08-20T10:21:07Z</time>
      </trkpt>
      <trkpt lat="44.7001" lon="2.36038">
        <ele>509.2</ele>
        <time>2023-08-20T10:21:09Z</time>
      </trkpt>
      <trkpt lat="44.69997" lon="2.36044">
        <ele>509.2</ele>
        <time>2023-08-20T10:21:10Z</time>
      </trkpt>
      <trkpt lat="44.69944" lon="2.36067">
        <ele>509.8</ele>
        <time>2023-08-20T10:21:14Z</time>
      </trkpt>
      <trkpt lat="44.69931" lon="2.36071">
        <ele>510.6</ele>
        <time>2023-08-20T10:21:15Z</time>
      </trkpt>
      <trkpt lat="44.69918" lon="2.36076">
        <ele>511.2</ele>
        <time>2023-08-20T10:21:16Z</time>
      </trkpt>
      <trkpt lat="44.69902" lon="2.36085">
        <ele>511.6</ele>
        <time>2023-08-20T10:21:17Z</time>
      </trkpt>
      <trkpt lat="44.69891" lon="2.36093">
        <ele>511.8</ele>
        <time>2023-08-20T10:21:18Z</time>
      </trkpt>
      <trkpt lat="44.69839" lon="2.36141">
        <ele>512.4</ele>
        <time>2023-08-20T10:21:22Z</time>
      </trkpt>
      <trkpt lat="44.69815" lon="2.36165">
        <ele>511.8</ele>
        <time>2023-08-20T10:21:24Z</time>
      </trkpt>
      <trkpt lat="44.69803" lon="2.36177">
        <ele>511.4</ele>
        <time>2023-08-20T10:21:25Z</time>
      </trkpt>
      <trkpt lat="44.69789" lon="2.36189">
        <ele>510.8</ele>
        <time>2023-08-20T10:21:26Z</time>
      </trkpt>
      <trkpt lat="44.69779" lon="2.36196">
        <ele>510.4</ele>
        <time>2023-08-20T10:21:27Z</time>
      </trkpt>
      <trkpt lat="44.69767" lon="2.36204">
        <ele>509.8</ele>
        <time>2023-08-20T10:21:28Z</time>
      </trkpt>
      <trkpt lat="44.69755" lon="2.36211">
        <ele>509</ele>
        <time>2023-08-20T10:21:29Z</time>
      </trkpt>
      <trkpt lat="44.69742" lon="2.36219">
        <ele>508</ele>
        <time>2023-08-20T10:21:30Z</time>
      </trkpt>
      <trkpt lat="44.69717" lon="2.36233">
        <ele>505.6</ele>
        <time>2023-08-20T10:21:32Z</time>
      </trkpt>
      <trkpt lat="44.69704" lon="2.3624">
        <ele>504.8</ele>
        <time>2023-08-20T10:21:33Z</time>
      </trkpt>
      <trkpt lat="44.69691" lon="2.36247">
        <ele>504</ele>
        <time>2023-08-20T10:21:34Z</time>
      </trkpt>
      <trkpt lat="44.69667" lon="2.3626">
        <ele>502.8</ele>
        <time>2023-08-20T10:21:36Z</time>
      </trkpt>
      <trkpt lat="44.69656" lon="2.36266">
        <ele>501.8</ele>
        <time>2023-08-20T10:21:37Z</time>
      </trkpt>
      <trkpt lat="44.69647" lon="2.36274">
        <ele>501.4</ele>
        <time>2023-08-20T10:21:38Z</time>
      </trkpt>
      <trkpt lat="44.69638" lon="2.36283">
        <ele>500.4</ele>
        <time>2023-08-20T10:21:39Z</time>
      </trkpt>
      <trkpt lat="44.69629" lon="2.36293">
        <ele>500</ele>
        <time>2023-08-20T10:21:40Z</time>
      </trkpt>
      <trkpt lat="44.69621" lon="2.36304">
        <ele>499.6</ele>
        <time>2023-08-20T10:21:41Z</time>
      </trkpt>
      <trkpt lat="44.69612" lon="2.36315">
        <ele>498.8</ele>
        <time>2023-08-20T10:21:42Z</time>
      </trkpt>
      <trkpt lat="44.69567" lon="2.36376">
        <ele>498.4</ele>
        <time>2023-08-20T10:21:47Z</time>
      </trkpt>
      <trkpt lat="44.69557" lon="2.36389">
        <ele>498.2</ele>
        <time>2023-08-20T10:21:48Z</time>
      </trkpt>
      <trkpt lat="44.69518" lon="2.36442">
        <ele>498</ele>
        <time>2023-08-20T10:21:52Z</time>
      </trkpt>
      <trkpt lat="44.69499" lon="2.36467">
        <ele>498</ele>
        <time>2023-08-20T10:21:54Z</time>
      </trkpt>
      <trkpt lat="44.69489" lon="2.3648">
        <ele>497.8</ele>
        <time>2023-08-20T10:21:55Z</time>
      </trkpt>
      <trkpt lat="44.6948" lon="2.36492">
        <ele>497.8</ele>
        <time>2023-08-20T10:21:56Z</time>
      </trkpt>
      <trkpt lat="44.69471" lon="2.36504">
        <ele>497.8</ele>
        <time>2023-08-20T10:21:57Z</time>
      </trkpt>
      <trkpt lat="44.69461" lon="2.36518">
        <ele>497.6</ele>
        <time>2023-08-20T10:21:58Z</time>
      </trkpt>
      <trkpt lat="44.69454" lon="2.36527">
        <ele>497.6</ele>
        <time>2023-08-20T10:21:59Z</time>
      </trkpt>
      <trkpt lat="44.69446" lon="2.36537">
        <ele>497.6</ele>
        <time>2023-08-20T10:22:00Z</time>
      </trkpt>
      <trkpt lat="44.69438" lon="2.36548">
        <ele>497.4</ele>
        <time>2023-08-20T10:22:01Z</time>
      </trkpt>
      <trkpt lat="44.6943" lon="2.36559">
        <ele>497.4</ele>
        <time>2023-08-20T10:22:02Z</time>
      </trkpt>
      <trkpt lat="44.69424" lon="2.36572">
        <ele>497.4</ele>
        <time>2023-08-20T10:22:03Z</time>
      </trkpt>
      <trkpt lat="44.69418" lon="2.36585">
        <ele>497.2</ele>
        <time>2023-08-20T10:22:04Z</time>
      </trkpt>
      <trkpt lat="44.69408" lon="2.36613">
        <ele>497</ele>
        <time>2023-08-20T10:22:06Z</time>
      </trkpt>
      <trkpt lat="44.69394" lon="2.36656">
        <ele>495.8</ele>
        <time>2023-08-20T10:22:09Z</time>
      </trkpt>
      <trkpt lat="44.69392" lon="2.36688">
        <ele>495.2</ele>
        <time>2023-08-20T10:22:11Z</time>
      </trkpt>
      <trkpt lat="44.69394" lon="2.36706">
        <ele>495</ele>
        <time>2023-08-20T10:22:12Z</time>
      </trkpt>
      <trkpt lat="44.69398" lon="2.36719">
        <ele>494.8</ele>
        <time>2023-08-20T10:22:13Z</time>
      </trkpt>
      <trkpt lat="44.69404" lon="2.36733">
        <ele>494.4</ele>
        <time>2023-08-20T10:22:14Z</time>
      </trkpt>
      <trkpt lat="44.69411" lon="2.36746">
        <ele>494.2</ele>
        <time>2023-08-20T10:22:15Z</time>
      </trkpt>
      <trkpt lat="44.69419" lon="2.36759">
        <ele>493.4</ele>
        <time>2023-08-20T10:22:16Z</time>
      </trkpt>
      <trkpt lat="44.69428" lon="2.36769">
        <ele>493.2</ele>
        <time>2023-08-20T10:22:17Z</time>
      </trkpt>
      <trkpt lat="44.69438" lon="2.36778">
        <ele>492.4</ele>
        <time>2023-08-20T10:22:18Z</time>
      </trkpt>
      <trkpt lat="44.69449" lon="2.36785">
        <ele>492</ele>
        <time>2023-08-20T10:22:19Z</time>
      </trkpt>
      <trkpt lat="44.69459" lon="2.36793">
        <ele>491.4</ele>
        <time>2023-08-20T10:22:20Z</time>
      </trkpt>
      <trkpt lat="44.69471" lon="2.368">
        <ele>491</ele>
        <time>2023-08-20T10:22:21Z</time>
      </trkpt>
      <trkpt lat="44.69489" lon="2.36813">
        <ele>489.8</ele>
        <time>2023-08-20T10:22:23Z</time>
      </trkpt>
      <trkpt lat="44.69498" lon="2.36823">
        <ele>489.4</ele>
        <time>2023-08-20T10:22:24Z</time>
      </trkpt>
      <trkpt lat="44.69502" lon="2.36834">
        <ele>488.6</ele>
        <time>2023-08-20T10:22:25Z</time>
      </trkpt>
      <trkpt lat="44.69504" lon="2.36846">
        <ele>488</ele>
        <time>2023-08-20T10:22:26Z</time>
      </trkpt>
      <trkpt lat="44.69503" lon="2.36858">
        <ele>487.2</ele>
        <time>2023-08-20T10:22:27Z</time>
      </trkpt>
      <trkpt lat="44.69501" lon="2.3687">
        <ele>486.8</ele>
        <time>2023-08-20T10:22:28Z</time>
      </trkpt>
      <trkpt lat="44.69499" lon="2.36884">
        <ele>485.8</ele>
        <time>2023-08-20T10:22:29Z</time>
      </trkpt>
      <trkpt lat="44.69495" lon="2.36897">
        <ele>485.4</ele>
        <time>2023-08-20T10:22:30Z</time>
      </trkpt>
      <trkpt lat="44.69492" lon="2.36911">
        <ele>484.4</ele>
        <time>2023-08-20T10:22:31Z</time>
      </trkpt>
      <trkpt lat="44.6949" lon="2.36924">
        <ele>484.2</ele>
        <time>2023-08-20T10:22:32Z</time>
      </trkpt>
      <trkpt lat="44.69488" lon="2.36938">
        <ele>484.2</ele>
        <time>2023-08-20T10:22:33Z</time>
      </trkpt>
      <trkpt lat="44.6949" lon="2.36967">
        <ele>484</ele>
        <time>2023-08-20T10:22:35Z</time>
      </trkpt>
      <trkpt lat="44.69492" lon="2.36981">
        <ele>484</ele>
        <time>2023-08-20T10:22:36Z</time>
      </trkpt>
      <trkpt lat="44.69495" lon="2.37023">
        <ele>485</ele>
        <time>2023-08-20T10:22:39Z</time>
      </trkpt>
      <trkpt lat="44.69491" lon="2.37067">
        <ele>486.2</ele>
        <time>2023-08-20T10:22:42Z</time>
      </trkpt>
      <trkpt lat="44.69492" lon="2.37082">
        <ele>487</ele>
        <time>2023-08-20T10:22:43Z</time>
      </trkpt>
      <trkpt lat="44.69493" lon="2.37098">
        <ele>487.8</ele>
        <time>2023-08-20T10:22:44Z</time>
      </trkpt>
      <trkpt lat="44.69496" lon="2.37126">
        <ele>489.4</ele>
        <time>2023-08-20T10:22:46Z</time>
      </trkpt>
      <trkpt lat="44.69497" lon="2.37138">
        <ele>490.4</ele>
        <time>2023-08-20T10:22:47Z</time>
      </trkpt>
      <trkpt lat="44.69492" lon="2.37147">
        <ele>491.6</ele>
        <time>2023-08-20T10:22:48Z</time>
      </trkpt>
      <trkpt lat="44.69489" lon="2.37151">
        <ele>492.2</ele>
        <time>2023-08-20T10:22:49Z</time>
      </trkpt>
      <trkpt lat="44.69486" lon="2.37151">
        <ele>493.6</ele>
        <time>2023-08-20T10:22:50Z</time>
      </trkpt>
      <trkpt lat="44.69483" lon="2.3715">
        <ele>494</ele>
        <time>2023-08-20T10:22:51Z</time>
      </trkpt>
      <trkpt lat="44.6948" lon="2.37145">
        <ele>494.8</ele>
        <time>2023-08-20T10:22:52Z</time>
      </trkpt>
      <trkpt lat="44.69476" lon="2.37137">
        <ele>495</ele>
        <time>2023-08-20T10:22:53Z</time>
      </trkpt>
      <trkpt lat="44.69474" lon="2.37128">
        <ele>496</ele>
        <time>2023-08-20T10:22:54Z</time>
      </trkpt>
      <trkpt lat="44.69471" lon="2.37116">
        <ele>496.6</ele>
        <time>2023-08-20T10:22:55Z</time>
      </trkpt>
      <trkpt lat="44.69468" lon="2.37105">
        <ele>497.2</ele>
        <time>2023-08-20T10:22:56Z</time>
      </trkpt>
      <trkpt lat="44.69463" lon="2.37094">
        <ele>498.4</ele>
        <time>2023-08-20T10:22:57Z</time>
      </trkpt>
      <trkpt lat="44.69458" lon="2.37085">
        <ele>498.8</ele>
        <time>2023-08-20T10:22:58Z</time>
      </trkpt>
      <trkpt lat="44.69454" lon="2.37079">
        <ele>499.4</ele>
        <time>2023-08-20T10:22:59Z</time>
      </trkpt>
      <trkpt lat="44.69448" lon="2.37072">
        <ele>500</ele>
        <time>2023-08-20T10:23:00Z</time>
      </trkpt>
      <trkpt lat="44.69441" lon="2.37067">
        <ele>500.8</ele>
        <time>2023-08-20T10:23:01Z</time>
      </trkpt>
      <trkpt lat="44.69433" lon="2.37062">
        <ele>501</ele>
        <time>2023-08-20T10:23:02Z</time>
      </trkpt>
      <trkpt lat="44.69426" lon="2.37059">
        <ele>501.6</ele>
        <time>2023-08-20T10:23:03Z</time>
      </trkpt>
      <trkpt lat="44.69416" lon="2.37057">
        <ele>501.8</ele>
        <time>2023-08-20T10:23:04Z</time>
      </trkpt>
      <trkpt lat="44.69407" lon="2.37057">
        <ele>502.6</ele>
        <time>2023-08-20T10:23:05Z</time>
      </trkpt>
      <trkpt lat="44.69397" lon="2.37059">
        <ele>503.4</ele>
        <time>2023-08-20T10:23:06Z</time>
      </trkpt>
      <trkpt lat="44.69389" lon="2.37063">
        <ele>503.8</ele>
        <time>2023-08-20T10:23:07Z</time>
      </trkpt>
      <trkpt lat="44.69381" lon="2.37069">
        <ele>504.6</ele>
        <time>2023-08-20T10:23:08Z</time>
      </trkpt>
      <trkpt lat="44.69373" lon="2.37076">
        <ele>504.8</ele>
        <time>2023-08-20T10:23:09Z</time>
      </trkpt>
      <trkpt lat="44.69365" lon="2.37083">
        <ele>505.6</ele>
        <time>2023-08-20T10:23:10Z</time>
      </trkpt>
      <trkpt lat="44.69358" lon="2.37091">
        <ele>505.8</ele>
        <time>2023-08-20T10:23:11Z</time>
      </trkpt>
      <trkpt lat="44.69351" lon="2.37099">
        <ele>506.6</ele>
        <time>2023-08-20T10:23:12Z</time>
      </trkpt>
      <trkpt lat="44.69344" lon="2.37107">
        <ele>507.2</ele>
        <time>2023-08-20T10:23:13Z</time>
      </trkpt>
      <trkpt lat="44.69338" lon="2.37116">
        <ele>507.8</ele>
        <time>2023-08-20T10:23:14Z</time>
      </trkpt>
      <trkpt lat="44.69333" lon="2.37126">
        <ele>508.6</ele>
        <time>2023-08-20T10:23:15Z</time>
      </trkpt>
      <trkpt lat="44.6933" lon="2.37138">
        <ele>509</ele>
        <time>2023-08-20T10:23:16Z</time>
      </trkpt>
      <trkpt lat="44.69328" lon="2.37152">
        <ele>509.8</ele>
        <time>2023-08-20T10:23:17Z</time>
      </trkpt>
      <trkpt lat="44.69326" lon="2.37168">
        <ele>510.2</ele>
        <time>2023-08-20T10:23:18Z</time>
      </trkpt>
      <trkpt lat="44.69323" lon="2.37183">
        <ele>511</ele>
        <time>2023-08-20T10:23:19Z</time>
      </trkpt>
      <trkpt lat="44.6932" lon="2.37198">
        <ele>511.4</ele>
        <time>2023-08-20T10:23:20Z</time>
      </trkpt>
      <trkpt lat="44.69316" lon="2.37212">
        <ele>512.2</ele>
        <time>2023-08-20T10:23:21Z</time>
      </trkpt>
      <trkpt lat="44.69312" lon="2.37227">
        <ele>513.2</ele>
        <time>2023-08-20T10:23:22Z</time>
      </trkpt>
      <trkpt lat="44.69307" lon="2.37241">
        <ele>513.4</ele>
        <time>2023-08-20T10:23:23Z</time>
      </trkpt>
      <trkpt lat="44.69303" lon="2.37257">
        <ele>514.2</ele>
        <time>2023-08-20T10:23:24Z</time>
      </trkpt>
      <trkpt lat="44.69298" lon="2.37273">
        <ele>514.6</ele>
        <time>2023-08-20T10:23:25Z</time>
      </trkpt>
      <trkpt lat="44.69294" lon="2.3729">
        <ele>515.4</ele>
        <time>2023-08-20T10:23:26Z</time>
      </trkpt>
      <trkpt lat="44.69292" lon="2.37306">
        <ele>515.6</ele>
        <time>2023-08-20T10:23:27Z</time>
      </trkpt>
      <trkpt lat="44.69289" lon="2.37322">
        <ele>516</ele>
        <time>2023-08-20T10:23:28Z</time>
      </trkpt>
      <trkpt lat="44.69287" lon="2.37338">
        <ele>516.2</ele>
        <time>2023-08-20T10:23:29Z</time>
      </trkpt>
      <trkpt lat="44.69286" lon="2.37353">
        <ele>516.4</ele>
        <time>2023-08-20T10:23:30Z</time>
      </trkpt>
      <trkpt lat="44.69284" lon="2.37368">
        <ele>516.4</ele>
        <time>2023-08-20T10:23:31Z</time>
      </trkpt>
      <trkpt lat="44.69281" lon="2.37383">
        <ele>516.4</ele>
        <time>2023-08-20T10:23:32Z</time>
      </trkpt>
      <trkpt lat="44.69277" lon="2.37399">
        <ele>516.4</ele>
        <time>2023-08-20T10:23:33Z</time>
      </trkpt>
      <trkpt lat="44.69271" lon="2.37415">
        <ele>516.4</ele>
        <time>2023-08-20T10:23:34Z</time>
      </trkpt>
      <trkpt lat="44.69265" lon="2.37431">
        <ele>516.4</ele>
        <time>2023-08-20T10:23:35Z</time>
      </trkpt>
      <trkpt lat="44.69259" lon="2.37448">
        <ele>516.4</ele>
        <time>2023-08-20T10:23:36Z</time>
      </trkpt>
      <trkpt lat="44.69254" lon="2.37465">
        <ele>516.6</ele>
        <time>2023-08-20T10:23:37Z</time>
      </trkpt>
      <trkpt lat="44.69248" lon="2.37483">
        <ele>516.6</ele>
        <time>2023-08-20T10:23:38Z</time>
      </trkpt>
      <trkpt lat="44.69241" lon="2.37503">
        <ele>516.8</ele>
        <time>2023-08-20T10:23:39Z</time>
      </trkpt>
      <trkpt lat="44.69238" lon="2.37518">
        <ele>516.8</ele>
        <time>2023-08-20T10:23:40Z</time>
      </trkpt>
      <trkpt lat="44.69234" lon="2.37536">
        <ele>517</ele>
        <time>2023-08-20T10:23:41Z</time>
      </trkpt>
      <trkpt lat="44.69231" lon="2.37554">
        <ele>517.2</ele>
        <time>2023-08-20T10:23:42Z</time>
      </trkpt>
      <trkpt lat="44.69229" lon="2.37572">
        <ele>517.2</ele>
        <time>2023-08-20T10:23:43Z</time>
      </trkpt>
      <trkpt lat="44.69226" lon="2.37594">
        <ele>517.6</ele>
        <time>2023-08-20T10:23:44Z</time>
      </trkpt>
      <trkpt lat="44.69223" lon="2.37609">
        <ele>517.8</ele>
        <time>2023-08-20T10:23:45Z</time>
      </trkpt>
      <trkpt lat="44.6922" lon="2.37631">
        <ele>518.2</ele>
        <time>2023-08-20T10:23:46Z</time>
      </trkpt>
      <trkpt lat="44.69217" lon="2.37645">
        <ele>518.4</ele>
        <time>2023-08-20T10:23:47Z</time>
      </trkpt>
      <trkpt lat="44.69214" lon="2.37664">
        <ele>519</ele>
        <time>2023-08-20T10:23:48Z</time>
      </trkpt>
      <trkpt lat="44.69212" lon="2.37683">
        <ele>519.4</ele>
        <time>2023-08-20T10:23:49Z</time>
      </trkpt>
      <trkpt lat="44.6921" lon="2.37703">
        <ele>519.4</ele>
        <time>2023-08-20T10:23:50Z</time>
      </trkpt>
      <trkpt lat="44.69208" lon="2.37723">
        <ele>520</ele>
        <time>2023-08-20T10:23:51Z</time>
      </trkpt>
      <trkpt lat="44.69206" lon="2.37743">
        <ele>520.2</ele>
        <time>2023-08-20T10:23:52Z</time>
      </trkpt>
      <trkpt lat="44.69204" lon="2.37764">
        <ele>520.6</ele>
        <time>2023-08-20T10:23:53Z</time>
      </trkpt>
      <trkpt lat="44.69203" lon="2.37784">
        <ele>520.8</ele>
        <time>2023-08-20T10:23:54Z</time>
      </trkpt>
      <trkpt lat="44.69202" lon="2.37805">
        <ele>522.2</ele>
        <time>2023-08-20T10:23:55Z</time>
      </trkpt>
      <trkpt lat="44.69202" lon="2.37825">
        <ele>523</ele>
        <time>2023-08-20T10:23:56Z</time>
      </trkpt>
      <trkpt lat="44.69202" lon="2.37844">
        <ele>523.8</ele>
        <time>2023-08-20T10:23:57Z</time>
      </trkpt>
      <trkpt lat="44.69201" lon="2.37863">
        <ele>525.4</ele>
        <time>2023-08-20T10:23:58Z</time>
      </trkpt>
      <trkpt lat="44.69199" lon="2.3788">
        <ele>526.2</ele>
        <time>2023-08-20T10:23:59Z</time>
      </trkpt>
      <trkpt lat="44.69196" lon="2.37893">
        <ele>527.4</ele>
        <time>2023-08-20T10:24:00Z</time>
      </trkpt>
      <trkpt lat="44.69194" lon="2.37904">
        <ele>528.4</ele>
        <time>2023-08-20T10:24:01Z</time>
      </trkpt>
      <trkpt lat="44.69192" lon="2.37912">
        <ele>529.4</ele>
        <time>2023-08-20T10:24:02Z</time>
      </trkpt>
      <trkpt lat="44.6919" lon="2.37918">
        <ele>530</ele>
        <time>2023-08-20T10:24:03Z</time>
      </trkpt>
      <trkpt lat="44.69189" lon="2.37922">
        <ele>531</ele>
        <time>2023-08-20T10:24:04Z</time>
      </trkpt>
      <trkpt lat="44.69188" lon="2.37924">
        <ele>531.6</ele>
        <time>2023-08-20T10:24:05Z</time>
      </trkpt>
      <trkpt lat="44.69188" lon="2.37926">
        <ele>532</ele>
        <time>2023-08-20T10:24:06Z</time>
      </trkpt>
      <trkpt lat="44.69187" lon="2.37928">
        <ele>532.6</ele>
        <time>2023-08-20T10:24:07Z</time>
      </trkpt>
      <trkpt lat="44.69186" lon="2.3793">
        <ele>532.8</ele>
        <time>2023-08-20T10:24:08Z</time>
      </trkpt>
      <trkpt lat="44.69185" lon="2.37932">
        <ele>533</ele>
        <time>2023-08-20T10:24:09Z</time>
      </trkpt>
      <trkpt lat="44.69185" lon="2.37933">
        <ele>533.2</ele>
        <time>2023-08-20T10:24:10Z</time>
      </trkpt>
      <trkpt lat="44.69185" lon="2.37933">
        <ele>533.4</ele>
        <time>2023-08-20T10:24:11Z</time>
      </trkpt>
      <trkpt lat="44.69184" lon="2.37933">
        <ele>533.6</ele>
        <time>2023-08-20T10:24:12Z</time>
      </trkpt>
      <trkpt lat="44.6918" lon="2.37939">
        <ele>534.2</ele>
        <time>2023-08-20T10:24:15Z</time>
      </trkpt>
      <trkpt lat="44.69175" lon="2.37941">
        <ele>534.4</ele>
        <time>2023-08-20T10:24:16Z</time>
      </trkpt>
      <trkpt lat="44.69168" lon="2.37944">
        <ele>534.4</ele>
        <time>2023-08-20T10:24:17Z</time>
      </trkpt>
      <trkpt lat="44.69159" lon="2.37947">
        <ele>534.6</ele>
        <time>2023-08-20T10:24:18Z</time>
      </trkpt>
      <trkpt lat="44.69148" lon="2.37952">
        <ele>534.8</ele>
        <time>2023-08-20T10:24:19Z</time>
      </trkpt>
      <trkpt lat="44.69135" lon="2.37955">
        <ele>535</ele>
        <time>2023-08-20T10:24:20Z</time>
      </trkpt>
      <trkpt lat="44.69121" lon="2.37954">
        <ele>535.2</ele>
        <time>2023-08-20T10:24:21Z</time>
      </trkpt>
      <trkpt lat="44.69106" lon="2.37948">
        <ele>536</ele>
        <time>2023-08-20T10:24:22Z</time>
      </trkpt>
      <trkpt lat="44.69092" lon="2.37939">
        <ele>536.4</ele>
        <time>2023-08-20T10:24:23Z</time>
      </trkpt>
      <trkpt lat="44.6908" lon="2.37926">
        <ele>536.6</ele>
        <time>2023-08-20T10:24:24Z</time>
      </trkpt>
      <trkpt lat="44.69071" lon="2.37909">
        <ele>537</ele>
        <time>2023-08-20T10:24:25Z</time>
      </trkpt>
      <trkpt lat="44.69064" lon="2.37888">
        <ele>537.2</ele>
        <time>2023-08-20T10:24:26Z</time>
      </trkpt>
      <trkpt lat="44.6906" lon="2.37867">
        <ele>537.2</ele>
        <time>2023-08-20T10:24:27Z</time>
      </trkpt>
      <trkpt lat="44.69058" lon="2.37849">
        <ele>537.2</ele>
        <time>2023-08-20T10:24:28Z</time>
      </trkpt>
      <trkpt lat="44.69056" lon="2.37833">
        <ele>537.2</ele>
        <time>2023-08-20T10:24:29Z</time>
      </trkpt>
      <trkpt lat="44.69054" lon="2.37819">
        <ele>537</ele>
        <time>2023-08-20T10:24:30Z</time>
      </trkpt>
      <trkpt lat="44.69052" lon="2.37807">
        <ele>537</ele>
        <time>2023-08-20T10:24:31Z</time>
      </trkpt>
      <trkpt lat="44.69049" lon="2.37795">
        <ele>536.2</ele>
        <time>2023-08-20T10:24:32Z</time>
      </trkpt>
      <trkpt lat="44.69046" lon="2.37784">
        <ele>535.6</ele>
        <time>2023-08-20T10:24:33Z</time>
      </trkpt>
      <trkpt lat="44.69043" lon="2.37774">
        <ele>534.2</ele>
        <time>2023-08-20T10:24:34Z</time>
      </trkpt>
      <trkpt lat="44.69039" lon="2.37764">
        <ele>533.8</ele>
        <time>2023-08-20T10:24:35Z</time>
      </trkpt>
      <trkpt lat="44.69035" lon="2.37755">
        <ele>533</ele>
        <time>2023-08-20T10:24:36Z</time>
      </trkpt>
      <trkpt lat="44.6903" lon="2.37747">
        <ele>532.4</ele>
        <time>2023-08-20T10:24:37Z</time>
      </trkpt>
      <trkpt lat="44.69025" lon="2.37738">
        <ele>531.4</ele>
        <time>2023-08-20T10:24:38Z</time>
      </trkpt>
      <trkpt lat="44.69019" lon="2.37731">
        <ele>531</ele>
        <time>2023-08-20T10:24:39Z</time>
      </trkpt>
      <trkpt lat="44.69013" lon="2.37723">
        <ele>530.4</ele>
        <time>2023-08-20T10:24:40Z</time>
      </trkpt>
      <trkpt lat="44.69" lon="2.37707">
        <ele>529.4</ele>
        <time>2023-08-20T10:24:42Z</time>
      </trkpt>
      <trkpt lat="44.68992" lon="2.37699">
        <ele>529.4</ele>
        <time>2023-08-20T10:24:43Z</time>
      </trkpt>
      <trkpt lat="44.68958" lon="2.37667">
        <ele>529.2</ele>
        <time>2023-08-20T10:24:47Z</time>
      </trkpt>
      <trkpt lat="44.6895" lon="2.37658">
        <ele>529.2</ele>
        <time>2023-08-20T10:24:48Z</time>
      </trkpt>
      <trkpt lat="44.68942" lon="2.37648">
        <ele>529.2</ele>
        <time>2023-08-20T10:24:49Z</time>
      </trkpt>
      <trkpt lat="44.68931" lon="2.37624">
        <ele>529.4</ele>
        <time>2023-08-20T10:24:51Z</time>
      </trkpt>
      <trkpt lat="44.68923" lon="2.37593">
        <ele>529.6</ele>
        <time>2023-08-20T10:24:53Z</time>
      </trkpt>
      <trkpt lat="44.68921" lon="2.37575">
        <ele>529.8</ele>
        <time>2023-08-20T10:24:54Z</time>
      </trkpt>
      <trkpt lat="44.68921" lon="2.37558">
        <ele>530</ele>
        <time>2023-08-20T10:24:55Z</time>
      </trkpt>
      <trkpt lat="44.68922" lon="2.37539">
        <ele>530.4</ele>
        <time>2023-08-20T10:24:56Z</time>
      </trkpt>
      <trkpt lat="44.68924" lon="2.37521">
        <ele>531</ele>
        <time>2023-08-20T10:24:57Z</time>
      </trkpt>
      <trkpt lat="44.68932" lon="2.37484">
        <ele>531.8</ele>
        <time>2023-08-20T10:24:59Z</time>
      </trkpt>
      <trkpt lat="44.68938" lon="2.37447">
        <ele>533</ele>
        <time>2023-08-20T10:25:01Z</time>
      </trkpt>
      <trkpt lat="44.68936" lon="2.37409">
        <ele>534.2</ele>
        <time>2023-08-20T10:25:03Z</time>
      </trkpt>
      <trkpt lat="44.68931" lon="2.37391">
        <ele>534.6</ele>
        <time>2023-08-20T10:25:04Z</time>
      </trkpt>
      <trkpt lat="44.68924" lon="2.37373">
        <ele>535.4</ele>
        <time>2023-08-20T10:25:05Z</time>
      </trkpt>
      <trkpt lat="44.68919" lon="2.37354">
        <ele>536.4</ele>
        <time>2023-08-20T10:25:06Z</time>
      </trkpt>
      <trkpt lat="44.68915" lon="2.37334">
        <ele>537</ele>
        <time>2023-08-20T10:25:07Z</time>
      </trkpt>
      <trkpt lat="44.68915" lon="2.37314">
        <ele>537.8</ele>
        <time>2023-08-20T10:25:08Z</time>
      </trkpt>
      <trkpt lat="44.68917" lon="2.37293">
        <ele>538</ele>
        <time>2023-08-20T10:25:09Z</time>
      </trkpt>
      <trkpt lat="44.68919" lon="2.37274">
        <ele>538.6</ele>
        <time>2023-08-20T10:25:10Z</time>
      </trkpt>
      <trkpt lat="44.6892" lon="2.37255">
        <ele>539.2</ele>
        <time>2023-08-20T10:25:11Z</time>
      </trkpt>
      <trkpt lat="44.6892" lon="2.37237">
        <ele>540.2</ele>
        <time>2023-08-20T10:25:12Z</time>
      </trkpt>
      <trkpt lat="44.68917" lon="2.3722">
        <ele>540.8</ele>
        <time>2023-08-20T10:25:13Z</time>
      </trkpt>
      <trkpt lat="44.68912" lon="2.37204">
        <ele>541.8</ele>
        <time>2023-08-20T10:25:14Z</time>
      </trkpt>
      <trkpt lat="44.68905" lon="2.3719">
        <ele>542.6</ele>
        <time>2023-08-20T10:25:15Z</time>
      </trkpt>
      <trkpt lat="44.68896" lon="2.37178">
        <ele>543</ele>
        <time>2023-08-20T10:25:16Z</time>
      </trkpt>
      <trkpt lat="44.68885" lon="2.37168">
        <ele>543.8</ele>
        <time>2023-08-20T10:25:17Z</time>
      </trkpt>
      <trkpt lat="44.68873" lon="2.3716">
        <ele>544</ele>
        <time>2023-08-20T10:25:18Z</time>
      </trkpt>
      <trkpt lat="44.6886" lon="2.37154">
        <ele>544.6</ele>
        <time>2023-08-20T10:25:19Z</time>
      </trkpt>
      <trkpt lat="44.68845" lon="2.37149">
        <ele>545</ele>
        <time>2023-08-20T10:25:20Z</time>
      </trkpt>
      <trkpt lat="44.6883" lon="2.37144">
        <ele>545.4</ele>
        <time>2023-08-20T10:25:21Z</time>
      </trkpt>
      <trkpt lat="44.68816" lon="2.37139">
        <ele>545.6</ele>
        <time>2023-08-20T10:25:22Z</time>
      </trkpt>
      <trkpt lat="44.68802" lon="2.37133">
        <ele>546.8</ele>
        <time>2023-08-20T10:25:23Z</time>
      </trkpt>
      <trkpt lat="44.68788" lon="2.37126">
        <ele>547.6</ele>
        <time>2023-08-20T10:25:24Z</time>
      </trkpt>
      <trkpt lat="44.68775" lon="2.37119">
        <ele>548</ele>
        <time>2023-08-20T10:25:25Z</time>
      </trkpt>
      <trkpt lat="44.68761" lon="2.37111">
        <ele>548.6</ele>
        <time>2023-08-20T10:25:26Z</time>
      </trkpt>
      <trkpt lat="44.68749" lon="2.37103">
        <ele>548.8</ele>
        <time>2023-08-20T10:25:27Z</time>
      </trkpt>
      <trkpt lat="44.68735" lon="2.37095">
        <ele>549.4</ele>
        <time>2023-08-20T10:25:28Z</time>
      </trkpt>
      <trkpt lat="44.68722" lon="2.37086">
        <ele>549.8</ele>
        <time>2023-08-20T10:25:29Z</time>
      </trkpt>
      <trkpt lat="44.68708" lon="2.37077">
        <ele>550.6</ele>
        <time>2023-08-20T10:25:30Z</time>
      </trkpt>
      <trkpt lat="44.68694" lon="2.37068">
        <ele>550.8</ele>
        <time>2023-08-20T10:25:31Z</time>
      </trkpt>
      <trkpt lat="44.68681" lon="2.37057">
        <ele>551.2</ele>
        <time>2023-08-20T10:25:32Z</time>
      </trkpt>
      <trkpt lat="44.68669" lon="2.37046">
        <ele>551.8</ele>
        <time>2023-08-20T10:25:33Z</time>
      </trkpt>
      <trkpt lat="44.68657" lon="2.37032">
        <ele>552</ele>
        <time>2023-08-20T10:25:34Z</time>
      </trkpt>
      <trkpt lat="44.68645" lon="2.37018">
        <ele>552.6</ele>
        <time>2023-08-20T10:25:35Z</time>
      </trkpt>
      <trkpt lat="44.68634" lon="2.37004">
        <ele>553</ele>
        <time>2023-08-20T10:25:36Z</time>
      </trkpt>
      <trkpt lat="44.68623" lon="2.3699">
        <ele>553.8</ele>
        <time>2023-08-20T10:25:37Z</time>
      </trkpt>
      <trkpt lat="44.68612" lon="2.36977">
        <ele>554.2</ele>
        <time>2023-08-20T10:25:38Z</time>
      </trkpt>
      <trkpt lat="44.686" lon="2.36965">
        <ele>554.6</ele>
        <time>2023-08-20T10:25:39Z</time>
      </trkpt>
      <trkpt lat="44.68589" lon="2.36954">
        <ele>554.8</ele>
        <time>2023-08-20T10:25:40Z</time>
      </trkpt>
      <trkpt lat="44.68578" lon="2.36943">
        <ele>555</ele>
        <time>2023-08-20T10:25:41Z</time>
      </trkpt>
      <trkpt lat="44.68567" lon="2.36931">
        <ele>555</ele>
        <time>2023-08-20T10:25:42Z</time>
      </trkpt>
      <trkpt lat="44.68555" lon="2.36919">
        <ele>555</ele>
        <time>2023-08-20T10:25:43Z</time>
      </trkpt>
      <trkpt lat="44.68544" lon="2.36908">
        <ele>555</ele>
        <time>2023-08-20T10:25:44Z</time>
      </trkpt>
      <trkpt lat="44.68533" lon="2.36897">
        <ele>555</ele>
        <time>2023-08-20T10:25:45Z</time>
      </trkpt>
      <trkpt lat="44.68522" lon="2.36885">
        <ele>554.8</ele>
        <time>2023-08-20T10:25:46Z</time>
      </trkpt>
      <trkpt lat="44.6851" lon="2.36874">
        <ele>554.8</ele>
        <time>2023-08-20T10:25:47Z</time>
      </trkpt>
      <trkpt lat="44.68499" lon="2.36862">
        <ele>554.4</ele>
        <time>2023-08-20T10:25:48Z</time>
      </trkpt>
      <trkpt lat="44.68488" lon="2.3685">
        <ele>554.2</ele>
        <time>2023-08-20T10:25:49Z</time>
      </trkpt>
      <trkpt lat="44.68477" lon="2.36839">
        <ele>553.2</ele>
        <time>2023-08-20T10:25:50Z</time>
      </trkpt>
      <trkpt lat="44.68466" lon="2.36828">
        <ele>552.2</ele>
        <time>2023-08-20T10:25:51Z</time>
      </trkpt>
      <trkpt lat="44.68454" lon="2.36817">
        <ele>551.8</ele>
        <time>2023-08-20T10:25:52Z</time>
      </trkpt>
      <trkpt lat="44.68443" lon="2.36806">
        <ele>551</ele>
        <time>2023-08-20T10:25:53Z</time>
      </trkpt>
      <trkpt lat="44.6843" lon="2.36797">
        <ele>550.4</ele>
        <time>2023-08-20T10:25:54Z</time>
      </trkpt>
      <trkpt lat="44.68418" lon="2.36788">
        <ele>549.6</ele>
        <time>2023-08-20T10:25:55Z</time>
      </trkpt>
      <trkpt lat="44.68405" lon="2.3678">
        <ele>549.4</ele>
        <time>2023-08-20T10:25:56Z</time>
      </trkpt>
      <trkpt lat="44.68392" lon="2.36773">
        <ele>549</ele>
        <time>2023-08-20T10:25:57Z</time>
      </trkpt>
      <trkpt lat="44.68379" lon="2.36764">
        <ele>548.6</ele>
        <time>2023-08-20T10:25:58Z</time>
      </trkpt>
      <trkpt lat="44.68367" lon="2.36752">
        <ele>548.4</ele>
        <time>2023-08-20T10:25:59Z</time>
      </trkpt>
      <trkpt lat="44.68356" lon="2.36739">
        <ele>548</ele>
        <time>2023-08-20T10:26:00Z</time>
      </trkpt>
      <trkpt lat="44.68346" lon="2.36724">
        <ele>548</ele>
        <time>2023-08-20T10:26:01Z</time>
      </trkpt>
      <trkpt lat="44.68336" lon="2.3671">
        <ele>547.8</ele>
        <time>2023-08-20T10:26:02Z</time>
      </trkpt>
      <trkpt lat="44.68294" lon="2.36656">
        <ele>548.2</ele>
        <time>2023-08-20T10:26:06Z</time>
      </trkpt>
      <trkpt lat="44.6826" lon="2.36622">
        <ele>549.8</ele>
        <time>2023-08-20T10:26:09Z</time>
      </trkpt>
      <trkpt lat="44.68249" lon="2.36611">
        <ele>550.4</ele>
        <time>2023-08-20T10:26:10Z</time>
      </trkpt>
      <trkpt lat="44.68238" lon="2.36601">
        <ele>551.2</ele>
        <time>2023-08-20T10:26:11Z</time>
      </trkpt>
      <trkpt lat="44.68227" lon="2.36591">
        <ele>551.6</ele>
        <time>2023-08-20T10:26:12Z</time>
      </trkpt>
      <trkpt lat="44.68216" lon="2.3658">
        <ele>552.6</ele>
        <time>2023-08-20T10:26:13Z</time>
      </trkpt>
      <trkpt lat="44.68194" lon="2.36562">
        <ele>553.6</ele>
        <time>2023-08-20T10:26:15Z</time>
      </trkpt>
      <trkpt lat="44.68182" lon="2.36555">
        <ele>554.6</ele>
        <time>2023-08-20T10:26:16Z</time>
      </trkpt>
      <trkpt lat="44.6817" lon="2.36549">
        <ele>555.4</ele>
        <time>2023-08-20T10:26:17Z</time>
      </trkpt>
      <trkpt lat="44.68157" lon="2.36544">
        <ele>557</ele>
        <time>2023-08-20T10:26:18Z</time>
      </trkpt>
      <trkpt lat="44.68144" lon="2.3654">
        <ele>557.8</ele>
        <time>2023-08-20T10:26:19Z</time>
      </trkpt>
      <trkpt lat="44.6813" lon="2.36537">
        <ele>559</ele>
        <time>2023-08-20T10:26:20Z</time>
      </trkpt>
      <trkpt lat="44.68117" lon="2.36534">
        <ele>559.2</ele>
        <time>2023-08-20T10:26:21Z</time>
      </trkpt>
      <trkpt lat="44.68103" lon="2.3653">
        <ele>560</ele>
        <time>2023-08-20T10:26:22Z</time>
      </trkpt>
      <trkpt lat="44.6809" lon="2.36525">
        <ele>560.4</ele>
        <time>2023-08-20T10:26:23Z</time>
      </trkpt>
      <trkpt lat="44.68078" lon="2.36517">
        <ele>560.8</ele>
        <time>2023-08-20T10:26:24Z</time>
      </trkpt>
      <trkpt lat="44.68069" lon="2.36508">
        <ele>561.2</ele>
        <time>2023-08-20T10:26:25Z</time>
      </trkpt>
      <trkpt lat="44.68062" lon="2.36498">
        <ele>561.4</ele>
        <time>2023-08-20T10:26:26Z</time>
      </trkpt>
      <trkpt lat="44.68057" lon="2.36487">
        <ele>561.4</ele>
        <time>2023-08-20T10:26:27Z</time>
      </trkpt>
      <trkpt lat="44.68053" lon="2.36477">
        <ele>561.4</ele>
        <time>2023-08-20T10:26:28Z</time>
      </trkpt>
      <trkpt lat="44.68048" lon="2.36468">
        <ele>561.4</ele>
        <time>2023-08-20T10:26:29Z</time>
      </trkpt>
      <trkpt lat="44.68042" lon="2.3646">
        <ele>561.4</ele>
        <time>2023-08-20T10:26:30Z</time>
      </trkpt>
      <trkpt lat="44.68035" lon="2.36452">
        <ele>561.4</ele>
        <time>2023-08-20T10:26:31Z</time>
      </trkpt>
      <trkpt lat="44.68026" lon="2.36445">
        <ele>561.4</ele>
        <time>2023-08-20T10:26:32Z</time>
      </trkpt>
      <trkpt lat="44.68017" lon="2.36437">
        <ele>561.4</ele>
        <time>2023-08-20T10:26:33Z</time>
      </trkpt>
      <trkpt lat="44.68007" lon="2.3643">
        <ele>561.4</ele>
        <time>2023-08-20T10:26:34Z</time>
      </trkpt>
      <trkpt lat="44.67997" lon="2.36423">
        <ele>561.4</ele>
        <time>2023-08-20T10:26:35Z</time>
      </trkpt>
      <trkpt lat="44.67985" lon="2.36417">
        <ele>561.4</ele>
        <time>2023-08-20T10:26:36Z</time>
      </trkpt>
      <trkpt lat="44.67972" lon="2.36411">
        <ele>561.4</ele>
        <time>2023-08-20T10:26:37Z</time>
      </trkpt>
      <trkpt lat="44.6796" lon="2.36405">
        <ele>561.4</ele>
        <time>2023-08-20T10:26:38Z</time>
      </trkpt>
      <trkpt lat="44.67948" lon="2.364">
        <ele>561.4</ele>
        <time>2023-08-20T10:26:39Z</time>
      </trkpt>
      <trkpt lat="44.67935" lon="2.36394">
        <ele>561.4</ele>
        <time>2023-08-20T10:26:40Z</time>
      </trkpt>
      <trkpt lat="44.67923" lon="2.36389">
        <ele>561.4</ele>
        <time>2023-08-20T10:26:41Z</time>
      </trkpt>
      <trkpt lat="44.6791" lon="2.36384">
        <ele>561.4</ele>
        <time>2023-08-20T10:26:42Z</time>
      </trkpt>
      <trkpt lat="44.67898" lon="2.36379">
        <ele>561.4</ele>
        <time>2023-08-20T10:26:43Z</time>
      </trkpt>
      <trkpt lat="44.67885" lon="2.36374">
        <ele>561.2</ele>
        <time>2023-08-20T10:26:44Z</time>
      </trkpt>
      <trkpt lat="44.67872" lon="2.36368">
        <ele>560.8</ele>
        <time>2023-08-20T10:26:45Z</time>
      </trkpt>
      <trkpt lat="44.67859" lon="2.36363">
        <ele>560.6</ele>
        <time>2023-08-20T10:26:46Z</time>
      </trkpt>
      <trkpt lat="44.67846" lon="2.36357">
        <ele>560.2</ele>
        <time>2023-08-20T10:26:47Z</time>
      </trkpt>
      <trkpt lat="44.67833" lon="2.36351">
        <ele>560</ele>
        <time>2023-08-20T10:26:48Z</time>
      </trkpt>
      <trkpt lat="44.6782" lon="2.36345">
        <ele>559.6</ele>
        <time>2023-08-20T10:26:49Z</time>
      </trkpt>
      <trkpt lat="44.67807" lon="2.36338">
        <ele>559.4</ele>
        <time>2023-08-20T10:26:50Z</time>
      </trkpt>
      <trkpt lat="44.67795" lon="2.36331">
        <ele>559</ele>
        <time>2023-08-20T10:26:51Z</time>
      </trkpt>
      <trkpt lat="44.67782" lon="2.36325">
        <ele>558.4</ele>
        <time>2023-08-20T10:26:52Z</time>
      </trkpt>
      <trkpt lat="44.67758" lon="2.36312">
        <ele>557.4</ele>
        <time>2023-08-20T10:26:54Z</time>
      </trkpt>
      <trkpt lat="44.67745" lon="2.36307">
        <ele>557.4</ele>
        <time>2023-08-20T10:26:55Z</time>
      </trkpt>
      <trkpt lat="44.67732" lon="2.36304">
        <ele>556.6</ele>
        <time>2023-08-20T10:26:56Z</time>
      </trkpt>
      <trkpt lat="44.67719" lon="2.36302">
        <ele>556.4</ele>
        <time>2023-08-20T10:26:57Z</time>
      </trkpt>
      <trkpt lat="44.6768" lon="2.36307">
        <ele>555</ele>
        <time>2023-08-20T10:27:00Z</time>
      </trkpt>
      <trkpt lat="44.67667" lon="2.36311">
        <ele>554.6</ele>
        <time>2023-08-20T10:27:01Z</time>
      </trkpt>
      <trkpt lat="44.6764" lon="2.36318">
        <ele>553.6</ele>
        <time>2023-08-20T10:27:03Z</time>
      </trkpt>
      <trkpt lat="44.67614" lon="2.36323">
        <ele>552.6</ele>
        <time>2023-08-20T10:27:05Z</time>
      </trkpt>
      <trkpt lat="44.67589" lon="2.36325">
        <ele>551.4</ele>
        <time>2023-08-20T10:27:07Z</time>
      </trkpt>
      <trkpt lat="44.67576" lon="2.36326">
        <ele>550.8</ele>
        <time>2023-08-20T10:27:08Z</time>
      </trkpt>
      <trkpt lat="44.67564" lon="2.36326">
        <ele>550.4</ele>
        <time>2023-08-20T10:27:09Z</time>
      </trkpt>
      <trkpt lat="44.67551" lon="2.36326">
        <ele>549.8</ele>
        <time>2023-08-20T10:27:10Z</time>
      </trkpt>
      <trkpt lat="44.67539" lon="2.36324">
        <ele>549.6</ele>
        <time>2023-08-20T10:27:11Z</time>
      </trkpt>
      <trkpt lat="44.67527" lon="2.36319">
        <ele>548.8</ele>
        <time>2023-08-20T10:27:12Z</time>
      </trkpt>
      <trkpt lat="44.67516" lon="2.36313">
        <ele>548.6</ele>
        <time>2023-08-20T10:27:13Z</time>
      </trkpt>
      <trkpt lat="44.67494" lon="2.36293">
        <ele>547.8</ele>
        <time>2023-08-20T10:27:15Z</time>
      </trkpt>
      <trkpt lat="44.67484" lon="2.36281">
        <ele>547.4</ele>
        <time>2023-08-20T10:27:16Z</time>
      </trkpt>
      <trkpt lat="44.67465" lon="2.36253">
        <ele>547</ele>
        <time>2023-08-20T10:27:18Z</time>
      </trkpt>
      <trkpt lat="44.67457" lon="2.36237">
        <ele>546.8</ele>
        <time>2023-08-20T10:27:19Z</time>
      </trkpt>
      <trkpt lat="44.67444" lon="2.36202">
        <ele>546.6</ele>
        <time>2023-08-20T10:27:21Z</time>
      </trkpt>
      <trkpt lat="44.67421" lon="2.36129">
        <ele>546.8</ele>
        <time>2023-08-20T10:27:25Z</time>
      </trkpt>
      <trkpt lat="44.67407" lon="2.36094">
        <ele>547.2</ele>
        <time>2023-08-20T10:27:27Z</time>
      </trkpt>
      <trkpt lat="44.67383" lon="2.36048">
        <ele>548</ele>
        <time>2023-08-20T10:27:30Z</time>
      </trkpt>
      <trkpt lat="44.67373" lon="2.36035">
        <ele>548</ele>
        <time>2023-08-20T10:27:31Z</time>
      </trkpt>
      <trkpt lat="44.67362" lon="2.36023">
        <ele>548.4</ele>
        <time>2023-08-20T10:27:32Z</time>
      </trkpt>
      <trkpt lat="44.6735" lon="2.36012">
        <ele>548.6</ele>
        <time>2023-08-20T10:27:33Z</time>
      </trkpt>
      <trkpt lat="44.67337" lon="2.36001">
        <ele>548.8</ele>
        <time>2023-08-20T10:27:34Z</time>
      </trkpt>
      <trkpt lat="44.67302" lon="2.3597">
        <ele>549.6</ele>
        <time>2023-08-20T10:27:37Z</time>
      </trkpt>
      <trkpt lat="44.67289" lon="2.35964">
        <ele>549.6</ele>
        <time>2023-08-20T10:27:38Z</time>
      </trkpt>
      <trkpt lat="44.67275" lon="2.3596">
        <ele>549.8</ele>
        <time>2023-08-20T10:27:39Z</time>
      </trkpt>
      <trkpt lat="44.67247" lon="2.35957">
        <ele>549.8</ele>
        <time>2023-08-20T10:27:41Z</time>
      </trkpt>
      <trkpt lat="44.67193" lon="2.35954">
        <ele>549.4</ele>
        <time>2023-08-20T10:27:45Z</time>
      </trkpt>
      <trkpt lat="44.6718" lon="2.35953">
        <ele>549.4</ele>
        <time>2023-08-20T10:27:46Z</time>
      </trkpt>
      <trkpt lat="44.67167" lon="2.35952">
        <ele>549.4</ele>
        <time>2023-08-20T10:27:47Z</time>
      </trkpt>
      <trkpt lat="44.67155" lon="2.35949">
        <ele>549</ele>
        <time>2023-08-20T10:27:48Z</time>
      </trkpt>
      <trkpt lat="44.67145" lon="2.35944">
        <ele>548.8</ele>
        <time>2023-08-20T10:27:49Z</time>
      </trkpt>
      <trkpt lat="44.67137" lon="2.35936">
        <ele>548.8</ele>
        <time>2023-08-20T10:27:50Z</time>
      </trkpt>
      <trkpt lat="44.67131" lon="2.35926">
        <ele>548.6</ele>
        <time>2023-08-20T10:27:51Z</time>
      </trkpt>
      <trkpt lat="44.67124" lon="2.35914">
        <ele>548.2</ele>
        <time>2023-08-20T10:27:52Z</time>
      </trkpt>
      <trkpt lat="44.67118" lon="2.35901">
        <ele>548</ele>
        <time>2023-08-20T10:27:53Z</time>
      </trkpt>
      <trkpt lat="44.67111" lon="2.35888">
        <ele>547.8</ele>
        <time>2023-08-20T10:27:54Z</time>
      </trkpt>
      <trkpt lat="44.67093" lon="2.35847">
        <ele>547.6</ele>
        <time>2023-08-20T10:27:57Z</time>
      </trkpt>
      <trkpt lat="44.67061" lon="2.35771">
        <ele>548</ele>
        <time>2023-08-20T10:28:02Z</time>
      </trkpt>
      <trkpt lat="44.67055" lon="2.35754">
        <ele>547.8</ele>
        <time>2023-08-20T10:28:03Z</time>
      </trkpt>
      <trkpt lat="44.67033" lon="2.35682">
        <ele>550</ele>
        <time>2023-08-20T10:28:07Z</time>
      </trkpt>
      <trkpt lat="44.67022" lon="2.35646">
        <ele>551.2</ele>
        <time>2023-08-20T10:28:09Z</time>
      </trkpt>
      <trkpt lat="44.67017" lon="2.35629">
        <ele>552.2</ele>
        <time>2023-08-20T10:28:10Z</time>
      </trkpt>
      <trkpt lat="44.67011" lon="2.35611">
        <ele>553</ele>
        <time>2023-08-20T10:28:11Z</time>
      </trkpt>
      <trkpt lat="44.67004" lon="2.35595">
        <ele>553.4</ele>
        <time>2023-08-20T10:28:12Z</time>
      </trkpt>
      <trkpt lat="44.66996" lon="2.35579">
        <ele>554.8</ele>
        <time>2023-08-20T10:28:13Z</time>
      </trkpt>
      <trkpt lat="44.66986" lon="2.35564">
        <ele>556</ele>
        <time>2023-08-20T10:28:14Z</time>
      </trkpt>
      <trkpt lat="44.66977" lon="2.35549">
        <ele>557.4</ele>
        <time>2023-08-20T10:28:15Z</time>
      </trkpt>
      <trkpt lat="44.66968" lon="2.35534">
        <ele>557.8</ele>
        <time>2023-08-20T10:28:16Z</time>
      </trkpt>
      <trkpt lat="44.66958" lon="2.35521">
        <ele>558.4</ele>
        <time>2023-08-20T10:28:17Z</time>
      </trkpt>
      <trkpt lat="44.66948" lon="2.3551">
        <ele>559</ele>
        <time>2023-08-20T10:28:18Z</time>
      </trkpt>
      <trkpt lat="44.66937" lon="2.35498">
        <ele>559.4</ele>
        <time>2023-08-20T10:28:19Z</time>
      </trkpt>
      <trkpt lat="44.66927" lon="2.35488">
        <ele>559.8</ele>
        <time>2023-08-20T10:28:20Z</time>
      </trkpt>
      <trkpt lat="44.66917" lon="2.35477">
        <ele>560</ele>
        <time>2023-08-20T10:28:21Z</time>
      </trkpt>
      <trkpt lat="44.66908" lon="2.35466">
        <ele>560.4</ele>
        <time>2023-08-20T10:28:22Z</time>
      </trkpt>
      <trkpt lat="44.66901" lon="2.35454">
        <ele>560.6</ele>
        <time>2023-08-20T10:28:23Z</time>
      </trkpt>
      <trkpt lat="44.66894" lon="2.35441">
        <ele>560.8</ele>
        <time>2023-08-20T10:28:24Z</time>
      </trkpt>
      <trkpt lat="44.66888" lon="2.35427">
        <ele>561</ele>
        <time>2023-08-20T10:28:25Z</time>
      </trkpt>
      <trkpt lat="44.66882" lon="2.35413">
        <ele>561</ele>
        <time>2023-08-20T10:28:26Z</time>
      </trkpt>
      <trkpt lat="44.66875" lon="2.354">
        <ele>561</ele>
        <time>2023-08-20T10:28:27Z</time>
      </trkpt>
      <trkpt lat="44.66866" lon="2.35389">
        <ele>561</ele>
        <time>2023-08-20T10:28:28Z</time>
      </trkpt>
      <trkpt lat="44.66855" lon="2.35381">
        <ele>561</ele>
        <time>2023-08-20T10:28:29Z</time>
      </trkpt>
      <trkpt lat="44.66843" lon="2.35375">
        <ele>561</ele>
        <time>2023-08-20T10:28:30Z</time>
      </trkpt>
      <trkpt lat="44.66831" lon="2.3537">
        <ele>560.4</ele>
        <time>2023-08-20T10:28:31Z</time>
      </trkpt>
      <trkpt lat="44.66817" lon="2.35367">
        <ele>560.4</ele>
        <time>2023-08-20T10:28:32Z</time>
      </trkpt>
      <trkpt lat="44.66803" lon="2.35366">
        <ele>559.8</ele>
        <time>2023-08-20T10:28:33Z</time>
      </trkpt>
      <trkpt lat="44.66789" lon="2.35364">
        <ele>559.4</ele>
        <time>2023-08-20T10:28:34Z</time>
      </trkpt>
      <trkpt lat="44.66775" lon="2.35362">
        <ele>559</ele>
        <time>2023-08-20T10:28:35Z</time>
      </trkpt>
      <trkpt lat="44.66762" lon="2.35361">
        <ele>558.2</ele>
        <time>2023-08-20T10:28:36Z</time>
      </trkpt>
      <trkpt lat="44.66748" lon="2.35359">
        <ele>558</ele>
        <time>2023-08-20T10:28:37Z</time>
      </trkpt>
      <trkpt lat="44.66734" lon="2.35356">
        <ele>557</ele>
        <time>2023-08-20T10:28:38Z</time>
      </trkpt>
      <trkpt lat="44.66721" lon="2.35351">
        <ele>556.6</ele>
        <time>2023-08-20T10:28:39Z</time>
      </trkpt>
      <trkpt lat="44.66707" lon="2.35345">
        <ele>555.2</ele>
        <time>2023-08-20T10:28:40Z</time>
      </trkpt>
      <trkpt lat="44.66693" lon="2.35338">
        <ele>554.6</ele>
        <time>2023-08-20T10:28:41Z</time>
      </trkpt>
      <trkpt lat="44.6668" lon="2.35331">
        <ele>553.4</ele>
        <time>2023-08-20T10:28:42Z</time>
      </trkpt>
      <trkpt lat="44.66666" lon="2.35324">
        <ele>552.8</ele>
        <time>2023-08-20T10:28:43Z</time>
      </trkpt>
      <trkpt lat="44.66652" lon="2.35316">
        <ele>552</ele>
        <time>2023-08-20T10:28:44Z</time>
      </trkpt>
      <trkpt lat="44.66613" lon="2.35284">
        <ele>551</ele>
        <time>2023-08-20T10:28:47Z</time>
      </trkpt>
      <trkpt lat="44.66587" lon="2.3526">
        <ele>550.8</ele>
        <time>2023-08-20T10:28:49Z</time>
      </trkpt>
      <trkpt lat="44.66566" lon="2.35238">
        <ele>550.8</ele>
        <time>2023-08-20T10:28:51Z</time>
      </trkpt>
      <trkpt lat="44.66556" lon="2.35225">
        <ele>550.8</ele>
        <time>2023-08-20T10:28:52Z</time>
      </trkpt>
      <trkpt lat="44.66547" lon="2.35211">
        <ele>551</ele>
        <time>2023-08-20T10:28:53Z</time>
      </trkpt>
      <trkpt lat="44.66538" lon="2.35196">
        <ele>551.2</ele>
        <time>2023-08-20T10:28:54Z</time>
      </trkpt>
      <trkpt lat="44.6652" lon="2.35163">
        <ele>552</ele>
        <time>2023-08-20T10:28:56Z</time>
      </trkpt>
      <trkpt lat="44.66491" lon="2.35116">
        <ele>553.4</ele>
        <time>2023-08-20T10:28:59Z</time>
      </trkpt>
      <trkpt lat="44.6648" lon="2.35102">
        <ele>553.8</ele>
        <time>2023-08-20T10:29:00Z</time>
      </trkpt>
      <trkpt lat="44.66461" lon="2.35077">
        <ele>554.4</ele>
        <time>2023-08-20T10:29:02Z</time>
      </trkpt>
      <trkpt lat="44.66452" lon="2.35065">
        <ele>555</ele>
        <time>2023-08-20T10:29:03Z</time>
      </trkpt>
      <trkpt lat="44.66443" lon="2.35053">
        <ele>555.4</ele>
        <time>2023-08-20T10:29:04Z</time>
      </trkpt>
      <trkpt lat="44.66434" lon="2.35041">
        <ele>556</ele>
        <time>2023-08-20T10:29:05Z</time>
      </trkpt>
      <trkpt lat="44.66426" lon="2.35027">
        <ele>556.2</ele>
        <time>2023-08-20T10:29:06Z</time>
      </trkpt>
      <trkpt lat="44.664" lon="2.34986">
        <ele>557.4</ele>
        <time>2023-08-20T10:29:09Z</time>
      </trkpt>
      <trkpt lat="44.66391" lon="2.34973">
        <ele>558.4</ele>
        <time>2023-08-20T10:29:10Z</time>
      </trkpt>
      <trkpt lat="44.66383" lon="2.34959">
        <ele>558.8</ele>
        <time>2023-08-20T10:29:11Z</time>
      </trkpt>
      <trkpt lat="44.66376" lon="2.34942">
        <ele>559.6</ele>
        <time>2023-08-20T10:29:12Z</time>
      </trkpt>
      <trkpt lat="44.66371" lon="2.34929">
        <ele>560</ele>
        <time>2023-08-20T10:29:13Z</time>
      </trkpt>
      <trkpt lat="44.66365" lon="2.34914">
        <ele>561.6</ele>
        <time>2023-08-20T10:29:14Z</time>
      </trkpt>
      <trkpt lat="44.6636" lon="2.34898">
        <ele>562</ele>
        <time>2023-08-20T10:29:15Z</time>
      </trkpt>
      <trkpt lat="44.66354" lon="2.34882">
        <ele>562.6</ele>
        <time>2023-08-20T10:29:16Z</time>
      </trkpt>
      <trkpt lat="44.66348" lon="2.34866">
        <ele>563.2</ele>
        <time>2023-08-20T10:29:17Z</time>
      </trkpt>
      <trkpt lat="44.66342" lon="2.34851">
        <ele>564.6</ele>
        <time>2023-08-20T10:29:18Z</time>
      </trkpt>
      <trkpt lat="44.66335" lon="2.34835">
        <ele>565.6</ele>
        <time>2023-08-20T10:29:19Z</time>
      </trkpt>
      <trkpt lat="44.66328" lon="2.34818">
        <ele>566</ele>
        <time>2023-08-20T10:29:20Z</time>
      </trkpt>
      <trkpt lat="44.66321" lon="2.34801">
        <ele>566.8</ele>
        <time>2023-08-20T10:29:21Z</time>
      </trkpt>
      <trkpt lat="44.66313" lon="2.34785">
        <ele>567.4</ele>
        <time>2023-08-20T10:29:22Z</time>
      </trkpt>
      <trkpt lat="44.66305" lon="2.3477">
        <ele>568</ele>
        <time>2023-08-20T10:29:23Z</time>
      </trkpt>
      <trkpt lat="44.66295" lon="2.34756">
        <ele>568.2</ele>
        <time>2023-08-20T10:29:24Z</time>
      </trkpt>
      <trkpt lat="44.66283" lon="2.34743">
        <ele>568.6</ele>
        <time>2023-08-20T10:29:25Z</time>
      </trkpt>
      <trkpt lat="44.66269" lon="2.34731">
        <ele>569</ele>
        <time>2023-08-20T10:29:26Z</time>
      </trkpt>
      <trkpt lat="44.66255" lon="2.34722">
        <ele>569.2</ele>
        <time>2023-08-20T10:29:27Z</time>
      </trkpt>
      <trkpt lat="44.66241" lon="2.34713">
        <ele>569.6</ele>
        <time>2023-08-20T10:29:28Z</time>
      </trkpt>
      <trkpt lat="44.66228" lon="2.34706">
        <ele>569.6</ele>
        <time>2023-08-20T10:29:29Z</time>
      </trkpt>
      <trkpt lat="44.66214" lon="2.34699">
        <ele>570</ele>
        <time>2023-08-20T10:29:30Z</time>
      </trkpt>
      <trkpt lat="44.66201" lon="2.34692">
        <ele>570</ele>
        <time>2023-08-20T10:29:31Z</time>
      </trkpt>
      <trkpt lat="44.66191" lon="2.34683">
        <ele>570.4</ele>
        <time>2023-08-20T10:29:32Z</time>
      </trkpt>
      <trkpt lat="44.66181" lon="2.34673">
        <ele>570.8</ele>
        <time>2023-08-20T10:29:33Z</time>
      </trkpt>
      <trkpt lat="44.66173" lon="2.3466">
        <ele>571.4</ele>
        <time>2023-08-20T10:29:34Z</time>
      </trkpt>
      <trkpt lat="44.66166" lon="2.34645">
        <ele>571.8</ele>
        <time>2023-08-20T10:29:35Z</time>
      </trkpt>
      <trkpt lat="44.66159" lon="2.34629">
        <ele>572.2</ele>
        <time>2023-08-20T10:29:36Z</time>
      </trkpt>
      <trkpt lat="44.66153" lon="2.34613">
        <ele>572.4</ele>
        <time>2023-08-20T10:29:37Z</time>
      </trkpt>
      <trkpt lat="44.66146" lon="2.34597">
        <ele>572.6</ele>
        <time>2023-08-20T10:29:38Z</time>
      </trkpt>
      <trkpt lat="44.66139" lon="2.3458">
        <ele>572.6</ele>
        <time>2023-08-20T10:29:39Z</time>
      </trkpt>
      <trkpt lat="44.66132" lon="2.34564">
        <ele>572.6</ele>
        <time>2023-08-20T10:29:40Z</time>
      </trkpt>
      <trkpt lat="44.66125" lon="2.34548">
        <ele>572.6</ele>
        <time>2023-08-20T10:29:41Z</time>
      </trkpt>
      <trkpt lat="44.66117" lon="2.34533">
        <ele>572.6</ele>
        <time>2023-08-20T10:29:42Z</time>
      </trkpt>
      <trkpt lat="44.66107" lon="2.3452">
        <ele>572.6</ele>
        <time>2023-08-20T10:29:43Z</time>
      </trkpt>
      <trkpt lat="44.66097" lon="2.34507">
        <ele>572.6</ele>
        <time>2023-08-20T10:29:44Z</time>
      </trkpt>
      <trkpt lat="44.66085" lon="2.34491">
        <ele>572.4</ele>
        <time>2023-08-20T10:29:45Z</time>
      </trkpt>
      <trkpt lat="44.66077" lon="2.3448">
        <ele>572</ele>
        <time>2023-08-20T10:29:46Z</time>
      </trkpt>
      <trkpt lat="44.66069" lon="2.34466">
        <ele>571.8</ele>
        <time>2023-08-20T10:29:47Z</time>
      </trkpt>
      <trkpt lat="44.66061" lon="2.34452">
        <ele>571.2</ele>
        <time>2023-08-20T10:29:48Z</time>
      </trkpt>
      <trkpt lat="44.66053" lon="2.34439">
        <ele>570.8</ele>
        <time>2023-08-20T10:29:49Z</time>
      </trkpt>
      <trkpt lat="44.66046" lon="2.34425">
        <ele>570.2</ele>
        <time>2023-08-20T10:29:50Z</time>
      </trkpt>
      <trkpt lat="44.66038" lon="2.34412">
        <ele>570.2</ele>
        <time>2023-08-20T10:29:51Z</time>
      </trkpt>
      <trkpt lat="44.66031" lon="2.34399">
        <ele>570</ele>
        <time>2023-08-20T10:29:52Z</time>
      </trkpt>
      <trkpt lat="44.66023" lon="2.34385">
        <ele>570</ele>
        <time>2023-08-20T10:29:53Z</time>
      </trkpt>
      <trkpt lat="44.66015" lon="2.34371">
        <ele>570.2</ele>
        <time>2023-08-20T10:29:54Z</time>
      </trkpt>
      <trkpt lat="44.66007" lon="2.34358">
        <ele>570.6</ele>
        <time>2023-08-20T10:29:55Z</time>
      </trkpt>
      <trkpt lat="44.65999" lon="2.34344">
        <ele>570.8</ele>
        <time>2023-08-20T10:29:56Z</time>
      </trkpt>
      <trkpt lat="44.65981" lon="2.34317">
        <ele>571.8</ele>
        <time>2023-08-20T10:29:58Z</time>
      </trkpt>
      <trkpt lat="44.6596" lon="2.34293">
        <ele>573.4</ele>
        <time>2023-08-20T10:30:00Z</time>
      </trkpt>
      <trkpt lat="44.65941" lon="2.34268">
        <ele>574.8</ele>
        <time>2023-08-20T10:30:02Z</time>
      </trkpt>
      <trkpt lat="44.65933" lon="2.34256">
        <ele>575.2</ele>
        <time>2023-08-20T10:30:03Z</time>
      </trkpt>
      <trkpt lat="44.65925" lon="2.34243">
        <ele>575.8</ele>
        <time>2023-08-20T10:30:04Z</time>
      </trkpt>
      <trkpt lat="44.65918" lon="2.34229">
        <ele>576.2</ele>
        <time>2023-08-20T10:30:05Z</time>
      </trkpt>
      <trkpt lat="44.65912" lon="2.34215">
        <ele>576.6</ele>
        <time>2023-08-20T10:30:06Z</time>
      </trkpt>
      <trkpt lat="44.65906" lon="2.342">
        <ele>576.8</ele>
        <time>2023-08-20T10:30:07Z</time>
      </trkpt>
      <trkpt lat="44.659" lon="2.34185">
        <ele>577</ele>
        <time>2023-08-20T10:30:08Z</time>
      </trkpt>
      <trkpt lat="44.65895" lon="2.3417">
        <ele>577.2</ele>
        <time>2023-08-20T10:30:09Z</time>
      </trkpt>
      <trkpt lat="44.6589" lon="2.34155">
        <ele>577.4</ele>
        <time>2023-08-20T10:30:10Z</time>
      </trkpt>
      <trkpt lat="44.65884" lon="2.3414">
        <ele>577.6</ele>
        <time>2023-08-20T10:30:11Z</time>
      </trkpt>
      <trkpt lat="44.65879" lon="2.34124">
        <ele>577.6</ele>
        <time>2023-08-20T10:30:12Z</time>
      </trkpt>
      <trkpt lat="44.65874" lon="2.34108">
        <ele>578</ele>
        <time>2023-08-20T10:30:13Z</time>
      </trkpt>
      <trkpt lat="44.65869" lon="2.34091">
        <ele>578</ele>
        <time>2023-08-20T10:30:14Z</time>
      </trkpt>
      <trkpt lat="44.65865" lon="2.34075">
        <ele>578.4</ele>
        <time>2023-08-20T10:30:15Z</time>
      </trkpt>
      <trkpt lat="44.65859" lon="2.34058">
        <ele>578.6</ele>
        <time>2023-08-20T10:30:16Z</time>
      </trkpt>
      <trkpt lat="44.65854" lon="2.34042">
        <ele>579</ele>
        <time>2023-08-20T10:30:17Z</time>
      </trkpt>
      <trkpt lat="44.65847" lon="2.34027">
        <ele>579.4</ele>
        <time>2023-08-20T10:30:18Z</time>
      </trkpt>
      <trkpt lat="44.6584" lon="2.34013">
        <ele>579.6</ele>
        <time>2023-08-20T10:30:19Z</time>
      </trkpt>
      <trkpt lat="44.65833" lon="2.34">
        <ele>580.2</ele>
        <time>2023-08-20T10:30:20Z</time>
      </trkpt>
      <trkpt lat="44.65826" lon="2.33988">
        <ele>580.4</ele>
        <time>2023-08-20T10:30:21Z</time>
      </trkpt>
      <trkpt lat="44.65819" lon="2.33978">
        <ele>580.8</ele>
        <time>2023-08-20T10:30:22Z</time>
      </trkpt>
      <trkpt lat="44.65811" lon="2.33969">
        <ele>581.2</ele>
        <time>2023-08-20T10:30:23Z</time>
      </trkpt>
      <trkpt lat="44.65803" lon="2.33961">
        <ele>582</ele>
        <time>2023-08-20T10:30:24Z</time>
      </trkpt>
      <trkpt lat="44.65794" lon="2.33956">
        <ele>582.6</ele>
        <time>2023-08-20T10:30:25Z</time>
      </trkpt>
      <trkpt lat="44.65784" lon="2.33952">
        <ele>582.6</ele>
        <time>2023-08-20T10:30:26Z</time>
      </trkpt>
      <trkpt lat="44.65774" lon="2.33951">
        <ele>583</ele>
        <time>2023-08-20T10:30:27Z</time>
      </trkpt>
      <trkpt lat="44.65763" lon="2.33952">
        <ele>583.2</ele>
        <time>2023-08-20T10:30:28Z</time>
      </trkpt>
      <trkpt lat="44.65752" lon="2.33954">
        <ele>583.8</ele>
        <time>2023-08-20T10:30:29Z</time>
      </trkpt>
      <trkpt lat="44.65741" lon="2.33958">
        <ele>584</ele>
        <time>2023-08-20T10:30:30Z</time>
      </trkpt>
      <trkpt lat="44.65729" lon="2.33961">
        <ele>584.8</ele>
        <time>2023-08-20T10:30:31Z</time>
      </trkpt>
      <trkpt lat="44.65717" lon="2.33966">
        <ele>585.2</ele>
        <time>2023-08-20T10:30:32Z</time>
      </trkpt>
      <trkpt lat="44.65705" lon="2.33974">
        <ele>585.8</ele>
        <time>2023-08-20T10:30:33Z</time>
      </trkpt>
      <trkpt lat="44.65694" lon="2.33984">
        <ele>586.8</ele>
        <time>2023-08-20T10:30:34Z</time>
      </trkpt>
      <trkpt lat="44.65685" lon="2.33992">
        <ele>587.2</ele>
        <time>2023-08-20T10:30:35Z</time>
      </trkpt>
      <trkpt lat="44.65672" lon="2.34003">
        <ele>587.6</ele>
        <time>2023-08-20T10:30:36Z</time>
      </trkpt>
      <trkpt lat="44.65661" lon="2.3401">
        <ele>588.2</ele>
        <time>2023-08-20T10:30:37Z</time>
      </trkpt>
      <trkpt lat="44.6565" lon="2.34014">
        <ele>588.8</ele>
        <time>2023-08-20T10:30:38Z</time>
      </trkpt>
      <trkpt lat="44.65641" lon="2.34015">
        <ele>589</ele>
        <time>2023-08-20T10:30:39Z</time>
      </trkpt>
      <trkpt lat="44.6563" lon="2.34016">
        <ele>589.6</ele>
        <time>2023-08-20T10:30:40Z</time>
      </trkpt>
      <trkpt lat="44.65617" lon="2.34016">
        <ele>589.8</ele>
        <time>2023-08-20T10:30:41Z</time>
      </trkpt>
      <trkpt lat="44.65607" lon="2.34014">
        <ele>590.2</ele>
        <time>2023-08-20T10:30:42Z</time>
      </trkpt>
      <trkpt lat="44.656" lon="2.34011">
        <ele>590.4</ele>
        <time>2023-08-20T10:30:43Z</time>
      </trkpt>
      <trkpt lat="44.65592" lon="2.34005">
        <ele>590.4</ele>
        <time>2023-08-20T10:30:44Z</time>
      </trkpt>
      <trkpt lat="44.65588" lon="2.33998">
        <ele>590.4</ele>
        <time>2023-08-20T10:30:45Z</time>
      </trkpt>
      <trkpt lat="44.65583" lon="2.33987">
        <ele>590.4</ele>
        <time>2023-08-20T10:30:46Z</time>
      </trkpt>
      <trkpt lat="44.6558" lon="2.33976">
        <ele>590.6</ele>
        <time>2023-08-20T10:30:47Z</time>
      </trkpt>
      <trkpt lat="44.65578" lon="2.33962">
        <ele>590.6</ele>
        <time>2023-08-20T10:30:48Z</time>
      </trkpt>
      <trkpt lat="44.65577" lon="2.33952">
        <ele>590.6</ele>
        <time>2023-08-20T10:30:49Z</time>
      </trkpt>
      <trkpt lat="44.65576" lon="2.33935">
        <ele>590.6</ele>
        <time>2023-08-20T10:30:50Z</time>
      </trkpt>
      <trkpt lat="44.65575" lon="2.3392">
        <ele>590.8</ele>
        <time>2023-08-20T10:30:51Z</time>
      </trkpt>
      <trkpt lat="44.65573" lon="2.33905">
        <ele>590.8</ele>
        <time>2023-08-20T10:30:52Z</time>
      </trkpt>
      <trkpt lat="44.65571" lon="2.33889">
        <ele>590.8</ele>
        <time>2023-08-20T10:30:53Z</time>
      </trkpt>
      <trkpt lat="44.65567" lon="2.33873">
        <ele>591</ele>
        <time>2023-08-20T10:30:54Z</time>
      </trkpt>
      <trkpt lat="44.65562" lon="2.33857">
        <ele>591</ele>
        <time>2023-08-20T10:30:55Z</time>
      </trkpt>
      <trkpt lat="44.65555" lon="2.33842">
        <ele>591.2</ele>
        <time>2023-08-20T10:30:56Z</time>
      </trkpt>
      <trkpt lat="44.65549" lon="2.33827">
        <ele>591.4</ele>
        <time>2023-08-20T10:30:57Z</time>
      </trkpt>
      <trkpt lat="44.65544" lon="2.33817">
        <ele>591.4</ele>
        <time>2023-08-20T10:30:58Z</time>
      </trkpt>
      <trkpt lat="44.65537" lon="2.33805">
        <ele>591.6</ele>
        <time>2023-08-20T10:30:59Z</time>
      </trkpt>
      <trkpt lat="44.65528" lon="2.33794">
        <ele>591.6</ele>
        <time>2023-08-20T10:31:00Z</time>
      </trkpt>
      <trkpt lat="44.65517" lon="2.33785">
        <ele>591.6</ele>
        <time>2023-08-20T10:31:01Z</time>
      </trkpt>
      <trkpt lat="44.65506" lon="2.33782">
        <ele>591.6</ele>
        <time>2023-08-20T10:31:02Z</time>
      </trkpt>
      <trkpt lat="44.65496" lon="2.33782">
        <ele>591.6</ele>
        <time>2023-08-20T10:31:03Z</time>
      </trkpt>
      <trkpt lat="44.65486" lon="2.33787">
        <ele>591.4</ele>
        <time>2023-08-20T10:31:04Z</time>
      </trkpt>
      <trkpt lat="44.65477" lon="2.33795">
        <ele>591.4</ele>
        <time>2023-08-20T10:31:05Z</time>
      </trkpt>
      <trkpt lat="44.65469" lon="2.33804">
        <ele>591.2</ele>
        <time>2023-08-20T10:31:06Z</time>
      </trkpt>
      <trkpt lat="44.65461" lon="2.33814">
        <ele>590.6</ele>
        <time>2023-08-20T10:31:07Z</time>
      </trkpt>
      <trkpt lat="44.65453" lon="2.33822">
        <ele>589.8</ele>
        <time>2023-08-20T10:31:08Z</time>
      </trkpt>
      <trkpt lat="44.65445" lon="2.33827">
        <ele>589.4</ele>
        <time>2023-08-20T10:31:09Z</time>
      </trkpt>
      <trkpt lat="44.65436" lon="2.33829">
        <ele>588.6</ele>
        <time>2023-08-20T10:31:10Z</time>
      </trkpt>
      <trkpt lat="44.65425" lon="2.33827">
        <ele>588.4</ele>
        <time>2023-08-20T10:31:11Z</time>
      </trkpt>
      <trkpt lat="44.65415" lon="2.33823">
        <ele>588</ele>
        <time>2023-08-20T10:31:12Z</time>
      </trkpt>
      <trkpt lat="44.65404" lon="2.33819">
        <ele>587.8</ele>
        <time>2023-08-20T10:31:13Z</time>
      </trkpt>
      <trkpt lat="44.65395" lon="2.33816">
        <ele>587.4</ele>
        <time>2023-08-20T10:31:14Z</time>
      </trkpt>
      <trkpt lat="44.65384" lon="2.33811">
        <ele>587.2</ele>
        <time>2023-08-20T10:31:15Z</time>
      </trkpt>
      <trkpt lat="44.65367" lon="2.33799">
        <ele>586</ele>
        <time>2023-08-20T10:31:17Z</time>
      </trkpt>
      <trkpt lat="44.6536" lon="2.33791">
        <ele>585.6</ele>
        <time>2023-08-20T10:31:18Z</time>
      </trkpt>
      <trkpt lat="44.65354" lon="2.33782">
        <ele>585.4</ele>
        <time>2023-08-20T10:31:19Z</time>
      </trkpt>
      <trkpt lat="44.6535" lon="2.3377">
        <ele>585</ele>
        <time>2023-08-20T10:31:20Z</time>
      </trkpt>
      <trkpt lat="44.65347" lon="2.33757">
        <ele>584.4</ele>
        <time>2023-08-20T10:31:21Z</time>
      </trkpt>
      <trkpt lat="44.65346" lon="2.33742">
        <ele>584.2</ele>
        <time>2023-08-20T10:31:22Z</time>
      </trkpt>
      <trkpt lat="44.65346" lon="2.33731">
        <ele>583.8</ele>
        <time>2023-08-20T10:31:23Z</time>
      </trkpt>
      <trkpt lat="44.65346" lon="2.33717">
        <ele>583.4</ele>
        <time>2023-08-20T10:31:24Z</time>
      </trkpt>
      <trkpt lat="44.65344" lon="2.33702">
        <ele>582.8</ele>
        <time>2023-08-20T10:31:25Z</time>
      </trkpt>
      <trkpt lat="44.6534" lon="2.3369">
        <ele>582.4</ele>
        <time>2023-08-20T10:31:26Z</time>
      </trkpt>
      <trkpt lat="44.65333" lon="2.33682">
        <ele>582.2</ele>
        <time>2023-08-20T10:31:27Z</time>
      </trkpt>
      <trkpt lat="44.65324" lon="2.33676">
        <ele>581.8</ele>
        <time>2023-08-20T10:31:28Z</time>
      </trkpt>
      <trkpt lat="44.65298" lon="2.33657">
        <ele>581.4</ele>
        <time>2023-08-20T10:31:31Z</time>
      </trkpt>
      <trkpt lat="44.6529" lon="2.33648">
        <ele>581.2</ele>
        <time>2023-08-20T10:31:32Z</time>
      </trkpt>
      <trkpt lat="44.65285" lon="2.33639">
        <ele>581</ele>
        <time>2023-08-20T10:31:33Z</time>
      </trkpt>
      <trkpt lat="44.65279" lon="2.33627">
        <ele>580.8</ele>
        <time>2023-08-20T10:31:34Z</time>
      </trkpt>
      <trkpt lat="44.65274" lon="2.33612">
        <ele>580.2</ele>
        <time>2023-08-20T10:31:35Z</time>
      </trkpt>
      <trkpt lat="44.65271" lon="2.33598">
        <ele>580</ele>
        <time>2023-08-20T10:31:36Z</time>
      </trkpt>
      <trkpt lat="44.65272" lon="2.33584">
        <ele>579.2</ele>
        <time>2023-08-20T10:31:37Z</time>
      </trkpt>
      <trkpt lat="44.65275" lon="2.33569">
        <ele>579</ele>
        <time>2023-08-20T10:31:38Z</time>
      </trkpt>
      <trkpt lat="44.65278" lon="2.33557">
        <ele>578.6</ele>
        <time>2023-08-20T10:31:39Z</time>
      </trkpt>
      <trkpt lat="44.65283" lon="2.33538">
        <ele>578.4</ele>
        <time>2023-08-20T10:31:40Z</time>
      </trkpt>
      <trkpt lat="44.65287" lon="2.33522">
        <ele>577.6</ele>
        <time>2023-08-20T10:31:41Z</time>
      </trkpt>
      <trkpt lat="44.6529" lon="2.33505">
        <ele>577</ele>
        <time>2023-08-20T10:31:42Z</time>
      </trkpt>
      <trkpt lat="44.65295" lon="2.33477">
        <ele>576.6</ele>
        <time>2023-08-20T10:31:44Z</time>
      </trkpt>
      <trkpt lat="44.65301" lon="2.33429">
        <ele>575.2</ele>
        <time>2023-08-20T10:31:47Z</time>
      </trkpt>
      <trkpt lat="44.65299" lon="2.33417">
        <ele>574.4</ele>
        <time>2023-08-20T10:31:48Z</time>
      </trkpt>
      <trkpt lat="44.65296" lon="2.33407">
        <ele>574</ele>
        <time>2023-08-20T10:31:49Z</time>
      </trkpt>
      <trkpt lat="44.6529" lon="2.33398">
        <ele>573.6</ele>
        <time>2023-08-20T10:31:50Z</time>
      </trkpt>
      <trkpt lat="44.65283" lon="2.33392">
        <ele>572.8</ele>
        <time>2023-08-20T10:31:51Z</time>
      </trkpt>
      <trkpt lat="44.65274" lon="2.33387">
        <ele>572.2</ele>
        <time>2023-08-20T10:31:52Z</time>
      </trkpt>
      <trkpt lat="44.65266" lon="2.3338">
        <ele>571.4</ele>
        <time>2023-08-20T10:31:53Z</time>
      </trkpt>
      <trkpt lat="44.65254" lon="2.33361">
        <ele>570.4</ele>
        <time>2023-08-20T10:31:55Z</time>
      </trkpt>
      <trkpt lat="44.6525" lon="2.3335">
        <ele>570</ele>
        <time>2023-08-20T10:31:56Z</time>
      </trkpt>
      <trkpt lat="44.65247" lon="2.33339">
        <ele>569.8</ele>
        <time>2023-08-20T10:31:57Z</time>
      </trkpt>
      <trkpt lat="44.65245" lon="2.33328">
        <ele>569.6</ele>
        <time>2023-08-20T10:31:58Z</time>
      </trkpt>
      <trkpt lat="44.65243" lon="2.33314">
        <ele>568.8</ele>
        <time>2023-08-20T10:31:59Z</time>
      </trkpt>
      <trkpt lat="44.65242" lon="2.333">
        <ele>568.4</ele>
        <time>2023-08-20T10:32:00Z</time>
      </trkpt>
      <trkpt lat="44.65242" lon="2.33272">
        <ele>567.8</ele>
        <time>2023-08-20T10:32:02Z</time>
      </trkpt>
      <trkpt lat="44.65245" lon="2.33245">
        <ele>567</ele>
        <time>2023-08-20T10:32:04Z</time>
      </trkpt>
      <trkpt lat="44.65247" lon="2.33226">
        <ele>566.6</ele>
        <time>2023-08-20T10:32:05Z</time>
      </trkpt>
      <trkpt lat="44.65248" lon="2.33196">
        <ele>566</ele>
        <time>2023-08-20T10:32:07Z</time>
      </trkpt>
      <trkpt lat="44.65245" lon="2.33183">
        <ele>565.4</ele>
        <time>2023-08-20T10:32:08Z</time>
      </trkpt>
      <trkpt lat="44.6524" lon="2.33171">
        <ele>564.6</ele>
        <time>2023-08-20T10:32:09Z</time>
      </trkpt>
      <trkpt lat="44.65232" lon="2.33161">
        <ele>564.4</ele>
        <time>2023-08-20T10:32:10Z</time>
      </trkpt>
      <trkpt lat="44.65223" lon="2.33152">
        <ele>563.6</ele>
        <time>2023-08-20T10:32:11Z</time>
      </trkpt>
      <trkpt lat="44.65213" lon="2.33143">
        <ele>563.2</ele>
        <time>2023-08-20T10:32:12Z</time>
      </trkpt>
      <trkpt lat="44.65203" lon="2.33133">
        <ele>562.4</ele>
        <time>2023-08-20T10:32:13Z</time>
      </trkpt>
      <trkpt lat="44.65194" lon="2.33124">
        <ele>562</ele>
        <time>2023-08-20T10:32:14Z</time>
      </trkpt>
      <trkpt lat="44.65172" lon="2.33112">
        <ele>561.4</ele>
        <time>2023-08-20T10:32:16Z</time>
      </trkpt>
      <trkpt lat="44.65161" lon="2.33111">
        <ele>561.2</ele>
        <time>2023-08-20T10:32:17Z</time>
      </trkpt>
      <trkpt lat="44.65149" lon="2.33113">
        <ele>560.6</ele>
        <time>2023-08-20T10:32:18Z</time>
      </trkpt>
      <trkpt lat="44.65138" lon="2.33115">
        <ele>560.4</ele>
        <time>2023-08-20T10:32:19Z</time>
      </trkpt>
      <trkpt lat="44.65126" lon="2.33117">
        <ele>560</ele>
        <time>2023-08-20T10:32:20Z</time>
      </trkpt>
      <trkpt lat="44.65115" lon="2.33119">
        <ele>559.6</ele>
        <time>2023-08-20T10:32:21Z</time>
      </trkpt>
      <trkpt lat="44.65105" lon="2.33121">
        <ele>559.4</ele>
        <time>2023-08-20T10:32:22Z</time>
      </trkpt>
      <trkpt lat="44.65095" lon="2.3312">
        <ele>559.2</ele>
        <time>2023-08-20T10:32:23Z</time>
      </trkpt>
      <trkpt lat="44.65086" lon="2.33118">
        <ele>558.6</ele>
        <time>2023-08-20T10:32:24Z</time>
      </trkpt>
      <trkpt lat="44.65079" lon="2.33114">
        <ele>558</ele>
        <time>2023-08-20T10:32:25Z</time>
      </trkpt>
      <trkpt lat="44.65075" lon="2.33105">
        <ele>557.8</ele>
        <time>2023-08-20T10:32:26Z</time>
      </trkpt>
      <trkpt lat="44.65073" lon="2.33095">
        <ele>557.4</ele>
        <time>2023-08-20T10:32:27Z</time>
      </trkpt>
      <trkpt lat="44.65072" lon="2.33085">
        <ele>557.2</ele>
        <time>2023-08-20T10:32:28Z</time>
      </trkpt>
      <trkpt lat="44.65072" lon="2.33077">
        <ele>556.8</ele>
        <time>2023-08-20T10:32:29Z</time>
      </trkpt>
      <trkpt lat="44.65072" lon="2.33072">
        <ele>556.2</ele>
        <time>2023-08-20T10:32:30Z</time>
      </trkpt>
      <trkpt lat="44.6507" lon="2.33068">
        <ele>555.4</ele>
        <time>2023-08-20T10:32:31Z</time>
      </trkpt>
      <trkpt lat="44.65068" lon="2.33066">
        <ele>555.2</ele>
        <time>2023-08-20T10:32:32Z</time>
      </trkpt>
      <trkpt lat="44.65063" lon="2.33065">
        <ele>555</ele>
        <time>2023-08-20T10:32:33Z</time>
      </trkpt>
      <trkpt lat="44.65059" lon="2.33067">
        <ele>554.4</ele>
        <time>2023-08-20T10:32:34Z</time>
      </trkpt>
      <trkpt lat="44.65052" lon="2.33073">
        <ele>554.2</ele>
        <time>2023-08-20T10:32:35Z</time>
      </trkpt>
      <trkpt lat="44.65035" lon="2.33089">
        <ele>553.6</ele>
        <time>2023-08-20T10:32:37Z</time>
      </trkpt>
      <trkpt lat="44.65024" lon="2.33097">
        <ele>553.2</ele>
        <time>2023-08-20T10:32:38Z</time>
      </trkpt>
      <trkpt lat="44.64999" lon="2.33113">
        <ele>552.6</ele>
        <time>2023-08-20T10:32:40Z</time>
      </trkpt>
      <trkpt lat="44.64964" lon="2.33136">
        <ele>552</ele>
        <time>2023-08-20T10:32:43Z</time>
      </trkpt>
      <trkpt lat="44.64943" lon="2.33149">
        <ele>551.6</ele>
        <time>2023-08-20T10:32:45Z</time>
      </trkpt>
      <trkpt lat="44.6493" lon="2.33158">
        <ele>551.4</ele>
        <time>2023-08-20T10:32:46Z</time>
      </trkpt>
      <trkpt lat="44.64918" lon="2.33165">
        <ele>550.6</ele>
        <time>2023-08-20T10:32:47Z</time>
      </trkpt>
      <trkpt lat="44.64896" lon="2.33179">
        <ele>549.6</ele>
        <time>2023-08-20T10:32:49Z</time>
      </trkpt>
      <trkpt lat="44.64875" lon="2.33191">
        <ele>548.4</ele>
        <time>2023-08-20T10:32:51Z</time>
      </trkpt>
      <trkpt lat="44.64863" lon="2.33197">
        <ele>547.8</ele>
        <time>2023-08-20T10:32:52Z</time>
      </trkpt>
      <trkpt lat="44.6484" lon="2.33209">
        <ele>546.6</ele>
        <time>2023-08-20T10:32:54Z</time>
      </trkpt>
      <trkpt lat="44.64819" lon="2.33226">
        <ele>545.8</ele>
        <time>2023-08-20T10:32:56Z</time>
      </trkpt>
      <trkpt lat="44.6481" lon="2.33236">
        <ele>545.6</ele>
        <time>2023-08-20T10:32:57Z</time>
      </trkpt>
      <trkpt lat="44.64802" lon="2.33246">
        <ele>545.4</ele>
        <time>2023-08-20T10:32:58Z</time>
      </trkpt>
      <trkpt lat="44.64792" lon="2.3326">
        <ele>545.4</ele>
        <time>2023-08-20T10:32:59Z</time>
      </trkpt>
      <trkpt lat="44.64787" lon="2.3327">
        <ele>545.2</ele>
        <time>2023-08-20T10:33:00Z</time>
      </trkpt>
      <trkpt lat="44.6478" lon="2.33282">
        <ele>544.8</ele>
        <time>2023-08-20T10:33:01Z</time>
      </trkpt>
      <trkpt lat="44.64766" lon="2.33307">
        <ele>544.2</ele>
        <time>2023-08-20T10:33:03Z</time>
      </trkpt>
      <trkpt lat="44.64751" lon="2.33331">
        <ele>542.8</ele>
        <time>2023-08-20T10:33:05Z</time>
      </trkpt>
      <trkpt lat="44.64743" lon="2.33343">
        <ele>542.4</ele>
        <time>2023-08-20T10:33:06Z</time>
      </trkpt>
      <trkpt lat="44.64725" lon="2.33364">
        <ele>541.4</ele>
        <time>2023-08-20T10:33:08Z</time>
      </trkpt>
      <trkpt lat="44.64705" lon="2.33379">
        <ele>540.6</ele>
        <time>2023-08-20T10:33:10Z</time>
      </trkpt>
      <trkpt lat="44.64695" lon="2.33384">
        <ele>540.2</ele>
        <time>2023-08-20T10:33:11Z</time>
      </trkpt>
      <trkpt lat="44.64686" lon="2.33389">
        <ele>539.6</ele>
        <time>2023-08-20T10:33:12Z</time>
      </trkpt>
      <trkpt lat="44.64679" lon="2.33396">
        <ele>539.2</ele>
        <time>2023-08-20T10:33:13Z</time>
      </trkpt>
      <trkpt lat="44.64674" lon="2.33405">
        <ele>538.6</ele>
        <time>2023-08-20T10:33:14Z</time>
      </trkpt>
      <trkpt lat="44.64671" lon="2.33416">
        <ele>538.4</ele>
        <time>2023-08-20T10:33:15Z</time>
      </trkpt>
      <trkpt lat="44.64672" lon="2.33426">
        <ele>537.6</ele>
        <time>2023-08-20T10:33:16Z</time>
      </trkpt>
      <trkpt lat="44.64676" lon="2.33438">
        <ele>536.8</ele>
        <time>2023-08-20T10:33:17Z</time>
      </trkpt>
      <trkpt lat="44.64681" lon="2.33449">
        <ele>536.2</ele>
        <time>2023-08-20T10:33:18Z</time>
      </trkpt>
      <trkpt lat="44.64688" lon="2.33461">
        <ele>535.4</ele>
        <time>2023-08-20T10:33:19Z</time>
      </trkpt>
      <trkpt lat="44.64694" lon="2.33473">
        <ele>535</ele>
        <time>2023-08-20T10:33:20Z</time>
      </trkpt>
      <trkpt lat="44.64698" lon="2.33485">
        <ele>534.2</ele>
        <time>2023-08-20T10:33:21Z</time>
      </trkpt>
      <trkpt lat="44.64701" lon="2.33499">
        <ele>533.8</ele>
        <time>2023-08-20T10:33:22Z</time>
      </trkpt>
      <trkpt lat="44.64705" lon="2.33529">
        <ele>533</ele>
        <time>2023-08-20T10:33:24Z</time>
      </trkpt>
      <trkpt lat="44.64707" lon="2.33545">
        <ele>532</ele>
        <time>2023-08-20T10:33:25Z</time>
      </trkpt>
      <trkpt lat="44.64709" lon="2.33561">
        <ele>531.4</ele>
        <time>2023-08-20T10:33:26Z</time>
      </trkpt>
      <trkpt lat="44.64711" lon="2.33576">
        <ele>531</ele>
        <time>2023-08-20T10:33:27Z</time>
      </trkpt>
      <trkpt lat="44.64718" lon="2.33607">
        <ele>529.8</ele>
        <time>2023-08-20T10:33:29Z</time>
      </trkpt>
      <trkpt lat="44.64721" lon="2.33623">
        <ele>529.2</ele>
        <time>2023-08-20T10:33:30Z</time>
      </trkpt>
      <trkpt lat="44.64722" lon="2.33639">
        <ele>528.6</ele>
        <time>2023-08-20T10:33:31Z</time>
      </trkpt>
      <trkpt lat="44.64723" lon="2.33656">
        <ele>528</ele>
        <time>2023-08-20T10:33:32Z</time>
      </trkpt>
      <trkpt lat="44.64721" lon="2.33671">
        <ele>527.6</ele>
        <time>2023-08-20T10:33:33Z</time>
      </trkpt>
      <trkpt lat="44.64718" lon="2.33687">
        <ele>526.6</ele>
        <time>2023-08-20T10:33:34Z</time>
      </trkpt>
      <trkpt lat="44.64714" lon="2.33701">
        <ele>526</ele>
        <time>2023-08-20T10:33:35Z</time>
      </trkpt>
      <trkpt lat="44.64709" lon="2.33715">
        <ele>525.4</ele>
        <time>2023-08-20T10:33:36Z</time>
      </trkpt>
      <trkpt lat="44.64704" lon="2.33728">
        <ele>524.8</ele>
        <time>2023-08-20T10:33:37Z</time>
      </trkpt>
      <trkpt lat="44.64692" lon="2.33752">
        <ele>523.6</ele>
        <time>2023-08-20T10:33:39Z</time>
      </trkpt>
      <trkpt lat="44.64684" lon="2.33763">
        <ele>523</ele>
        <time>2023-08-20T10:33:40Z</time>
      </trkpt>
      <trkpt lat="44.64676" lon="2.33773">
        <ele>522</ele>
        <time>2023-08-20T10:33:41Z</time>
      </trkpt>
      <trkpt lat="44.64658" lon="2.33792">
        <ele>520.8</ele>
        <time>2023-08-20T10:33:43Z</time>
      </trkpt>
      <trkpt lat="44.6464" lon="2.33812">
        <ele>519.4</ele>
        <time>2023-08-20T10:33:45Z</time>
      </trkpt>
      <trkpt lat="44.64631" lon="2.33822">
        <ele>518.4</ele>
        <time>2023-08-20T10:33:46Z</time>
      </trkpt>
      <trkpt lat="44.64612" lon="2.33842">
        <ele>517</ele>
        <time>2023-08-20T10:33:48Z</time>
      </trkpt>
      <trkpt lat="44.64603" lon="2.33852">
        <ele>516.6</ele>
        <time>2023-08-20T10:33:49Z</time>
      </trkpt>
      <trkpt lat="44.64594" lon="2.33862">
        <ele>515.6</ele>
        <time>2023-08-20T10:33:50Z</time>
      </trkpt>
      <trkpt lat="44.64576" lon="2.33881">
        <ele>514</ele>
        <time>2023-08-20T10:33:52Z</time>
      </trkpt>
      <trkpt lat="44.64567" lon="2.3389">
        <ele>513</ele>
        <time>2023-08-20T10:33:53Z</time>
      </trkpt>
      <trkpt lat="44.6455" lon="2.33907">
        <ele>511.4</ele>
        <time>2023-08-20T10:33:55Z</time>
      </trkpt>
      <trkpt lat="44.64541" lon="2.33916">
        <ele>510.8</ele>
        <time>2023-08-20T10:33:56Z</time>
      </trkpt>
      <trkpt lat="44.64533" lon="2.33924">
        <ele>509.6</ele>
        <time>2023-08-20T10:33:57Z</time>
      </trkpt>
      <trkpt lat="44.64524" lon="2.33932">
        <ele>509</ele>
        <time>2023-08-20T10:33:58Z</time>
      </trkpt>
      <trkpt lat="44.64516" lon="2.3394">
        <ele>508</ele>
        <time>2023-08-20T10:33:59Z</time>
      </trkpt>
      <trkpt lat="44.64509" lon="2.33946">
        <ele>506.6</ele>
        <time>2023-08-20T10:34:00Z</time>
      </trkpt>
      <trkpt lat="44.645" lon="2.33951">
        <ele>505.8</ele>
        <time>2023-08-20T10:34:01Z</time>
      </trkpt>
      <trkpt lat="44.64493" lon="2.3395">
        <ele>504.2</ele>
        <time>2023-08-20T10:34:02Z</time>
      </trkpt>
      <trkpt lat="44.64485" lon="2.33948">
        <ele>503.6</ele>
        <time>2023-08-20T10:34:03Z</time>
      </trkpt>
      <trkpt lat="44.64478" lon="2.33943">
        <ele>502.2</ele>
        <time>2023-08-20T10:34:04Z</time>
      </trkpt>
      <trkpt lat="44.6447" lon="2.33937">
        <ele>501.6</ele>
        <time>2023-08-20T10:34:05Z</time>
      </trkpt>
      <trkpt lat="44.64464" lon="2.33929">
        <ele>500.4</ele>
        <time>2023-08-20T10:34:06Z</time>
      </trkpt>
      <trkpt lat="44.64458" lon="2.3392">
        <ele>499.8</ele>
        <time>2023-08-20T10:34:07Z</time>
      </trkpt>
      <trkpt lat="44.64452" lon="2.3391">
        <ele>498.8</ele>
        <time>2023-08-20T10:34:08Z</time>
      </trkpt>
      <trkpt lat="44.64445" lon="2.339">
        <ele>497.6</ele>
        <time>2023-08-20T10:34:09Z</time>
      </trkpt>
      <trkpt lat="44.64433" lon="2.33878">
        <ele>495.8</ele>
        <time>2023-08-20T10:34:11Z</time>
      </trkpt>
      <trkpt lat="44.64427" lon="2.33867">
        <ele>495.2</ele>
        <time>2023-08-20T10:34:12Z</time>
      </trkpt>
      <trkpt lat="44.64421" lon="2.33856">
        <ele>494.4</ele>
        <time>2023-08-20T10:34:13Z</time>
      </trkpt>
      <trkpt lat="44.64416" lon="2.33844">
        <ele>494.2</ele>
        <time>2023-08-20T10:34:14Z</time>
      </trkpt>
      <trkpt lat="44.64411" lon="2.33831">
        <ele>493.4</ele>
        <time>2023-08-20T10:34:15Z</time>
      </trkpt>
      <trkpt lat="44.64408" lon="2.33817">
        <ele>493</ele>
        <time>2023-08-20T10:34:16Z</time>
      </trkpt>
      <trkpt lat="44.64406" lon="2.33802">
        <ele>491.8</ele>
        <time>2023-08-20T10:34:17Z</time>
      </trkpt>
      <trkpt lat="44.64402" lon="2.33773">
        <ele>490.4</ele>
        <time>2023-08-20T10:34:19Z</time>
      </trkpt>
      <trkpt lat="44.644" lon="2.33759">
        <ele>489.8</ele>
        <time>2023-08-20T10:34:20Z</time>
      </trkpt>
      <trkpt lat="44.64397" lon="2.33746">
        <ele>489.4</ele>
        <time>2023-08-20T10:34:21Z</time>
      </trkpt>
      <trkpt lat="44.64392" lon="2.33736">
        <ele>488.2</ele>
        <time>2023-08-20T10:34:22Z</time>
      </trkpt>
      <trkpt lat="44.64385" lon="2.33729">
        <ele>487.6</ele>
        <time>2023-08-20T10:34:23Z</time>
      </trkpt>
      <trkpt lat="44.64376" lon="2.33723">
        <ele>486.4</ele>
        <time>2023-08-20T10:34:24Z</time>
      </trkpt>
      <trkpt lat="44.64366" lon="2.3372">
        <ele>485.6</ele>
        <time>2023-08-20T10:34:25Z</time>
      </trkpt>
      <trkpt lat="44.64358" lon="2.33716">
        <ele>484.8</ele>
        <time>2023-08-20T10:34:26Z</time>
      </trkpt>
      <trkpt lat="44.64349" lon="2.33711">
        <ele>483.6</ele>
        <time>2023-08-20T10:34:27Z</time>
      </trkpt>
      <trkpt lat="44.64343" lon="2.33704">
        <ele>483</ele>
        <time>2023-08-20T10:34:28Z</time>
      </trkpt>
      <trkpt lat="44.64338" lon="2.33694">
        <ele>481.8</ele>
        <time>2023-08-20T10:34:29Z</time>
      </trkpt>
      <trkpt lat="44.64335" lon="2.33683">
        <ele>481</ele>
        <time>2023-08-20T10:34:30Z</time>
      </trkpt>
      <trkpt lat="44.64333" lon="2.33671">
        <ele>480</ele>
        <time>2023-08-20T10:34:31Z</time>
      </trkpt>
      <trkpt lat="44.64331" lon="2.33658">
        <ele>479.6</ele>
        <time>2023-08-20T10:34:32Z</time>
      </trkpt>
      <trkpt lat="44.6433" lon="2.33644">
        <ele>478.4</ele>
        <time>2023-08-20T10:34:33Z</time>
      </trkpt>
      <trkpt lat="44.64328" lon="2.33629">
        <ele>478.2</ele>
        <time>2023-08-20T10:34:34Z</time>
      </trkpt>
      <trkpt lat="44.64325" lon="2.336">
        <ele>477</ele>
        <time>2023-08-20T10:34:36Z</time>
      </trkpt>
      <trkpt lat="44.64325" lon="2.33573">
        <ele>475.8</ele>
        <time>2023-08-20T10:34:38Z</time>
      </trkpt>
      <trkpt lat="44.64325" lon="2.33559">
        <ele>475.4</ele>
        <time>2023-08-20T10:34:39Z</time>
      </trkpt>
      <trkpt lat="44.64325" lon="2.33545">
        <ele>474.8</ele>
        <time>2023-08-20T10:34:40Z</time>
      </trkpt>
      <trkpt lat="44.64325" lon="2.33516">
        <ele>473.6</ele>
        <time>2023-08-20T10:34:42Z</time>
      </trkpt>
      <trkpt lat="44.64324" lon="2.33501">
        <ele>473</ele>
        <time>2023-08-20T10:34:43Z</time>
      </trkpt>
      <trkpt lat="44.64322" lon="2.33488">
        <ele>472.2</ele>
        <time>2023-08-20T10:34:44Z</time>
      </trkpt>
      <trkpt lat="44.64321" lon="2.33476">
        <ele>471.6</ele>
        <time>2023-08-20T10:34:45Z</time>
      </trkpt>
      <trkpt lat="44.64318" lon="2.33466">
        <ele>471.4</ele>
        <time>2023-08-20T10:34:46Z</time>
      </trkpt>
      <trkpt lat="44.64315" lon="2.33456">
        <ele>470.2</ele>
        <time>2023-08-20T10:34:47Z</time>
      </trkpt>
      <trkpt lat="44.64313" lon="2.33446">
        <ele>469.8</ele>
        <time>2023-08-20T10:34:48Z</time>
      </trkpt>
      <trkpt lat="44.64312" lon="2.33436">
        <ele>469</ele>
        <time>2023-08-20T10:34:49Z</time>
      </trkpt>
      <trkpt lat="44.64311" lon="2.33424">
        <ele>468.6</ele>
        <time>2023-08-20T10:34:50Z</time>
      </trkpt>
      <trkpt lat="44.64309" lon="2.33412">
        <ele>467.8</ele>
        <time>2023-08-20T10:34:51Z</time>
      </trkpt>
      <trkpt lat="44.64302" lon="2.33389">
        <ele>466.4</ele>
        <time>2023-08-20T10:34:53Z</time>
      </trkpt>
      <trkpt lat="44.64296" lon="2.33366">
        <ele>465.4</ele>
        <time>2023-08-20T10:34:55Z</time>
      </trkpt>
      <trkpt lat="44.64291" lon="2.33339">
        <ele>464</ele>
        <time>2023-08-20T10:34:57Z</time>
      </trkpt>
      <trkpt lat="44.64285" lon="2.33313">
        <ele>463</ele>
        <time>2023-08-20T10:34:59Z</time>
      </trkpt>
      <trkpt lat="44.6428" lon="2.33299">
        <ele>462.4</ele>
        <time>2023-08-20T10:35:00Z</time>
      </trkpt>
      <trkpt lat="44.64276" lon="2.33286">
        <ele>461.8</ele>
        <time>2023-08-20T10:35:01Z</time>
      </trkpt>
      <trkpt lat="44.64267" lon="2.33261">
        <ele>461</ele>
        <time>2023-08-20T10:35:03Z</time>
      </trkpt>
      <trkpt lat="44.64263" lon="2.33249">
        <ele>460.6</ele>
        <time>2023-08-20T10:35:04Z</time>
      </trkpt>
      <trkpt lat="44.64259" lon="2.33237">
        <ele>459.8</ele>
        <time>2023-08-20T10:35:05Z</time>
      </trkpt>
      <trkpt lat="44.64255" lon="2.33225">
        <ele>459.6</ele>
        <time>2023-08-20T10:35:06Z</time>
      </trkpt>
      <trkpt lat="44.64248" lon="2.33201">
        <ele>458.2</ele>
        <time>2023-08-20T10:35:08Z</time>
      </trkpt>
      <trkpt lat="44.64245" lon="2.33189">
        <ele>457.4</ele>
        <time>2023-08-20T10:35:09Z</time>
      </trkpt>
      <trkpt lat="44.64242" lon="2.33176">
        <ele>456.6</ele>
        <time>2023-08-20T10:35:10Z</time>
      </trkpt>
      <trkpt lat="44.64239" lon="2.33161">
        <ele>456.2</ele>
        <time>2023-08-20T10:35:11Z</time>
      </trkpt>
      <trkpt lat="44.64238" lon="2.33148">
        <ele>455</ele>
        <time>2023-08-20T10:35:12Z</time>
      </trkpt>
      <trkpt lat="44.64238" lon="2.33108">
        <ele>453.6</ele>
        <time>2023-08-20T10:35:15Z</time>
      </trkpt>
      <trkpt lat="44.64237" lon="2.33101">
        <ele>452.8</ele>
        <time>2023-08-20T10:35:16Z</time>
      </trkpt>
      <trkpt lat="44.64234" lon="2.33097">
        <ele>452.6</ele>
        <time>2023-08-20T10:35:17Z</time>
      </trkpt>
      <trkpt lat="44.64232" lon="2.33098">
        <ele>451.6</ele>
        <time>2023-08-20T10:35:18Z</time>
      </trkpt>
      <trkpt lat="44.6423" lon="2.33102">
        <ele>450.2</ele>
        <time>2023-08-20T10:35:19Z</time>
      </trkpt>
      <trkpt lat="44.64227" lon="2.33109">
        <ele>449.6</ele>
        <time>2023-08-20T10:35:20Z</time>
      </trkpt>
      <trkpt lat="44.64224" lon="2.3312">
        <ele>448.6</ele>
        <time>2023-08-20T10:35:21Z</time>
      </trkpt>
      <trkpt lat="44.64222" lon="2.33134">
        <ele>448</ele>
        <time>2023-08-20T10:35:22Z</time>
      </trkpt>
      <trkpt lat="44.64219" lon="2.33148">
        <ele>447.2</ele>
        <time>2023-08-20T10:35:23Z</time>
      </trkpt>
      <trkpt lat="44.64213" lon="2.33185">
        <ele>445.8</ele>
        <time>2023-08-20T10:35:26Z</time>
      </trkpt>
      <trkpt lat="44.64212" lon="2.33197">
        <ele>444.6</ele>
        <time>2023-08-20T10:35:27Z</time>
      </trkpt>
      <trkpt lat="44.6421" lon="2.33209">
        <ele>444</ele>
        <time>2023-08-20T10:35:28Z</time>
      </trkpt>
      <trkpt lat="44.64209" lon="2.33221">
        <ele>443.4</ele>
        <time>2023-08-20T10:35:29Z</time>
      </trkpt>
      <trkpt lat="44.64208" lon="2.33233">
        <ele>442.2</ele>
        <time>2023-08-20T10:35:30Z</time>
      </trkpt>
      <trkpt lat="44.64208" lon="2.33257">
        <ele>440.8</ele>
        <time>2023-08-20T10:35:32Z</time>
      </trkpt>
      <trkpt lat="44.64212" lon="2.3328">
        <ele>439.2</ele>
        <time>2023-08-20T10:35:34Z</time>
      </trkpt>
      <trkpt lat="44.64218" lon="2.33303">
        <ele>437.8</ele>
        <time>2023-08-20T10:35:36Z</time>
      </trkpt>
      <trkpt lat="44.64226" lon="2.33328">
        <ele>436.6</ele>
        <time>2023-08-20T10:35:38Z</time>
      </trkpt>
      <trkpt lat="44.64229" lon="2.33338">
        <ele>435.8</ele>
        <time>2023-08-20T10:35:39Z</time>
      </trkpt>
      <trkpt lat="44.64232" lon="2.33351">
        <ele>435.4</ele>
        <time>2023-08-20T10:35:40Z</time>
      </trkpt>
      <trkpt lat="44.64234" lon="2.33366">
        <ele>434.4</ele>
        <time>2023-08-20T10:35:41Z</time>
      </trkpt>
      <trkpt lat="44.64235" lon="2.33375">
        <ele>434</ele>
        <time>2023-08-20T10:35:42Z</time>
      </trkpt>
      <trkpt lat="44.64234" lon="2.33387">
        <ele>432.8</ele>
        <time>2023-08-20T10:35:43Z</time>
      </trkpt>
      <trkpt lat="44.64234" lon="2.33398">
        <ele>432</ele>
        <time>2023-08-20T10:35:44Z</time>
      </trkpt>
      <trkpt lat="44.64234" lon="2.3341">
        <ele>431.2</ele>
        <time>2023-08-20T10:35:45Z</time>
      </trkpt>
      <trkpt lat="44.64234" lon="2.33422">
        <ele>430.4</ele>
        <time>2023-08-20T10:35:46Z</time>
      </trkpt>
      <trkpt lat="44.64234" lon="2.33433">
        <ele>430</ele>
        <time>2023-08-20T10:35:47Z</time>
      </trkpt>
      <trkpt lat="44.64234" lon="2.33445">
        <ele>429</ele>
        <time>2023-08-20T10:35:48Z</time>
      </trkpt>
      <trkpt lat="44.64234" lon="2.33458">
        <ele>428.6</ele>
        <time>2023-08-20T10:35:49Z</time>
      </trkpt>
      <trkpt lat="44.64236" lon="2.33483">
        <ele>427.8</ele>
        <time>2023-08-20T10:35:51Z</time>
      </trkpt>
      <trkpt lat="44.64238" lon="2.33496">
        <ele>427.4</ele>
        <time>2023-08-20T10:35:52Z</time>
      </trkpt>
      <trkpt lat="44.6424" lon="2.33508">
        <ele>427.2</ele>
        <time>2023-08-20T10:35:53Z</time>
      </trkpt>
      <trkpt lat="44.64241" lon="2.3352">
        <ele>426.8</ele>
        <time>2023-08-20T10:35:54Z</time>
      </trkpt>
      <trkpt lat="44.6424" lon="2.33543">
        <ele>426.2</ele>
        <time>2023-08-20T10:35:56Z</time>
      </trkpt>
      <trkpt lat="44.64237" lon="2.33555">
        <ele>426</ele>
        <time>2023-08-20T10:35:57Z</time>
      </trkpt>
      <trkpt lat="44.64235" lon="2.33564">
        <ele>425.8</ele>
        <time>2023-08-20T10:35:58Z</time>
      </trkpt>
      <trkpt lat="44.64232" lon="2.33574">
        <ele>425.2</ele>
        <time>2023-08-20T10:35:59Z</time>
      </trkpt>
      <trkpt lat="44.64227" lon="2.33587">
        <ele>425</ele>
        <time>2023-08-20T10:36:00Z</time>
      </trkpt>
      <trkpt lat="44.64218" lon="2.33611">
        <ele>424.8</ele>
        <time>2023-08-20T10:36:02Z</time>
      </trkpt>
      <trkpt lat="44.64211" lon="2.33637">
        <ele>424.2</ele>
        <time>2023-08-20T10:36:04Z</time>
      </trkpt>
      <trkpt lat="44.64208" lon="2.33652">
        <ele>424</ele>
        <time>2023-08-20T10:36:05Z</time>
      </trkpt>
      <trkpt lat="44.64201" lon="2.33694">
        <ele>423.4</ele>
        <time>2023-08-20T10:36:08Z</time>
      </trkpt>
      <trkpt lat="44.64199" lon="2.33707">
        <ele>423.2</ele>
        <time>2023-08-20T10:36:09Z</time>
      </trkpt>
      <trkpt lat="44.64197" lon="2.3372">
        <ele>422.6</ele>
        <time>2023-08-20T10:36:10Z</time>
      </trkpt>
      <trkpt lat="44.64194" lon="2.33732">
        <ele>421.8</ele>
        <time>2023-08-20T10:36:11Z</time>
      </trkpt>
      <trkpt lat="44.64192" lon="2.33744">
        <ele>421</ele>
        <time>2023-08-20T10:36:12Z</time>
      </trkpt>
      <trkpt lat="44.64191" lon="2.33754">
        <ele>420</ele>
        <time>2023-08-20T10:36:13Z</time>
      </trkpt>
      <trkpt lat="44.64191" lon="2.33764">
        <ele>419.2</ele>
        <time>2023-08-20T10:36:14Z</time>
      </trkpt>
      <trkpt lat="44.64192" lon="2.33772">
        <ele>418.2</ele>
        <time>2023-08-20T10:36:15Z</time>
      </trkpt>
      <trkpt lat="44.64194" lon="2.33779">
        <ele>417.4</ele>
        <time>2023-08-20T10:36:16Z</time>
      </trkpt>
      <trkpt lat="44.642" lon="2.33785">
        <ele>416</ele>
        <time>2023-08-20T10:36:17Z</time>
      </trkpt>
      <trkpt lat="44.64206" lon="2.3379">
        <ele>415.4</ele>
        <time>2023-08-20T10:36:18Z</time>
      </trkpt>
      <trkpt lat="44.64211" lon="2.33795">
        <ele>414.4</ele>
        <time>2023-08-20T10:36:19Z</time>
      </trkpt>
      <trkpt lat="44.64217" lon="2.33802">
        <ele>413.2</ele>
        <time>2023-08-20T10:36:20Z</time>
      </trkpt>
      <trkpt lat="44.6422" lon="2.33811">
        <ele>412.8</ele>
        <time>2023-08-20T10:36:21Z</time>
      </trkpt>
      <trkpt lat="44.64221" lon="2.33825">
        <ele>411.8</ele>
        <time>2023-08-20T10:36:22Z</time>
      </trkpt>
      <trkpt lat="44.64221" lon="2.33841">
        <ele>411.2</ele>
        <time>2023-08-20T10:36:23Z</time>
      </trkpt>
      <trkpt lat="44.6422" lon="2.33856">
        <ele>410.2</ele>
        <time>2023-08-20T10:36:24Z</time>
      </trkpt>
      <trkpt lat="44.64221" lon="2.33873">
        <ele>409.8</ele>
        <time>2023-08-20T10:36:25Z</time>
      </trkpt>
      <trkpt lat="44.64222" lon="2.3389">
        <ele>409</ele>
        <time>2023-08-20T10:36:26Z</time>
      </trkpt>
      <trkpt lat="44.64226" lon="2.33921">
        <ele>408</ele>
        <time>2023-08-20T10:36:28Z</time>
      </trkpt>
      <trkpt lat="44.64231" lon="2.3395">
        <ele>406.6</ele>
        <time>2023-08-20T10:36:30Z</time>
      </trkpt>
      <trkpt lat="44.64234" lon="2.33964">
        <ele>406</ele>
        <time>2023-08-20T10:36:31Z</time>
      </trkpt>
      <trkpt lat="44.64241" lon="2.3399">
        <ele>404.2</ele>
        <time>2023-08-20T10:36:33Z</time>
      </trkpt>
      <trkpt lat="44.64245" lon="2.34003">
        <ele>403.8</ele>
        <time>2023-08-20T10:36:34Z</time>
      </trkpt>
      <trkpt lat="44.64248" lon="2.34016">
        <ele>402.4</ele>
        <time>2023-08-20T10:36:35Z</time>
      </trkpt>
      <trkpt lat="44.64251" lon="2.34028">
        <ele>402</ele>
        <time>2023-08-20T10:36:36Z</time>
      </trkpt>
      <trkpt lat="44.64254" lon="2.34042">
        <ele>400.4</ele>
        <time>2023-08-20T10:36:37Z</time>
      </trkpt>
      <trkpt lat="44.64257" lon="2.34056">
        <ele>399.4</ele>
        <time>2023-08-20T10:36:38Z</time>
      </trkpt>
      <trkpt lat="44.6426" lon="2.34069">
        <ele>398.8</ele>
        <time>2023-08-20T10:36:39Z</time>
      </trkpt>
      <trkpt lat="44.64262" lon="2.34083">
        <ele>397.4</ele>
        <time>2023-08-20T10:36:40Z</time>
      </trkpt>
      <trkpt lat="44.64263" lon="2.34096">
        <ele>396.8</ele>
        <time>2023-08-20T10:36:41Z</time>
      </trkpt>
      <trkpt lat="44.64265" lon="2.34109">
        <ele>396</ele>
        <time>2023-08-20T10:36:42Z</time>
      </trkpt>
      <trkpt lat="44.64267" lon="2.34123">
        <ele>395.6</ele>
        <time>2023-08-20T10:36:43Z</time>
      </trkpt>
      <trkpt lat="44.64268" lon="2.34136">
        <ele>394.4</ele>
        <time>2023-08-20T10:36:44Z</time>
      </trkpt>
      <trkpt lat="44.64269" lon="2.34149">
        <ele>393.8</ele>
        <time>2023-08-20T10:36:45Z</time>
      </trkpt>
      <trkpt lat="44.64271" lon="2.34163">
        <ele>392.6</ele>
        <time>2023-08-20T10:36:46Z</time>
      </trkpt>
      <trkpt lat="44.64271" lon="2.34176">
        <ele>391.8</ele>
        <time>2023-08-20T10:36:47Z</time>
      </trkpt>
      <trkpt lat="44.64273" lon="2.3419">
        <ele>391.2</ele>
        <time>2023-08-20T10:36:48Z</time>
      </trkpt>
      <trkpt lat="44.64275" lon="2.34201">
        <ele>389.8</ele>
        <time>2023-08-20T10:36:49Z</time>
      </trkpt>
      <trkpt lat="44.64283" lon="2.34223">
        <ele>388</ele>
        <time>2023-08-20T10:36:51Z</time>
      </trkpt>
      <trkpt lat="44.64287" lon="2.34232">
        <ele>387.2</ele>
        <time>2023-08-20T10:36:52Z</time>
      </trkpt>
      <trkpt lat="44.64289" lon="2.34239">
        <ele>386.2</ele>
        <time>2023-08-20T10:36:53Z</time>
      </trkpt>
      <trkpt lat="44.6429" lon="2.34244">
        <ele>385.8</ele>
        <time>2023-08-20T10:36:54Z</time>
      </trkpt>
      <trkpt lat="44.64291" lon="2.34248">
        <ele>384.6</ele>
        <time>2023-08-20T10:36:55Z</time>
      </trkpt>
      <trkpt lat="44.64292" lon="2.34251">
        <ele>383.2</ele>
        <time>2023-08-20T10:36:56Z</time>
      </trkpt>
      <trkpt lat="44.64293" lon="2.34255">
        <ele>382.4</ele>
        <time>2023-08-20T10:36:57Z</time>
      </trkpt>
      <trkpt lat="44.64293" lon="2.34259">
        <ele>381.2</ele>
        <time>2023-08-20T10:36:58Z</time>
      </trkpt>
      <trkpt lat="44.64293" lon="2.34263">
        <ele>380.6</ele>
        <time>2023-08-20T10:36:59Z</time>
      </trkpt>
      <trkpt lat="44.64293" lon="2.34267">
        <ele>379.8</ele>
        <time>2023-08-20T10:37:00Z</time>
      </trkpt>
      <trkpt lat="44.64292" lon="2.34271">
        <ele>379.4</ele>
        <time>2023-08-20T10:37:01Z</time>
      </trkpt>
      <trkpt lat="44.64291" lon="2.34275">
        <ele>378.6</ele>
        <time>2023-08-20T10:37:02Z</time>
      </trkpt>
      <trkpt lat="44.6429" lon="2.34279">
        <ele>378.2</ele>
        <time>2023-08-20T10:37:03Z</time>
      </trkpt>
      <trkpt lat="44.6429" lon="2.34284">
        <ele>377.4</ele>
        <time>2023-08-20T10:37:04Z</time>
      </trkpt>
      <trkpt lat="44.64292" lon="2.34293">
        <ele>376.6</ele>
        <time>2023-08-20T10:37:06Z</time>
      </trkpt>
      <trkpt lat="44.64293" lon="2.34298">
        <ele>376</ele>
        <time>2023-08-20T10:37:07Z</time>
      </trkpt>
      <trkpt lat="44.64294" lon="2.34302">
        <ele>375.6</ele>
        <time>2023-08-20T10:37:08Z</time>
      </trkpt>
      <trkpt lat="44.64297" lon="2.34315">
        <ele>375.2</ele>
        <time>2023-08-20T10:37:11Z</time>
      </trkpt>
      <trkpt lat="44.643" lon="2.34327">
        <ele>375.2</ele>
        <time>2023-08-20T10:37:14Z</time>
      </trkpt>
      <trkpt lat="44.64303" lon="2.34341">
        <ele>375.2</ele>
        <time>2023-08-20T10:37:17Z</time>
      </trkpt>
      <trkpt lat="44.64308" lon="2.34369">
        <ele>375.6</ele>
        <time>2023-08-20T10:37:22Z</time>
      </trkpt>
      <trkpt lat="44.64309" lon="2.34375">
        <ele>375.8</ele>
        <time>2023-08-20T10:37:23Z</time>
      </trkpt>
      <trkpt lat="44.64311" lon="2.34389">
        <ele>376</ele>
        <time>2023-08-20T10:37:25Z</time>
      </trkpt>
      <trkpt lat="44.64312" lon="2.34395">
        <ele>376.2</ele>
        <time>2023-08-20T10:37:26Z</time>
      </trkpt>
      <trkpt lat="44.64314" lon="2.344">
        <ele>376.4</ele>
        <time>2023-08-20T10:37:27Z</time>
      </trkpt>
      <trkpt lat="44.64316" lon="2.34403">
        <ele>376.6</ele>
        <time>2023-08-20T10:37:28Z</time>
      </trkpt>
      <trkpt lat="44.64318" lon="2.34403">
        <ele>377</ele>
        <time>2023-08-20T10:37:29Z</time>
      </trkpt>
      <trkpt lat="44.64321" lon="2.34401">
        <ele>377.6</ele>
        <time>2023-08-20T10:37:30Z</time>
      </trkpt>
      <trkpt lat="44.64323" lon="2.34397">
        <ele>378</ele>
        <time>2023-08-20T10:37:31Z</time>
      </trkpt>
      <trkpt lat="44.64324" lon="2.34389">
        <ele>379</ele>
        <time>2023-08-20T10:37:32Z</time>
      </trkpt>
      <trkpt lat="44.64327" lon="2.34369">
        <ele>379.8</ele>
        <time>2023-08-20T10:37:34Z</time>
      </trkpt>
      <trkpt lat="44.64328" lon="2.3436">
        <ele>380</ele>
        <time>2023-08-20T10:37:35Z</time>
      </trkpt>
      <trkpt lat="44.64329" lon="2.34347">
        <ele>381.2</ele>
        <time>2023-08-20T10:37:36Z</time>
      </trkpt>
      <trkpt lat="44.64329" lon="2.34327">
        <ele>382.6</ele>
        <time>2023-08-20T10:37:38Z</time>
      </trkpt>
      <trkpt lat="44.64329" lon="2.34322">
        <ele>384</ele>
        <time>2023-08-20T10:37:39Z</time>
      </trkpt>
      <trkpt lat="44.64329" lon="2.34314">
        <ele>384.8</ele>
        <time>2023-08-20T10:37:40Z</time>
      </trkpt>
      <trkpt lat="44.64329" lon="2.34308">
        <ele>385.8</ele>
        <time>2023-08-20T10:37:41Z</time>
      </trkpt>
      <trkpt lat="44.64329" lon="2.34303">
        <ele>386.4</ele>
        <time>2023-08-20T10:37:42Z</time>
      </trkpt>
      <trkpt lat="44.64328" lon="2.34299">
        <ele>387.6</ele>
        <time>2023-08-20T10:37:43Z</time>
      </trkpt>
      <trkpt lat="44.64328" lon="2.34295">
        <ele>388.2</ele>
        <time>2023-08-20T10:37:44Z</time>
      </trkpt>
      <trkpt lat="44.64328" lon="2.34291">
        <ele>389.2</ele>
        <time>2023-08-20T10:37:45Z</time>
      </trkpt>
      <trkpt lat="44.6433" lon="2.34288">
        <ele>389.6</ele>
        <time>2023-08-20T10:37:46Z</time>
      </trkpt>
      <trkpt lat="44.64333" lon="2.34289">
        <ele>390.6</ele>
        <time>2023-08-20T10:37:47Z</time>
      </trkpt>
      <trkpt lat="44.64335" lon="2.34292">
        <ele>391.6</ele>
        <time>2023-08-20T10:37:48Z</time>
      </trkpt>
      <trkpt lat="44.64336" lon="2.34297">
        <ele>392.2</ele>
        <time>2023-08-20T10:37:49Z</time>
      </trkpt>
      <trkpt lat="44.64338" lon="2.34304">
        <ele>392.6</ele>
        <time>2023-08-20T10:37:50Z</time>
      </trkpt>
      <trkpt lat="44.64339" lon="2.34313">
        <ele>392.8</ele>
        <time>2023-08-20T10:37:51Z</time>
      </trkpt>
      <trkpt lat="44.64341" lon="2.34322">
        <ele>393.2</ele>
        <time>2023-08-20T10:37:52Z</time>
      </trkpt>
      <trkpt lat="44.64343" lon="2.34331">
        <ele>393.6</ele>
        <time>2023-08-20T10:37:53Z</time>
      </trkpt>
      <trkpt lat="44.64345" lon="2.34339">
        <ele>394.4</ele>
        <time>2023-08-20T10:37:54Z</time>
      </trkpt>
      <trkpt lat="44.64348" lon="2.34346">
        <ele>394.8</ele>
        <time>2023-08-20T10:37:55Z</time>
      </trkpt>
      <trkpt lat="44.64351" lon="2.34352">
        <ele>395.6</ele>
        <time>2023-08-20T10:37:56Z</time>
      </trkpt>
      <trkpt lat="44.64353" lon="2.34357">
        <ele>396.2</ele>
        <time>2023-08-20T10:37:57Z</time>
      </trkpt>
      <trkpt lat="44.64353" lon="2.34362">
        <ele>396.6</ele>
        <time>2023-08-20T10:37:58Z</time>
      </trkpt>
      <trkpt lat="44.64353" lon="2.34367">
        <ele>397.4</ele>
        <time>2023-08-20T10:37:59Z</time>
      </trkpt>
      <trkpt lat="44.64353" lon="2.34374">
        <ele>397.8</ele>
        <time>2023-08-20T10:38:00Z</time>
      </trkpt>
      <trkpt lat="44.64352" lon="2.34381">
        <ele>398.6</ele>
        <time>2023-08-20T10:38:01Z</time>
      </trkpt>
      <trkpt lat="44.64351" lon="2.34388">
        <ele>399.2</ele>
        <time>2023-08-20T10:38:02Z</time>
      </trkpt>
      <trkpt lat="44.64351" lon="2.34395">
        <ele>400.2</ele>
        <time>2023-08-20T10:38:03Z</time>
      </trkpt>
      <trkpt lat="44.6435" lon="2.34401">
        <ele>400.6</ele>
        <time>2023-08-20T10:38:04Z</time>
      </trkpt>
      <trkpt lat="44.64349" lon="2.34406">
        <ele>401</ele>
        <time>2023-08-20T10:38:05Z</time>
      </trkpt>
      <trkpt lat="44.64348" lon="2.34408">
        <ele>401.2</ele>
        <time>2023-08-20T10:38:06Z</time>
      </trkpt>
      <trkpt lat="44.64348" lon="2.34411">
        <ele>401.2</ele>
        <time>2023-08-20T10:38:07Z</time>
      </trkpt>
      <trkpt lat="44.64348" lon="2.34414">
        <ele>401.2</ele>
        <time>2023-08-20T10:38:08Z</time>
      </trkpt>
      <trkpt lat="44.64347" lon="2.34418">
        <ele>401.2</ele>
        <time>2023-08-20T10:38:09Z</time>
      </trkpt>
      <trkpt lat="44.64347" lon="2.34421">
        <ele>401.2</ele>
        <time>2023-08-20T10:38:10Z</time>
      </trkpt>
      <trkpt lat="44.64346" lon="2.34425">
        <ele>401.2</ele>
        <time>2023-08-20T10:38:11Z</time>
      </trkpt>
      <trkpt lat="44.64346" lon="2.34428">
        <ele>400.8</ele>
        <time>2023-08-20T10:38:12Z</time>
      </trkpt>
      <trkpt lat="44.64346" lon="2.34432">
        <ele>400.8</ele>
        <time>2023-08-20T10:38:13Z</time>
      </trkpt>
      <trkpt lat="44.64345" lon="2.34436">
        <ele>400.6</ele>
        <time>2023-08-20T10:38:14Z</time>
      </trkpt>
      <trkpt lat="44.64345" lon="2.34439">
        <ele>400</ele>
        <time>2023-08-20T10:38:15Z</time>
      </trkpt>
      <trkpt lat="44.64345" lon="2.34441">
        <ele>399.8</ele>
        <time>2023-08-20T10:38:16Z</time>
      </trkpt>
      <trkpt lat="44.64345" lon="2.34443">
        <ele>399.6</ele>
        <time>2023-08-20T10:38:17Z</time>
      </trkpt>
      <trkpt lat="44.64345" lon="2.34444">
        <ele>399.4</ele>
        <time>2023-08-20T10:38:18Z</time>
      </trkpt>
      <trkpt lat="44.64344" lon="2.34446">
        <ele>399</ele>
        <time>2023-08-20T10:38:19Z</time>
      </trkpt>
      <trkpt lat="44.64344" lon="2.34446">
        <ele>398.8</ele>
        <time>2023-08-20T10:38:20Z</time>
      </trkpt>
      <trkpt lat="44.64344" lon="2.34446">
        <ele>398.6</ele>
        <time>2023-08-20T10:38:21Z</time>
      </trkpt>
      <trkpt lat="44.64344" lon="2.34452">
        <ele>398.2</ele>
        <time>2023-08-20T10:38:24Z</time>
      </trkpt>
      <trkpt lat="44.64344" lon="2.34454">
        <ele>398.2</ele>
        <time>2023-08-20T10:38:25Z</time>
      </trkpt>
      <trkpt lat="44.64345" lon="2.34455">
        <ele>398</ele>
        <time>2023-08-20T10:38:26Z</time>
      </trkpt>
      <trkpt lat="44.64346" lon="2.34455">
        <ele>398</ele>
        <time>2023-08-20T10:38:27Z</time>
      </trkpt>
      <trkpt lat="44.64347" lon="2.34454">
        <ele>397.8</ele>
        <time>2023-08-20T10:38:28Z</time>
      </trkpt>
      <trkpt lat="44.64347" lon="2.34452">
        <ele>397.8</ele>
        <time>2023-08-20T10:38:29Z</time>
      </trkpt>
      <trkpt lat="44.64347" lon="2.3445">
        <ele>397.8</ele>
        <time>2023-08-20T10:38:30Z</time>
      </trkpt>
      <trkpt lat="44.64347" lon="2.34449">
        <ele>397.8</ele>
        <time>2023-08-20T10:38:31Z</time>
      </trkpt>
      <trkpt lat="44.64346" lon="2.34449">
        <ele>397.8</ele>
        <time>2023-08-20T10:38:32Z</time>
      </trkpt>
      <trkpt lat="44.64346" lon="2.34449">
        <ele>397.8</ele>
        <time>2023-08-20T10:38:33Z</time>
      </trkpt>
      <trkpt lat="44.64346" lon="2.34449">
        <ele>397.6</ele>
        <time>2023-08-20T10:38:35Z</time>
      </trkpt>
      <trkpt lat="44.64345" lon="2.3445">
        <ele>398.8</ele>
        <time>2023-08-20T10:39:18Z</time>
      </trkpt>
      <trkpt lat="44.64344" lon="2.34451">
        <ele>398.8</ele>
        <time>2023-08-20T10:39:19Z</time>
      </trkpt>
      <trkpt lat="44.64343" lon="2.34453">
        <ele>398.8</ele>
        <time>2023-08-20T10:39:20Z</time>
      </trkpt>
      <trkpt lat="44.64342" lon="2.34455">
        <ele>399</ele>
        <time>2023-08-20T10:39:21Z</time>
      </trkpt>
      <trkpt lat="44.64341" lon="2.34464">
        <ele>399</ele>
        <time>2023-08-20T10:39:23Z</time>
      </trkpt>
      <trkpt lat="44.64341" lon="2.3447">
        <ele>399</ele>
        <time>2023-08-20T10:39:24Z</time>
      </trkpt>
      <trkpt lat="44.64339" lon="2.34476">
        <ele>399</ele>
        <time>2023-08-20T10:39:25Z</time>
      </trkpt>
      <trkpt lat="44.64338" lon="2.34482">
        <ele>399.2</ele>
        <time>2023-08-20T10:39:26Z</time>
      </trkpt>
      <trkpt lat="44.64337" lon="2.34491">
        <ele>399.2</ele>
        <time>2023-08-20T10:39:28Z</time>
      </trkpt>
      <trkpt lat="44.64338" lon="2.34492">
        <ele>399.2</ele>
        <time>2023-08-20T10:39:29Z</time>
      </trkpt>
      <trkpt lat="44.64339" lon="2.34492">
        <ele>399.2</ele>
        <time>2023-08-20T10:39:30Z</time>
      </trkpt>
      <trkpt lat="44.6434" lon="2.34491">
        <ele>399.2</ele>
        <time>2023-08-20T10:39:31Z</time>
      </trkpt>
      <trkpt lat="44.6434" lon="2.34489">
        <ele>399.2</ele>
        <time>2023-08-20T10:39:32Z</time>
      </trkpt>
      <trkpt lat="44.64339" lon="2.34487">
        <ele>399.2</ele>
        <time>2023-08-20T10:39:33Z</time>
      </trkpt>
      <trkpt lat="44.64341" lon="2.34469">
        <ele>398.8</ele>
        <time>2023-08-20T10:39:37Z</time>
      </trkpt>
      <trkpt lat="44.64342" lon="2.34464">
        <ele>398.6</ele>
        <time>2023-08-20T10:39:38Z</time>
      </trkpt>
      <trkpt lat="44.64344" lon="2.3446">
        <ele>398.6</ele>
        <time>2023-08-20T10:39:39Z</time>
      </trkpt>
      <trkpt lat="44.64344" lon="2.34457">
        <ele>398.6</ele>
        <time>2023-08-20T10:39:40Z</time>
      </trkpt>
      <trkpt lat="44.64345" lon="2.34456">
        <ele>398.6</ele>
        <time>2023-08-20T10:39:41Z</time>
      </trkpt>
      <trkpt lat="44.64345" lon="2.34456">
        <ele>398.6</ele>
        <time>2023-08-20T10:39:42Z</time>
      </trkpt>
      <trkpt lat="44.64345" lon="2.34456">
        <ele>398.6</ele>
        <time>2023-08-20T10:39:43Z</time>
      </trkpt>
      <trkpt lat="44.64345" lon="2.34453">
        <ele>399.6</ele>
        <time>2023-08-20T10:48:45Z</time>
      </trkpt>
      <trkpt lat="44.64344" lon="2.3445">
        <ele>399.6</ele>
        <time>2023-08-20T10:48:46Z</time>
      </trkpt>
      <trkpt lat="44.64344" lon="2.34445">
        <ele>399.6</ele>
        <time>2023-08-20T10:48:47Z</time>
      </trkpt>
      <trkpt lat="44.64345" lon="2.34429">
        <ele>399.6</ele>
        <time>2023-08-20T10:48:50Z</time>
      </trkpt>
      <trkpt lat="44.64346" lon="2.34422">
        <ele>399.8</ele>
        <time>2023-08-20T10:48:51Z</time>
      </trkpt>
      <trkpt lat="44.64347" lon="2.34414">
        <ele>400</ele>
        <time>2023-08-20T10:48:52Z</time>
      </trkpt>
      <trkpt lat="44.64351" lon="2.3438">
        <ele>400.6</ele>
        <time>2023-08-20T10:48:56Z</time>
      </trkpt>
      <trkpt lat="44.64352" lon="2.34373">
        <ele>401</ele>
        <time>2023-08-20T10:48:57Z</time>
      </trkpt>
      <trkpt lat="44.64352" lon="2.34367">
        <ele>401.2</ele>
        <time>2023-08-20T10:48:58Z</time>
      </trkpt>
      <trkpt lat="44.64353" lon="2.34362">
        <ele>401.8</ele>
        <time>2023-08-20T10:48:59Z</time>
      </trkpt>
      <trkpt lat="44.64354" lon="2.34357">
        <ele>402</ele>
        <time>2023-08-20T10:49:00Z</time>
      </trkpt>
      <trkpt lat="44.64353" lon="2.34352">
        <ele>402.4</ele>
        <time>2023-08-20T10:49:01Z</time>
      </trkpt>
      <trkpt lat="44.64351" lon="2.34348">
        <ele>402.6</ele>
        <time>2023-08-20T10:49:02Z</time>
      </trkpt>
      <trkpt lat="44.64349" lon="2.34343">
        <ele>402.6</ele>
        <time>2023-08-20T10:49:03Z</time>
      </trkpt>
      <trkpt lat="44.64346" lon="2.34338">
        <ele>402.8</ele>
        <time>2023-08-20T10:49:04Z</time>
      </trkpt>
      <trkpt lat="44.64344" lon="2.34331">
        <ele>402.8</ele>
        <time>2023-08-20T10:49:05Z</time>
      </trkpt>
      <trkpt lat="44.64342" lon="2.34325">
        <ele>402.8</ele>
        <time>2023-08-20T10:49:06Z</time>
      </trkpt>
      <trkpt lat="44.64341" lon="2.34318">
        <ele>402.8</ele>
        <time>2023-08-20T10:49:07Z</time>
      </trkpt>
      <trkpt lat="44.6434" lon="2.34311">
        <ele>402.8</ele>
        <time>2023-08-20T10:49:08Z</time>
      </trkpt>
      <trkpt lat="44.64339" lon="2.34305">
        <ele>402.6</ele>
        <time>2023-08-20T10:49:09Z</time>
      </trkpt>
      <trkpt lat="44.64338" lon="2.343">
        <ele>402</ele>
        <time>2023-08-20T10:49:10Z</time>
      </trkpt>
      <trkpt lat="44.64338" lon="2.34296">
        <ele>401.8</ele>
        <time>2023-08-20T10:49:11Z</time>
      </trkpt>
      <trkpt lat="44.64337" lon="2.34292">
        <ele>401.6</ele>
        <time>2023-08-20T10:49:12Z</time>
      </trkpt>
      <trkpt lat="44.64336" lon="2.34289">
        <ele>400.8</ele>
        <time>2023-08-20T10:49:13Z</time>
      </trkpt>
      <trkpt lat="44.64334" lon="2.34285">
        <ele>400.6</ele>
        <time>2023-08-20T10:49:14Z</time>
      </trkpt>
      <trkpt lat="44.64332" lon="2.34284">
        <ele>400</ele>
        <time>2023-08-20T10:49:15Z</time>
      </trkpt>
      <trkpt lat="44.6433" lon="2.34285">
        <ele>399.6</ele>
        <time>2023-08-20T10:49:16Z</time>
      </trkpt>
      <trkpt lat="44.64328" lon="2.34293">
        <ele>398.4</ele>
        <time>2023-08-20T10:49:18Z</time>
      </trkpt>
      <trkpt lat="44.64328" lon="2.34299">
        <ele>397.8</ele>
        <time>2023-08-20T10:49:19Z</time>
      </trkpt>
      <trkpt lat="44.64329" lon="2.34306">
        <ele>397.4</ele>
        <time>2023-08-20T10:49:20Z</time>
      </trkpt>
      <trkpt lat="44.64329" lon="2.34315">
        <ele>397.2</ele>
        <time>2023-08-20T10:49:21Z</time>
      </trkpt>
      <trkpt lat="44.64329" lon="2.34322">
        <ele>397</ele>
        <time>2023-08-20T10:49:22Z</time>
      </trkpt>
      <trkpt lat="44.64329" lon="2.3433">
        <ele>396.6</ele>
        <time>2023-08-20T10:49:23Z</time>
      </trkpt>
      <trkpt lat="44.64329" lon="2.34337">
        <ele>396.2</ele>
        <time>2023-08-20T10:49:24Z</time>
      </trkpt>
      <trkpt lat="44.64329" lon="2.34344">
        <ele>395.6</ele>
        <time>2023-08-20T10:49:25Z</time>
      </trkpt>
      <trkpt lat="44.64329" lon="2.34351">
        <ele>395</ele>
        <time>2023-08-20T10:49:26Z</time>
      </trkpt>
      <trkpt lat="44.6433" lon="2.34357">
        <ele>394.8</ele>
        <time>2023-08-20T10:49:27Z</time>
      </trkpt>
      <trkpt lat="44.6433" lon="2.34363">
        <ele>393.8</ele>
        <time>2023-08-20T10:49:28Z</time>
      </trkpt>
      <trkpt lat="44.6433" lon="2.34369">
        <ele>392.6</ele>
        <time>2023-08-20T10:49:29Z</time>
      </trkpt>
      <trkpt lat="44.6433" lon="2.34375">
        <ele>392.2</ele>
        <time>2023-08-20T10:49:30Z</time>
      </trkpt>
      <trkpt lat="44.6433" lon="2.3438">
        <ele>391.6</ele>
        <time>2023-08-20T10:49:31Z</time>
      </trkpt>
      <trkpt lat="44.6433" lon="2.34385">
        <ele>391.4</ele>
        <time>2023-08-20T10:49:32Z</time>
      </trkpt>
      <trkpt lat="44.64329" lon="2.34389">
        <ele>390.6</ele>
        <time>2023-08-20T10:49:33Z</time>
      </trkpt>
      <trkpt lat="44.64328" lon="2.34394">
        <ele>390.2</ele>
        <time>2023-08-20T10:49:34Z</time>
      </trkpt>
      <trkpt lat="44.64327" lon="2.34398">
        <ele>389.6</ele>
        <time>2023-08-20T10:49:35Z</time>
      </trkpt>
      <trkpt lat="44.64325" lon="2.34402">
        <ele>389.2</ele>
        <time>2023-08-20T10:49:36Z</time>
      </trkpt>
      <trkpt lat="44.64322" lon="2.34403">
        <ele>388.2</ele>
        <time>2023-08-20T10:49:37Z</time>
      </trkpt>
      <trkpt lat="44.6432" lon="2.34403">
        <ele>387.4</ele>
        <time>2023-08-20T10:49:38Z</time>
      </trkpt>
      <trkpt lat="44.64318" lon="2.34401">
        <ele>387</ele>
        <time>2023-08-20T10:49:39Z</time>
      </trkpt>
      <trkpt lat="44.64316" lon="2.34398">
        <ele>386.4</ele>
        <time>2023-08-20T10:49:40Z</time>
      </trkpt>
      <trkpt lat="44.64315" lon="2.34393">
        <ele>386.2</ele>
        <time>2023-08-20T10:49:41Z</time>
      </trkpt>
      <trkpt lat="44.64314" lon="2.34385">
        <ele>385.6</ele>
        <time>2023-08-20T10:49:42Z</time>
      </trkpt>
      <trkpt lat="44.64312" lon="2.34369">
        <ele>384.8</ele>
        <time>2023-08-20T10:49:44Z</time>
      </trkpt>
      <trkpt lat="44.64311" lon="2.34359">
        <ele>384.6</ele>
        <time>2023-08-20T10:49:45Z</time>
      </trkpt>
      <trkpt lat="44.64307" lon="2.34334">
        <ele>383.2</ele>
        <time>2023-08-20T10:49:47Z</time>
      </trkpt>
      <trkpt lat="44.64302" lon="2.34315">
        <ele>381.8</ele>
        <time>2023-08-20T10:49:49Z</time>
      </trkpt>
      <trkpt lat="44.643" lon="2.34302">
        <ele>381.4</ele>
        <time>2023-08-20T10:49:50Z</time>
      </trkpt>
      <trkpt lat="44.64297" lon="2.34293">
        <ele>380.8</ele>
        <time>2023-08-20T10:49:51Z</time>
      </trkpt>
      <trkpt lat="44.64295" lon="2.34283">
        <ele>380.4</ele>
        <time>2023-08-20T10:49:52Z</time>
      </trkpt>
      <trkpt lat="44.64292" lon="2.34273">
        <ele>380</ele>
        <time>2023-08-20T10:49:53Z</time>
      </trkpt>
      <trkpt lat="44.6429" lon="2.34266">
        <ele>379.6</ele>
        <time>2023-08-20T10:49:54Z</time>
      </trkpt>
      <trkpt lat="44.64284" lon="2.34245">
        <ele>379.2</ele>
        <time>2023-08-20T10:49:56Z</time>
      </trkpt>
      <trkpt lat="44.64279" lon="2.34235">
        <ele>379</ele>
        <time>2023-08-20T10:49:57Z</time>
      </trkpt>
      <trkpt lat="44.64273" lon="2.34225">
        <ele>378.4</ele>
        <time>2023-08-20T10:49:58Z</time>
      </trkpt>
      <trkpt lat="44.64268" lon="2.34217">
        <ele>378.4</ele>
        <time>2023-08-20T10:49:59Z</time>
      </trkpt>
      <trkpt lat="44.64256" lon="2.34194">
        <ele>377.6</ele>
        <time>2023-08-20T10:50:01Z</time>
      </trkpt>
      <trkpt lat="44.64251" lon="2.34183">
        <ele>376.6</ele>
        <time>2023-08-20T10:50:02Z</time>
      </trkpt>
      <trkpt lat="44.64248" lon="2.34174">
        <ele>376</ele>
        <time>2023-08-20T10:50:03Z</time>
      </trkpt>
      <trkpt lat="44.64245" lon="2.34161">
        <ele>375.6</ele>
        <time>2023-08-20T10:50:04Z</time>
      </trkpt>
      <trkpt lat="44.64236" lon="2.34119">
        <ele>374</ele>
        <time>2023-08-20T10:50:07Z</time>
      </trkpt>
      <trkpt lat="44.64233" lon="2.34108">
        <ele>373.8</ele>
        <time>2023-08-20T10:50:08Z</time>
      </trkpt>
      <trkpt lat="44.64216" lon="2.34059">
        <ele>372.8</ele>
        <time>2023-08-20T10:50:11Z</time>
      </trkpt>
      <trkpt lat="44.64209" lon="2.34042">
        <ele>372.8</ele>
        <time>2023-08-20T10:50:12Z</time>
      </trkpt>
      <trkpt lat="44.64186" lon="2.33991">
        <ele>372.6</ele>
        <time>2023-08-20T10:50:15Z</time>
      </trkpt>
      <trkpt lat="44.64165" lon="2.33959">
        <ele>372.4</ele>
        <time>2023-08-20T10:50:17Z</time>
      </trkpt>
      <trkpt lat="44.64158" lon="2.3395">
        <ele>372.2</ele>
        <time>2023-08-20T10:50:18Z</time>
      </trkpt>
      <trkpt lat="44.64147" lon="2.33942">
        <ele>372.2</ele>
        <time>2023-08-20T10:50:19Z</time>
      </trkpt>
      <trkpt lat="44.64135" lon="2.33937">
        <ele>372</ele>
        <time>2023-08-20T10:50:20Z</time>
      </trkpt>
      <trkpt lat="44.64122" lon="2.33934">
        <ele>371</ele>
        <time>2023-08-20T10:50:21Z</time>
      </trkpt>
      <trkpt lat="44.64109" lon="2.3393">
        <ele>370.6</ele>
        <time>2023-08-20T10:50:22Z</time>
      </trkpt>
      <trkpt lat="44.64097" lon="2.33925">
        <ele>369.6</ele>
        <time>2023-08-20T10:50:23Z</time>
      </trkpt>
      <trkpt lat="44.64087" lon="2.33917">
        <ele>369.4</ele>
        <time>2023-08-20T10:50:24Z</time>
      </trkpt>
      <trkpt lat="44.64078" lon="2.33907">
        <ele>368.8</ele>
        <time>2023-08-20T10:50:25Z</time>
      </trkpt>
      <trkpt lat="44.64068" lon="2.33894">
        <ele>368.2</ele>
        <time>2023-08-20T10:50:26Z</time>
      </trkpt>
      <trkpt lat="44.64061" lon="2.33882">
        <ele>366.8</ele>
        <time>2023-08-20T10:50:27Z</time>
      </trkpt>
      <trkpt lat="44.64056" lon="2.33871">
        <ele>366.2</ele>
        <time>2023-08-20T10:50:28Z</time>
      </trkpt>
      <trkpt lat="44.64051" lon="2.33857">
        <ele>365.2</ele>
        <time>2023-08-20T10:50:29Z</time>
      </trkpt>
      <trkpt lat="44.64047" lon="2.33839">
        <ele>364.4</ele>
        <time>2023-08-20T10:50:30Z</time>
      </trkpt>
      <trkpt lat="44.64045" lon="2.33826">
        <ele>364</ele>
        <time>2023-08-20T10:50:31Z</time>
      </trkpt>
      <trkpt lat="44.64043" lon="2.3381">
        <ele>362.8</ele>
        <time>2023-08-20T10:50:32Z</time>
      </trkpt>
      <trkpt lat="44.64042" lon="2.33793">
        <ele>362.4</ele>
        <time>2023-08-20T10:50:33Z</time>
      </trkpt>
      <trkpt lat="44.64042" lon="2.33775">
        <ele>361</ele>
        <time>2023-08-20T10:50:34Z</time>
      </trkpt>
      <trkpt lat="44.64046" lon="2.3374">
        <ele>359.4</ele>
        <time>2023-08-20T10:50:36Z</time>
      </trkpt>
      <trkpt lat="44.64053" lon="2.33704">
        <ele>358.8</ele>
        <time>2023-08-20T10:50:38Z</time>
      </trkpt>
      <trkpt lat="44.64058" lon="2.33686">
        <ele>357.8</ele>
        <time>2023-08-20T10:50:39Z</time>
      </trkpt>
      <trkpt lat="44.64067" lon="2.33649">
        <ele>356.6</ele>
        <time>2023-08-20T10:50:41Z</time>
      </trkpt>
      <trkpt lat="44.64074" lon="2.33612">
        <ele>355.4</ele>
        <time>2023-08-20T10:50:43Z</time>
      </trkpt>
      <trkpt lat="44.64081" lon="2.33551">
        <ele>354.2</ele>
        <time>2023-08-20T10:50:46Z</time>
      </trkpt>
      <trkpt lat="44.64081" lon="2.33532">
        <ele>353</ele>
        <time>2023-08-20T10:50:47Z</time>
      </trkpt>
      <trkpt lat="44.64079" lon="2.33512">
        <ele>352.4</ele>
        <time>2023-08-20T10:50:48Z</time>
      </trkpt>
      <trkpt lat="44.64076" lon="2.33492">
        <ele>352</ele>
        <time>2023-08-20T10:50:49Z</time>
      </trkpt>
      <trkpt lat="44.64073" lon="2.33473">
        <ele>350.8</ele>
        <time>2023-08-20T10:50:50Z</time>
      </trkpt>
      <trkpt lat="44.64069" lon="2.33453">
        <ele>350.2</ele>
        <time>2023-08-20T10:50:51Z</time>
      </trkpt>
      <trkpt lat="44.64063" lon="2.33436">
        <ele>349.2</ele>
        <time>2023-08-20T10:50:52Z</time>
      </trkpt>
      <trkpt lat="44.64057" lon="2.33419">
        <ele>348.8</ele>
        <time>2023-08-20T10:50:53Z</time>
      </trkpt>
      <trkpt lat="44.6405" lon="2.33402">
        <ele>347.6</ele>
        <time>2023-08-20T10:50:54Z</time>
      </trkpt>
      <trkpt lat="44.64044" lon="2.33386">
        <ele>347</ele>
        <time>2023-08-20T10:50:55Z</time>
      </trkpt>
      <trkpt lat="44.64039" lon="2.3337">
        <ele>345.2</ele>
        <time>2023-08-20T10:50:56Z</time>
      </trkpt>
      <trkpt lat="44.64033" lon="2.33354">
        <ele>343.8</ele>
        <time>2023-08-20T10:50:57Z</time>
      </trkpt>
      <trkpt lat="44.64028" lon="2.33337">
        <ele>343.4</ele>
        <time>2023-08-20T10:50:58Z</time>
      </trkpt>
      <trkpt lat="44.64023" lon="2.33319">
        <ele>342.2</ele>
        <time>2023-08-20T10:50:59Z</time>
      </trkpt>
      <trkpt lat="44.64014" lon="2.33282">
        <ele>341</ele>
        <time>2023-08-20T10:51:01Z</time>
      </trkpt>
      <trkpt lat="44.64004" lon="2.33241">
        <ele>339.4</ele>
        <time>2023-08-20T10:51:03Z</time>
      </trkpt>
      <trkpt lat="44.63995" lon="2.33201">
        <ele>338.2</ele>
        <time>2023-08-20T10:51:05Z</time>
      </trkpt>
      <trkpt lat="44.63985" lon="2.33163">
        <ele>337.2</ele>
        <time>2023-08-20T10:51:07Z</time>
      </trkpt>
      <trkpt lat="44.63981" lon="2.33145">
        <ele>336.2</ele>
        <time>2023-08-20T10:51:08Z</time>
      </trkpt>
      <trkpt lat="44.63975" lon="2.33128">
        <ele>335.8</ele>
        <time>2023-08-20T10:51:09Z</time>
      </trkpt>
      <trkpt lat="44.6397" lon="2.33111">
        <ele>334.6</ele>
        <time>2023-08-20T10:51:10Z</time>
      </trkpt>
      <trkpt lat="44.63963" lon="2.33095">
        <ele>333.8</ele>
        <time>2023-08-20T10:51:11Z</time>
      </trkpt>
      <trkpt lat="44.63956" lon="2.3308">
        <ele>332.4</ele>
        <time>2023-08-20T10:51:12Z</time>
      </trkpt>
      <trkpt lat="44.63948" lon="2.33067">
        <ele>331</ele>
        <time>2023-08-20T10:51:13Z</time>
      </trkpt>
      <trkpt lat="44.6394" lon="2.33057">
        <ele>330.4</ele>
        <time>2023-08-20T10:51:14Z</time>
      </trkpt>
      <trkpt lat="44.63931" lon="2.33049">
        <ele>329</ele>
        <time>2023-08-20T10:51:15Z</time>
      </trkpt>
      <trkpt lat="44.63921" lon="2.33043">
        <ele>328.2</ele>
        <time>2023-08-20T10:51:16Z</time>
      </trkpt>
      <trkpt lat="44.6391" lon="2.33037">
        <ele>327.2</ele>
        <time>2023-08-20T10:51:17Z</time>
      </trkpt>
      <trkpt lat="44.639" lon="2.3303">
        <ele>326.6</ele>
        <time>2023-08-20T10:51:18Z</time>
      </trkpt>
      <trkpt lat="44.63891" lon="2.33023">
        <ele>325.8</ele>
        <time>2023-08-20T10:51:19Z</time>
      </trkpt>
      <trkpt lat="44.63882" lon="2.33013">
        <ele>325.4</ele>
        <time>2023-08-20T10:51:20Z</time>
      </trkpt>
      <trkpt lat="44.63873" lon="2.33001">
        <ele>323.8</ele>
        <time>2023-08-20T10:51:21Z</time>
      </trkpt>
      <trkpt lat="44.63866" lon="2.32988">
        <ele>322.6</ele>
        <time>2023-08-20T10:51:22Z</time>
      </trkpt>
      <trkpt lat="44.6386" lon="2.32973">
        <ele>322.2</ele>
        <time>2023-08-20T10:51:23Z</time>
      </trkpt>
      <trkpt lat="44.63855" lon="2.32958">
        <ele>321.2</ele>
        <time>2023-08-20T10:51:24Z</time>
      </trkpt>
      <trkpt lat="44.63844" lon="2.32929">
        <ele>319.6</ele>
        <time>2023-08-20T10:51:26Z</time>
      </trkpt>
      <trkpt lat="44.63838" lon="2.32914">
        <ele>318.8</ele>
        <time>2023-08-20T10:51:27Z</time>
      </trkpt>
      <trkpt lat="44.6383" lon="2.32901">
        <ele>317.4</ele>
        <time>2023-08-20T10:51:28Z</time>
      </trkpt>
      <trkpt lat="44.6381" lon="2.32882">
        <ele>315</ele>
        <time>2023-08-20T10:51:30Z</time>
      </trkpt>
      <trkpt lat="44.63799" lon="2.32874">
        <ele>314.2</ele>
        <time>2023-08-20T10:51:31Z</time>
      </trkpt>
      <trkpt lat="44.63787" lon="2.32867">
        <ele>313.6</ele>
        <time>2023-08-20T10:51:32Z</time>
      </trkpt>
      <trkpt lat="44.63776" lon="2.3286">
        <ele>312.2</ele>
        <time>2023-08-20T10:51:33Z</time>
      </trkpt>
      <trkpt lat="44.63765" lon="2.32852">
        <ele>311.4</ele>
        <time>2023-08-20T10:51:34Z</time>
      </trkpt>
      <trkpt lat="44.63754" lon="2.32842">
        <ele>310.2</ele>
        <time>2023-08-20T10:51:35Z</time>
      </trkpt>
      <trkpt lat="44.63734" lon="2.32818">
        <ele>309.2</ele>
        <time>2023-08-20T10:51:37Z</time>
      </trkpt>
      <trkpt lat="44.63714" lon="2.32796">
        <ele>307.6</ele>
        <time>2023-08-20T10:51:39Z</time>
      </trkpt>
      <trkpt lat="44.63702" lon="2.32787">
        <ele>306</ele>
        <time>2023-08-20T10:51:40Z</time>
      </trkpt>
      <trkpt lat="44.63678" lon="2.32773">
        <ele>303.8</ele>
        <time>2023-08-20T10:51:42Z</time>
      </trkpt>
      <trkpt lat="44.63656" lon="2.32764">
        <ele>302.4</ele>
        <time>2023-08-20T10:51:44Z</time>
      </trkpt>
      <trkpt lat="44.63647" lon="2.32757">
        <ele>301.4</ele>
        <time>2023-08-20T10:51:45Z</time>
      </trkpt>
      <trkpt lat="44.63639" lon="2.32747">
        <ele>300.4</ele>
        <time>2023-08-20T10:51:46Z</time>
      </trkpt>
      <trkpt lat="44.63632" lon="2.32736">
        <ele>299.4</ele>
        <time>2023-08-20T10:51:47Z</time>
      </trkpt>
      <trkpt lat="44.63625" lon="2.32724">
        <ele>297.4</ele>
        <time>2023-08-20T10:51:48Z</time>
      </trkpt>
      <trkpt lat="44.6362" lon="2.32712">
        <ele>296.2</ele>
        <time>2023-08-20T10:51:49Z</time>
      </trkpt>
      <trkpt lat="44.63617" lon="2.32699">
        <ele>295.4</ele>
        <time>2023-08-20T10:51:50Z</time>
      </trkpt>
      <trkpt lat="44.63617" lon="2.32686">
        <ele>293.8</ele>
        <time>2023-08-20T10:51:51Z</time>
      </trkpt>
      <trkpt lat="44.63621" lon="2.32673">
        <ele>292.8</ele>
        <time>2023-08-20T10:51:52Z</time>
      </trkpt>
      <trkpt lat="44.63626" lon="2.32659">
        <ele>291.4</ele>
        <time>2023-08-20T10:51:53Z</time>
      </trkpt>
      <trkpt lat="44.63641" lon="2.32634">
        <ele>288.6</ele>
        <time>2023-08-20T10:51:55Z</time>
      </trkpt>
      <trkpt lat="44.63651" lon="2.32624">
        <ele>288</ele>
        <time>2023-08-20T10:51:56Z</time>
      </trkpt>
      <trkpt lat="44.63661" lon="2.32615">
        <ele>286.8</ele>
        <time>2023-08-20T10:51:57Z</time>
      </trkpt>
      <trkpt lat="44.63671" lon="2.32609">
        <ele>285.4</ele>
        <time>2023-08-20T10:51:58Z</time>
      </trkpt>
      <trkpt lat="44.63682" lon="2.32605">
        <ele>284.8</ele>
        <time>2023-08-20T10:51:59Z</time>
      </trkpt>
      <trkpt lat="44.63691" lon="2.32604">
        <ele>283.4</ele>
        <time>2023-08-20T10:52:00Z</time>
      </trkpt>
      <trkpt lat="44.63701" lon="2.32605">
        <ele>282.8</ele>
        <time>2023-08-20T10:52:01Z</time>
      </trkpt>
      <trkpt lat="44.6371" lon="2.32608">
        <ele>281.4</ele>
        <time>2023-08-20T10:52:02Z</time>
      </trkpt>
      <trkpt lat="44.63718" lon="2.32612">
        <ele>280.4</ele>
        <time>2023-08-20T10:52:03Z</time>
      </trkpt>
      <trkpt lat="44.63726" lon="2.32618">
        <ele>278.4</ele>
        <time>2023-08-20T10:52:04Z</time>
      </trkpt>
      <trkpt lat="44.63733" lon="2.32622">
        <ele>277.6</ele>
        <time>2023-08-20T10:52:05Z</time>
      </trkpt>
      <trkpt lat="44.6374" lon="2.32623">
        <ele>275.8</ele>
        <time>2023-08-20T10:52:06Z</time>
      </trkpt>
      <trkpt lat="44.63747" lon="2.3262">
        <ele>274.4</ele>
        <time>2023-08-20T10:52:07Z</time>
      </trkpt>
      <trkpt lat="44.63753" lon="2.32613">
        <ele>273.8</ele>
        <time>2023-08-20T10:52:08Z</time>
      </trkpt>
      <trkpt lat="44.63756" lon="2.326">
        <ele>272.6</ele>
        <time>2023-08-20T10:52:09Z</time>
      </trkpt>
      <trkpt lat="44.63758" lon="2.32582">
        <ele>272.2</ele>
        <time>2023-08-20T10:52:10Z</time>
      </trkpt>
      <trkpt lat="44.63759" lon="2.32563">
        <ele>271.4</ele>
        <time>2023-08-20T10:52:11Z</time>
      </trkpt>
      <trkpt lat="44.63762" lon="2.32545">
        <ele>271</ele>
        <time>2023-08-20T10:52:12Z</time>
      </trkpt>
      <trkpt lat="44.63766" lon="2.32528">
        <ele>270.4</ele>
        <time>2023-08-20T10:52:13Z</time>
      </trkpt>
      <trkpt lat="44.63772" lon="2.32513">
        <ele>270.2</ele>
        <time>2023-08-20T10:52:14Z</time>
      </trkpt>
      <trkpt lat="44.63787" lon="2.32485">
        <ele>269.4</ele>
        <time>2023-08-20T10:52:16Z</time>
      </trkpt>
      <trkpt lat="44.63795" lon="2.32473">
        <ele>269.4</ele>
        <time>2023-08-20T10:52:17Z</time>
      </trkpt>
      <trkpt lat="44.63804" lon="2.32463">
        <ele>269</ele>
        <time>2023-08-20T10:52:18Z</time>
      </trkpt>
      <trkpt lat="44.63826" lon="2.32445">
        <ele>267</ele>
        <time>2023-08-20T10:52:20Z</time>
      </trkpt>
      <trkpt lat="44.63852" lon="2.32433">
        <ele>265.4</ele>
        <time>2023-08-20T10:52:22Z</time>
      </trkpt>
      <trkpt lat="44.63864" lon="2.3243">
        <ele>264.2</ele>
        <time>2023-08-20T10:52:23Z</time>
      </trkpt>
      <trkpt lat="44.63874" lon="2.3243">
        <ele>263.4</ele>
        <time>2023-08-20T10:52:24Z</time>
      </trkpt>
      <trkpt lat="44.63886" lon="2.32432">
        <ele>262</ele>
        <time>2023-08-20T10:52:25Z</time>
      </trkpt>
      <trkpt lat="44.63898" lon="2.32435">
        <ele>261</ele>
        <time>2023-08-20T10:52:26Z</time>
      </trkpt>
      <trkpt lat="44.63911" lon="2.3244">
        <ele>260</ele>
        <time>2023-08-20T10:52:27Z</time>
      </trkpt>
      <trkpt lat="44.63932" lon="2.32446">
        <ele>258.4</ele>
        <time>2023-08-20T10:52:29Z</time>
      </trkpt>
      <trkpt lat="44.63942" lon="2.32449">
        <ele>258</ele>
        <time>2023-08-20T10:52:30Z</time>
      </trkpt>
      <trkpt lat="44.63954" lon="2.32453">
        <ele>256.8</ele>
        <time>2023-08-20T10:52:31Z</time>
      </trkpt>
      <trkpt lat="44.63964" lon="2.32456">
        <ele>255.6</ele>
        <time>2023-08-20T10:52:32Z</time>
      </trkpt>
      <trkpt lat="44.63971" lon="2.32459">
        <ele>255.2</ele>
        <time>2023-08-20T10:52:33Z</time>
      </trkpt>
      <trkpt lat="44.6398" lon="2.32462">
        <ele>254</ele>
        <time>2023-08-20T10:52:34Z</time>
      </trkpt>
      <trkpt lat="44.63987" lon="2.32462">
        <ele>253.4</ele>
        <time>2023-08-20T10:52:35Z</time>
      </trkpt>
      <trkpt lat="44.63992" lon="2.3246">
        <ele>252.4</ele>
        <time>2023-08-20T10:52:36Z</time>
      </trkpt>
      <trkpt lat="44.63995" lon="2.32454">
        <ele>251.8</ele>
        <time>2023-08-20T10:52:37Z</time>
      </trkpt>
      <trkpt lat="44.63993" lon="2.32448">
        <ele>250.8</ele>
        <time>2023-08-20T10:52:38Z</time>
      </trkpt>
      <trkpt lat="44.63987" lon="2.32443">
        <ele>250</ele>
        <time>2023-08-20T10:52:39Z</time>
      </trkpt>
      <trkpt lat="44.63979" lon="2.3244">
        <ele>249</ele>
        <time>2023-08-20T10:52:40Z</time>
      </trkpt>
      <trkpt lat="44.63957" lon="2.32432">
        <ele>247.8</ele>
        <time>2023-08-20T10:52:42Z</time>
      </trkpt>
      <trkpt lat="44.63944" lon="2.32426">
        <ele>247.2</ele>
        <time>2023-08-20T10:52:43Z</time>
      </trkpt>
      <trkpt lat="44.63918" lon="2.32408">
        <ele>246.6</ele>
        <time>2023-08-20T10:52:45Z</time>
      </trkpt>
      <trkpt lat="44.63906" lon="2.32398">
        <ele>246.4</ele>
        <time>2023-08-20T10:52:46Z</time>
      </trkpt>
      <trkpt lat="44.63873" lon="2.32369">
        <ele>244.8</ele>
        <time>2023-08-20T10:52:49Z</time>
      </trkpt>
      <trkpt lat="44.63862" lon="2.32362">
        <ele>244</ele>
        <time>2023-08-20T10:52:50Z</time>
      </trkpt>
      <trkpt lat="44.6385" lon="2.32357">
        <ele>243.6</ele>
        <time>2023-08-20T10:52:51Z</time>
      </trkpt>
      <trkpt lat="44.63839" lon="2.32356">
        <ele>242.2</ele>
        <time>2023-08-20T10:52:52Z</time>
      </trkpt>
      <trkpt lat="44.63827" lon="2.32356">
        <ele>241.6</ele>
        <time>2023-08-20T10:52:53Z</time>
      </trkpt>
      <trkpt lat="44.63813" lon="2.32356">
        <ele>240.2</ele>
        <time>2023-08-20T10:52:54Z</time>
      </trkpt>
      <trkpt lat="44.63799" lon="2.32356">
        <ele>238.8</ele>
        <time>2023-08-20T10:52:55Z</time>
      </trkpt>
      <trkpt lat="44.63785" lon="2.32355">
        <ele>237</ele>
        <time>2023-08-20T10:52:56Z</time>
      </trkpt>
      <trkpt lat="44.63772" lon="2.32355">
        <ele>236.4</ele>
        <time>2023-08-20T10:52:57Z</time>
      </trkpt>
      <trkpt lat="44.6376" lon="2.32355">
        <ele>235.6</ele>
        <time>2023-08-20T10:52:58Z</time>
      </trkpt>
      <trkpt lat="44.63746" lon="2.32354">
        <ele>234.4</ele>
        <time>2023-08-20T10:52:59Z</time>
      </trkpt>
      <trkpt lat="44.6372" lon="2.32352">
        <ele>232</ele>
        <time>2023-08-20T10:53:01Z</time>
      </trkpt>
      <trkpt lat="44.63708" lon="2.3235">
        <ele>231.2</ele>
        <time>2023-08-20T10:53:02Z</time>
      </trkpt>
      <trkpt lat="44.637" lon="2.32348">
        <ele>229.8</ele>
        <time>2023-08-20T10:53:03Z</time>
      </trkpt>
      <trkpt lat="44.63687" lon="2.32346">
        <ele>229.2</ele>
        <time>2023-08-20T10:53:04Z</time>
      </trkpt>
      <trkpt lat="44.63677" lon="2.32344">
        <ele>227.2</ele>
        <time>2023-08-20T10:53:05Z</time>
      </trkpt>
      <trkpt lat="44.63667" lon="2.32342">
        <ele>226.6</ele>
        <time>2023-08-20T10:53:06Z</time>
      </trkpt>
      <trkpt lat="44.63659" lon="2.3234">
        <ele>225.2</ele>
        <time>2023-08-20T10:53:07Z</time>
      </trkpt>
      <trkpt lat="44.63653" lon="2.32338">
        <ele>223.6</ele>
        <time>2023-08-20T10:53:08Z</time>
      </trkpt>
      <trkpt lat="44.63648" lon="2.32337">
        <ele>222.6</ele>
        <time>2023-08-20T10:53:09Z</time>
      </trkpt>
      <trkpt lat="44.63643" lon="2.32334">
        <ele>220.6</ele>
        <time>2023-08-20T10:53:10Z</time>
      </trkpt>
      <trkpt lat="44.63641" lon="2.32332">
        <ele>219.8</ele>
        <time>2023-08-20T10:53:11Z</time>
      </trkpt>
      <trkpt lat="44.63639" lon="2.3233">
        <ele>218.2</ele>
        <time>2023-08-20T10:53:12Z</time>
      </trkpt>
      <trkpt lat="44.63639" lon="2.32329">
        <ele>217.4</ele>
        <time>2023-08-20T10:53:13Z</time>
      </trkpt>
      <trkpt lat="44.63639" lon="2.32329">
        <ele>215.8</ele>
        <time>2023-08-20T10:53:14Z</time>
      </trkpt>
      <trkpt lat="44.63639" lon="2.32329">
        <ele>215.2</ele>
        <time>2023-08-20T10:53:15Z</time>
      </trkpt>
      <trkpt lat="44.63635" lon="2.32321">
        <ele>211.2</ele>
        <time>2023-08-20T10:53:21Z</time>
      </trkpt>
      <trkpt lat="44.63631" lon="2.32315">
        <ele>211</ele>
        <time>2023-08-20T10:53:22Z</time>
      </trkpt>
      <trkpt lat="44.63617" lon="2.32307">
        <ele>210.8</ele>
        <time>2023-08-20T10:53:24Z</time>
      </trkpt>
      <trkpt lat="44.63604" lon="2.32303">
        <ele>210.6</ele>
        <time>2023-08-20T10:53:25Z</time>
      </trkpt>
      <trkpt lat="44.63592" lon="2.323">
        <ele>210.6</ele>
        <time>2023-08-20T10:53:26Z</time>
      </trkpt>
      <trkpt lat="44.63578" lon="2.32296">
        <ele>210.6</ele>
        <time>2023-08-20T10:53:27Z</time>
      </trkpt>
      <trkpt lat="44.63524" lon="2.3228">
        <ele>211.6</ele>
        <time>2023-08-20T10:53:31Z</time>
      </trkpt>
      <trkpt lat="44.63509" lon="2.32279">
        <ele>212.2</ele>
        <time>2023-08-20T10:53:32Z</time>
      </trkpt>
      <trkpt lat="44.63495" lon="2.32281">
        <ele>212.8</ele>
        <time>2023-08-20T10:53:33Z</time>
      </trkpt>
      <trkpt lat="44.63483" lon="2.32286">
        <ele>213.4</ele>
        <time>2023-08-20T10:53:34Z</time>
      </trkpt>
      <trkpt lat="44.63467" lon="2.32296">
        <ele>214.4</ele>
        <time>2023-08-20T10:53:35Z</time>
      </trkpt>
      <trkpt lat="44.63454" lon="2.32305">
        <ele>214.6</ele>
        <time>2023-08-20T10:53:36Z</time>
      </trkpt>
      <trkpt lat="44.63442" lon="2.32314">
        <ele>215</ele>
        <time>2023-08-20T10:53:37Z</time>
      </trkpt>
      <trkpt lat="44.63432" lon="2.32325">
        <ele>215.2</ele>
        <time>2023-08-20T10:53:38Z</time>
      </trkpt>
      <trkpt lat="44.63424" lon="2.32334">
        <ele>215.2</ele>
        <time>2023-08-20T10:53:39Z</time>
      </trkpt>
      <trkpt lat="44.63415" lon="2.32347">
        <ele>215.2</ele>
        <time>2023-08-20T10:53:40Z</time>
      </trkpt>
      <trkpt lat="44.63406" lon="2.32364">
        <ele>215.2</ele>
        <time>2023-08-20T10:53:41Z</time>
      </trkpt>
      <trkpt lat="44.63401" lon="2.32377">
        <ele>215.2</ele>
        <time>2023-08-20T10:53:42Z</time>
      </trkpt>
      <trkpt lat="44.63397" lon="2.32393">
        <ele>215.2</ele>
        <time>2023-08-20T10:53:43Z</time>
      </trkpt>
      <trkpt lat="44.63395" lon="2.32411">
        <ele>215.2</ele>
        <time>2023-08-20T10:53:44Z</time>
      </trkpt>
      <trkpt lat="44.63395" lon="2.3243">
        <ele>215</ele>
        <time>2023-08-20T10:53:45Z</time>
      </trkpt>
      <trkpt lat="44.63396" lon="2.3245">
        <ele>214.6</ele>
        <time>2023-08-20T10:53:46Z</time>
      </trkpt>
      <trkpt lat="44.63399" lon="2.32471">
        <ele>214.4</ele>
        <time>2023-08-20T10:53:47Z</time>
      </trkpt>
      <trkpt lat="44.63403" lon="2.32492">
        <ele>214.2</ele>
        <time>2023-08-20T10:53:48Z</time>
      </trkpt>
      <trkpt lat="44.63408" lon="2.32513">
        <ele>214</ele>
        <time>2023-08-20T10:53:49Z</time>
      </trkpt>
      <trkpt lat="44.6343" lon="2.32589">
        <ele>213.2</ele>
        <time>2023-08-20T10:53:52Z</time>
      </trkpt>
      <trkpt lat="44.63455" lon="2.32663">
        <ele>212.8</ele>
        <time>2023-08-20T10:53:55Z</time>
      </trkpt>
      <trkpt lat="44.63465" lon="2.32686">
        <ele>212.8</ele>
        <time>2023-08-20T10:53:56Z</time>
      </trkpt>
      <trkpt lat="44.63476" lon="2.32707">
        <ele>212.8</ele>
        <time>2023-08-20T10:53:57Z</time>
      </trkpt>
      <trkpt lat="44.63484" lon="2.32724">
        <ele>212.8</ele>
        <time>2023-08-20T10:53:58Z</time>
      </trkpt>
      <trkpt lat="44.63496" lon="2.32749">
        <ele>212.4</ele>
        <time>2023-08-20T10:53:59Z</time>
      </trkpt>
      <trkpt lat="44.63504" lon="2.32765">
        <ele>212.2</ele>
        <time>2023-08-20T10:54:00Z</time>
      </trkpt>
      <trkpt lat="44.63515" lon="2.32788">
        <ele>212.2</ele>
        <time>2023-08-20T10:54:01Z</time>
      </trkpt>
      <trkpt lat="44.63525" lon="2.32808">
        <ele>212</ele>
        <time>2023-08-20T10:54:02Z</time>
      </trkpt>
      <trkpt lat="44.63535" lon="2.32823">
        <ele>211.8</ele>
        <time>2023-08-20T10:54:03Z</time>
      </trkpt>
      <trkpt lat="44.63549" lon="2.32845">
        <ele>211.6</ele>
        <time>2023-08-20T10:54:04Z</time>
      </trkpt>
      <trkpt lat="44.63604" lon="2.32913">
        <ele>211.6</ele>
        <time>2023-08-20T10:54:08Z</time>
      </trkpt>
      <trkpt lat="44.63619" lon="2.3293">
        <ele>211.6</ele>
        <time>2023-08-20T10:54:09Z</time>
      </trkpt>
      <trkpt lat="44.63663" lon="2.3299">
        <ele>212.2</ele>
        <time>2023-08-20T10:54:12Z</time>
      </trkpt>
      <trkpt lat="44.63673" lon="2.33007">
        <ele>212.4</ele>
        <time>2023-08-20T10:54:13Z</time>
      </trkpt>
      <trkpt lat="44.63703" lon="2.3308">
        <ele>213</ele>
        <time>2023-08-20T10:54:16Z</time>
      </trkpt>
      <trkpt lat="44.63716" lon="2.33125">
        <ele>213.8</ele>
        <time>2023-08-20T10:54:18Z</time>
      </trkpt>
      <trkpt lat="44.63731" lon="2.33178">
        <ele>215</ele>
        <time>2023-08-20T10:54:20Z</time>
      </trkpt>
      <trkpt lat="44.63738" lon="2.33202">
        <ele>215.6</ele>
        <time>2023-08-20T10:54:21Z</time>
      </trkpt>
      <trkpt lat="44.63744" lon="2.33227">
        <ele>216.6</ele>
        <time>2023-08-20T10:54:22Z</time>
      </trkpt>
      <trkpt lat="44.63757" lon="2.33273">
        <ele>217.4</ele>
        <time>2023-08-20T10:54:24Z</time>
      </trkpt>
      <trkpt lat="44.63764" lon="2.33296">
        <ele>217.6</ele>
        <time>2023-08-20T10:54:25Z</time>
      </trkpt>
      <trkpt lat="44.6377" lon="2.33318">
        <ele>218.4</ele>
        <time>2023-08-20T10:54:26Z</time>
      </trkpt>
      <trkpt lat="44.63773" lon="2.33336">
        <ele>219.2</ele>
        <time>2023-08-20T10:54:27Z</time>
      </trkpt>
      <trkpt lat="44.63776" lon="2.33356">
        <ele>219.6</ele>
        <time>2023-08-20T10:54:28Z</time>
      </trkpt>
      <trkpt lat="44.63778" lon="2.3338">
        <ele>220.2</ele>
        <time>2023-08-20T10:54:29Z</time>
      </trkpt>
      <trkpt lat="44.6378" lon="2.33398">
        <ele>220.4</ele>
        <time>2023-08-20T10:54:30Z</time>
      </trkpt>
      <trkpt lat="44.63782" lon="2.33416">
        <ele>220.4</ele>
        <time>2023-08-20T10:54:31Z</time>
      </trkpt>
      <trkpt lat="44.63784" lon="2.33432">
        <ele>220.4</ele>
        <time>2023-08-20T10:54:32Z</time>
      </trkpt>
      <trkpt lat="44.63787" lon="2.33445">
        <ele>220.4</ele>
        <time>2023-08-20T10:54:33Z</time>
      </trkpt>
      <trkpt lat="44.63791" lon="2.33462">
        <ele>220.4</ele>
        <time>2023-08-20T10:54:34Z</time>
      </trkpt>
      <trkpt lat="44.63797" lon="2.3348">
        <ele>220.4</ele>
        <time>2023-08-20T10:54:35Z</time>
      </trkpt>
      <trkpt lat="44.63803" lon="2.33495">
        <ele>220</ele>
        <time>2023-08-20T10:54:36Z</time>
      </trkpt>
      <trkpt lat="44.6381" lon="2.33511">
        <ele>219.8</ele>
        <time>2023-08-20T10:54:37Z</time>
      </trkpt>
      <trkpt lat="44.63815" lon="2.33526">
        <ele>219.2</ele>
        <time>2023-08-20T10:54:38Z</time>
      </trkpt>
      <trkpt lat="44.63819" lon="2.33542">
        <ele>219</ele>
        <time>2023-08-20T10:54:39Z</time>
      </trkpt>
      <trkpt lat="44.63819" lon="2.33556">
        <ele>218.6</ele>
        <time>2023-08-20T10:54:40Z</time>
      </trkpt>
      <trkpt lat="44.63819" lon="2.33578">
        <ele>218.2</ele>
        <time>2023-08-20T10:54:41Z</time>
      </trkpt>
      <trkpt lat="44.63818" lon="2.33592">
        <ele>217.8</ele>
        <time>2023-08-20T10:54:42Z</time>
      </trkpt>
      <trkpt lat="44.63817" lon="2.3361">
        <ele>217.8</ele>
        <time>2023-08-20T10:54:43Z</time>
      </trkpt>
      <trkpt lat="44.63816" lon="2.3363">
        <ele>217.4</ele>
        <time>2023-08-20T10:54:44Z</time>
      </trkpt>
      <trkpt lat="44.63816" lon="2.3365">
        <ele>217.2</ele>
        <time>2023-08-20T10:54:45Z</time>
      </trkpt>
      <trkpt lat="44.63816" lon="2.33672">
        <ele>217.2</ele>
        <time>2023-08-20T10:54:46Z</time>
      </trkpt>
      <trkpt lat="44.63816" lon="2.33694">
        <ele>217</ele>
        <time>2023-08-20T10:54:47Z</time>
      </trkpt>
      <trkpt lat="44.63814" lon="2.33764">
        <ele>216.8</ele>
        <time>2023-08-20T10:54:50Z</time>
      </trkpt>
      <trkpt lat="44.63813" lon="2.33786">
        <ele>216.8</ele>
        <time>2023-08-20T10:54:51Z</time>
      </trkpt>
      <trkpt lat="44.63812" lon="2.33808">
        <ele>216.8</ele>
        <time>2023-08-20T10:54:52Z</time>
      </trkpt>
      <trkpt lat="44.6381" lon="2.33829">
        <ele>216.8</ele>
        <time>2023-08-20T10:54:53Z</time>
      </trkpt>
      <trkpt lat="44.63809" lon="2.3385">
        <ele>216.6</ele>
        <time>2023-08-20T10:54:54Z</time>
      </trkpt>
      <trkpt lat="44.63808" lon="2.33871">
        <ele>216.6</ele>
        <time>2023-08-20T10:54:55Z</time>
      </trkpt>
      <trkpt lat="44.6381" lon="2.33898">
        <ele>216.4</ele>
        <time>2023-08-20T10:54:56Z</time>
      </trkpt>
      <trkpt lat="44.63816" lon="2.3394">
        <ele>216.4</ele>
        <time>2023-08-20T10:54:58Z</time>
      </trkpt>
      <trkpt lat="44.63823" lon="2.34013">
        <ele>216.2</ele>
        <time>2023-08-20T10:55:01Z</time>
      </trkpt>
      <trkpt lat="44.63823" lon="2.34031">
        <ele>216</ele>
        <time>2023-08-20T10:55:02Z</time>
      </trkpt>
      <trkpt lat="44.63822" lon="2.34053">
        <ele>215.8</ele>
        <time>2023-08-20T10:55:03Z</time>
      </trkpt>
      <trkpt lat="44.63816" lon="2.34098">
        <ele>215.6</ele>
        <time>2023-08-20T10:55:05Z</time>
      </trkpt>
      <trkpt lat="44.63804" lon="2.34161">
        <ele>215</ele>
        <time>2023-08-20T10:55:08Z</time>
      </trkpt>
      <trkpt lat="44.63798" lon="2.34179">
        <ele>214.6</ele>
        <time>2023-08-20T10:55:09Z</time>
      </trkpt>
      <trkpt lat="44.63792" lon="2.34198">
        <ele>214.2</ele>
        <time>2023-08-20T10:55:10Z</time>
      </trkpt>
      <trkpt lat="44.63784" lon="2.3422">
        <ele>214</ele>
        <time>2023-08-20T10:55:11Z</time>
      </trkpt>
      <trkpt lat="44.63779" lon="2.34235">
        <ele>213.8</ele>
        <time>2023-08-20T10:55:12Z</time>
      </trkpt>
      <trkpt lat="44.63765" lon="2.3427">
        <ele>213.6</ele>
        <time>2023-08-20T10:55:14Z</time>
      </trkpt>
      <trkpt lat="44.63753" lon="2.34306">
        <ele>213.4</ele>
        <time>2023-08-20T10:55:16Z</time>
      </trkpt>
      <trkpt lat="44.63747" lon="2.34324">
        <ele>213.4</ele>
        <time>2023-08-20T10:55:17Z</time>
      </trkpt>
      <trkpt lat="44.6374" lon="2.34341">
        <ele>213.4</ele>
        <time>2023-08-20T10:55:18Z</time>
      </trkpt>
      <trkpt lat="44.63733" lon="2.34358">
        <ele>213.4</ele>
        <time>2023-08-20T10:55:19Z</time>
      </trkpt>
      <trkpt lat="44.63726" lon="2.34373">
        <ele>213.4</ele>
        <time>2023-08-20T10:55:20Z</time>
      </trkpt>
      <trkpt lat="44.63718" lon="2.34387">
        <ele>213.6</ele>
        <time>2023-08-20T10:55:21Z</time>
      </trkpt>
      <trkpt lat="44.6371" lon="2.344">
        <ele>213.6</ele>
        <time>2023-08-20T10:55:22Z</time>
      </trkpt>
      <trkpt lat="44.63702" lon="2.34414">
        <ele>213.6</ele>
        <time>2023-08-20T10:55:23Z</time>
      </trkpt>
      <trkpt lat="44.63692" lon="2.34427">
        <ele>213.6</ele>
        <time>2023-08-20T10:55:24Z</time>
      </trkpt>
      <trkpt lat="44.63673" lon="2.34456">
        <ele>214</ele>
        <time>2023-08-20T10:55:26Z</time>
      </trkpt>
      <trkpt lat="44.63641" lon="2.345">
        <ele>214.8</ele>
        <time>2023-08-20T10:55:29Z</time>
      </trkpt>
      <trkpt lat="44.63609" lon="2.34538">
        <ele>215.8</ele>
        <time>2023-08-20T10:55:32Z</time>
      </trkpt>
      <trkpt lat="44.63598" lon="2.3455">
        <ele>216</ele>
        <time>2023-08-20T10:55:33Z</time>
      </trkpt>
      <trkpt lat="44.63588" lon="2.34561">
        <ele>216.2</ele>
        <time>2023-08-20T10:55:34Z</time>
      </trkpt>
      <trkpt lat="44.63576" lon="2.34574">
        <ele>216.4</ele>
        <time>2023-08-20T10:55:35Z</time>
      </trkpt>
      <trkpt lat="44.63567" lon="2.34583">
        <ele>216.4</ele>
        <time>2023-08-20T10:55:36Z</time>
      </trkpt>
      <trkpt lat="44.63557" lon="2.34594">
        <ele>216.6</ele>
        <time>2023-08-20T10:55:37Z</time>
      </trkpt>
      <trkpt lat="44.63548" lon="2.34606">
        <ele>216.6</ele>
        <time>2023-08-20T10:55:38Z</time>
      </trkpt>
      <trkpt lat="44.6354" lon="2.34618">
        <ele>216.8</ele>
        <time>2023-08-20T10:55:39Z</time>
      </trkpt>
      <trkpt lat="44.63532" lon="2.3463">
        <ele>216.8</ele>
        <time>2023-08-20T10:55:40Z</time>
      </trkpt>
      <trkpt lat="44.63522" lon="2.34646">
        <ele>217</ele>
        <time>2023-08-20T10:55:41Z</time>
      </trkpt>
      <trkpt lat="44.63514" lon="2.34658">
        <ele>217</ele>
        <time>2023-08-20T10:55:42Z</time>
      </trkpt>
      <trkpt lat="44.63501" lon="2.34681">
        <ele>217.4</ele>
        <time>2023-08-20T10:55:44Z</time>
      </trkpt>
      <trkpt lat="44.63493" lon="2.34697">
        <ele>217.6</ele>
        <time>2023-08-20T10:55:45Z</time>
      </trkpt>
      <trkpt lat="44.63489" lon="2.34712">
        <ele>217.8</ele>
        <time>2023-08-20T10:55:46Z</time>
      </trkpt>
      <trkpt lat="44.63487" lon="2.34724">
        <ele>217.8</ele>
        <time>2023-08-20T10:55:47Z</time>
      </trkpt>
      <trkpt lat="44.63484" lon="2.34743">
        <ele>217.8</ele>
        <time>2023-08-20T10:55:48Z</time>
      </trkpt>
      <trkpt lat="44.63482" lon="2.34761">
        <ele>218</ele>
        <time>2023-08-20T10:55:49Z</time>
      </trkpt>
      <trkpt lat="44.63481" lon="2.34779">
        <ele>218</ele>
        <time>2023-08-20T10:55:50Z</time>
      </trkpt>
      <trkpt lat="44.6348" lon="2.34798">
        <ele>218</ele>
        <time>2023-08-20T10:55:51Z</time>
      </trkpt>
      <trkpt lat="44.6348" lon="2.34816">
        <ele>218</ele>
        <time>2023-08-20T10:55:52Z</time>
      </trkpt>
      <trkpt lat="44.63481" lon="2.34836">
        <ele>218</ele>
        <time>2023-08-20T10:55:53Z</time>
      </trkpt>
      <trkpt lat="44.63482" lon="2.34855">
        <ele>218</ele>
        <time>2023-08-20T10:55:54Z</time>
      </trkpt>
      <trkpt lat="44.63485" lon="2.34874">
        <ele>218</ele>
        <time>2023-08-20T10:55:55Z</time>
      </trkpt>
      <trkpt lat="44.63488" lon="2.34891">
        <ele>218</ele>
        <time>2023-08-20T10:55:56Z</time>
      </trkpt>
      <trkpt lat="44.63491" lon="2.34908">
        <ele>218</ele>
        <time>2023-08-20T10:55:57Z</time>
      </trkpt>
      <trkpt lat="44.63494" lon="2.34925">
        <ele>217.8</ele>
        <time>2023-08-20T10:55:58Z</time>
      </trkpt>
      <trkpt lat="44.63498" lon="2.34941">
        <ele>217.8</ele>
        <time>2023-08-20T10:55:59Z</time>
      </trkpt>
      <trkpt lat="44.63503" lon="2.34958">
        <ele>217.6</ele>
        <time>2023-08-20T10:56:00Z</time>
      </trkpt>
      <trkpt lat="44.63507" lon="2.34974">
        <ele>217.6</ele>
        <time>2023-08-20T10:56:01Z</time>
      </trkpt>
      <trkpt lat="44.63526" lon="2.35038">
        <ele>216.8</ele>
        <time>2023-08-20T10:56:05Z</time>
      </trkpt>
      <trkpt lat="44.63544" lon="2.35078">
        <ele>215.8</ele>
        <time>2023-08-20T10:56:08Z</time>
      </trkpt>
      <trkpt lat="44.63552" lon="2.35091">
        <ele>215.6</ele>
        <time>2023-08-20T10:56:09Z</time>
      </trkpt>
      <trkpt lat="44.63578" lon="2.35122">
        <ele>214.6</ele>
        <time>2023-08-20T10:56:12Z</time>
      </trkpt>
      <trkpt lat="44.63587" lon="2.35132">
        <ele>214.2</ele>
        <time>2023-08-20T10:56:13Z</time>
      </trkpt>
      <trkpt lat="44.63598" lon="2.35142">
        <ele>213.8</ele>
        <time>2023-08-20T10:56:14Z</time>
      </trkpt>
      <trkpt lat="44.63605" lon="2.35148">
        <ele>213.6</ele>
        <time>2023-08-20T10:56:15Z</time>
      </trkpt>
      <trkpt lat="44.63613" lon="2.35155">
        <ele>213.4</ele>
        <time>2023-08-20T10:56:16Z</time>
      </trkpt>
      <trkpt lat="44.63621" lon="2.35161">
        <ele>213.2</ele>
        <time>2023-08-20T10:56:17Z</time>
      </trkpt>
      <trkpt lat="44.63628" lon="2.35165">
        <ele>213</ele>
        <time>2023-08-20T10:56:18Z</time>
      </trkpt>
      <trkpt lat="44.63636" lon="2.3517">
        <ele>212.6</ele>
        <time>2023-08-20T10:56:19Z</time>
      </trkpt>
      <trkpt lat="44.63643" lon="2.35174">
        <ele>212.4</ele>
        <time>2023-08-20T10:56:20Z</time>
      </trkpt>
      <trkpt lat="44.63651" lon="2.35177">
        <ele>212.2</ele>
        <time>2023-08-20T10:56:21Z</time>
      </trkpt>
      <trkpt lat="44.63655" lon="2.35179">
        <ele>212</ele>
        <time>2023-08-20T10:56:22Z</time>
      </trkpt>
      <trkpt lat="44.6366" lon="2.3518">
        <ele>212</ele>
        <time>2023-08-20T10:56:23Z</time>
      </trkpt>
      <trkpt lat="44.63665" lon="2.35183">
        <ele>212</ele>
        <time>2023-08-20T10:56:24Z</time>
      </trkpt>
      <trkpt lat="44.6367" lon="2.35187">
        <ele>212</ele>
        <time>2023-08-20T10:56:25Z</time>
      </trkpt>
      <trkpt lat="44.63674" lon="2.35192">
        <ele>212</ele>
        <time>2023-08-20T10:56:26Z</time>
      </trkpt>
      <trkpt lat="44.63678" lon="2.35198">
        <ele>212</ele>
        <time>2023-08-20T10:56:27Z</time>
      </trkpt>
      <trkpt lat="44.6368" lon="2.35206">
        <ele>212.2</ele>
        <time>2023-08-20T10:56:28Z</time>
      </trkpt>
      <trkpt lat="44.63681" lon="2.35215">
        <ele>212.4</ele>
        <time>2023-08-20T10:56:29Z</time>
      </trkpt>
      <trkpt lat="44.6368" lon="2.35225">
        <ele>212.8</ele>
        <time>2023-08-20T10:56:30Z</time>
      </trkpt>
      <trkpt lat="44.63677" lon="2.35254">
        <ele>213.4</ele>
        <time>2023-08-20T10:56:32Z</time>
      </trkpt>
      <trkpt lat="44.63676" lon="2.35273">
        <ele>213.8</ele>
        <time>2023-08-20T10:56:33Z</time>
      </trkpt>
      <trkpt lat="44.63676" lon="2.35315">
        <ele>215.4</ele>
        <time>2023-08-20T10:56:35Z</time>
      </trkpt>
      <trkpt lat="44.63678" lon="2.35358">
        <ele>217</ele>
        <time>2023-08-20T10:56:37Z</time>
      </trkpt>
      <trkpt lat="44.6368" lon="2.3538">
        <ele>218</ele>
        <time>2023-08-20T10:56:38Z</time>
      </trkpt>
      <trkpt lat="44.63682" lon="2.35421">
        <ele>219.4</ele>
        <time>2023-08-20T10:56:40Z</time>
      </trkpt>
      <trkpt lat="44.63683" lon="2.35441">
        <ele>219.8</ele>
        <time>2023-08-20T10:56:41Z</time>
      </trkpt>
      <trkpt lat="44.63682" lon="2.3546">
        <ele>220.2</ele>
        <time>2023-08-20T10:56:42Z</time>
      </trkpt>
      <trkpt lat="44.63678" lon="2.35478">
        <ele>220.6</ele>
        <time>2023-08-20T10:56:43Z</time>
      </trkpt>
      <trkpt lat="44.63672" lon="2.35494">
        <ele>220.8</ele>
        <time>2023-08-20T10:56:44Z</time>
      </trkpt>
      <trkpt lat="44.63665" lon="2.3551">
        <ele>221</ele>
        <time>2023-08-20T10:56:45Z</time>
      </trkpt>
      <trkpt lat="44.63656" lon="2.35528">
        <ele>221.4</ele>
        <time>2023-08-20T10:56:46Z</time>
      </trkpt>
      <trkpt lat="44.63651" lon="2.3554">
        <ele>221.6</ele>
        <time>2023-08-20T10:56:47Z</time>
      </trkpt>
      <trkpt lat="44.63646" lon="2.35556">
        <ele>221.8</ele>
        <time>2023-08-20T10:56:48Z</time>
      </trkpt>
      <trkpt lat="44.63641" lon="2.35573">
        <ele>221.8</ele>
        <time>2023-08-20T10:56:49Z</time>
      </trkpt>
      <trkpt lat="44.63639" lon="2.35592">
        <ele>222</ele>
        <time>2023-08-20T10:56:50Z</time>
      </trkpt>
      <trkpt lat="44.63638" lon="2.35611">
        <ele>222</ele>
        <time>2023-08-20T10:56:51Z</time>
      </trkpt>
      <trkpt lat="44.63637" lon="2.3563">
        <ele>222</ele>
        <time>2023-08-20T10:56:52Z</time>
      </trkpt>
      <trkpt lat="44.63636" lon="2.35648">
        <ele>222</ele>
        <time>2023-08-20T10:56:53Z</time>
      </trkpt>
      <trkpt lat="44.63634" lon="2.35665">
        <ele>222</ele>
        <time>2023-08-20T10:56:54Z</time>
      </trkpt>
      <trkpt lat="44.6363" lon="2.35681">
        <ele>222</ele>
        <time>2023-08-20T10:56:55Z</time>
      </trkpt>
      <trkpt lat="44.63626" lon="2.35696">
        <ele>222</ele>
        <time>2023-08-20T10:56:56Z</time>
      </trkpt>
      <trkpt lat="44.6362" lon="2.35709">
        <ele>222</ele>
        <time>2023-08-20T10:56:57Z</time>
      </trkpt>
      <trkpt lat="44.63613" lon="2.35721">
        <ele>222</ele>
        <time>2023-08-20T10:56:58Z</time>
      </trkpt>
      <trkpt lat="44.63604" lon="2.35733">
        <ele>221.8</ele>
        <time>2023-08-20T10:56:59Z</time>
      </trkpt>
      <trkpt lat="44.63598" lon="2.35741">
        <ele>221.8</ele>
        <time>2023-08-20T10:57:00Z</time>
      </trkpt>
      <trkpt lat="44.63589" lon="2.35749">
        <ele>221.6</ele>
        <time>2023-08-20T10:57:01Z</time>
      </trkpt>
      <trkpt lat="44.63581" lon="2.35756">
        <ele>221.8</ele>
        <time>2023-08-20T10:57:02Z</time>
      </trkpt>
      <trkpt lat="44.63569" lon="2.35764">
        <ele>221.6</ele>
        <time>2023-08-20T10:57:03Z</time>
      </trkpt>
      <trkpt lat="44.63557" lon="2.35769">
        <ele>221.6</ele>
        <time>2023-08-20T10:57:04Z</time>
      </trkpt>
      <trkpt lat="44.63546" lon="2.35774">
        <ele>221.6</ele>
        <time>2023-08-20T10:57:05Z</time>
      </trkpt>
      <trkpt lat="44.63536" lon="2.35777">
        <ele>221.6</ele>
        <time>2023-08-20T10:57:06Z</time>
      </trkpt>
      <trkpt lat="44.63523" lon="2.35781">
        <ele>221.6</ele>
        <time>2023-08-20T10:57:07Z</time>
      </trkpt>
      <trkpt lat="44.63508" lon="2.35785">
        <ele>221.6</ele>
        <time>2023-08-20T10:57:08Z</time>
      </trkpt>
      <trkpt lat="44.63498" lon="2.35786">
        <ele>221.6</ele>
        <time>2023-08-20T10:57:09Z</time>
      </trkpt>
      <trkpt lat="44.63483" lon="2.35788">
        <ele>221.6</ele>
        <time>2023-08-20T10:57:10Z</time>
      </trkpt>
      <trkpt lat="44.63473" lon="2.35789">
        <ele>221.6</ele>
        <time>2023-08-20T10:57:11Z</time>
      </trkpt>
      <trkpt lat="44.63461" lon="2.35789">
        <ele>221.6</ele>
        <time>2023-08-20T10:57:12Z</time>
      </trkpt>
      <trkpt lat="44.63419" lon="2.35786">
        <ele>221.6</ele>
        <time>2023-08-20T10:57:15Z</time>
      </trkpt>
      <trkpt lat="44.63363" lon="2.35784">
        <ele>221.8</ele>
        <time>2023-08-20T10:57:19Z</time>
      </trkpt>
      <trkpt lat="44.63345" lon="2.35784">
        <ele>221.8</ele>
        <time>2023-08-20T10:57:20Z</time>
      </trkpt>
      <trkpt lat="44.633" lon="2.35773">
        <ele>222.2</ele>
        <time>2023-08-20T10:57:23Z</time>
      </trkpt>
      <trkpt lat="44.63248" lon="2.35741">
        <ele>222.2</ele>
        <time>2023-08-20T10:57:27Z</time>
      </trkpt>
      <trkpt lat="44.63234" lon="2.3573">
        <ele>222.4</ele>
        <time>2023-08-20T10:57:28Z</time>
      </trkpt>
      <trkpt lat="44.63226" lon="2.35724">
        <ele>222.4</ele>
        <time>2023-08-20T10:57:29Z</time>
      </trkpt>
      <trkpt lat="44.63213" lon="2.35714">
        <ele>222.2</ele>
        <time>2023-08-20T10:57:30Z</time>
      </trkpt>
      <trkpt lat="44.63204" lon="2.35708">
        <ele>222</ele>
        <time>2023-08-20T10:57:31Z</time>
      </trkpt>
      <trkpt lat="44.63192" lon="2.35702">
        <ele>222</ele>
        <time>2023-08-20T10:57:32Z</time>
      </trkpt>
      <trkpt lat="44.63167" lon="2.35699">
        <ele>221.8</ele>
        <time>2023-08-20T10:57:34Z</time>
      </trkpt>
      <trkpt lat="44.63155" lon="2.357">
        <ele>221.8</ele>
        <time>2023-08-20T10:57:35Z</time>
      </trkpt>
      <trkpt lat="44.63144" lon="2.35701">
        <ele>221.8</ele>
        <time>2023-08-20T10:57:36Z</time>
      </trkpt>
      <trkpt lat="44.63136" lon="2.35703">
        <ele>221.6</ele>
        <time>2023-08-20T10:57:37Z</time>
      </trkpt>
      <trkpt lat="44.63128" lon="2.35703">
        <ele>221.4</ele>
        <time>2023-08-20T10:57:38Z</time>
      </trkpt>
      <trkpt lat="44.63121" lon="2.35705">
        <ele>221.2</ele>
        <time>2023-08-20T10:57:39Z</time>
      </trkpt>
      <trkpt lat="44.63115" lon="2.35706">
        <ele>221</ele>
        <time>2023-08-20T10:57:40Z</time>
      </trkpt>
      <trkpt lat="44.63111" lon="2.35706">
        <ele>220.6</ele>
        <time>2023-08-20T10:57:41Z</time>
      </trkpt>
      <trkpt lat="44.63107" lon="2.35707">
        <ele>220.6</ele>
        <time>2023-08-20T10:57:42Z</time>
      </trkpt>
      <trkpt lat="44.63103" lon="2.35708">
        <ele>220.2</ele>
        <time>2023-08-20T10:57:43Z</time>
      </trkpt>
      <trkpt lat="44.63099" lon="2.35709">
        <ele>219.8</ele>
        <time>2023-08-20T10:57:44Z</time>
      </trkpt>
      <trkpt lat="44.63094" lon="2.3571">
        <ele>219.2</ele>
        <time>2023-08-20T10:57:45Z</time>
      </trkpt>
      <trkpt lat="44.63089" lon="2.35711">
        <ele>219</ele>
        <time>2023-08-20T10:57:46Z</time>
      </trkpt>
      <trkpt lat="44.63075" lon="2.35713">
        <ele>217.8</ele>
        <time>2023-08-20T10:57:49Z</time>
      </trkpt>
      <trkpt lat="44.63071" lon="2.35713">
        <ele>217.2</ele>
        <time>2023-08-20T10:57:50Z</time>
      </trkpt>
      <trkpt lat="44.63067" lon="2.35714">
        <ele>217.2</ele>
        <time>2023-08-20T10:57:51Z</time>
      </trkpt>
      <trkpt lat="44.63062" lon="2.35715">
        <ele>217</ele>
        <time>2023-08-20T10:57:52Z</time>
      </trkpt>
      <trkpt lat="44.63058" lon="2.35716">
        <ele>216.8</ele>
        <time>2023-08-20T10:57:53Z</time>
      </trkpt>
      <trkpt lat="44.63054" lon="2.35715">
        <ele>216.4</ele>
        <time>2023-08-20T10:57:54Z</time>
      </trkpt>
      <trkpt lat="44.63046" lon="2.35715">
        <ele>216</ele>
        <time>2023-08-20T10:57:56Z</time>
      </trkpt>
      <trkpt lat="44.63043" lon="2.35716">
        <ele>215.8</ele>
        <time>2023-08-20T10:57:57Z</time>
      </trkpt>
      <trkpt lat="44.6304" lon="2.35716">
        <ele>215.6</ele>
        <time>2023-08-20T10:57:58Z</time>
      </trkpt>
      <trkpt lat="44.63038" lon="2.35717">
        <ele>215.2</ele>
        <time>2023-08-20T10:57:59Z</time>
      </trkpt>
      <trkpt lat="44.63037" lon="2.35717">
        <ele>215.2</ele>
        <time>2023-08-20T10:58:00Z</time>
      </trkpt>
      <trkpt lat="44.63036" lon="2.35718">
        <ele>214.8</ele>
        <time>2023-08-20T10:58:01Z</time>
      </trkpt>
      <trkpt lat="44.63036" lon="2.35718">
        <ele>214.6</ele>
        <time>2023-08-20T10:58:02Z</time>
      </trkpt>
      <trkpt lat="44.63029" lon="2.35717">
        <ele>214</ele>
        <time>2023-08-20T10:58:07Z</time>
      </trkpt>
      <trkpt lat="44.63027" lon="2.35718">
        <ele>214</ele>
        <time>2023-08-20T10:58:08Z</time>
      </trkpt>
      <trkpt lat="44.63025" lon="2.35719">
        <ele>214</ele>
        <time>2023-08-20T10:58:09Z</time>
      </trkpt>
      <trkpt lat="44.63023" lon="2.35719">
        <ele>214</ele>
        <time>2023-08-20T10:58:10Z</time>
      </trkpt>
      <trkpt lat="44.63023" lon="2.35719">
        <ele>213.8</ele>
        <time>2023-08-20T10:58:11Z</time>
      </trkpt>
      <trkpt lat="44.63023" lon="2.35719">
        <ele>213.8</ele>
        <time>2023-08-20T10:58:12Z</time>
      </trkpt>
      <trkpt lat="44.63023" lon="2.35719">
        <ele>213.8</ele>
        <time>2023-08-20T10:58:13Z</time>
      </trkpt>
      <trkpt lat="44.63027" lon="2.3571">
        <ele>219.6</ele>
        <time>2023-08-20T11:55:34Z</time>
      </trkpt>
      <trkpt lat="44.63027" lon="2.3571">
        <ele>219.6</ele>
        <time>2023-08-20T11:55:35Z</time>
      </trkpt>
      <trkpt lat="44.63028" lon="2.3571">
        <ele>218.8</ele>
        <time>2023-08-20T11:55:37Z</time>
      </trkpt>
      <trkpt lat="44.63028" lon="2.3571">
        <ele>217.6</ele>
        <time>2023-08-20T11:55:38Z</time>
      </trkpt>
      <trkpt lat="44.63031" lon="2.35716">
        <ele>217.8</ele>
        <time>2023-08-20T11:55:59Z</time>
      </trkpt>
      <trkpt lat="44.63032" lon="2.35716">
        <ele>216.2</ele>
        <time>2023-08-20T11:56:01Z</time>
      </trkpt>
      <trkpt lat="44.63032" lon="2.35716">
        <ele>215.6</ele>
        <time>2023-08-20T11:56:02Z</time>
      </trkpt>
      <trkpt lat="44.63032" lon="2.35716">
        <ele>215.2</ele>
        <time>2023-08-20T11:56:03Z</time>
      </trkpt>
      <trkpt lat="44.63032" lon="2.35716">
        <ele>215.2</ele>
        <time>2023-08-20T11:56:04Z</time>
      </trkpt>
      <trkpt lat="44.63032" lon="2.35716">
        <ele>215.2</ele>
        <time>2023-08-20T11:56:05Z</time>
      </trkpt>
      <trkpt lat="44.63028" lon="2.35716">
        <ele>219.6</ele>
        <time>2023-08-20T11:56:22Z</time>
      </trkpt>
      <trkpt lat="44.63026" lon="2.35716">
        <ele>219.4</ele>
        <time>2023-08-20T11:56:23Z</time>
      </trkpt>
      <trkpt lat="44.63026" lon="2.35716">
        <ele>219.4</ele>
        <time>2023-08-20T11:56:24Z</time>
      </trkpt>
      <trkpt lat="44.63025" lon="2.35717">
        <ele>219.4</ele>
        <time>2023-08-20T11:56:25Z</time>
      </trkpt>
      <trkpt lat="44.63025" lon="2.35717">
        <ele>219.2</ele>
        <time>2023-08-20T11:56:26Z</time>
      </trkpt>
      <trkpt lat="44.63025" lon="2.35715">
        <ele>219.2</ele>
        <time>2023-08-20T11:56:27Z</time>
      </trkpt>
      <trkpt lat="44.63025" lon="2.35714">
        <ele>219.2</ele>
        <time>2023-08-20T11:56:28Z</time>
      </trkpt>
      <trkpt lat="44.63026" lon="2.35712">
        <ele>219</ele>
        <time>2023-08-20T11:56:30Z</time>
      </trkpt>
      <trkpt lat="44.63026" lon="2.35711">
        <ele>218.8</ele>
        <time>2023-08-20T11:56:32Z</time>
      </trkpt>
      <trkpt lat="44.63026" lon="2.35711">
        <ele>218.6</ele>
        <time>2023-08-20T11:56:33Z</time>
      </trkpt>
      <trkpt lat="44.63028" lon="2.35711">
        <ele>218.4</ele>
        <time>2023-08-20T11:56:34Z</time>
      </trkpt>
      <trkpt lat="44.6303" lon="2.35713">
        <ele>218.2</ele>
        <time>2023-08-20T11:56:38Z</time>
      </trkpt>
      <trkpt lat="44.63031" lon="2.35712">
        <ele>218</ele>
        <time>2023-08-20T11:56:41Z</time>
      </trkpt>
      <trkpt lat="44.63031" lon="2.35713">
        <ele>218</ele>
        <time>2023-08-20T11:56:42Z</time>
      </trkpt>
      <trkpt lat="44.63032" lon="2.35712">
        <ele>218.2</ele>
        <time>2023-08-20T11:56:43Z</time>
      </trkpt>
      <trkpt lat="44.63032" lon="2.35712">
        <ele>218.2</ele>
        <time>2023-08-20T11:56:44Z</time>
      </trkpt>
      <trkpt lat="44.63031" lon="2.35713">
        <ele>218.2</ele>
        <time>2023-08-20T11:56:45Z</time>
      </trkpt>
      <trkpt lat="44.63031" lon="2.35713">
        <ele>218</ele>
        <time>2023-08-20T11:56:46Z</time>
      </trkpt>
      <trkpt lat="44.63031" lon="2.35713">
        <ele>218</ele>
        <time>2023-08-20T11:56:47Z</time>
      </trkpt>
      <trkpt lat="44.63029" lon="2.35713">
        <ele>218.2</ele>
        <time>2023-08-20T11:56:50Z</time>
      </trkpt>
      <trkpt lat="44.63029" lon="2.35713">
        <ele>218.2</ele>
        <time>2023-08-20T11:56:54Z</time>
      </trkpt>
      <trkpt lat="44.63029" lon="2.35712">
        <ele>218.4</ele>
        <time>2023-08-20T11:56:57Z</time>
      </trkpt>
      <trkpt lat="44.63029" lon="2.35712">
        <ele>218.4</ele>
        <time>2023-08-20T11:56:58Z</time>
      </trkpt>
      <trkpt lat="44.63029" lon="2.35712">
        <ele>218.4</ele>
        <time>2023-08-20T11:56:59Z</time>
      </trkpt>
      <trkpt lat="44.63028" lon="2.35723">
        <ele>218.4</ele>
        <time>2023-08-20T11:57:22Z</time>
      </trkpt>
      <trkpt lat="44.63028" lon="2.35725">
        <ele>218.4</ele>
        <time>2023-08-20T11:57:23Z</time>
      </trkpt>
      <trkpt lat="44.63027" lon="2.35726">
        <ele>218.4</ele>
        <time>2023-08-20T11:57:24Z</time>
      </trkpt>
      <trkpt lat="44.63027" lon="2.35726">
        <ele>218.4</ele>
        <time>2023-08-20T11:57:25Z</time>
      </trkpt>
      <trkpt lat="44.63027" lon="2.35726">
        <ele>218.4</ele>
        <time>2023-08-20T11:57:26Z</time>
      </trkpt>
      <trkpt lat="44.63031" lon="2.35717">
        <ele>217.6</ele>
        <time>2023-08-20T12:03:03Z</time>
      </trkpt>
      <trkpt lat="44.63031" lon="2.35717">
        <ele>217.6</ele>
        <time>2023-08-20T12:03:04Z</time>
      </trkpt>
      <trkpt lat="44.63031" lon="2.35717">
        <ele>217.6</ele>
        <time>2023-08-20T12:03:05Z</time>
      </trkpt>
      <trkpt lat="44.63028" lon="2.3572">
        <ele>216.6</ele>
        <time>2023-08-20T12:03:34Z</time>
      </trkpt>
      <trkpt lat="44.63028" lon="2.3572">
        <ele>216.8</ele>
        <time>2023-08-20T12:03:36Z</time>
      </trkpt>
      <trkpt lat="44.63033" lon="2.35714">
        <ele>218</ele>
        <time>2023-08-20T12:07:08Z</time>
      </trkpt>
      <trkpt lat="44.63033" lon="2.35714">
        <ele>218</ele>
        <time>2023-08-20T12:07:10Z</time>
      </trkpt>
      <trkpt lat="44.63035" lon="2.35714">
        <ele>217.6</ele>
        <time>2023-08-20T12:08:29Z</time>
      </trkpt>
      <trkpt lat="44.63033" lon="2.35713">
        <ele>217.6</ele>
        <time>2023-08-20T12:08:32Z</time>
      </trkpt>
      <trkpt lat="44.63033" lon="2.35713">
        <ele>217.4</ele>
        <time>2023-08-20T12:08:33Z</time>
      </trkpt>
      <trkpt lat="44.63027" lon="2.35724">
        <ele>219.8</ele>
        <time>2023-08-20T12:11:40Z</time>
      </trkpt>
      <trkpt lat="44.63027" lon="2.35724">
        <ele>219.8</ele>
        <time>2023-08-20T12:11:41Z</time>
      </trkpt>
      <trkpt lat="44.63027" lon="2.35724">
        <ele>219.6</ele>
        <time>2023-08-20T12:11:42Z</time>
      </trkpt>
      <trkpt lat="44.63027" lon="2.35723">
        <ele>217.6</ele>
        <time>2023-08-20T12:12:55Z</time>
      </trkpt>
      <trkpt lat="44.63027" lon="2.35722">
        <ele>217.2</ele>
        <time>2023-08-20T12:12:56Z</time>
      </trkpt>
      <trkpt lat="44.63027" lon="2.35722">
        <ele>217</ele>
        <time>2023-08-20T12:12:57Z</time>
      </trkpt>
      <trkpt lat="44.63027" lon="2.35722">
        <ele>216.8</ele>
        <time>2023-08-20T12:12:58Z</time>
      </trkpt>
      <trkpt lat="44.63026" lon="2.35722">
        <ele>219.8</ele>
        <time>2023-08-20T12:13:27Z</time>
      </trkpt>
      <trkpt lat="44.63026" lon="2.35721">
        <ele>219.4</ele>
        <time>2023-08-20T12:13:28Z</time>
      </trkpt>
      <trkpt lat="44.63027" lon="2.35722">
        <ele>219</ele>
        <time>2023-08-20T12:13:29Z</time>
      </trkpt>
      <trkpt lat="44.63027" lon="2.35721">
        <ele>218.8</ele>
        <time>2023-08-20T12:13:30Z</time>
      </trkpt>
      <trkpt lat="44.63034" lon="2.35722">
        <ele>218.6</ele>
        <time>2023-08-20T12:13:31Z</time>
      </trkpt>
      <trkpt lat="44.63035" lon="2.3572">
        <ele>218.6</ele>
        <time>2023-08-20T12:13:32Z</time>
      </trkpt>
      <trkpt lat="44.63035" lon="2.3572">
        <ele>218.6</ele>
        <time>2023-08-20T12:13:33Z</time>
      </trkpt>
      <trkpt lat="44.63035" lon="2.3572">
        <ele>218.4</ele>
        <time>2023-08-20T12:13:34Z</time>
      </trkpt>
      <trkpt lat="44.63035" lon="2.3572">
        <ele>218.4</ele>
        <time>2023-08-20T12:13:35Z</time>
      </trkpt>
      <trkpt lat="44.63032" lon="2.35712">
        <ele>218</ele>
        <time>2023-08-20T12:14:39Z</time>
      </trkpt>
      <trkpt lat="44.63032" lon="2.35712">
        <ele>217.8</ele>
        <time>2023-08-20T12:14:40Z</time>
      </trkpt>
      <trkpt lat="44.63032" lon="2.35712">
        <ele>217.2</ele>
        <time>2023-08-20T12:14:41Z</time>
      </trkpt>
      <trkpt lat="44.63032" lon="2.3571">
        <ele>216.6</ele>
        <time>2023-08-20T12:14:42Z</time>
      </trkpt>
      <trkpt lat="44.63033" lon="2.35708">
        <ele>216.4</ele>
        <time>2023-08-20T12:14:43Z</time>
      </trkpt>
      <trkpt lat="44.63032" lon="2.35708">
        <ele>216.2</ele>
        <time>2023-08-20T12:14:44Z</time>
      </trkpt>
      <trkpt lat="44.63032" lon="2.35708">
        <ele>216.2</ele>
        <time>2023-08-20T12:14:45Z</time>
      </trkpt>
      <trkpt lat="44.63032" lon="2.35708">
        <ele>216.2</ele>
        <time>2023-08-20T12:14:46Z</time>
      </trkpt>
      <trkpt lat="44.63029" lon="2.35712">
        <ele>216.8</ele>
        <time>2023-08-20T12:14:52Z</time>
      </trkpt>
      <trkpt lat="44.63028" lon="2.35712">
        <ele>217.2</ele>
        <time>2023-08-20T12:14:54Z</time>
      </trkpt>
      <trkpt lat="44.63028" lon="2.35712">
        <ele>217.4</ele>
        <time>2023-08-20T12:14:55Z</time>
      </trkpt>
      <trkpt lat="44.63028" lon="2.35712">
        <ele>217.4</ele>
        <time>2023-08-20T12:14:56Z</time>
      </trkpt>
      <trkpt lat="44.63028" lon="2.35712">
        <ele>217.4</ele>
        <time>2023-08-20T12:14:57Z</time>
      </trkpt>
      <trkpt lat="44.63024" lon="2.35725">
        <ele>217.4</ele>
        <time>2023-08-20T12:15:11Z</time>
      </trkpt>
      <trkpt lat="44.63033" lon="2.35717">
        <ele>217.4</ele>
        <time>2023-08-20T12:15:12Z</time>
      </trkpt>
      <trkpt lat="44.63015" lon="2.35718">
        <ele>219.8</ele>
        <time>2023-08-20T12:15:31Z</time>
      </trkpt>
      <trkpt lat="44.63013" lon="2.35719">
        <ele>219.8</ele>
        <time>2023-08-20T12:15:32Z</time>
      </trkpt>
      <trkpt lat="44.63012" lon="2.35719">
        <ele>219.8</ele>
        <time>2023-08-20T12:15:33Z</time>
      </trkpt>
      <trkpt lat="44.63012" lon="2.35719">
        <ele>219.6</ele>
        <time>2023-08-20T12:15:35Z</time>
      </trkpt>
      <trkpt lat="44.63013" lon="2.35717">
        <ele>219.6</ele>
        <time>2023-08-20T12:15:36Z</time>
      </trkpt>
      <trkpt lat="44.63014" lon="2.35714">
        <ele>219.6</ele>
        <time>2023-08-20T12:15:37Z</time>
      </trkpt>
      <trkpt lat="44.63016" lon="2.35713">
        <ele>219.4</ele>
        <time>2023-08-20T12:15:38Z</time>
      </trkpt>
      <trkpt lat="44.63015" lon="2.35714">
        <ele>219.2</ele>
        <time>2023-08-20T12:15:39Z</time>
      </trkpt>
      <trkpt lat="44.63015" lon="2.35714">
        <ele>218.8</ele>
        <time>2023-08-20T12:15:40Z</time>
      </trkpt>
      <trkpt lat="44.63014" lon="2.35715">
        <ele>218.4</ele>
        <time>2023-08-20T12:15:43Z</time>
      </trkpt>
      <trkpt lat="44.63014" lon="2.35715">
        <ele>218.4</ele>
        <time>2023-08-20T12:15:44Z</time>
      </trkpt>
      <trkpt lat="44.63014" lon="2.35715">
        <ele>218.4</ele>
        <time>2023-08-20T12:15:45Z</time>
      </trkpt>
      <trkpt lat="44.63028" lon="2.35713">
        <ele>218.4</ele>
        <time>2023-08-20T12:21:37Z</time>
      </trkpt>
      <trkpt lat="44.63031" lon="2.35714">
        <ele>218.4</ele>
        <time>2023-08-20T12:21:39Z</time>
      </trkpt>
      <trkpt lat="44.63029" lon="2.35715">
        <ele>218.4</ele>
        <time>2023-08-20T12:21:40Z</time>
      </trkpt>
      <trkpt lat="44.6303" lon="2.35716">
        <ele>218.4</ele>
        <time>2023-08-20T12:21:41Z</time>
      </trkpt>
      <trkpt lat="44.63031" lon="2.35716">
        <ele>218.4</ele>
        <time>2023-08-20T12:21:42Z</time>
      </trkpt>
      <trkpt lat="44.6303" lon="2.35719">
        <ele>218.6</ele>
        <time>2023-08-20T12:21:43Z</time>
      </trkpt>
      <trkpt lat="44.63027" lon="2.35721">
        <ele>218.6</ele>
        <time>2023-08-20T12:21:44Z</time>
      </trkpt>
      <trkpt lat="44.63026" lon="2.35722">
        <ele>219</ele>
        <time>2023-08-20T12:21:45Z</time>
      </trkpt>
      <trkpt lat="44.63025" lon="2.35722">
        <ele>219.4</ele>
        <time>2023-08-20T12:21:46Z</time>
      </trkpt>
      <trkpt lat="44.63025" lon="2.35722">
        <ele>219.6</ele>
        <time>2023-08-20T12:21:47Z</time>
      </trkpt>
      <trkpt lat="44.63025" lon="2.35722">
        <ele>219.8</ele>
        <time>2023-08-20T12:21:48Z</time>
      </trkpt>
      <trkpt lat="44.63025" lon="2.35722">
        <ele>219.8</ele>
        <time>2023-08-20T12:21:49Z</time>
      </trkpt>
      <trkpt lat="44.63025" lon="2.35722">
        <ele>219.8</ele>
        <time>2023-08-20T12:21:50Z</time>
      </trkpt>
      <trkpt lat="44.63033" lon="2.35718">
        <ele>220.4</ele>
        <time>2023-08-20T12:22:42Z</time>
      </trkpt>
      <trkpt lat="44.63035" lon="2.35717">
        <ele>220.6</ele>
        <time>2023-08-20T12:22:43Z</time>
      </trkpt>
      <trkpt lat="44.63025" lon="2.35727">
        <ele>220.6</ele>
        <time>2023-08-20T12:22:47Z</time>
      </trkpt>
      <trkpt lat="44.63023" lon="2.35728">
        <ele>220.6</ele>
        <time>2023-08-20T12:22:48Z</time>
      </trkpt>
      <trkpt lat="44.63023" lon="2.35727">
        <ele>220.6</ele>
        <time>2023-08-20T12:22:49Z</time>
      </trkpt>
      <trkpt lat="44.63024" lon="2.35726">
        <ele>220.4</ele>
        <time>2023-08-20T12:22:50Z</time>
      </trkpt>
      <trkpt lat="44.63026" lon="2.35727">
        <ele>220.2</ele>
        <time>2023-08-20T12:22:51Z</time>
      </trkpt>
      <trkpt lat="44.63026" lon="2.35726">
        <ele>220</ele>
        <time>2023-08-20T12:22:52Z</time>
      </trkpt>
      <trkpt lat="44.63027" lon="2.35729">
        <ele>219.8</ele>
        <time>2023-08-20T12:22:53Z</time>
      </trkpt>
      <trkpt lat="44.63029" lon="2.35733">
        <ele>219.6</ele>
        <time>2023-08-20T12:22:54Z</time>
      </trkpt>
      <trkpt lat="44.63031" lon="2.35735">
        <ele>219.4</ele>
        <time>2023-08-20T12:22:55Z</time>
      </trkpt>
      <trkpt lat="44.63032" lon="2.35735">
        <ele>219.4</ele>
        <time>2023-08-20T12:22:56Z</time>
      </trkpt>
      <trkpt lat="44.63033" lon="2.35735">
        <ele>219.2</ele>
        <time>2023-08-20T12:22:57Z</time>
      </trkpt>
      <trkpt lat="44.63033" lon="2.35735">
        <ele>219.2</ele>
        <time>2023-08-20T12:22:59Z</time>
      </trkpt>
      <trkpt lat="44.63033" lon="2.35737">
        <ele>219.2</ele>
        <time>2023-08-20T12:23:00Z</time>
      </trkpt>
      <trkpt lat="44.6303" lon="2.3573">
        <ele>219</ele>
        <time>2023-08-20T12:23:01Z</time>
      </trkpt>
      <trkpt lat="44.63005" lon="2.35703">
        <ele>218.6</ele>
        <time>2023-08-20T12:23:05Z</time>
      </trkpt>
      <trkpt lat="44.63006" lon="2.35702">
        <ele>218.6</ele>
        <time>2023-08-20T12:23:06Z</time>
      </trkpt>
      <trkpt lat="44.63008" lon="2.35706">
        <ele>218.8</ele>
        <time>2023-08-20T12:23:07Z</time>
      </trkpt>
      <trkpt lat="44.63008" lon="2.35706">
        <ele>218.8</ele>
        <time>2023-08-20T12:23:08Z</time>
      </trkpt>
      <trkpt lat="44.63009" lon="2.35706">
        <ele>218.8</ele>
        <time>2023-08-20T12:23:09Z</time>
      </trkpt>
      <trkpt lat="44.6301" lon="2.35705">
        <ele>218.8</ele>
        <time>2023-08-20T12:23:10Z</time>
      </trkpt>
      <trkpt lat="44.63011" lon="2.35705">
        <ele>218.8</ele>
        <time>2023-08-20T12:23:11Z</time>
      </trkpt>
      <trkpt lat="44.63012" lon="2.35707">
        <ele>218.8</ele>
        <time>2023-08-20T12:23:12Z</time>
      </trkpt>
      <trkpt lat="44.63014" lon="2.3571">
        <ele>219</ele>
        <time>2023-08-20T12:23:13Z</time>
      </trkpt>
      <trkpt lat="44.63016" lon="2.35713">
        <ele>219</ele>
        <time>2023-08-20T12:23:14Z</time>
      </trkpt>
      <trkpt lat="44.63017" lon="2.35711">
        <ele>219.2</ele>
        <time>2023-08-20T12:23:16Z</time>
      </trkpt>
      <trkpt lat="44.63022" lon="2.35716">
        <ele>219.2</ele>
        <time>2023-08-20T12:23:17Z</time>
      </trkpt>
      <trkpt lat="44.63013" lon="2.35704">
        <ele>219</ele>
        <time>2023-08-20T12:23:19Z</time>
      </trkpt>
      <trkpt lat="44.63008" lon="2.35686">
        <ele>218.8</ele>
        <time>2023-08-20T12:23:20Z</time>
      </trkpt>
      <trkpt lat="44.63008" lon="2.35691">
        <ele>218.8</ele>
        <time>2023-08-20T12:23:25Z</time>
      </trkpt>
      <trkpt lat="44.63011" lon="2.35691">
        <ele>218.6</ele>
        <time>2023-08-20T12:23:26Z</time>
      </trkpt>
      <trkpt lat="44.63024" lon="2.35704">
        <ele>218.6</ele>
        <time>2023-08-20T12:23:27Z</time>
      </trkpt>
      <trkpt lat="44.63027" lon="2.35705">
        <ele>218.6</ele>
        <time>2023-08-20T12:23:28Z</time>
      </trkpt>
      <trkpt lat="44.63033" lon="2.35714">
        <ele>218.6</ele>
        <time>2023-08-20T12:23:29Z</time>
      </trkpt>
      <trkpt lat="44.63034" lon="2.35719">
        <ele>218.6</ele>
        <time>2023-08-20T12:23:30Z</time>
      </trkpt>
      <trkpt lat="44.63031" lon="2.35724">
        <ele>218.4</ele>
        <time>2023-08-20T12:23:31Z</time>
      </trkpt>
      <trkpt lat="44.63033" lon="2.35727">
        <ele>218.4</ele>
        <time>2023-08-20T12:23:32Z</time>
      </trkpt>
      <trkpt lat="44.63037" lon="2.3573">
        <ele>218.4</ele>
        <time>2023-08-20T12:23:33Z</time>
      </trkpt>
      <trkpt lat="44.6304" lon="2.35736">
        <ele>218.4</ele>
        <time>2023-08-20T12:23:35Z</time>
      </trkpt>
      <trkpt lat="44.6304" lon="2.35738">
        <ele>218.4</ele>
        <time>2023-08-20T12:23:36Z</time>
      </trkpt>
      <trkpt lat="44.63041" lon="2.35742">
        <ele>218.4</ele>
        <time>2023-08-20T12:23:37Z</time>
      </trkpt>
      <trkpt lat="44.63036" lon="2.35742">
        <ele>218.4</ele>
        <time>2023-08-20T12:23:44Z</time>
      </trkpt>
      <trkpt lat="44.63034" lon="2.35741">
        <ele>218.4</ele>
        <time>2023-08-20T12:23:45Z</time>
      </trkpt>
      <trkpt lat="44.63033" lon="2.35737">
        <ele>218.4</ele>
        <time>2023-08-20T12:23:47Z</time>
      </trkpt>
      <trkpt lat="44.63034" lon="2.35736">
        <ele>218.4</ele>
        <time>2023-08-20T12:23:48Z</time>
      </trkpt>
      <trkpt lat="44.63034" lon="2.35734">
        <ele>218.6</ele>
        <time>2023-08-20T12:23:49Z</time>
      </trkpt>
      <trkpt lat="44.63033" lon="2.35734">
        <ele>218.6</ele>
        <time>2023-08-20T12:23:50Z</time>
      </trkpt>
      <trkpt lat="44.63032" lon="2.35732">
        <ele>218.6</ele>
        <time>2023-08-20T12:23:51Z</time>
      </trkpt>
      <trkpt lat="44.6303" lon="2.35731">
        <ele>218.6</ele>
        <time>2023-08-20T12:23:52Z</time>
      </trkpt>
      <trkpt lat="44.63027" lon="2.3573">
        <ele>218.6</ele>
        <time>2023-08-20T12:23:53Z</time>
      </trkpt>
      <trkpt lat="44.63027" lon="2.35728">
        <ele>218.6</ele>
        <time>2023-08-20T12:23:54Z</time>
      </trkpt>
      <trkpt lat="44.63031" lon="2.35727">
        <ele>218.6</ele>
        <time>2023-08-20T12:23:55Z</time>
      </trkpt>
      <trkpt lat="44.63036" lon="2.35727">
        <ele>218.6</ele>
        <time>2023-08-20T12:23:56Z</time>
      </trkpt>
      <trkpt lat="44.63044" lon="2.35729">
        <ele>218.6</ele>
        <time>2023-08-20T12:23:57Z</time>
      </trkpt>
      <trkpt lat="44.63051" lon="2.35728">
        <ele>218.6</ele>
        <time>2023-08-20T12:23:58Z</time>
      </trkpt>
      <trkpt lat="44.63052" lon="2.35721">
        <ele>218.6</ele>
        <time>2023-08-20T12:24:00Z</time>
      </trkpt>
      <trkpt lat="44.63047" lon="2.35717">
        <ele>218.6</ele>
        <time>2023-08-20T12:24:01Z</time>
      </trkpt>
      <trkpt lat="44.63037" lon="2.35713">
        <ele>218.6</ele>
        <time>2023-08-20T12:24:02Z</time>
      </trkpt>
      <trkpt lat="44.63032" lon="2.35713">
        <ele>218.6</ele>
        <time>2023-08-20T12:24:03Z</time>
      </trkpt>
      <trkpt lat="44.63033" lon="2.35709">
        <ele>218.6</ele>
        <time>2023-08-20T12:24:05Z</time>
      </trkpt>
      <trkpt lat="44.63039" lon="2.35719">
        <ele>218.6</ele>
        <time>2023-08-20T12:24:08Z</time>
      </trkpt>
      <trkpt lat="44.63026" lon="2.35722">
        <ele>218.6</ele>
        <time>2023-08-20T12:24:12Z</time>
      </trkpt>
      <trkpt lat="44.63027" lon="2.35725">
        <ele>218.6</ele>
        <time>2023-08-20T12:24:17Z</time>
      </trkpt>
      <trkpt lat="44.6303" lon="2.35722">
        <ele>218.6</ele>
        <time>2023-08-20T12:24:18Z</time>
      </trkpt>
      <trkpt lat="44.63028" lon="2.35721">
        <ele>218.4</ele>
        <time>2023-08-20T12:24:19Z</time>
      </trkpt>
      <trkpt lat="44.63026" lon="2.35722">
        <ele>218.4</ele>
        <time>2023-08-20T12:24:20Z</time>
      </trkpt>
      <trkpt lat="44.63023" lon="2.35723">
        <ele>218.2</ele>
        <time>2023-08-20T12:24:21Z</time>
      </trkpt>
      <trkpt lat="44.63021" lon="2.35724">
        <ele>218.2</ele>
        <time>2023-08-20T12:24:22Z</time>
      </trkpt>
      <trkpt lat="44.63021" lon="2.35723">
        <ele>218.2</ele>
        <time>2023-08-20T12:24:23Z</time>
      </trkpt>
      <trkpt lat="44.6302" lon="2.35722">
        <ele>218.2</ele>
        <time>2023-08-20T12:24:24Z</time>
      </trkpt>
      <trkpt lat="44.63019" lon="2.35721">
        <ele>218</ele>
        <time>2023-08-20T12:24:25Z</time>
      </trkpt>
      <trkpt lat="44.6302" lon="2.35721">
        <ele>218</ele>
        <time>2023-08-20T12:24:26Z</time>
      </trkpt>
      <trkpt lat="44.6302" lon="2.35721">
        <ele>218</ele>
        <time>2023-08-20T12:24:28Z</time>
      </trkpt>
      <trkpt lat="44.63019" lon="2.3572">
        <ele>218</ele>
        <time>2023-08-20T12:24:29Z</time>
      </trkpt>
      <trkpt lat="44.63019" lon="2.3572">
        <ele>218.2</ele>
        <time>2023-08-20T12:24:30Z</time>
      </trkpt>
      <trkpt lat="44.63018" lon="2.35723">
        <ele>218.2</ele>
        <time>2023-08-20T12:24:31Z</time>
      </trkpt>
      <trkpt lat="44.63019" lon="2.35716">
        <ele>218</ele>
        <time>2023-08-20T12:24:36Z</time>
      </trkpt>
      <trkpt lat="44.63019" lon="2.35716">
        <ele>217.8</ele>
        <time>2023-08-20T12:24:39Z</time>
      </trkpt>
      <trkpt lat="44.63021" lon="2.35717">
        <ele>217.4</ele>
        <time>2023-08-20T12:24:55Z</time>
      </trkpt>
      <trkpt lat="44.63021" lon="2.35717">
        <ele>217.6</ele>
        <time>2023-08-20T12:24:56Z</time>
      </trkpt>
      <trkpt lat="44.63021" lon="2.35717">
        <ele>217.8</ele>
        <time>2023-08-20T12:24:57Z</time>
      </trkpt>
      <trkpt lat="44.63021" lon="2.35717">
        <ele>218</ele>
        <time>2023-08-20T12:24:58Z</time>
      </trkpt>
      <trkpt lat="44.63023" lon="2.35718">
        <ele>218.4</ele>
        <time>2023-08-20T12:25:08Z</time>
      </trkpt>
      <trkpt lat="44.63023" lon="2.35718">
        <ele>218.4</ele>
        <time>2023-08-20T12:25:09Z</time>
      </trkpt>
      <trkpt lat="44.63023" lon="2.35718">
        <ele>218.4</ele>
        <time>2023-08-20T12:25:10Z</time>
      </trkpt>
      <trkpt lat="44.6304" lon="2.35716">
        <ele>216.8</ele>
        <time>2023-08-20T12:26:34Z</time>
      </trkpt>
      <trkpt lat="44.63037" lon="2.35717">
        <ele>216.4</ele>
        <time>2023-08-20T12:26:35Z</time>
      </trkpt>
      <trkpt lat="44.6303" lon="2.35718">
        <ele>216.4</ele>
        <time>2023-08-20T12:26:36Z</time>
      </trkpt>
      <trkpt lat="44.63025" lon="2.35719">
        <ele>216.2</ele>
        <time>2023-08-20T12:26:38Z</time>
      </trkpt>
      <trkpt lat="44.63014" lon="2.35726">
        <ele>218.2</ele>
        <time>2023-08-20T12:27:37Z</time>
      </trkpt>
      <trkpt lat="44.63014" lon="2.35726">
        <ele>218.2</ele>
        <time>2023-08-20T12:27:38Z</time>
      </trkpt>
      <trkpt lat="44.63017" lon="2.35727">
        <ele>217.8</ele>
        <time>2023-08-20T12:27:40Z</time>
      </trkpt>
      <trkpt lat="44.63014" lon="2.35727">
        <ele>217.6</ele>
        <time>2023-08-20T12:27:41Z</time>
      </trkpt>
      <trkpt lat="44.63007" lon="2.35726">
        <ele>217.6</ele>
        <time>2023-08-20T12:27:43Z</time>
      </trkpt>
      <trkpt lat="44.63005" lon="2.35725">
        <ele>217.6</ele>
        <time>2023-08-20T12:27:44Z</time>
      </trkpt>
      <trkpt lat="44.63005" lon="2.35725">
        <ele>217.6</ele>
        <time>2023-08-20T12:27:45Z</time>
      </trkpt>
      <trkpt lat="44.63004" lon="2.35724">
        <ele>217.6</ele>
        <time>2023-08-20T12:27:46Z</time>
      </trkpt>
      <trkpt lat="44.63007" lon="2.35736">
        <ele>218.4</ele>
        <time>2023-08-20T12:27:57Z</time>
      </trkpt>
      <trkpt lat="44.63005" lon="2.35736">
        <ele>218.4</ele>
        <time>2023-08-20T12:27:58Z</time>
      </trkpt>
      <trkpt lat="44.63003" lon="2.35737">
        <ele>218.6</ele>
        <time>2023-08-20T12:27:59Z</time>
      </trkpt>
      <trkpt lat="44.63003" lon="2.35737">
        <ele>218.6</ele>
        <time>2023-08-20T12:28:00Z</time>
      </trkpt>
      <trkpt lat="44.62988" lon="2.35741">
        <ele>218.6</ele>
        <time>2023-08-20T12:28:06Z</time>
      </trkpt>
      <trkpt lat="44.62994" lon="2.35735">
        <ele>218.6</ele>
        <time>2023-08-20T12:28:07Z</time>
      </trkpt>
      <trkpt lat="44.63001" lon="2.35727">
        <ele>218.6</ele>
        <time>2023-08-20T12:28:08Z</time>
      </trkpt>
      <trkpt lat="44.63009" lon="2.35721">
        <ele>218.6</ele>
        <time>2023-08-20T12:28:09Z</time>
      </trkpt>
      <trkpt lat="44.63017" lon="2.35717">
        <ele>218.6</ele>
        <time>2023-08-20T12:28:14Z</time>
      </trkpt>
      <trkpt lat="44.63018" lon="2.35717">
        <ele>218.4</ele>
        <time>2023-08-20T12:28:15Z</time>
      </trkpt>
      <trkpt lat="44.6302" lon="2.35717">
        <ele>218.4</ele>
        <time>2023-08-20T12:28:16Z</time>
      </trkpt>
      <trkpt lat="44.6302" lon="2.35717">
        <ele>218.4</ele>
        <time>2023-08-20T12:28:18Z</time>
      </trkpt>
      <trkpt lat="44.6302" lon="2.35717">
        <ele>218.4</ele>
        <time>2023-08-20T12:28:20Z</time>
      </trkpt>
      <trkpt lat="44.6302" lon="2.35717">
        <ele>218.4</ele>
        <time>2023-08-20T12:28:21Z</time>
      </trkpt>
      <trkpt lat="44.6302" lon="2.35717">
        <ele>218.2</ele>
        <time>2023-08-20T12:28:22Z</time>
      </trkpt>
      <trkpt lat="44.6302" lon="2.35717">
        <ele>218.2</ele>
        <time>2023-08-20T12:28:23Z</time>
      </trkpt>
      <trkpt lat="44.6302" lon="2.35717">
        <ele>218.2</ele>
        <time>2023-08-20T12:28:25Z</time>
      </trkpt>
      <trkpt lat="44.63031" lon="2.35717">
        <ele>218.2</ele>
        <time>2023-08-20T12:28:26Z</time>
      </trkpt>
      <trkpt lat="44.63031" lon="2.35717">
        <ele>218.2</ele>
        <time>2023-08-20T12:28:27Z</time>
      </trkpt>
      <trkpt lat="44.63028" lon="2.35718">
        <ele>218.2</ele>
        <time>2023-08-20T12:28:29Z</time>
      </trkpt>
      <trkpt lat="44.63028" lon="2.35718">
        <ele>218.2</ele>
        <time>2023-08-20T12:28:31Z</time>
      </trkpt>
      <trkpt lat="44.63028" lon="2.35718">
        <ele>218.2</ele>
        <time>2023-08-20T12:28:32Z</time>
      </trkpt>
      <trkpt lat="44.63028" lon="2.35718">
        <ele>218.2</ele>
        <time>2023-08-20T12:28:33Z</time>
      </trkpt>
      <trkpt lat="44.63028" lon="2.35721">
        <ele>218.2</ele>
        <time>2023-08-20T12:28:34Z</time>
      </trkpt>
      <trkpt lat="44.63028" lon="2.3572">
        <ele>218.2</ele>
        <time>2023-08-20T12:28:35Z</time>
      </trkpt>
      <trkpt lat="44.63028" lon="2.3572">
        <ele>218.2</ele>
        <time>2023-08-20T12:28:36Z</time>
      </trkpt>
      <trkpt lat="44.63028" lon="2.3572">
        <ele>218.2</ele>
        <time>2023-08-20T12:28:38Z</time>
      </trkpt>
      <trkpt lat="44.63028" lon="2.3572">
        <ele>218.2</ele>
        <time>2023-08-20T12:28:39Z</time>
      </trkpt>
      <trkpt lat="44.63028" lon="2.3572">
        <ele>218.2</ele>
        <time>2023-08-20T12:28:58Z</time>
      </trkpt>
      <trkpt lat="44.63028" lon="2.3572">
        <ele>218.2</ele>
        <time>2023-08-20T12:29:00Z</time>
      </trkpt>
      <trkpt lat="44.63027" lon="2.35721">
        <ele>218.8</ele>
        <time>2023-08-20T12:29:08Z</time>
      </trkpt>
      <trkpt lat="44.63027" lon="2.35721">
        <ele>218.8</ele>
        <time>2023-08-20T12:29:10Z</time>
      </trkpt>
      <trkpt lat="44.63027" lon="2.35721">
        <ele>218.4</ele>
        <time>2023-08-20T12:29:11Z</time>
      </trkpt>
      <trkpt lat="44.6303" lon="2.35718">
        <ele>217.8</ele>
        <time>2023-08-20T12:31:20Z</time>
      </trkpt>
      <trkpt lat="44.63031" lon="2.3572">
        <ele>218</ele>
        <time>2023-08-20T12:31:22Z</time>
      </trkpt>
      <trkpt lat="44.63029" lon="2.35721">
        <ele>218</ele>
        <time>2023-08-20T12:31:23Z</time>
      </trkpt>
      <trkpt lat="44.6303" lon="2.35722">
        <ele>218.2</ele>
        <time>2023-08-20T12:31:24Z</time>
      </trkpt>
      <trkpt lat="44.63031" lon="2.35722">
        <ele>218.4</ele>
        <time>2023-08-20T12:31:26Z</time>
      </trkpt>
      <trkpt lat="44.63032" lon="2.35721">
        <ele>218.4</ele>
        <time>2023-08-20T12:31:27Z</time>
      </trkpt>
      <trkpt lat="44.63036" lon="2.35717">
        <ele>217.8</ele>
        <time>2023-08-20T12:31:58Z</time>
      </trkpt>
      <trkpt lat="44.63036" lon="2.35717">
        <ele>217.8</ele>
        <time>2023-08-20T12:32:00Z</time>
      </trkpt>
      <trkpt lat="44.63036" lon="2.35718">
        <ele>217.4</ele>
        <time>2023-08-20T12:32:35Z</time>
      </trkpt>
      <trkpt lat="44.63036" lon="2.35718">
        <ele>217.6</ele>
        <time>2023-08-20T12:32:37Z</time>
      </trkpt>
      <trkpt lat="44.63036" lon="2.35718">
        <ele>218</ele>
        <time>2023-08-20T12:33:02Z</time>
      </trkpt>
      <trkpt lat="44.63046" lon="2.35716">
        <ele>217.6</ele>
        <time>2023-08-20T12:33:05Z</time>
      </trkpt>
      <trkpt lat="44.63052" lon="2.35712">
        <ele>217.4</ele>
        <time>2023-08-20T12:33:07Z</time>
      </trkpt>
      <trkpt lat="44.63045" lon="2.35712">
        <ele>217.4</ele>
        <time>2023-08-20T12:33:08Z</time>
      </trkpt>
      <trkpt lat="44.63039" lon="2.35714">
        <ele>217.4</ele>
        <time>2023-08-20T12:33:09Z</time>
      </trkpt>
      <trkpt lat="44.63034" lon="2.35716">
        <ele>217.4</ele>
        <time>2023-08-20T12:33:10Z</time>
      </trkpt>
      <trkpt lat="44.63022" lon="2.35719">
        <ele>217.4</ele>
        <time>2023-08-20T12:33:12Z</time>
      </trkpt>
      <trkpt lat="44.63024" lon="2.35719">
        <ele>217.6</ele>
        <time>2023-08-20T12:33:13Z</time>
      </trkpt>
      <trkpt lat="44.63021" lon="2.35718">
        <ele>217.6</ele>
        <time>2023-08-20T12:33:14Z</time>
      </trkpt>
      <trkpt lat="44.63021" lon="2.35719">
        <ele>217.6</ele>
        <time>2023-08-20T12:33:16Z</time>
      </trkpt>
      <trkpt lat="44.63026" lon="2.35716">
        <ele>217.8</ele>
        <time>2023-08-20T12:33:17Z</time>
      </trkpt>
      <trkpt lat="44.63026" lon="2.35716">
        <ele>217.8</ele>
        <time>2023-08-20T12:33:18Z</time>
      </trkpt>
      <trkpt lat="44.63026" lon="2.35715">
        <ele>217.8</ele>
        <time>2023-08-20T12:33:19Z</time>
      </trkpt>
      <trkpt lat="44.6302" lon="2.35718">
        <ele>217.8</ele>
        <time>2023-08-20T12:33:21Z</time>
      </trkpt>
      <trkpt lat="44.6302" lon="2.3572">
        <ele>217.8</ele>
        <time>2023-08-20T12:33:23Z</time>
      </trkpt>
      <trkpt lat="44.6302" lon="2.3572">
        <ele>217.8</ele>
        <time>2023-08-20T12:33:24Z</time>
      </trkpt>
      <trkpt lat="44.63019" lon="2.35721">
        <ele>217.8</ele>
        <time>2023-08-20T12:33:25Z</time>
      </trkpt>
      <trkpt lat="44.6302" lon="2.35721">
        <ele>217.8</ele>
        <time>2023-08-20T12:33:26Z</time>
      </trkpt>
      <trkpt lat="44.6302" lon="2.35721">
        <ele>217.8</ele>
        <time>2023-08-20T12:33:27Z</time>
      </trkpt>
      <trkpt lat="44.63019" lon="2.35722">
        <ele>217.8</ele>
        <time>2023-08-20T12:33:28Z</time>
      </trkpt>
      <trkpt lat="44.63017" lon="2.3572">
        <ele>218.6</ele>
        <time>2023-08-20T12:36:06Z</time>
      </trkpt>
      <trkpt lat="44.63017" lon="2.3572">
        <ele>218.6</ele>
        <time>2023-08-20T12:36:07Z</time>
      </trkpt>
      <trkpt lat="44.63017" lon="2.3572">
        <ele>218.6</ele>
        <time>2023-08-20T12:36:08Z</time>
      </trkpt>
      <trkpt lat="44.63022" lon="2.35719">
        <ele>218.2</ele>
        <time>2023-08-20T12:38:07Z</time>
      </trkpt>
      <trkpt lat="44.63022" lon="2.35719">
        <ele>218</ele>
        <time>2023-08-20T12:38:08Z</time>
      </trkpt>
      <trkpt lat="44.63022" lon="2.35719">
        <ele>217.8</ele>
        <time>2023-08-20T12:38:09Z</time>
      </trkpt>
      <trkpt lat="44.6302" lon="2.3572">
        <ele>217</ele>
        <time>2023-08-20T12:38:19Z</time>
      </trkpt>
      <trkpt lat="44.6302" lon="2.35721">
        <ele>217</ele>
        <time>2023-08-20T12:38:21Z</time>
      </trkpt>
      <trkpt lat="44.63017" lon="2.35721">
        <ele>217.6</ele>
        <time>2023-08-20T12:38:59Z</time>
      </trkpt>
      <trkpt lat="44.63017" lon="2.35722">
        <ele>217.8</ele>
        <time>2023-08-20T12:39:01Z</time>
      </trkpt>
      <trkpt lat="44.63017" lon="2.35722">
        <ele>217.8</ele>
        <time>2023-08-20T12:39:02Z</time>
      </trkpt>
      <trkpt lat="44.63016" lon="2.35721">
        <ele>219.2</ele>
        <time>2023-08-20T12:39:31Z</time>
      </trkpt>
      <trkpt lat="44.63016" lon="2.35721">
        <ele>219.4</ele>
        <time>2023-08-20T12:39:33Z</time>
      </trkpt>
      <trkpt lat="44.63024" lon="2.35718">
        <ele>218.4</ele>
        <time>2023-08-20T12:40:07Z</time>
      </trkpt>
      <trkpt lat="44.63026" lon="2.35717">
        <ele>218.2</ele>
        <time>2023-08-20T12:40:09Z</time>
      </trkpt>
      <trkpt lat="44.63026" lon="2.35717">
        <ele>218.2</ele>
        <time>2023-08-20T12:40:10Z</time>
      </trkpt>
      <trkpt lat="44.63029" lon="2.35714">
        <ele>218.2</ele>
        <time>2023-08-20T12:40:13Z</time>
      </trkpt>
      <trkpt lat="44.63033" lon="2.35712">
        <ele>217.8</ele>
        <time>2023-08-20T12:40:18Z</time>
      </trkpt>
      <trkpt lat="44.63035" lon="2.35711">
        <ele>217.4</ele>
        <time>2023-08-20T12:40:30Z</time>
      </trkpt>
      <trkpt lat="44.63035" lon="2.35711">
        <ele>217.6</ele>
        <time>2023-08-20T12:40:31Z</time>
      </trkpt>
      <trkpt lat="44.63035" lon="2.35711">
        <ele>217.8</ele>
        <time>2023-08-20T12:40:32Z</time>
      </trkpt>
      <trkpt lat="44.6303" lon="2.35719">
        <ele>217.6</ele>
        <time>2023-08-20T12:41:44Z</time>
      </trkpt>
      <trkpt lat="44.6303" lon="2.35719">
        <ele>217.6</ele>
        <time>2023-08-20T12:41:45Z</time>
      </trkpt>
      <trkpt lat="44.6303" lon="2.35719">
        <ele>217.6</ele>
        <time>2023-08-20T12:41:46Z</time>
      </trkpt>
      <trkpt lat="44.6303" lon="2.35719">
        <ele>217.6</ele>
        <time>2023-08-20T12:41:47Z</time>
      </trkpt>
      <trkpt lat="44.6303" lon="2.35719">
        <ele>217.6</ele>
        <time>2023-08-20T12:41:48Z</time>
      </trkpt>
      <trkpt lat="44.6303" lon="2.35719">
        <ele>217.4</ele>
        <time>2023-08-20T12:41:54Z</time>
      </trkpt>
      <trkpt lat="44.6303" lon="2.35719">
        <ele>217.4</ele>
        <time>2023-08-20T12:41:55Z</time>
      </trkpt>
      <trkpt lat="44.6303" lon="2.35719">
        <ele>217.6</ele>
        <time>2023-08-20T12:41:56Z</time>
      </trkpt>
      <trkpt lat="44.63029" lon="2.35719">
        <ele>217.6</ele>
        <time>2023-08-20T12:42:00Z</time>
      </trkpt>
      <trkpt lat="44.63027" lon="2.3572">
        <ele>217.8</ele>
        <time>2023-08-20T12:42:03Z</time>
      </trkpt>
      <trkpt lat="44.63027" lon="2.3572">
        <ele>217.8</ele>
        <time>2023-08-20T12:42:04Z</time>
      </trkpt>
      <trkpt lat="44.63028" lon="2.35719">
        <ele>217.6</ele>
        <time>2023-08-20T12:42:09Z</time>
      </trkpt>
      <trkpt lat="44.63028" lon="2.35719">
        <ele>217.6</ele>
        <time>2023-08-20T12:42:11Z</time>
      </trkpt>
      <trkpt lat="44.6302" lon="2.3572">
        <ele>218.4</ele>
        <time>2023-08-20T12:43:33Z</time>
      </trkpt>
      <trkpt lat="44.6302" lon="2.3572">
        <ele>218.2</ele>
        <time>2023-08-20T12:43:35Z</time>
      </trkpt>
      <trkpt lat="44.63028" lon="2.35722">
        <ele>218.6</ele>
        <time>2023-08-20T12:50:19Z</time>
      </trkpt>
      <trkpt lat="44.63029" lon="2.35721">
        <ele>218.6</ele>
        <time>2023-08-20T12:50:21Z</time>
      </trkpt>
      <trkpt lat="44.63027" lon="2.35719">
        <ele>218.6</ele>
        <time>2023-08-20T12:50:23Z</time>
      </trkpt>
      <trkpt lat="44.6303" lon="2.35715">
        <ele>218.6</ele>
        <time>2023-08-20T12:50:25Z</time>
      </trkpt>
      <trkpt lat="44.63028" lon="2.35721">
        <ele>218.6</ele>
        <time>2023-08-20T12:50:26Z</time>
      </trkpt>
      <trkpt lat="44.63027" lon="2.35721">
        <ele>218.4</ele>
        <time>2023-08-20T12:50:28Z</time>
      </trkpt>
      <trkpt lat="44.63034" lon="2.35709">
        <ele>218.2</ele>
        <time>2023-08-20T12:50:51Z</time>
      </trkpt>
      <trkpt lat="44.63035" lon="2.35708">
        <ele>218.2</ele>
        <time>2023-08-20T12:50:52Z</time>
      </trkpt>
      <trkpt lat="44.63034" lon="2.35708">
        <ele>218</ele>
        <time>2023-08-20T12:50:53Z</time>
      </trkpt>
      <trkpt lat="44.6303" lon="2.3571">
        <ele>218</ele>
        <time>2023-08-20T12:50:55Z</time>
      </trkpt>
      <trkpt lat="44.63022" lon="2.35716">
        <ele>218</ele>
        <time>2023-08-20T12:50:56Z</time>
      </trkpt>
      <trkpt lat="44.63021" lon="2.35717">
        <ele>218</ele>
        <time>2023-08-20T12:50:57Z</time>
      </trkpt>
      <trkpt lat="44.6302" lon="2.35718">
        <ele>218</ele>
        <time>2023-08-20T12:50:58Z</time>
      </trkpt>
      <trkpt lat="44.63018" lon="2.3572">
        <ele>218</ele>
        <time>2023-08-20T12:50:59Z</time>
      </trkpt>
      <trkpt lat="44.63019" lon="2.35721">
        <ele>217.8</ele>
        <time>2023-08-20T12:51:00Z</time>
      </trkpt>
      <trkpt lat="44.6302" lon="2.35721">
        <ele>217.8</ele>
        <time>2023-08-20T12:51:01Z</time>
      </trkpt>
      <trkpt lat="44.6302" lon="2.35722">
        <ele>217.8</ele>
        <time>2023-08-20T12:51:02Z</time>
      </trkpt>
      <trkpt lat="44.63022" lon="2.3572">
        <ele>218.4</ele>
        <time>2023-08-20T12:51:20Z</time>
      </trkpt>
      <trkpt lat="44.63023" lon="2.35722">
        <ele>218.4</ele>
        <time>2023-08-20T12:51:21Z</time>
      </trkpt>
      <trkpt lat="44.63024" lon="2.35723">
        <ele>218.2</ele>
        <time>2023-08-20T12:51:22Z</time>
      </trkpt>
      <trkpt lat="44.63023" lon="2.35723">
        <ele>218.2</ele>
        <time>2023-08-20T12:51:23Z</time>
      </trkpt>
      <trkpt lat="44.63022" lon="2.35723">
        <ele>218.2</ele>
        <time>2023-08-20T12:51:24Z</time>
      </trkpt>
      <trkpt lat="44.63023" lon="2.35726">
        <ele>218</ele>
        <time>2023-08-20T12:51:25Z</time>
      </trkpt>
      <trkpt lat="44.63021" lon="2.35728">
        <ele>218</ele>
        <time>2023-08-20T12:51:27Z</time>
      </trkpt>
      <trkpt lat="44.63017" lon="2.35729">
        <ele>218</ele>
        <time>2023-08-20T12:51:28Z</time>
      </trkpt>
      <trkpt lat="44.63018" lon="2.3573">
        <ele>217.8</ele>
        <time>2023-08-20T12:51:30Z</time>
      </trkpt>
      <trkpt lat="44.63019" lon="2.3573">
        <ele>217.8</ele>
        <time>2023-08-20T12:51:32Z</time>
      </trkpt>
      <trkpt lat="44.63024" lon="2.35724">
        <ele>217.8</ele>
        <time>2023-08-20T12:51:35Z</time>
      </trkpt>
      <trkpt lat="44.63024" lon="2.35723">
        <ele>218.2</ele>
        <time>2023-08-20T12:51:36Z</time>
      </trkpt>
      <trkpt lat="44.63024" lon="2.35725">
        <ele>218.2</ele>
        <time>2023-08-20T12:51:38Z</time>
      </trkpt>
      <trkpt lat="44.63024" lon="2.35725">
        <ele>218.4</ele>
        <time>2023-08-20T12:51:40Z</time>
      </trkpt>
      <trkpt lat="44.63024" lon="2.35725">
        <ele>218.4</ele>
        <time>2023-08-20T12:51:41Z</time>
      </trkpt>
      <trkpt lat="44.63024" lon="2.35727">
        <ele>218.4</ele>
        <time>2023-08-20T12:51:42Z</time>
      </trkpt>
      <trkpt lat="44.63024" lon="2.35728">
        <ele>218.4</ele>
        <time>2023-08-20T12:51:43Z</time>
      </trkpt>
      <trkpt lat="44.63025" lon="2.35729">
        <ele>218.4</ele>
        <time>2023-08-20T12:51:44Z</time>
      </trkpt>
      <trkpt lat="44.63026" lon="2.3573">
        <ele>218.4</ele>
        <time>2023-08-20T12:51:45Z</time>
      </trkpt>
      <trkpt lat="44.63025" lon="2.35733">
        <ele>218.2</ele>
        <time>2023-08-20T12:51:49Z</time>
      </trkpt>
      <trkpt lat="44.6303" lon="2.35726">
        <ele>218.2</ele>
        <time>2023-08-20T12:51:55Z</time>
      </trkpt>
      <trkpt lat="44.6303" lon="2.35726">
        <ele>218.2</ele>
        <time>2023-08-20T12:51:56Z</time>
      </trkpt>
      <trkpt lat="44.6303" lon="2.35726">
        <ele>218</ele>
        <time>2023-08-20T12:52:00Z</time>
      </trkpt>
      <trkpt lat="44.63026" lon="2.35724">
        <ele>218</ele>
        <time>2023-08-20T12:52:03Z</time>
      </trkpt>
      <trkpt lat="44.63025" lon="2.35725">
        <ele>218</ele>
        <time>2023-08-20T12:52:05Z</time>
      </trkpt>
      <trkpt lat="44.63025" lon="2.35726">
        <ele>218</ele>
        <time>2023-08-20T12:52:06Z</time>
      </trkpt>
      <trkpt lat="44.63025" lon="2.35726">
        <ele>218</ele>
        <time>2023-08-20T12:52:07Z</time>
      </trkpt>
      <trkpt lat="44.63025" lon="2.35726">
        <ele>218</ele>
        <time>2023-08-20T12:52:08Z</time>
      </trkpt>
      <trkpt lat="44.63025" lon="2.35726">
        <ele>218</ele>
        <time>2023-08-20T12:52:09Z</time>
      </trkpt>
      <trkpt lat="44.63025" lon="2.35728">
        <ele>217.8</ele>
        <time>2023-08-20T12:52:36Z</time>
      </trkpt>
      <trkpt lat="44.63026" lon="2.3573">
        <ele>217.8</ele>
        <time>2023-08-20T12:52:37Z</time>
      </trkpt>
      <trkpt lat="44.63026" lon="2.35731">
        <ele>217.8</ele>
        <time>2023-08-20T12:52:38Z</time>
      </trkpt>
      <trkpt lat="44.63026" lon="2.35731">
        <ele>217.8</ele>
        <time>2023-08-20T12:52:39Z</time>
      </trkpt>
      <trkpt lat="44.63026" lon="2.35731">
        <ele>217.8</ele>
        <time>2023-08-20T12:52:40Z</time>
      </trkpt>
      <trkpt lat="44.63028" lon="2.35729">
        <ele>217.8</ele>
        <time>2023-08-20T12:52:46Z</time>
      </trkpt>
      <trkpt lat="44.63028" lon="2.35729">
        <ele>217.8</ele>
        <time>2023-08-20T12:52:47Z</time>
      </trkpt>
      <trkpt lat="44.63028" lon="2.35729">
        <ele>217.8</ele>
        <time>2023-08-20T12:52:48Z</time>
      </trkpt>
      <trkpt lat="44.63031" lon="2.3573">
        <ele>217.8</ele>
        <time>2023-08-20T12:53:05Z</time>
      </trkpt>
      <trkpt lat="44.63031" lon="2.3573">
        <ele>217.8</ele>
        <time>2023-08-20T12:53:07Z</time>
      </trkpt>
      <trkpt lat="44.63035" lon="2.3572">
        <ele>218</ele>
        <time>2023-08-20T12:53:45Z</time>
      </trkpt>
      <trkpt lat="44.63034" lon="2.35719">
        <ele>218</ele>
        <time>2023-08-20T12:53:48Z</time>
      </trkpt>
      <trkpt lat="44.63028" lon="2.35733">
        <ele>216.6</ele>
        <time>2023-08-20T12:54:00Z</time>
      </trkpt>
      <trkpt lat="44.63041" lon="2.35729">
        <ele>216.4</ele>
        <time>2023-08-20T12:54:02Z</time>
      </trkpt>
      <trkpt lat="44.63052" lon="2.35717">
        <ele>216.8</ele>
        <time>2023-08-20T12:54:05Z</time>
      </trkpt>
      <trkpt lat="44.63052" lon="2.35716">
        <ele>217</ele>
        <time>2023-08-20T12:54:06Z</time>
      </trkpt>
      <trkpt lat="44.63052" lon="2.35716">
        <ele>217</ele>
        <time>2023-08-20T12:54:07Z</time>
      </trkpt>
      <trkpt lat="44.63053" lon="2.35716">
        <ele>217.4</ele>
        <time>2023-08-20T12:54:09Z</time>
      </trkpt>
      <trkpt lat="44.63053" lon="2.35716">
        <ele>218</ele>
        <time>2023-08-20T12:54:10Z</time>
      </trkpt>
      <trkpt lat="44.63053" lon="2.35715">
        <ele>218.4</ele>
        <time>2023-08-20T12:54:12Z</time>
      </trkpt>
      <trkpt lat="44.63042" lon="2.35723">
        <ele>218</ele>
        <time>2023-08-20T12:54:23Z</time>
      </trkpt>
      <trkpt lat="44.63042" lon="2.35723">
        <ele>218</ele>
        <time>2023-08-20T12:54:24Z</time>
      </trkpt>
      <trkpt lat="44.63042" lon="2.35723">
        <ele>218.2</ele>
        <time>2023-08-20T12:54:25Z</time>
      </trkpt>
      <trkpt lat="44.6304" lon="2.35724">
        <ele>218.2</ele>
        <time>2023-08-20T12:54:35Z</time>
      </trkpt>
      <trkpt lat="44.63039" lon="2.35724">
        <ele>217.8</ele>
        <time>2023-08-20T12:54:38Z</time>
      </trkpt>
      <trkpt lat="44.63032" lon="2.35724">
        <ele>217.6</ele>
        <time>2023-08-20T12:54:45Z</time>
      </trkpt>
      <trkpt lat="44.63031" lon="2.35724">
        <ele>217.6</ele>
        <time>2023-08-20T12:54:46Z</time>
      </trkpt>
      <trkpt lat="44.6303" lon="2.35724">
        <ele>217.6</ele>
        <time>2023-08-20T12:54:47Z</time>
      </trkpt>
      <trkpt lat="44.63029" lon="2.35724">
        <ele>217.6</ele>
        <time>2023-08-20T12:54:48Z</time>
      </trkpt>
      <trkpt lat="44.63034" lon="2.35716">
        <ele>218.2</ele>
        <time>2023-08-20T12:55:17Z</time>
      </trkpt>
      <trkpt lat="44.63046" lon="2.35708">
        <ele>218.2</ele>
        <time>2023-08-20T12:55:20Z</time>
      </trkpt>
      <trkpt lat="44.63047" lon="2.35704">
        <ele>218.2</ele>
        <time>2023-08-20T12:55:23Z</time>
      </trkpt>
      <trkpt lat="44.63048" lon="2.35704">
        <ele>218.2</ele>
        <time>2023-08-20T12:55:24Z</time>
      </trkpt>
      <trkpt lat="44.63049" lon="2.35703">
        <ele>218.2</ele>
        <time>2023-08-20T12:55:25Z</time>
      </trkpt>
      <trkpt lat="44.63048" lon="2.35705">
        <ele>218.2</ele>
        <time>2023-08-20T12:55:26Z</time>
      </trkpt>
      <trkpt lat="44.63048" lon="2.35707">
        <ele>218.2</ele>
        <time>2023-08-20T12:55:28Z</time>
      </trkpt>
      <trkpt lat="44.63049" lon="2.35706">
        <ele>218.2</ele>
        <time>2023-08-20T12:55:30Z</time>
      </trkpt>
      <trkpt lat="44.63049" lon="2.35706">
        <ele>218.2</ele>
        <time>2023-08-20T12:55:31Z</time>
      </trkpt>
      <trkpt lat="44.63045" lon="2.35709">
        <ele>218.2</ele>
        <time>2023-08-20T12:55:34Z</time>
      </trkpt>
      <trkpt lat="44.63041" lon="2.35711">
        <ele>218.2</ele>
        <time>2023-08-20T12:55:36Z</time>
      </trkpt>
      <trkpt lat="44.6304" lon="2.35712">
        <ele>218.2</ele>
        <time>2023-08-20T12:55:38Z</time>
      </trkpt>
      <trkpt lat="44.6304" lon="2.35712">
        <ele>218.2</ele>
        <time>2023-08-20T12:55:39Z</time>
      </trkpt>
      <trkpt lat="44.63041" lon="2.35713">
        <ele>218.2</ele>
        <time>2023-08-20T12:55:45Z</time>
      </trkpt>
      <trkpt lat="44.63041" lon="2.35715">
        <ele>218.2</ele>
        <time>2023-08-20T12:55:48Z</time>
      </trkpt>
      <trkpt lat="44.63042" lon="2.35714">
        <ele>218.2</ele>
        <time>2023-08-20T12:55:49Z</time>
      </trkpt>
      <trkpt lat="44.63043" lon="2.35713">
        <ele>218.2</ele>
        <time>2023-08-20T12:55:50Z</time>
      </trkpt>
      <trkpt lat="44.63043" lon="2.35711">
        <ele>218.2</ele>
        <time>2023-08-20T12:55:51Z</time>
      </trkpt>
      <trkpt lat="44.63045" lon="2.35707">
        <ele>218.2</ele>
        <time>2023-08-20T12:55:52Z</time>
      </trkpt>
      <trkpt lat="44.63049" lon="2.35709">
        <ele>218.2</ele>
        <time>2023-08-20T12:55:55Z</time>
      </trkpt>
      <trkpt lat="44.63052" lon="2.35706">
        <ele>218.2</ele>
        <time>2023-08-20T12:55:58Z</time>
      </trkpt>
      <trkpt lat="44.63053" lon="2.35705">
        <ele>218.4</ele>
        <time>2023-08-20T12:56:01Z</time>
      </trkpt>
      <trkpt lat="44.63053" lon="2.35705">
        <ele>218.4</ele>
        <time>2023-08-20T12:56:02Z</time>
      </trkpt>
      <trkpt lat="44.63052" lon="2.35708">
        <ele>218.4</ele>
        <time>2023-08-20T12:56:03Z</time>
      </trkpt>
      <trkpt lat="44.63051" lon="2.35709">
        <ele>218.4</ele>
        <time>2023-08-20T12:56:04Z</time>
      </trkpt>
      <trkpt lat="44.63048" lon="2.35712">
        <ele>218.4</ele>
        <time>2023-08-20T12:56:05Z</time>
      </trkpt>
      <trkpt lat="44.63046" lon="2.35712">
        <ele>218.4</ele>
        <time>2023-08-20T12:56:06Z</time>
      </trkpt>
      <trkpt lat="44.6304" lon="2.35717">
        <ele>218.2</ele>
        <time>2023-08-20T12:56:08Z</time>
      </trkpt>
      <trkpt lat="44.63037" lon="2.35717">
        <ele>218.2</ele>
        <time>2023-08-20T12:56:09Z</time>
      </trkpt>
      <trkpt lat="44.63035" lon="2.35716">
        <ele>218.2</ele>
        <time>2023-08-20T12:56:10Z</time>
      </trkpt>
      <trkpt lat="44.63033" lon="2.35715">
        <ele>218.4</ele>
        <time>2023-08-20T12:56:11Z</time>
      </trkpt>
      <trkpt lat="44.63024" lon="2.35719">
        <ele>218.6</ele>
        <time>2023-08-20T12:56:20Z</time>
      </trkpt>
      <trkpt lat="44.63024" lon="2.35719">
        <ele>218.8</ele>
        <time>2023-08-20T12:56:22Z</time>
      </trkpt>
      <trkpt lat="44.63024" lon="2.35719">
        <ele>218.8</ele>
        <time>2023-08-20T12:56:23Z</time>
      </trkpt>
      <trkpt lat="44.63025" lon="2.35718">
        <ele>218.8</ele>
        <time>2023-08-20T12:56:24Z</time>
      </trkpt>
      <trkpt lat="44.63026" lon="2.3572">
        <ele>218.6</ele>
        <time>2023-08-20T12:56:25Z</time>
      </trkpt>
      <trkpt lat="44.63026" lon="2.3572">
        <ele>218.6</ele>
        <time>2023-08-20T12:56:26Z</time>
      </trkpt>
      <trkpt lat="44.63027" lon="2.35719">
        <ele>218.4</ele>
        <time>2023-08-20T12:56:27Z</time>
      </trkpt>
      <trkpt lat="44.63027" lon="2.35719">
        <ele>218.4</ele>
        <time>2023-08-20T12:56:28Z</time>
      </trkpt>
      <trkpt lat="44.63027" lon="2.35719">
        <ele>218.2</ele>
        <time>2023-08-20T12:56:29Z</time>
      </trkpt>
      <trkpt lat="44.63035" lon="2.35715">
        <ele>217.8</ele>
        <time>2023-08-20T12:56:53Z</time>
      </trkpt>
      <trkpt lat="44.63035" lon="2.35715">
        <ele>217.6</ele>
        <time>2023-08-20T12:56:55Z</time>
      </trkpt>
      <trkpt lat="44.63035" lon="2.35716">
        <ele>217.6</ele>
        <time>2023-08-20T12:56:56Z</time>
      </trkpt>
      <trkpt lat="44.63036" lon="2.35716">
        <ele>217.8</ele>
        <time>2023-08-20T12:56:57Z</time>
      </trkpt>
      <trkpt lat="44.63039" lon="2.35714">
        <ele>218</ele>
        <time>2023-08-20T12:57:07Z</time>
      </trkpt>
      <trkpt lat="44.63041" lon="2.35713">
        <ele>218</ele>
        <time>2023-08-20T12:57:08Z</time>
      </trkpt>
      <trkpt lat="44.63043" lon="2.35712">
        <ele>217.4</ele>
        <time>2023-08-20T12:57:12Z</time>
      </trkpt>
      <trkpt lat="44.63042" lon="2.35713">
        <ele>217.2</ele>
        <time>2023-08-20T12:57:13Z</time>
      </trkpt>
      <trkpt lat="44.63042" lon="2.35713">
        <ele>217</ele>
        <time>2023-08-20T12:57:14Z</time>
      </trkpt>
      <trkpt lat="44.63049" lon="2.35704">
        <ele>218.4</ele>
        <time>2023-08-20T12:57:20Z</time>
      </trkpt>
      <trkpt lat="44.6305" lon="2.35703">
        <ele>219.2</ele>
        <time>2023-08-20T12:57:21Z</time>
      </trkpt>
      <trkpt lat="44.63048" lon="2.35704">
        <ele>219.8</ele>
        <time>2023-08-20T12:57:22Z</time>
      </trkpt>
      <trkpt lat="44.63044" lon="2.35706">
        <ele>220</ele>
        <time>2023-08-20T12:57:23Z</time>
      </trkpt>
      <trkpt lat="44.63027" lon="2.3572">
        <ele>220</ele>
        <time>2023-08-20T12:57:28Z</time>
      </trkpt>
      <trkpt lat="44.63015" lon="2.35729">
        <ele>220</ele>
        <time>2023-08-20T12:57:29Z</time>
      </trkpt>
      <trkpt lat="44.63003" lon="2.35741">
        <ele>219.6</ele>
        <time>2023-08-20T12:57:31Z</time>
      </trkpt>
      <trkpt lat="44.63012" lon="2.35732">
        <ele>219.4</ele>
        <time>2023-08-20T12:57:32Z</time>
      </trkpt>
      <trkpt lat="44.63013" lon="2.35731">
        <ele>219.2</ele>
        <time>2023-08-20T12:57:33Z</time>
      </trkpt>
      <trkpt lat="44.63015" lon="2.35726">
        <ele>219</ele>
        <time>2023-08-20T12:57:34Z</time>
      </trkpt>
      <trkpt lat="44.63014" lon="2.35726">
        <ele>218.6</ele>
        <time>2023-08-20T12:57:35Z</time>
      </trkpt>
      <trkpt lat="44.63014" lon="2.35726">
        <ele>218.6</ele>
        <time>2023-08-20T12:57:36Z</time>
      </trkpt>
      <trkpt lat="44.63014" lon="2.35728">
        <ele>217.6</ele>
        <time>2023-08-20T12:57:40Z</time>
      </trkpt>
      <trkpt lat="44.63016" lon="2.35728">
        <ele>217.6</ele>
        <time>2023-08-20T12:57:41Z</time>
      </trkpt>
      <trkpt lat="44.63016" lon="2.35728">
        <ele>217.2</ele>
        <time>2023-08-20T12:57:42Z</time>
      </trkpt>
      <trkpt lat="44.63014" lon="2.3573">
        <ele>217</ele>
        <time>2023-08-20T12:57:43Z</time>
      </trkpt>
      <trkpt lat="44.63019" lon="2.35729">
        <ele>216.8</ele>
        <time>2023-08-20T12:57:44Z</time>
      </trkpt>
      <trkpt lat="44.63019" lon="2.35729">
        <ele>216.8</ele>
        <time>2023-08-20T12:57:45Z</time>
      </trkpt>
      <trkpt lat="44.63019" lon="2.35729">
        <ele>217</ele>
        <time>2023-08-20T12:57:46Z</time>
      </trkpt>
      <trkpt lat="44.63036" lon="2.35717">
        <ele>218</ele>
        <time>2023-08-20T12:57:59Z</time>
      </trkpt>
      <trkpt lat="44.63035" lon="2.35718">
        <ele>218.2</ele>
        <time>2023-08-20T12:58:00Z</time>
      </trkpt>
      <trkpt lat="44.63035" lon="2.35718">
        <ele>218.2</ele>
        <time>2023-08-20T12:58:01Z</time>
      </trkpt>
      <trkpt lat="44.63035" lon="2.35718">
        <ele>219.2</ele>
        <time>2023-08-20T12:58:02Z</time>
      </trkpt>
      <trkpt lat="44.63035" lon="2.35718">
        <ele>220.2</ele>
        <time>2023-08-20T12:58:03Z</time>
      </trkpt>
      <trkpt lat="44.63033" lon="2.35717">
        <ele>218.4</ele>
        <time>2023-08-20T12:58:26Z</time>
      </trkpt>
      <trkpt lat="44.63031" lon="2.35718">
        <ele>218.4</ele>
        <time>2023-08-20T12:58:27Z</time>
      </trkpt>
      <trkpt lat="44.6303" lon="2.35718">
        <ele>218.4</ele>
        <time>2023-08-20T12:58:28Z</time>
      </trkpt>
      <trkpt lat="44.6303" lon="2.35718">
        <ele>218.4</ele>
        <time>2023-08-20T12:58:29Z</time>
      </trkpt>
      <trkpt lat="44.6303" lon="2.35718">
        <ele>218.4</ele>
        <time>2023-08-20T12:58:30Z</time>
      </trkpt>
      <trkpt lat="44.63038" lon="2.35719">
        <ele>218.6</ele>
        <time>2023-08-20T12:59:50Z</time>
      </trkpt>
      <trkpt lat="44.63039" lon="2.35719">
        <ele>218.6</ele>
        <time>2023-08-20T12:59:53Z</time>
      </trkpt>
      <trkpt lat="44.6304" lon="2.35717">
        <ele>218.4</ele>
        <time>2023-08-20T12:59:55Z</time>
      </trkpt>
      <trkpt lat="44.63041" lon="2.35717">
        <ele>218.4</ele>
        <time>2023-08-20T12:59:56Z</time>
      </trkpt>
      <trkpt lat="44.63041" lon="2.35717">
        <ele>218.4</ele>
        <time>2023-08-20T12:59:57Z</time>
      </trkpt>
      <trkpt lat="44.63041" lon="2.35717">
        <ele>218.4</ele>
        <time>2023-08-20T12:59:58Z</time>
      </trkpt>
      <trkpt lat="44.63045" lon="2.35716">
        <ele>218.6</ele>
        <time>2023-08-20T13:00:16Z</time>
      </trkpt>
      <trkpt lat="44.63045" lon="2.35716">
        <ele>218.4</ele>
        <time>2023-08-20T13:00:18Z</time>
      </trkpt>
      <trkpt lat="44.63044" lon="2.35716">
        <ele>218.2</ele>
        <time>2023-08-20T13:00:24Z</time>
      </trkpt>
      <trkpt lat="44.63044" lon="2.35716">
        <ele>218.2</ele>
        <time>2023-08-20T13:00:25Z</time>
      </trkpt>
      <trkpt lat="44.63044" lon="2.35716">
        <ele>218.2</ele>
        <time>2023-08-20T13:00:26Z</time>
      </trkpt>
      <trkpt lat="44.63041" lon="2.35715">
        <ele>219.2</ele>
        <time>2023-08-20T13:07:25Z</time>
      </trkpt>
      <trkpt lat="44.63042" lon="2.35714">
        <ele>219</ele>
        <time>2023-08-20T13:07:27Z</time>
      </trkpt>
      <trkpt lat="44.63041" lon="2.35716">
        <ele>218.8</ele>
        <time>2023-08-20T13:07:31Z</time>
      </trkpt>
      <trkpt lat="44.63041" lon="2.35716">
        <ele>218.8</ele>
        <time>2023-08-20T13:07:32Z</time>
      </trkpt>
      <trkpt lat="44.63027" lon="2.3572">
        <ele>219.4</ele>
        <time>2023-08-20T13:27:47Z</time>
      </trkpt>
      <trkpt lat="44.63027" lon="2.3572">
        <ele>219.4</ele>
        <time>2023-08-20T13:27:48Z</time>
      </trkpt>
      <trkpt lat="44.63027" lon="2.3572">
        <ele>219.4</ele>
        <time>2023-08-20T13:27:49Z</time>
      </trkpt>
      <trkpt lat="44.63035" lon="2.35717">
        <ele>218.6</ele>
        <time>2023-08-20T13:28:01Z</time>
      </trkpt>
      <trkpt lat="44.63036" lon="2.35718">
        <ele>218.6</ele>
        <time>2023-08-20T13:28:02Z</time>
      </trkpt>
      <trkpt lat="44.63038" lon="2.3572">
        <ele>218.6</ele>
        <time>2023-08-20T13:28:03Z</time>
      </trkpt>
      <trkpt lat="44.63042" lon="2.35724">
        <ele>218.6</ele>
        <time>2023-08-20T13:28:06Z</time>
      </trkpt>
      <trkpt lat="44.63041" lon="2.35725">
        <ele>218.6</ele>
        <time>2023-08-20T13:28:07Z</time>
      </trkpt>
      <trkpt lat="44.6304" lon="2.35725">
        <ele>218.8</ele>
        <time>2023-08-20T13:28:08Z</time>
      </trkpt>
      <trkpt lat="44.63037" lon="2.35729">
        <ele>219.2</ele>
        <time>2023-08-20T13:28:10Z</time>
      </trkpt>
      <trkpt lat="44.63035" lon="2.35732">
        <ele>219.2</ele>
        <time>2023-08-20T13:28:11Z</time>
      </trkpt>
      <trkpt lat="44.63032" lon="2.35734">
        <ele>219.2</ele>
        <time>2023-08-20T13:28:12Z</time>
      </trkpt>
      <trkpt lat="44.63027" lon="2.35737">
        <ele>219.4</ele>
        <time>2023-08-20T13:28:13Z</time>
      </trkpt>
      <trkpt lat="44.63023" lon="2.35735">
        <ele>219.4</ele>
        <time>2023-08-20T13:28:14Z</time>
      </trkpt>
      <trkpt lat="44.63018" lon="2.35736">
        <ele>219.2</ele>
        <time>2023-08-20T13:28:16Z</time>
      </trkpt>
      <trkpt lat="44.63018" lon="2.35735">
        <ele>219.2</ele>
        <time>2023-08-20T13:28:17Z</time>
      </trkpt>
      <trkpt lat="44.6302" lon="2.35732">
        <ele>219.2</ele>
        <time>2023-08-20T13:28:18Z</time>
      </trkpt>
      <trkpt lat="44.63022" lon="2.35731">
        <ele>219.2</ele>
        <time>2023-08-20T13:28:19Z</time>
      </trkpt>
      <trkpt lat="44.63031" lon="2.35727">
        <ele>219.2</ele>
        <time>2023-08-20T13:28:20Z</time>
      </trkpt>
      <trkpt lat="44.63034" lon="2.35727">
        <ele>219</ele>
        <time>2023-08-20T13:28:21Z</time>
      </trkpt>
      <trkpt lat="44.63043" lon="2.35724">
        <ele>219</ele>
        <time>2023-08-20T13:28:22Z</time>
      </trkpt>
      <trkpt lat="44.63039" lon="2.35727">
        <ele>219</ele>
        <time>2023-08-20T13:28:23Z</time>
      </trkpt>
      <trkpt lat="44.63039" lon="2.35726">
        <ele>219</ele>
        <time>2023-08-20T13:28:24Z</time>
      </trkpt>
      <trkpt lat="44.63039" lon="2.35727">
        <ele>219</ele>
        <time>2023-08-20T13:28:25Z</time>
      </trkpt>
      <trkpt lat="44.63032" lon="2.3573">
        <ele>219</ele>
        <time>2023-08-20T13:28:26Z</time>
      </trkpt>
      <trkpt lat="44.63026" lon="2.35732">
        <ele>219</ele>
        <time>2023-08-20T13:28:27Z</time>
      </trkpt>
      <trkpt lat="44.63015" lon="2.35733">
        <ele>219</ele>
        <time>2023-08-20T13:28:29Z</time>
      </trkpt>
      <trkpt lat="44.63009" lon="2.35733">
        <ele>219</ele>
        <time>2023-08-20T13:28:30Z</time>
      </trkpt>
      <trkpt lat="44.63003" lon="2.35735">
        <ele>219</ele>
        <time>2023-08-20T13:28:31Z</time>
      </trkpt>
      <trkpt lat="44.62997" lon="2.35737">
        <ele>219</ele>
        <time>2023-08-20T13:28:33Z</time>
      </trkpt>
      <trkpt lat="44.62997" lon="2.35736">
        <ele>219</ele>
        <time>2023-08-20T13:28:34Z</time>
      </trkpt>
      <trkpt lat="44.62994" lon="2.35738">
        <ele>219</ele>
        <time>2023-08-20T13:28:35Z</time>
      </trkpt>
      <trkpt lat="44.62992" lon="2.35738">
        <ele>219</ele>
        <time>2023-08-20T13:28:36Z</time>
      </trkpt>
      <trkpt lat="44.62989" lon="2.35738">
        <ele>219</ele>
        <time>2023-08-20T13:28:37Z</time>
      </trkpt>
      <trkpt lat="44.62988" lon="2.35739">
        <ele>219</ele>
        <time>2023-08-20T13:28:38Z</time>
      </trkpt>
      <trkpt lat="44.62987" lon="2.35742">
        <ele>219.2</ele>
        <time>2023-08-20T13:28:39Z</time>
      </trkpt>
      <trkpt lat="44.62988" lon="2.35742">
        <ele>219.2</ele>
        <time>2023-08-20T13:28:40Z</time>
      </trkpt>
      <trkpt lat="44.62992" lon="2.35739">
        <ele>219.2</ele>
        <time>2023-08-20T13:28:41Z</time>
      </trkpt>
      <trkpt lat="44.63001" lon="2.35732">
        <ele>219.2</ele>
        <time>2023-08-20T13:28:43Z</time>
      </trkpt>
      <trkpt lat="44.63002" lon="2.35732">
        <ele>219.2</ele>
        <time>2023-08-20T13:28:44Z</time>
      </trkpt>
      <trkpt lat="44.63001" lon="2.35732">
        <ele>219.2</ele>
        <time>2023-08-20T13:28:45Z</time>
      </trkpt>
      <trkpt lat="44.63017" lon="2.35729">
        <ele>219.2</ele>
        <time>2023-08-20T13:28:46Z</time>
      </trkpt>
      <trkpt lat="44.63022" lon="2.35727">
        <ele>219.2</ele>
        <time>2023-08-20T13:28:47Z</time>
      </trkpt>
      <trkpt lat="44.63024" lon="2.35727">
        <ele>219.2</ele>
        <time>2023-08-20T13:28:48Z</time>
      </trkpt>
      <trkpt lat="44.63024" lon="2.35728">
        <ele>219.2</ele>
        <time>2023-08-20T13:28:50Z</time>
      </trkpt>
      <trkpt lat="44.63024" lon="2.35728">
        <ele>219.2</ele>
        <time>2023-08-20T13:28:51Z</time>
      </trkpt>
      <trkpt lat="44.63024" lon="2.35728">
        <ele>219.2</ele>
        <time>2023-08-20T13:28:52Z</time>
      </trkpt>
      <trkpt lat="44.63018" lon="2.35724">
        <ele>219.2</ele>
        <time>2023-08-20T13:29:15Z</time>
      </trkpt>
      <trkpt lat="44.6302" lon="2.35726">
        <ele>219.2</ele>
        <time>2023-08-20T13:29:16Z</time>
      </trkpt>
      <trkpt lat="44.63018" lon="2.35718">
        <ele>219.2</ele>
        <time>2023-08-20T13:29:18Z</time>
      </trkpt>
      <trkpt lat="44.63014" lon="2.35704">
        <ele>219.2</ele>
        <time>2023-08-20T13:29:20Z</time>
      </trkpt>
      <trkpt lat="44.63014" lon="2.35705">
        <ele>219.2</ele>
        <time>2023-08-20T13:29:22Z</time>
      </trkpt>
      <trkpt lat="44.63014" lon="2.35705">
        <ele>219.2</ele>
        <time>2023-08-20T13:29:24Z</time>
      </trkpt>
      <trkpt lat="44.63013" lon="2.35708">
        <ele>219.2</ele>
        <time>2023-08-20T13:29:25Z</time>
      </trkpt>
      <trkpt lat="44.63013" lon="2.35707">
        <ele>219.2</ele>
        <time>2023-08-20T13:29:26Z</time>
      </trkpt>
      <trkpt lat="44.63013" lon="2.35707">
        <ele>219.2</ele>
        <time>2023-08-20T13:29:27Z</time>
      </trkpt>
      <trkpt lat="44.63014" lon="2.35708">
        <ele>219.2</ele>
        <time>2023-08-20T13:29:29Z</time>
      </trkpt>
      <trkpt lat="44.63017" lon="2.35717">
        <ele>219.2</ele>
        <time>2023-08-20T13:29:33Z</time>
      </trkpt>
      <trkpt lat="44.63018" lon="2.35716">
        <ele>219.2</ele>
        <time>2023-08-20T13:29:34Z</time>
      </trkpt>
      <trkpt lat="44.6302" lon="2.35714">
        <ele>219.2</ele>
        <time>2023-08-20T13:29:35Z</time>
      </trkpt>
      <trkpt lat="44.6302" lon="2.35713">
        <ele>219.2</ele>
        <time>2023-08-20T13:29:36Z</time>
      </trkpt>
      <trkpt lat="44.6302" lon="2.35713">
        <ele>219.2</ele>
        <time>2023-08-20T13:29:37Z</time>
      </trkpt>
      <trkpt lat="44.6302" lon="2.35713">
        <ele>219.2</ele>
        <time>2023-08-20T13:29:38Z</time>
      </trkpt>
      <trkpt lat="44.63023" lon="2.35717">
        <ele>217.4</ele>
        <time>2023-08-20T13:31:12Z</time>
      </trkpt>
      <trkpt lat="44.63021" lon="2.35715">
        <ele>217.4</ele>
        <time>2023-08-20T13:31:13Z</time>
      </trkpt>
      <trkpt lat="44.63016" lon="2.35713">
        <ele>217.4</ele>
        <time>2023-08-20T13:31:16Z</time>
      </trkpt>
      <trkpt lat="44.63015" lon="2.35714">
        <ele>217.4</ele>
        <time>2023-08-20T13:31:17Z</time>
      </trkpt>
      <trkpt lat="44.63014" lon="2.35716">
        <ele>217.4</ele>
        <time>2023-08-20T13:31:18Z</time>
      </trkpt>
      <trkpt lat="44.63014" lon="2.35717">
        <ele>217.6</ele>
        <time>2023-08-20T13:31:19Z</time>
      </trkpt>
      <trkpt lat="44.63014" lon="2.35717">
        <ele>217.6</ele>
        <time>2023-08-20T13:31:20Z</time>
      </trkpt>
      <trkpt lat="44.63014" lon="2.35717">
        <ele>217.6</ele>
        <time>2023-08-20T13:31:21Z</time>
      </trkpt>
      <trkpt lat="44.63015" lon="2.3572">
        <ele>222.6</ele>
        <time>2023-08-20T13:39:54Z</time>
      </trkpt>
      <trkpt lat="44.63016" lon="2.35721">
        <ele>222.6</ele>
        <time>2023-08-20T13:39:55Z</time>
      </trkpt>
      <trkpt lat="44.63016" lon="2.35721">
        <ele>222.6</ele>
        <time>2023-08-20T13:39:56Z</time>
      </trkpt>
      <trkpt lat="44.63016" lon="2.35721">
        <ele>222.6</ele>
        <time>2023-08-20T13:39:57Z</time>
      </trkpt>
      <trkpt lat="44.6302" lon="2.35722">
        <ele>222.4</ele>
        <time>2023-08-20T13:40:01Z</time>
      </trkpt>
      <trkpt lat="44.63025" lon="2.35722">
        <ele>222.2</ele>
        <time>2023-08-20T13:40:02Z</time>
      </trkpt>
      <trkpt lat="44.63029" lon="2.35723">
        <ele>222</ele>
        <time>2023-08-20T13:40:03Z</time>
      </trkpt>
      <trkpt lat="44.63039" lon="2.35722">
        <ele>221.6</ele>
        <time>2023-08-20T13:40:06Z</time>
      </trkpt>
      <trkpt lat="44.63041" lon="2.35721">
        <ele>221.4</ele>
        <time>2023-08-20T13:40:07Z</time>
      </trkpt>
      <trkpt lat="44.63042" lon="2.3572">
        <ele>221.2</ele>
        <time>2023-08-20T13:40:08Z</time>
      </trkpt>
      <trkpt lat="44.63041" lon="2.3572">
        <ele>220.8</ele>
        <time>2023-08-20T13:40:09Z</time>
      </trkpt>
      <trkpt lat="44.63039" lon="2.35721">
        <ele>220.8</ele>
        <time>2023-08-20T13:40:10Z</time>
      </trkpt>
      <trkpt lat="44.63037" lon="2.35721">
        <ele>220.6</ele>
        <time>2023-08-20T13:40:11Z</time>
      </trkpt>
      <trkpt lat="44.63035" lon="2.35722">
        <ele>220.6</ele>
        <time>2023-08-20T13:40:12Z</time>
      </trkpt>
      <trkpt lat="44.63034" lon="2.35722">
        <ele>220.6</ele>
        <time>2023-08-20T13:40:13Z</time>
      </trkpt>
      <trkpt lat="44.63034" lon="2.35722">
        <ele>220.6</ele>
        <time>2023-08-20T13:40:14Z</time>
      </trkpt>
      <trkpt lat="44.63034" lon="2.35722">
        <ele>220.6</ele>
        <time>2023-08-20T13:40:15Z</time>
      </trkpt>
      <trkpt lat="44.63025" lon="2.35724">
        <ele>221.6</ele>
        <time>2023-08-20T13:41:41Z</time>
      </trkpt>
      <trkpt lat="44.6302" lon="2.35725">
        <ele>221.6</ele>
        <time>2023-08-20T13:41:42Z</time>
      </trkpt>
      <trkpt lat="44.63005" lon="2.35732">
        <ele>221.6</ele>
        <time>2023-08-20T13:41:44Z</time>
      </trkpt>
      <trkpt lat="44.62995" lon="2.35738">
        <ele>221.8</ele>
        <time>2023-08-20T13:41:46Z</time>
      </trkpt>
      <trkpt lat="44.62991" lon="2.35741">
        <ele>222</ele>
        <time>2023-08-20T13:41:47Z</time>
      </trkpt>
      <trkpt lat="44.62987" lon="2.35743">
        <ele>222.4</ele>
        <time>2023-08-20T13:41:48Z</time>
      </trkpt>
      <trkpt lat="44.62985" lon="2.35744">
        <ele>222.4</ele>
        <time>2023-08-20T13:41:49Z</time>
      </trkpt>
      <trkpt lat="44.62985" lon="2.35744">
        <ele>222.6</ele>
        <time>2023-08-20T13:41:50Z</time>
      </trkpt>
      <trkpt lat="44.62985" lon="2.35744">
        <ele>222.8</ele>
        <time>2023-08-20T13:41:51Z</time>
      </trkpt>
      <trkpt lat="44.62985" lon="2.35744">
        <ele>223</ele>
        <time>2023-08-20T13:41:52Z</time>
      </trkpt>
      <trkpt lat="44.62978" lon="2.3575">
        <ele>223.6</ele>
        <time>2023-08-20T13:42:47Z</time>
      </trkpt>
      <trkpt lat="44.6297" lon="2.35756">
        <ele>223.6</ele>
        <time>2023-08-20T13:42:48Z</time>
      </trkpt>
      <trkpt lat="44.62956" lon="2.35769">
        <ele>223.6</ele>
        <time>2023-08-20T13:42:50Z</time>
      </trkpt>
      <trkpt lat="44.62942" lon="2.35785">
        <ele>223.8</ele>
        <time>2023-08-20T13:42:52Z</time>
      </trkpt>
      <trkpt lat="44.62936" lon="2.35794">
        <ele>224</ele>
        <time>2023-08-20T13:42:53Z</time>
      </trkpt>
      <trkpt lat="44.62925" lon="2.35812">
        <ele>225</ele>
        <time>2023-08-20T13:42:55Z</time>
      </trkpt>
      <trkpt lat="44.62921" lon="2.35823">
        <ele>225.4</ele>
        <time>2023-08-20T13:42:56Z</time>
      </trkpt>
      <trkpt lat="44.62919" lon="2.35833">
        <ele>225.6</ele>
        <time>2023-08-20T13:42:57Z</time>
      </trkpt>
      <trkpt lat="44.62916" lon="2.35845">
        <ele>225.8</ele>
        <time>2023-08-20T13:42:58Z</time>
      </trkpt>
      <trkpt lat="44.62908" lon="2.35869">
        <ele>226</ele>
        <time>2023-08-20T13:43:00Z</time>
      </trkpt>
      <trkpt lat="44.62902" lon="2.35882">
        <ele>226</ele>
        <time>2023-08-20T13:43:01Z</time>
      </trkpt>
      <trkpt lat="44.62894" lon="2.35895">
        <ele>226.2</ele>
        <time>2023-08-20T13:43:02Z</time>
      </trkpt>
      <trkpt lat="44.62876" lon="2.35921">
        <ele>226.2</ele>
        <time>2023-08-20T13:43:04Z</time>
      </trkpt>
      <trkpt lat="44.62828" lon="2.35986">
        <ele>226.2</ele>
        <time>2023-08-20T13:43:09Z</time>
      </trkpt>
      <trkpt lat="44.62817" lon="2.35997">
        <ele>226.2</ele>
        <time>2023-08-20T13:43:10Z</time>
      </trkpt>
      <trkpt lat="44.62777" lon="2.36025">
        <ele>226.6</ele>
        <time>2023-08-20T13:43:13Z</time>
      </trkpt>
      <trkpt lat="44.62763" lon="2.36035">
        <ele>226.8</ele>
        <time>2023-08-20T13:43:14Z</time>
      </trkpt>
      <trkpt lat="44.62739" lon="2.36058">
        <ele>227.2</ele>
        <time>2023-08-20T13:43:16Z</time>
      </trkpt>
      <trkpt lat="44.62728" lon="2.36071">
        <ele>227.4</ele>
        <time>2023-08-20T13:43:17Z</time>
      </trkpt>
      <trkpt lat="44.62718" lon="2.36085">
        <ele>227.6</ele>
        <time>2023-08-20T13:43:18Z</time>
      </trkpt>
      <trkpt lat="44.62709" lon="2.36099">
        <ele>227.6</ele>
        <time>2023-08-20T13:43:19Z</time>
      </trkpt>
      <trkpt lat="44.627" lon="2.36113">
        <ele>227.6</ele>
        <time>2023-08-20T13:43:20Z</time>
      </trkpt>
      <trkpt lat="44.62692" lon="2.36128">
        <ele>227.6</ele>
        <time>2023-08-20T13:43:21Z</time>
      </trkpt>
      <trkpt lat="44.62684" lon="2.36143">
        <ele>227.6</ele>
        <time>2023-08-20T13:43:22Z</time>
      </trkpt>
      <trkpt lat="44.62677" lon="2.36159">
        <ele>227.6</ele>
        <time>2023-08-20T13:43:23Z</time>
      </trkpt>
      <trkpt lat="44.62671" lon="2.36176">
        <ele>227.6</ele>
        <time>2023-08-20T13:43:24Z</time>
      </trkpt>
      <trkpt lat="44.62659" lon="2.36209">
        <ele>227.6</ele>
        <time>2023-08-20T13:43:26Z</time>
      </trkpt>
      <trkpt lat="44.62639" lon="2.36278">
        <ele>227.6</ele>
        <time>2023-08-20T13:43:30Z</time>
      </trkpt>
      <trkpt lat="44.62628" lon="2.36312">
        <ele>227.6</ele>
        <time>2023-08-20T13:43:32Z</time>
      </trkpt>
      <trkpt lat="44.62614" lon="2.36339">
        <ele>228</ele>
        <time>2023-08-20T13:43:34Z</time>
      </trkpt>
      <trkpt lat="44.62604" lon="2.36349">
        <ele>228</ele>
        <time>2023-08-20T13:43:35Z</time>
      </trkpt>
      <trkpt lat="44.62594" lon="2.36356">
        <ele>228.2</ele>
        <time>2023-08-20T13:43:36Z</time>
      </trkpt>
      <trkpt lat="44.62582" lon="2.36363">
        <ele>228.2</ele>
        <time>2023-08-20T13:43:37Z</time>
      </trkpt>
      <trkpt lat="44.6257" lon="2.36368">
        <ele>228.4</ele>
        <time>2023-08-20T13:43:38Z</time>
      </trkpt>
      <trkpt lat="44.62558" lon="2.36372">
        <ele>228.4</ele>
        <time>2023-08-20T13:43:39Z</time>
      </trkpt>
      <trkpt lat="44.62547" lon="2.36377">
        <ele>228.6</ele>
        <time>2023-08-20T13:43:40Z</time>
      </trkpt>
      <trkpt lat="44.62536" lon="2.36383">
        <ele>228.6</ele>
        <time>2023-08-20T13:43:41Z</time>
      </trkpt>
      <trkpt lat="44.62514" lon="2.36397">
        <ele>228.8</ele>
        <time>2023-08-20T13:43:43Z</time>
      </trkpt>
      <trkpt lat="44.62503" lon="2.36403">
        <ele>229</ele>
        <time>2023-08-20T13:43:44Z</time>
      </trkpt>
      <trkpt lat="44.62481" lon="2.3641">
        <ele>229</ele>
        <time>2023-08-20T13:43:46Z</time>
      </trkpt>
      <trkpt lat="44.6247" lon="2.36411">
        <ele>229.2</ele>
        <time>2023-08-20T13:43:47Z</time>
      </trkpt>
      <trkpt lat="44.62459" lon="2.36408">
        <ele>229.2</ele>
        <time>2023-08-20T13:43:48Z</time>
      </trkpt>
      <trkpt lat="44.62449" lon="2.36402">
        <ele>229.4</ele>
        <time>2023-08-20T13:43:49Z</time>
      </trkpt>
      <trkpt lat="44.62438" lon="2.36392">
        <ele>229.6</ele>
        <time>2023-08-20T13:43:50Z</time>
      </trkpt>
      <trkpt lat="44.62429" lon="2.36379">
        <ele>229.8</ele>
        <time>2023-08-20T13:43:51Z</time>
      </trkpt>
      <trkpt lat="44.6242" lon="2.36365">
        <ele>229.6</ele>
        <time>2023-08-20T13:43:52Z</time>
      </trkpt>
      <trkpt lat="44.6241" lon="2.36349">
        <ele>229.6</ele>
        <time>2023-08-20T13:43:53Z</time>
      </trkpt>
      <trkpt lat="44.6239" lon="2.36316">
        <ele>230</ele>
        <time>2023-08-20T13:43:55Z</time>
      </trkpt>
      <trkpt lat="44.6238" lon="2.36299">
        <ele>230.6</ele>
        <time>2023-08-20T13:43:56Z</time>
      </trkpt>
      <trkpt lat="44.6235" lon="2.36247">
        <ele>231.6</ele>
        <time>2023-08-20T13:43:59Z</time>
      </trkpt>
      <trkpt lat="44.62341" lon="2.3623">
        <ele>232</ele>
        <time>2023-08-20T13:44:00Z</time>
      </trkpt>
      <trkpt lat="44.62332" lon="2.36213">
        <ele>232.2</ele>
        <time>2023-08-20T13:44:01Z</time>
      </trkpt>
      <trkpt lat="44.62323" lon="2.36198">
        <ele>232.4</ele>
        <time>2023-08-20T13:44:02Z</time>
      </trkpt>
      <trkpt lat="44.62315" lon="2.36183">
        <ele>232.4</ele>
        <time>2023-08-20T13:44:03Z</time>
      </trkpt>
      <trkpt lat="44.62307" lon="2.3617">
        <ele>232.4</ele>
        <time>2023-08-20T13:44:04Z</time>
      </trkpt>
      <trkpt lat="44.623" lon="2.36156">
        <ele>232.4</ele>
        <time>2023-08-20T13:44:05Z</time>
      </trkpt>
      <trkpt lat="44.62292" lon="2.36144">
        <ele>232.4</ele>
        <time>2023-08-20T13:44:06Z</time>
      </trkpt>
      <trkpt lat="44.62283" lon="2.36134">
        <ele>232.4</ele>
        <time>2023-08-20T13:44:07Z</time>
      </trkpt>
      <trkpt lat="44.62273" lon="2.36127">
        <ele>232.4</ele>
        <time>2023-08-20T13:44:08Z</time>
      </trkpt>
      <trkpt lat="44.62262" lon="2.36124">
        <ele>232.4</ele>
        <time>2023-08-20T13:44:09Z</time>
      </trkpt>
      <trkpt lat="44.62251" lon="2.36124">
        <ele>232.4</ele>
        <time>2023-08-20T13:44:10Z</time>
      </trkpt>
      <trkpt lat="44.6224" lon="2.36125">
        <ele>232.2</ele>
        <time>2023-08-20T13:44:11Z</time>
      </trkpt>
      <trkpt lat="44.62228" lon="2.36131">
        <ele>232.2</ele>
        <time>2023-08-20T13:44:12Z</time>
      </trkpt>
      <trkpt lat="44.62216" lon="2.36139">
        <ele>232</ele>
        <time>2023-08-20T13:44:13Z</time>
      </trkpt>
      <trkpt lat="44.62205" lon="2.36149">
        <ele>232</ele>
        <time>2023-08-20T13:44:14Z</time>
      </trkpt>
      <trkpt lat="44.62195" lon="2.36162">
        <ele>232</ele>
        <time>2023-08-20T13:44:15Z</time>
      </trkpt>
      <trkpt lat="44.62185" lon="2.36176">
        <ele>232</ele>
        <time>2023-08-20T13:44:16Z</time>
      </trkpt>
      <trkpt lat="44.62174" lon="2.36193">
        <ele>232</ele>
        <time>2023-08-20T13:44:17Z</time>
      </trkpt>
      <trkpt lat="44.62164" lon="2.3621">
        <ele>232</ele>
        <time>2023-08-20T13:44:18Z</time>
      </trkpt>
      <trkpt lat="44.62122" lon="2.3629">
        <ele>232.8</ele>
        <time>2023-08-20T13:44:22Z</time>
      </trkpt>
      <trkpt lat="44.62101" lon="2.36336">
        <ele>233.2</ele>
        <time>2023-08-20T13:44:24Z</time>
      </trkpt>
      <trkpt lat="44.62082" lon="2.36383">
        <ele>234.2</ele>
        <time>2023-08-20T13:44:26Z</time>
      </trkpt>
      <trkpt lat="44.62064" lon="2.36428">
        <ele>234.8</ele>
        <time>2023-08-20T13:44:28Z</time>
      </trkpt>
      <trkpt lat="44.62056" lon="2.3645">
        <ele>234.8</ele>
        <time>2023-08-20T13:44:29Z</time>
      </trkpt>
      <trkpt lat="44.62048" lon="2.36472">
        <ele>235</ele>
        <time>2023-08-20T13:44:30Z</time>
      </trkpt>
      <trkpt lat="44.62041" lon="2.36493">
        <ele>235.2</ele>
        <time>2023-08-20T13:44:31Z</time>
      </trkpt>
      <trkpt lat="44.62036" lon="2.36514">
        <ele>235</ele>
        <time>2023-08-20T13:44:32Z</time>
      </trkpt>
      <trkpt lat="44.62032" lon="2.36535">
        <ele>234.8</ele>
        <time>2023-08-20T13:44:33Z</time>
      </trkpt>
      <trkpt lat="44.6203" lon="2.36557">
        <ele>234.8</ele>
        <time>2023-08-20T13:44:34Z</time>
      </trkpt>
      <trkpt lat="44.62031" lon="2.36579">
        <ele>234.8</ele>
        <time>2023-08-20T13:44:35Z</time>
      </trkpt>
      <trkpt lat="44.62034" lon="2.36601">
        <ele>234.8</ele>
        <time>2023-08-20T13:44:36Z</time>
      </trkpt>
      <trkpt lat="44.62039" lon="2.36623">
        <ele>234.6</ele>
        <time>2023-08-20T13:44:37Z</time>
      </trkpt>
      <trkpt lat="44.62047" lon="2.36644">
        <ele>234.4</ele>
        <time>2023-08-20T13:44:38Z</time>
      </trkpt>
      <trkpt lat="44.62056" lon="2.36665">
        <ele>234.2</ele>
        <time>2023-08-20T13:44:39Z</time>
      </trkpt>
      <trkpt lat="44.62067" lon="2.36684">
        <ele>234</ele>
        <time>2023-08-20T13:44:40Z</time>
      </trkpt>
      <trkpt lat="44.62078" lon="2.36702">
        <ele>233.8</ele>
        <time>2023-08-20T13:44:41Z</time>
      </trkpt>
      <trkpt lat="44.62117" lon="2.36786">
        <ele>233.4</ele>
        <time>2023-08-20T13:44:45Z</time>
      </trkpt>
      <trkpt lat="44.62125" lon="2.36808">
        <ele>233.4</ele>
        <time>2023-08-20T13:44:46Z</time>
      </trkpt>
      <trkpt lat="44.62131" lon="2.36831">
        <ele>233.2</ele>
        <time>2023-08-20T13:44:47Z</time>
      </trkpt>
      <trkpt lat="44.62134" lon="2.36855">
        <ele>233.2</ele>
        <time>2023-08-20T13:44:48Z</time>
      </trkpt>
      <trkpt lat="44.62135" lon="2.36903">
        <ele>233</ele>
        <time>2023-08-20T13:44:50Z</time>
      </trkpt>
      <trkpt lat="44.62132" lon="2.36926">
        <ele>233</ele>
        <time>2023-08-20T13:44:51Z</time>
      </trkpt>
      <trkpt lat="44.62127" lon="2.36948">
        <ele>233</ele>
        <time>2023-08-20T13:44:52Z</time>
      </trkpt>
      <trkpt lat="44.62114" lon="2.36992">
        <ele>232.8</ele>
        <time>2023-08-20T13:44:54Z</time>
      </trkpt>
      <trkpt lat="44.62107" lon="2.37013">
        <ele>232.8</ele>
        <time>2023-08-20T13:44:55Z</time>
      </trkpt>
      <trkpt lat="44.621" lon="2.37034">
        <ele>232.8</ele>
        <time>2023-08-20T13:44:56Z</time>
      </trkpt>
      <trkpt lat="44.62093" lon="2.37054">
        <ele>232.8</ele>
        <time>2023-08-20T13:44:57Z</time>
      </trkpt>
      <trkpt lat="44.62086" lon="2.37074">
        <ele>232.8</ele>
        <time>2023-08-20T13:44:58Z</time>
      </trkpt>
      <trkpt lat="44.62078" lon="2.37094">
        <ele>233</ele>
        <time>2023-08-20T13:44:59Z</time>
      </trkpt>
      <trkpt lat="44.62072" lon="2.37114">
        <ele>233</ele>
        <time>2023-08-20T13:45:00Z</time>
      </trkpt>
      <trkpt lat="44.62065" lon="2.37133">
        <ele>233.2</ele>
        <time>2023-08-20T13:45:01Z</time>
      </trkpt>
      <trkpt lat="44.6206" lon="2.37151">
        <ele>233.2</ele>
        <time>2023-08-20T13:45:02Z</time>
      </trkpt>
      <trkpt lat="44.62055" lon="2.37169">
        <ele>233.2</ele>
        <time>2023-08-20T13:45:03Z</time>
      </trkpt>
      <trkpt lat="44.62049" lon="2.37186">
        <ele>233.2</ele>
        <time>2023-08-20T13:45:04Z</time>
      </trkpt>
      <trkpt lat="44.62044" lon="2.37203">
        <ele>233.2</ele>
        <time>2023-08-20T13:45:05Z</time>
      </trkpt>
      <trkpt lat="44.62037" lon="2.37217">
        <ele>233.4</ele>
        <time>2023-08-20T13:45:06Z</time>
      </trkpt>
      <trkpt lat="44.62028" lon="2.3723">
        <ele>233.4</ele>
        <time>2023-08-20T13:45:07Z</time>
      </trkpt>
      <trkpt lat="44.62016" lon="2.3724">
        <ele>233.6</ele>
        <time>2023-08-20T13:45:08Z</time>
      </trkpt>
      <trkpt lat="44.62003" lon="2.37249">
        <ele>233.6</ele>
        <time>2023-08-20T13:45:09Z</time>
      </trkpt>
      <trkpt lat="44.61989" lon="2.37257">
        <ele>233.6</ele>
        <time>2023-08-20T13:45:10Z</time>
      </trkpt>
      <trkpt lat="44.61974" lon="2.37263">
        <ele>233.6</ele>
        <time>2023-08-20T13:45:11Z</time>
      </trkpt>
      <trkpt lat="44.61958" lon="2.37271">
        <ele>233.6</ele>
        <time>2023-08-20T13:45:12Z</time>
      </trkpt>
      <trkpt lat="44.61897" lon="2.37302">
        <ele>233.6</ele>
        <time>2023-08-20T13:45:16Z</time>
      </trkpt>
      <trkpt lat="44.61882" lon="2.37311">
        <ele>233.8</ele>
        <time>2023-08-20T13:45:17Z</time>
      </trkpt>
      <trkpt lat="44.61868" lon="2.3732">
        <ele>233.8</ele>
        <time>2023-08-20T13:45:18Z</time>
      </trkpt>
      <trkpt lat="44.61854" lon="2.37329">
        <ele>233.8</ele>
        <time>2023-08-20T13:45:19Z</time>
      </trkpt>
      <trkpt lat="44.61798" lon="2.37369">
        <ele>233.4</ele>
        <time>2023-08-20T13:45:23Z</time>
      </trkpt>
      <trkpt lat="44.61783" lon="2.37381">
        <ele>233.2</ele>
        <time>2023-08-20T13:45:24Z</time>
      </trkpt>
      <trkpt lat="44.6177" lon="2.37393">
        <ele>233</ele>
        <time>2023-08-20T13:45:25Z</time>
      </trkpt>
      <trkpt lat="44.61759" lon="2.37403">
        <ele>233</ele>
        <time>2023-08-20T13:45:26Z</time>
      </trkpt>
      <trkpt lat="44.61747" lon="2.37418">
        <ele>232.8</ele>
        <time>2023-08-20T13:45:27Z</time>
      </trkpt>
      <trkpt lat="44.61728" lon="2.37455">
        <ele>232.4</ele>
        <time>2023-08-20T13:45:29Z</time>
      </trkpt>
      <trkpt lat="44.61718" lon="2.3748">
        <ele>232.2</ele>
        <time>2023-08-20T13:45:30Z</time>
      </trkpt>
      <trkpt lat="44.61687" lon="2.37566">
        <ele>232</ele>
        <time>2023-08-20T13:45:34Z</time>
      </trkpt>
      <trkpt lat="44.61681" lon="2.37582">
        <ele>232</ele>
        <time>2023-08-20T13:45:35Z</time>
      </trkpt>
      <trkpt lat="44.61674" lon="2.37602">
        <ele>232</ele>
        <time>2023-08-20T13:45:36Z</time>
      </trkpt>
      <trkpt lat="44.61665" lon="2.37621">
        <ele>232.2</ele>
        <time>2023-08-20T13:45:37Z</time>
      </trkpt>
      <trkpt lat="44.61656" lon="2.37639">
        <ele>232.2</ele>
        <time>2023-08-20T13:45:38Z</time>
      </trkpt>
      <trkpt lat="44.61645" lon="2.37655">
        <ele>232.2</ele>
        <time>2023-08-20T13:45:39Z</time>
      </trkpt>
      <trkpt lat="44.61634" lon="2.37669">
        <ele>232.2</ele>
        <time>2023-08-20T13:45:40Z</time>
      </trkpt>
      <trkpt lat="44.6162" lon="2.3768">
        <ele>232.2</ele>
        <time>2023-08-20T13:45:41Z</time>
      </trkpt>
      <trkpt lat="44.61606" lon="2.3769">
        <ele>232.2</ele>
        <time>2023-08-20T13:45:42Z</time>
      </trkpt>
      <trkpt lat="44.61592" lon="2.37699">
        <ele>232</ele>
        <time>2023-08-20T13:45:43Z</time>
      </trkpt>
      <trkpt lat="44.61575" lon="2.37708">
        <ele>232</ele>
        <time>2023-08-20T13:45:44Z</time>
      </trkpt>
      <trkpt lat="44.61559" lon="2.37713">
        <ele>231.8</ele>
        <time>2023-08-20T13:45:45Z</time>
      </trkpt>
      <trkpt lat="44.61532" lon="2.37721">
        <ele>231.6</ele>
        <time>2023-08-20T13:45:47Z</time>
      </trkpt>
      <trkpt lat="44.61485" lon="2.37739">
        <ele>231.8</ele>
        <time>2023-08-20T13:45:50Z</time>
      </trkpt>
      <trkpt lat="44.61457" lon="2.37762">
        <ele>232</ele>
        <time>2023-08-20T13:45:52Z</time>
      </trkpt>
      <trkpt lat="44.61444" lon="2.37777">
        <ele>232.2</ele>
        <time>2023-08-20T13:45:53Z</time>
      </trkpt>
      <trkpt lat="44.61411" lon="2.37828">
        <ele>232.6</ele>
        <time>2023-08-20T13:45:56Z</time>
      </trkpt>
      <trkpt lat="44.61378" lon="2.37891">
        <ele>233.2</ele>
        <time>2023-08-20T13:45:59Z</time>
      </trkpt>
      <trkpt lat="44.61369" lon="2.37906">
        <ele>233.2</ele>
        <time>2023-08-20T13:46:00Z</time>
      </trkpt>
      <trkpt lat="44.61357" lon="2.37923">
        <ele>233.4</ele>
        <time>2023-08-20T13:46:01Z</time>
      </trkpt>
      <trkpt lat="44.61344" lon="2.37938">
        <ele>233.4</ele>
        <time>2023-08-20T13:46:02Z</time>
      </trkpt>
      <trkpt lat="44.61332" lon="2.37952">
        <ele>233.4</ele>
        <time>2023-08-20T13:46:03Z</time>
      </trkpt>
      <trkpt lat="44.61315" lon="2.37966">
        <ele>233.4</ele>
        <time>2023-08-20T13:46:04Z</time>
      </trkpt>
      <trkpt lat="44.61305" lon="2.37974">
        <ele>233.4</ele>
        <time>2023-08-20T13:46:05Z</time>
      </trkpt>
      <trkpt lat="44.61292" lon="2.37984">
        <ele>233.4</ele>
        <time>2023-08-20T13:46:06Z</time>
      </trkpt>
      <trkpt lat="44.61277" lon="2.37996">
        <ele>233.4</ele>
        <time>2023-08-20T13:46:07Z</time>
      </trkpt>
      <trkpt lat="44.61266" lon="2.38007">
        <ele>233.2</ele>
        <time>2023-08-20T13:46:08Z</time>
      </trkpt>
      <trkpt lat="44.61257" lon="2.3802">
        <ele>233.2</ele>
        <time>2023-08-20T13:46:09Z</time>
      </trkpt>
      <trkpt lat="44.61252" lon="2.38032">
        <ele>233</ele>
        <time>2023-08-20T13:46:10Z</time>
      </trkpt>
      <trkpt lat="44.61249" lon="2.38047">
        <ele>232.8</ele>
        <time>2023-08-20T13:46:11Z</time>
      </trkpt>
      <trkpt lat="44.61249" lon="2.38065">
        <ele>232.4</ele>
        <time>2023-08-20T13:46:12Z</time>
      </trkpt>
      <trkpt lat="44.61254" lon="2.38079">
        <ele>232</ele>
        <time>2023-08-20T13:46:13Z</time>
      </trkpt>
      <trkpt lat="44.61263" lon="2.38092">
        <ele>232</ele>
        <time>2023-08-20T13:46:14Z</time>
      </trkpt>
      <trkpt lat="44.61272" lon="2.38103">
        <ele>231.6</ele>
        <time>2023-08-20T13:46:15Z</time>
      </trkpt>
      <trkpt lat="44.613" lon="2.38134">
        <ele>231.4</ele>
        <time>2023-08-20T13:46:17Z</time>
      </trkpt>
      <trkpt lat="44.61312" lon="2.38149">
        <ele>231.4</ele>
        <time>2023-08-20T13:46:18Z</time>
      </trkpt>
      <trkpt lat="44.61324" lon="2.38166">
        <ele>231.2</ele>
        <time>2023-08-20T13:46:19Z</time>
      </trkpt>
      <trkpt lat="44.61367" lon="2.38237">
        <ele>231.4</ele>
        <time>2023-08-20T13:46:23Z</time>
      </trkpt>
      <trkpt lat="44.61373" lon="2.38256">
        <ele>231.6</ele>
        <time>2023-08-20T13:46:24Z</time>
      </trkpt>
      <trkpt lat="44.61377" lon="2.38276">
        <ele>231.6</ele>
        <time>2023-08-20T13:46:25Z</time>
      </trkpt>
      <trkpt lat="44.61379" lon="2.38295">
        <ele>231.8</ele>
        <time>2023-08-20T13:46:26Z</time>
      </trkpt>
      <trkpt lat="44.61379" lon="2.38313">
        <ele>231.8</ele>
        <time>2023-08-20T13:46:27Z</time>
      </trkpt>
      <trkpt lat="44.61377" lon="2.38326">
        <ele>231.8</ele>
        <time>2023-08-20T13:46:28Z</time>
      </trkpt>
      <trkpt lat="44.61371" lon="2.38338">
        <ele>231.8</ele>
        <time>2023-08-20T13:46:29Z</time>
      </trkpt>
      <trkpt lat="44.61365" lon="2.38348">
        <ele>231.8</ele>
        <time>2023-08-20T13:46:30Z</time>
      </trkpt>
      <trkpt lat="44.61357" lon="2.38358">
        <ele>231.8</ele>
        <time>2023-08-20T13:46:31Z</time>
      </trkpt>
      <trkpt lat="44.61348" lon="2.38366">
        <ele>231.8</ele>
        <time>2023-08-20T13:46:32Z</time>
      </trkpt>
      <trkpt lat="44.61333" lon="2.38377">
        <ele>231.8</ele>
        <time>2023-08-20T13:46:33Z</time>
      </trkpt>
      <trkpt lat="44.61323" lon="2.38384">
        <ele>231.8</ele>
        <time>2023-08-20T13:46:34Z</time>
      </trkpt>
      <trkpt lat="44.6127" lon="2.38414">
        <ele>232.2</ele>
        <time>2023-08-20T13:46:38Z</time>
      </trkpt>
      <trkpt lat="44.61255" lon="2.38419">
        <ele>232.2</ele>
        <time>2023-08-20T13:46:39Z</time>
      </trkpt>
      <trkpt lat="44.61221" lon="2.38426">
        <ele>232.4</ele>
        <time>2023-08-20T13:46:41Z</time>
      </trkpt>
      <trkpt lat="44.61166" lon="2.38436">
        <ele>233.2</ele>
        <time>2023-08-20T13:46:44Z</time>
      </trkpt>
      <trkpt lat="44.6112" lon="2.38434">
        <ele>233.4</ele>
        <time>2023-08-20T13:46:48Z</time>
      </trkpt>
      <trkpt lat="44.61055" lon="2.38424">
        <ele>233.4</ele>
        <time>2023-08-20T13:46:52Z</time>
      </trkpt>
      <trkpt lat="44.61038" lon="2.38425">
        <ele>233.4</ele>
        <time>2023-08-20T13:46:53Z</time>
      </trkpt>
      <trkpt lat="44.60969" lon="2.38431">
        <ele>233.6</ele>
        <time>2023-08-20T13:46:57Z</time>
      </trkpt>
      <trkpt lat="44.60953" lon="2.38434">
        <ele>233.6</ele>
        <time>2023-08-20T13:46:58Z</time>
      </trkpt>
      <trkpt lat="44.60905" lon="2.38442">
        <ele>234</ele>
        <time>2023-08-20T13:47:01Z</time>
      </trkpt>
      <trkpt lat="44.6089" lon="2.38445">
        <ele>234.2</ele>
        <time>2023-08-20T13:47:02Z</time>
      </trkpt>
      <trkpt lat="44.60876" lon="2.38445">
        <ele>234.2</ele>
        <time>2023-08-20T13:47:03Z</time>
      </trkpt>
      <trkpt lat="44.60863" lon="2.38446">
        <ele>234.2</ele>
        <time>2023-08-20T13:47:04Z</time>
      </trkpt>
      <trkpt lat="44.6085" lon="2.38448">
        <ele>234.2</ele>
        <time>2023-08-20T13:47:05Z</time>
      </trkpt>
      <trkpt lat="44.60837" lon="2.38449">
        <ele>234</ele>
        <time>2023-08-20T13:47:06Z</time>
      </trkpt>
      <trkpt lat="44.60823" lon="2.38449">
        <ele>234</ele>
        <time>2023-08-20T13:47:07Z</time>
      </trkpt>
      <trkpt lat="44.6081" lon="2.38448">
        <ele>234</ele>
        <time>2023-08-20T13:47:08Z</time>
      </trkpt>
      <trkpt lat="44.60797" lon="2.38446">
        <ele>234</ele>
        <time>2023-08-20T13:47:09Z</time>
      </trkpt>
      <trkpt lat="44.60785" lon="2.38443">
        <ele>234</ele>
        <time>2023-08-20T13:47:10Z</time>
      </trkpt>
      <trkpt lat="44.60759" lon="2.38439">
        <ele>234</ele>
        <time>2023-08-20T13:47:12Z</time>
      </trkpt>
      <trkpt lat="44.60745" lon="2.38438">
        <ele>234</ele>
        <time>2023-08-20T13:47:13Z</time>
      </trkpt>
      <trkpt lat="44.60731" lon="2.38437">
        <ele>234</ele>
        <time>2023-08-20T13:47:14Z</time>
      </trkpt>
      <trkpt lat="44.60703" lon="2.38433">
        <ele>234.4</ele>
        <time>2023-08-20T13:47:16Z</time>
      </trkpt>
      <trkpt lat="44.60676" lon="2.38422">
        <ele>234.6</ele>
        <time>2023-08-20T13:47:18Z</time>
      </trkpt>
      <trkpt lat="44.60635" lon="2.38403">
        <ele>235.2</ele>
        <time>2023-08-20T13:47:21Z</time>
      </trkpt>
      <trkpt lat="44.6061" lon="2.38392">
        <ele>236</ele>
        <time>2023-08-20T13:47:23Z</time>
      </trkpt>
      <trkpt lat="44.60597" lon="2.38388">
        <ele>236.2</ele>
        <time>2023-08-20T13:47:24Z</time>
      </trkpt>
      <trkpt lat="44.60584" lon="2.38386">
        <ele>236.2</ele>
        <time>2023-08-20T13:47:25Z</time>
      </trkpt>
      <trkpt lat="44.6057" lon="2.38386">
        <ele>236.4</ele>
        <time>2023-08-20T13:47:26Z</time>
      </trkpt>
      <trkpt lat="44.60556" lon="2.38388">
        <ele>236.6</ele>
        <time>2023-08-20T13:47:27Z</time>
      </trkpt>
      <trkpt lat="44.60532" lon="2.38402">
        <ele>237</ele>
        <time>2023-08-20T13:47:29Z</time>
      </trkpt>
      <trkpt lat="44.60522" lon="2.38413">
        <ele>237.2</ele>
        <time>2023-08-20T13:47:30Z</time>
      </trkpt>
      <trkpt lat="44.60513" lon="2.38426">
        <ele>237.2</ele>
        <time>2023-08-20T13:47:31Z</time>
      </trkpt>
      <trkpt lat="44.60507" lon="2.3844">
        <ele>237.4</ele>
        <time>2023-08-20T13:47:32Z</time>
      </trkpt>
      <trkpt lat="44.60502" lon="2.3846">
        <ele>237.4</ele>
        <time>2023-08-20T13:47:33Z</time>
      </trkpt>
      <trkpt lat="44.60504" lon="2.38475">
        <ele>237.4</ele>
        <time>2023-08-20T13:47:34Z</time>
      </trkpt>
      <trkpt lat="44.60507" lon="2.38494">
        <ele>237.4</ele>
        <time>2023-08-20T13:47:35Z</time>
      </trkpt>
      <trkpt lat="44.60508" lon="2.38512">
        <ele>237.4</ele>
        <time>2023-08-20T13:47:36Z</time>
      </trkpt>
      <trkpt lat="44.60509" lon="2.3853">
        <ele>237.4</ele>
        <time>2023-08-20T13:47:37Z</time>
      </trkpt>
      <trkpt lat="44.60508" lon="2.38548">
        <ele>237.4</ele>
        <time>2023-08-20T13:47:38Z</time>
      </trkpt>
      <trkpt lat="44.60507" lon="2.38567">
        <ele>237.4</ele>
        <time>2023-08-20T13:47:39Z</time>
      </trkpt>
      <trkpt lat="44.60506" lon="2.38586">
        <ele>237.4</ele>
        <time>2023-08-20T13:47:40Z</time>
      </trkpt>
      <trkpt lat="44.60503" lon="2.38605">
        <ele>237.4</ele>
        <time>2023-08-20T13:47:41Z</time>
      </trkpt>
      <trkpt lat="44.605" lon="2.38624">
        <ele>237.6</ele>
        <time>2023-08-20T13:47:42Z</time>
      </trkpt>
      <trkpt lat="44.60497" lon="2.38643">
        <ele>237.6</ele>
        <time>2023-08-20T13:47:43Z</time>
      </trkpt>
      <trkpt lat="44.60492" lon="2.38662">
        <ele>237.8</ele>
        <time>2023-08-20T13:47:44Z</time>
      </trkpt>
      <trkpt lat="44.60487" lon="2.38681">
        <ele>237.8</ele>
        <time>2023-08-20T13:47:45Z</time>
      </trkpt>
      <trkpt lat="44.60482" lon="2.387">
        <ele>238</ele>
        <time>2023-08-20T13:47:46Z</time>
      </trkpt>
      <trkpt lat="44.60465" lon="2.38754">
        <ele>238.4</ele>
        <time>2023-08-20T13:47:49Z</time>
      </trkpt>
      <trkpt lat="44.60457" lon="2.3877">
        <ele>238.8</ele>
        <time>2023-08-20T13:47:50Z</time>
      </trkpt>
      <trkpt lat="44.60426" lon="2.38817">
        <ele>239.8</ele>
        <time>2023-08-20T13:47:53Z</time>
      </trkpt>
      <trkpt lat="44.60417" lon="2.38832">
        <ele>239.8</ele>
        <time>2023-08-20T13:47:54Z</time>
      </trkpt>
      <trkpt lat="44.60407" lon="2.38846">
        <ele>240</ele>
        <time>2023-08-20T13:47:55Z</time>
      </trkpt>
      <trkpt lat="44.60399" lon="2.38859">
        <ele>240</ele>
        <time>2023-08-20T13:47:56Z</time>
      </trkpt>
      <trkpt lat="44.6039" lon="2.38872">
        <ele>240.2</ele>
        <time>2023-08-20T13:47:57Z</time>
      </trkpt>
      <trkpt lat="44.60381" lon="2.38884">
        <ele>240.2</ele>
        <time>2023-08-20T13:47:58Z</time>
      </trkpt>
      <trkpt lat="44.60371" lon="2.38896">
        <ele>240.2</ele>
        <time>2023-08-20T13:47:59Z</time>
      </trkpt>
      <trkpt lat="44.60362" lon="2.38909">
        <ele>240.2</ele>
        <time>2023-08-20T13:48:00Z</time>
      </trkpt>
      <trkpt lat="44.60353" lon="2.38922">
        <ele>240.2</ele>
        <time>2023-08-20T13:48:01Z</time>
      </trkpt>
      <trkpt lat="44.60344" lon="2.38935">
        <ele>240.2</ele>
        <time>2023-08-20T13:48:02Z</time>
      </trkpt>
      <trkpt lat="44.60335" lon="2.38947">
        <ele>240</ele>
        <time>2023-08-20T13:48:03Z</time>
      </trkpt>
      <trkpt lat="44.60325" lon="2.38959">
        <ele>240</ele>
        <time>2023-08-20T13:48:04Z</time>
      </trkpt>
      <trkpt lat="44.60315" lon="2.38971">
        <ele>240</ele>
        <time>2023-08-20T13:48:05Z</time>
      </trkpt>
      <trkpt lat="44.60306" lon="2.38982">
        <ele>240</ele>
        <time>2023-08-20T13:48:06Z</time>
      </trkpt>
      <trkpt lat="44.60296" lon="2.38993">
        <ele>240</ele>
        <time>2023-08-20T13:48:07Z</time>
      </trkpt>
      <trkpt lat="44.60286" lon="2.39003">
        <ele>239.8</ele>
        <time>2023-08-20T13:48:08Z</time>
      </trkpt>
      <trkpt lat="44.60275" lon="2.39011">
        <ele>239.4</ele>
        <time>2023-08-20T13:48:09Z</time>
      </trkpt>
      <trkpt lat="44.60263" lon="2.39019">
        <ele>239.4</ele>
        <time>2023-08-20T13:48:10Z</time>
      </trkpt>
      <trkpt lat="44.60237" lon="2.39029">
        <ele>239.2</ele>
        <time>2023-08-20T13:48:12Z</time>
      </trkpt>
      <trkpt lat="44.60182" lon="2.39039">
        <ele>239</ele>
        <time>2023-08-20T13:48:16Z</time>
      </trkpt>
      <trkpt lat="44.60169" lon="2.39039">
        <ele>238.8</ele>
        <time>2023-08-20T13:48:17Z</time>
      </trkpt>
      <trkpt lat="44.60156" lon="2.39033">
        <ele>238.8</ele>
        <time>2023-08-20T13:48:18Z</time>
      </trkpt>
      <trkpt lat="44.60132" lon="2.39022">
        <ele>238.8</ele>
        <time>2023-08-20T13:48:20Z</time>
      </trkpt>
      <trkpt lat="44.60121" lon="2.39017">
        <ele>238.6</ele>
        <time>2023-08-20T13:48:21Z</time>
      </trkpt>
      <trkpt lat="44.6011" lon="2.39014">
        <ele>238.2</ele>
        <time>2023-08-20T13:48:22Z</time>
      </trkpt>
      <trkpt lat="44.60101" lon="2.39013">
        <ele>238.2</ele>
        <time>2023-08-20T13:48:23Z</time>
      </trkpt>
      <trkpt lat="44.60093" lon="2.39013">
        <ele>238</ele>
        <time>2023-08-20T13:48:24Z</time>
      </trkpt>
      <trkpt lat="44.60086" lon="2.39013">
        <ele>237.8</ele>
        <time>2023-08-20T13:48:25Z</time>
      </trkpt>
      <trkpt lat="44.6008" lon="2.39015">
        <ele>237.4</ele>
        <time>2023-08-20T13:48:26Z</time>
      </trkpt>
      <trkpt lat="44.60075" lon="2.39017">
        <ele>236.8</ele>
        <time>2023-08-20T13:48:27Z</time>
      </trkpt>
      <trkpt lat="44.6007" lon="2.39018">
        <ele>236.6</ele>
        <time>2023-08-20T13:48:28Z</time>
      </trkpt>
      <trkpt lat="44.60064" lon="2.39021">
        <ele>236.2</ele>
        <time>2023-08-20T13:48:29Z</time>
      </trkpt>
      <trkpt lat="44.60059" lon="2.39024">
        <ele>236</ele>
        <time>2023-08-20T13:48:30Z</time>
      </trkpt>
      <trkpt lat="44.60054" lon="2.39027">
        <ele>235.8</ele>
        <time>2023-08-20T13:48:31Z</time>
      </trkpt>
      <trkpt lat="44.6005" lon="2.39033">
        <ele>235.8</ele>
        <time>2023-08-20T13:48:32Z</time>
      </trkpt>
      <trkpt lat="44.60046" lon="2.39038">
        <ele>235.6</ele>
        <time>2023-08-20T13:48:33Z</time>
      </trkpt>
      <trkpt lat="44.60042" lon="2.39044">
        <ele>235.4</ele>
        <time>2023-08-20T13:48:34Z</time>
      </trkpt>
      <trkpt lat="44.60037" lon="2.39051">
        <ele>235.2</ele>
        <time>2023-08-20T13:48:35Z</time>
      </trkpt>
      <trkpt lat="44.60033" lon="2.39059">
        <ele>235</ele>
        <time>2023-08-20T13:48:36Z</time>
      </trkpt>
      <trkpt lat="44.60023" lon="2.39083">
        <ele>234.6</ele>
        <time>2023-08-20T13:48:39Z</time>
      </trkpt>
      <trkpt lat="44.60021" lon="2.39089">
        <ele>234.4</ele>
        <time>2023-08-20T13:48:40Z</time>
      </trkpt>
      <trkpt lat="44.6002" lon="2.39092">
        <ele>234.2</ele>
        <time>2023-08-20T13:48:41Z</time>
      </trkpt>
      <trkpt lat="44.60018" lon="2.39099">
        <ele>234.2</ele>
        <time>2023-08-20T13:48:42Z</time>
      </trkpt>
      <trkpt lat="44.60017" lon="2.39105">
        <ele>234</ele>
        <time>2023-08-20T13:48:43Z</time>
      </trkpt>
      <trkpt lat="44.60013" lon="2.39124">
        <ele>234</ele>
        <time>2023-08-20T13:48:45Z</time>
      </trkpt>
      <trkpt lat="44.6001" lon="2.39137">
        <ele>234</ele>
        <time>2023-08-20T13:48:46Z</time>
      </trkpt>
      <trkpt lat="44.60003" lon="2.39162">
        <ele>234</ele>
        <time>2023-08-20T13:48:48Z</time>
      </trkpt>
      <trkpt lat="44.59994" lon="2.39197">
        <ele>234.2</ele>
        <time>2023-08-20T13:48:51Z</time>
      </trkpt>
      <trkpt lat="44.5999" lon="2.39212">
        <ele>234.4</ele>
        <time>2023-08-20T13:48:52Z</time>
      </trkpt>
      <trkpt lat="44.59984" lon="2.39229">
        <ele>234.6</ele>
        <time>2023-08-20T13:48:53Z</time>
      </trkpt>
      <trkpt lat="44.59966" lon="2.39261">
        <ele>234.8</ele>
        <time>2023-08-20T13:48:55Z</time>
      </trkpt>
      <trkpt lat="44.59955" lon="2.39273">
        <ele>235.4</ele>
        <time>2023-08-20T13:48:56Z</time>
      </trkpt>
      <trkpt lat="44.5994" lon="2.39285">
        <ele>235.6</ele>
        <time>2023-08-20T13:48:57Z</time>
      </trkpt>
      <trkpt lat="44.59929" lon="2.3929">
        <ele>236.2</ele>
        <time>2023-08-20T13:48:58Z</time>
      </trkpt>
      <trkpt lat="44.59915" lon="2.39294">
        <ele>236.4</ele>
        <time>2023-08-20T13:48:59Z</time>
      </trkpt>
      <trkpt lat="44.59902" lon="2.39296">
        <ele>237</ele>
        <time>2023-08-20T13:49:00Z</time>
      </trkpt>
      <trkpt lat="44.59891" lon="2.39297">
        <ele>237.6</ele>
        <time>2023-08-20T13:49:01Z</time>
      </trkpt>
      <trkpt lat="44.5988" lon="2.39298">
        <ele>238</ele>
        <time>2023-08-20T13:49:02Z</time>
      </trkpt>
      <trkpt lat="44.5987" lon="2.39298">
        <ele>238.2</ele>
        <time>2023-08-20T13:49:03Z</time>
      </trkpt>
      <trkpt lat="44.59863" lon="2.39298">
        <ele>238.2</ele>
        <time>2023-08-20T13:49:04Z</time>
      </trkpt>
      <trkpt lat="44.59857" lon="2.39299">
        <ele>238.2</ele>
        <time>2023-08-20T13:49:05Z</time>
      </trkpt>
      <trkpt lat="44.59852" lon="2.393">
        <ele>238.2</ele>
        <time>2023-08-20T13:49:06Z</time>
      </trkpt>
      <trkpt lat="44.59848" lon="2.393">
        <ele>238.2</ele>
        <time>2023-08-20T13:49:07Z</time>
      </trkpt>
      <trkpt lat="44.59844" lon="2.39301">
        <ele>238.2</ele>
        <time>2023-08-20T13:49:08Z</time>
      </trkpt>
      <trkpt lat="44.59841" lon="2.39301">
        <ele>238.2</ele>
        <time>2023-08-20T13:49:09Z</time>
      </trkpt>
      <trkpt lat="44.59838" lon="2.39301">
        <ele>238</ele>
        <time>2023-08-20T13:49:10Z</time>
      </trkpt>
      <trkpt lat="44.59835" lon="2.39301">
        <ele>238</ele>
        <time>2023-08-20T13:49:11Z</time>
      </trkpt>
      <trkpt lat="44.59833" lon="2.39301">
        <ele>237.8</ele>
        <time>2023-08-20T13:49:12Z</time>
      </trkpt>
      <trkpt lat="44.59831" lon="2.39301">
        <ele>237.8</ele>
        <time>2023-08-20T13:49:13Z</time>
      </trkpt>
      <trkpt lat="44.5983" lon="2.39301">
        <ele>237.6</ele>
        <time>2023-08-20T13:49:14Z</time>
      </trkpt>
      <trkpt lat="44.59828" lon="2.393">
        <ele>237.6</ele>
        <time>2023-08-20T13:49:15Z</time>
      </trkpt>
      <trkpt lat="44.59827" lon="2.393">
        <ele>237.6</ele>
        <time>2023-08-20T13:49:16Z</time>
      </trkpt>
      <trkpt lat="44.59825" lon="2.39299">
        <ele>237.6</ele>
        <time>2023-08-20T13:49:17Z</time>
      </trkpt>
      <trkpt lat="44.59822" lon="2.39299">
        <ele>237.6</ele>
        <time>2023-08-20T13:49:18Z</time>
      </trkpt>
      <trkpt lat="44.5982" lon="2.39298">
        <ele>237.6</ele>
        <time>2023-08-20T13:49:19Z</time>
      </trkpt>
      <trkpt lat="44.59819" lon="2.39296">
        <ele>237.6</ele>
        <time>2023-08-20T13:49:20Z</time>
      </trkpt>
      <trkpt lat="44.59818" lon="2.39293">
        <ele>237.6</ele>
        <time>2023-08-20T13:49:21Z</time>
      </trkpt>
      <trkpt lat="44.59818" lon="2.39291">
        <ele>237.6</ele>
        <time>2023-08-20T13:49:22Z</time>
      </trkpt>
      <trkpt lat="44.59817" lon="2.39289">
        <ele>237.6</ele>
        <time>2023-08-20T13:49:23Z</time>
      </trkpt>
      <trkpt lat="44.59817" lon="2.39285">
        <ele>237.6</ele>
        <time>2023-08-20T13:49:24Z</time>
      </trkpt>
      <trkpt lat="44.59818" lon="2.39282">
        <ele>237.6</ele>
        <time>2023-08-20T13:49:25Z</time>
      </trkpt>
      <trkpt lat="44.59819" lon="2.39278">
        <ele>237.6</ele>
        <time>2023-08-20T13:49:26Z</time>
      </trkpt>
      <trkpt lat="44.5982" lon="2.39267">
        <ele>237.4</ele>
        <time>2023-08-20T13:49:30Z</time>
      </trkpt>
      <trkpt lat="44.5982" lon="2.39263">
        <ele>237.4</ele>
        <time>2023-08-20T13:49:31Z</time>
      </trkpt>
      <trkpt lat="44.59823" lon="2.3924">
        <ele>237</ele>
        <time>2023-08-20T13:49:37Z</time>
      </trkpt>
      <trkpt lat="44.59824" lon="2.39219">
        <ele>236.4</ele>
        <time>2023-08-20T13:49:41Z</time>
      </trkpt>
      <trkpt lat="44.59823" lon="2.39211">
        <ele>236.4</ele>
        <time>2023-08-20T13:49:42Z</time>
      </trkpt>
      <trkpt lat="44.59821" lon="2.39196">
        <ele>236.4</ele>
        <time>2023-08-20T13:49:44Z</time>
      </trkpt>
      <trkpt lat="44.59816" lon="2.39179">
        <ele>236.4</ele>
        <time>2023-08-20T13:49:47Z</time>
      </trkpt>
      <trkpt lat="44.59815" lon="2.39176">
        <ele>236.6</ele>
        <time>2023-08-20T13:49:48Z</time>
      </trkpt>
      <trkpt lat="44.59815" lon="2.39174">
        <ele>236.6</ele>
        <time>2023-08-20T13:49:49Z</time>
      </trkpt>
      <trkpt lat="44.59814" lon="2.39172">
        <ele>236.8</ele>
        <time>2023-08-20T13:49:50Z</time>
      </trkpt>
      <trkpt lat="44.59813" lon="2.39168">
        <ele>237</ele>
        <time>2023-08-20T13:49:51Z</time>
      </trkpt>
      <trkpt lat="44.59812" lon="2.39163">
        <ele>237.2</ele>
        <time>2023-08-20T13:49:52Z</time>
      </trkpt>
      <trkpt lat="44.59808" lon="2.39151">
        <ele>237.8</ele>
        <time>2023-08-20T13:49:54Z</time>
      </trkpt>
      <trkpt lat="44.59798" lon="2.3913">
        <ele>238.4</ele>
        <time>2023-08-20T13:49:57Z</time>
      </trkpt>
      <trkpt lat="44.59793" lon="2.39125">
        <ele>238.6</ele>
        <time>2023-08-20T13:49:58Z</time>
      </trkpt>
      <trkpt lat="44.59789" lon="2.39121">
        <ele>239</ele>
        <time>2023-08-20T13:49:59Z</time>
      </trkpt>
      <trkpt lat="44.59785" lon="2.39117">
        <ele>239.2</ele>
        <time>2023-08-20T13:50:00Z</time>
      </trkpt>
      <trkpt lat="44.59782" lon="2.39114">
        <ele>240</ele>
        <time>2023-08-20T13:50:01Z</time>
      </trkpt>
      <trkpt lat="44.59781" lon="2.3911">
        <ele>240.2</ele>
        <time>2023-08-20T13:50:02Z</time>
      </trkpt>
      <trkpt lat="44.59781" lon="2.39106">
        <ele>240.8</ele>
        <time>2023-08-20T13:50:03Z</time>
      </trkpt>
      <trkpt lat="44.59784" lon="2.39102">
        <ele>241.2</ele>
        <time>2023-08-20T13:50:04Z</time>
      </trkpt>
      <trkpt lat="44.59786" lon="2.391">
        <ele>241.8</ele>
        <time>2023-08-20T13:50:05Z</time>
      </trkpt>
      <trkpt lat="44.59791" lon="2.39102">
        <ele>242.4</ele>
        <time>2023-08-20T13:50:06Z</time>
      </trkpt>
      <trkpt lat="44.59797" lon="2.39106">
        <ele>242.8</ele>
        <time>2023-08-20T13:50:07Z</time>
      </trkpt>
      <trkpt lat="44.59802" lon="2.39112">
        <ele>243.6</ele>
        <time>2023-08-20T13:50:08Z</time>
      </trkpt>
      <trkpt lat="44.59808" lon="2.39119">
        <ele>243.8</ele>
        <time>2023-08-20T13:50:09Z</time>
      </trkpt>
      <trkpt lat="44.59815" lon="2.39127">
        <ele>244.2</ele>
        <time>2023-08-20T13:50:10Z</time>
      </trkpt>
      <trkpt lat="44.59822" lon="2.39136">
        <ele>244.4</ele>
        <time>2023-08-20T13:50:11Z</time>
      </trkpt>
      <trkpt lat="44.59827" lon="2.39146">
        <ele>245.2</ele>
        <time>2023-08-20T13:50:12Z</time>
      </trkpt>
      <trkpt lat="44.59833" lon="2.39153">
        <ele>245.6</ele>
        <time>2023-08-20T13:50:13Z</time>
      </trkpt>
      <trkpt lat="44.59839" lon="2.39158">
        <ele>246.4</ele>
        <time>2023-08-20T13:50:14Z</time>
      </trkpt>
      <trkpt lat="44.59846" lon="2.39159">
        <ele>247.2</ele>
        <time>2023-08-20T13:50:15Z</time>
      </trkpt>
      <trkpt lat="44.59852" lon="2.39158">
        <ele>247.6</ele>
        <time>2023-08-20T13:50:16Z</time>
      </trkpt>
      <trkpt lat="44.59859" lon="2.39153">
        <ele>248.2</ele>
        <time>2023-08-20T13:50:17Z</time>
      </trkpt>
      <trkpt lat="44.59865" lon="2.39146">
        <ele>248.8</ele>
        <time>2023-08-20T13:50:18Z</time>
      </trkpt>
      <trkpt lat="44.59871" lon="2.39137">
        <ele>249.8</ele>
        <time>2023-08-20T13:50:19Z</time>
      </trkpt>
      <trkpt lat="44.59876" lon="2.39125">
        <ele>250.2</ele>
        <time>2023-08-20T13:50:20Z</time>
      </trkpt>
      <trkpt lat="44.59881" lon="2.39112">
        <ele>251.4</ele>
        <time>2023-08-20T13:50:21Z</time>
      </trkpt>
      <trkpt lat="44.59886" lon="2.39099">
        <ele>251.8</ele>
        <time>2023-08-20T13:50:22Z</time>
      </trkpt>
      <trkpt lat="44.59892" lon="2.39085">
        <ele>253.2</ele>
        <time>2023-08-20T13:50:23Z</time>
      </trkpt>
      <trkpt lat="44.59899" lon="2.39072">
        <ele>255</ele>
        <time>2023-08-20T13:50:24Z</time>
      </trkpt>
      <trkpt lat="44.59905" lon="2.3906">
        <ele>255.6</ele>
        <time>2023-08-20T13:50:25Z</time>
      </trkpt>
      <trkpt lat="44.59911" lon="2.39048">
        <ele>256.8</ele>
        <time>2023-08-20T13:50:26Z</time>
      </trkpt>
      <trkpt lat="44.59917" lon="2.39036">
        <ele>257.2</ele>
        <time>2023-08-20T13:50:27Z</time>
      </trkpt>
      <trkpt lat="44.59922" lon="2.39026">
        <ele>258.2</ele>
        <time>2023-08-20T13:50:28Z</time>
      </trkpt>
      <trkpt lat="44.59927" lon="2.39018">
        <ele>258.6</ele>
        <time>2023-08-20T13:50:29Z</time>
      </trkpt>
      <trkpt lat="44.59931" lon="2.3901">
        <ele>259.8</ele>
        <time>2023-08-20T13:50:30Z</time>
      </trkpt>
      <trkpt lat="44.59936" lon="2.39004">
        <ele>260.4</ele>
        <time>2023-08-20T13:50:31Z</time>
      </trkpt>
      <trkpt lat="44.59939" lon="2.39">
        <ele>261.2</ele>
        <time>2023-08-20T13:50:32Z</time>
      </trkpt>
      <trkpt lat="44.59942" lon="2.38995">
        <ele>262</ele>
        <time>2023-08-20T13:50:33Z</time>
      </trkpt>
      <trkpt lat="44.59942" lon="2.3899">
        <ele>262.2</ele>
        <time>2023-08-20T13:50:34Z</time>
      </trkpt>
      <trkpt lat="44.59941" lon="2.38985">
        <ele>263</ele>
        <time>2023-08-20T13:50:35Z</time>
      </trkpt>
      <trkpt lat="44.59937" lon="2.38983">
        <ele>263.2</ele>
        <time>2023-08-20T13:50:36Z</time>
      </trkpt>
      <trkpt lat="44.59935" lon="2.38985">
        <ele>263.8</ele>
        <time>2023-08-20T13:50:37Z</time>
      </trkpt>
      <trkpt lat="44.59931" lon="2.3899">
        <ele>264</ele>
        <time>2023-08-20T13:50:38Z</time>
      </trkpt>
      <trkpt lat="44.59926" lon="2.38997">
        <ele>264.6</ele>
        <time>2023-08-20T13:50:39Z</time>
      </trkpt>
      <trkpt lat="44.59919" lon="2.39006">
        <ele>265</ele>
        <time>2023-08-20T13:50:40Z</time>
      </trkpt>
      <trkpt lat="44.59912" lon="2.39013">
        <ele>265.6</ele>
        <time>2023-08-20T13:50:41Z</time>
      </trkpt>
      <trkpt lat="44.59902" lon="2.39024">
        <ele>266.2</ele>
        <time>2023-08-20T13:50:42Z</time>
      </trkpt>
      <trkpt lat="44.59895" lon="2.39031">
        <ele>266.4</ele>
        <time>2023-08-20T13:50:43Z</time>
      </trkpt>
      <trkpt lat="44.59884" lon="2.3904">
        <ele>267.4</ele>
        <time>2023-08-20T13:50:44Z</time>
      </trkpt>
      <trkpt lat="44.59874" lon="2.39046">
        <ele>267.8</ele>
        <time>2023-08-20T13:50:45Z</time>
      </trkpt>
      <trkpt lat="44.59864" lon="2.39053">
        <ele>269</ele>
        <time>2023-08-20T13:50:46Z</time>
      </trkpt>
      <trkpt lat="44.59857" lon="2.39057">
        <ele>269.4</ele>
        <time>2023-08-20T13:50:47Z</time>
      </trkpt>
      <trkpt lat="44.59849" lon="2.39062">
        <ele>270.4</ele>
        <time>2023-08-20T13:50:48Z</time>
      </trkpt>
      <trkpt lat="44.59842" lon="2.39068">
        <ele>271</ele>
        <time>2023-08-20T13:50:49Z</time>
      </trkpt>
      <trkpt lat="44.59837" lon="2.39072">
        <ele>271.6</ele>
        <time>2023-08-20T13:50:50Z</time>
      </trkpt>
      <trkpt lat="44.59831" lon="2.39073">
        <ele>273</ele>
        <time>2023-08-20T13:50:51Z</time>
      </trkpt>
      <trkpt lat="44.59826" lon="2.39071">
        <ele>273.6</ele>
        <time>2023-08-20T13:50:52Z</time>
      </trkpt>
      <trkpt lat="44.59824" lon="2.39066">
        <ele>274.4</ele>
        <time>2023-08-20T13:50:53Z</time>
      </trkpt>
      <trkpt lat="44.59821" lon="2.39057">
        <ele>275</ele>
        <time>2023-08-20T13:50:54Z</time>
      </trkpt>
      <trkpt lat="44.59818" lon="2.39047">
        <ele>275.8</ele>
        <time>2023-08-20T13:50:55Z</time>
      </trkpt>
      <trkpt lat="44.59815" lon="2.39037">
        <ele>276</ele>
        <time>2023-08-20T13:50:56Z</time>
      </trkpt>
      <trkpt lat="44.59811" lon="2.39027">
        <ele>276.8</ele>
        <time>2023-08-20T13:50:57Z</time>
      </trkpt>
      <trkpt lat="44.59805" lon="2.39018">
        <ele>277.2</ele>
        <time>2023-08-20T13:50:58Z</time>
      </trkpt>
      <trkpt lat="44.59798" lon="2.39009">
        <ele>278</ele>
        <time>2023-08-20T13:50:59Z</time>
      </trkpt>
      <trkpt lat="44.59789" lon="2.39">
        <ele>279</ele>
        <time>2023-08-20T13:51:00Z</time>
      </trkpt>
      <trkpt lat="44.59778" lon="2.3899">
        <ele>279.4</ele>
        <time>2023-08-20T13:51:01Z</time>
      </trkpt>
      <trkpt lat="44.5977" lon="2.38984">
        <ele>280.2</ele>
        <time>2023-08-20T13:51:02Z</time>
      </trkpt>
      <trkpt lat="44.59761" lon="2.38975">
        <ele>280.6</ele>
        <time>2023-08-20T13:51:03Z</time>
      </trkpt>
      <trkpt lat="44.59751" lon="2.38963">
        <ele>282</ele>
        <time>2023-08-20T13:51:04Z</time>
      </trkpt>
      <trkpt lat="44.59744" lon="2.38952">
        <ele>282.8</ele>
        <time>2023-08-20T13:51:05Z</time>
      </trkpt>
      <trkpt lat="44.59739" lon="2.38942">
        <ele>283.6</ele>
        <time>2023-08-20T13:51:06Z</time>
      </trkpt>
      <trkpt lat="44.59733" lon="2.3893">
        <ele>284.2</ele>
        <time>2023-08-20T13:51:07Z</time>
      </trkpt>
      <trkpt lat="44.59727" lon="2.38918">
        <ele>284.8</ele>
        <time>2023-08-20T13:51:08Z</time>
      </trkpt>
      <trkpt lat="44.59723" lon="2.38906">
        <ele>286</ele>
        <time>2023-08-20T13:51:09Z</time>
      </trkpt>
      <trkpt lat="44.59718" lon="2.38894">
        <ele>286.6</ele>
        <time>2023-08-20T13:51:10Z</time>
      </trkpt>
      <trkpt lat="44.59715" lon="2.38886">
        <ele>288</ele>
        <time>2023-08-20T13:51:11Z</time>
      </trkpt>
      <trkpt lat="44.59712" lon="2.38878">
        <ele>288.4</ele>
        <time>2023-08-20T13:51:12Z</time>
      </trkpt>
      <trkpt lat="44.59708" lon="2.38872">
        <ele>289.6</ele>
        <time>2023-08-20T13:51:13Z</time>
      </trkpt>
      <trkpt lat="44.59703" lon="2.38868">
        <ele>290</ele>
        <time>2023-08-20T13:51:14Z</time>
      </trkpt>
      <trkpt lat="44.597" lon="2.38867">
        <ele>291</ele>
        <time>2023-08-20T13:51:15Z</time>
      </trkpt>
      <trkpt lat="44.59696" lon="2.3887">
        <ele>291.6</ele>
        <time>2023-08-20T13:51:16Z</time>
      </trkpt>
      <trkpt lat="44.59692" lon="2.38875">
        <ele>292.2</ele>
        <time>2023-08-20T13:51:17Z</time>
      </trkpt>
      <trkpt lat="44.59691" lon="2.38883">
        <ele>293</ele>
        <time>2023-08-20T13:51:18Z</time>
      </trkpt>
      <trkpt lat="44.5969" lon="2.38897">
        <ele>293.4</ele>
        <time>2023-08-20T13:51:19Z</time>
      </trkpt>
      <trkpt lat="44.59689" lon="2.38907">
        <ele>294</ele>
        <time>2023-08-20T13:51:20Z</time>
      </trkpt>
      <trkpt lat="44.59688" lon="2.38924">
        <ele>294.2</ele>
        <time>2023-08-20T13:51:21Z</time>
      </trkpt>
      <trkpt lat="44.59686" lon="2.38935">
        <ele>295.2</ele>
        <time>2023-08-20T13:51:22Z</time>
      </trkpt>
      <trkpt lat="44.59684" lon="2.38948">
        <ele>295.6</ele>
        <time>2023-08-20T13:51:23Z</time>
      </trkpt>
      <trkpt lat="44.5968" lon="2.38963">
        <ele>296.4</ele>
        <time>2023-08-20T13:51:24Z</time>
      </trkpt>
      <trkpt lat="44.59677" lon="2.38976">
        <ele>297</ele>
        <time>2023-08-20T13:51:25Z</time>
      </trkpt>
      <trkpt lat="44.59676" lon="2.38986">
        <ele>298</ele>
        <time>2023-08-20T13:51:26Z</time>
      </trkpt>
      <trkpt lat="44.59676" lon="2.38997">
        <ele>299.2</ele>
        <time>2023-08-20T13:51:27Z</time>
      </trkpt>
      <trkpt lat="44.59677" lon="2.39007">
        <ele>299.6</ele>
        <time>2023-08-20T13:51:28Z</time>
      </trkpt>
      <trkpt lat="44.59679" lon="2.39018">
        <ele>300.6</ele>
        <time>2023-08-20T13:51:29Z</time>
      </trkpt>
      <trkpt lat="44.59681" lon="2.39028">
        <ele>300.8</ele>
        <time>2023-08-20T13:51:30Z</time>
      </trkpt>
      <trkpt lat="44.59683" lon="2.39035">
        <ele>301.6</ele>
        <time>2023-08-20T13:51:31Z</time>
      </trkpt>
      <trkpt lat="44.59685" lon="2.39045">
        <ele>301.8</ele>
        <time>2023-08-20T13:51:32Z</time>
      </trkpt>
      <trkpt lat="44.59686" lon="2.39055">
        <ele>302.6</ele>
        <time>2023-08-20T13:51:33Z</time>
      </trkpt>
      <trkpt lat="44.59685" lon="2.39062">
        <ele>303</ele>
        <time>2023-08-20T13:51:34Z</time>
      </trkpt>
      <trkpt lat="44.59681" lon="2.39068">
        <ele>303.6</ele>
        <time>2023-08-20T13:51:35Z</time>
      </trkpt>
      <trkpt lat="44.59677" lon="2.39071">
        <ele>304</ele>
        <time>2023-08-20T13:51:36Z</time>
      </trkpt>
      <trkpt lat="44.59672" lon="2.39073">
        <ele>304.4</ele>
        <time>2023-08-20T13:51:37Z</time>
      </trkpt>
      <trkpt lat="44.59666" lon="2.39075">
        <ele>304.8</ele>
        <time>2023-08-20T13:51:38Z</time>
      </trkpt>
      <trkpt lat="44.59659" lon="2.39077">
        <ele>305.2</ele>
        <time>2023-08-20T13:51:39Z</time>
      </trkpt>
      <trkpt lat="44.59653" lon="2.39079">
        <ele>306.2</ele>
        <time>2023-08-20T13:51:40Z</time>
      </trkpt>
      <trkpt lat="44.59647" lon="2.39081">
        <ele>306.4</ele>
        <time>2023-08-20T13:51:41Z</time>
      </trkpt>
      <trkpt lat="44.59642" lon="2.39084">
        <ele>307</ele>
        <time>2023-08-20T13:51:42Z</time>
      </trkpt>
      <trkpt lat="44.59637" lon="2.39087">
        <ele>307.4</ele>
        <time>2023-08-20T13:51:43Z</time>
      </trkpt>
      <trkpt lat="44.59633" lon="2.3909">
        <ele>308</ele>
        <time>2023-08-20T13:51:44Z</time>
      </trkpt>
      <trkpt lat="44.59628" lon="2.39093">
        <ele>308.8</ele>
        <time>2023-08-20T13:51:45Z</time>
      </trkpt>
      <trkpt lat="44.59622" lon="2.39097">
        <ele>309</ele>
        <time>2023-08-20T13:51:46Z</time>
      </trkpt>
      <trkpt lat="44.59618" lon="2.39099">
        <ele>309.8</ele>
        <time>2023-08-20T13:51:47Z</time>
      </trkpt>
      <trkpt lat="44.59611" lon="2.39101">
        <ele>310.4</ele>
        <time>2023-08-20T13:51:48Z</time>
      </trkpt>
      <trkpt lat="44.59605" lon="2.39101">
        <ele>311.2</ele>
        <time>2023-08-20T13:51:49Z</time>
      </trkpt>
      <trkpt lat="44.596" lon="2.391">
        <ele>311.6</ele>
        <time>2023-08-20T13:51:50Z</time>
      </trkpt>
      <trkpt lat="44.59596" lon="2.391">
        <ele>312</ele>
        <time>2023-08-20T13:51:51Z</time>
      </trkpt>
      <trkpt lat="44.59591" lon="2.39102">
        <ele>312.2</ele>
        <time>2023-08-20T13:51:52Z</time>
      </trkpt>
      <trkpt lat="44.59587" lon="2.39106">
        <ele>313</ele>
        <time>2023-08-20T13:51:53Z</time>
      </trkpt>
      <trkpt lat="44.59584" lon="2.39109">
        <ele>313.6</ele>
        <time>2023-08-20T13:51:54Z</time>
      </trkpt>
      <trkpt lat="44.59582" lon="2.39112">
        <ele>314</ele>
        <time>2023-08-20T13:51:55Z</time>
      </trkpt>
      <trkpt lat="44.5958" lon="2.39114">
        <ele>314.6</ele>
        <time>2023-08-20T13:51:56Z</time>
      </trkpt>
      <trkpt lat="44.59578" lon="2.39116">
        <ele>315</ele>
        <time>2023-08-20T13:51:57Z</time>
      </trkpt>
      <trkpt lat="44.59576" lon="2.39119">
        <ele>315.8</ele>
        <time>2023-08-20T13:51:58Z</time>
      </trkpt>
      <trkpt lat="44.59575" lon="2.3912">
        <ele>316.2</ele>
        <time>2023-08-20T13:51:59Z</time>
      </trkpt>
      <trkpt lat="44.59574" lon="2.39121">
        <ele>316.8</ele>
        <time>2023-08-20T13:52:00Z</time>
      </trkpt>
      <trkpt lat="44.59574" lon="2.39121">
        <ele>317</ele>
        <time>2023-08-20T13:52:01Z</time>
      </trkpt>
      <trkpt lat="44.59571" lon="2.39126">
        <ele>318.4</ele>
        <time>2023-08-20T13:54:52Z</time>
      </trkpt>
      <trkpt lat="44.59567" lon="2.39132">
        <ele>318.4</ele>
        <time>2023-08-20T13:54:53Z</time>
      </trkpt>
      <trkpt lat="44.59561" lon="2.3914">
        <ele>318.6</ele>
        <time>2023-08-20T13:54:54Z</time>
      </trkpt>
      <trkpt lat="44.59556" lon="2.39147">
        <ele>318.6</ele>
        <time>2023-08-20T13:54:55Z</time>
      </trkpt>
      <trkpt lat="44.5955" lon="2.39153">
        <ele>318.8</ele>
        <time>2023-08-20T13:54:56Z</time>
      </trkpt>
      <trkpt lat="44.59544" lon="2.39157">
        <ele>318.8</ele>
        <time>2023-08-20T13:54:57Z</time>
      </trkpt>
      <trkpt lat="44.59538" lon="2.3916">
        <ele>319.4</ele>
        <time>2023-08-20T13:54:58Z</time>
      </trkpt>
      <trkpt lat="44.59534" lon="2.3916">
        <ele>319.4</ele>
        <time>2023-08-20T13:54:59Z</time>
      </trkpt>
      <trkpt lat="44.59528" lon="2.39159">
        <ele>320</ele>
        <time>2023-08-20T13:55:00Z</time>
      </trkpt>
      <trkpt lat="44.59521" lon="2.39156">
        <ele>320.4</ele>
        <time>2023-08-20T13:55:01Z</time>
      </trkpt>
      <trkpt lat="44.59517" lon="2.39152">
        <ele>320.8</ele>
        <time>2023-08-20T13:55:02Z</time>
      </trkpt>
      <trkpt lat="44.59512" lon="2.39145">
        <ele>321.2</ele>
        <time>2023-08-20T13:55:03Z</time>
      </trkpt>
      <trkpt lat="44.59509" lon="2.39139">
        <ele>321.4</ele>
        <time>2023-08-20T13:55:04Z</time>
      </trkpt>
      <trkpt lat="44.59505" lon="2.39132">
        <ele>322.2</ele>
        <time>2023-08-20T13:55:05Z</time>
      </trkpt>
      <trkpt lat="44.59499" lon="2.39125">
        <ele>322.6</ele>
        <time>2023-08-20T13:55:06Z</time>
      </trkpt>
      <trkpt lat="44.59495" lon="2.39121">
        <ele>323.6</ele>
        <time>2023-08-20T13:55:07Z</time>
      </trkpt>
      <trkpt lat="44.59488" lon="2.39118">
        <ele>324</ele>
        <time>2023-08-20T13:55:08Z</time>
      </trkpt>
      <trkpt lat="44.59482" lon="2.39119">
        <ele>324.8</ele>
        <time>2023-08-20T13:55:09Z</time>
      </trkpt>
      <trkpt lat="44.59475" lon="2.39121">
        <ele>325.4</ele>
        <time>2023-08-20T13:55:10Z</time>
      </trkpt>
      <trkpt lat="44.59467" lon="2.39127">
        <ele>326.2</ele>
        <time>2023-08-20T13:55:11Z</time>
      </trkpt>
      <trkpt lat="44.59462" lon="2.39133">
        <ele>327</ele>
        <time>2023-08-20T13:55:12Z</time>
      </trkpt>
      <trkpt lat="44.59457" lon="2.39143">
        <ele>327.6</ele>
        <time>2023-08-20T13:55:13Z</time>
      </trkpt>
      <trkpt lat="44.59453" lon="2.39151">
        <ele>328.6</ele>
        <time>2023-08-20T13:55:14Z</time>
      </trkpt>
      <trkpt lat="44.59449" lon="2.3916">
        <ele>329.4</ele>
        <time>2023-08-20T13:55:15Z</time>
      </trkpt>
      <trkpt lat="44.59442" lon="2.39167">
        <ele>330.2</ele>
        <time>2023-08-20T13:55:16Z</time>
      </trkpt>
      <trkpt lat="44.59436" lon="2.3917">
        <ele>330.6</ele>
        <time>2023-08-20T13:55:17Z</time>
      </trkpt>
      <trkpt lat="44.5943" lon="2.39171">
        <ele>331.8</ele>
        <time>2023-08-20T13:55:18Z</time>
      </trkpt>
      <trkpt lat="44.59425" lon="2.39171">
        <ele>332.2</ele>
        <time>2023-08-20T13:55:19Z</time>
      </trkpt>
      <trkpt lat="44.59418" lon="2.39173">
        <ele>333.2</ele>
        <time>2023-08-20T13:55:20Z</time>
      </trkpt>
      <trkpt lat="44.5941" lon="2.39177">
        <ele>334.2</ele>
        <time>2023-08-20T13:55:21Z</time>
      </trkpt>
      <trkpt lat="44.59405" lon="2.39182">
        <ele>334.8</ele>
        <time>2023-08-20T13:55:22Z</time>
      </trkpt>
      <trkpt lat="44.59397" lon="2.39188">
        <ele>335.6</ele>
        <time>2023-08-20T13:55:23Z</time>
      </trkpt>
      <trkpt lat="44.59389" lon="2.39194">
        <ele>336.2</ele>
        <time>2023-08-20T13:55:24Z</time>
      </trkpt>
      <trkpt lat="44.5938" lon="2.392">
        <ele>337.2</ele>
        <time>2023-08-20T13:55:25Z</time>
      </trkpt>
      <trkpt lat="44.59369" lon="2.39206">
        <ele>337.6</ele>
        <time>2023-08-20T13:55:26Z</time>
      </trkpt>
      <trkpt lat="44.59357" lon="2.39212">
        <ele>338.8</ele>
        <time>2023-08-20T13:55:27Z</time>
      </trkpt>
      <trkpt lat="44.59347" lon="2.39218">
        <ele>339.2</ele>
        <time>2023-08-20T13:55:28Z</time>
      </trkpt>
      <trkpt lat="44.59336" lon="2.39224">
        <ele>340.4</ele>
        <time>2023-08-20T13:55:29Z</time>
      </trkpt>
      <trkpt lat="44.59327" lon="2.39231">
        <ele>341.6</ele>
        <time>2023-08-20T13:55:30Z</time>
      </trkpt>
      <trkpt lat="44.59318" lon="2.39239">
        <ele>342.4</ele>
        <time>2023-08-20T13:55:31Z</time>
      </trkpt>
      <trkpt lat="44.5931" lon="2.39247">
        <ele>343.8</ele>
        <time>2023-08-20T13:55:32Z</time>
      </trkpt>
      <trkpt lat="44.59302" lon="2.39254">
        <ele>344.6</ele>
        <time>2023-08-20T13:55:33Z</time>
      </trkpt>
      <trkpt lat="44.59295" lon="2.39262">
        <ele>346.2</ele>
        <time>2023-08-20T13:55:34Z</time>
      </trkpt>
      <trkpt lat="44.5929" lon="2.39269">
        <ele>346.8</ele>
        <time>2023-08-20T13:55:35Z</time>
      </trkpt>
      <trkpt lat="44.59286" lon="2.39275">
        <ele>348</ele>
        <time>2023-08-20T13:55:36Z</time>
      </trkpt>
      <trkpt lat="44.59282" lon="2.39279">
        <ele>348.6</ele>
        <time>2023-08-20T13:55:37Z</time>
      </trkpt>
      <trkpt lat="44.59279" lon="2.39282">
        <ele>350</ele>
        <time>2023-08-20T13:55:38Z</time>
      </trkpt>
      <trkpt lat="44.59276" lon="2.39285">
        <ele>351.4</ele>
        <time>2023-08-20T13:55:39Z</time>
      </trkpt>
      <trkpt lat="44.59272" lon="2.39285">
        <ele>351.8</ele>
        <time>2023-08-20T13:55:40Z</time>
      </trkpt>
      <trkpt lat="44.59269" lon="2.39282">
        <ele>352.6</ele>
        <time>2023-08-20T13:55:41Z</time>
      </trkpt>
      <trkpt lat="44.59266" lon="2.39277">
        <ele>353.2</ele>
        <time>2023-08-20T13:55:42Z</time>
      </trkpt>
      <trkpt lat="44.59265" lon="2.3927">
        <ele>353.8</ele>
        <time>2023-08-20T13:55:43Z</time>
      </trkpt>
      <trkpt lat="44.59266" lon="2.3926">
        <ele>353.8</ele>
        <time>2023-08-20T13:55:44Z</time>
      </trkpt>
      <trkpt lat="44.59267" lon="2.39248">
        <ele>354.4</ele>
        <time>2023-08-20T13:55:45Z</time>
      </trkpt>
      <trkpt lat="44.59269" lon="2.39234">
        <ele>354.8</ele>
        <time>2023-08-20T13:55:46Z</time>
      </trkpt>
      <trkpt lat="44.59269" lon="2.39219">
        <ele>355.6</ele>
        <time>2023-08-20T13:55:47Z</time>
      </trkpt>
      <trkpt lat="44.59268" lon="2.39203">
        <ele>356.6</ele>
        <time>2023-08-20T13:55:48Z</time>
      </trkpt>
      <trkpt lat="44.59266" lon="2.39187">
        <ele>357</ele>
        <time>2023-08-20T13:55:49Z</time>
      </trkpt>
      <trkpt lat="44.59264" lon="2.39171">
        <ele>357.8</ele>
        <time>2023-08-20T13:55:50Z</time>
      </trkpt>
      <trkpt lat="44.59262" lon="2.39155">
        <ele>358.4</ele>
        <time>2023-08-20T13:55:51Z</time>
      </trkpt>
      <trkpt lat="44.5926" lon="2.39139">
        <ele>360</ele>
        <time>2023-08-20T13:55:52Z</time>
      </trkpt>
      <trkpt lat="44.5926" lon="2.39124">
        <ele>360.4</ele>
        <time>2023-08-20T13:55:53Z</time>
      </trkpt>
      <trkpt lat="44.59259" lon="2.39108">
        <ele>362</ele>
        <time>2023-08-20T13:55:54Z</time>
      </trkpt>
      <trkpt lat="44.59259" lon="2.39093">
        <ele>362.4</ele>
        <time>2023-08-20T13:55:55Z</time>
      </trkpt>
      <trkpt lat="44.59258" lon="2.39079">
        <ele>363.4</ele>
        <time>2023-08-20T13:55:56Z</time>
      </trkpt>
      <trkpt lat="44.59258" lon="2.39065">
        <ele>364.4</ele>
        <time>2023-08-20T13:55:57Z</time>
      </trkpt>
      <trkpt lat="44.59257" lon="2.39053">
        <ele>364.8</ele>
        <time>2023-08-20T13:55:58Z</time>
      </trkpt>
      <trkpt lat="44.59256" lon="2.39041">
        <ele>366</ele>
        <time>2023-08-20T13:55:59Z</time>
      </trkpt>
      <trkpt lat="44.59252" lon="2.39032">
        <ele>366.6</ele>
        <time>2023-08-20T13:56:00Z</time>
      </trkpt>
      <trkpt lat="44.59248" lon="2.39025">
        <ele>367.4</ele>
        <time>2023-08-20T13:56:01Z</time>
      </trkpt>
      <trkpt lat="44.59243" lon="2.39021">
        <ele>367.8</ele>
        <time>2023-08-20T13:56:02Z</time>
      </trkpt>
      <trkpt lat="44.59236" lon="2.39017">
        <ele>368.8</ele>
        <time>2023-08-20T13:56:03Z</time>
      </trkpt>
      <trkpt lat="44.59231" lon="2.39013">
        <ele>369.4</ele>
        <time>2023-08-20T13:56:04Z</time>
      </trkpt>
      <trkpt lat="44.59226" lon="2.39007">
        <ele>370.2</ele>
        <time>2023-08-20T13:56:05Z</time>
      </trkpt>
      <trkpt lat="44.59221" lon="2.38998">
        <ele>371</ele>
        <time>2023-08-20T13:56:06Z</time>
      </trkpt>
      <trkpt lat="44.59217" lon="2.38986">
        <ele>371.6</ele>
        <time>2023-08-20T13:56:07Z</time>
      </trkpt>
      <trkpt lat="44.59213" lon="2.38974">
        <ele>372.8</ele>
        <time>2023-08-20T13:56:08Z</time>
      </trkpt>
      <trkpt lat="44.59208" lon="2.38962">
        <ele>373.2</ele>
        <time>2023-08-20T13:56:09Z</time>
      </trkpt>
      <trkpt lat="44.59202" lon="2.3895">
        <ele>374.4</ele>
        <time>2023-08-20T13:56:10Z</time>
      </trkpt>
      <trkpt lat="44.59196" lon="2.38938">
        <ele>374.8</ele>
        <time>2023-08-20T13:56:11Z</time>
      </trkpt>
      <trkpt lat="44.59188" lon="2.38927">
        <ele>375.6</ele>
        <time>2023-08-20T13:56:12Z</time>
      </trkpt>
      <trkpt lat="44.5918" lon="2.38917">
        <ele>376.2</ele>
        <time>2023-08-20T13:56:13Z</time>
      </trkpt>
      <trkpt lat="44.59171" lon="2.38908">
        <ele>377.2</ele>
        <time>2023-08-20T13:56:14Z</time>
      </trkpt>
      <trkpt lat="44.59162" lon="2.389">
        <ele>378.2</ele>
        <time>2023-08-20T13:56:15Z</time>
      </trkpt>
      <trkpt lat="44.59154" lon="2.38891">
        <ele>378.8</ele>
        <time>2023-08-20T13:56:16Z</time>
      </trkpt>
      <trkpt lat="44.5915" lon="2.38882">
        <ele>380</ele>
        <time>2023-08-20T13:56:17Z</time>
      </trkpt>
      <trkpt lat="44.59148" lon="2.38871">
        <ele>380.6</ele>
        <time>2023-08-20T13:56:18Z</time>
      </trkpt>
      <trkpt lat="44.59147" lon="2.3886">
        <ele>381.8</ele>
        <time>2023-08-20T13:56:19Z</time>
      </trkpt>
      <trkpt lat="44.59146" lon="2.38848">
        <ele>382.4</ele>
        <time>2023-08-20T13:56:20Z</time>
      </trkpt>
      <trkpt lat="44.59148" lon="2.38836">
        <ele>383.2</ele>
        <time>2023-08-20T13:56:21Z</time>
      </trkpt>
      <trkpt lat="44.5915" lon="2.38823">
        <ele>383.8</ele>
        <time>2023-08-20T13:56:22Z</time>
      </trkpt>
      <trkpt lat="44.59153" lon="2.38811">
        <ele>384.4</ele>
        <time>2023-08-20T13:56:23Z</time>
      </trkpt>
      <trkpt lat="44.59155" lon="2.38799">
        <ele>385</ele>
        <time>2023-08-20T13:56:24Z</time>
      </trkpt>
      <trkpt lat="44.59158" lon="2.38787">
        <ele>385.4</ele>
        <time>2023-08-20T13:56:25Z</time>
      </trkpt>
      <trkpt lat="44.5916" lon="2.38776">
        <ele>386.4</ele>
        <time>2023-08-20T13:56:26Z</time>
      </trkpt>
      <trkpt lat="44.59162" lon="2.38767">
        <ele>386.8</ele>
        <time>2023-08-20T13:56:27Z</time>
      </trkpt>
      <trkpt lat="44.59163" lon="2.38758">
        <ele>387.6</ele>
        <time>2023-08-20T13:56:28Z</time>
      </trkpt>
      <trkpt lat="44.59161" lon="2.3875">
        <ele>388</ele>
        <time>2023-08-20T13:56:29Z</time>
      </trkpt>
      <trkpt lat="44.59158" lon="2.38743">
        <ele>388.6</ele>
        <time>2023-08-20T13:56:30Z</time>
      </trkpt>
      <trkpt lat="44.59154" lon="2.38737">
        <ele>389.2</ele>
        <time>2023-08-20T13:56:31Z</time>
      </trkpt>
      <trkpt lat="44.59149" lon="2.38731">
        <ele>389.8</ele>
        <time>2023-08-20T13:56:32Z</time>
      </trkpt>
      <trkpt lat="44.59142" lon="2.38726">
        <ele>390.2</ele>
        <time>2023-08-20T13:56:33Z</time>
      </trkpt>
      <trkpt lat="44.59135" lon="2.38722">
        <ele>390.6</ele>
        <time>2023-08-20T13:56:34Z</time>
      </trkpt>
      <trkpt lat="44.59126" lon="2.3872">
        <ele>391.4</ele>
        <time>2023-08-20T13:56:35Z</time>
      </trkpt>
      <trkpt lat="44.59117" lon="2.38721">
        <ele>391.6</ele>
        <time>2023-08-20T13:56:36Z</time>
      </trkpt>
      <trkpt lat="44.59108" lon="2.38723">
        <ele>392.4</ele>
        <time>2023-08-20T13:56:37Z</time>
      </trkpt>
      <trkpt lat="44.59098" lon="2.38726">
        <ele>392.8</ele>
        <time>2023-08-20T13:56:38Z</time>
      </trkpt>
      <trkpt lat="44.5909" lon="2.38727">
        <ele>393.8</ele>
        <time>2023-08-20T13:56:39Z</time>
      </trkpt>
      <trkpt lat="44.59082" lon="2.38726">
        <ele>394.2</ele>
        <time>2023-08-20T13:56:40Z</time>
      </trkpt>
      <trkpt lat="44.59074" lon="2.3872">
        <ele>395.6</ele>
        <time>2023-08-20T13:56:41Z</time>
      </trkpt>
      <trkpt lat="44.59067" lon="2.38713">
        <ele>396.4</ele>
        <time>2023-08-20T13:56:42Z</time>
      </trkpt>
      <trkpt lat="44.59061" lon="2.38704">
        <ele>396.8</ele>
        <time>2023-08-20T13:56:43Z</time>
      </trkpt>
      <trkpt lat="44.59056" lon="2.38694">
        <ele>397.8</ele>
        <time>2023-08-20T13:56:44Z</time>
      </trkpt>
      <trkpt lat="44.5905" lon="2.38683">
        <ele>398.2</ele>
        <time>2023-08-20T13:56:45Z</time>
      </trkpt>
      <trkpt lat="44.59044" lon="2.38672">
        <ele>399</ele>
        <time>2023-08-20T13:56:46Z</time>
      </trkpt>
      <trkpt lat="44.59037" lon="2.3866">
        <ele>399.6</ele>
        <time>2023-08-20T13:56:47Z</time>
      </trkpt>
      <trkpt lat="44.59031" lon="2.38651">
        <ele>400.4</ele>
        <time>2023-08-20T13:56:48Z</time>
      </trkpt>
      <trkpt lat="44.59024" lon="2.3864">
        <ele>401</ele>
        <time>2023-08-20T13:56:49Z</time>
      </trkpt>
      <trkpt lat="44.59014" lon="2.38629">
        <ele>401.8</ele>
        <time>2023-08-20T13:56:50Z</time>
      </trkpt>
      <trkpt lat="44.59008" lon="2.3862">
        <ele>402.4</ele>
        <time>2023-08-20T13:56:51Z</time>
      </trkpt>
      <trkpt lat="44.59004" lon="2.3861">
        <ele>403</ele>
        <time>2023-08-20T13:56:52Z</time>
      </trkpt>
      <trkpt lat="44.59002" lon="2.386">
        <ele>404.6</ele>
        <time>2023-08-20T13:56:53Z</time>
      </trkpt>
      <trkpt lat="44.59001" lon="2.38589">
        <ele>405.2</ele>
        <time>2023-08-20T13:56:54Z</time>
      </trkpt>
      <trkpt lat="44.59001" lon="2.38577">
        <ele>406</ele>
        <time>2023-08-20T13:56:55Z</time>
      </trkpt>
      <trkpt lat="44.59" lon="2.38564">
        <ele>406.4</ele>
        <time>2023-08-20T13:56:56Z</time>
      </trkpt>
      <trkpt lat="44.58998" lon="2.3855">
        <ele>407.4</ele>
        <time>2023-08-20T13:56:57Z</time>
      </trkpt>
      <trkpt lat="44.58994" lon="2.38537">
        <ele>408.2</ele>
        <time>2023-08-20T13:56:58Z</time>
      </trkpt>
      <trkpt lat="44.58989" lon="2.38524">
        <ele>409.2</ele>
        <time>2023-08-20T13:56:59Z</time>
      </trkpt>
      <trkpt lat="44.58984" lon="2.38512">
        <ele>409.8</ele>
        <time>2023-08-20T13:57:00Z</time>
      </trkpt>
      <trkpt lat="44.58979" lon="2.38503">
        <ele>410.2</ele>
        <time>2023-08-20T13:57:01Z</time>
      </trkpt>
      <trkpt lat="44.58974" lon="2.38496">
        <ele>411</ele>
        <time>2023-08-20T13:57:02Z</time>
      </trkpt>
      <trkpt lat="44.5897" lon="2.38492">
        <ele>411.6</ele>
        <time>2023-08-20T13:57:03Z</time>
      </trkpt>
      <trkpt lat="44.58962" lon="2.3849">
        <ele>412.4</ele>
        <time>2023-08-20T13:57:04Z</time>
      </trkpt>
      <trkpt lat="44.58953" lon="2.3849">
        <ele>413.2</ele>
        <time>2023-08-20T13:57:05Z</time>
      </trkpt>
      <trkpt lat="44.58944" lon="2.3849">
        <ele>414.6</ele>
        <time>2023-08-20T13:57:06Z</time>
      </trkpt>
      <trkpt lat="44.58934" lon="2.38488">
        <ele>415.4</ele>
        <time>2023-08-20T13:57:07Z</time>
      </trkpt>
      <trkpt lat="44.58923" lon="2.38484">
        <ele>415.8</ele>
        <time>2023-08-20T13:57:08Z</time>
      </trkpt>
      <trkpt lat="44.58914" lon="2.38479">
        <ele>416.4</ele>
        <time>2023-08-20T13:57:09Z</time>
      </trkpt>
      <trkpt lat="44.58904" lon="2.38473">
        <ele>416.8</ele>
        <time>2023-08-20T13:57:10Z</time>
      </trkpt>
      <trkpt lat="44.58895" lon="2.38466">
        <ele>417.8</ele>
        <time>2023-08-20T13:57:11Z</time>
      </trkpt>
      <trkpt lat="44.58887" lon="2.38458">
        <ele>418.4</ele>
        <time>2023-08-20T13:57:12Z</time>
      </trkpt>
      <trkpt lat="44.5888" lon="2.38447">
        <ele>419.2</ele>
        <time>2023-08-20T13:57:13Z</time>
      </trkpt>
      <trkpt lat="44.58874" lon="2.38436">
        <ele>419.4</ele>
        <time>2023-08-20T13:57:14Z</time>
      </trkpt>
      <trkpt lat="44.58867" lon="2.38427">
        <ele>420.4</ele>
        <time>2023-08-20T13:57:15Z</time>
      </trkpt>
      <trkpt lat="44.58859" lon="2.3842">
        <ele>421.8</ele>
        <time>2023-08-20T13:57:16Z</time>
      </trkpt>
      <trkpt lat="44.58851" lon="2.38414">
        <ele>422.2</ele>
        <time>2023-08-20T13:57:17Z</time>
      </trkpt>
      <trkpt lat="44.58842" lon="2.38411">
        <ele>423</ele>
        <time>2023-08-20T13:57:18Z</time>
      </trkpt>
      <trkpt lat="44.58834" lon="2.38405">
        <ele>423.8</ele>
        <time>2023-08-20T13:57:19Z</time>
      </trkpt>
      <trkpt lat="44.58828" lon="2.38398">
        <ele>425</ele>
        <time>2023-08-20T13:57:20Z</time>
      </trkpt>
      <trkpt lat="44.58824" lon="2.38388">
        <ele>425.4</ele>
        <time>2023-08-20T13:57:21Z</time>
      </trkpt>
      <trkpt lat="44.58821" lon="2.38374">
        <ele>426.4</ele>
        <time>2023-08-20T13:57:22Z</time>
      </trkpt>
      <trkpt lat="44.58819" lon="2.3836">
        <ele>426.8</ele>
        <time>2023-08-20T13:57:23Z</time>
      </trkpt>
      <trkpt lat="44.58816" lon="2.38344">
        <ele>428.2</ele>
        <time>2023-08-20T13:57:24Z</time>
      </trkpt>
      <trkpt lat="44.58814" lon="2.38328">
        <ele>429.2</ele>
        <time>2023-08-20T13:57:25Z</time>
      </trkpt>
      <trkpt lat="44.5881" lon="2.38313">
        <ele>429.8</ele>
        <time>2023-08-20T13:57:26Z</time>
      </trkpt>
      <trkpt lat="44.58805" lon="2.38297">
        <ele>430.8</ele>
        <time>2023-08-20T13:57:27Z</time>
      </trkpt>
      <trkpt lat="44.58799" lon="2.38281">
        <ele>431.2</ele>
        <time>2023-08-20T13:57:28Z</time>
      </trkpt>
      <trkpt lat="44.58794" lon="2.38265">
        <ele>432.2</ele>
        <time>2023-08-20T13:57:29Z</time>
      </trkpt>
      <trkpt lat="44.5879" lon="2.38248">
        <ele>432.8</ele>
        <time>2023-08-20T13:57:30Z</time>
      </trkpt>
      <trkpt lat="44.58787" lon="2.38232">
        <ele>434.8</ele>
        <time>2023-08-20T13:57:31Z</time>
      </trkpt>
      <trkpt lat="44.58785" lon="2.38215">
        <ele>435.4</ele>
        <time>2023-08-20T13:57:32Z</time>
      </trkpt>
      <trkpt lat="44.58784" lon="2.382">
        <ele>436.8</ele>
        <time>2023-08-20T13:57:33Z</time>
      </trkpt>
      <trkpt lat="44.58784" lon="2.38186">
        <ele>437.8</ele>
        <time>2023-08-20T13:57:34Z</time>
      </trkpt>
      <trkpt lat="44.58788" lon="2.38174">
        <ele>438.4</ele>
        <time>2023-08-20T13:57:35Z</time>
      </trkpt>
      <trkpt lat="44.58793" lon="2.38163">
        <ele>439.6</ele>
        <time>2023-08-20T13:57:36Z</time>
      </trkpt>
      <trkpt lat="44.588" lon="2.38151">
        <ele>439.8</ele>
        <time>2023-08-20T13:57:37Z</time>
      </trkpt>
      <trkpt lat="44.58807" lon="2.3814">
        <ele>440.8</ele>
        <time>2023-08-20T13:57:38Z</time>
      </trkpt>
      <trkpt lat="44.58814" lon="2.38129">
        <ele>441.4</ele>
        <time>2023-08-20T13:57:39Z</time>
      </trkpt>
      <trkpt lat="44.58821" lon="2.38119">
        <ele>442.6</ele>
        <time>2023-08-20T13:57:40Z</time>
      </trkpt>
      <trkpt lat="44.58827" lon="2.38111">
        <ele>443.2</ele>
        <time>2023-08-20T13:57:41Z</time>
      </trkpt>
      <trkpt lat="44.58832" lon="2.38103">
        <ele>444.2</ele>
        <time>2023-08-20T13:57:42Z</time>
      </trkpt>
      <trkpt lat="44.58833" lon="2.38097">
        <ele>444.8</ele>
        <time>2023-08-20T13:57:43Z</time>
      </trkpt>
      <trkpt lat="44.58832" lon="2.38091">
        <ele>445.4</ele>
        <time>2023-08-20T13:57:44Z</time>
      </trkpt>
      <trkpt lat="44.58828" lon="2.38087">
        <ele>446.2</ele>
        <time>2023-08-20T13:57:45Z</time>
      </trkpt>
      <trkpt lat="44.58823" lon="2.38085">
        <ele>446.4</ele>
        <time>2023-08-20T13:57:46Z</time>
      </trkpt>
      <trkpt lat="44.58816" lon="2.38085">
        <ele>447.2</ele>
        <time>2023-08-20T13:57:47Z</time>
      </trkpt>
      <trkpt lat="44.58807" lon="2.38087">
        <ele>447.6</ele>
        <time>2023-08-20T13:57:48Z</time>
      </trkpt>
      <trkpt lat="44.58796" lon="2.38089">
        <ele>448.2</ele>
        <time>2023-08-20T13:57:49Z</time>
      </trkpt>
      <trkpt lat="44.58783" lon="2.38091">
        <ele>448.6</ele>
        <time>2023-08-20T13:57:50Z</time>
      </trkpt>
      <trkpt lat="44.58771" lon="2.38093">
        <ele>449.6</ele>
        <time>2023-08-20T13:57:51Z</time>
      </trkpt>
      <trkpt lat="44.5876" lon="2.38094">
        <ele>450.6</ele>
        <time>2023-08-20T13:57:52Z</time>
      </trkpt>
      <trkpt lat="44.58749" lon="2.38095">
        <ele>451.6</ele>
        <time>2023-08-20T13:57:53Z</time>
      </trkpt>
      <trkpt lat="44.58738" lon="2.38093">
        <ele>452.6</ele>
        <time>2023-08-20T13:57:54Z</time>
      </trkpt>
      <trkpt lat="44.58727" lon="2.38088">
        <ele>453</ele>
        <time>2023-08-20T13:57:55Z</time>
      </trkpt>
      <trkpt lat="44.58718" lon="2.3808">
        <ele>454</ele>
        <time>2023-08-20T13:57:56Z</time>
      </trkpt>
      <trkpt lat="44.58708" lon="2.38071">
        <ele>454.8</ele>
        <time>2023-08-20T13:57:57Z</time>
      </trkpt>
      <trkpt lat="44.587" lon="2.38062">
        <ele>456.2</ele>
        <time>2023-08-20T13:57:58Z</time>
      </trkpt>
      <trkpt lat="44.58692" lon="2.38053">
        <ele>457</ele>
        <time>2023-08-20T13:57:59Z</time>
      </trkpt>
      <trkpt lat="44.58685" lon="2.38043">
        <ele>458.2</ele>
        <time>2023-08-20T13:58:00Z</time>
      </trkpt>
      <trkpt lat="44.58679" lon="2.38032">
        <ele>459.2</ele>
        <time>2023-08-20T13:58:01Z</time>
      </trkpt>
      <trkpt lat="44.58674" lon="2.38022">
        <ele>459.8</ele>
        <time>2023-08-20T13:58:02Z</time>
      </trkpt>
      <trkpt lat="44.58669" lon="2.38014">
        <ele>460.6</ele>
        <time>2023-08-20T13:58:03Z</time>
      </trkpt>
      <trkpt lat="44.58664" lon="2.38009">
        <ele>461.2</ele>
        <time>2023-08-20T13:58:04Z</time>
      </trkpt>
      <trkpt lat="44.58654" lon="2.38002">
        <ele>462</ele>
        <time>2023-08-20T13:58:05Z</time>
      </trkpt>
      <trkpt lat="44.58645" lon="2.37997">
        <ele>462.4</ele>
        <time>2023-08-20T13:58:06Z</time>
      </trkpt>
      <trkpt lat="44.58636" lon="2.37992">
        <ele>462.8</ele>
        <time>2023-08-20T13:58:07Z</time>
      </trkpt>
      <trkpt lat="44.58627" lon="2.37986">
        <ele>463.2</ele>
        <time>2023-08-20T13:58:08Z</time>
      </trkpt>
      <trkpt lat="44.58618" lon="2.37981">
        <ele>464</ele>
        <time>2023-08-20T13:58:09Z</time>
      </trkpt>
      <trkpt lat="44.5861" lon="2.37976">
        <ele>465.2</ele>
        <time>2023-08-20T13:58:10Z</time>
      </trkpt>
      <trkpt lat="44.58602" lon="2.37971">
        <ele>465.6</ele>
        <time>2023-08-20T13:58:11Z</time>
      </trkpt>
      <trkpt lat="44.58595" lon="2.37966">
        <ele>467</ele>
        <time>2023-08-20T13:58:12Z</time>
      </trkpt>
      <trkpt lat="44.58589" lon="2.37962">
        <ele>467.6</ele>
        <time>2023-08-20T13:58:13Z</time>
      </trkpt>
      <trkpt lat="44.58583" lon="2.37958">
        <ele>468.4</ele>
        <time>2023-08-20T13:58:14Z</time>
      </trkpt>
      <trkpt lat="44.58577" lon="2.37954">
        <ele>468.6</ele>
        <time>2023-08-20T13:58:15Z</time>
      </trkpt>
      <trkpt lat="44.58571" lon="2.3795">
        <ele>469.2</ele>
        <time>2023-08-20T13:58:16Z</time>
      </trkpt>
      <trkpt lat="44.58564" lon="2.37947">
        <ele>469.2</ele>
        <time>2023-08-20T13:58:17Z</time>
      </trkpt>
      <trkpt lat="44.58556" lon="2.37943">
        <ele>470.2</ele>
        <time>2023-08-20T13:58:18Z</time>
      </trkpt>
      <trkpt lat="44.58547" lon="2.37942">
        <ele>471.2</ele>
        <time>2023-08-20T13:58:19Z</time>
      </trkpt>
      <trkpt lat="44.58537" lon="2.37942">
        <ele>472</ele>
        <time>2023-08-20T13:58:20Z</time>
      </trkpt>
      <trkpt lat="44.58526" lon="2.37944">
        <ele>472.8</ele>
        <time>2023-08-20T13:58:21Z</time>
      </trkpt>
      <trkpt lat="44.58515" lon="2.37947">
        <ele>473.2</ele>
        <time>2023-08-20T13:58:22Z</time>
      </trkpt>
      <trkpt lat="44.58503" lon="2.3795">
        <ele>474.8</ele>
        <time>2023-08-20T13:58:23Z</time>
      </trkpt>
      <trkpt lat="44.58491" lon="2.37953">
        <ele>475.2</ele>
        <time>2023-08-20T13:58:24Z</time>
      </trkpt>
      <trkpt lat="44.58479" lon="2.37955">
        <ele>476.8</ele>
        <time>2023-08-20T13:58:25Z</time>
      </trkpt>
      <trkpt lat="44.58466" lon="2.37957">
        <ele>477.4</ele>
        <time>2023-08-20T13:58:26Z</time>
      </trkpt>
      <trkpt lat="44.58453" lon="2.37958">
        <ele>478.4</ele>
        <time>2023-08-20T13:58:27Z</time>
      </trkpt>
      <trkpt lat="44.58441" lon="2.37959">
        <ele>479.6</ele>
        <time>2023-08-20T13:58:28Z</time>
      </trkpt>
      <trkpt lat="44.58428" lon="2.37958">
        <ele>480.6</ele>
        <time>2023-08-20T13:58:29Z</time>
      </trkpt>
      <trkpt lat="44.58415" lon="2.37955">
        <ele>482</ele>
        <time>2023-08-20T13:58:30Z</time>
      </trkpt>
      <trkpt lat="44.58402" lon="2.37952">
        <ele>482.8</ele>
        <time>2023-08-20T13:58:31Z</time>
      </trkpt>
      <trkpt lat="44.5839" lon="2.37948">
        <ele>484</ele>
        <time>2023-08-20T13:58:32Z</time>
      </trkpt>
      <trkpt lat="44.58378" lon="2.37944">
        <ele>485</ele>
        <time>2023-08-20T13:58:33Z</time>
      </trkpt>
      <trkpt lat="44.58366" lon="2.37938">
        <ele>486.4</ele>
        <time>2023-08-20T13:58:34Z</time>
      </trkpt>
      <trkpt lat="44.58355" lon="2.37931">
        <ele>487</ele>
        <time>2023-08-20T13:58:35Z</time>
      </trkpt>
      <trkpt lat="44.58345" lon="2.37926">
        <ele>488.2</ele>
        <time>2023-08-20T13:58:36Z</time>
      </trkpt>
      <trkpt lat="44.58335" lon="2.37922">
        <ele>489.6</ele>
        <time>2023-08-20T13:58:37Z</time>
      </trkpt>
      <trkpt lat="44.58324" lon="2.3792">
        <ele>490.2</ele>
        <time>2023-08-20T13:58:38Z</time>
      </trkpt>
      <trkpt lat="44.58315" lon="2.37919">
        <ele>491.6</ele>
        <time>2023-08-20T13:58:39Z</time>
      </trkpt>
      <trkpt lat="44.58307" lon="2.37919">
        <ele>492.4</ele>
        <time>2023-08-20T13:58:40Z</time>
      </trkpt>
      <trkpt lat="44.58299" lon="2.37918">
        <ele>493.6</ele>
        <time>2023-08-20T13:58:41Z</time>
      </trkpt>
      <trkpt lat="44.58293" lon="2.37917">
        <ele>494.2</ele>
        <time>2023-08-20T13:58:42Z</time>
      </trkpt>
      <trkpt lat="44.5829" lon="2.37918">
        <ele>495</ele>
        <time>2023-08-20T13:58:43Z</time>
      </trkpt>
      <trkpt lat="44.58288" lon="2.37922">
        <ele>495.4</ele>
        <time>2023-08-20T13:58:44Z</time>
      </trkpt>
      <trkpt lat="44.5829" lon="2.37927">
        <ele>496.2</ele>
        <time>2023-08-20T13:58:45Z</time>
      </trkpt>
      <trkpt lat="44.58293" lon="2.37933">
        <ele>496.6</ele>
        <time>2023-08-20T13:58:46Z</time>
      </trkpt>
      <trkpt lat="44.58298" lon="2.37938">
        <ele>496.8</ele>
        <time>2023-08-20T13:58:47Z</time>
      </trkpt>
      <trkpt lat="44.58304" lon="2.37942">
        <ele>497.2</ele>
        <time>2023-08-20T13:58:48Z</time>
      </trkpt>
      <trkpt lat="44.58311" lon="2.37947">
        <ele>497.4</ele>
        <time>2023-08-20T13:58:49Z</time>
      </trkpt>
      <trkpt lat="44.58318" lon="2.37953">
        <ele>498.2</ele>
        <time>2023-08-20T13:58:50Z</time>
      </trkpt>
      <trkpt lat="44.58326" lon="2.37961">
        <ele>498.4</ele>
        <time>2023-08-20T13:58:51Z</time>
      </trkpt>
      <trkpt lat="44.58334" lon="2.37973">
        <ele>498.8</ele>
        <time>2023-08-20T13:58:52Z</time>
      </trkpt>
      <trkpt lat="44.58342" lon="2.37985">
        <ele>499.4</ele>
        <time>2023-08-20T13:58:53Z</time>
      </trkpt>
      <trkpt lat="44.58351" lon="2.37998">
        <ele>500.2</ele>
        <time>2023-08-20T13:58:54Z</time>
      </trkpt>
      <trkpt lat="44.5836" lon="2.3801">
        <ele>500.8</ele>
        <time>2023-08-20T13:58:55Z</time>
      </trkpt>
      <trkpt lat="44.58369" lon="2.38023">
        <ele>501.4</ele>
        <time>2023-08-20T13:58:56Z</time>
      </trkpt>
      <trkpt lat="44.58378" lon="2.38035">
        <ele>502.4</ele>
        <time>2023-08-20T13:58:57Z</time>
      </trkpt>
      <trkpt lat="44.58387" lon="2.38048">
        <ele>503</ele>
        <time>2023-08-20T13:58:58Z</time>
      </trkpt>
      <trkpt lat="44.58395" lon="2.3806">
        <ele>504.4</ele>
        <time>2023-08-20T13:58:59Z</time>
      </trkpt>
      <trkpt lat="44.58404" lon="2.38072">
        <ele>504.8</ele>
        <time>2023-08-20T13:59:00Z</time>
      </trkpt>
      <trkpt lat="44.58414" lon="2.38082">
        <ele>505.8</ele>
        <time>2023-08-20T13:59:01Z</time>
      </trkpt>
      <trkpt lat="44.58425" lon="2.38092">
        <ele>506.6</ele>
        <time>2023-08-20T13:59:02Z</time>
      </trkpt>
      <trkpt lat="44.58435" lon="2.38101">
        <ele>507.2</ele>
        <time>2023-08-20T13:59:03Z</time>
      </trkpt>
      <trkpt lat="44.58444" lon="2.38107">
        <ele>508.4</ele>
        <time>2023-08-20T13:59:04Z</time>
      </trkpt>
      <trkpt lat="44.58457" lon="2.38117">
        <ele>508.6</ele>
        <time>2023-08-20T13:59:05Z</time>
      </trkpt>
      <trkpt lat="44.58468" lon="2.38126">
        <ele>509.6</ele>
        <time>2023-08-20T13:59:06Z</time>
      </trkpt>
      <trkpt lat="44.58477" lon="2.38135">
        <ele>510.2</ele>
        <time>2023-08-20T13:59:07Z</time>
      </trkpt>
      <trkpt lat="44.58484" lon="2.38144">
        <ele>511.2</ele>
        <time>2023-08-20T13:59:08Z</time>
      </trkpt>
      <trkpt lat="44.58491" lon="2.38155">
        <ele>511.6</ele>
        <time>2023-08-20T13:59:09Z</time>
      </trkpt>
      <trkpt lat="44.58497" lon="2.38166">
        <ele>512.6</ele>
        <time>2023-08-20T13:59:10Z</time>
      </trkpt>
      <trkpt lat="44.58502" lon="2.38182">
        <ele>513.6</ele>
        <time>2023-08-20T13:59:11Z</time>
      </trkpt>
      <trkpt lat="44.58506" lon="2.38195">
        <ele>514.2</ele>
        <time>2023-08-20T13:59:12Z</time>
      </trkpt>
      <trkpt lat="44.58509" lon="2.38209">
        <ele>515</ele>
        <time>2023-08-20T13:59:13Z</time>
      </trkpt>
      <trkpt lat="44.5851" lon="2.38218">
        <ele>515.4</ele>
        <time>2023-08-20T13:59:14Z</time>
      </trkpt>
      <trkpt lat="44.58509" lon="2.38231">
        <ele>516.4</ele>
        <time>2023-08-20T13:59:15Z</time>
      </trkpt>
      <trkpt lat="44.58506" lon="2.38241">
        <ele>517</ele>
        <time>2023-08-20T13:59:16Z</time>
      </trkpt>
      <trkpt lat="44.58502" lon="2.38249">
        <ele>517.6</ele>
        <time>2023-08-20T13:59:17Z</time>
      </trkpt>
      <trkpt lat="44.58494" lon="2.38256">
        <ele>518.2</ele>
        <time>2023-08-20T13:59:18Z</time>
      </trkpt>
      <trkpt lat="44.58485" lon="2.38259">
        <ele>519</ele>
        <time>2023-08-20T13:59:19Z</time>
      </trkpt>
      <trkpt lat="44.58477" lon="2.3826">
        <ele>519.4</ele>
        <time>2023-08-20T13:59:20Z</time>
      </trkpt>
      <trkpt lat="44.58465" lon="2.38256">
        <ele>519.8</ele>
        <time>2023-08-20T13:59:21Z</time>
      </trkpt>
      <trkpt lat="44.58455" lon="2.38249">
        <ele>521</ele>
        <time>2023-08-20T13:59:22Z</time>
      </trkpt>
      <trkpt lat="44.58446" lon="2.38241">
        <ele>521.2</ele>
        <time>2023-08-20T13:59:23Z</time>
      </trkpt>
      <trkpt lat="44.58436" lon="2.38232">
        <ele>522.2</ele>
        <time>2023-08-20T13:59:24Z</time>
      </trkpt>
      <trkpt lat="44.58425" lon="2.38224">
        <ele>522.6</ele>
        <time>2023-08-20T13:59:25Z</time>
      </trkpt>
      <trkpt lat="44.58413" lon="2.38215">
        <ele>524</ele>
        <time>2023-08-20T13:59:26Z</time>
      </trkpt>
      <trkpt lat="44.584" lon="2.38206">
        <ele>524.8</ele>
        <time>2023-08-20T13:59:27Z</time>
      </trkpt>
      <trkpt lat="44.5839" lon="2.38199">
        <ele>525.8</ele>
        <time>2023-08-20T13:59:28Z</time>
      </trkpt>
      <trkpt lat="44.58375" lon="2.38188">
        <ele>527.4</ele>
        <time>2023-08-20T13:59:29Z</time>
      </trkpt>
      <trkpt lat="44.58362" lon="2.3818">
        <ele>528.2</ele>
        <time>2023-08-20T13:59:30Z</time>
      </trkpt>
      <trkpt lat="44.58349" lon="2.38172">
        <ele>529.6</ele>
        <time>2023-08-20T13:59:31Z</time>
      </trkpt>
      <trkpt lat="44.58336" lon="2.38166">
        <ele>530.4</ele>
        <time>2023-08-20T13:59:32Z</time>
      </trkpt>
      <trkpt lat="44.58325" lon="2.38162">
        <ele>531.8</ele>
        <time>2023-08-20T13:59:33Z</time>
      </trkpt>
      <trkpt lat="44.5831" lon="2.38159">
        <ele>533</ele>
        <time>2023-08-20T13:59:34Z</time>
      </trkpt>
      <trkpt lat="44.58296" lon="2.38157">
        <ele>534.6</ele>
        <time>2023-08-20T13:59:35Z</time>
      </trkpt>
      <trkpt lat="44.5828" lon="2.38155">
        <ele>535</ele>
        <time>2023-08-20T13:59:36Z</time>
      </trkpt>
      <trkpt lat="44.58267" lon="2.38152">
        <ele>536</ele>
        <time>2023-08-20T13:59:37Z</time>
      </trkpt>
      <trkpt lat="44.58258" lon="2.38149">
        <ele>537.4</ele>
        <time>2023-08-20T13:59:38Z</time>
      </trkpt>
      <trkpt lat="44.58248" lon="2.38145">
        <ele>537.6</ele>
        <time>2023-08-20T13:59:39Z</time>
      </trkpt>
      <trkpt lat="44.58237" lon="2.38141">
        <ele>538.6</ele>
        <time>2023-08-20T13:59:40Z</time>
      </trkpt>
      <trkpt lat="44.58224" lon="2.38139">
        <ele>539</ele>
        <time>2023-08-20T13:59:41Z</time>
      </trkpt>
      <trkpt lat="44.58213" lon="2.3814">
        <ele>540</ele>
        <time>2023-08-20T13:59:42Z</time>
      </trkpt>
      <trkpt lat="44.58203" lon="2.38143">
        <ele>540.2</ele>
        <time>2023-08-20T13:59:43Z</time>
      </trkpt>
      <trkpt lat="44.58191" lon="2.38146">
        <ele>541</ele>
        <time>2023-08-20T13:59:44Z</time>
      </trkpt>
      <trkpt lat="44.5818" lon="2.3815">
        <ele>541.4</ele>
        <time>2023-08-20T13:59:45Z</time>
      </trkpt>
      <trkpt lat="44.58169" lon="2.38156">
        <ele>542.4</ele>
        <time>2023-08-20T13:59:46Z</time>
      </trkpt>
      <trkpt lat="44.58157" lon="2.38164">
        <ele>543.4</ele>
        <time>2023-08-20T13:59:47Z</time>
      </trkpt>
      <trkpt lat="44.58148" lon="2.38172">
        <ele>543.8</ele>
        <time>2023-08-20T13:59:48Z</time>
      </trkpt>
      <trkpt lat="44.58142" lon="2.3818">
        <ele>544.6</ele>
        <time>2023-08-20T13:59:49Z</time>
      </trkpt>
      <trkpt lat="44.58134" lon="2.3819">
        <ele>545</ele>
        <time>2023-08-20T13:59:50Z</time>
      </trkpt>
      <trkpt lat="44.58126" lon="2.38202">
        <ele>545.8</ele>
        <time>2023-08-20T13:59:51Z</time>
      </trkpt>
      <trkpt lat="44.58118" lon="2.38212">
        <ele>546.2</ele>
        <time>2023-08-20T13:59:52Z</time>
      </trkpt>
      <trkpt lat="44.58111" lon="2.38223">
        <ele>547.2</ele>
        <time>2023-08-20T13:59:53Z</time>
      </trkpt>
      <trkpt lat="44.58104" lon="2.38231">
        <ele>547.6</ele>
        <time>2023-08-20T13:59:54Z</time>
      </trkpt>
      <trkpt lat="44.58096" lon="2.38241">
        <ele>548.4</ele>
        <time>2023-08-20T13:59:55Z</time>
      </trkpt>
      <trkpt lat="44.58087" lon="2.3825">
        <ele>549.2</ele>
        <time>2023-08-20T13:59:56Z</time>
      </trkpt>
      <trkpt lat="44.58076" lon="2.38261">
        <ele>549.6</ele>
        <time>2023-08-20T13:59:57Z</time>
      </trkpt>
      <trkpt lat="44.58065" lon="2.3827">
        <ele>550.6</ele>
        <time>2023-08-20T13:59:58Z</time>
      </trkpt>
      <trkpt lat="44.58057" lon="2.38276">
        <ele>551.2</ele>
        <time>2023-08-20T13:59:59Z</time>
      </trkpt>
      <trkpt lat="44.58043" lon="2.38285">
        <ele>552</ele>
        <time>2023-08-20T14:00:00Z</time>
      </trkpt>
      <trkpt lat="44.58034" lon="2.3829">
        <ele>552.6</ele>
        <time>2023-08-20T14:00:01Z</time>
      </trkpt>
      <trkpt lat="44.58023" lon="2.38294">
        <ele>553.6</ele>
        <time>2023-08-20T14:00:02Z</time>
      </trkpt>
      <trkpt lat="44.58008" lon="2.38296">
        <ele>554.4</ele>
        <time>2023-08-20T14:00:03Z</time>
      </trkpt>
      <trkpt lat="44.57999" lon="2.38297">
        <ele>555.6</ele>
        <time>2023-08-20T14:00:04Z</time>
      </trkpt>
      <trkpt lat="44.57988" lon="2.38296">
        <ele>556.6</ele>
        <time>2023-08-20T14:00:05Z</time>
      </trkpt>
      <trkpt lat="44.57975" lon="2.38295">
        <ele>557.2</ele>
        <time>2023-08-20T14:00:06Z</time>
      </trkpt>
      <trkpt lat="44.57964" lon="2.38293">
        <ele>558.4</ele>
        <time>2023-08-20T14:00:07Z</time>
      </trkpt>
      <trkpt lat="44.57953" lon="2.38291">
        <ele>559.2</ele>
        <time>2023-08-20T14:00:08Z</time>
      </trkpt>
      <trkpt lat="44.57944" lon="2.38289">
        <ele>560.4</ele>
        <time>2023-08-20T14:00:09Z</time>
      </trkpt>
      <trkpt lat="44.57933" lon="2.38287">
        <ele>560.8</ele>
        <time>2023-08-20T14:00:10Z</time>
      </trkpt>
      <trkpt lat="44.57919" lon="2.38285">
        <ele>562.4</ele>
        <time>2023-08-20T14:00:11Z</time>
      </trkpt>
      <trkpt lat="44.57907" lon="2.38284">
        <ele>563.2</ele>
        <time>2023-08-20T14:00:12Z</time>
      </trkpt>
      <trkpt lat="44.57895" lon="2.38284">
        <ele>564.8</ele>
        <time>2023-08-20T14:00:13Z</time>
      </trkpt>
      <trkpt lat="44.57885" lon="2.38283">
        <ele>565.8</ele>
        <time>2023-08-20T14:00:14Z</time>
      </trkpt>
      <trkpt lat="44.57872" lon="2.38282">
        <ele>566.2</ele>
        <time>2023-08-20T14:00:15Z</time>
      </trkpt>
      <trkpt lat="44.5786" lon="2.38281">
        <ele>567.6</ele>
        <time>2023-08-20T14:00:16Z</time>
      </trkpt>
      <trkpt lat="44.57848" lon="2.3828">
        <ele>568</ele>
        <time>2023-08-20T14:00:17Z</time>
      </trkpt>
      <trkpt lat="44.57833" lon="2.3828">
        <ele>568.8</ele>
        <time>2023-08-20T14:00:18Z</time>
      </trkpt>
      <trkpt lat="44.57822" lon="2.38283">
        <ele>569.4</ele>
        <time>2023-08-20T14:00:19Z</time>
      </trkpt>
      <trkpt lat="44.57812" lon="2.3829">
        <ele>571</ele>
        <time>2023-08-20T14:00:20Z</time>
      </trkpt>
      <trkpt lat="44.57806" lon="2.38299">
        <ele>571.6</ele>
        <time>2023-08-20T14:00:21Z</time>
      </trkpt>
      <trkpt lat="44.57796" lon="2.38313">
        <ele>573</ele>
        <time>2023-08-20T14:00:22Z</time>
      </trkpt>
      <trkpt lat="44.57789" lon="2.38328">
        <ele>574.2</ele>
        <time>2023-08-20T14:00:23Z</time>
      </trkpt>
      <trkpt lat="44.57783" lon="2.38341">
        <ele>574.8</ele>
        <time>2023-08-20T14:00:24Z</time>
      </trkpt>
      <trkpt lat="44.57776" lon="2.38355">
        <ele>575.8</ele>
        <time>2023-08-20T14:00:25Z</time>
      </trkpt>
      <trkpt lat="44.57765" lon="2.3837">
        <ele>576.4</ele>
        <time>2023-08-20T14:00:26Z</time>
      </trkpt>
      <trkpt lat="44.57756" lon="2.38379">
        <ele>577.6</ele>
        <time>2023-08-20T14:00:27Z</time>
      </trkpt>
      <trkpt lat="44.57745" lon="2.38387">
        <ele>578</ele>
        <time>2023-08-20T14:00:28Z</time>
      </trkpt>
      <trkpt lat="44.57737" lon="2.38392">
        <ele>579</ele>
        <time>2023-08-20T14:00:29Z</time>
      </trkpt>
      <trkpt lat="44.57727" lon="2.38399">
        <ele>579.6</ele>
        <time>2023-08-20T14:00:30Z</time>
      </trkpt>
      <trkpt lat="44.57719" lon="2.38405">
        <ele>580.8</ele>
        <time>2023-08-20T14:00:31Z</time>
      </trkpt>
      <trkpt lat="44.5771" lon="2.38413">
        <ele>582</ele>
        <time>2023-08-20T14:00:32Z</time>
      </trkpt>
      <trkpt lat="44.57705" lon="2.38417">
        <ele>582.6</ele>
        <time>2023-08-20T14:00:33Z</time>
      </trkpt>
      <trkpt lat="44.57702" lon="2.3842">
        <ele>583.4</ele>
        <time>2023-08-20T14:00:34Z</time>
      </trkpt>
      <trkpt lat="44.57699" lon="2.38423">
        <ele>583.6</ele>
        <time>2023-08-20T14:00:35Z</time>
      </trkpt>
      <trkpt lat="44.57697" lon="2.38425">
        <ele>584.6</ele>
        <time>2023-08-20T14:00:36Z</time>
      </trkpt>
      <trkpt lat="44.57693" lon="2.38428">
        <ele>585</ele>
        <time>2023-08-20T14:00:37Z</time>
      </trkpt>
      <trkpt lat="44.57689" lon="2.3843">
        <ele>585.8</ele>
        <time>2023-08-20T14:00:38Z</time>
      </trkpt>
      <trkpt lat="44.57686" lon="2.38431">
        <ele>586.2</ele>
        <time>2023-08-20T14:00:39Z</time>
      </trkpt>
      <trkpt lat="44.57682" lon="2.38432">
        <ele>586.6</ele>
        <time>2023-08-20T14:00:40Z</time>
      </trkpt>
      <trkpt lat="44.57679" lon="2.38433">
        <ele>587</ele>
        <time>2023-08-20T14:00:41Z</time>
      </trkpt>
      <trkpt lat="44.57674" lon="2.38433">
        <ele>587.4</ele>
        <time>2023-08-20T14:00:42Z</time>
      </trkpt>
      <trkpt lat="44.57667" lon="2.38436">
        <ele>587.8</ele>
        <time>2023-08-20T14:00:43Z</time>
      </trkpt>
      <trkpt lat="44.57661" lon="2.38439">
        <ele>587.8</ele>
        <time>2023-08-20T14:00:44Z</time>
      </trkpt>
      <trkpt lat="44.57653" lon="2.38444">
        <ele>588.6</ele>
        <time>2023-08-20T14:00:45Z</time>
      </trkpt>
      <trkpt lat="44.57644" lon="2.3845">
        <ele>588.8</ele>
        <time>2023-08-20T14:00:46Z</time>
      </trkpt>
      <trkpt lat="44.5763" lon="2.38459">
        <ele>589.4</ele>
        <time>2023-08-20T14:00:47Z</time>
      </trkpt>
      <trkpt lat="44.5763" lon="2.38459">
        <ele>589.8</ele>
        <time>2023-08-20T14:00:48Z</time>
      </trkpt>
      <trkpt lat="44.57608" lon="2.38476">
        <ele>590.2</ele>
        <time>2023-08-20T14:00:49Z</time>
      </trkpt>
      <trkpt lat="44.57594" lon="2.38488">
        <ele>591.4</ele>
        <time>2023-08-20T14:00:50Z</time>
      </trkpt>
      <trkpt lat="44.57579" lon="2.385">
        <ele>592</ele>
        <time>2023-08-20T14:00:51Z</time>
      </trkpt>
      <trkpt lat="44.57565" lon="2.38514">
        <ele>593.4</ele>
        <time>2023-08-20T14:00:52Z</time>
      </trkpt>
      <trkpt lat="44.57565" lon="2.38514">
        <ele>594</ele>
        <time>2023-08-20T14:00:53Z</time>
      </trkpt>
      <trkpt lat="44.57538" lon="2.38545">
        <ele>595.4</ele>
        <time>2023-08-20T14:00:54Z</time>
      </trkpt>
      <trkpt lat="44.57525" lon="2.38562">
        <ele>595.8</ele>
        <time>2023-08-20T14:00:55Z</time>
      </trkpt>
      <trkpt lat="44.57515" lon="2.3858">
        <ele>596.6</ele>
        <time>2023-08-20T14:00:56Z</time>
      </trkpt>
      <trkpt lat="44.57502" lon="2.386">
        <ele>597</ele>
        <time>2023-08-20T14:00:57Z</time>
      </trkpt>
      <trkpt lat="44.57492" lon="2.38614">
        <ele>597.4</ele>
        <time>2023-08-20T14:00:58Z</time>
      </trkpt>
      <trkpt lat="44.57481" lon="2.38626">
        <ele>597.4</ele>
        <time>2023-08-20T14:00:59Z</time>
      </trkpt>
      <trkpt lat="44.57471" lon="2.38633">
        <ele>597.4</ele>
        <time>2023-08-20T14:01:00Z</time>
      </trkpt>
      <trkpt lat="44.57458" lon="2.38641">
        <ele>597.6</ele>
        <time>2023-08-20T14:01:01Z</time>
      </trkpt>
      <trkpt lat="44.57444" lon="2.38648">
        <ele>597.6</ele>
        <time>2023-08-20T14:01:02Z</time>
      </trkpt>
      <trkpt lat="44.57432" lon="2.38652">
        <ele>597.2</ele>
        <time>2023-08-20T14:01:03Z</time>
      </trkpt>
      <trkpt lat="44.57419" lon="2.38653">
        <ele>597</ele>
        <time>2023-08-20T14:01:04Z</time>
      </trkpt>
      <trkpt lat="44.57408" lon="2.3865">
        <ele>596.2</ele>
        <time>2023-08-20T14:01:05Z</time>
      </trkpt>
      <trkpt lat="44.57397" lon="2.38644">
        <ele>596</ele>
        <time>2023-08-20T14:01:06Z</time>
      </trkpt>
      <trkpt lat="44.57386" lon="2.38636">
        <ele>595.4</ele>
        <time>2023-08-20T14:01:07Z</time>
      </trkpt>
      <trkpt lat="44.57375" lon="2.38626">
        <ele>594.6</ele>
        <time>2023-08-20T14:01:08Z</time>
      </trkpt>
      <trkpt lat="44.57363" lon="2.38616">
        <ele>594</ele>
        <time>2023-08-20T14:01:09Z</time>
      </trkpt>
      <trkpt lat="44.57351" lon="2.38605">
        <ele>593.6</ele>
        <time>2023-08-20T14:01:10Z</time>
      </trkpt>
      <trkpt lat="44.57338" lon="2.38594">
        <ele>593.6</ele>
        <time>2023-08-20T14:01:11Z</time>
      </trkpt>
      <trkpt lat="44.57325" lon="2.38582">
        <ele>593.4</ele>
        <time>2023-08-20T14:01:12Z</time>
      </trkpt>
      <trkpt lat="44.57313" lon="2.38569">
        <ele>593.4</ele>
        <time>2023-08-20T14:01:13Z</time>
      </trkpt>
      <trkpt lat="44.573" lon="2.38556">
        <ele>593.4</ele>
        <time>2023-08-20T14:01:14Z</time>
      </trkpt>
      <trkpt lat="44.57289" lon="2.38541">
        <ele>593.2</ele>
        <time>2023-08-20T14:01:15Z</time>
      </trkpt>
      <trkpt lat="44.57278" lon="2.38525">
        <ele>593.2</ele>
        <time>2023-08-20T14:01:16Z</time>
      </trkpt>
      <trkpt lat="44.57268" lon="2.38509">
        <ele>592.8</ele>
        <time>2023-08-20T14:01:17Z</time>
      </trkpt>
      <trkpt lat="44.57258" lon="2.38492">
        <ele>592.4</ele>
        <time>2023-08-20T14:01:18Z</time>
      </trkpt>
      <trkpt lat="44.5724" lon="2.38456">
        <ele>592</ele>
        <time>2023-08-20T14:01:20Z</time>
      </trkpt>
      <trkpt lat="44.57233" lon="2.38438">
        <ele>591.6</ele>
        <time>2023-08-20T14:01:21Z</time>
      </trkpt>
      <trkpt lat="44.57227" lon="2.38419">
        <ele>591.6</ele>
        <time>2023-08-20T14:01:22Z</time>
      </trkpt>
      <trkpt lat="44.57224" lon="2.384">
        <ele>591</ele>
        <time>2023-08-20T14:01:23Z</time>
      </trkpt>
      <trkpt lat="44.57223" lon="2.38381">
        <ele>590.8</ele>
        <time>2023-08-20T14:01:24Z</time>
      </trkpt>
      <trkpt lat="44.57223" lon="2.38361">
        <ele>590.6</ele>
        <time>2023-08-20T14:01:25Z</time>
      </trkpt>
      <trkpt lat="44.57225" lon="2.38341">
        <ele>590</ele>
        <time>2023-08-20T14:01:26Z</time>
      </trkpt>
      <trkpt lat="44.57228" lon="2.38321">
        <ele>589.8</ele>
        <time>2023-08-20T14:01:27Z</time>
      </trkpt>
      <trkpt lat="44.57231" lon="2.383">
        <ele>589.2</ele>
        <time>2023-08-20T14:01:28Z</time>
      </trkpt>
      <trkpt lat="44.57241" lon="2.38218">
        <ele>588.4</ele>
        <time>2023-08-20T14:01:32Z</time>
      </trkpt>
      <trkpt lat="44.57241" lon="2.38199">
        <ele>588.2</ele>
        <time>2023-08-20T14:01:33Z</time>
      </trkpt>
      <trkpt lat="44.57239" lon="2.38181">
        <ele>588.2</ele>
        <time>2023-08-20T14:01:34Z</time>
      </trkpt>
      <trkpt lat="44.57235" lon="2.38164">
        <ele>588</ele>
        <time>2023-08-20T14:01:35Z</time>
      </trkpt>
      <trkpt lat="44.57228" lon="2.38151">
        <ele>588</ele>
        <time>2023-08-20T14:01:36Z</time>
      </trkpt>
      <trkpt lat="44.57219" lon="2.3814">
        <ele>588</ele>
        <time>2023-08-20T14:01:37Z</time>
      </trkpt>
      <trkpt lat="44.57209" lon="2.38131">
        <ele>588</ele>
        <time>2023-08-20T14:01:38Z</time>
      </trkpt>
      <trkpt lat="44.57197" lon="2.38124">
        <ele>588</ele>
        <time>2023-08-20T14:01:39Z</time>
      </trkpt>
      <trkpt lat="44.57185" lon="2.38119">
        <ele>587.8</ele>
        <time>2023-08-20T14:01:40Z</time>
      </trkpt>
      <trkpt lat="44.57173" lon="2.38112">
        <ele>587.8</ele>
        <time>2023-08-20T14:01:41Z</time>
      </trkpt>
      <trkpt lat="44.57151" lon="2.38094">
        <ele>588</ele>
        <time>2023-08-20T14:01:43Z</time>
      </trkpt>
      <trkpt lat="44.57119" lon="2.38058">
        <ele>588.2</ele>
        <time>2023-08-20T14:01:46Z</time>
      </trkpt>
      <trkpt lat="44.57106" lon="2.38048">
        <ele>588.2</ele>
        <time>2023-08-20T14:01:47Z</time>
      </trkpt>
      <trkpt lat="44.57052" lon="2.3802">
        <ele>588.4</ele>
        <time>2023-08-20T14:01:51Z</time>
      </trkpt>
      <trkpt lat="44.5704" lon="2.38013">
        <ele>588.4</ele>
        <time>2023-08-20T14:01:52Z</time>
      </trkpt>
      <trkpt lat="44.57028" lon="2.38007">
        <ele>588.4</ele>
        <time>2023-08-20T14:01:53Z</time>
      </trkpt>
      <trkpt lat="44.57017" lon="2.38001">
        <ele>588.4</ele>
        <time>2023-08-20T14:01:54Z</time>
      </trkpt>
      <trkpt lat="44.57007" lon="2.37996">
        <ele>588</ele>
        <time>2023-08-20T14:01:55Z</time>
      </trkpt>
      <trkpt lat="44.56997" lon="2.3799">
        <ele>587.6</ele>
        <time>2023-08-20T14:01:56Z</time>
      </trkpt>
      <trkpt lat="44.56987" lon="2.37984">
        <ele>586.6</ele>
        <time>2023-08-20T14:01:57Z</time>
      </trkpt>
      <trkpt lat="44.56978" lon="2.37977">
        <ele>586</ele>
        <time>2023-08-20T14:01:58Z</time>
      </trkpt>
      <trkpt lat="44.56969" lon="2.37969">
        <ele>585.4</ele>
        <time>2023-08-20T14:01:59Z</time>
      </trkpt>
      <trkpt lat="44.56962" lon="2.37959">
        <ele>585</ele>
        <time>2023-08-20T14:02:00Z</time>
      </trkpt>
      <trkpt lat="44.56955" lon="2.37949">
        <ele>584.4</ele>
        <time>2023-08-20T14:02:01Z</time>
      </trkpt>
      <trkpt lat="44.56949" lon="2.37938">
        <ele>583.6</ele>
        <time>2023-08-20T14:02:02Z</time>
      </trkpt>
      <trkpt lat="44.56943" lon="2.37926">
        <ele>583.6</ele>
        <time>2023-08-20T14:02:03Z</time>
      </trkpt>
      <trkpt lat="44.56936" lon="2.37915">
        <ele>582.6</ele>
        <time>2023-08-20T14:02:04Z</time>
      </trkpt>
      <trkpt lat="44.56918" lon="2.37876">
        <ele>581.6</ele>
        <time>2023-08-20T14:02:07Z</time>
      </trkpt>
      <trkpt lat="44.56913" lon="2.37863">
        <ele>581</ele>
        <time>2023-08-20T14:02:08Z</time>
      </trkpt>
      <trkpt lat="44.56908" lon="2.37852">
        <ele>580.2</ele>
        <time>2023-08-20T14:02:09Z</time>
      </trkpt>
      <trkpt lat="44.56904" lon="2.37842">
        <ele>580</ele>
        <time>2023-08-20T14:02:10Z</time>
      </trkpt>
      <trkpt lat="44.569" lon="2.37834">
        <ele>579</ele>
        <time>2023-08-20T14:02:11Z</time>
      </trkpt>
      <trkpt lat="44.56897" lon="2.37828">
        <ele>578.6</ele>
        <time>2023-08-20T14:02:12Z</time>
      </trkpt>
      <trkpt lat="44.56893" lon="2.37825">
        <ele>577.4</ele>
        <time>2023-08-20T14:02:13Z</time>
      </trkpt>
      <trkpt lat="44.5689" lon="2.37823">
        <ele>576.6</ele>
        <time>2023-08-20T14:02:14Z</time>
      </trkpt>
      <trkpt lat="44.56888" lon="2.37823">
        <ele>575.4</ele>
        <time>2023-08-20T14:02:15Z</time>
      </trkpt>
      <trkpt lat="44.56885" lon="2.37823">
        <ele>574.8</ele>
        <time>2023-08-20T14:02:16Z</time>
      </trkpt>
      <trkpt lat="44.56883" lon="2.37825">
        <ele>573.4</ele>
        <time>2023-08-20T14:02:17Z</time>
      </trkpt>
      <trkpt lat="44.56882" lon="2.37829">
        <ele>572.2</ele>
        <time>2023-08-20T14:02:18Z</time>
      </trkpt>
      <trkpt lat="44.56881" lon="2.37836">
        <ele>571.8</ele>
        <time>2023-08-20T14:02:19Z</time>
      </trkpt>
      <trkpt lat="44.56881" lon="2.37846">
        <ele>570.4</ele>
        <time>2023-08-20T14:02:20Z</time>
      </trkpt>
      <trkpt lat="44.5688" lon="2.3787">
        <ele>569.2</ele>
        <time>2023-08-20T14:02:22Z</time>
      </trkpt>
      <trkpt lat="44.5688" lon="2.37884">
        <ele>568.8</ele>
        <time>2023-08-20T14:02:23Z</time>
      </trkpt>
      <trkpt lat="44.5688" lon="2.37908">
        <ele>567.8</ele>
        <time>2023-08-20T14:02:25Z</time>
      </trkpt>
      <trkpt lat="44.56879" lon="2.37916">
        <ele>567.6</ele>
        <time>2023-08-20T14:02:26Z</time>
      </trkpt>
      <trkpt lat="44.56877" lon="2.37921">
        <ele>567</ele>
        <time>2023-08-20T14:02:27Z</time>
      </trkpt>
      <trkpt lat="44.56873" lon="2.37923">
        <ele>566.8</ele>
        <time>2023-08-20T14:02:28Z</time>
      </trkpt>
      <trkpt lat="44.56869" lon="2.37921">
        <ele>566.2</ele>
        <time>2023-08-20T14:02:29Z</time>
      </trkpt>
      <trkpt lat="44.56866" lon="2.37915">
        <ele>565.8</ele>
        <time>2023-08-20T14:02:30Z</time>
      </trkpt>
      <trkpt lat="44.56863" lon="2.37906">
        <ele>564.8</ele>
        <time>2023-08-20T14:02:31Z</time>
      </trkpt>
      <trkpt lat="44.56857" lon="2.37887">
        <ele>563.6</ele>
        <time>2023-08-20T14:02:33Z</time>
      </trkpt>
      <trkpt lat="44.56844" lon="2.37874">
        <ele>562.6</ele>
        <time>2023-08-20T14:02:35Z</time>
      </trkpt>
      <trkpt lat="44.56836" lon="2.37872">
        <ele>562.2</ele>
        <time>2023-08-20T14:02:36Z</time>
      </trkpt>
      <trkpt lat="44.56825" lon="2.37871">
        <ele>561.8</ele>
        <time>2023-08-20T14:02:37Z</time>
      </trkpt>
      <trkpt lat="44.56814" lon="2.37872">
        <ele>561</ele>
        <time>2023-08-20T14:02:38Z</time>
      </trkpt>
      <trkpt lat="44.56803" lon="2.37874">
        <ele>560.6</ele>
        <time>2023-08-20T14:02:39Z</time>
      </trkpt>
      <trkpt lat="44.56792" lon="2.37877">
        <ele>560.2</ele>
        <time>2023-08-20T14:02:40Z</time>
      </trkpt>
      <trkpt lat="44.5678" lon="2.37882">
        <ele>560</ele>
        <time>2023-08-20T14:02:41Z</time>
      </trkpt>
      <trkpt lat="44.56769" lon="2.37887">
        <ele>559.2</ele>
        <time>2023-08-20T14:02:42Z</time>
      </trkpt>
      <trkpt lat="44.56759" lon="2.37891">
        <ele>558.6</ele>
        <time>2023-08-20T14:02:43Z</time>
      </trkpt>
      <trkpt lat="44.56749" lon="2.37892">
        <ele>558</ele>
        <time>2023-08-20T14:02:44Z</time>
      </trkpt>
      <trkpt lat="44.56741" lon="2.3789">
        <ele>556.8</ele>
        <time>2023-08-20T14:02:45Z</time>
      </trkpt>
      <trkpt lat="44.56734" lon="2.37885">
        <ele>556.2</ele>
        <time>2023-08-20T14:02:46Z</time>
      </trkpt>
      <trkpt lat="44.56729" lon="2.37877">
        <ele>554.8</ele>
        <time>2023-08-20T14:02:47Z</time>
      </trkpt>
      <trkpt lat="44.56725" lon="2.37867">
        <ele>553.8</ele>
        <time>2023-08-20T14:02:48Z</time>
      </trkpt>
      <trkpt lat="44.56721" lon="2.37857">
        <ele>552.4</ele>
        <time>2023-08-20T14:02:49Z</time>
      </trkpt>
      <trkpt lat="44.56716" lon="2.37846">
        <ele>551.6</ele>
        <time>2023-08-20T14:02:50Z</time>
      </trkpt>
      <trkpt lat="44.5671" lon="2.37836">
        <ele>550.4</ele>
        <time>2023-08-20T14:02:51Z</time>
      </trkpt>
      <trkpt lat="44.56695" lon="2.37815">
        <ele>548.8</ele>
        <time>2023-08-20T14:02:53Z</time>
      </trkpt>
      <trkpt lat="44.56686" lon="2.37805">
        <ele>547.8</ele>
        <time>2023-08-20T14:02:54Z</time>
      </trkpt>
      <trkpt lat="44.56678" lon="2.37793">
        <ele>547.2</ele>
        <time>2023-08-20T14:02:55Z</time>
      </trkpt>
      <trkpt lat="44.56671" lon="2.37782">
        <ele>546.2</ele>
        <time>2023-08-20T14:02:56Z</time>
      </trkpt>
      <trkpt lat="44.56658" lon="2.37757">
        <ele>544.6</ele>
        <time>2023-08-20T14:02:58Z</time>
      </trkpt>
      <trkpt lat="44.56652" lon="2.37746">
        <ele>544.4</ele>
        <time>2023-08-20T14:02:59Z</time>
      </trkpt>
      <trkpt lat="44.56644" lon="2.37735">
        <ele>542.6</ele>
        <time>2023-08-20T14:03:00Z</time>
      </trkpt>
      <trkpt lat="44.56628" lon="2.37719">
        <ele>540.6</ele>
        <time>2023-08-20T14:03:02Z</time>
      </trkpt>
      <trkpt lat="44.56618" lon="2.37713">
        <ele>539.2</ele>
        <time>2023-08-20T14:03:03Z</time>
      </trkpt>
      <trkpt lat="44.5661" lon="2.37709">
        <ele>538.8</ele>
        <time>2023-08-20T14:03:04Z</time>
      </trkpt>
      <trkpt lat="44.56602" lon="2.37705">
        <ele>538</ele>
        <time>2023-08-20T14:03:05Z</time>
      </trkpt>
      <trkpt lat="44.56594" lon="2.37702">
        <ele>537.4</ele>
        <time>2023-08-20T14:03:06Z</time>
      </trkpt>
      <trkpt lat="44.56586" lon="2.37699">
        <ele>535.6</ele>
        <time>2023-08-20T14:03:07Z</time>
      </trkpt>
      <trkpt lat="44.56578" lon="2.37696">
        <ele>534.8</ele>
        <time>2023-08-20T14:03:08Z</time>
      </trkpt>
      <trkpt lat="44.56571" lon="2.37693">
        <ele>533.4</ele>
        <time>2023-08-20T14:03:09Z</time>
      </trkpt>
      <trkpt lat="44.56563" lon="2.3769">
        <ele>532.6</ele>
        <time>2023-08-20T14:03:10Z</time>
      </trkpt>
      <trkpt lat="44.56557" lon="2.37684">
        <ele>531.4</ele>
        <time>2023-08-20T14:03:11Z</time>
      </trkpt>
      <trkpt lat="44.56551" lon="2.37675">
        <ele>530.6</ele>
        <time>2023-08-20T14:03:12Z</time>
      </trkpt>
      <trkpt lat="44.56547" lon="2.37665">
        <ele>529.8</ele>
        <time>2023-08-20T14:03:13Z</time>
      </trkpt>
      <trkpt lat="44.56542" lon="2.37654">
        <ele>528.8</ele>
        <time>2023-08-20T14:03:14Z</time>
      </trkpt>
      <trkpt lat="44.56538" lon="2.37642">
        <ele>528.4</ele>
        <time>2023-08-20T14:03:15Z</time>
      </trkpt>
      <trkpt lat="44.56535" lon="2.37632">
        <ele>527.6</ele>
        <time>2023-08-20T14:03:16Z</time>
      </trkpt>
      <trkpt lat="44.56532" lon="2.37622">
        <ele>526.8</ele>
        <time>2023-08-20T14:03:17Z</time>
      </trkpt>
      <trkpt lat="44.56532" lon="2.37613">
        <ele>525.8</ele>
        <time>2023-08-20T14:03:18Z</time>
      </trkpt>
      <trkpt lat="44.56534" lon="2.37605">
        <ele>525</ele>
        <time>2023-08-20T14:03:19Z</time>
      </trkpt>
      <trkpt lat="44.56536" lon="2.37597">
        <ele>523.4</ele>
        <time>2023-08-20T14:03:20Z</time>
      </trkpt>
      <trkpt lat="44.56537" lon="2.37589">
        <ele>521.8</ele>
        <time>2023-08-20T14:03:21Z</time>
      </trkpt>
      <trkpt lat="44.56539" lon="2.37582">
        <ele>521</ele>
        <time>2023-08-20T14:03:22Z</time>
      </trkpt>
      <trkpt lat="44.5654" lon="2.37575">
        <ele>519.4</ele>
        <time>2023-08-20T14:03:23Z</time>
      </trkpt>
      <trkpt lat="44.56542" lon="2.37568">
        <ele>518.4</ele>
        <time>2023-08-20T14:03:24Z</time>
      </trkpt>
      <trkpt lat="44.56544" lon="2.37562">
        <ele>517.2</ele>
        <time>2023-08-20T14:03:25Z</time>
      </trkpt>
      <trkpt lat="44.56546" lon="2.37557">
        <ele>516.6</ele>
        <time>2023-08-20T14:03:26Z</time>
      </trkpt>
      <trkpt lat="44.56547" lon="2.37553">
        <ele>515.6</ele>
        <time>2023-08-20T14:03:27Z</time>
      </trkpt>
      <trkpt lat="44.56548" lon="2.37549">
        <ele>515.4</ele>
        <time>2023-08-20T14:03:28Z</time>
      </trkpt>
      <trkpt lat="44.5655" lon="2.37544">
        <ele>514.6</ele>
        <time>2023-08-20T14:03:29Z</time>
      </trkpt>
      <trkpt lat="44.56553" lon="2.37539">
        <ele>514</ele>
        <time>2023-08-20T14:03:30Z</time>
      </trkpt>
      <trkpt lat="44.56561" lon="2.37528">
        <ele>513.2</ele>
        <time>2023-08-20T14:03:32Z</time>
      </trkpt>
      <trkpt lat="44.56583" lon="2.37504">
        <ele>512</ele>
        <time>2023-08-20T14:03:36Z</time>
      </trkpt>
      <trkpt lat="44.5659" lon="2.37496">
        <ele>511.8</ele>
        <time>2023-08-20T14:03:37Z</time>
      </trkpt>
      <trkpt lat="44.56607" lon="2.37467">
        <ele>511.8</ele>
        <time>2023-08-20T14:03:40Z</time>
      </trkpt>
      <trkpt lat="44.56612" lon="2.37457">
        <ele>511.8</ele>
        <time>2023-08-20T14:03:41Z</time>
      </trkpt>
      <trkpt lat="44.56619" lon="2.37435">
        <ele>512.2</ele>
        <time>2023-08-20T14:03:43Z</time>
      </trkpt>
      <trkpt lat="44.56621" lon="2.37425">
        <ele>512.4</ele>
        <time>2023-08-20T14:03:44Z</time>
      </trkpt>
      <trkpt lat="44.56621" lon="2.37415">
        <ele>512.6</ele>
        <time>2023-08-20T14:03:45Z</time>
      </trkpt>
      <trkpt lat="44.56618" lon="2.37406">
        <ele>512.6</ele>
        <time>2023-08-20T14:03:46Z</time>
      </trkpt>
      <trkpt lat="44.56614" lon="2.37398">
        <ele>512.8</ele>
        <time>2023-08-20T14:03:47Z</time>
      </trkpt>
      <trkpt lat="44.56611" lon="2.37389">
        <ele>513.2</ele>
        <time>2023-08-20T14:03:48Z</time>
      </trkpt>
      <trkpt lat="44.56608" lon="2.37379">
        <ele>513.4</ele>
        <time>2023-08-20T14:03:49Z</time>
      </trkpt>
      <trkpt lat="44.56605" lon="2.37368">
        <ele>513.4</ele>
        <time>2023-08-20T14:03:50Z</time>
      </trkpt>
      <trkpt lat="44.56603" lon="2.37357">
        <ele>513.4</ele>
        <time>2023-08-20T14:03:51Z</time>
      </trkpt>
      <trkpt lat="44.56598" lon="2.37347">
        <ele>513.6</ele>
        <time>2023-08-20T14:03:52Z</time>
      </trkpt>
      <trkpt lat="44.56593" lon="2.37338">
        <ele>513.6</ele>
        <time>2023-08-20T14:03:53Z</time>
      </trkpt>
      <trkpt lat="44.5658" lon="2.37319">
        <ele>513.6</ele>
        <time>2023-08-20T14:03:55Z</time>
      </trkpt>
      <trkpt lat="44.56573" lon="2.37309">
        <ele>513.2</ele>
        <time>2023-08-20T14:03:56Z</time>
      </trkpt>
      <trkpt lat="44.56562" lon="2.37285">
        <ele>512.6</ele>
        <time>2023-08-20T14:03:58Z</time>
      </trkpt>
      <trkpt lat="44.56558" lon="2.37271">
        <ele>512.2</ele>
        <time>2023-08-20T14:03:59Z</time>
      </trkpt>
      <trkpt lat="44.56553" lon="2.37244">
        <ele>511.8</ele>
        <time>2023-08-20T14:04:01Z</time>
      </trkpt>
      <trkpt lat="44.5655" lon="2.37232">
        <ele>511.8</ele>
        <time>2023-08-20T14:04:02Z</time>
      </trkpt>
      <trkpt lat="44.56548" lon="2.3722">
        <ele>511.4</ele>
        <time>2023-08-20T14:04:03Z</time>
      </trkpt>
      <trkpt lat="44.56547" lon="2.37208">
        <ele>511.4</ele>
        <time>2023-08-20T14:04:04Z</time>
      </trkpt>
      <trkpt lat="44.56547" lon="2.37195">
        <ele>510.8</ele>
        <time>2023-08-20T14:04:05Z</time>
      </trkpt>
      <trkpt lat="44.56549" lon="2.37183">
        <ele>510.4</ele>
        <time>2023-08-20T14:04:06Z</time>
      </trkpt>
      <trkpt lat="44.56556" lon="2.37159">
        <ele>510</ele>
        <time>2023-08-20T14:04:08Z</time>
      </trkpt>
      <trkpt lat="44.56563" lon="2.37149">
        <ele>509.8</ele>
        <time>2023-08-20T14:04:09Z</time>
      </trkpt>
      <trkpt lat="44.56572" lon="2.3714">
        <ele>509.6</ele>
        <time>2023-08-20T14:04:10Z</time>
      </trkpt>
      <trkpt lat="44.56582" lon="2.37133">
        <ele>509.4</ele>
        <time>2023-08-20T14:04:11Z</time>
      </trkpt>
      <trkpt lat="44.56593" lon="2.37125">
        <ele>509.4</ele>
        <time>2023-08-20T14:04:12Z</time>
      </trkpt>
      <trkpt lat="44.56603" lon="2.37116">
        <ele>509.2</ele>
        <time>2023-08-20T14:04:13Z</time>
      </trkpt>
      <trkpt lat="44.56612" lon="2.37107">
        <ele>509</ele>
        <time>2023-08-20T14:04:14Z</time>
      </trkpt>
      <trkpt lat="44.5662" lon="2.37096">
        <ele>509</ele>
        <time>2023-08-20T14:04:15Z</time>
      </trkpt>
      <trkpt lat="44.56626" lon="2.37085">
        <ele>509</ele>
        <time>2023-08-20T14:04:16Z</time>
      </trkpt>
      <trkpt lat="44.56629" lon="2.37072">
        <ele>508.8</ele>
        <time>2023-08-20T14:04:17Z</time>
      </trkpt>
      <trkpt lat="44.56628" lon="2.37061">
        <ele>508.8</ele>
        <time>2023-08-20T14:04:18Z</time>
      </trkpt>
      <trkpt lat="44.56624" lon="2.37051">
        <ele>508.8</ele>
        <time>2023-08-20T14:04:19Z</time>
      </trkpt>
      <trkpt lat="44.56617" lon="2.37043">
        <ele>508.8</ele>
        <time>2023-08-20T14:04:20Z</time>
      </trkpt>
      <trkpt lat="44.56608" lon="2.37037">
        <ele>508.8</ele>
        <time>2023-08-20T14:04:21Z</time>
      </trkpt>
      <trkpt lat="44.56589" lon="2.37027">
        <ele>508.6</ele>
        <time>2023-08-20T14:04:23Z</time>
      </trkpt>
      <trkpt lat="44.56579" lon="2.37021">
        <ele>508.6</ele>
        <time>2023-08-20T14:04:24Z</time>
      </trkpt>
      <trkpt lat="44.56569" lon="2.37015">
        <ele>508.6</ele>
        <time>2023-08-20T14:04:25Z</time>
      </trkpt>
      <trkpt lat="44.56559" lon="2.37006">
        <ele>508.6</ele>
        <time>2023-08-20T14:04:26Z</time>
      </trkpt>
      <trkpt lat="44.5654" lon="2.36988">
        <ele>508.8</ele>
        <time>2023-08-20T14:04:28Z</time>
      </trkpt>
      <trkpt lat="44.56505" lon="2.3694">
        <ele>509.8</ele>
        <time>2023-08-20T14:04:32Z</time>
      </trkpt>
      <trkpt lat="44.56495" lon="2.36928">
        <ele>510.4</ele>
        <time>2023-08-20T14:04:33Z</time>
      </trkpt>
      <trkpt lat="44.56478" lon="2.36904">
        <ele>511.8</ele>
        <time>2023-08-20T14:04:35Z</time>
      </trkpt>
      <trkpt lat="44.56473" lon="2.36892">
        <ele>512.4</ele>
        <time>2023-08-20T14:04:36Z</time>
      </trkpt>
      <trkpt lat="44.56471" lon="2.36879">
        <ele>513.2</ele>
        <time>2023-08-20T14:04:37Z</time>
      </trkpt>
      <trkpt lat="44.56472" lon="2.36867">
        <ele>513.6</ele>
        <time>2023-08-20T14:04:38Z</time>
      </trkpt>
      <trkpt lat="44.56476" lon="2.36854">
        <ele>515</ele>
        <time>2023-08-20T14:04:39Z</time>
      </trkpt>
      <trkpt lat="44.56482" lon="2.3684">
        <ele>515.4</ele>
        <time>2023-08-20T14:04:40Z</time>
      </trkpt>
      <trkpt lat="44.56487" lon="2.36825">
        <ele>516.2</ele>
        <time>2023-08-20T14:04:41Z</time>
      </trkpt>
      <trkpt lat="44.56491" lon="2.36809">
        <ele>517</ele>
        <time>2023-08-20T14:04:42Z</time>
      </trkpt>
      <trkpt lat="44.56495" lon="2.36792">
        <ele>517.6</ele>
        <time>2023-08-20T14:04:43Z</time>
      </trkpt>
      <trkpt lat="44.56497" lon="2.36778">
        <ele>518.4</ele>
        <time>2023-08-20T14:04:44Z</time>
      </trkpt>
      <trkpt lat="44.56499" lon="2.36761">
        <ele>518.8</ele>
        <time>2023-08-20T14:04:45Z</time>
      </trkpt>
      <trkpt lat="44.56498" lon="2.36743">
        <ele>519.6</ele>
        <time>2023-08-20T14:04:46Z</time>
      </trkpt>
      <trkpt lat="44.56494" lon="2.36729">
        <ele>519.8</ele>
        <time>2023-08-20T14:04:47Z</time>
      </trkpt>
      <trkpt lat="44.56488" lon="2.36718">
        <ele>520.6</ele>
        <time>2023-08-20T14:04:48Z</time>
      </trkpt>
      <trkpt lat="44.56481" lon="2.36711">
        <ele>520.8</ele>
        <time>2023-08-20T14:04:49Z</time>
      </trkpt>
      <trkpt lat="44.56472" lon="2.36707">
        <ele>521.2</ele>
        <time>2023-08-20T14:04:50Z</time>
      </trkpt>
      <trkpt lat="44.56462" lon="2.36705">
        <ele>521.4</ele>
        <time>2023-08-20T14:04:51Z</time>
      </trkpt>
      <trkpt lat="44.5645" lon="2.36706">
        <ele>521.6</ele>
        <time>2023-08-20T14:04:52Z</time>
      </trkpt>
      <trkpt lat="44.56437" lon="2.36709">
        <ele>521.8</ele>
        <time>2023-08-20T14:04:53Z</time>
      </trkpt>
      <trkpt lat="44.56423" lon="2.36713">
        <ele>522</ele>
        <time>2023-08-20T14:04:54Z</time>
      </trkpt>
      <trkpt lat="44.5641" lon="2.36719">
        <ele>522.4</ele>
        <time>2023-08-20T14:04:55Z</time>
      </trkpt>
      <trkpt lat="44.56396" lon="2.36725">
        <ele>522.4</ele>
        <time>2023-08-20T14:04:56Z</time>
      </trkpt>
      <trkpt lat="44.56384" lon="2.36731">
        <ele>522.4</ele>
        <time>2023-08-20T14:04:57Z</time>
      </trkpt>
      <trkpt lat="44.56372" lon="2.36735">
        <ele>522.6</ele>
        <time>2023-08-20T14:04:58Z</time>
      </trkpt>
      <trkpt lat="44.5636" lon="2.36738">
        <ele>522.6</ele>
        <time>2023-08-20T14:04:59Z</time>
      </trkpt>
      <trkpt lat="44.56348" lon="2.3674">
        <ele>522.6</ele>
        <time>2023-08-20T14:05:00Z</time>
      </trkpt>
      <trkpt lat="44.56336" lon="2.36742">
        <ele>522.6</ele>
        <time>2023-08-20T14:05:01Z</time>
      </trkpt>
      <trkpt lat="44.56322" lon="2.36743">
        <ele>522.4</ele>
        <time>2023-08-20T14:05:02Z</time>
      </trkpt>
      <trkpt lat="44.56312" lon="2.36742">
        <ele>522.4</ele>
        <time>2023-08-20T14:05:03Z</time>
      </trkpt>
      <trkpt lat="44.56302" lon="2.36739">
        <ele>522.4</ele>
        <time>2023-08-20T14:05:04Z</time>
      </trkpt>
      <trkpt lat="44.56293" lon="2.36731">
        <ele>522</ele>
        <time>2023-08-20T14:05:05Z</time>
      </trkpt>
      <trkpt lat="44.56286" lon="2.3672">
        <ele>521.4</ele>
        <time>2023-08-20T14:05:06Z</time>
      </trkpt>
      <trkpt lat="44.5628" lon="2.36706">
        <ele>521.2</ele>
        <time>2023-08-20T14:05:07Z</time>
      </trkpt>
      <trkpt lat="44.56278" lon="2.3669">
        <ele>520.8</ele>
        <time>2023-08-20T14:05:08Z</time>
      </trkpt>
      <trkpt lat="44.56276" lon="2.36674">
        <ele>520.6</ele>
        <time>2023-08-20T14:05:09Z</time>
      </trkpt>
      <trkpt lat="44.56274" lon="2.36656">
        <ele>520.4</ele>
        <time>2023-08-20T14:05:10Z</time>
      </trkpt>
      <trkpt lat="44.56273" lon="2.36637">
        <ele>520.4</ele>
        <time>2023-08-20T14:05:11Z</time>
      </trkpt>
      <trkpt lat="44.56274" lon="2.36619">
        <ele>520.4</ele>
        <time>2023-08-20T14:05:12Z</time>
      </trkpt>
      <trkpt lat="44.56274" lon="2.366">
        <ele>520.4</ele>
        <time>2023-08-20T14:05:13Z</time>
      </trkpt>
      <trkpt lat="44.56274" lon="2.36584">
        <ele>520.4</ele>
        <time>2023-08-20T14:05:14Z</time>
      </trkpt>
      <trkpt lat="44.56272" lon="2.36561">
        <ele>520.4</ele>
        <time>2023-08-20T14:05:15Z</time>
      </trkpt>
      <trkpt lat="44.56269" lon="2.36541">
        <ele>520.4</ele>
        <time>2023-08-20T14:05:16Z</time>
      </trkpt>
      <trkpt lat="44.56258" lon="2.36464">
        <ele>521.2</ele>
        <time>2023-08-20T14:05:20Z</time>
      </trkpt>
      <trkpt lat="44.56257" lon="2.36446">
        <ele>521.2</ele>
        <time>2023-08-20T14:05:21Z</time>
      </trkpt>
      <trkpt lat="44.56255" lon="2.36428">
        <ele>521.2</ele>
        <time>2023-08-20T14:05:22Z</time>
      </trkpt>
      <trkpt lat="44.56251" lon="2.36416">
        <ele>521.2</ele>
        <time>2023-08-20T14:05:23Z</time>
      </trkpt>
      <trkpt lat="44.56245" lon="2.36402">
        <ele>521.4</ele>
        <time>2023-08-20T14:05:24Z</time>
      </trkpt>
      <trkpt lat="44.56235" lon="2.36388">
        <ele>521.4</ele>
        <time>2023-08-20T14:05:25Z</time>
      </trkpt>
      <trkpt lat="44.56225" lon="2.36381">
        <ele>521.2</ele>
        <time>2023-08-20T14:05:26Z</time>
      </trkpt>
      <trkpt lat="44.56213" lon="2.36376">
        <ele>521.2</ele>
        <time>2023-08-20T14:05:27Z</time>
      </trkpt>
      <trkpt lat="44.562" lon="2.36373">
        <ele>521</ele>
        <time>2023-08-20T14:05:28Z</time>
      </trkpt>
      <trkpt lat="44.56189" lon="2.36371">
        <ele>520.4</ele>
        <time>2023-08-20T14:05:29Z</time>
      </trkpt>
      <trkpt lat="44.56173" lon="2.36369">
        <ele>520</ele>
        <time>2023-08-20T14:05:30Z</time>
      </trkpt>
      <trkpt lat="44.5616" lon="2.36367">
        <ele>519.6</ele>
        <time>2023-08-20T14:05:31Z</time>
      </trkpt>
      <trkpt lat="44.56147" lon="2.36366">
        <ele>519.4</ele>
        <time>2023-08-20T14:05:32Z</time>
      </trkpt>
      <trkpt lat="44.56134" lon="2.36365">
        <ele>519.2</ele>
        <time>2023-08-20T14:05:33Z</time>
      </trkpt>
      <trkpt lat="44.56124" lon="2.36364">
        <ele>519.2</ele>
        <time>2023-08-20T14:05:34Z</time>
      </trkpt>
      <trkpt lat="44.56108" lon="2.36363">
        <ele>519</ele>
        <time>2023-08-20T14:05:35Z</time>
      </trkpt>
      <trkpt lat="44.56081" lon="2.36361">
        <ele>518.4</ele>
        <time>2023-08-20T14:05:37Z</time>
      </trkpt>
      <trkpt lat="44.56054" lon="2.36362">
        <ele>517.6</ele>
        <time>2023-08-20T14:05:39Z</time>
      </trkpt>
      <trkpt lat="44.56041" lon="2.36366">
        <ele>516.6</ele>
        <time>2023-08-20T14:05:40Z</time>
      </trkpt>
      <trkpt lat="44.56029" lon="2.36374">
        <ele>516.2</ele>
        <time>2023-08-20T14:05:41Z</time>
      </trkpt>
      <trkpt lat="44.56018" lon="2.36382">
        <ele>515.4</ele>
        <time>2023-08-20T14:05:42Z</time>
      </trkpt>
      <trkpt lat="44.56004" lon="2.36394">
        <ele>515</ele>
        <time>2023-08-20T14:05:43Z</time>
      </trkpt>
      <trkpt lat="44.55994" lon="2.36405">
        <ele>514.2</ele>
        <time>2023-08-20T14:05:44Z</time>
      </trkpt>
      <trkpt lat="44.55975" lon="2.36434">
        <ele>513.4</ele>
        <time>2023-08-20T14:05:46Z</time>
      </trkpt>
      <trkpt lat="44.55968" lon="2.36446">
        <ele>512.6</ele>
        <time>2023-08-20T14:05:47Z</time>
      </trkpt>
      <trkpt lat="44.55953" lon="2.36477">
        <ele>511.6</ele>
        <time>2023-08-20T14:05:49Z</time>
      </trkpt>
      <trkpt lat="44.55944" lon="2.36495">
        <ele>511.2</ele>
        <time>2023-08-20T14:05:50Z</time>
      </trkpt>
      <trkpt lat="44.55937" lon="2.36509">
        <ele>510.4</ele>
        <time>2023-08-20T14:05:51Z</time>
      </trkpt>
      <trkpt lat="44.55929" lon="2.36519">
        <ele>509.8</ele>
        <time>2023-08-20T14:05:52Z</time>
      </trkpt>
      <trkpt lat="44.5592" lon="2.3653">
        <ele>508.2</ele>
        <time>2023-08-20T14:05:53Z</time>
      </trkpt>
      <trkpt lat="44.55909" lon="2.36538">
        <ele>507</ele>
        <time>2023-08-20T14:05:54Z</time>
      </trkpt>
      <trkpt lat="44.55896" lon="2.36547">
        <ele>506.4</ele>
        <time>2023-08-20T14:05:55Z</time>
      </trkpt>
      <trkpt lat="44.55886" lon="2.36555">
        <ele>505.2</ele>
        <time>2023-08-20T14:05:56Z</time>
      </trkpt>
      <trkpt lat="44.55878" lon="2.36563">
        <ele>504.4</ele>
        <time>2023-08-20T14:05:57Z</time>
      </trkpt>
      <trkpt lat="44.5587" lon="2.36575">
        <ele>503.6</ele>
        <time>2023-08-20T14:05:58Z</time>
      </trkpt>
      <trkpt lat="44.5586" lon="2.3659">
        <ele>503.2</ele>
        <time>2023-08-20T14:05:59Z</time>
      </trkpt>
      <trkpt lat="44.55851" lon="2.36603">
        <ele>502.2</ele>
        <time>2023-08-20T14:06:00Z</time>
      </trkpt>
      <trkpt lat="44.55843" lon="2.36618">
        <ele>501.2</ele>
        <time>2023-08-20T14:06:01Z</time>
      </trkpt>
      <trkpt lat="44.55827" lon="2.36644">
        <ele>499.8</ele>
        <time>2023-08-20T14:06:03Z</time>
      </trkpt>
      <trkpt lat="44.55816" lon="2.36662">
        <ele>499.4</ele>
        <time>2023-08-20T14:06:04Z</time>
      </trkpt>
      <trkpt lat="44.55807" lon="2.36677">
        <ele>498.4</ele>
        <time>2023-08-20T14:06:05Z</time>
      </trkpt>
      <trkpt lat="44.5579" lon="2.36705">
        <ele>497.2</ele>
        <time>2023-08-20T14:06:07Z</time>
      </trkpt>
      <trkpt lat="44.55778" lon="2.36722">
        <ele>496.8</ele>
        <time>2023-08-20T14:06:08Z</time>
      </trkpt>
      <trkpt lat="44.55769" lon="2.36732">
        <ele>495.6</ele>
        <time>2023-08-20T14:06:09Z</time>
      </trkpt>
      <trkpt lat="44.55744" lon="2.36758">
        <ele>494.4</ele>
        <time>2023-08-20T14:06:11Z</time>
      </trkpt>
      <trkpt lat="44.55733" lon="2.3677">
        <ele>493</ele>
        <time>2023-08-20T14:06:12Z</time>
      </trkpt>
      <trkpt lat="44.5571" lon="2.36798">
        <ele>491.4</ele>
        <time>2023-08-20T14:06:14Z</time>
      </trkpt>
      <trkpt lat="44.55689" lon="2.36826">
        <ele>490</ele>
        <time>2023-08-20T14:06:16Z</time>
      </trkpt>
      <trkpt lat="44.55668" lon="2.36855">
        <ele>488.6</ele>
        <time>2023-08-20T14:06:18Z</time>
      </trkpt>
      <trkpt lat="44.5565" lon="2.36881">
        <ele>487.4</ele>
        <time>2023-08-20T14:06:20Z</time>
      </trkpt>
      <trkpt lat="44.55641" lon="2.36894">
        <ele>486.6</ele>
        <time>2023-08-20T14:06:21Z</time>
      </trkpt>
      <trkpt lat="44.55633" lon="2.36906">
        <ele>486</ele>
        <time>2023-08-20T14:06:22Z</time>
      </trkpt>
      <trkpt lat="44.55625" lon="2.36917">
        <ele>484.6</ele>
        <time>2023-08-20T14:06:23Z</time>
      </trkpt>
      <trkpt lat="44.55616" lon="2.36927">
        <ele>483.8</ele>
        <time>2023-08-20T14:06:24Z</time>
      </trkpt>
      <trkpt lat="44.55606" lon="2.36934">
        <ele>482.4</ele>
        <time>2023-08-20T14:06:25Z</time>
      </trkpt>
      <trkpt lat="44.55595" lon="2.36936">
        <ele>481.6</ele>
        <time>2023-08-20T14:06:26Z</time>
      </trkpt>
      <trkpt lat="44.55585" lon="2.36934">
        <ele>480</ele>
        <time>2023-08-20T14:06:27Z</time>
      </trkpt>
      <trkpt lat="44.55575" lon="2.36929">
        <ele>478.8</ele>
        <time>2023-08-20T14:06:28Z</time>
      </trkpt>
      <trkpt lat="44.55566" lon="2.3692">
        <ele>478.2</ele>
        <time>2023-08-20T14:06:29Z</time>
      </trkpt>
      <trkpt lat="44.55557" lon="2.36909">
        <ele>477.2</ele>
        <time>2023-08-20T14:06:30Z</time>
      </trkpt>
      <trkpt lat="44.5555" lon="2.36895">
        <ele>476.8</ele>
        <time>2023-08-20T14:06:31Z</time>
      </trkpt>
      <trkpt lat="44.55546" lon="2.3688">
        <ele>475.6</ele>
        <time>2023-08-20T14:06:32Z</time>
      </trkpt>
      <trkpt lat="44.55543" lon="2.36867">
        <ele>475.2</ele>
        <time>2023-08-20T14:06:33Z</time>
      </trkpt>
      <trkpt lat="44.5554" lon="2.36848">
        <ele>474.6</ele>
        <time>2023-08-20T14:06:34Z</time>
      </trkpt>
      <trkpt lat="44.55539" lon="2.36832">
        <ele>474</ele>
        <time>2023-08-20T14:06:35Z</time>
      </trkpt>
      <trkpt lat="44.55538" lon="2.36816">
        <ele>473</ele>
        <time>2023-08-20T14:06:36Z</time>
      </trkpt>
      <trkpt lat="44.55538" lon="2.36816">
        <ele>472</ele>
        <time>2023-08-20T14:06:37Z</time>
      </trkpt>
      <trkpt lat="44.55541" lon="2.3679">
        <ele>471.6</ele>
        <time>2023-08-20T14:06:38Z</time>
      </trkpt>
      <trkpt lat="44.55543" lon="2.36773">
        <ele>471</ele>
        <time>2023-08-20T14:06:39Z</time>
      </trkpt>
      <trkpt lat="44.55545" lon="2.36759">
        <ele>470.6</ele>
        <time>2023-08-20T14:06:40Z</time>
      </trkpt>
      <trkpt lat="44.55545" lon="2.36746">
        <ele>469.8</ele>
        <time>2023-08-20T14:06:41Z</time>
      </trkpt>
      <trkpt lat="44.55545" lon="2.36735">
        <ele>469.4</ele>
        <time>2023-08-20T14:06:42Z</time>
      </trkpt>
      <trkpt lat="44.55544" lon="2.36723">
        <ele>468.8</ele>
        <time>2023-08-20T14:06:43Z</time>
      </trkpt>
      <trkpt lat="44.55544" lon="2.36707">
        <ele>468.6</ele>
        <time>2023-08-20T14:06:44Z</time>
      </trkpt>
      <trkpt lat="44.55543" lon="2.36695">
        <ele>468</ele>
        <time>2023-08-20T14:06:45Z</time>
      </trkpt>
      <trkpt lat="44.55544" lon="2.36682">
        <ele>467.6</ele>
        <time>2023-08-20T14:06:46Z</time>
      </trkpt>
      <trkpt lat="44.55545" lon="2.3667">
        <ele>467.2</ele>
        <time>2023-08-20T14:06:47Z</time>
      </trkpt>
      <trkpt lat="44.55548" lon="2.36661">
        <ele>466.8</ele>
        <time>2023-08-20T14:06:48Z</time>
      </trkpt>
      <trkpt lat="44.55552" lon="2.36647">
        <ele>466.6</ele>
        <time>2023-08-20T14:06:49Z</time>
      </trkpt>
      <trkpt lat="44.55557" lon="2.36635">
        <ele>466</ele>
        <time>2023-08-20T14:06:50Z</time>
      </trkpt>
      <trkpt lat="44.55563" lon="2.36623">
        <ele>465.6</ele>
        <time>2023-08-20T14:06:51Z</time>
      </trkpt>
      <trkpt lat="44.55577" lon="2.36601">
        <ele>464.2</ele>
        <time>2023-08-20T14:06:53Z</time>
      </trkpt>
      <trkpt lat="44.55587" lon="2.36585">
        <ele>463.6</ele>
        <time>2023-08-20T14:06:54Z</time>
      </trkpt>
      <trkpt lat="44.55596" lon="2.3657">
        <ele>462.6</ele>
        <time>2023-08-20T14:06:55Z</time>
      </trkpt>
      <trkpt lat="44.5561" lon="2.36543">
        <ele>461.6</ele>
        <time>2023-08-20T14:06:57Z</time>
      </trkpt>
      <trkpt lat="44.55624" lon="2.36509">
        <ele>460.2</ele>
        <time>2023-08-20T14:06:59Z</time>
      </trkpt>
      <trkpt lat="44.55629" lon="2.36493">
        <ele>459.6</ele>
        <time>2023-08-20T14:07:00Z</time>
      </trkpt>
      <trkpt lat="44.55632" lon="2.36475">
        <ele>458.8</ele>
        <time>2023-08-20T14:07:01Z</time>
      </trkpt>
      <trkpt lat="44.55638" lon="2.3642">
        <ele>457.2</ele>
        <time>2023-08-20T14:07:04Z</time>
      </trkpt>
      <trkpt lat="44.55642" lon="2.36403">
        <ele>457</ele>
        <time>2023-08-20T14:07:05Z</time>
      </trkpt>
      <trkpt lat="44.55651" lon="2.36373">
        <ele>456.2</ele>
        <time>2023-08-20T14:07:07Z</time>
      </trkpt>
      <trkpt lat="44.55661" lon="2.36337">
        <ele>455</ele>
        <time>2023-08-20T14:07:09Z</time>
      </trkpt>
      <trkpt lat="44.55666" lon="2.36302">
        <ele>454</ele>
        <time>2023-08-20T14:07:11Z</time>
      </trkpt>
      <trkpt lat="44.55665" lon="2.36289">
        <ele>452.8</ele>
        <time>2023-08-20T14:07:12Z</time>
      </trkpt>
      <trkpt lat="44.55664" lon="2.36273">
        <ele>452</ele>
        <time>2023-08-20T14:07:13Z</time>
      </trkpt>
      <trkpt lat="44.5566" lon="2.36257">
        <ele>451.8</ele>
        <time>2023-08-20T14:07:14Z</time>
      </trkpt>
      <trkpt lat="44.55653" lon="2.36239">
        <ele>451.2</ele>
        <time>2023-08-20T14:07:15Z</time>
      </trkpt>
      <trkpt lat="44.55646" lon="2.36226">
        <ele>450.8</ele>
        <time>2023-08-20T14:07:16Z</time>
      </trkpt>
      <trkpt lat="44.55636" lon="2.36214">
        <ele>450.6</ele>
        <time>2023-08-20T14:07:17Z</time>
      </trkpt>
      <trkpt lat="44.55626" lon="2.36203">
        <ele>450.2</ele>
        <time>2023-08-20T14:07:18Z</time>
      </trkpt>
      <trkpt lat="44.55617" lon="2.36194">
        <ele>449.8</ele>
        <time>2023-08-20T14:07:19Z</time>
      </trkpt>
      <trkpt lat="44.55595" lon="2.36168">
        <ele>449</ele>
        <time>2023-08-20T14:07:21Z</time>
      </trkpt>
      <trkpt lat="44.55587" lon="2.36158">
        <ele>448.2</ele>
        <time>2023-08-20T14:07:22Z</time>
      </trkpt>
      <trkpt lat="44.55579" lon="2.36147">
        <ele>447.8</ele>
        <time>2023-08-20T14:07:23Z</time>
      </trkpt>
      <trkpt lat="44.55573" lon="2.36138">
        <ele>446.6</ele>
        <time>2023-08-20T14:07:24Z</time>
      </trkpt>
      <trkpt lat="44.55568" lon="2.36129">
        <ele>446</ele>
        <time>2023-08-20T14:07:25Z</time>
      </trkpt>
      <trkpt lat="44.55564" lon="2.36124">
        <ele>444.4</ele>
        <time>2023-08-20T14:07:26Z</time>
      </trkpt>
      <trkpt lat="44.55561" lon="2.3612">
        <ele>443.6</ele>
        <time>2023-08-20T14:07:27Z</time>
      </trkpt>
      <trkpt lat="44.55559" lon="2.36117">
        <ele>442.4</ele>
        <time>2023-08-20T14:07:28Z</time>
      </trkpt>
      <trkpt lat="44.55556" lon="2.36113">
        <ele>441.8</ele>
        <time>2023-08-20T14:07:29Z</time>
      </trkpt>
      <trkpt lat="44.55553" lon="2.36111">
        <ele>440.2</ele>
        <time>2023-08-20T14:07:30Z</time>
      </trkpt>
      <trkpt lat="44.5555" lon="2.3611">
        <ele>438.6</ele>
        <time>2023-08-20T14:07:31Z</time>
      </trkpt>
      <trkpt lat="44.55548" lon="2.36112">
        <ele>438</ele>
        <time>2023-08-20T14:07:32Z</time>
      </trkpt>
      <trkpt lat="44.55545" lon="2.36114">
        <ele>437</ele>
        <time>2023-08-20T14:07:33Z</time>
      </trkpt>
      <trkpt lat="44.55543" lon="2.36118">
        <ele>436.6</ele>
        <time>2023-08-20T14:07:34Z</time>
      </trkpt>
      <trkpt lat="44.55542" lon="2.36124">
        <ele>435.6</ele>
        <time>2023-08-20T14:07:35Z</time>
      </trkpt>
      <trkpt lat="44.55539" lon="2.3614">
        <ele>434.4</ele>
        <time>2023-08-20T14:07:37Z</time>
      </trkpt>
      <trkpt lat="44.55539" lon="2.36148">
        <ele>434</ele>
        <time>2023-08-20T14:07:38Z</time>
      </trkpt>
      <trkpt lat="44.55539" lon="2.36158">
        <ele>433.6</ele>
        <time>2023-08-20T14:07:39Z</time>
      </trkpt>
      <trkpt lat="44.5554" lon="2.36171">
        <ele>433.2</ele>
        <time>2023-08-20T14:07:40Z</time>
      </trkpt>
      <trkpt lat="44.55545" lon="2.3619">
        <ele>432.6</ele>
        <time>2023-08-20T14:07:42Z</time>
      </trkpt>
      <trkpt lat="44.55551" lon="2.36213">
        <ele>431.6</ele>
        <time>2023-08-20T14:07:44Z</time>
      </trkpt>
      <trkpt lat="44.55554" lon="2.36226">
        <ele>431.4</ele>
        <time>2023-08-20T14:07:45Z</time>
      </trkpt>
      <trkpt lat="44.55554" lon="2.36246">
        <ele>430.6</ele>
        <time>2023-08-20T14:07:47Z</time>
      </trkpt>
      <trkpt lat="44.55553" lon="2.36255">
        <ele>430</ele>
        <time>2023-08-20T14:07:48Z</time>
      </trkpt>
      <trkpt lat="44.55552" lon="2.36265">
        <ele>429.6</ele>
        <time>2023-08-20T14:07:49Z</time>
      </trkpt>
      <trkpt lat="44.55552" lon="2.36276">
        <ele>429</ele>
        <time>2023-08-20T14:07:50Z</time>
      </trkpt>
      <trkpt lat="44.55551" lon="2.36285">
        <ele>428.2</ele>
        <time>2023-08-20T14:07:51Z</time>
      </trkpt>
      <trkpt lat="44.5555" lon="2.36292">
        <ele>427.8</ele>
        <time>2023-08-20T14:07:52Z</time>
      </trkpt>
      <trkpt lat="44.55548" lon="2.363">
        <ele>427</ele>
        <time>2023-08-20T14:07:53Z</time>
      </trkpt>
      <trkpt lat="44.55545" lon="2.36307">
        <ele>426.4</ele>
        <time>2023-08-20T14:07:54Z</time>
      </trkpt>
      <trkpt lat="44.55541" lon="2.36314">
        <ele>425.8</ele>
        <time>2023-08-20T14:07:55Z</time>
      </trkpt>
      <trkpt lat="44.55536" lon="2.36317">
        <ele>425.6</ele>
        <time>2023-08-20T14:07:56Z</time>
      </trkpt>
      <trkpt lat="44.55531" lon="2.36319">
        <ele>424.6</ele>
        <time>2023-08-20T14:07:57Z</time>
      </trkpt>
      <trkpt lat="44.55525" lon="2.36319">
        <ele>423.8</ele>
        <time>2023-08-20T14:07:58Z</time>
      </trkpt>
      <trkpt lat="44.5552" lon="2.3632">
        <ele>423.4</ele>
        <time>2023-08-20T14:07:59Z</time>
      </trkpt>
      <trkpt lat="44.55498" lon="2.36325">
        <ele>422.2</ele>
        <time>2023-08-20T14:08:02Z</time>
      </trkpt>
      <trkpt lat="44.55465" lon="2.36342">
        <ele>421.4</ele>
        <time>2023-08-20T14:08:06Z</time>
      </trkpt>
      <trkpt lat="44.55456" lon="2.36349">
        <ele>421</ele>
        <time>2023-08-20T14:08:07Z</time>
      </trkpt>
      <trkpt lat="44.55442" lon="2.36363">
        <ele>420.6</ele>
        <time>2023-08-20T14:08:09Z</time>
      </trkpt>
      <trkpt lat="44.55435" lon="2.36372">
        <ele>420.4</ele>
        <time>2023-08-20T14:08:10Z</time>
      </trkpt>
      <trkpt lat="44.55427" lon="2.36384">
        <ele>420.2</ele>
        <time>2023-08-20T14:08:11Z</time>
      </trkpt>
      <trkpt lat="44.55421" lon="2.36395">
        <ele>420</ele>
        <time>2023-08-20T14:08:12Z</time>
      </trkpt>
      <trkpt lat="44.5541" lon="2.36414">
        <ele>419.2</ele>
        <time>2023-08-20T14:08:14Z</time>
      </trkpt>
      <trkpt lat="44.55403" lon="2.36422">
        <ele>418.8</ele>
        <time>2023-08-20T14:08:15Z</time>
      </trkpt>
      <trkpt lat="44.55385" lon="2.36432">
        <ele>418</ele>
        <time>2023-08-20T14:08:17Z</time>
      </trkpt>
      <trkpt lat="44.55377" lon="2.36432">
        <ele>417.4</ele>
        <time>2023-08-20T14:08:18Z</time>
      </trkpt>
      <trkpt lat="44.55371" lon="2.36432">
        <ele>417.2</ele>
        <time>2023-08-20T14:08:19Z</time>
      </trkpt>
      <trkpt lat="44.55362" lon="2.36431">
        <ele>416.8</ele>
        <time>2023-08-20T14:08:20Z</time>
      </trkpt>
      <trkpt lat="44.55355" lon="2.36432">
        <ele>416.6</ele>
        <time>2023-08-20T14:08:21Z</time>
      </trkpt>
      <trkpt lat="44.55348" lon="2.36434">
        <ele>416.4</ele>
        <time>2023-08-20T14:08:22Z</time>
      </trkpt>
      <trkpt lat="44.55342" lon="2.36436">
        <ele>416.4</ele>
        <time>2023-08-20T14:08:23Z</time>
      </trkpt>
      <trkpt lat="44.55337" lon="2.36439">
        <ele>416.4</ele>
        <time>2023-08-20T14:08:24Z</time>
      </trkpt>
      <trkpt lat="44.55333" lon="2.36442">
        <ele>416.4</ele>
        <time>2023-08-20T14:08:25Z</time>
      </trkpt>
      <trkpt lat="44.55332" lon="2.36445">
        <ele>416.4</ele>
        <time>2023-08-20T14:08:26Z</time>
      </trkpt>
      <trkpt lat="44.55332" lon="2.36448">
        <ele>416.4</ele>
        <time>2023-08-20T14:08:27Z</time>
      </trkpt>
      <trkpt lat="44.55334" lon="2.36452">
        <ele>416.6</ele>
        <time>2023-08-20T14:08:28Z</time>
      </trkpt>
      <trkpt lat="44.55338" lon="2.36456">
        <ele>416.6</ele>
        <time>2023-08-20T14:08:29Z</time>
      </trkpt>
      <trkpt lat="44.55342" lon="2.36461">
        <ele>416.6</ele>
        <time>2023-08-20T14:08:30Z</time>
      </trkpt>
      <trkpt lat="44.55349" lon="2.36468">
        <ele>416.8</ele>
        <time>2023-08-20T14:08:31Z</time>
      </trkpt>
      <trkpt lat="44.55355" lon="2.36476">
        <ele>417</ele>
        <time>2023-08-20T14:08:32Z</time>
      </trkpt>
      <trkpt lat="44.55362" lon="2.36484">
        <ele>417.6</ele>
        <time>2023-08-20T14:08:33Z</time>
      </trkpt>
      <trkpt lat="44.55374" lon="2.36502">
        <ele>418.2</ele>
        <time>2023-08-20T14:08:35Z</time>
      </trkpt>
      <trkpt lat="44.55379" lon="2.36517">
        <ele>418.8</ele>
        <time>2023-08-20T14:08:36Z</time>
      </trkpt>
      <trkpt lat="44.55381" lon="2.3653">
        <ele>419</ele>
        <time>2023-08-20T14:08:37Z</time>
      </trkpt>
      <trkpt lat="44.55381" lon="2.36543">
        <ele>419.4</ele>
        <time>2023-08-20T14:08:38Z</time>
      </trkpt>
      <trkpt lat="44.55379" lon="2.36551">
        <ele>419.6</ele>
        <time>2023-08-20T14:08:39Z</time>
      </trkpt>
      <trkpt lat="44.55375" lon="2.3656">
        <ele>419.6</ele>
        <time>2023-08-20T14:08:40Z</time>
      </trkpt>
      <trkpt lat="44.55367" lon="2.36568">
        <ele>419.6</ele>
        <time>2023-08-20T14:08:41Z</time>
      </trkpt>
      <trkpt lat="44.55359" lon="2.36575">
        <ele>419.8</ele>
        <time>2023-08-20T14:08:42Z</time>
      </trkpt>
      <trkpt lat="44.5535" lon="2.36582">
        <ele>420</ele>
        <time>2023-08-20T14:08:43Z</time>
      </trkpt>
      <trkpt lat="44.55343" lon="2.36589">
        <ele>420</ele>
        <time>2023-08-20T14:08:44Z</time>
      </trkpt>
      <trkpt lat="44.55329" lon="2.36615">
        <ele>420.4</ele>
        <time>2023-08-20T14:08:46Z</time>
      </trkpt>
      <trkpt lat="44.55325" lon="2.36629">
        <ele>420.6</ele>
        <time>2023-08-20T14:08:47Z</time>
      </trkpt>
      <trkpt lat="44.55323" lon="2.36643">
        <ele>420.8</ele>
        <time>2023-08-20T14:08:48Z</time>
      </trkpt>
      <trkpt lat="44.55323" lon="2.36654">
        <ele>421.6</ele>
        <time>2023-08-20T14:08:49Z</time>
      </trkpt>
      <trkpt lat="44.55323" lon="2.36668">
        <ele>422.4</ele>
        <time>2023-08-20T14:08:50Z</time>
      </trkpt>
      <trkpt lat="44.55325" lon="2.36685">
        <ele>422.6</ele>
        <time>2023-08-20T14:08:51Z</time>
      </trkpt>
      <trkpt lat="44.55329" lon="2.367">
        <ele>423.2</ele>
        <time>2023-08-20T14:08:52Z</time>
      </trkpt>
      <trkpt lat="44.55332" lon="2.36715">
        <ele>423.6</ele>
        <time>2023-08-20T14:08:53Z</time>
      </trkpt>
      <trkpt lat="44.55336" lon="2.3673">
        <ele>425.2</ele>
        <time>2023-08-20T14:08:54Z</time>
      </trkpt>
      <trkpt lat="44.55339" lon="2.36742">
        <ele>425.6</ele>
        <time>2023-08-20T14:08:55Z</time>
      </trkpt>
      <trkpt lat="44.55342" lon="2.3676">
        <ele>426.6</ele>
        <time>2023-08-20T14:08:56Z</time>
      </trkpt>
      <trkpt lat="44.55344" lon="2.36775">
        <ele>426.8</ele>
        <time>2023-08-20T14:08:57Z</time>
      </trkpt>
      <trkpt lat="44.55343" lon="2.36791">
        <ele>428</ele>
        <time>2023-08-20T14:08:58Z</time>
      </trkpt>
      <trkpt lat="44.55341" lon="2.36807">
        <ele>429.6</ele>
        <time>2023-08-20T14:08:59Z</time>
      </trkpt>
      <trkpt lat="44.55339" lon="2.3682">
        <ele>430</ele>
        <time>2023-08-20T14:09:00Z</time>
      </trkpt>
      <trkpt lat="44.55333" lon="2.36837">
        <ele>430.6</ele>
        <time>2023-08-20T14:09:01Z</time>
      </trkpt>
      <trkpt lat="44.55327" lon="2.36849">
        <ele>431.2</ele>
        <time>2023-08-20T14:09:02Z</time>
      </trkpt>
      <trkpt lat="44.55321" lon="2.3686">
        <ele>432.8</ele>
        <time>2023-08-20T14:09:03Z</time>
      </trkpt>
      <trkpt lat="44.55317" lon="2.36868">
        <ele>433.4</ele>
        <time>2023-08-20T14:09:04Z</time>
      </trkpt>
      <trkpt lat="44.55311" lon="2.36878">
        <ele>434.8</ele>
        <time>2023-08-20T14:09:05Z</time>
      </trkpt>
      <trkpt lat="44.55308" lon="2.36886">
        <ele>435.4</ele>
        <time>2023-08-20T14:09:06Z</time>
      </trkpt>
      <trkpt lat="44.55306" lon="2.36892">
        <ele>436.4</ele>
        <time>2023-08-20T14:09:07Z</time>
      </trkpt>
      <trkpt lat="44.55304" lon="2.36897">
        <ele>438</ele>
        <time>2023-08-20T14:09:08Z</time>
      </trkpt>
      <trkpt lat="44.55303" lon="2.369">
        <ele>438.4</ele>
        <time>2023-08-20T14:09:09Z</time>
      </trkpt>
      <trkpt lat="44.55301" lon="2.36905">
        <ele>439.6</ele>
        <time>2023-08-20T14:09:10Z</time>
      </trkpt>
      <trkpt lat="44.55296" lon="2.36911">
        <ele>440.2</ele>
        <time>2023-08-20T14:09:11Z</time>
      </trkpt>
      <trkpt lat="44.5529" lon="2.36917">
        <ele>441</ele>
        <time>2023-08-20T14:09:12Z</time>
      </trkpt>
      <trkpt lat="44.55283" lon="2.36922">
        <ele>441.2</ele>
        <time>2023-08-20T14:09:13Z</time>
      </trkpt>
      <trkpt lat="44.55277" lon="2.36927">
        <ele>441.8</ele>
        <time>2023-08-20T14:09:14Z</time>
      </trkpt>
      <trkpt lat="44.55269" lon="2.36933">
        <ele>442</ele>
        <time>2023-08-20T14:09:15Z</time>
      </trkpt>
      <trkpt lat="44.55259" lon="2.36939">
        <ele>442.2</ele>
        <time>2023-08-20T14:09:16Z</time>
      </trkpt>
      <trkpt lat="44.55247" lon="2.36946">
        <ele>442.6</ele>
        <time>2023-08-20T14:09:17Z</time>
      </trkpt>
      <trkpt lat="44.55236" lon="2.36952">
        <ele>442.8</ele>
        <time>2023-08-20T14:09:18Z</time>
      </trkpt>
      <trkpt lat="44.55226" lon="2.36956">
        <ele>443.2</ele>
        <time>2023-08-20T14:09:19Z</time>
      </trkpt>
      <trkpt lat="44.55213" lon="2.36961">
        <ele>443.4</ele>
        <time>2023-08-20T14:09:20Z</time>
      </trkpt>
      <trkpt lat="44.55199" lon="2.36965">
        <ele>443.6</ele>
        <time>2023-08-20T14:09:21Z</time>
      </trkpt>
      <trkpt lat="44.55183" lon="2.36969">
        <ele>443.6</ele>
        <time>2023-08-20T14:09:22Z</time>
      </trkpt>
      <trkpt lat="44.55169" lon="2.36972">
        <ele>443.8</ele>
        <time>2023-08-20T14:09:23Z</time>
      </trkpt>
      <trkpt lat="44.55158" lon="2.36974">
        <ele>443.8</ele>
        <time>2023-08-20T14:09:24Z</time>
      </trkpt>
      <trkpt lat="44.55142" lon="2.36979">
        <ele>443.8</ele>
        <time>2023-08-20T14:09:25Z</time>
      </trkpt>
      <trkpt lat="44.55131" lon="2.36983">
        <ele>443.8</ele>
        <time>2023-08-20T14:09:26Z</time>
      </trkpt>
      <trkpt lat="44.55114" lon="2.36989">
        <ele>443.8</ele>
        <time>2023-08-20T14:09:27Z</time>
      </trkpt>
      <trkpt lat="44.55099" lon="2.36995">
        <ele>443.8</ele>
        <time>2023-08-20T14:09:28Z</time>
      </trkpt>
      <trkpt lat="44.55087" lon="2.36999">
        <ele>443.6</ele>
        <time>2023-08-20T14:09:29Z</time>
      </trkpt>
      <trkpt lat="44.55072" lon="2.37006">
        <ele>443.4</ele>
        <time>2023-08-20T14:09:30Z</time>
      </trkpt>
      <trkpt lat="44.55057" lon="2.37012">
        <ele>443.2</ele>
        <time>2023-08-20T14:09:31Z</time>
      </trkpt>
      <trkpt lat="44.55038" lon="2.3702">
        <ele>443</ele>
        <time>2023-08-20T14:09:32Z</time>
      </trkpt>
      <trkpt lat="44.55023" lon="2.37028">
        <ele>442.6</ele>
        <time>2023-08-20T14:09:33Z</time>
      </trkpt>
      <trkpt lat="44.55011" lon="2.37034">
        <ele>442.2</ele>
        <time>2023-08-20T14:09:34Z</time>
      </trkpt>
      <trkpt lat="44.54993" lon="2.37043">
        <ele>442</ele>
        <time>2023-08-20T14:09:35Z</time>
      </trkpt>
      <trkpt lat="44.54981" lon="2.3705">
        <ele>442</ele>
        <time>2023-08-20T14:09:36Z</time>
      </trkpt>
      <trkpt lat="44.54964" lon="2.3706">
        <ele>441.2</ele>
        <time>2023-08-20T14:09:37Z</time>
      </trkpt>
      <trkpt lat="44.54951" lon="2.3707">
        <ele>441.2</ele>
        <time>2023-08-20T14:09:38Z</time>
      </trkpt>
      <trkpt lat="44.54938" lon="2.37078">
        <ele>440.2</ele>
        <time>2023-08-20T14:09:39Z</time>
      </trkpt>
      <trkpt lat="44.54927" lon="2.37082">
        <ele>440</ele>
        <time>2023-08-20T14:09:40Z</time>
      </trkpt>
      <trkpt lat="44.5491" lon="2.37086">
        <ele>439.4</ele>
        <time>2023-08-20T14:09:41Z</time>
      </trkpt>
      <trkpt lat="44.54896" lon="2.37086">
        <ele>439.4</ele>
        <time>2023-08-20T14:09:42Z</time>
      </trkpt>
      <trkpt lat="44.54882" lon="2.37083">
        <ele>439</ele>
        <time>2023-08-20T14:09:43Z</time>
      </trkpt>
      <trkpt lat="44.54868" lon="2.3708">
        <ele>437.6</ele>
        <time>2023-08-20T14:09:44Z</time>
      </trkpt>
      <trkpt lat="44.54858" lon="2.37077">
        <ele>437.4</ele>
        <time>2023-08-20T14:09:45Z</time>
      </trkpt>
      <trkpt lat="44.54845" lon="2.37074">
        <ele>437</ele>
        <time>2023-08-20T14:09:46Z</time>
      </trkpt>
      <trkpt lat="44.54829" lon="2.3707">
        <ele>437</ele>
        <time>2023-08-20T14:09:47Z</time>
      </trkpt>
      <trkpt lat="44.54816" lon="2.37066">
        <ele>436.8</ele>
        <time>2023-08-20T14:09:48Z</time>
      </trkpt>
      <trkpt lat="44.54803" lon="2.37061">
        <ele>436.8</ele>
        <time>2023-08-20T14:09:49Z</time>
      </trkpt>
      <trkpt lat="44.54794" lon="2.37055">
        <ele>436.8</ele>
        <time>2023-08-20T14:09:50Z</time>
      </trkpt>
      <trkpt lat="44.54783" lon="2.37045">
        <ele>436.8</ele>
        <time>2023-08-20T14:09:51Z</time>
      </trkpt>
      <trkpt lat="44.54772" lon="2.37033">
        <ele>437</ele>
        <time>2023-08-20T14:09:52Z</time>
      </trkpt>
      <trkpt lat="44.54763" lon="2.37022">
        <ele>437.2</ele>
        <time>2023-08-20T14:09:53Z</time>
      </trkpt>
      <trkpt lat="44.54755" lon="2.37011">
        <ele>437.6</ele>
        <time>2023-08-20T14:09:54Z</time>
      </trkpt>
      <trkpt lat="44.54748" lon="2.37002">
        <ele>438</ele>
        <time>2023-08-20T14:09:55Z</time>
      </trkpt>
      <trkpt lat="44.54739" lon="2.36992">
        <ele>438.2</ele>
        <time>2023-08-20T14:09:56Z</time>
      </trkpt>
      <trkpt lat="44.54727" lon="2.3698">
        <ele>438.8</ele>
        <time>2023-08-20T14:09:57Z</time>
      </trkpt>
      <trkpt lat="44.54717" lon="2.36971">
        <ele>439</ele>
        <time>2023-08-20T14:09:58Z</time>
      </trkpt>
      <trkpt lat="44.54697" lon="2.36958">
        <ele>440.2</ele>
        <time>2023-08-20T14:10:00Z</time>
      </trkpt>
      <trkpt lat="44.54675" lon="2.36945">
        <ele>441.4</ele>
        <time>2023-08-20T14:10:02Z</time>
      </trkpt>
      <trkpt lat="44.54662" lon="2.36941">
        <ele>441.8</ele>
        <time>2023-08-20T14:10:03Z</time>
      </trkpt>
      <trkpt lat="44.5465" lon="2.36941">
        <ele>442.4</ele>
        <time>2023-08-20T14:10:04Z</time>
      </trkpt>
      <trkpt lat="44.54639" lon="2.36943">
        <ele>443</ele>
        <time>2023-08-20T14:10:05Z</time>
      </trkpt>
      <trkpt lat="44.54627" lon="2.36947">
        <ele>443.6</ele>
        <time>2023-08-20T14:10:06Z</time>
      </trkpt>
      <trkpt lat="44.54616" lon="2.36951">
        <ele>443.6</ele>
        <time>2023-08-20T14:10:07Z</time>
      </trkpt>
      <trkpt lat="44.54605" lon="2.36955">
        <ele>443.8</ele>
        <time>2023-08-20T14:10:08Z</time>
      </trkpt>
      <trkpt lat="44.54594" lon="2.36959">
        <ele>443.8</ele>
        <time>2023-08-20T14:10:09Z</time>
      </trkpt>
      <trkpt lat="44.54583" lon="2.36961">
        <ele>443.8</ele>
        <time>2023-08-20T14:10:10Z</time>
      </trkpt>
      <trkpt lat="44.54572" lon="2.3696">
        <ele>443.4</ele>
        <time>2023-08-20T14:10:11Z</time>
      </trkpt>
      <trkpt lat="44.54561" lon="2.36958">
        <ele>442.8</ele>
        <time>2023-08-20T14:10:12Z</time>
      </trkpt>
      <trkpt lat="44.54551" lon="2.36953">
        <ele>442.4</ele>
        <time>2023-08-20T14:10:13Z</time>
      </trkpt>
      <trkpt lat="44.54541" lon="2.36949">
        <ele>442.4</ele>
        <time>2023-08-20T14:10:14Z</time>
      </trkpt>
      <trkpt lat="44.5453" lon="2.36946">
        <ele>442</ele>
        <time>2023-08-20T14:10:15Z</time>
      </trkpt>
      <trkpt lat="44.5452" lon="2.36945">
        <ele>442</ele>
        <time>2023-08-20T14:10:16Z</time>
      </trkpt>
      <trkpt lat="44.5451" lon="2.36946">
        <ele>441.6</ele>
        <time>2023-08-20T14:10:17Z</time>
      </trkpt>
      <trkpt lat="44.54499" lon="2.36947">
        <ele>441.2</ele>
        <time>2023-08-20T14:10:18Z</time>
      </trkpt>
      <trkpt lat="44.54489" lon="2.36948">
        <ele>441</ele>
        <time>2023-08-20T14:10:19Z</time>
      </trkpt>
      <trkpt lat="44.54479" lon="2.36949">
        <ele>440.4</ele>
        <time>2023-08-20T14:10:20Z</time>
      </trkpt>
      <trkpt lat="44.54469" lon="2.36948">
        <ele>440.2</ele>
        <time>2023-08-20T14:10:21Z</time>
      </trkpt>
      <trkpt lat="44.54461" lon="2.36945">
        <ele>439.8</ele>
        <time>2023-08-20T14:10:22Z</time>
      </trkpt>
      <trkpt lat="44.54454" lon="2.36941">
        <ele>439.6</ele>
        <time>2023-08-20T14:10:23Z</time>
      </trkpt>
      <trkpt lat="44.54448" lon="2.36936">
        <ele>438.8</ele>
        <time>2023-08-20T14:10:24Z</time>
      </trkpt>
      <trkpt lat="44.54444" lon="2.36932">
        <ele>438.4</ele>
        <time>2023-08-20T14:10:25Z</time>
      </trkpt>
      <trkpt lat="44.54441" lon="2.36928">
        <ele>438</ele>
        <time>2023-08-20T14:10:26Z</time>
      </trkpt>
      <trkpt lat="44.54438" lon="2.36923">
        <ele>437.6</ele>
        <time>2023-08-20T14:10:27Z</time>
      </trkpt>
      <trkpt lat="44.54435" lon="2.36917">
        <ele>437.4</ele>
        <time>2023-08-20T14:10:28Z</time>
      </trkpt>
      <trkpt lat="44.54423" lon="2.36887">
        <ele>437</ele>
        <time>2023-08-20T14:10:31Z</time>
      </trkpt>
      <trkpt lat="44.54417" lon="2.36876">
        <ele>437</ele>
        <time>2023-08-20T14:10:32Z</time>
      </trkpt>
      <trkpt lat="44.54401" lon="2.36853">
        <ele>437</ele>
        <time>2023-08-20T14:10:34Z</time>
      </trkpt>
      <trkpt lat="44.54364" lon="2.36809">
        <ele>438.2</ele>
        <time>2023-08-20T14:10:38Z</time>
      </trkpt>
      <trkpt lat="44.54357" lon="2.36797">
        <ele>438.6</ele>
        <time>2023-08-20T14:10:39Z</time>
      </trkpt>
      <trkpt lat="44.54351" lon="2.36782">
        <ele>439.2</ele>
        <time>2023-08-20T14:10:40Z</time>
      </trkpt>
      <trkpt lat="44.54347" lon="2.36767">
        <ele>439.6</ele>
        <time>2023-08-20T14:10:41Z</time>
      </trkpt>
      <trkpt lat="44.54344" lon="2.36751">
        <ele>440</ele>
        <time>2023-08-20T14:10:42Z</time>
      </trkpt>
      <trkpt lat="44.54342" lon="2.36734">
        <ele>440</ele>
        <time>2023-08-20T14:10:43Z</time>
      </trkpt>
      <trkpt lat="44.54341" lon="2.36717">
        <ele>440.2</ele>
        <time>2023-08-20T14:10:44Z</time>
      </trkpt>
      <trkpt lat="44.54342" lon="2.367">
        <ele>440.4</ele>
        <time>2023-08-20T14:10:45Z</time>
      </trkpt>
      <trkpt lat="44.54352" lon="2.36638">
        <ele>440.6</ele>
        <time>2023-08-20T14:10:49Z</time>
      </trkpt>
      <trkpt lat="44.54355" lon="2.36624">
        <ele>440.6</ele>
        <time>2023-08-20T14:10:50Z</time>
      </trkpt>
      <trkpt lat="44.54358" lon="2.3661">
        <ele>440.8</ele>
        <time>2023-08-20T14:10:51Z</time>
      </trkpt>
      <trkpt lat="44.54359" lon="2.36598">
        <ele>440.8</ele>
        <time>2023-08-20T14:10:52Z</time>
      </trkpt>
      <trkpt lat="44.54358" lon="2.36586">
        <ele>441.2</ele>
        <time>2023-08-20T14:10:53Z</time>
      </trkpt>
      <trkpt lat="44.54355" lon="2.36577">
        <ele>441.4</ele>
        <time>2023-08-20T14:10:54Z</time>
      </trkpt>
      <trkpt lat="44.5435" lon="2.36569">
        <ele>441.6</ele>
        <time>2023-08-20T14:10:55Z</time>
      </trkpt>
      <trkpt lat="44.54345" lon="2.36563">
        <ele>442.4</ele>
        <time>2023-08-20T14:10:56Z</time>
      </trkpt>
      <trkpt lat="44.54338" lon="2.36556">
        <ele>442.4</ele>
        <time>2023-08-20T14:10:57Z</time>
      </trkpt>
      <trkpt lat="44.54332" lon="2.36548">
        <ele>442.8</ele>
        <time>2023-08-20T14:10:58Z</time>
      </trkpt>
      <trkpt lat="44.54326" lon="2.3654">
        <ele>442.8</ele>
        <time>2023-08-20T14:10:59Z</time>
      </trkpt>
      <trkpt lat="44.54321" lon="2.3653">
        <ele>443</ele>
        <time>2023-08-20T14:11:00Z</time>
      </trkpt>
      <trkpt lat="44.54315" lon="2.36518">
        <ele>443</ele>
        <time>2023-08-20T14:11:01Z</time>
      </trkpt>
      <trkpt lat="44.54309" lon="2.36505">
        <ele>443.2</ele>
        <time>2023-08-20T14:11:02Z</time>
      </trkpt>
      <trkpt lat="44.54304" lon="2.36491">
        <ele>443.2</ele>
        <time>2023-08-20T14:11:03Z</time>
      </trkpt>
      <trkpt lat="44.54298" lon="2.36476">
        <ele>443.4</ele>
        <time>2023-08-20T14:11:04Z</time>
      </trkpt>
      <trkpt lat="44.54291" lon="2.36461">
        <ele>443.4</ele>
        <time>2023-08-20T14:11:05Z</time>
      </trkpt>
      <trkpt lat="44.54284" lon="2.36444">
        <ele>443.4</ele>
        <time>2023-08-20T14:11:06Z</time>
      </trkpt>
      <trkpt lat="44.54277" lon="2.36427">
        <ele>443.6</ele>
        <time>2023-08-20T14:11:07Z</time>
      </trkpt>
      <trkpt lat="44.54269" lon="2.3641">
        <ele>443.6</ele>
        <time>2023-08-20T14:11:08Z</time>
      </trkpt>
      <trkpt lat="44.54261" lon="2.36394">
        <ele>443.8</ele>
        <time>2023-08-20T14:11:09Z</time>
      </trkpt>
      <trkpt lat="44.54252" lon="2.3638">
        <ele>444</ele>
        <time>2023-08-20T14:11:10Z</time>
      </trkpt>
      <trkpt lat="44.54243" lon="2.36366">
        <ele>444</ele>
        <time>2023-08-20T14:11:11Z</time>
      </trkpt>
      <trkpt lat="44.54233" lon="2.36354">
        <ele>443.8</ele>
        <time>2023-08-20T14:11:12Z</time>
      </trkpt>
      <trkpt lat="44.54224" lon="2.36341">
        <ele>443.8</ele>
        <time>2023-08-20T14:11:13Z</time>
      </trkpt>
      <trkpt lat="44.54215" lon="2.36327">
        <ele>443.8</ele>
        <time>2023-08-20T14:11:14Z</time>
      </trkpt>
      <trkpt lat="44.54206" lon="2.36313">
        <ele>443.8</ele>
        <time>2023-08-20T14:11:15Z</time>
      </trkpt>
      <trkpt lat="44.54198" lon="2.36299">
        <ele>443.8</ele>
        <time>2023-08-20T14:11:16Z</time>
      </trkpt>
      <trkpt lat="44.54189" lon="2.36286">
        <ele>443.4</ele>
        <time>2023-08-20T14:11:17Z</time>
      </trkpt>
      <trkpt lat="44.5418" lon="2.36273">
        <ele>442.8</ele>
        <time>2023-08-20T14:11:18Z</time>
      </trkpt>
      <trkpt lat="44.5417" lon="2.36261">
        <ele>442.6</ele>
        <time>2023-08-20T14:11:19Z</time>
      </trkpt>
      <trkpt lat="44.54161" lon="2.36249">
        <ele>442.2</ele>
        <time>2023-08-20T14:11:20Z</time>
      </trkpt>
      <trkpt lat="44.54151" lon="2.36238">
        <ele>441.8</ele>
        <time>2023-08-20T14:11:21Z</time>
      </trkpt>
      <trkpt lat="44.54141" lon="2.36228">
        <ele>441.4</ele>
        <time>2023-08-20T14:11:22Z</time>
      </trkpt>
      <trkpt lat="44.54131" lon="2.36217">
        <ele>440.6</ele>
        <time>2023-08-20T14:11:23Z</time>
      </trkpt>
      <trkpt lat="44.54121" lon="2.36206">
        <ele>440.2</ele>
        <time>2023-08-20T14:11:24Z</time>
      </trkpt>
      <trkpt lat="44.54112" lon="2.36194">
        <ele>439.6</ele>
        <time>2023-08-20T14:11:25Z</time>
      </trkpt>
      <trkpt lat="44.54104" lon="2.36182">
        <ele>439.2</ele>
        <time>2023-08-20T14:11:26Z</time>
      </trkpt>
      <trkpt lat="44.54097" lon="2.36168">
        <ele>438.4</ele>
        <time>2023-08-20T14:11:27Z</time>
      </trkpt>
      <trkpt lat="44.54091" lon="2.36154">
        <ele>437.6</ele>
        <time>2023-08-20T14:11:28Z</time>
      </trkpt>
      <trkpt lat="44.54087" lon="2.3614">
        <ele>436.6</ele>
        <time>2023-08-20T14:11:29Z</time>
      </trkpt>
      <trkpt lat="44.54083" lon="2.36129">
        <ele>436</ele>
        <time>2023-08-20T14:11:30Z</time>
      </trkpt>
      <trkpt lat="44.54079" lon="2.36121">
        <ele>435.4</ele>
        <time>2023-08-20T14:11:31Z</time>
      </trkpt>
      <trkpt lat="44.54073" lon="2.36117">
        <ele>434.4</ele>
        <time>2023-08-20T14:11:32Z</time>
      </trkpt>
      <trkpt lat="44.54065" lon="2.36118">
        <ele>434</ele>
        <time>2023-08-20T14:11:33Z</time>
      </trkpt>
      <trkpt lat="44.54057" lon="2.36121">
        <ele>432.8</ele>
        <time>2023-08-20T14:11:34Z</time>
      </trkpt>
      <trkpt lat="44.54035" lon="2.36131">
        <ele>431</ele>
        <time>2023-08-20T14:11:36Z</time>
      </trkpt>
      <trkpt lat="44.54011" lon="2.36133">
        <ele>429.6</ele>
        <time>2023-08-20T14:11:38Z</time>
      </trkpt>
      <trkpt lat="44.54" lon="2.36131">
        <ele>428.8</ele>
        <time>2023-08-20T14:11:39Z</time>
      </trkpt>
      <trkpt lat="44.53988" lon="2.36125">
        <ele>428.2</ele>
        <time>2023-08-20T14:11:40Z</time>
      </trkpt>
      <trkpt lat="44.53977" lon="2.36118">
        <ele>427.4</ele>
        <time>2023-08-20T14:11:41Z</time>
      </trkpt>
      <trkpt lat="44.53967" lon="2.3611">
        <ele>427.2</ele>
        <time>2023-08-20T14:11:42Z</time>
      </trkpt>
      <trkpt lat="44.53958" lon="2.36101">
        <ele>426.8</ele>
        <time>2023-08-20T14:11:43Z</time>
      </trkpt>
      <trkpt lat="44.53951" lon="2.36091">
        <ele>426.6</ele>
        <time>2023-08-20T14:11:44Z</time>
      </trkpt>
      <trkpt lat="44.53946" lon="2.36081">
        <ele>426.2</ele>
        <time>2023-08-20T14:11:45Z</time>
      </trkpt>
      <trkpt lat="44.53946" lon="2.36069">
        <ele>425.8</ele>
        <time>2023-08-20T14:11:46Z</time>
      </trkpt>
      <trkpt lat="44.53946" lon="2.36056">
        <ele>425.4</ele>
        <time>2023-08-20T14:11:47Z</time>
      </trkpt>
      <trkpt lat="44.53947" lon="2.36041">
        <ele>425.4</ele>
        <time>2023-08-20T14:11:48Z</time>
      </trkpt>
      <trkpt lat="44.53951" lon="2.35997">
        <ele>425.2</ele>
        <time>2023-08-20T14:11:51Z</time>
      </trkpt>
      <trkpt lat="44.53955" lon="2.35929">
        <ele>425.8</ele>
        <time>2023-08-20T14:11:55Z</time>
      </trkpt>
      <trkpt lat="44.53954" lon="2.35915">
        <ele>426</ele>
        <time>2023-08-20T14:11:56Z</time>
      </trkpt>
      <trkpt lat="44.5395" lon="2.35902">
        <ele>426.8</ele>
        <time>2023-08-20T14:11:57Z</time>
      </trkpt>
      <trkpt lat="44.53944" lon="2.35896">
        <ele>427</ele>
        <time>2023-08-20T14:11:58Z</time>
      </trkpt>
      <trkpt lat="44.53937" lon="2.35892">
        <ele>427.4</ele>
        <time>2023-08-20T14:11:59Z</time>
      </trkpt>
      <trkpt lat="44.53929" lon="2.35892">
        <ele>427.6</ele>
        <time>2023-08-20T14:12:00Z</time>
      </trkpt>
      <trkpt lat="44.53919" lon="2.35897">
        <ele>427.8</ele>
        <time>2023-08-20T14:12:01Z</time>
      </trkpt>
      <trkpt lat="44.53908" lon="2.35903">
        <ele>428</ele>
        <time>2023-08-20T14:12:02Z</time>
      </trkpt>
      <trkpt lat="44.53897" lon="2.3591">
        <ele>428.2</ele>
        <time>2023-08-20T14:12:03Z</time>
      </trkpt>
      <trkpt lat="44.53885" lon="2.35917">
        <ele>428.4</ele>
        <time>2023-08-20T14:12:04Z</time>
      </trkpt>
      <trkpt lat="44.53872" lon="2.35925">
        <ele>429</ele>
        <time>2023-08-20T14:12:05Z</time>
      </trkpt>
      <trkpt lat="44.5386" lon="2.35933">
        <ele>429.2</ele>
        <time>2023-08-20T14:12:06Z</time>
      </trkpt>
      <trkpt lat="44.53847" lon="2.35942">
        <ele>429.6</ele>
        <time>2023-08-20T14:12:07Z</time>
      </trkpt>
      <trkpt lat="44.5381" lon="2.35969">
        <ele>430.8</ele>
        <time>2023-08-20T14:12:10Z</time>
      </trkpt>
      <trkpt lat="44.53798" lon="2.35979">
        <ele>431</ele>
        <time>2023-08-20T14:12:11Z</time>
      </trkpt>
      <trkpt lat="44.53768" lon="2.3601">
        <ele>431.4</ele>
        <time>2023-08-20T14:12:14Z</time>
      </trkpt>
      <trkpt lat="44.5376" lon="2.36019">
        <ele>431.4</ele>
        <time>2023-08-20T14:12:15Z</time>
      </trkpt>
      <trkpt lat="44.53752" lon="2.36028">
        <ele>431.4</ele>
        <time>2023-08-20T14:12:16Z</time>
      </trkpt>
      <trkpt lat="44.53744" lon="2.36035">
        <ele>431</ele>
        <time>2023-08-20T14:12:17Z</time>
      </trkpt>
      <trkpt lat="44.53735" lon="2.36041">
        <ele>431</ele>
        <time>2023-08-20T14:12:18Z</time>
      </trkpt>
      <trkpt lat="44.53725" lon="2.36043">
        <ele>430.8</ele>
        <time>2023-08-20T14:12:19Z</time>
      </trkpt>
      <trkpt lat="44.53714" lon="2.3604">
        <ele>430.4</ele>
        <time>2023-08-20T14:12:20Z</time>
      </trkpt>
      <trkpt lat="44.53703" lon="2.36035">
        <ele>429.8</ele>
        <time>2023-08-20T14:12:21Z</time>
      </trkpt>
      <trkpt lat="44.53693" lon="2.36028">
        <ele>429.6</ele>
        <time>2023-08-20T14:12:22Z</time>
      </trkpt>
      <trkpt lat="44.53682" lon="2.36021">
        <ele>429.4</ele>
        <time>2023-08-20T14:12:23Z</time>
      </trkpt>
      <trkpt lat="44.53671" lon="2.36014">
        <ele>429.2</ele>
        <time>2023-08-20T14:12:24Z</time>
      </trkpt>
      <trkpt lat="44.5366" lon="2.36007">
        <ele>429</ele>
        <time>2023-08-20T14:12:25Z</time>
      </trkpt>
      <trkpt lat="44.53627" lon="2.35985">
        <ele>428.8</ele>
        <time>2023-08-20T14:12:28Z</time>
      </trkpt>
      <trkpt lat="44.53605" lon="2.35971">
        <ele>428.8</ele>
        <time>2023-08-20T14:12:30Z</time>
      </trkpt>
      <trkpt lat="44.53594" lon="2.35964">
        <ele>428.8</ele>
        <time>2023-08-20T14:12:31Z</time>
      </trkpt>
      <trkpt lat="44.53535" lon="2.35926">
        <ele>429.4</ele>
        <time>2023-08-20T14:12:36Z</time>
      </trkpt>
      <trkpt lat="44.53511" lon="2.35916">
        <ele>430.2</ele>
        <time>2023-08-20T14:12:38Z</time>
      </trkpt>
      <trkpt lat="44.53501" lon="2.35911">
        <ele>430.6</ele>
        <time>2023-08-20T14:12:39Z</time>
      </trkpt>
      <trkpt lat="44.53492" lon="2.35903">
        <ele>430.8</ele>
        <time>2023-08-20T14:12:40Z</time>
      </trkpt>
      <trkpt lat="44.53484" lon="2.35894">
        <ele>431.6</ele>
        <time>2023-08-20T14:12:41Z</time>
      </trkpt>
      <trkpt lat="44.53475" lon="2.35885">
        <ele>432</ele>
        <time>2023-08-20T14:12:42Z</time>
      </trkpt>
      <trkpt lat="44.53465" lon="2.35877">
        <ele>432.2</ele>
        <time>2023-08-20T14:12:43Z</time>
      </trkpt>
      <trkpt lat="44.53445" lon="2.35864">
        <ele>432.2</ele>
        <time>2023-08-20T14:12:45Z</time>
      </trkpt>
      <trkpt lat="44.53431" lon="2.35856">
        <ele>432.8</ele>
        <time>2023-08-20T14:12:46Z</time>
      </trkpt>
      <trkpt lat="44.53406" lon="2.35843">
        <ele>433.8</ele>
        <time>2023-08-20T14:12:48Z</time>
      </trkpt>
      <trkpt lat="44.53396" lon="2.35838">
        <ele>434</ele>
        <time>2023-08-20T14:12:49Z</time>
      </trkpt>
      <trkpt lat="44.53384" lon="2.35831">
        <ele>435.2</ele>
        <time>2023-08-20T14:12:50Z</time>
      </trkpt>
      <trkpt lat="44.5337" lon="2.35823">
        <ele>435.8</ele>
        <time>2023-08-20T14:12:51Z</time>
      </trkpt>
      <trkpt lat="44.53358" lon="2.35816">
        <ele>436</ele>
        <time>2023-08-20T14:12:52Z</time>
      </trkpt>
      <trkpt lat="44.53347" lon="2.35809">
        <ele>436.4</ele>
        <time>2023-08-20T14:12:53Z</time>
      </trkpt>
      <trkpt lat="44.53339" lon="2.35804">
        <ele>436.6</ele>
        <time>2023-08-20T14:12:54Z</time>
      </trkpt>
      <trkpt lat="44.53329" lon="2.35797">
        <ele>436.8</ele>
        <time>2023-08-20T14:12:55Z</time>
      </trkpt>
      <trkpt lat="44.53319" lon="2.35789">
        <ele>437</ele>
        <time>2023-08-20T14:12:56Z</time>
      </trkpt>
      <trkpt lat="44.53308" lon="2.35778">
        <ele>437</ele>
        <time>2023-08-20T14:12:57Z</time>
      </trkpt>
      <trkpt lat="44.53301" lon="2.35766">
        <ele>437</ele>
        <time>2023-08-20T14:12:58Z</time>
      </trkpt>
      <trkpt lat="44.53297" lon="2.35756">
        <ele>437</ele>
        <time>2023-08-20T14:12:59Z</time>
      </trkpt>
      <trkpt lat="44.53292" lon="2.35744">
        <ele>436.8</ele>
        <time>2023-08-20T14:13:00Z</time>
      </trkpt>
      <trkpt lat="44.53286" lon="2.35735">
        <ele>436.8</ele>
        <time>2023-08-20T14:13:01Z</time>
      </trkpt>
      <trkpt lat="44.53277" lon="2.35727">
        <ele>436.6</ele>
        <time>2023-08-20T14:13:02Z</time>
      </trkpt>
      <trkpt lat="44.53268" lon="2.35723">
        <ele>436.6</ele>
        <time>2023-08-20T14:13:03Z</time>
      </trkpt>
      <trkpt lat="44.53259" lon="2.3572">
        <ele>436</ele>
        <time>2023-08-20T14:13:04Z</time>
      </trkpt>
      <trkpt lat="44.53252" lon="2.35716">
        <ele>435.6</ele>
        <time>2023-08-20T14:13:05Z</time>
      </trkpt>
      <trkpt lat="44.53244" lon="2.35711">
        <ele>434</ele>
        <time>2023-08-20T14:13:06Z</time>
      </trkpt>
      <trkpt lat="44.53235" lon="2.35701">
        <ele>433.6</ele>
        <time>2023-08-20T14:13:07Z</time>
      </trkpt>
      <trkpt lat="44.53229" lon="2.35692">
        <ele>432.4</ele>
        <time>2023-08-20T14:13:08Z</time>
      </trkpt>
      <trkpt lat="44.53225" lon="2.3568">
        <ele>431.8</ele>
        <time>2023-08-20T14:13:09Z</time>
      </trkpt>
      <trkpt lat="44.53223" lon="2.3567">
        <ele>431.4</ele>
        <time>2023-08-20T14:13:10Z</time>
      </trkpt>
      <trkpt lat="44.5322" lon="2.35656">
        <ele>430.8</ele>
        <time>2023-08-20T14:13:11Z</time>
      </trkpt>
      <trkpt lat="44.53217" lon="2.35638">
        <ele>430.2</ele>
        <time>2023-08-20T14:13:12Z</time>
      </trkpt>
      <trkpt lat="44.53215" lon="2.35621">
        <ele>428.8</ele>
        <time>2023-08-20T14:13:13Z</time>
      </trkpt>
      <trkpt lat="44.53212" lon="2.35604">
        <ele>428.6</ele>
        <time>2023-08-20T14:13:14Z</time>
      </trkpt>
      <trkpt lat="44.53209" lon="2.35589">
        <ele>427.6</ele>
        <time>2023-08-20T14:13:15Z</time>
      </trkpt>
      <trkpt lat="44.53203" lon="2.35549">
        <ele>426.4</ele>
        <time>2023-08-20T14:13:17Z</time>
      </trkpt>
      <trkpt lat="44.532" lon="2.35531">
        <ele>425.6</ele>
        <time>2023-08-20T14:13:18Z</time>
      </trkpt>
      <trkpt lat="44.53195" lon="2.35514">
        <ele>425.4</ele>
        <time>2023-08-20T14:13:19Z</time>
      </trkpt>
      <trkpt lat="44.53184" lon="2.35485">
        <ele>424.2</ele>
        <time>2023-08-20T14:13:21Z</time>
      </trkpt>
      <trkpt lat="44.53177" lon="2.35472">
        <ele>423.2</ele>
        <time>2023-08-20T14:13:22Z</time>
      </trkpt>
      <trkpt lat="44.53168" lon="2.35457">
        <ele>422.6</ele>
        <time>2023-08-20T14:13:23Z</time>
      </trkpt>
      <trkpt lat="44.53161" lon="2.35445">
        <ele>421.8</ele>
        <time>2023-08-20T14:13:24Z</time>
      </trkpt>
      <trkpt lat="44.53155" lon="2.35433">
        <ele>421</ele>
        <time>2023-08-20T14:13:25Z</time>
      </trkpt>
      <trkpt lat="44.53149" lon="2.35421">
        <ele>419.4</ele>
        <time>2023-08-20T14:13:26Z</time>
      </trkpt>
      <trkpt lat="44.53144" lon="2.35408">
        <ele>418.6</ele>
        <time>2023-08-20T14:13:27Z</time>
      </trkpt>
      <trkpt lat="44.53141" lon="2.35395">
        <ele>418</ele>
        <time>2023-08-20T14:13:28Z</time>
      </trkpt>
      <trkpt lat="44.53141" lon="2.35383">
        <ele>416.4</ele>
        <time>2023-08-20T14:13:29Z</time>
      </trkpt>
      <trkpt lat="44.53141" lon="2.35369">
        <ele>415.4</ele>
        <time>2023-08-20T14:13:30Z</time>
      </trkpt>
      <trkpt lat="44.53143" lon="2.35355">
        <ele>414.2</ele>
        <time>2023-08-20T14:13:31Z</time>
      </trkpt>
      <trkpt lat="44.53145" lon="2.35343">
        <ele>413.6</ele>
        <time>2023-08-20T14:13:32Z</time>
      </trkpt>
      <trkpt lat="44.5315" lon="2.35323">
        <ele>412.6</ele>
        <time>2023-08-20T14:13:33Z</time>
      </trkpt>
      <trkpt lat="44.53155" lon="2.35307">
        <ele>412</ele>
        <time>2023-08-20T14:13:34Z</time>
      </trkpt>
      <trkpt lat="44.5316" lon="2.35291">
        <ele>411.2</ele>
        <time>2023-08-20T14:13:35Z</time>
      </trkpt>
      <trkpt lat="44.53163" lon="2.35278">
        <ele>410</ele>
        <time>2023-08-20T14:13:36Z</time>
      </trkpt>
      <trkpt lat="44.53164" lon="2.35263">
        <ele>409.8</ele>
        <time>2023-08-20T14:13:37Z</time>
      </trkpt>
      <trkpt lat="44.53165" lon="2.35243">
        <ele>408.8</ele>
        <time>2023-08-20T14:13:38Z</time>
      </trkpt>
      <trkpt lat="44.53166" lon="2.35227">
        <ele>408.2</ele>
        <time>2023-08-20T14:13:39Z</time>
      </trkpt>
      <trkpt lat="44.53166" lon="2.35212">
        <ele>407.4</ele>
        <time>2023-08-20T14:13:40Z</time>
      </trkpt>
      <trkpt lat="44.53165" lon="2.35196">
        <ele>407</ele>
        <time>2023-08-20T14:13:41Z</time>
      </trkpt>
      <trkpt lat="44.53163" lon="2.35183">
        <ele>406.2</ele>
        <time>2023-08-20T14:13:42Z</time>
      </trkpt>
      <trkpt lat="44.53159" lon="2.35172">
        <ele>405.6</ele>
        <time>2023-08-20T14:13:43Z</time>
      </trkpt>
      <trkpt lat="44.53153" lon="2.35164">
        <ele>405</ele>
        <time>2023-08-20T14:13:44Z</time>
      </trkpt>
      <trkpt lat="44.53145" lon="2.35158">
        <ele>404</ele>
        <time>2023-08-20T14:13:45Z</time>
      </trkpt>
      <trkpt lat="44.53137" lon="2.35155">
        <ele>403.6</ele>
        <time>2023-08-20T14:13:46Z</time>
      </trkpt>
      <trkpt lat="44.53129" lon="2.35154">
        <ele>402.2</ele>
        <time>2023-08-20T14:13:47Z</time>
      </trkpt>
      <trkpt lat="44.53118" lon="2.35155">
        <ele>401.8</ele>
        <time>2023-08-20T14:13:48Z</time>
      </trkpt>
      <trkpt lat="44.53107" lon="2.35156">
        <ele>400.4</ele>
        <time>2023-08-20T14:13:49Z</time>
      </trkpt>
      <trkpt lat="44.53097" lon="2.35158">
        <ele>400.2</ele>
        <time>2023-08-20T14:13:50Z</time>
      </trkpt>
      <trkpt lat="44.53085" lon="2.35162">
        <ele>399.2</ele>
        <time>2023-08-20T14:13:51Z</time>
      </trkpt>
      <trkpt lat="44.53063" lon="2.35173">
        <ele>397.6</ele>
        <time>2023-08-20T14:13:53Z</time>
      </trkpt>
      <trkpt lat="44.53041" lon="2.35187">
        <ele>396.6</ele>
        <time>2023-08-20T14:13:55Z</time>
      </trkpt>
      <trkpt lat="44.53031" lon="2.35195">
        <ele>396</ele>
        <time>2023-08-20T14:13:56Z</time>
      </trkpt>
      <trkpt lat="44.53022" lon="2.35201">
        <ele>395.4</ele>
        <time>2023-08-20T14:13:57Z</time>
      </trkpt>
      <trkpt lat="44.52997" lon="2.35211">
        <ele>394</ele>
        <time>2023-08-20T14:13:59Z</time>
      </trkpt>
      <trkpt lat="44.52975" lon="2.35221">
        <ele>392.6</ele>
        <time>2023-08-20T14:14:01Z</time>
      </trkpt>
      <trkpt lat="44.52964" lon="2.35228">
        <ele>391.4</ele>
        <time>2023-08-20T14:14:02Z</time>
      </trkpt>
      <trkpt lat="44.52953" lon="2.35234">
        <ele>389.8</ele>
        <time>2023-08-20T14:14:03Z</time>
      </trkpt>
      <trkpt lat="44.5293" lon="2.35242">
        <ele>388.2</ele>
        <time>2023-08-20T14:14:05Z</time>
      </trkpt>
      <trkpt lat="44.52919" lon="2.35244">
        <ele>387.8</ele>
        <time>2023-08-20T14:14:06Z</time>
      </trkpt>
      <trkpt lat="44.52909" lon="2.35246">
        <ele>386.6</ele>
        <time>2023-08-20T14:14:07Z</time>
      </trkpt>
      <trkpt lat="44.52898" lon="2.35248">
        <ele>386</ele>
        <time>2023-08-20T14:14:08Z</time>
      </trkpt>
      <trkpt lat="44.52888" lon="2.3525">
        <ele>384.8</ele>
        <time>2023-08-20T14:14:09Z</time>
      </trkpt>
      <trkpt lat="44.52879" lon="2.35254">
        <ele>384.4</ele>
        <time>2023-08-20T14:14:10Z</time>
      </trkpt>
      <trkpt lat="44.52871" lon="2.35259">
        <ele>383.2</ele>
        <time>2023-08-20T14:14:11Z</time>
      </trkpt>
      <trkpt lat="44.52862" lon="2.35263">
        <ele>382</ele>
        <time>2023-08-20T14:14:12Z</time>
      </trkpt>
      <trkpt lat="44.52855" lon="2.35267">
        <ele>381.6</ele>
        <time>2023-08-20T14:14:13Z</time>
      </trkpt>
      <trkpt lat="44.52849" lon="2.3527">
        <ele>381</ele>
        <time>2023-08-20T14:14:14Z</time>
      </trkpt>
      <trkpt lat="44.52844" lon="2.35271">
        <ele>380.4</ele>
        <time>2023-08-20T14:14:15Z</time>
      </trkpt>
      <trkpt lat="44.5284" lon="2.35267">
        <ele>379.4</ele>
        <time>2023-08-20T14:14:16Z</time>
      </trkpt>
      <trkpt lat="44.52839" lon="2.35262">
        <ele>378.8</ele>
        <time>2023-08-20T14:14:17Z</time>
      </trkpt>
      <trkpt lat="44.5284" lon="2.35257">
        <ele>377.6</ele>
        <time>2023-08-20T14:14:18Z</time>
      </trkpt>
      <trkpt lat="44.52844" lon="2.35253">
        <ele>377.2</ele>
        <time>2023-08-20T14:14:19Z</time>
      </trkpt>
      <trkpt lat="44.52849" lon="2.3525">
        <ele>376</ele>
        <time>2023-08-20T14:14:20Z</time>
      </trkpt>
      <trkpt lat="44.52857" lon="2.35245">
        <ele>375</ele>
        <time>2023-08-20T14:14:21Z</time>
      </trkpt>
      <trkpt lat="44.52866" lon="2.35238">
        <ele>374.6</ele>
        <time>2023-08-20T14:14:22Z</time>
      </trkpt>
      <trkpt lat="44.52876" lon="2.35229">
        <ele>374</ele>
        <time>2023-08-20T14:14:23Z</time>
      </trkpt>
      <trkpt lat="44.52899" lon="2.35208">
        <ele>373.4</ele>
        <time>2023-08-20T14:14:25Z</time>
      </trkpt>
      <trkpt lat="44.52933" lon="2.3518">
        <ele>372.8</ele>
        <time>2023-08-20T14:14:28Z</time>
      </trkpt>
      <trkpt lat="44.52955" lon="2.35159">
        <ele>371.4</ele>
        <time>2023-08-20T14:14:30Z</time>
      </trkpt>
      <trkpt lat="44.52975" lon="2.35136">
        <ele>370.2</ele>
        <time>2023-08-20T14:14:32Z</time>
      </trkpt>
      <trkpt lat="44.52995" lon="2.35112">
        <ele>368.8</ele>
        <time>2023-08-20T14:14:34Z</time>
      </trkpt>
      <trkpt lat="44.53014" lon="2.35087">
        <ele>367.6</ele>
        <time>2023-08-20T14:14:36Z</time>
      </trkpt>
      <trkpt lat="44.53032" lon="2.35063">
        <ele>365.8</ele>
        <time>2023-08-20T14:14:38Z</time>
      </trkpt>
      <trkpt lat="44.53038" lon="2.35048">
        <ele>364.4</ele>
        <time>2023-08-20T14:14:39Z</time>
      </trkpt>
      <trkpt lat="44.53042" lon="2.35032">
        <ele>363.8</ele>
        <time>2023-08-20T14:14:40Z</time>
      </trkpt>
      <trkpt lat="44.53042" lon="2.35015">
        <ele>362.8</ele>
        <time>2023-08-20T14:14:41Z</time>
      </trkpt>
      <trkpt lat="44.53041" lon="2.34999">
        <ele>362.2</ele>
        <time>2023-08-20T14:14:42Z</time>
      </trkpt>
      <trkpt lat="44.53041" lon="2.34984">
        <ele>361.4</ele>
        <time>2023-08-20T14:14:43Z</time>
      </trkpt>
      <trkpt lat="44.53041" lon="2.34971">
        <ele>361</ele>
        <time>2023-08-20T14:14:44Z</time>
      </trkpt>
      <trkpt lat="44.53043" lon="2.3496">
        <ele>359</ele>
        <time>2023-08-20T14:14:45Z</time>
      </trkpt>
      <trkpt lat="44.53047" lon="2.34951">
        <ele>358.4</ele>
        <time>2023-08-20T14:14:46Z</time>
      </trkpt>
      <trkpt lat="44.53052" lon="2.34945">
        <ele>357</ele>
        <time>2023-08-20T14:14:47Z</time>
      </trkpt>
      <trkpt lat="44.53058" lon="2.34938">
        <ele>355.8</ele>
        <time>2023-08-20T14:14:48Z</time>
      </trkpt>
      <trkpt lat="44.53065" lon="2.3493">
        <ele>355.2</ele>
        <time>2023-08-20T14:14:49Z</time>
      </trkpt>
      <trkpt lat="44.5307" lon="2.34921">
        <ele>353.8</ele>
        <time>2023-08-20T14:14:50Z</time>
      </trkpt>
      <trkpt lat="44.53073" lon="2.3491">
        <ele>353.4</ele>
        <time>2023-08-20T14:14:51Z</time>
      </trkpt>
      <trkpt lat="44.53075" lon="2.349">
        <ele>352.6</ele>
        <time>2023-08-20T14:14:52Z</time>
      </trkpt>
      <trkpt lat="44.53075" lon="2.34888">
        <ele>352.2</ele>
        <time>2023-08-20T14:14:53Z</time>
      </trkpt>
      <trkpt lat="44.53073" lon="2.34876">
        <ele>351.2</ele>
        <time>2023-08-20T14:14:54Z</time>
      </trkpt>
      <trkpt lat="44.53071" lon="2.34863">
        <ele>350.8</ele>
        <time>2023-08-20T14:14:55Z</time>
      </trkpt>
      <trkpt lat="44.53068" lon="2.34852">
        <ele>349.8</ele>
        <time>2023-08-20T14:14:56Z</time>
      </trkpt>
      <trkpt lat="44.53064" lon="2.34842">
        <ele>349.2</ele>
        <time>2023-08-20T14:14:57Z</time>
      </trkpt>
      <trkpt lat="44.53059" lon="2.34833">
        <ele>348.8</ele>
        <time>2023-08-20T14:14:58Z</time>
      </trkpt>
      <trkpt lat="44.53053" lon="2.34825">
        <ele>348.4</ele>
        <time>2023-08-20T14:14:59Z</time>
      </trkpt>
      <trkpt lat="44.53045" lon="2.34818">
        <ele>348.2</ele>
        <time>2023-08-20T14:15:00Z</time>
      </trkpt>
      <trkpt lat="44.53037" lon="2.34811">
        <ele>347.4</ele>
        <time>2023-08-20T14:15:01Z</time>
      </trkpt>
      <trkpt lat="44.53029" lon="2.34803">
        <ele>347</ele>
        <time>2023-08-20T14:15:02Z</time>
      </trkpt>
      <trkpt lat="44.53015" lon="2.34782">
        <ele>346.4</ele>
        <time>2023-08-20T14:15:04Z</time>
      </trkpt>
      <trkpt lat="44.53005" lon="2.34757">
        <ele>345.8</ele>
        <time>2023-08-20T14:15:06Z</time>
      </trkpt>
      <trkpt lat="44.53001" lon="2.34744">
        <ele>345.8</ele>
        <time>2023-08-20T14:15:07Z</time>
      </trkpt>
      <trkpt lat="44.52997" lon="2.3473">
        <ele>345</ele>
        <time>2023-08-20T14:15:08Z</time>
      </trkpt>
      <trkpt lat="44.52993" lon="2.34718">
        <ele>344.8</ele>
        <time>2023-08-20T14:15:09Z</time>
      </trkpt>
      <trkpt lat="44.52982" lon="2.34681">
        <ele>343.6</ele>
        <time>2023-08-20T14:15:12Z</time>
      </trkpt>
      <trkpt lat="44.52971" lon="2.34657">
        <ele>342.6</ele>
        <time>2023-08-20T14:15:14Z</time>
      </trkpt>
      <trkpt lat="44.52964" lon="2.34645">
        <ele>342</ele>
        <time>2023-08-20T14:15:15Z</time>
      </trkpt>
      <trkpt lat="44.5294" lon="2.34608">
        <ele>341</ele>
        <time>2023-08-20T14:15:18Z</time>
      </trkpt>
      <trkpt lat="44.52922" lon="2.34585">
        <ele>340.2</ele>
        <time>2023-08-20T14:15:20Z</time>
      </trkpt>
      <trkpt lat="44.52916" lon="2.34571">
        <ele>339.8</ele>
        <time>2023-08-20T14:15:21Z</time>
      </trkpt>
      <trkpt lat="44.52911" lon="2.34557">
        <ele>339.6</ele>
        <time>2023-08-20T14:15:22Z</time>
      </trkpt>
      <trkpt lat="44.52908" lon="2.34542">
        <ele>339.6</ele>
        <time>2023-08-20T14:15:23Z</time>
      </trkpt>
      <trkpt lat="44.52907" lon="2.34526">
        <ele>339.6</ele>
        <time>2023-08-20T14:15:24Z</time>
      </trkpt>
      <trkpt lat="44.52907" lon="2.34509">
        <ele>339.2</ele>
        <time>2023-08-20T14:15:25Z</time>
      </trkpt>
      <trkpt lat="44.52907" lon="2.34492">
        <ele>339.4</ele>
        <time>2023-08-20T14:15:26Z</time>
      </trkpt>
      <trkpt lat="44.52907" lon="2.34433">
        <ele>339.4</ele>
        <time>2023-08-20T14:15:29Z</time>
      </trkpt>
      <trkpt lat="44.52908" lon="2.34348">
        <ele>340</ele>
        <time>2023-08-20T14:15:33Z</time>
      </trkpt>
      <trkpt lat="44.5291" lon="2.34328">
        <ele>340</ele>
        <time>2023-08-20T14:15:34Z</time>
      </trkpt>
      <trkpt lat="44.52912" lon="2.34313">
        <ele>340.2</ele>
        <time>2023-08-20T14:15:35Z</time>
      </trkpt>
      <trkpt lat="44.52914" lon="2.34291">
        <ele>340.4</ele>
        <time>2023-08-20T14:15:36Z</time>
      </trkpt>
      <trkpt lat="44.52914" lon="2.34273">
        <ele>340.6</ele>
        <time>2023-08-20T14:15:37Z</time>
      </trkpt>
      <trkpt lat="44.52912" lon="2.34255">
        <ele>340.6</ele>
        <time>2023-08-20T14:15:38Z</time>
      </trkpt>
      <trkpt lat="44.52909" lon="2.34237">
        <ele>340.8</ele>
        <time>2023-08-20T14:15:39Z</time>
      </trkpt>
      <trkpt lat="44.52906" lon="2.3422">
        <ele>340.8</ele>
        <time>2023-08-20T14:15:40Z</time>
      </trkpt>
      <trkpt lat="44.52905" lon="2.34204">
        <ele>341.2</ele>
        <time>2023-08-20T14:15:41Z</time>
      </trkpt>
      <trkpt lat="44.52905" lon="2.34187">
        <ele>341.2</ele>
        <time>2023-08-20T14:15:42Z</time>
      </trkpt>
      <trkpt lat="44.52907" lon="2.34171">
        <ele>341.2</ele>
        <time>2023-08-20T14:15:43Z</time>
      </trkpt>
      <trkpt lat="44.52908" lon="2.34154">
        <ele>341.6</ele>
        <time>2023-08-20T14:15:44Z</time>
      </trkpt>
      <trkpt lat="44.52914" lon="2.34088">
        <ele>341.8</ele>
        <time>2023-08-20T14:15:48Z</time>
      </trkpt>
      <trkpt lat="44.52913" lon="2.34072">
        <ele>341.8</ele>
        <time>2023-08-20T14:15:49Z</time>
      </trkpt>
      <trkpt lat="44.52912" lon="2.34056">
        <ele>341.8</ele>
        <time>2023-08-20T14:15:50Z</time>
      </trkpt>
      <trkpt lat="44.52911" lon="2.34039">
        <ele>341.8</ele>
        <time>2023-08-20T14:15:51Z</time>
      </trkpt>
      <trkpt lat="44.5291" lon="2.34023">
        <ele>341.8</ele>
        <time>2023-08-20T14:15:52Z</time>
      </trkpt>
      <trkpt lat="44.52908" lon="2.33988">
        <ele>341.2</ele>
        <time>2023-08-20T14:15:54Z</time>
      </trkpt>
      <trkpt lat="44.52902" lon="2.33938">
        <ele>339.6</ele>
        <time>2023-08-20T14:15:57Z</time>
      </trkpt>
      <trkpt lat="44.52898" lon="2.33906">
        <ele>338.4</ele>
        <time>2023-08-20T14:15:59Z</time>
      </trkpt>
      <trkpt lat="44.52894" lon="2.33871">
        <ele>337.2</ele>
        <time>2023-08-20T14:16:01Z</time>
      </trkpt>
      <trkpt lat="44.52893" lon="2.33852">
        <ele>336.4</ele>
        <time>2023-08-20T14:16:02Z</time>
      </trkpt>
      <trkpt lat="44.52891" lon="2.33833">
        <ele>336</ele>
        <time>2023-08-20T14:16:03Z</time>
      </trkpt>
      <trkpt lat="44.52882" lon="2.33757">
        <ele>335</ele>
        <time>2023-08-20T14:16:07Z</time>
      </trkpt>
      <trkpt lat="44.5288" lon="2.3374">
        <ele>335</ele>
        <time>2023-08-20T14:16:08Z</time>
      </trkpt>
      <trkpt lat="44.52878" lon="2.33724">
        <ele>334.6</ele>
        <time>2023-08-20T14:16:09Z</time>
      </trkpt>
      <trkpt lat="44.52879" lon="2.33709">
        <ele>334.6</ele>
        <time>2023-08-20T14:16:10Z</time>
      </trkpt>
      <trkpt lat="44.52882" lon="2.33694">
        <ele>334.2</ele>
        <time>2023-08-20T14:16:11Z</time>
      </trkpt>
      <trkpt lat="44.52888" lon="2.33681">
        <ele>334</ele>
        <time>2023-08-20T14:16:12Z</time>
      </trkpt>
      <trkpt lat="44.52896" lon="2.3367">
        <ele>333.8</ele>
        <time>2023-08-20T14:16:13Z</time>
      </trkpt>
      <trkpt lat="44.52905" lon="2.33661">
        <ele>333.4</ele>
        <time>2023-08-20T14:16:14Z</time>
      </trkpt>
      <trkpt lat="44.52915" lon="2.33653">
        <ele>332.8</ele>
        <time>2023-08-20T14:16:15Z</time>
      </trkpt>
      <trkpt lat="44.52925" lon="2.33646">
        <ele>332.2</ele>
        <time>2023-08-20T14:16:16Z</time>
      </trkpt>
      <trkpt lat="44.52936" lon="2.33639">
        <ele>331.8</ele>
        <time>2023-08-20T14:16:17Z</time>
      </trkpt>
      <trkpt lat="44.52971" lon="2.33617">
        <ele>330.8</ele>
        <time>2023-08-20T14:16:20Z</time>
      </trkpt>
      <trkpt lat="44.52982" lon="2.33609">
        <ele>330.4</ele>
        <time>2023-08-20T14:16:21Z</time>
      </trkpt>
      <trkpt lat="44.53" lon="2.33586">
        <ele>329.6</ele>
        <time>2023-08-20T14:16:23Z</time>
      </trkpt>
      <trkpt lat="44.53007" lon="2.33572">
        <ele>328.6</ele>
        <time>2023-08-20T14:16:24Z</time>
      </trkpt>
      <trkpt lat="44.53013" lon="2.33558">
        <ele>328</ele>
        <time>2023-08-20T14:16:25Z</time>
      </trkpt>
      <trkpt lat="44.53019" lon="2.33543">
        <ele>327.8</ele>
        <time>2023-08-20T14:16:26Z</time>
      </trkpt>
      <trkpt lat="44.53024" lon="2.33529">
        <ele>326.6</ele>
        <time>2023-08-20T14:16:27Z</time>
      </trkpt>
      <trkpt lat="44.53028" lon="2.33516">
        <ele>325.6</ele>
        <time>2023-08-20T14:16:28Z</time>
      </trkpt>
      <trkpt lat="44.53029" lon="2.33504">
        <ele>324.2</ele>
        <time>2023-08-20T14:16:29Z</time>
      </trkpt>
      <trkpt lat="44.53029" lon="2.33493">
        <ele>323.4</ele>
        <time>2023-08-20T14:16:30Z</time>
      </trkpt>
      <trkpt lat="44.53028" lon="2.33483">
        <ele>322.2</ele>
        <time>2023-08-20T14:16:31Z</time>
      </trkpt>
      <trkpt lat="44.53024" lon="2.33475">
        <ele>321.4</ele>
        <time>2023-08-20T14:16:32Z</time>
      </trkpt>
      <trkpt lat="44.53019" lon="2.33469">
        <ele>320.2</ele>
        <time>2023-08-20T14:16:33Z</time>
      </trkpt>
      <trkpt lat="44.53012" lon="2.33466">
        <ele>318.6</ele>
        <time>2023-08-20T14:16:34Z</time>
      </trkpt>
      <trkpt lat="44.53005" lon="2.33464">
        <ele>318</ele>
        <time>2023-08-20T14:16:35Z</time>
      </trkpt>
      <trkpt lat="44.52998" lon="2.33461">
        <ele>316.8</ele>
        <time>2023-08-20T14:16:36Z</time>
      </trkpt>
      <trkpt lat="44.52983" lon="2.33448">
        <ele>315.2</ele>
        <time>2023-08-20T14:16:38Z</time>
      </trkpt>
      <trkpt lat="44.52976" lon="2.33438">
        <ele>314.6</ele>
        <time>2023-08-20T14:16:39Z</time>
      </trkpt>
      <trkpt lat="44.5297" lon="2.33426">
        <ele>313.8</ele>
        <time>2023-08-20T14:16:40Z</time>
      </trkpt>
      <trkpt lat="44.52966" lon="2.33413">
        <ele>313.2</ele>
        <time>2023-08-20T14:16:41Z</time>
      </trkpt>
      <trkpt lat="44.52963" lon="2.33398">
        <ele>312.2</ele>
        <time>2023-08-20T14:16:42Z</time>
      </trkpt>
      <trkpt lat="44.52962" lon="2.33383">
        <ele>311.4</ele>
        <time>2023-08-20T14:16:43Z</time>
      </trkpt>
      <trkpt lat="44.52962" lon="2.33367">
        <ele>311.2</ele>
        <time>2023-08-20T14:16:44Z</time>
      </trkpt>
      <trkpt lat="44.52962" lon="2.33351">
        <ele>310.8</ele>
        <time>2023-08-20T14:16:45Z</time>
      </trkpt>
      <trkpt lat="44.52961" lon="2.33306">
        <ele>310.4</ele>
        <time>2023-08-20T14:16:48Z</time>
      </trkpt>
      <trkpt lat="44.52962" lon="2.33292">
        <ele>310.2</ele>
        <time>2023-08-20T14:16:49Z</time>
      </trkpt>
      <trkpt lat="44.52965" lon="2.33281">
        <ele>310.2</ele>
        <time>2023-08-20T14:16:50Z</time>
      </trkpt>
      <trkpt lat="44.52971" lon="2.33271">
        <ele>310</ele>
        <time>2023-08-20T14:16:51Z</time>
      </trkpt>
      <trkpt lat="44.52978" lon="2.33262">
        <ele>309.4</ele>
        <time>2023-08-20T14:16:52Z</time>
      </trkpt>
      <trkpt lat="44.52986" lon="2.33255">
        <ele>309.2</ele>
        <time>2023-08-20T14:16:53Z</time>
      </trkpt>
      <trkpt lat="44.52993" lon="2.33246">
        <ele>308.6</ele>
        <time>2023-08-20T14:16:54Z</time>
      </trkpt>
      <trkpt lat="44.53" lon="2.33236">
        <ele>308.4</ele>
        <time>2023-08-20T14:16:55Z</time>
      </trkpt>
      <trkpt lat="44.53004" lon="2.33224">
        <ele>308</ele>
        <time>2023-08-20T14:16:56Z</time>
      </trkpt>
      <trkpt lat="44.53006" lon="2.33212">
        <ele>307.6</ele>
        <time>2023-08-20T14:16:57Z</time>
      </trkpt>
      <trkpt lat="44.53005" lon="2.332">
        <ele>307.2</ele>
        <time>2023-08-20T14:16:58Z</time>
      </trkpt>
      <trkpt lat="44.53001" lon="2.33189">
        <ele>307</ele>
        <time>2023-08-20T14:16:59Z</time>
      </trkpt>
      <trkpt lat="44.52997" lon="2.3318">
        <ele>306.4</ele>
        <time>2023-08-20T14:17:00Z</time>
      </trkpt>
      <trkpt lat="44.52992" lon="2.3317">
        <ele>305.6</ele>
        <time>2023-08-20T14:17:01Z</time>
      </trkpt>
      <trkpt lat="44.52988" lon="2.33162">
        <ele>305.2</ele>
        <time>2023-08-20T14:17:02Z</time>
      </trkpt>
      <trkpt lat="44.52987" lon="2.33152">
        <ele>304.6</ele>
        <time>2023-08-20T14:17:03Z</time>
      </trkpt>
      <trkpt lat="44.52991" lon="2.33143">
        <ele>304.2</ele>
        <time>2023-08-20T14:17:04Z</time>
      </trkpt>
      <trkpt lat="44.52996" lon="2.33134">
        <ele>303.2</ele>
        <time>2023-08-20T14:17:05Z</time>
      </trkpt>
      <trkpt lat="44.53002" lon="2.33128">
        <ele>302.8</ele>
        <time>2023-08-20T14:17:06Z</time>
      </trkpt>
      <trkpt lat="44.53011" lon="2.33121">
        <ele>301.6</ele>
        <time>2023-08-20T14:17:07Z</time>
      </trkpt>
      <trkpt lat="44.5302" lon="2.33115">
        <ele>301</ele>
        <time>2023-08-20T14:17:08Z</time>
      </trkpt>
      <trkpt lat="44.53031" lon="2.3311">
        <ele>300.2</ele>
        <time>2023-08-20T14:17:09Z</time>
      </trkpt>
      <trkpt lat="44.53043" lon="2.33107">
        <ele>299.8</ele>
        <time>2023-08-20T14:17:10Z</time>
      </trkpt>
      <trkpt lat="44.53055" lon="2.33103">
        <ele>299.6</ele>
        <time>2023-08-20T14:17:11Z</time>
      </trkpt>
      <trkpt lat="44.53067" lon="2.33099">
        <ele>299</ele>
        <time>2023-08-20T14:17:12Z</time>
      </trkpt>
      <trkpt lat="44.53091" lon="2.3309">
        <ele>297.8</ele>
        <time>2023-08-20T14:17:14Z</time>
      </trkpt>
      <trkpt lat="44.53114" lon="2.33079">
        <ele>296.8</ele>
        <time>2023-08-20T14:17:16Z</time>
      </trkpt>
      <trkpt lat="44.53124" lon="2.33073">
        <ele>296.4</ele>
        <time>2023-08-20T14:17:17Z</time>
      </trkpt>
      <trkpt lat="44.53134" lon="2.33064">
        <ele>295.4</ele>
        <time>2023-08-20T14:17:18Z</time>
      </trkpt>
      <trkpt lat="44.53142" lon="2.33054">
        <ele>293.6</ele>
        <time>2023-08-20T14:17:19Z</time>
      </trkpt>
      <trkpt lat="44.53149" lon="2.33041">
        <ele>293</ele>
        <time>2023-08-20T14:17:20Z</time>
      </trkpt>
      <trkpt lat="44.53155" lon="2.33027">
        <ele>291.8</ele>
        <time>2023-08-20T14:17:21Z</time>
      </trkpt>
      <trkpt lat="44.53161" lon="2.33011">
        <ele>291</ele>
        <time>2023-08-20T14:17:22Z</time>
      </trkpt>
      <trkpt lat="44.53165" lon="2.32994">
        <ele>290</ele>
        <time>2023-08-20T14:17:23Z</time>
      </trkpt>
      <trkpt lat="44.53167" lon="2.32959">
        <ele>287.8</ele>
        <time>2023-08-20T14:17:25Z</time>
      </trkpt>
      <trkpt lat="44.53164" lon="2.32942">
        <ele>286.8</ele>
        <time>2023-08-20T14:17:26Z</time>
      </trkpt>
      <trkpt lat="44.5316" lon="2.32928">
        <ele>286</ele>
        <time>2023-08-20T14:17:27Z</time>
      </trkpt>
      <trkpt lat="44.53157" lon="2.32913">
        <ele>284.4</ele>
        <time>2023-08-20T14:17:28Z</time>
      </trkpt>
      <trkpt lat="44.53156" lon="2.32897">
        <ele>283.6</ele>
        <time>2023-08-20T14:17:29Z</time>
      </trkpt>
      <trkpt lat="44.53156" lon="2.32881">
        <ele>281.8</ele>
        <time>2023-08-20T14:17:30Z</time>
      </trkpt>
      <trkpt lat="44.53158" lon="2.32864">
        <ele>281</ele>
        <time>2023-08-20T14:17:31Z</time>
      </trkpt>
      <trkpt lat="44.53161" lon="2.32848">
        <ele>279.4</ele>
        <time>2023-08-20T14:17:32Z</time>
      </trkpt>
      <trkpt lat="44.53163" lon="2.32831">
        <ele>278.2</ele>
        <time>2023-08-20T14:17:33Z</time>
      </trkpt>
      <trkpt lat="44.53165" lon="2.32815">
        <ele>276.8</ele>
        <time>2023-08-20T14:17:34Z</time>
      </trkpt>
      <trkpt lat="44.53165" lon="2.328">
        <ele>275.6</ele>
        <time>2023-08-20T14:17:35Z</time>
      </trkpt>
      <trkpt lat="44.53164" lon="2.32787">
        <ele>275</ele>
        <time>2023-08-20T14:17:36Z</time>
      </trkpt>
      <trkpt lat="44.53162" lon="2.32776">
        <ele>273.6</ele>
        <time>2023-08-20T14:17:37Z</time>
      </trkpt>
      <trkpt lat="44.53158" lon="2.32767">
        <ele>273</ele>
        <time>2023-08-20T14:17:38Z</time>
      </trkpt>
      <trkpt lat="44.53153" lon="2.3276">
        <ele>271.4</ele>
        <time>2023-08-20T14:17:39Z</time>
      </trkpt>
      <trkpt lat="44.53147" lon="2.32755">
        <ele>270.6</ele>
        <time>2023-08-20T14:17:40Z</time>
      </trkpt>
      <trkpt lat="44.5314" lon="2.3275">
        <ele>269.2</ele>
        <time>2023-08-20T14:17:41Z</time>
      </trkpt>
      <trkpt lat="44.53133" lon="2.32746">
        <ele>268.4</ele>
        <time>2023-08-20T14:17:42Z</time>
      </trkpt>
      <trkpt lat="44.53126" lon="2.32741">
        <ele>267</ele>
        <time>2023-08-20T14:17:43Z</time>
      </trkpt>
      <trkpt lat="44.53118" lon="2.32737">
        <ele>265.2</ele>
        <time>2023-08-20T14:17:44Z</time>
      </trkpt>
      <trkpt lat="44.5311" lon="2.32733">
        <ele>264.6</ele>
        <time>2023-08-20T14:17:45Z</time>
      </trkpt>
      <trkpt lat="44.53102" lon="2.32727">
        <ele>263.4</ele>
        <time>2023-08-20T14:17:46Z</time>
      </trkpt>
      <trkpt lat="44.53094" lon="2.3272">
        <ele>262.8</ele>
        <time>2023-08-20T14:17:47Z</time>
      </trkpt>
      <trkpt lat="44.53087" lon="2.32711">
        <ele>261.8</ele>
        <time>2023-08-20T14:17:48Z</time>
      </trkpt>
      <trkpt lat="44.53082" lon="2.32701">
        <ele>261.2</ele>
        <time>2023-08-20T14:17:49Z</time>
      </trkpt>
      <trkpt lat="44.53078" lon="2.3269">
        <ele>260.6</ele>
        <time>2023-08-20T14:17:50Z</time>
      </trkpt>
      <trkpt lat="44.53075" lon="2.32679">
        <ele>260.2</ele>
        <time>2023-08-20T14:17:51Z</time>
      </trkpt>
      <trkpt lat="44.53072" lon="2.32668">
        <ele>259</ele>
        <time>2023-08-20T14:17:52Z</time>
      </trkpt>
      <trkpt lat="44.5307" lon="2.32656">
        <ele>257.8</ele>
        <time>2023-08-20T14:17:53Z</time>
      </trkpt>
      <trkpt lat="44.53066" lon="2.32634">
        <ele>256.6</ele>
        <time>2023-08-20T14:17:55Z</time>
      </trkpt>
      <trkpt lat="44.53066" lon="2.32623">
        <ele>256.2</ele>
        <time>2023-08-20T14:17:56Z</time>
      </trkpt>
      <trkpt lat="44.53066" lon="2.32611">
        <ele>255.6</ele>
        <time>2023-08-20T14:17:57Z</time>
      </trkpt>
      <trkpt lat="44.53067" lon="2.32599">
        <ele>255.4</ele>
        <time>2023-08-20T14:17:58Z</time>
      </trkpt>
      <trkpt lat="44.5307" lon="2.32574">
        <ele>255.2</ele>
        <time>2023-08-20T14:18:00Z</time>
      </trkpt>
      <trkpt lat="44.53071" lon="2.32562">
        <ele>255</ele>
        <time>2023-08-20T14:18:01Z</time>
      </trkpt>
      <trkpt lat="44.53069" lon="2.32538">
        <ele>254.6</ele>
        <time>2023-08-20T14:18:03Z</time>
      </trkpt>
      <trkpt lat="44.53066" lon="2.32526">
        <ele>254.6</ele>
        <time>2023-08-20T14:18:04Z</time>
      </trkpt>
      <trkpt lat="44.53052" lon="2.32479">
        <ele>254.4</ele>
        <time>2023-08-20T14:18:08Z</time>
      </trkpt>
      <trkpt lat="44.53049" lon="2.32469">
        <ele>254.6</ele>
        <time>2023-08-20T14:18:09Z</time>
      </trkpt>
      <trkpt lat="44.53046" lon="2.32461">
        <ele>254.8</ele>
        <time>2023-08-20T14:18:10Z</time>
      </trkpt>
      <trkpt lat="44.53043" lon="2.32453">
        <ele>255</ele>
        <time>2023-08-20T14:18:11Z</time>
      </trkpt>
      <trkpt lat="44.53041" lon="2.32445">
        <ele>255.2</ele>
        <time>2023-08-20T14:18:12Z</time>
      </trkpt>
      <trkpt lat="44.53039" lon="2.32438">
        <ele>255.6</ele>
        <time>2023-08-20T14:18:13Z</time>
      </trkpt>
      <trkpt lat="44.53037" lon="2.32432">
        <ele>256</ele>
        <time>2023-08-20T14:18:14Z</time>
      </trkpt>
      <trkpt lat="44.53036" lon="2.32426">
        <ele>256.2</ele>
        <time>2023-08-20T14:18:15Z</time>
      </trkpt>
      <trkpt lat="44.53034" lon="2.32421">
        <ele>256.2</ele>
        <time>2023-08-20T14:18:16Z</time>
      </trkpt>
      <trkpt lat="44.53033" lon="2.32416">
        <ele>256.6</ele>
        <time>2023-08-20T14:18:17Z</time>
      </trkpt>
      <trkpt lat="44.53032" lon="2.32412">
        <ele>256.6</ele>
        <time>2023-08-20T14:18:18Z</time>
      </trkpt>
      <trkpt lat="44.53031" lon="2.32408">
        <ele>257</ele>
        <time>2023-08-20T14:18:19Z</time>
      </trkpt>
      <trkpt lat="44.53031" lon="2.32405">
        <ele>257.4</ele>
        <time>2023-08-20T14:18:20Z</time>
      </trkpt>
      <trkpt lat="44.53031" lon="2.32402">
        <ele>257.4</ele>
        <time>2023-08-20T14:18:21Z</time>
      </trkpt>
      <trkpt lat="44.53031" lon="2.32399">
        <ele>257.8</ele>
        <time>2023-08-20T14:18:22Z</time>
      </trkpt>
      <trkpt lat="44.53031" lon="2.32396">
        <ele>257.8</ele>
        <time>2023-08-20T14:18:23Z</time>
      </trkpt>
      <trkpt lat="44.53033" lon="2.32392">
        <ele>258</ele>
        <time>2023-08-20T14:18:24Z</time>
      </trkpt>
      <trkpt lat="44.53036" lon="2.32386">
        <ele>258.2</ele>
        <time>2023-08-20T14:18:25Z</time>
      </trkpt>
      <trkpt lat="44.53042" lon="2.3238">
        <ele>258.6</ele>
        <time>2023-08-20T14:18:26Z</time>
      </trkpt>
      <trkpt lat="44.53048" lon="2.32373">
        <ele>258.6</ele>
        <time>2023-08-20T14:18:27Z</time>
      </trkpt>
      <trkpt lat="44.53055" lon="2.32365">
        <ele>258.8</ele>
        <time>2023-08-20T14:18:28Z</time>
      </trkpt>
      <trkpt lat="44.53062" lon="2.32357">
        <ele>259.2</ele>
        <time>2023-08-20T14:18:29Z</time>
      </trkpt>
      <trkpt lat="44.53096" lon="2.32317">
        <ele>260.4</ele>
        <time>2023-08-20T14:18:33Z</time>
      </trkpt>
      <trkpt lat="44.53104" lon="2.32306">
        <ele>260.6</ele>
        <time>2023-08-20T14:18:34Z</time>
      </trkpt>
      <trkpt lat="44.53113" lon="2.32295">
        <ele>261.2</ele>
        <time>2023-08-20T14:18:35Z</time>
      </trkpt>
      <trkpt lat="44.53122" lon="2.32285">
        <ele>261.6</ele>
        <time>2023-08-20T14:18:36Z</time>
      </trkpt>
      <trkpt lat="44.5313" lon="2.32275">
        <ele>261.8</ele>
        <time>2023-08-20T14:18:37Z</time>
      </trkpt>
      <trkpt lat="44.53139" lon="2.32265">
        <ele>262</ele>
        <time>2023-08-20T14:18:38Z</time>
      </trkpt>
      <trkpt lat="44.53147" lon="2.32255">
        <ele>262.2</ele>
        <time>2023-08-20T14:18:39Z</time>
      </trkpt>
      <trkpt lat="44.53156" lon="2.32245">
        <ele>262.2</ele>
        <time>2023-08-20T14:18:40Z</time>
      </trkpt>
      <trkpt lat="44.53165" lon="2.32234">
        <ele>262.4</ele>
        <time>2023-08-20T14:18:41Z</time>
      </trkpt>
      <trkpt lat="44.53174" lon="2.32224">
        <ele>262.4</ele>
        <time>2023-08-20T14:18:42Z</time>
      </trkpt>
      <trkpt lat="44.53183" lon="2.32213">
        <ele>262.6</ele>
        <time>2023-08-20T14:18:43Z</time>
      </trkpt>
      <trkpt lat="44.53192" lon="2.32202">
        <ele>262.6</ele>
        <time>2023-08-20T14:18:44Z</time>
      </trkpt>
      <trkpt lat="44.53201" lon="2.32191">
        <ele>262.6</ele>
        <time>2023-08-20T14:18:45Z</time>
      </trkpt>
      <trkpt lat="44.5321" lon="2.32181">
        <ele>262.6</ele>
        <time>2023-08-20T14:18:46Z</time>
      </trkpt>
      <trkpt lat="44.5322" lon="2.32172">
        <ele>262.6</ele>
        <time>2023-08-20T14:18:47Z</time>
      </trkpt>
      <trkpt lat="44.53229" lon="2.32163">
        <ele>262.6</ele>
        <time>2023-08-20T14:18:48Z</time>
      </trkpt>
      <trkpt lat="44.53238" lon="2.32154">
        <ele>262.4</ele>
        <time>2023-08-20T14:18:49Z</time>
      </trkpt>
      <trkpt lat="44.53247" lon="2.32146">
        <ele>262.4</ele>
        <time>2023-08-20T14:18:50Z</time>
      </trkpt>
      <trkpt lat="44.53257" lon="2.32139">
        <ele>262.2</ele>
        <time>2023-08-20T14:18:51Z</time>
      </trkpt>
      <trkpt lat="44.53266" lon="2.32132">
        <ele>262.2</ele>
        <time>2023-08-20T14:18:52Z</time>
      </trkpt>
      <trkpt lat="44.53275" lon="2.32124">
        <ele>262</ele>
        <time>2023-08-20T14:18:53Z</time>
      </trkpt>
      <trkpt lat="44.53284" lon="2.32117">
        <ele>261.8</ele>
        <time>2023-08-20T14:18:54Z</time>
      </trkpt>
      <trkpt lat="44.53293" lon="2.3211">
        <ele>261.6</ele>
        <time>2023-08-20T14:18:55Z</time>
      </trkpt>
      <trkpt lat="44.53302" lon="2.32104">
        <ele>261.4</ele>
        <time>2023-08-20T14:18:56Z</time>
      </trkpt>
      <trkpt lat="44.5331" lon="2.32097">
        <ele>261.4</ele>
        <time>2023-08-20T14:18:57Z</time>
      </trkpt>
      <trkpt lat="44.53319" lon="2.32091">
        <ele>261.2</ele>
        <time>2023-08-20T14:18:58Z</time>
      </trkpt>
      <trkpt lat="44.53328" lon="2.32084">
        <ele>261.2</ele>
        <time>2023-08-20T14:18:59Z</time>
      </trkpt>
      <trkpt lat="44.53337" lon="2.32076">
        <ele>261</ele>
        <time>2023-08-20T14:19:00Z</time>
      </trkpt>
      <trkpt lat="44.53346" lon="2.32067">
        <ele>261</ele>
        <time>2023-08-20T14:19:01Z</time>
      </trkpt>
      <trkpt lat="44.53355" lon="2.32057">
        <ele>260.8</ele>
        <time>2023-08-20T14:19:02Z</time>
      </trkpt>
      <trkpt lat="44.53402" lon="2.32002">
        <ele>260.4</ele>
        <time>2023-08-20T14:19:07Z</time>
      </trkpt>
      <trkpt lat="44.53411" lon="2.31993">
        <ele>260.4</ele>
        <time>2023-08-20T14:19:08Z</time>
      </trkpt>
      <trkpt lat="44.5342" lon="2.31985">
        <ele>260.4</ele>
        <time>2023-08-20T14:19:09Z</time>
      </trkpt>
      <trkpt lat="44.53429" lon="2.31978">
        <ele>260.2</ele>
        <time>2023-08-20T14:19:10Z</time>
      </trkpt>
      <trkpt lat="44.53437" lon="2.3197">
        <ele>260.2</ele>
        <time>2023-08-20T14:19:11Z</time>
      </trkpt>
      <trkpt lat="44.53445" lon="2.31961">
        <ele>260</ele>
        <time>2023-08-20T14:19:12Z</time>
      </trkpt>
      <trkpt lat="44.53454" lon="2.31952">
        <ele>260</ele>
        <time>2023-08-20T14:19:13Z</time>
      </trkpt>
      <trkpt lat="44.53487" lon="2.31912">
        <ele>259.6</ele>
        <time>2023-08-20T14:19:17Z</time>
      </trkpt>
      <trkpt lat="44.53511" lon="2.31882">
        <ele>259.4</ele>
        <time>2023-08-20T14:19:20Z</time>
      </trkpt>
      <trkpt lat="44.5353" lon="2.31854">
        <ele>259</ele>
        <time>2023-08-20T14:19:23Z</time>
      </trkpt>
      <trkpt lat="44.53534" lon="2.31848">
        <ele>259</ele>
        <time>2023-08-20T14:19:24Z</time>
      </trkpt>
      <trkpt lat="44.53537" lon="2.31844">
        <ele>258.8</ele>
        <time>2023-08-20T14:19:25Z</time>
      </trkpt>
      <trkpt lat="44.53539" lon="2.31841">
        <ele>258.6</ele>
        <time>2023-08-20T14:19:26Z</time>
      </trkpt>
      <trkpt lat="44.5354" lon="2.31839">
        <ele>258</ele>
        <time>2023-08-20T14:19:27Z</time>
      </trkpt>
      <trkpt lat="44.53541" lon="2.31836">
        <ele>257.8</ele>
        <time>2023-08-20T14:19:28Z</time>
      </trkpt>
      <trkpt lat="44.53542" lon="2.31834">
        <ele>257.6</ele>
        <time>2023-08-20T14:19:29Z</time>
      </trkpt>
      <trkpt lat="44.53544" lon="2.31831">
        <ele>257.4</ele>
        <time>2023-08-20T14:19:30Z</time>
      </trkpt>
      <trkpt lat="44.53545" lon="2.31828">
        <ele>257.2</ele>
        <time>2023-08-20T14:19:31Z</time>
      </trkpt>
      <trkpt lat="44.53547" lon="2.31824">
        <ele>256.8</ele>
        <time>2023-08-20T14:19:32Z</time>
      </trkpt>
      <trkpt lat="44.53546" lon="2.31815">
        <ele>256.4</ele>
        <time>2023-08-20T14:19:34Z</time>
      </trkpt>
      <trkpt lat="44.53543" lon="2.3181">
        <ele>256.2</ele>
        <time>2023-08-20T14:19:35Z</time>
      </trkpt>
      <trkpt lat="44.53539" lon="2.31806">
        <ele>256.2</ele>
        <time>2023-08-20T14:19:36Z</time>
      </trkpt>
      <trkpt lat="44.53529" lon="2.31795">
        <ele>256</ele>
        <time>2023-08-20T14:19:38Z</time>
      </trkpt>
      <trkpt lat="44.53524" lon="2.31788">
        <ele>256</ele>
        <time>2023-08-20T14:19:39Z</time>
      </trkpt>
      <trkpt lat="44.53502" lon="2.3176">
        <ele>256</ele>
        <time>2023-08-20T14:19:42Z</time>
      </trkpt>
      <trkpt lat="44.53466" lon="2.31723">
        <ele>257.2</ele>
        <time>2023-08-20T14:19:46Z</time>
      </trkpt>
      <trkpt lat="44.53455" lon="2.31716">
        <ele>257.8</ele>
        <time>2023-08-20T14:19:47Z</time>
      </trkpt>
      <trkpt lat="44.53444" lon="2.31712">
        <ele>258.2</ele>
        <time>2023-08-20T14:19:48Z</time>
      </trkpt>
      <trkpt lat="44.53432" lon="2.31711">
        <ele>258.8</ele>
        <time>2023-08-20T14:19:49Z</time>
      </trkpt>
      <trkpt lat="44.53421" lon="2.31711">
        <ele>259.4</ele>
        <time>2023-08-20T14:19:50Z</time>
      </trkpt>
      <trkpt lat="44.53408" lon="2.31714">
        <ele>259.6</ele>
        <time>2023-08-20T14:19:51Z</time>
      </trkpt>
      <trkpt lat="44.53396" lon="2.31718">
        <ele>260.8</ele>
        <time>2023-08-20T14:19:52Z</time>
      </trkpt>
      <trkpt lat="44.53371" lon="2.31729">
        <ele>262.2</ele>
        <time>2023-08-20T14:19:54Z</time>
      </trkpt>
      <trkpt lat="44.53358" lon="2.31735">
        <ele>263.2</ele>
        <time>2023-08-20T14:19:55Z</time>
      </trkpt>
      <trkpt lat="44.53345" lon="2.31741">
        <ele>263.8</ele>
        <time>2023-08-20T14:19:56Z</time>
      </trkpt>
      <trkpt lat="44.5333" lon="2.31748">
        <ele>264.4</ele>
        <time>2023-08-20T14:19:57Z</time>
      </trkpt>
      <trkpt lat="44.53316" lon="2.31755">
        <ele>264.8</ele>
        <time>2023-08-20T14:19:58Z</time>
      </trkpt>
      <trkpt lat="44.53301" lon="2.31762">
        <ele>265.4</ele>
        <time>2023-08-20T14:19:59Z</time>
      </trkpt>
      <trkpt lat="44.53285" lon="2.31768">
        <ele>265.6</ele>
        <time>2023-08-20T14:20:00Z</time>
      </trkpt>
      <trkpt lat="44.5327" lon="2.31773">
        <ele>266.2</ele>
        <time>2023-08-20T14:20:01Z</time>
      </trkpt>
      <trkpt lat="44.53254" lon="2.31778">
        <ele>266.4</ele>
        <time>2023-08-20T14:20:02Z</time>
      </trkpt>
      <trkpt lat="44.5324" lon="2.31783">
        <ele>267.8</ele>
        <time>2023-08-20T14:20:03Z</time>
      </trkpt>
      <trkpt lat="44.53227" lon="2.31786">
        <ele>268.8</ele>
        <time>2023-08-20T14:20:04Z</time>
      </trkpt>
      <trkpt lat="44.53214" lon="2.31786">
        <ele>269.2</ele>
        <time>2023-08-20T14:20:05Z</time>
      </trkpt>
      <trkpt lat="44.53201" lon="2.31784">
        <ele>269.8</ele>
        <time>2023-08-20T14:20:06Z</time>
      </trkpt>
      <trkpt lat="44.5319" lon="2.31779">
        <ele>270</ele>
        <time>2023-08-20T14:20:07Z</time>
      </trkpt>
      <trkpt lat="44.5318" lon="2.31772">
        <ele>271.2</ele>
        <time>2023-08-20T14:20:08Z</time>
      </trkpt>
      <trkpt lat="44.53171" lon="2.31764">
        <ele>271.6</ele>
        <time>2023-08-20T14:20:09Z</time>
      </trkpt>
      <trkpt lat="44.53162" lon="2.31755">
        <ele>272.8</ele>
        <time>2023-08-20T14:20:10Z</time>
      </trkpt>
      <trkpt lat="44.53154" lon="2.31745">
        <ele>273.4</ele>
        <time>2023-08-20T14:20:11Z</time>
      </trkpt>
      <trkpt lat="44.53148" lon="2.31733">
        <ele>274.2</ele>
        <time>2023-08-20T14:20:12Z</time>
      </trkpt>
      <trkpt lat="44.53142" lon="2.31721">
        <ele>275.2</ele>
        <time>2023-08-20T14:20:13Z</time>
      </trkpt>
      <trkpt lat="44.53138" lon="2.31708">
        <ele>275.6</ele>
        <time>2023-08-20T14:20:14Z</time>
      </trkpt>
      <trkpt lat="44.53134" lon="2.31696">
        <ele>276.6</ele>
        <time>2023-08-20T14:20:15Z</time>
      </trkpt>
      <trkpt lat="44.53129" lon="2.31685">
        <ele>277</ele>
        <time>2023-08-20T14:20:16Z</time>
      </trkpt>
      <trkpt lat="44.53123" lon="2.31679">
        <ele>278</ele>
        <time>2023-08-20T14:20:17Z</time>
      </trkpt>
      <trkpt lat="44.53117" lon="2.31675">
        <ele>278.4</ele>
        <time>2023-08-20T14:20:18Z</time>
      </trkpt>
      <trkpt lat="44.5311" lon="2.31674">
        <ele>278.8</ele>
        <time>2023-08-20T14:20:19Z</time>
      </trkpt>
      <trkpt lat="44.53105" lon="2.31678">
        <ele>279.2</ele>
        <time>2023-08-20T14:20:20Z</time>
      </trkpt>
      <trkpt lat="44.53101" lon="2.31685">
        <ele>279.8</ele>
        <time>2023-08-20T14:20:21Z</time>
      </trkpt>
      <trkpt lat="44.53101" lon="2.31696">
        <ele>280.4</ele>
        <time>2023-08-20T14:20:22Z</time>
      </trkpt>
      <trkpt lat="44.53103" lon="2.31708">
        <ele>280.6</ele>
        <time>2023-08-20T14:20:23Z</time>
      </trkpt>
      <trkpt lat="44.53106" lon="2.31719">
        <ele>281.2</ele>
        <time>2023-08-20T14:20:24Z</time>
      </trkpt>
      <trkpt lat="44.5311" lon="2.31731">
        <ele>281.6</ele>
        <time>2023-08-20T14:20:25Z</time>
      </trkpt>
      <trkpt lat="44.53116" lon="2.31742">
        <ele>282.4</ele>
        <time>2023-08-20T14:20:26Z</time>
      </trkpt>
      <trkpt lat="44.53122" lon="2.31755">
        <ele>283</ele>
        <time>2023-08-20T14:20:27Z</time>
      </trkpt>
      <trkpt lat="44.53128" lon="2.31768">
        <ele>283.6</ele>
        <time>2023-08-20T14:20:28Z</time>
      </trkpt>
      <trkpt lat="44.53132" lon="2.31782">
        <ele>283.8</ele>
        <time>2023-08-20T14:20:29Z</time>
      </trkpt>
      <trkpt lat="44.53136" lon="2.31796">
        <ele>284.8</ele>
        <time>2023-08-20T14:20:30Z</time>
      </trkpt>
      <trkpt lat="44.53138" lon="2.3181">
        <ele>285.8</ele>
        <time>2023-08-20T14:20:31Z</time>
      </trkpt>
      <trkpt lat="44.5314" lon="2.31825">
        <ele>286.2</ele>
        <time>2023-08-20T14:20:32Z</time>
      </trkpt>
      <trkpt lat="44.5314" lon="2.3184">
        <ele>286.6</ele>
        <time>2023-08-20T14:20:33Z</time>
      </trkpt>
      <trkpt lat="44.5314" lon="2.31854">
        <ele>287.4</ele>
        <time>2023-08-20T14:20:34Z</time>
      </trkpt>
      <trkpt lat="44.5314" lon="2.31869">
        <ele>288.6</ele>
        <time>2023-08-20T14:20:35Z</time>
      </trkpt>
      <trkpt lat="44.53139" lon="2.31885">
        <ele>289</ele>
        <time>2023-08-20T14:20:36Z</time>
      </trkpt>
      <trkpt lat="44.53136" lon="2.31901">
        <ele>289.8</ele>
        <time>2023-08-20T14:20:37Z</time>
      </trkpt>
      <trkpt lat="44.53133" lon="2.31917">
        <ele>290</ele>
        <time>2023-08-20T14:20:38Z</time>
      </trkpt>
      <trkpt lat="44.53128" lon="2.31932">
        <ele>290.8</ele>
        <time>2023-08-20T14:20:39Z</time>
      </trkpt>
      <trkpt lat="44.53122" lon="2.31946">
        <ele>291.2</ele>
        <time>2023-08-20T14:20:40Z</time>
      </trkpt>
      <trkpt lat="44.53114" lon="2.3196">
        <ele>291.6</ele>
        <time>2023-08-20T14:20:41Z</time>
      </trkpt>
      <trkpt lat="44.53106" lon="2.31971">
        <ele>292.2</ele>
        <time>2023-08-20T14:20:42Z</time>
      </trkpt>
      <trkpt lat="44.53097" lon="2.31981">
        <ele>292.4</ele>
        <time>2023-08-20T14:20:43Z</time>
      </trkpt>
      <trkpt lat="44.53088" lon="2.31989">
        <ele>293</ele>
        <time>2023-08-20T14:20:44Z</time>
      </trkpt>
      <trkpt lat="44.5308" lon="2.31996">
        <ele>293.6</ele>
        <time>2023-08-20T14:20:45Z</time>
      </trkpt>
      <trkpt lat="44.53072" lon="2.32001">
        <ele>294.2</ele>
        <time>2023-08-20T14:20:46Z</time>
      </trkpt>
      <trkpt lat="44.53064" lon="2.32003">
        <ele>294.6</ele>
        <time>2023-08-20T14:20:47Z</time>
      </trkpt>
      <trkpt lat="44.53057" lon="2.32002">
        <ele>295.4</ele>
        <time>2023-08-20T14:20:48Z</time>
      </trkpt>
      <trkpt lat="44.53052" lon="2.31997">
        <ele>296</ele>
        <time>2023-08-20T14:20:49Z</time>
      </trkpt>
      <trkpt lat="44.53048" lon="2.3199">
        <ele>296.2</ele>
        <time>2023-08-20T14:20:50Z</time>
      </trkpt>
      <trkpt lat="44.53046" lon="2.3198">
        <ele>297</ele>
        <time>2023-08-20T14:20:51Z</time>
      </trkpt>
      <trkpt lat="44.53046" lon="2.31969">
        <ele>297.2</ele>
        <time>2023-08-20T14:20:52Z</time>
      </trkpt>
      <trkpt lat="44.53048" lon="2.31958">
        <ele>297.6</ele>
        <time>2023-08-20T14:20:53Z</time>
      </trkpt>
      <trkpt lat="44.53051" lon="2.31945">
        <ele>298.2</ele>
        <time>2023-08-20T14:20:54Z</time>
      </trkpt>
      <trkpt lat="44.53052" lon="2.31932">
        <ele>299.4</ele>
        <time>2023-08-20T14:20:55Z</time>
      </trkpt>
      <trkpt lat="44.53051" lon="2.31918">
        <ele>300</ele>
        <time>2023-08-20T14:20:56Z</time>
      </trkpt>
      <trkpt lat="44.53048" lon="2.31905">
        <ele>300.4</ele>
        <time>2023-08-20T14:20:57Z</time>
      </trkpt>
      <trkpt lat="44.53043" lon="2.31893">
        <ele>301</ele>
        <time>2023-08-20T14:20:58Z</time>
      </trkpt>
      <trkpt lat="44.53036" lon="2.31882">
        <ele>301.4</ele>
        <time>2023-08-20T14:20:59Z</time>
      </trkpt>
      <trkpt lat="44.53028" lon="2.3187">
        <ele>302.8</ele>
        <time>2023-08-20T14:21:00Z</time>
      </trkpt>
      <trkpt lat="44.5302" lon="2.31857">
        <ele>303.4</ele>
        <time>2023-08-20T14:21:01Z</time>
      </trkpt>
      <trkpt lat="44.53013" lon="2.31844">
        <ele>304.4</ele>
        <time>2023-08-20T14:21:02Z</time>
      </trkpt>
      <trkpt lat="44.53006" lon="2.31831">
        <ele>304.6</ele>
        <time>2023-08-20T14:21:03Z</time>
      </trkpt>
      <trkpt lat="44.52999" lon="2.31816">
        <ele>305.6</ele>
        <time>2023-08-20T14:21:04Z</time>
      </trkpt>
      <trkpt lat="44.52993" lon="2.31801">
        <ele>306.6</ele>
        <time>2023-08-20T14:21:05Z</time>
      </trkpt>
      <trkpt lat="44.52988" lon="2.31784">
        <ele>307.2</ele>
        <time>2023-08-20T14:21:06Z</time>
      </trkpt>
      <trkpt lat="44.52984" lon="2.31768">
        <ele>308</ele>
        <time>2023-08-20T14:21:07Z</time>
      </trkpt>
      <trkpt lat="44.5298" lon="2.31752">
        <ele>308.4</ele>
        <time>2023-08-20T14:21:08Z</time>
      </trkpt>
      <trkpt lat="44.52976" lon="2.31736">
        <ele>309.4</ele>
        <time>2023-08-20T14:21:09Z</time>
      </trkpt>
      <trkpt lat="44.52971" lon="2.31721">
        <ele>310</ele>
        <time>2023-08-20T14:21:10Z</time>
      </trkpt>
      <trkpt lat="44.52965" lon="2.31707">
        <ele>311</ele>
        <time>2023-08-20T14:21:11Z</time>
      </trkpt>
      <trkpt lat="44.52958" lon="2.31693">
        <ele>311.6</ele>
        <time>2023-08-20T14:21:12Z</time>
      </trkpt>
      <trkpt lat="44.52951" lon="2.31679">
        <ele>312.8</ele>
        <time>2023-08-20T14:21:13Z</time>
      </trkpt>
      <trkpt lat="44.52944" lon="2.31665">
        <ele>314.4</ele>
        <time>2023-08-20T14:21:14Z</time>
      </trkpt>
      <trkpt lat="44.52937" lon="2.31652">
        <ele>314.8</ele>
        <time>2023-08-20T14:21:15Z</time>
      </trkpt>
      <trkpt lat="44.52931" lon="2.31638">
        <ele>316.2</ele>
        <time>2023-08-20T14:21:16Z</time>
      </trkpt>
      <trkpt lat="44.52925" lon="2.31624">
        <ele>316.6</ele>
        <time>2023-08-20T14:21:17Z</time>
      </trkpt>
      <trkpt lat="44.5292" lon="2.3161">
        <ele>317.4</ele>
        <time>2023-08-20T14:21:18Z</time>
      </trkpt>
      <trkpt lat="44.52917" lon="2.31595">
        <ele>318.2</ele>
        <time>2023-08-20T14:21:19Z</time>
      </trkpt>
      <trkpt lat="44.52916" lon="2.31582">
        <ele>319.2</ele>
        <time>2023-08-20T14:21:20Z</time>
      </trkpt>
      <trkpt lat="44.52915" lon="2.31569">
        <ele>319.6</ele>
        <time>2023-08-20T14:21:21Z</time>
      </trkpt>
      <trkpt lat="44.52914" lon="2.31558">
        <ele>320.8</ele>
        <time>2023-08-20T14:21:22Z</time>
      </trkpt>
      <trkpt lat="44.52912" lon="2.31549">
        <ele>321.6</ele>
        <time>2023-08-20T14:21:23Z</time>
      </trkpt>
      <trkpt lat="44.52908" lon="2.31542">
        <ele>322</ele>
        <time>2023-08-20T14:21:24Z</time>
      </trkpt>
      <trkpt lat="44.52903" lon="2.3154">
        <ele>322.6</ele>
        <time>2023-08-20T14:21:25Z</time>
      </trkpt>
      <trkpt lat="44.52897" lon="2.31541">
        <ele>323</ele>
        <time>2023-08-20T14:21:26Z</time>
      </trkpt>
      <trkpt lat="44.52891" lon="2.31545">
        <ele>323.6</ele>
        <time>2023-08-20T14:21:27Z</time>
      </trkpt>
      <trkpt lat="44.52889" lon="2.31553">
        <ele>323.8</ele>
        <time>2023-08-20T14:21:28Z</time>
      </trkpt>
      <trkpt lat="44.5289" lon="2.31565">
        <ele>324.6</ele>
        <time>2023-08-20T14:21:29Z</time>
      </trkpt>
      <trkpt lat="44.52891" lon="2.31579">
        <ele>324.8</ele>
        <time>2023-08-20T14:21:30Z</time>
      </trkpt>
      <trkpt lat="44.52892" lon="2.31595">
        <ele>325.4</ele>
        <time>2023-08-20T14:21:31Z</time>
      </trkpt>
      <trkpt lat="44.52893" lon="2.31612">
        <ele>326</ele>
        <time>2023-08-20T14:21:32Z</time>
      </trkpt>
      <trkpt lat="44.52894" lon="2.31629">
        <ele>326.4</ele>
        <time>2023-08-20T14:21:33Z</time>
      </trkpt>
      <trkpt lat="44.52896" lon="2.31646">
        <ele>326.8</ele>
        <time>2023-08-20T14:21:34Z</time>
      </trkpt>
      <trkpt lat="44.52897" lon="2.31662">
        <ele>327.6</ele>
        <time>2023-08-20T14:21:35Z</time>
      </trkpt>
      <trkpt lat="44.52896" lon="2.31675">
        <ele>328.6</ele>
        <time>2023-08-20T14:21:36Z</time>
      </trkpt>
      <trkpt lat="44.52895" lon="2.31687">
        <ele>328.8</ele>
        <time>2023-08-20T14:21:37Z</time>
      </trkpt>
      <trkpt lat="44.52891" lon="2.31695">
        <ele>329.2</ele>
        <time>2023-08-20T14:21:38Z</time>
      </trkpt>
      <trkpt lat="44.52886" lon="2.317">
        <ele>329.6</ele>
        <time>2023-08-20T14:21:39Z</time>
      </trkpt>
      <trkpt lat="44.5288" lon="2.31701">
        <ele>330.2</ele>
        <time>2023-08-20T14:21:40Z</time>
      </trkpt>
      <trkpt lat="44.52874" lon="2.31698">
        <ele>330.6</ele>
        <time>2023-08-20T14:21:41Z</time>
      </trkpt>
      <trkpt lat="44.52868" lon="2.31692">
        <ele>331</ele>
        <time>2023-08-20T14:21:42Z</time>
      </trkpt>
      <trkpt lat="44.52862" lon="2.31683">
        <ele>331.6</ele>
        <time>2023-08-20T14:21:43Z</time>
      </trkpt>
      <trkpt lat="44.52855" lon="2.31673">
        <ele>331.8</ele>
        <time>2023-08-20T14:21:44Z</time>
      </trkpt>
      <trkpt lat="44.52849" lon="2.31663">
        <ele>332.8</ele>
        <time>2023-08-20T14:21:45Z</time>
      </trkpt>
      <trkpt lat="44.52841" lon="2.31652">
        <ele>333.2</ele>
        <time>2023-08-20T14:21:46Z</time>
      </trkpt>
      <trkpt lat="44.52833" lon="2.31642">
        <ele>334</ele>
        <time>2023-08-20T14:21:47Z</time>
      </trkpt>
      <trkpt lat="44.52825" lon="2.31633">
        <ele>334.6</ele>
        <time>2023-08-20T14:21:48Z</time>
      </trkpt>
      <trkpt lat="44.52817" lon="2.31624">
        <ele>335.6</ele>
        <time>2023-08-20T14:21:49Z</time>
      </trkpt>
      <trkpt lat="44.52808" lon="2.31616">
        <ele>336.2</ele>
        <time>2023-08-20T14:21:50Z</time>
      </trkpt>
      <trkpt lat="44.52798" lon="2.31608">
        <ele>337</ele>
        <time>2023-08-20T14:21:51Z</time>
      </trkpt>
      <trkpt lat="44.52787" lon="2.31601">
        <ele>337.8</ele>
        <time>2023-08-20T14:21:52Z</time>
      </trkpt>
      <trkpt lat="44.52776" lon="2.31594">
        <ele>338</ele>
        <time>2023-08-20T14:21:53Z</time>
      </trkpt>
      <trkpt lat="44.52765" lon="2.31588">
        <ele>339.4</ele>
        <time>2023-08-20T14:21:54Z</time>
      </trkpt>
      <trkpt lat="44.52753" lon="2.31581">
        <ele>339.8</ele>
        <time>2023-08-20T14:21:55Z</time>
      </trkpt>
      <trkpt lat="44.52742" lon="2.31575">
        <ele>341.2</ele>
        <time>2023-08-20T14:21:56Z</time>
      </trkpt>
      <trkpt lat="44.52731" lon="2.3157">
        <ele>341.6</ele>
        <time>2023-08-20T14:21:57Z</time>
      </trkpt>
      <trkpt lat="44.52719" lon="2.31566">
        <ele>342.4</ele>
        <time>2023-08-20T14:21:58Z</time>
      </trkpt>
      <trkpt lat="44.52708" lon="2.31565">
        <ele>343.4</ele>
        <time>2023-08-20T14:21:59Z</time>
      </trkpt>
      <trkpt lat="44.52697" lon="2.31567">
        <ele>343.8</ele>
        <time>2023-08-20T14:22:00Z</time>
      </trkpt>
      <trkpt lat="44.52686" lon="2.31571">
        <ele>344.6</ele>
        <time>2023-08-20T14:22:01Z</time>
      </trkpt>
      <trkpt lat="44.52676" lon="2.31577">
        <ele>345</ele>
        <time>2023-08-20T14:22:02Z</time>
      </trkpt>
      <trkpt lat="44.52668" lon="2.31587">
        <ele>345.8</ele>
        <time>2023-08-20T14:22:03Z</time>
      </trkpt>
      <trkpt lat="44.52659" lon="2.31598">
        <ele>346.4</ele>
        <time>2023-08-20T14:22:04Z</time>
      </trkpt>
      <trkpt lat="44.5265" lon="2.31609">
        <ele>348.2</ele>
        <time>2023-08-20T14:22:05Z</time>
      </trkpt>
      <trkpt lat="44.5264" lon="2.31618">
        <ele>348.6</ele>
        <time>2023-08-20T14:22:06Z</time>
      </trkpt>
      <trkpt lat="44.5263" lon="2.31625">
        <ele>349.6</ele>
        <time>2023-08-20T14:22:07Z</time>
      </trkpt>
      <trkpt lat="44.52621" lon="2.3163">
        <ele>350.2</ele>
        <time>2023-08-20T14:22:08Z</time>
      </trkpt>
      <trkpt lat="44.52612" lon="2.31631">
        <ele>350.2</ele>
        <time>2023-08-20T14:22:09Z</time>
      </trkpt>
      <trkpt lat="44.52605" lon="2.31628">
        <ele>351.4</ele>
        <time>2023-08-20T14:22:10Z</time>
      </trkpt>
      <trkpt lat="44.52601" lon="2.31623">
        <ele>351.8</ele>
        <time>2023-08-20T14:22:11Z</time>
      </trkpt>
      <trkpt lat="44.52598" lon="2.31615">
        <ele>352.6</ele>
        <time>2023-08-20T14:22:12Z</time>
      </trkpt>
      <trkpt lat="44.52598" lon="2.31606">
        <ele>352.8</ele>
        <time>2023-08-20T14:22:13Z</time>
      </trkpt>
      <trkpt lat="44.52601" lon="2.31596">
        <ele>353.2</ele>
        <time>2023-08-20T14:22:14Z</time>
      </trkpt>
      <trkpt lat="44.52604" lon="2.31585">
        <ele>353.4</ele>
        <time>2023-08-20T14:22:15Z</time>
      </trkpt>
      <trkpt lat="44.52607" lon="2.31574">
        <ele>354.2</ele>
        <time>2023-08-20T14:22:16Z</time>
      </trkpt>
      <trkpt lat="44.5261" lon="2.31561">
        <ele>355.4</ele>
        <time>2023-08-20T14:22:17Z</time>
      </trkpt>
      <trkpt lat="44.52614" lon="2.31547">
        <ele>355.8</ele>
        <time>2023-08-20T14:22:18Z</time>
      </trkpt>
      <trkpt lat="44.52618" lon="2.31532">
        <ele>356.4</ele>
        <time>2023-08-20T14:22:19Z</time>
      </trkpt>
      <trkpt lat="44.52622" lon="2.31518">
        <ele>356.8</ele>
        <time>2023-08-20T14:22:20Z</time>
      </trkpt>
      <trkpt lat="44.52628" lon="2.31504">
        <ele>358</ele>
        <time>2023-08-20T14:22:21Z</time>
      </trkpt>
      <trkpt lat="44.52636" lon="2.31492">
        <ele>358.6</ele>
        <time>2023-08-20T14:22:22Z</time>
      </trkpt>
      <trkpt lat="44.52644" lon="2.31482">
        <ele>359.4</ele>
        <time>2023-08-20T14:22:23Z</time>
      </trkpt>
      <trkpt lat="44.52651" lon="2.31472">
        <ele>360</ele>
        <time>2023-08-20T14:22:24Z</time>
      </trkpt>
      <trkpt lat="44.52657" lon="2.31462">
        <ele>361.2</ele>
        <time>2023-08-20T14:22:25Z</time>
      </trkpt>
      <trkpt lat="44.52662" lon="2.31453">
        <ele>362.2</ele>
        <time>2023-08-20T14:22:26Z</time>
      </trkpt>
      <trkpt lat="44.52664" lon="2.31446">
        <ele>362.6</ele>
        <time>2023-08-20T14:22:27Z</time>
      </trkpt>
      <trkpt lat="44.52664" lon="2.3144">
        <ele>363.4</ele>
        <time>2023-08-20T14:22:28Z</time>
      </trkpt>
      <trkpt lat="44.52661" lon="2.31436">
        <ele>364</ele>
        <time>2023-08-20T14:22:29Z</time>
      </trkpt>
      <trkpt lat="44.52655" lon="2.31437">
        <ele>364.6</ele>
        <time>2023-08-20T14:22:30Z</time>
      </trkpt>
      <trkpt lat="44.52646" lon="2.3144">
        <ele>365</ele>
        <time>2023-08-20T14:22:31Z</time>
      </trkpt>
      <trkpt lat="44.52636" lon="2.31446">
        <ele>365.4</ele>
        <time>2023-08-20T14:22:32Z</time>
      </trkpt>
      <trkpt lat="44.52626" lon="2.31453">
        <ele>366.2</ele>
        <time>2023-08-20T14:22:33Z</time>
      </trkpt>
      <trkpt lat="44.52615" lon="2.31459">
        <ele>366.4</ele>
        <time>2023-08-20T14:22:34Z</time>
      </trkpt>
      <trkpt lat="44.52605" lon="2.31467">
        <ele>367</ele>
        <time>2023-08-20T14:22:35Z</time>
      </trkpt>
      <trkpt lat="44.52594" lon="2.31473">
        <ele>367.6</ele>
        <time>2023-08-20T14:22:36Z</time>
      </trkpt>
      <trkpt lat="44.52582" lon="2.3148">
        <ele>368.8</ele>
        <time>2023-08-20T14:22:37Z</time>
      </trkpt>
      <trkpt lat="44.52571" lon="2.31486">
        <ele>369.4</ele>
        <time>2023-08-20T14:22:38Z</time>
      </trkpt>
      <trkpt lat="44.52559" lon="2.31492">
        <ele>370.6</ele>
        <time>2023-08-20T14:22:39Z</time>
      </trkpt>
      <trkpt lat="44.52549" lon="2.31496">
        <ele>371.4</ele>
        <time>2023-08-20T14:22:40Z</time>
      </trkpt>
      <trkpt lat="44.52538" lon="2.31498">
        <ele>372.6</ele>
        <time>2023-08-20T14:22:41Z</time>
      </trkpt>
      <trkpt lat="44.52528" lon="2.31498">
        <ele>373.4</ele>
        <time>2023-08-20T14:22:42Z</time>
      </trkpt>
      <trkpt lat="44.5252" lon="2.31494">
        <ele>374.8</ele>
        <time>2023-08-20T14:22:43Z</time>
      </trkpt>
      <trkpt lat="44.52514" lon="2.31487">
        <ele>375.8</ele>
        <time>2023-08-20T14:22:44Z</time>
      </trkpt>
      <trkpt lat="44.52509" lon="2.31481">
        <ele>376.4</ele>
        <time>2023-08-20T14:22:45Z</time>
      </trkpt>
      <trkpt lat="44.525" lon="2.31469">
        <ele>377</ele>
        <time>2023-08-20T14:22:46Z</time>
      </trkpt>
      <trkpt lat="44.52491" lon="2.31458">
        <ele>377.2</ele>
        <time>2023-08-20T14:22:47Z</time>
      </trkpt>
      <trkpt lat="44.52483" lon="2.31447">
        <ele>378.8</ele>
        <time>2023-08-20T14:22:48Z</time>
      </trkpt>
      <trkpt lat="44.52474" lon="2.31435">
        <ele>379.2</ele>
        <time>2023-08-20T14:22:49Z</time>
      </trkpt>
      <trkpt lat="44.52465" lon="2.31423">
        <ele>380</ele>
        <time>2023-08-20T14:22:50Z</time>
      </trkpt>
      <trkpt lat="44.52456" lon="2.31409">
        <ele>380.6</ele>
        <time>2023-08-20T14:22:51Z</time>
      </trkpt>
      <trkpt lat="44.5245" lon="2.31395">
        <ele>381.6</ele>
        <time>2023-08-20T14:22:52Z</time>
      </trkpt>
      <trkpt lat="44.52445" lon="2.3138">
        <ele>382.6</ele>
        <time>2023-08-20T14:22:53Z</time>
      </trkpt>
      <trkpt lat="44.52441" lon="2.31365">
        <ele>383.2</ele>
        <time>2023-08-20T14:22:54Z</time>
      </trkpt>
      <trkpt lat="44.52438" lon="2.3135">
        <ele>384.6</ele>
        <time>2023-08-20T14:22:55Z</time>
      </trkpt>
      <trkpt lat="44.52438" lon="2.31335">
        <ele>385.4</ele>
        <time>2023-08-20T14:22:56Z</time>
      </trkpt>
      <trkpt lat="44.5244" lon="2.31319">
        <ele>386.4</ele>
        <time>2023-08-20T14:22:57Z</time>
      </trkpt>
      <trkpt lat="44.52443" lon="2.31303">
        <ele>387</ele>
        <time>2023-08-20T14:22:58Z</time>
      </trkpt>
      <trkpt lat="44.52445" lon="2.31289">
        <ele>387.6</ele>
        <time>2023-08-20T14:22:59Z</time>
      </trkpt>
      <trkpt lat="44.52446" lon="2.31274">
        <ele>388</ele>
        <time>2023-08-20T14:23:00Z</time>
      </trkpt>
      <trkpt lat="44.52445" lon="2.31259">
        <ele>389</ele>
        <time>2023-08-20T14:23:01Z</time>
      </trkpt>
      <trkpt lat="44.52441" lon="2.31245">
        <ele>390</ele>
        <time>2023-08-20T14:23:02Z</time>
      </trkpt>
      <trkpt lat="44.52436" lon="2.31231">
        <ele>390.6</ele>
        <time>2023-08-20T14:23:03Z</time>
      </trkpt>
      <trkpt lat="44.5243" lon="2.31219">
        <ele>391.6</ele>
        <time>2023-08-20T14:23:04Z</time>
      </trkpt>
      <trkpt lat="44.52422" lon="2.31207">
        <ele>391.8</ele>
        <time>2023-08-20T14:23:05Z</time>
      </trkpt>
      <trkpt lat="44.52413" lon="2.31196">
        <ele>392.6</ele>
        <time>2023-08-20T14:23:06Z</time>
      </trkpt>
      <trkpt lat="44.52404" lon="2.31186">
        <ele>393</ele>
        <time>2023-08-20T14:23:07Z</time>
      </trkpt>
      <trkpt lat="44.52394" lon="2.31177">
        <ele>393.8</ele>
        <time>2023-08-20T14:23:08Z</time>
      </trkpt>
      <trkpt lat="44.52385" lon="2.31169">
        <ele>394.6</ele>
        <time>2023-08-20T14:23:09Z</time>
      </trkpt>
      <trkpt lat="44.52376" lon="2.31161">
        <ele>395.8</ele>
        <time>2023-08-20T14:23:10Z</time>
      </trkpt>
      <trkpt lat="44.52367" lon="2.31154">
        <ele>396.6</ele>
        <time>2023-08-20T14:23:11Z</time>
      </trkpt>
      <trkpt lat="44.52359" lon="2.31145">
        <ele>397</ele>
        <time>2023-08-20T14:23:12Z</time>
      </trkpt>
      <trkpt lat="44.52351" lon="2.31133">
        <ele>398.2</ele>
        <time>2023-08-20T14:23:13Z</time>
      </trkpt>
      <trkpt lat="44.52344" lon="2.31121">
        <ele>398.8</ele>
        <time>2023-08-20T14:23:14Z</time>
      </trkpt>
      <trkpt lat="44.52338" lon="2.31107">
        <ele>399.4</ele>
        <time>2023-08-20T14:23:15Z</time>
      </trkpt>
      <trkpt lat="44.52333" lon="2.31094">
        <ele>399.8</ele>
        <time>2023-08-20T14:23:16Z</time>
      </trkpt>
      <trkpt lat="44.52329" lon="2.31081">
        <ele>400.8</ele>
        <time>2023-08-20T14:23:17Z</time>
      </trkpt>
      <trkpt lat="44.52326" lon="2.31069">
        <ele>402</ele>
        <time>2023-08-20T14:23:18Z</time>
      </trkpt>
      <trkpt lat="44.52322" lon="2.31057">
        <ele>402.6</ele>
        <time>2023-08-20T14:23:19Z</time>
      </trkpt>
      <trkpt lat="44.52317" lon="2.31044">
        <ele>403.4</ele>
        <time>2023-08-20T14:23:20Z</time>
      </trkpt>
      <trkpt lat="44.52312" lon="2.31032">
        <ele>403.8</ele>
        <time>2023-08-20T14:23:21Z</time>
      </trkpt>
      <trkpt lat="44.52306" lon="2.31023">
        <ele>405.2</ele>
        <time>2023-08-20T14:23:22Z</time>
      </trkpt>
      <trkpt lat="44.52299" lon="2.31016">
        <ele>405.4</ele>
        <time>2023-08-20T14:23:23Z</time>
      </trkpt>
      <trkpt lat="44.52291" lon="2.31013">
        <ele>406.4</ele>
        <time>2023-08-20T14:23:24Z</time>
      </trkpt>
      <trkpt lat="44.52282" lon="2.31013">
        <ele>407</ele>
        <time>2023-08-20T14:23:25Z</time>
      </trkpt>
      <trkpt lat="44.52274" lon="2.31016">
        <ele>407.8</ele>
        <time>2023-08-20T14:23:26Z</time>
      </trkpt>
      <trkpt lat="44.52265" lon="2.31018">
        <ele>408.2</ele>
        <time>2023-08-20T14:23:27Z</time>
      </trkpt>
      <trkpt lat="44.52256" lon="2.3102">
        <ele>408.4</ele>
        <time>2023-08-20T14:23:28Z</time>
      </trkpt>
      <trkpt lat="44.52248" lon="2.31022">
        <ele>408.6</ele>
        <time>2023-08-20T14:23:29Z</time>
      </trkpt>
      <trkpt lat="44.52239" lon="2.31022">
        <ele>408.6</ele>
        <time>2023-08-20T14:23:30Z</time>
      </trkpt>
      <trkpt lat="44.5223" lon="2.3102">
        <ele>408.6</ele>
        <time>2023-08-20T14:23:31Z</time>
      </trkpt>
      <trkpt lat="44.52221" lon="2.31015">
        <ele>408.6</ele>
        <time>2023-08-20T14:23:32Z</time>
      </trkpt>
      <trkpt lat="44.52212" lon="2.31008">
        <ele>408.8</ele>
        <time>2023-08-20T14:23:33Z</time>
      </trkpt>
      <trkpt lat="44.52202" lon="2.31001">
        <ele>408.8</ele>
        <time>2023-08-20T14:23:34Z</time>
      </trkpt>
      <trkpt lat="44.52192" lon="2.30996">
        <ele>408.6</ele>
        <time>2023-08-20T14:23:35Z</time>
      </trkpt>
      <trkpt lat="44.52181" lon="2.30992">
        <ele>408.6</ele>
        <time>2023-08-20T14:23:36Z</time>
      </trkpt>
      <trkpt lat="44.52172" lon="2.30993">
        <ele>408.6</ele>
        <time>2023-08-20T14:23:37Z</time>
      </trkpt>
      <trkpt lat="44.52163" lon="2.30996">
        <ele>408.4</ele>
        <time>2023-08-20T14:23:38Z</time>
      </trkpt>
      <trkpt lat="44.52155" lon="2.31002">
        <ele>408.4</ele>
        <time>2023-08-20T14:23:39Z</time>
      </trkpt>
      <trkpt lat="44.52148" lon="2.31009">
        <ele>408.2</ele>
        <time>2023-08-20T14:23:40Z</time>
      </trkpt>
      <trkpt lat="44.52142" lon="2.31014">
        <ele>408.2</ele>
        <time>2023-08-20T14:23:41Z</time>
      </trkpt>
      <trkpt lat="44.52137" lon="2.31018">
        <ele>407.8</ele>
        <time>2023-08-20T14:23:42Z</time>
      </trkpt>
      <trkpt lat="44.52133" lon="2.31022">
        <ele>407.6</ele>
        <time>2023-08-20T14:23:43Z</time>
      </trkpt>
      <trkpt lat="44.5213" lon="2.31024">
        <ele>407.4</ele>
        <time>2023-08-20T14:23:44Z</time>
      </trkpt>
      <trkpt lat="44.52128" lon="2.31027">
        <ele>407</ele>
        <time>2023-08-20T14:23:45Z</time>
      </trkpt>
      <trkpt lat="44.52126" lon="2.3103">
        <ele>407</ele>
        <time>2023-08-20T14:23:46Z</time>
      </trkpt>
      <trkpt lat="44.52124" lon="2.31032">
        <ele>406.6</ele>
        <time>2023-08-20T14:23:47Z</time>
      </trkpt>
      <trkpt lat="44.52122" lon="2.31033">
        <ele>406.6</ele>
        <time>2023-08-20T14:23:48Z</time>
      </trkpt>
      <trkpt lat="44.5212" lon="2.31035">
        <ele>406.2</ele>
        <time>2023-08-20T14:23:49Z</time>
      </trkpt>
      <trkpt lat="44.52119" lon="2.31038">
        <ele>406</ele>
        <time>2023-08-20T14:23:50Z</time>
      </trkpt>
      <trkpt lat="44.52118" lon="2.31043">
        <ele>405.8</ele>
        <time>2023-08-20T14:23:51Z</time>
      </trkpt>
      <trkpt lat="44.52119" lon="2.31049">
        <ele>405.6</ele>
        <time>2023-08-20T14:23:52Z</time>
      </trkpt>
      <trkpt lat="44.52123" lon="2.31054">
        <ele>405.6</ele>
        <time>2023-08-20T14:23:53Z</time>
      </trkpt>
      <trkpt lat="44.52133" lon="2.31068">
        <ele>405.6</ele>
        <time>2023-08-20T14:23:55Z</time>
      </trkpt>
      <trkpt lat="44.52139" lon="2.3108">
        <ele>405.6</ele>
        <time>2023-08-20T14:23:56Z</time>
      </trkpt>
      <trkpt lat="44.52144" lon="2.31094">
        <ele>405.6</ele>
        <time>2023-08-20T14:23:57Z</time>
      </trkpt>
      <trkpt lat="44.52149" lon="2.31129">
        <ele>406</ele>
        <time>2023-08-20T14:23:59Z</time>
      </trkpt>
      <trkpt lat="44.52146" lon="2.31149">
        <ele>406.4</ele>
        <time>2023-08-20T14:24:00Z</time>
      </trkpt>
      <trkpt lat="44.52141" lon="2.31169">
        <ele>407.2</ele>
        <time>2023-08-20T14:24:01Z</time>
      </trkpt>
      <trkpt lat="44.52132" lon="2.31184">
        <ele>408</ele>
        <time>2023-08-20T14:24:02Z</time>
      </trkpt>
      <trkpt lat="44.52122" lon="2.31197">
        <ele>409</ele>
        <time>2023-08-20T14:24:03Z</time>
      </trkpt>
      <trkpt lat="44.52096" lon="2.31213">
        <ele>410.8</ele>
        <time>2023-08-20T14:24:05Z</time>
      </trkpt>
      <trkpt lat="44.52081" lon="2.31219">
        <ele>411.2</ele>
        <time>2023-08-20T14:24:06Z</time>
      </trkpt>
      <trkpt lat="44.52068" lon="2.31226">
        <ele>411.8</ele>
        <time>2023-08-20T14:24:07Z</time>
      </trkpt>
      <trkpt lat="44.52044" lon="2.31247">
        <ele>413.2</ele>
        <time>2023-08-20T14:24:09Z</time>
      </trkpt>
      <trkpt lat="44.52034" lon="2.31259">
        <ele>414</ele>
        <time>2023-08-20T14:24:10Z</time>
      </trkpt>
      <trkpt lat="44.52025" lon="2.31273">
        <ele>415</ele>
        <time>2023-08-20T14:24:11Z</time>
      </trkpt>
      <trkpt lat="44.52016" lon="2.31287">
        <ele>415.8</ele>
        <time>2023-08-20T14:24:12Z</time>
      </trkpt>
      <trkpt lat="44.52006" lon="2.31301">
        <ele>416.2</ele>
        <time>2023-08-20T14:24:13Z</time>
      </trkpt>
      <trkpt lat="44.51995" lon="2.31313">
        <ele>417.2</ele>
        <time>2023-08-20T14:24:14Z</time>
      </trkpt>
      <trkpt lat="44.51984" lon="2.31324">
        <ele>417.4</ele>
        <time>2023-08-20T14:24:15Z</time>
      </trkpt>
      <trkpt lat="44.51971" lon="2.31332">
        <ele>418</ele>
        <time>2023-08-20T14:24:16Z</time>
      </trkpt>
      <trkpt lat="44.51957" lon="2.31339">
        <ele>418.2</ele>
        <time>2023-08-20T14:24:17Z</time>
      </trkpt>
      <trkpt lat="44.51944" lon="2.31345">
        <ele>419</ele>
        <time>2023-08-20T14:24:18Z</time>
      </trkpt>
      <trkpt lat="44.51931" lon="2.3135">
        <ele>419.6</ele>
        <time>2023-08-20T14:24:19Z</time>
      </trkpt>
      <trkpt lat="44.51918" lon="2.31356">
        <ele>420.2</ele>
        <time>2023-08-20T14:24:20Z</time>
      </trkpt>
      <trkpt lat="44.51907" lon="2.31361">
        <ele>421</ele>
        <time>2023-08-20T14:24:21Z</time>
      </trkpt>
      <trkpt lat="44.51896" lon="2.31367">
        <ele>421.6</ele>
        <time>2023-08-20T14:24:22Z</time>
      </trkpt>
      <trkpt lat="44.51885" lon="2.31376">
        <ele>422.4</ele>
        <time>2023-08-20T14:24:23Z</time>
      </trkpt>
      <trkpt lat="44.51876" lon="2.31388">
        <ele>422.6</ele>
        <time>2023-08-20T14:24:24Z</time>
      </trkpt>
      <trkpt lat="44.51866" lon="2.31401">
        <ele>423</ele>
        <time>2023-08-20T14:24:25Z</time>
      </trkpt>
      <trkpt lat="44.51857" lon="2.31414">
        <ele>423</ele>
        <time>2023-08-20T14:24:26Z</time>
      </trkpt>
      <trkpt lat="44.51848" lon="2.31427">
        <ele>423.6</ele>
        <time>2023-08-20T14:24:27Z</time>
      </trkpt>
      <trkpt lat="44.51839" lon="2.31438">
        <ele>423.8</ele>
        <time>2023-08-20T14:24:28Z</time>
      </trkpt>
      <trkpt lat="44.51828" lon="2.31448">
        <ele>424.4</ele>
        <time>2023-08-20T14:24:29Z</time>
      </trkpt>
      <trkpt lat="44.51816" lon="2.31456">
        <ele>425</ele>
        <time>2023-08-20T14:24:30Z</time>
      </trkpt>
      <trkpt lat="44.51804" lon="2.31461">
        <ele>425.2</ele>
        <time>2023-08-20T14:24:31Z</time>
      </trkpt>
      <trkpt lat="44.51791" lon="2.31466">
        <ele>425.6</ele>
        <time>2023-08-20T14:24:32Z</time>
      </trkpt>
      <trkpt lat="44.51779" lon="2.3147">
        <ele>425.6</ele>
        <time>2023-08-20T14:24:33Z</time>
      </trkpt>
      <trkpt lat="44.51767" lon="2.31474">
        <ele>426</ele>
        <time>2023-08-20T14:24:34Z</time>
      </trkpt>
      <trkpt lat="44.51755" lon="2.31479">
        <ele>426</ele>
        <time>2023-08-20T14:24:35Z</time>
      </trkpt>
      <trkpt lat="44.51743" lon="2.31483">
        <ele>426.2</ele>
        <time>2023-08-20T14:24:36Z</time>
      </trkpt>
      <trkpt lat="44.51731" lon="2.31486">
        <ele>426.4</ele>
        <time>2023-08-20T14:24:37Z</time>
      </trkpt>
      <trkpt lat="44.5172" lon="2.3149">
        <ele>426.4</ele>
        <time>2023-08-20T14:24:38Z</time>
      </trkpt>
      <trkpt lat="44.51709" lon="2.31492">
        <ele>426.4</ele>
        <time>2023-08-20T14:24:39Z</time>
      </trkpt>
      <trkpt lat="44.51699" lon="2.3149">
        <ele>426.4</ele>
        <time>2023-08-20T14:24:40Z</time>
      </trkpt>
      <trkpt lat="44.5169" lon="2.31485">
        <ele>426.4</ele>
        <time>2023-08-20T14:24:41Z</time>
      </trkpt>
      <trkpt lat="44.51682" lon="2.31477">
        <ele>426.4</ele>
        <time>2023-08-20T14:24:42Z</time>
      </trkpt>
      <trkpt lat="44.51674" lon="2.31469">
        <ele>426.2</ele>
        <time>2023-08-20T14:24:43Z</time>
      </trkpt>
      <trkpt lat="44.51664" lon="2.3146">
        <ele>426.2</ele>
        <time>2023-08-20T14:24:44Z</time>
      </trkpt>
      <trkpt lat="44.51653" lon="2.31453">
        <ele>426</ele>
        <time>2023-08-20T14:24:45Z</time>
      </trkpt>
      <trkpt lat="44.51642" lon="2.31447">
        <ele>426</ele>
        <time>2023-08-20T14:24:46Z</time>
      </trkpt>
      <trkpt lat="44.51629" lon="2.31442">
        <ele>425.8</ele>
        <time>2023-08-20T14:24:47Z</time>
      </trkpt>
      <trkpt lat="44.51616" lon="2.31439">
        <ele>425.6</ele>
        <time>2023-08-20T14:24:48Z</time>
      </trkpt>
      <trkpt lat="44.51602" lon="2.31437">
        <ele>425.4</ele>
        <time>2023-08-20T14:24:49Z</time>
      </trkpt>
      <trkpt lat="44.51588" lon="2.31437">
        <ele>425.4</ele>
        <time>2023-08-20T14:24:50Z</time>
      </trkpt>
      <trkpt lat="44.51575" lon="2.31438">
        <ele>425.2</ele>
        <time>2023-08-20T14:24:51Z</time>
      </trkpt>
      <trkpt lat="44.51561" lon="2.31441">
        <ele>424.6</ele>
        <time>2023-08-20T14:24:52Z</time>
      </trkpt>
      <trkpt lat="44.51548" lon="2.31445">
        <ele>424.6</ele>
        <time>2023-08-20T14:24:53Z</time>
      </trkpt>
      <trkpt lat="44.51534" lon="2.3145">
        <ele>424.4</ele>
        <time>2023-08-20T14:24:54Z</time>
      </trkpt>
      <trkpt lat="44.51524" lon="2.31455">
        <ele>424.2</ele>
        <time>2023-08-20T14:24:55Z</time>
      </trkpt>
      <trkpt lat="44.51512" lon="2.31459">
        <ele>424</ele>
        <time>2023-08-20T14:24:56Z</time>
      </trkpt>
      <trkpt lat="44.51498" lon="2.31464">
        <ele>423.8</ele>
        <time>2023-08-20T14:24:57Z</time>
      </trkpt>
      <trkpt lat="44.51485" lon="2.31465">
        <ele>423.6</ele>
        <time>2023-08-20T14:24:58Z</time>
      </trkpt>
      <trkpt lat="44.51472" lon="2.31466">
        <ele>423</ele>
        <time>2023-08-20T14:24:59Z</time>
      </trkpt>
      <trkpt lat="44.51459" lon="2.31466">
        <ele>422.8</ele>
        <time>2023-08-20T14:25:00Z</time>
      </trkpt>
      <trkpt lat="44.51446" lon="2.31469">
        <ele>422.2</ele>
        <time>2023-08-20T14:25:01Z</time>
      </trkpt>
      <trkpt lat="44.51434" lon="2.31472">
        <ele>422</ele>
        <time>2023-08-20T14:25:02Z</time>
      </trkpt>
      <trkpt lat="44.51398" lon="2.31489">
        <ele>420.8</ele>
        <time>2023-08-20T14:25:05Z</time>
      </trkpt>
      <trkpt lat="44.51386" lon="2.31496">
        <ele>420</ele>
        <time>2023-08-20T14:25:06Z</time>
      </trkpt>
      <trkpt lat="44.51375" lon="2.31504">
        <ele>419.6</ele>
        <time>2023-08-20T14:25:07Z</time>
      </trkpt>
      <trkpt lat="44.51356" lon="2.31524">
        <ele>418.8</ele>
        <time>2023-08-20T14:25:09Z</time>
      </trkpt>
      <trkpt lat="44.51348" lon="2.31537">
        <ele>418.2</ele>
        <time>2023-08-20T14:25:10Z</time>
      </trkpt>
      <trkpt lat="44.51341" lon="2.31551">
        <ele>418.2</ele>
        <time>2023-08-20T14:25:11Z</time>
      </trkpt>
      <trkpt lat="44.51335" lon="2.31567">
        <ele>417.4</ele>
        <time>2023-08-20T14:25:12Z</time>
      </trkpt>
      <trkpt lat="44.51329" lon="2.31584">
        <ele>417.2</ele>
        <time>2023-08-20T14:25:13Z</time>
      </trkpt>
      <trkpt lat="44.51324" lon="2.3162">
        <ele>416.4</ele>
        <time>2023-08-20T14:25:15Z</time>
      </trkpt>
      <trkpt lat="44.51312" lon="2.317">
        <ele>416</ele>
        <time>2023-08-20T14:25:19Z</time>
      </trkpt>
      <trkpt lat="44.51307" lon="2.31717">
        <ele>416</ele>
        <time>2023-08-20T14:25:20Z</time>
      </trkpt>
      <trkpt lat="44.513" lon="2.31734">
        <ele>416</ele>
        <time>2023-08-20T14:25:21Z</time>
      </trkpt>
      <trkpt lat="44.51292" lon="2.3175">
        <ele>416</ele>
        <time>2023-08-20T14:25:22Z</time>
      </trkpt>
      <trkpt lat="44.51252" lon="2.31811">
        <ele>416.4</ele>
        <time>2023-08-20T14:25:26Z</time>
      </trkpt>
      <trkpt lat="44.51225" lon="2.31862">
        <ele>416.8</ele>
        <time>2023-08-20T14:25:29Z</time>
      </trkpt>
      <trkpt lat="44.51218" lon="2.3188">
        <ele>417.2</ele>
        <time>2023-08-20T14:25:30Z</time>
      </trkpt>
      <trkpt lat="44.51212" lon="2.31898">
        <ele>417.4</ele>
        <time>2023-08-20T14:25:31Z</time>
      </trkpt>
      <trkpt lat="44.51207" lon="2.31915">
        <ele>417.8</ele>
        <time>2023-08-20T14:25:32Z</time>
      </trkpt>
      <trkpt lat="44.51201" lon="2.31931">
        <ele>418</ele>
        <time>2023-08-20T14:25:33Z</time>
      </trkpt>
      <trkpt lat="44.51194" lon="2.31946">
        <ele>418.2</ele>
        <time>2023-08-20T14:25:34Z</time>
      </trkpt>
      <trkpt lat="44.51187" lon="2.31959">
        <ele>418.4</ele>
        <time>2023-08-20T14:25:35Z</time>
      </trkpt>
      <trkpt lat="44.51179" lon="2.31969">
        <ele>418.6</ele>
        <time>2023-08-20T14:25:36Z</time>
      </trkpt>
      <trkpt lat="44.5117" lon="2.31977">
        <ele>418.8</ele>
        <time>2023-08-20T14:25:37Z</time>
      </trkpt>
      <trkpt lat="44.51159" lon="2.31982">
        <ele>418.8</ele>
        <time>2023-08-20T14:25:38Z</time>
      </trkpt>
      <trkpt lat="44.51149" lon="2.31985">
        <ele>419</ele>
        <time>2023-08-20T14:25:39Z</time>
      </trkpt>
      <trkpt lat="44.51137" lon="2.31986">
        <ele>419</ele>
        <time>2023-08-20T14:25:40Z</time>
      </trkpt>
      <trkpt lat="44.51125" lon="2.31985">
        <ele>419.2</ele>
        <time>2023-08-20T14:25:41Z</time>
      </trkpt>
      <trkpt lat="44.51112" lon="2.31985">
        <ele>419.2</ele>
        <time>2023-08-20T14:25:42Z</time>
      </trkpt>
      <trkpt lat="44.51098" lon="2.31986">
        <ele>419.2</ele>
        <time>2023-08-20T14:25:43Z</time>
      </trkpt>
      <trkpt lat="44.51071" lon="2.31994">
        <ele>419.2</ele>
        <time>2023-08-20T14:25:45Z</time>
      </trkpt>
      <trkpt lat="44.51046" lon="2.32012">
        <ele>419.2</ele>
        <time>2023-08-20T14:25:47Z</time>
      </trkpt>
      <trkpt lat="44.51035" lon="2.32023">
        <ele>419.2</ele>
        <time>2023-08-20T14:25:48Z</time>
      </trkpt>
      <trkpt lat="44.51015" lon="2.32046">
        <ele>418.6</ele>
        <time>2023-08-20T14:25:50Z</time>
      </trkpt>
      <trkpt lat="44.51006" lon="2.32059">
        <ele>418.4</ele>
        <time>2023-08-20T14:25:51Z</time>
      </trkpt>
      <trkpt lat="44.50996" lon="2.32073">
        <ele>418</ele>
        <time>2023-08-20T14:25:52Z</time>
      </trkpt>
      <trkpt lat="44.50978" lon="2.32105">
        <ele>417.6</ele>
        <time>2023-08-20T14:25:54Z</time>
      </trkpt>
      <trkpt lat="44.5097" lon="2.32123">
        <ele>417.4</ele>
        <time>2023-08-20T14:25:55Z</time>
      </trkpt>
      <trkpt lat="44.50952" lon="2.32186">
        <ele>416.8</ele>
        <time>2023-08-20T14:25:58Z</time>
      </trkpt>
      <trkpt lat="44.50942" lon="2.32232">
        <ele>416.4</ele>
        <time>2023-08-20T14:26:00Z</time>
      </trkpt>
      <trkpt lat="44.50933" lon="2.3228">
        <ele>414.8</ele>
        <time>2023-08-20T14:26:02Z</time>
      </trkpt>
      <trkpt lat="44.50931" lon="2.32304">
        <ele>414.6</ele>
        <time>2023-08-20T14:26:03Z</time>
      </trkpt>
      <trkpt lat="44.50928" lon="2.3235">
        <ele>413.8</ele>
        <time>2023-08-20T14:26:05Z</time>
      </trkpt>
      <trkpt lat="44.50926" lon="2.32371">
        <ele>413.6</ele>
        <time>2023-08-20T14:26:06Z</time>
      </trkpt>
      <trkpt lat="44.50923" lon="2.32392">
        <ele>413.4</ele>
        <time>2023-08-20T14:26:07Z</time>
      </trkpt>
      <trkpt lat="44.50918" lon="2.32411">
        <ele>412.6</ele>
        <time>2023-08-20T14:26:08Z</time>
      </trkpt>
      <trkpt lat="44.50912" lon="2.3243">
        <ele>412.2</ele>
        <time>2023-08-20T14:26:09Z</time>
      </trkpt>
      <trkpt lat="44.50905" lon="2.32448">
        <ele>411.2</ele>
        <time>2023-08-20T14:26:10Z</time>
      </trkpt>
      <trkpt lat="44.50898" lon="2.32464">
        <ele>410.2</ele>
        <time>2023-08-20T14:26:11Z</time>
      </trkpt>
      <trkpt lat="44.50891" lon="2.32481">
        <ele>410</ele>
        <time>2023-08-20T14:26:12Z</time>
      </trkpt>
      <trkpt lat="44.50883" lon="2.32497">
        <ele>409.2</ele>
        <time>2023-08-20T14:26:13Z</time>
      </trkpt>
      <trkpt lat="44.50877" lon="2.32512">
        <ele>409</ele>
        <time>2023-08-20T14:26:14Z</time>
      </trkpt>
      <trkpt lat="44.5087" lon="2.32527">
        <ele>408.4</ele>
        <time>2023-08-20T14:26:15Z</time>
      </trkpt>
      <trkpt lat="44.50864" lon="2.32541">
        <ele>408.2</ele>
        <time>2023-08-20T14:26:16Z</time>
      </trkpt>
      <trkpt lat="44.50858" lon="2.32555">
        <ele>407.4</ele>
        <time>2023-08-20T14:26:17Z</time>
      </trkpt>
      <trkpt lat="44.50852" lon="2.32568">
        <ele>407</ele>
        <time>2023-08-20T14:26:18Z</time>
      </trkpt>
      <trkpt lat="44.50846" lon="2.3258">
        <ele>406.4</ele>
        <time>2023-08-20T14:26:19Z</time>
      </trkpt>
      <trkpt lat="44.50841" lon="2.32592">
        <ele>405.8</ele>
        <time>2023-08-20T14:26:20Z</time>
      </trkpt>
      <trkpt lat="44.50835" lon="2.32603">
        <ele>405.6</ele>
        <time>2023-08-20T14:26:21Z</time>
      </trkpt>
      <trkpt lat="44.50828" lon="2.32615">
        <ele>405.2</ele>
        <time>2023-08-20T14:26:22Z</time>
      </trkpt>
      <trkpt lat="44.50822" lon="2.32626">
        <ele>404.8</ele>
        <time>2023-08-20T14:26:23Z</time>
      </trkpt>
      <trkpt lat="44.50815" lon="2.32637">
        <ele>404.6</ele>
        <time>2023-08-20T14:26:24Z</time>
      </trkpt>
      <trkpt lat="44.50794" lon="2.32665">
        <ele>404.2</ele>
        <time>2023-08-20T14:26:27Z</time>
      </trkpt>
      <trkpt lat="44.50787" lon="2.32672">
        <ele>404</ele>
        <time>2023-08-20T14:26:28Z</time>
      </trkpt>
      <trkpt lat="44.50781" lon="2.32679">
        <ele>403.8</ele>
        <time>2023-08-20T14:26:29Z</time>
      </trkpt>
      <trkpt lat="44.50774" lon="2.32686">
        <ele>403.6</ele>
        <time>2023-08-20T14:26:30Z</time>
      </trkpt>
      <trkpt lat="44.50768" lon="2.32694">
        <ele>403.4</ele>
        <time>2023-08-20T14:26:31Z</time>
      </trkpt>
      <trkpt lat="44.50761" lon="2.32701">
        <ele>403.4</ele>
        <time>2023-08-20T14:26:32Z</time>
      </trkpt>
      <trkpt lat="44.50754" lon="2.32708">
        <ele>403</ele>
        <time>2023-08-20T14:26:33Z</time>
      </trkpt>
      <trkpt lat="44.50733" lon="2.32725">
        <ele>402.4</ele>
        <time>2023-08-20T14:26:36Z</time>
      </trkpt>
      <trkpt lat="44.50725" lon="2.32729">
        <ele>401.8</ele>
        <time>2023-08-20T14:26:37Z</time>
      </trkpt>
      <trkpt lat="44.50711" lon="2.32734">
        <ele>401.4</ele>
        <time>2023-08-20T14:26:39Z</time>
      </trkpt>
      <trkpt lat="44.50701" lon="2.32737">
        <ele>400.8</ele>
        <time>2023-08-20T14:26:40Z</time>
      </trkpt>
      <trkpt lat="44.50692" lon="2.32739">
        <ele>400.2</ele>
        <time>2023-08-20T14:26:41Z</time>
      </trkpt>
      <trkpt lat="44.50674" lon="2.32742">
        <ele>399</ele>
        <time>2023-08-20T14:26:43Z</time>
      </trkpt>
      <trkpt lat="44.50654" lon="2.32743">
        <ele>398.2</ele>
        <time>2023-08-20T14:26:45Z</time>
      </trkpt>
      <trkpt lat="44.50644" lon="2.32742">
        <ele>397.4</ele>
        <time>2023-08-20T14:26:46Z</time>
      </trkpt>
      <trkpt lat="44.50634" lon="2.32739">
        <ele>396.8</ele>
        <time>2023-08-20T14:26:47Z</time>
      </trkpt>
      <trkpt lat="44.50614" lon="2.32733">
        <ele>396</ele>
        <time>2023-08-20T14:26:49Z</time>
      </trkpt>
      <trkpt lat="44.50577" lon="2.32724">
        <ele>394.8</ele>
        <time>2023-08-20T14:26:52Z</time>
      </trkpt>
      <trkpt lat="44.50565" lon="2.32721">
        <ele>394</ele>
        <time>2023-08-20T14:26:53Z</time>
      </trkpt>
      <trkpt lat="44.50556" lon="2.32719">
        <ele>393.6</ele>
        <time>2023-08-20T14:26:54Z</time>
      </trkpt>
      <trkpt lat="44.50544" lon="2.32716">
        <ele>392.6</ele>
        <time>2023-08-20T14:26:55Z</time>
      </trkpt>
      <trkpt lat="44.50518" lon="2.3271">
        <ele>391.4</ele>
        <time>2023-08-20T14:26:57Z</time>
      </trkpt>
      <trkpt lat="44.50508" lon="2.32706">
        <ele>390.8</ele>
        <time>2023-08-20T14:26:58Z</time>
      </trkpt>
      <trkpt lat="44.50498" lon="2.32704">
        <ele>390.2</ele>
        <time>2023-08-20T14:26:59Z</time>
      </trkpt>
      <trkpt lat="44.5049" lon="2.32701">
        <ele>389.2</ele>
        <time>2023-08-20T14:27:00Z</time>
      </trkpt>
      <trkpt lat="44.50483" lon="2.32699">
        <ele>388.6</ele>
        <time>2023-08-20T14:27:01Z</time>
      </trkpt>
      <trkpt lat="44.50475" lon="2.32699">
        <ele>387.6</ele>
        <time>2023-08-20T14:27:02Z</time>
      </trkpt>
      <trkpt lat="44.50469" lon="2.327">
        <ele>387.2</ele>
        <time>2023-08-20T14:27:03Z</time>
      </trkpt>
      <trkpt lat="44.50462" lon="2.32702">
        <ele>386</ele>
        <time>2023-08-20T14:27:04Z</time>
      </trkpt>
      <trkpt lat="44.50456" lon="2.32704">
        <ele>384.6</ele>
        <time>2023-08-20T14:27:05Z</time>
      </trkpt>
      <trkpt lat="44.50449" lon="2.32704">
        <ele>384</ele>
        <time>2023-08-20T14:27:06Z</time>
      </trkpt>
      <trkpt lat="44.50443" lon="2.32704">
        <ele>382.6</ele>
        <time>2023-08-20T14:27:07Z</time>
      </trkpt>
      <trkpt lat="44.50438" lon="2.32704">
        <ele>381.8</ele>
        <time>2023-08-20T14:27:08Z</time>
      </trkpt>
      <trkpt lat="44.50432" lon="2.32704">
        <ele>380.8</ele>
        <time>2023-08-20T14:27:09Z</time>
      </trkpt>
      <trkpt lat="44.50427" lon="2.32705">
        <ele>380.2</ele>
        <time>2023-08-20T14:27:10Z</time>
      </trkpt>
      <trkpt lat="44.50421" lon="2.32705">
        <ele>379.2</ele>
        <time>2023-08-20T14:27:11Z</time>
      </trkpt>
      <trkpt lat="44.50416" lon="2.32705">
        <ele>378.8</ele>
        <time>2023-08-20T14:27:12Z</time>
      </trkpt>
      <trkpt lat="44.50411" lon="2.32703">
        <ele>378</ele>
        <time>2023-08-20T14:27:13Z</time>
      </trkpt>
      <trkpt lat="44.50406" lon="2.32702">
        <ele>377.6</ele>
        <time>2023-08-20T14:27:14Z</time>
      </trkpt>
      <trkpt lat="44.50401" lon="2.327">
        <ele>377.2</ele>
        <time>2023-08-20T14:27:15Z</time>
      </trkpt>
      <trkpt lat="44.50396" lon="2.32697">
        <ele>376.6</ele>
        <time>2023-08-20T14:27:16Z</time>
      </trkpt>
      <trkpt lat="44.50393" lon="2.32692">
        <ele>376.4</ele>
        <time>2023-08-20T14:27:17Z</time>
      </trkpt>
      <trkpt lat="44.50391" lon="2.32688">
        <ele>375.8</ele>
        <time>2023-08-20T14:27:18Z</time>
      </trkpt>
      <trkpt lat="44.5039" lon="2.32682">
        <ele>375.8</ele>
        <time>2023-08-20T14:27:19Z</time>
      </trkpt>
      <trkpt lat="44.50391" lon="2.32677">
        <ele>375.4</ele>
        <time>2023-08-20T14:27:20Z</time>
      </trkpt>
      <trkpt lat="44.50394" lon="2.32673">
        <ele>375.2</ele>
        <time>2023-08-20T14:27:21Z</time>
      </trkpt>
      <trkpt lat="44.50398" lon="2.3267">
        <ele>374.8</ele>
        <time>2023-08-20T14:27:22Z</time>
      </trkpt>
      <trkpt lat="44.50404" lon="2.32667">
        <ele>374.6</ele>
        <time>2023-08-20T14:27:23Z</time>
      </trkpt>
      <trkpt lat="44.50417" lon="2.32661">
        <ele>374.2</ele>
        <time>2023-08-20T14:27:25Z</time>
      </trkpt>
      <trkpt lat="44.50423" lon="2.32658">
        <ele>374.2</ele>
        <time>2023-08-20T14:27:26Z</time>
      </trkpt>
      <trkpt lat="44.50435" lon="2.32651">
        <ele>374</ele>
        <time>2023-08-20T14:27:28Z</time>
      </trkpt>
      <trkpt lat="44.50441" lon="2.32648">
        <ele>373.8</ele>
        <time>2023-08-20T14:27:29Z</time>
      </trkpt>
      <trkpt lat="44.50465" lon="2.32638">
        <ele>373.4</ele>
        <time>2023-08-20T14:27:33Z</time>
      </trkpt>
      <trkpt lat="44.5047" lon="2.32634">
        <ele>373.4</ele>
        <time>2023-08-20T14:27:34Z</time>
      </trkpt>
      <trkpt lat="44.50472" lon="2.32629">
        <ele>373.2</ele>
        <time>2023-08-20T14:27:35Z</time>
      </trkpt>
      <trkpt lat="44.50473" lon="2.32622">
        <ele>373.2</ele>
        <time>2023-08-20T14:27:36Z</time>
      </trkpt>
      <trkpt lat="44.50473" lon="2.32615">
        <ele>373.2</ele>
        <time>2023-08-20T14:27:37Z</time>
      </trkpt>
      <trkpt lat="44.50472" lon="2.32608">
        <ele>373.2</ele>
        <time>2023-08-20T14:27:38Z</time>
      </trkpt>
      <trkpt lat="44.5047" lon="2.326">
        <ele>373.2</ele>
        <time>2023-08-20T14:27:39Z</time>
      </trkpt>
      <trkpt lat="44.50467" lon="2.32592">
        <ele>373.4</ele>
        <time>2023-08-20T14:27:40Z</time>
      </trkpt>
      <trkpt lat="44.50463" lon="2.32584">
        <ele>373.4</ele>
        <time>2023-08-20T14:27:41Z</time>
      </trkpt>
      <trkpt lat="44.50457" lon="2.32578">
        <ele>373.4</ele>
        <time>2023-08-20T14:27:42Z</time>
      </trkpt>
      <trkpt lat="44.5045" lon="2.32573">
        <ele>374</ele>
        <time>2023-08-20T14:27:43Z</time>
      </trkpt>
      <trkpt lat="44.50442" lon="2.32573">
        <ele>374.2</ele>
        <time>2023-08-20T14:27:44Z</time>
      </trkpt>
      <trkpt lat="44.50434" lon="2.32576">
        <ele>374.4</ele>
        <time>2023-08-20T14:27:45Z</time>
      </trkpt>
      <trkpt lat="44.50427" lon="2.32583">
        <ele>375</ele>
        <time>2023-08-20T14:27:46Z</time>
      </trkpt>
      <trkpt lat="44.50415" lon="2.32596">
        <ele>375.8</ele>
        <time>2023-08-20T14:27:48Z</time>
      </trkpt>
      <trkpt lat="44.5041" lon="2.32601">
        <ele>376.8</ele>
        <time>2023-08-20T14:27:49Z</time>
      </trkpt>
      <trkpt lat="44.50405" lon="2.32602">
        <ele>377.4</ele>
        <time>2023-08-20T14:27:50Z</time>
      </trkpt>
      <trkpt lat="44.50403" lon="2.32599">
        <ele>377.6</ele>
        <time>2023-08-20T14:27:51Z</time>
      </trkpt>
      <trkpt lat="44.50402" lon="2.32594">
        <ele>378.2</ele>
        <time>2023-08-20T14:27:52Z</time>
      </trkpt>
      <trkpt lat="44.50404" lon="2.32587">
        <ele>378.4</ele>
        <time>2023-08-20T14:27:53Z</time>
      </trkpt>
      <trkpt lat="44.50408" lon="2.32581">
        <ele>378.8</ele>
        <time>2023-08-20T14:27:54Z</time>
      </trkpt>
      <trkpt lat="44.50413" lon="2.32572">
        <ele>379</ele>
        <time>2023-08-20T14:27:55Z</time>
      </trkpt>
      <trkpt lat="44.50419" lon="2.32563">
        <ele>379.6</ele>
        <time>2023-08-20T14:27:56Z</time>
      </trkpt>
      <trkpt lat="44.50426" lon="2.32551">
        <ele>380</ele>
        <time>2023-08-20T14:27:57Z</time>
      </trkpt>
      <trkpt lat="44.50432" lon="2.3254">
        <ele>380.8</ele>
        <time>2023-08-20T14:27:58Z</time>
      </trkpt>
      <trkpt lat="44.50439" lon="2.3253">
        <ele>381.6</ele>
        <time>2023-08-20T14:27:59Z</time>
      </trkpt>
      <trkpt lat="44.50446" lon="2.32523">
        <ele>382</ele>
        <time>2023-08-20T14:28:00Z</time>
      </trkpt>
      <trkpt lat="44.50455" lon="2.32518">
        <ele>382.8</ele>
        <time>2023-08-20T14:28:01Z</time>
      </trkpt>
      <trkpt lat="44.50463" lon="2.32516">
        <ele>383.2</ele>
        <time>2023-08-20T14:28:02Z</time>
      </trkpt>
      <trkpt lat="44.50473" lon="2.32516">
        <ele>384.4</ele>
        <time>2023-08-20T14:28:03Z</time>
      </trkpt>
      <trkpt lat="44.50482" lon="2.32519">
        <ele>385</ele>
        <time>2023-08-20T14:28:04Z</time>
      </trkpt>
      <trkpt lat="44.50493" lon="2.32523">
        <ele>386.6</ele>
        <time>2023-08-20T14:28:05Z</time>
      </trkpt>
      <trkpt lat="44.50503" lon="2.32525">
        <ele>387</ele>
        <time>2023-08-20T14:28:06Z</time>
      </trkpt>
      <trkpt lat="44.50514" lon="2.32527">
        <ele>388</ele>
        <time>2023-08-20T14:28:07Z</time>
      </trkpt>
      <trkpt lat="44.50525" lon="2.32527">
        <ele>389.4</ele>
        <time>2023-08-20T14:28:08Z</time>
      </trkpt>
      <trkpt lat="44.50535" lon="2.32523">
        <ele>390</ele>
        <time>2023-08-20T14:28:09Z</time>
      </trkpt>
      <trkpt lat="44.50544" lon="2.32517">
        <ele>391.4</ele>
        <time>2023-08-20T14:28:10Z</time>
      </trkpt>
      <trkpt lat="44.50552" lon="2.32509">
        <ele>391.8</ele>
        <time>2023-08-20T14:28:11Z</time>
      </trkpt>
      <trkpt lat="44.5056" lon="2.32498">
        <ele>393</ele>
        <time>2023-08-20T14:28:12Z</time>
      </trkpt>
      <trkpt lat="44.50568" lon="2.32486">
        <ele>393.4</ele>
        <time>2023-08-20T14:28:13Z</time>
      </trkpt>
      <trkpt lat="44.50575" lon="2.32477">
        <ele>394.8</ele>
        <time>2023-08-20T14:28:14Z</time>
      </trkpt>
      <trkpt lat="44.50586" lon="2.32466">
        <ele>395.6</ele>
        <time>2023-08-20T14:28:15Z</time>
      </trkpt>
      <trkpt lat="44.50593" lon="2.32461">
        <ele>396.6</ele>
        <time>2023-08-20T14:28:16Z</time>
      </trkpt>
      <trkpt lat="44.50602" lon="2.32453">
        <ele>397.6</ele>
        <time>2023-08-20T14:28:17Z</time>
      </trkpt>
      <trkpt lat="44.50607" lon="2.32447">
        <ele>398.2</ele>
        <time>2023-08-20T14:28:18Z</time>
      </trkpt>
      <trkpt lat="44.5061" lon="2.32442">
        <ele>399.8</ele>
        <time>2023-08-20T14:28:19Z</time>
      </trkpt>
      <trkpt lat="44.5061" lon="2.32435">
        <ele>400.4</ele>
        <time>2023-08-20T14:28:20Z</time>
      </trkpt>
      <trkpt lat="44.50608" lon="2.32428">
        <ele>401.4</ele>
        <time>2023-08-20T14:28:21Z</time>
      </trkpt>
      <trkpt lat="44.50602" lon="2.32421">
        <ele>402</ele>
        <time>2023-08-20T14:28:22Z</time>
      </trkpt>
      <trkpt lat="44.50595" lon="2.32415">
        <ele>402.8</ele>
        <time>2023-08-20T14:28:23Z</time>
      </trkpt>
      <trkpt lat="44.50587" lon="2.32411">
        <ele>403.2</ele>
        <time>2023-08-20T14:28:24Z</time>
      </trkpt>
      <trkpt lat="44.50576" lon="2.32404">
        <ele>404.2</ele>
        <time>2023-08-20T14:28:25Z</time>
      </trkpt>
      <trkpt lat="44.50569" lon="2.32398">
        <ele>405</ele>
        <time>2023-08-20T14:28:26Z</time>
      </trkpt>
      <trkpt lat="44.50558" lon="2.32389">
        <ele>405.4</ele>
        <time>2023-08-20T14:28:27Z</time>
      </trkpt>
      <trkpt lat="44.50549" lon="2.3238">
        <ele>406.6</ele>
        <time>2023-08-20T14:28:28Z</time>
      </trkpt>
      <trkpt lat="44.50542" lon="2.32373">
        <ele>407</ele>
        <time>2023-08-20T14:28:29Z</time>
      </trkpt>
      <trkpt lat="44.50531" lon="2.32363">
        <ele>408.4</ele>
        <time>2023-08-20T14:28:30Z</time>
      </trkpt>
      <trkpt lat="44.50522" lon="2.32356">
        <ele>409</ele>
        <time>2023-08-20T14:28:31Z</time>
      </trkpt>
      <trkpt lat="44.50512" lon="2.3235">
        <ele>410</ele>
        <time>2023-08-20T14:28:32Z</time>
      </trkpt>
      <trkpt lat="44.50502" lon="2.32345">
        <ele>410.6</ele>
        <time>2023-08-20T14:28:33Z</time>
      </trkpt>
      <trkpt lat="44.50492" lon="2.32343">
        <ele>411.6</ele>
        <time>2023-08-20T14:28:34Z</time>
      </trkpt>
      <trkpt lat="44.50482" lon="2.32342">
        <ele>412.4</ele>
        <time>2023-08-20T14:28:35Z</time>
      </trkpt>
      <trkpt lat="44.50472" lon="2.32342">
        <ele>412.8</ele>
        <time>2023-08-20T14:28:36Z</time>
      </trkpt>
      <trkpt lat="44.50461" lon="2.32342">
        <ele>414.2</ele>
        <time>2023-08-20T14:28:37Z</time>
      </trkpt>
      <trkpt lat="44.50451" lon="2.32343">
        <ele>414.6</ele>
        <time>2023-08-20T14:28:38Z</time>
      </trkpt>
      <trkpt lat="44.5044" lon="2.32343">
        <ele>415.8</ele>
        <time>2023-08-20T14:28:39Z</time>
      </trkpt>
      <trkpt lat="44.5043" lon="2.32342">
        <ele>416.4</ele>
        <time>2023-08-20T14:28:40Z</time>
      </trkpt>
      <trkpt lat="44.50421" lon="2.32341">
        <ele>417</ele>
        <time>2023-08-20T14:28:41Z</time>
      </trkpt>
      <trkpt lat="44.50411" lon="2.32339">
        <ele>417.2</ele>
        <time>2023-08-20T14:28:42Z</time>
      </trkpt>
      <trkpt lat="44.50403" lon="2.32336">
        <ele>418.2</ele>
        <time>2023-08-20T14:28:43Z</time>
      </trkpt>
      <trkpt lat="44.50395" lon="2.3233">
        <ele>419</ele>
        <time>2023-08-20T14:28:44Z</time>
      </trkpt>
      <trkpt lat="44.50388" lon="2.32325">
        <ele>419.2</ele>
        <time>2023-08-20T14:28:45Z</time>
      </trkpt>
      <trkpt lat="44.50381" lon="2.32318">
        <ele>420</ele>
        <time>2023-08-20T14:28:46Z</time>
      </trkpt>
      <trkpt lat="44.50373" lon="2.32308">
        <ele>420.4</ele>
        <time>2023-08-20T14:28:47Z</time>
      </trkpt>
      <trkpt lat="44.50368" lon="2.32299">
        <ele>421</ele>
        <time>2023-08-20T14:28:48Z</time>
      </trkpt>
      <trkpt lat="44.50362" lon="2.32289">
        <ele>421.2</ele>
        <time>2023-08-20T14:28:49Z</time>
      </trkpt>
      <trkpt lat="44.50357" lon="2.32282">
        <ele>422.8</ele>
        <time>2023-08-20T14:28:50Z</time>
      </trkpt>
      <trkpt lat="44.50351" lon="2.32273">
        <ele>423.4</ele>
        <time>2023-08-20T14:28:51Z</time>
      </trkpt>
      <trkpt lat="44.50344" lon="2.32261">
        <ele>424.4</ele>
        <time>2023-08-20T14:28:52Z</time>
      </trkpt>
      <trkpt lat="44.50337" lon="2.32251">
        <ele>425.4</ele>
        <time>2023-08-20T14:28:53Z</time>
      </trkpt>
      <trkpt lat="44.5033" lon="2.32241">
        <ele>425.8</ele>
        <time>2023-08-20T14:28:54Z</time>
      </trkpt>
      <trkpt lat="44.50323" lon="2.32231">
        <ele>426.8</ele>
        <time>2023-08-20T14:28:55Z</time>
      </trkpt>
      <trkpt lat="44.50316" lon="2.32222">
        <ele>427.4</ele>
        <time>2023-08-20T14:28:56Z</time>
      </trkpt>
      <trkpt lat="44.50308" lon="2.32213">
        <ele>428</ele>
        <time>2023-08-20T14:28:57Z</time>
      </trkpt>
      <trkpt lat="44.503" lon="2.32205">
        <ele>428.2</ele>
        <time>2023-08-20T14:28:58Z</time>
      </trkpt>
      <trkpt lat="44.50292" lon="2.32197">
        <ele>429</ele>
        <time>2023-08-20T14:28:59Z</time>
      </trkpt>
      <trkpt lat="44.50284" lon="2.32189">
        <ele>429.6</ele>
        <time>2023-08-20T14:29:00Z</time>
      </trkpt>
      <trkpt lat="44.50276" lon="2.32181">
        <ele>430.2</ele>
        <time>2023-08-20T14:29:01Z</time>
      </trkpt>
      <trkpt lat="44.50269" lon="2.32174">
        <ele>430.4</ele>
        <time>2023-08-20T14:29:02Z</time>
      </trkpt>
      <trkpt lat="44.50262" lon="2.32166">
        <ele>430.6</ele>
        <time>2023-08-20T14:29:03Z</time>
      </trkpt>
      <trkpt lat="44.50255" lon="2.3216">
        <ele>430.8</ele>
        <time>2023-08-20T14:29:04Z</time>
      </trkpt>
      <trkpt lat="44.50247" lon="2.32156">
        <ele>431</ele>
        <time>2023-08-20T14:29:05Z</time>
      </trkpt>
      <trkpt lat="44.50239" lon="2.32153">
        <ele>431.6</ele>
        <time>2023-08-20T14:29:06Z</time>
      </trkpt>
      <trkpt lat="44.50229" lon="2.32152">
        <ele>431.8</ele>
        <time>2023-08-20T14:29:07Z</time>
      </trkpt>
      <trkpt lat="44.50217" lon="2.32151">
        <ele>432.2</ele>
        <time>2023-08-20T14:29:08Z</time>
      </trkpt>
      <trkpt lat="44.50205" lon="2.32152">
        <ele>432.4</ele>
        <time>2023-08-20T14:29:09Z</time>
      </trkpt>
      <trkpt lat="44.50196" lon="2.32151">
        <ele>433</ele>
        <time>2023-08-20T14:29:10Z</time>
      </trkpt>
      <trkpt lat="44.50185" lon="2.32149">
        <ele>433.6</ele>
        <time>2023-08-20T14:29:11Z</time>
      </trkpt>
      <trkpt lat="44.50174" lon="2.32147">
        <ele>434.8</ele>
        <time>2023-08-20T14:29:12Z</time>
      </trkpt>
      <trkpt lat="44.50161" lon="2.3214">
        <ele>435.8</ele>
        <time>2023-08-20T14:29:13Z</time>
      </trkpt>
      <trkpt lat="44.50149" lon="2.32132">
        <ele>436.2</ele>
        <time>2023-08-20T14:29:14Z</time>
      </trkpt>
      <trkpt lat="44.50139" lon="2.32124">
        <ele>436.8</ele>
        <time>2023-08-20T14:29:15Z</time>
      </trkpt>
      <trkpt lat="44.50125" lon="2.32111">
        <ele>437</ele>
        <time>2023-08-20T14:29:16Z</time>
      </trkpt>
      <trkpt lat="44.50111" lon="2.32095">
        <ele>438.4</ele>
        <time>2023-08-20T14:29:17Z</time>
      </trkpt>
      <trkpt lat="44.50094" lon="2.32077">
        <ele>439</ele>
        <time>2023-08-20T14:29:18Z</time>
      </trkpt>
      <trkpt lat="44.50082" lon="2.32063">
        <ele>441.8</ele>
        <time>2023-08-20T14:29:19Z</time>
      </trkpt>
      <trkpt lat="44.50073" lon="2.32053">
        <ele>442.8</ele>
        <time>2023-08-20T14:29:20Z</time>
      </trkpt>
      <trkpt lat="44.50063" lon="2.32041">
        <ele>445.6</ele>
        <time>2023-08-20T14:29:21Z</time>
      </trkpt>
      <trkpt lat="44.50053" lon="2.32029">
        <ele>446.8</ele>
        <time>2023-08-20T14:29:22Z</time>
      </trkpt>
      <trkpt lat="44.50041" lon="2.32015">
        <ele>447.4</ele>
        <time>2023-08-20T14:29:23Z</time>
      </trkpt>
      <trkpt lat="44.50031" lon="2.32005">
        <ele>449</ele>
        <time>2023-08-20T14:29:24Z</time>
      </trkpt>
      <trkpt lat="44.50022" lon="2.31997">
        <ele>449.6</ele>
        <time>2023-08-20T14:29:25Z</time>
      </trkpt>
      <trkpt lat="44.50009" lon="2.31989">
        <ele>450.4</ele>
        <time>2023-08-20T14:29:26Z</time>
      </trkpt>
      <trkpt lat="44.49997" lon="2.31984">
        <ele>450.6</ele>
        <time>2023-08-20T14:29:27Z</time>
      </trkpt>
      <trkpt lat="44.49985" lon="2.31981">
        <ele>451.6</ele>
        <time>2023-08-20T14:29:28Z</time>
      </trkpt>
      <trkpt lat="44.49972" lon="2.3198">
        <ele>452.2</ele>
        <time>2023-08-20T14:29:29Z</time>
      </trkpt>
      <trkpt lat="44.4996" lon="2.3198">
        <ele>453.2</ele>
        <time>2023-08-20T14:29:30Z</time>
      </trkpt>
      <trkpt lat="44.49949" lon="2.31981">
        <ele>454.2</ele>
        <time>2023-08-20T14:29:31Z</time>
      </trkpt>
      <trkpt lat="44.49934" lon="2.31982">
        <ele>454.8</ele>
        <time>2023-08-20T14:29:32Z</time>
      </trkpt>
      <trkpt lat="44.49922" lon="2.31983">
        <ele>455.8</ele>
        <time>2023-08-20T14:29:33Z</time>
      </trkpt>
      <trkpt lat="44.49909" lon="2.31984">
        <ele>456.6</ele>
        <time>2023-08-20T14:29:34Z</time>
      </trkpt>
      <trkpt lat="44.49897" lon="2.31985">
        <ele>457.4</ele>
        <time>2023-08-20T14:29:35Z</time>
      </trkpt>
      <trkpt lat="44.49885" lon="2.31984">
        <ele>457.8</ele>
        <time>2023-08-20T14:29:36Z</time>
      </trkpt>
      <trkpt lat="44.49876" lon="2.31983">
        <ele>458.6</ele>
        <time>2023-08-20T14:29:37Z</time>
      </trkpt>
      <trkpt lat="44.49862" lon="2.3198">
        <ele>460</ele>
        <time>2023-08-20T14:29:38Z</time>
      </trkpt>
      <trkpt lat="44.4985" lon="2.31976">
        <ele>460.8</ele>
        <time>2023-08-20T14:29:39Z</time>
      </trkpt>
      <trkpt lat="44.49841" lon="2.31974">
        <ele>461.8</ele>
        <time>2023-08-20T14:29:40Z</time>
      </trkpt>
      <trkpt lat="44.49827" lon="2.31969">
        <ele>462.4</ele>
        <time>2023-08-20T14:29:41Z</time>
      </trkpt>
      <trkpt lat="44.49815" lon="2.31965">
        <ele>463.2</ele>
        <time>2023-08-20T14:29:42Z</time>
      </trkpt>
      <trkpt lat="44.49803" lon="2.31961">
        <ele>464</ele>
        <time>2023-08-20T14:29:43Z</time>
      </trkpt>
      <trkpt lat="44.49791" lon="2.31957">
        <ele>465.2</ele>
        <time>2023-08-20T14:29:44Z</time>
      </trkpt>
      <trkpt lat="44.49779" lon="2.31954">
        <ele>465.8</ele>
        <time>2023-08-20T14:29:45Z</time>
      </trkpt>
      <trkpt lat="44.49767" lon="2.31951">
        <ele>467</ele>
        <time>2023-08-20T14:29:46Z</time>
      </trkpt>
      <trkpt lat="44.49755" lon="2.31947">
        <ele>467.6</ele>
        <time>2023-08-20T14:29:47Z</time>
      </trkpt>
      <trkpt lat="44.49743" lon="2.31944">
        <ele>469</ele>
        <time>2023-08-20T14:29:48Z</time>
      </trkpt>
      <trkpt lat="44.49732" lon="2.3194">
        <ele>470.2</ele>
        <time>2023-08-20T14:29:49Z</time>
      </trkpt>
      <trkpt lat="44.49723" lon="2.31937">
        <ele>470.6</ele>
        <time>2023-08-20T14:29:50Z</time>
      </trkpt>
      <trkpt lat="44.49712" lon="2.31932">
        <ele>471.8</ele>
        <time>2023-08-20T14:29:51Z</time>
      </trkpt>
      <trkpt lat="44.497" lon="2.31927">
        <ele>472.2</ele>
        <time>2023-08-20T14:29:52Z</time>
      </trkpt>
      <trkpt lat="44.4969" lon="2.31925">
        <ele>473.4</ele>
        <time>2023-08-20T14:29:53Z</time>
      </trkpt>
      <trkpt lat="44.4968" lon="2.31927">
        <ele>473.8</ele>
        <time>2023-08-20T14:29:54Z</time>
      </trkpt>
      <trkpt lat="44.49672" lon="2.31932">
        <ele>474.4</ele>
        <time>2023-08-20T14:29:55Z</time>
      </trkpt>
      <trkpt lat="44.49662" lon="2.3194">
        <ele>475.6</ele>
        <time>2023-08-20T14:29:56Z</time>
      </trkpt>
      <trkpt lat="44.49651" lon="2.31952">
        <ele>476</ele>
        <time>2023-08-20T14:29:57Z</time>
      </trkpt>
      <trkpt lat="44.4964" lon="2.31967">
        <ele>476.4</ele>
        <time>2023-08-20T14:29:58Z</time>
      </trkpt>
      <trkpt lat="44.4963" lon="2.3198">
        <ele>477.4</ele>
        <time>2023-08-20T14:29:59Z</time>
      </trkpt>
      <trkpt lat="44.49622" lon="2.31989">
        <ele>478.4</ele>
        <time>2023-08-20T14:30:00Z</time>
      </trkpt>
      <trkpt lat="44.49612" lon="2.32001">
        <ele>479.2</ele>
        <time>2023-08-20T14:30:01Z</time>
      </trkpt>
      <trkpt lat="44.49601" lon="2.32014">
        <ele>480.4</ele>
        <time>2023-08-20T14:30:02Z</time>
      </trkpt>
      <trkpt lat="44.49592" lon="2.32026">
        <ele>481.2</ele>
        <time>2023-08-20T14:30:03Z</time>
      </trkpt>
      <trkpt lat="44.49584" lon="2.32036">
        <ele>482.2</ele>
        <time>2023-08-20T14:30:04Z</time>
      </trkpt>
      <trkpt lat="44.49576" lon="2.32047">
        <ele>483.8</ele>
        <time>2023-08-20T14:30:05Z</time>
      </trkpt>
      <trkpt lat="44.49568" lon="2.32057">
        <ele>484.2</ele>
        <time>2023-08-20T14:30:06Z</time>
      </trkpt>
      <trkpt lat="44.4956" lon="2.32067">
        <ele>485.4</ele>
        <time>2023-08-20T14:30:07Z</time>
      </trkpt>
      <trkpt lat="44.49551" lon="2.32077">
        <ele>486</ele>
        <time>2023-08-20T14:30:08Z</time>
      </trkpt>
      <trkpt lat="44.49543" lon="2.32086">
        <ele>487.2</ele>
        <time>2023-08-20T14:30:09Z</time>
      </trkpt>
      <trkpt lat="44.49535" lon="2.32096">
        <ele>487.6</ele>
        <time>2023-08-20T14:30:10Z</time>
      </trkpt>
      <trkpt lat="44.49527" lon="2.32105">
        <ele>488.4</ele>
        <time>2023-08-20T14:30:11Z</time>
      </trkpt>
      <trkpt lat="44.49518" lon="2.32114">
        <ele>488.8</ele>
        <time>2023-08-20T14:30:12Z</time>
      </trkpt>
      <trkpt lat="44.49508" lon="2.3212">
        <ele>489.6</ele>
        <time>2023-08-20T14:30:13Z</time>
      </trkpt>
      <trkpt lat="44.49498" lon="2.32125">
        <ele>490.4</ele>
        <time>2023-08-20T14:30:14Z</time>
      </trkpt>
      <trkpt lat="44.49488" lon="2.32127">
        <ele>491</ele>
        <time>2023-08-20T14:30:15Z</time>
      </trkpt>
      <trkpt lat="44.49477" lon="2.32128">
        <ele>492</ele>
        <time>2023-08-20T14:30:16Z</time>
      </trkpt>
      <trkpt lat="44.49465" lon="2.32126">
        <ele>492.4</ele>
        <time>2023-08-20T14:30:17Z</time>
      </trkpt>
      <trkpt lat="44.49454" lon="2.32125">
        <ele>493.6</ele>
        <time>2023-08-20T14:30:18Z</time>
      </trkpt>
      <trkpt lat="44.49442" lon="2.32125">
        <ele>494.2</ele>
        <time>2023-08-20T14:30:19Z</time>
      </trkpt>
      <trkpt lat="44.4943" lon="2.32125">
        <ele>495.4</ele>
        <time>2023-08-20T14:30:20Z</time>
      </trkpt>
      <trkpt lat="44.49418" lon="2.32127">
        <ele>495.8</ele>
        <time>2023-08-20T14:30:21Z</time>
      </trkpt>
      <trkpt lat="44.49405" lon="2.3213">
        <ele>496.8</ele>
        <time>2023-08-20T14:30:22Z</time>
      </trkpt>
      <trkpt lat="44.49391" lon="2.32135">
        <ele>497.8</ele>
        <time>2023-08-20T14:30:23Z</time>
      </trkpt>
      <trkpt lat="44.49377" lon="2.32139">
        <ele>498.2</ele>
        <time>2023-08-20T14:30:24Z</time>
      </trkpt>
      <trkpt lat="44.49363" lon="2.32144">
        <ele>499.2</ele>
        <time>2023-08-20T14:30:25Z</time>
      </trkpt>
      <trkpt lat="44.49348" lon="2.3215">
        <ele>499.6</ele>
        <time>2023-08-20T14:30:26Z</time>
      </trkpt>
      <trkpt lat="44.49333" lon="2.32155">
        <ele>500.8</ele>
        <time>2023-08-20T14:30:27Z</time>
      </trkpt>
      <trkpt lat="44.49317" lon="2.32161">
        <ele>501.4</ele>
        <time>2023-08-20T14:30:28Z</time>
      </trkpt>
      <trkpt lat="44.49302" lon="2.32166">
        <ele>502.4</ele>
        <time>2023-08-20T14:30:29Z</time>
      </trkpt>
      <trkpt lat="44.49286" lon="2.32171">
        <ele>503</ele>
        <time>2023-08-20T14:30:30Z</time>
      </trkpt>
      <trkpt lat="44.49271" lon="2.32176">
        <ele>503.4</ele>
        <time>2023-08-20T14:30:31Z</time>
      </trkpt>
      <trkpt lat="44.49256" lon="2.32182">
        <ele>503.8</ele>
        <time>2023-08-20T14:30:32Z</time>
      </trkpt>
      <trkpt lat="44.49242" lon="2.32188">
        <ele>504</ele>
        <time>2023-08-20T14:30:33Z</time>
      </trkpt>
      <trkpt lat="44.49227" lon="2.32195">
        <ele>504</ele>
        <time>2023-08-20T14:30:34Z</time>
      </trkpt>
      <trkpt lat="44.49213" lon="2.32203">
        <ele>504.2</ele>
        <time>2023-08-20T14:30:35Z</time>
      </trkpt>
      <trkpt lat="44.492" lon="2.3221">
        <ele>504.2</ele>
        <time>2023-08-20T14:30:36Z</time>
      </trkpt>
      <trkpt lat="44.49186" lon="2.32218">
        <ele>504.4</ele>
        <time>2023-08-20T14:30:37Z</time>
      </trkpt>
      <trkpt lat="44.49173" lon="2.32224">
        <ele>504.6</ele>
        <time>2023-08-20T14:30:38Z</time>
      </trkpt>
      <trkpt lat="44.49161" lon="2.3223">
        <ele>504.6</ele>
        <time>2023-08-20T14:30:39Z</time>
      </trkpt>
      <trkpt lat="44.4915" lon="2.32236">
        <ele>504.6</ele>
        <time>2023-08-20T14:30:40Z</time>
      </trkpt>
      <trkpt lat="44.49139" lon="2.32245">
        <ele>504.8</ele>
        <time>2023-08-20T14:30:41Z</time>
      </trkpt>
      <trkpt lat="44.4913" lon="2.32254">
        <ele>504.8</ele>
        <time>2023-08-20T14:30:42Z</time>
      </trkpt>
      <trkpt lat="44.49121" lon="2.32264">
        <ele>504.8</ele>
        <time>2023-08-20T14:30:43Z</time>
      </trkpt>
      <trkpt lat="44.49112" lon="2.32273">
        <ele>504.8</ele>
        <time>2023-08-20T14:30:44Z</time>
      </trkpt>
      <trkpt lat="44.49102" lon="2.32281">
        <ele>504.8</ele>
        <time>2023-08-20T14:30:45Z</time>
      </trkpt>
      <trkpt lat="44.49092" lon="2.32286">
        <ele>504.8</ele>
        <time>2023-08-20T14:30:46Z</time>
      </trkpt>
      <trkpt lat="44.49082" lon="2.32289">
        <ele>504.8</ele>
        <time>2023-08-20T14:30:47Z</time>
      </trkpt>
      <trkpt lat="44.49072" lon="2.32291">
        <ele>504.8</ele>
        <time>2023-08-20T14:30:48Z</time>
      </trkpt>
      <trkpt lat="44.49062" lon="2.3229">
        <ele>505</ele>
        <time>2023-08-20T14:30:49Z</time>
      </trkpt>
      <trkpt lat="44.49051" lon="2.32287">
        <ele>505</ele>
        <time>2023-08-20T14:30:50Z</time>
      </trkpt>
      <trkpt lat="44.49041" lon="2.32281">
        <ele>505</ele>
        <time>2023-08-20T14:30:51Z</time>
      </trkpt>
      <trkpt lat="44.4903" lon="2.32275">
        <ele>505</ele>
        <time>2023-08-20T14:30:52Z</time>
      </trkpt>
      <trkpt lat="44.4902" lon="2.32271">
        <ele>505</ele>
        <time>2023-08-20T14:30:53Z</time>
      </trkpt>
      <trkpt lat="44.49008" lon="2.32269">
        <ele>505.4</ele>
        <time>2023-08-20T14:30:54Z</time>
      </trkpt>
      <trkpt lat="44.48996" lon="2.32269">
        <ele>505.6</ele>
        <time>2023-08-20T14:30:55Z</time>
      </trkpt>
      <trkpt lat="44.48983" lon="2.32269">
        <ele>506</ele>
        <time>2023-08-20T14:30:56Z</time>
      </trkpt>
      <trkpt lat="44.4897" lon="2.32268">
        <ele>506.2</ele>
        <time>2023-08-20T14:30:57Z</time>
      </trkpt>
      <trkpt lat="44.48957" lon="2.32266">
        <ele>507.2</ele>
        <time>2023-08-20T14:30:58Z</time>
      </trkpt>
      <trkpt lat="44.48944" lon="2.32261">
        <ele>507.6</ele>
        <time>2023-08-20T14:30:59Z</time>
      </trkpt>
      <trkpt lat="44.48931" lon="2.32256">
        <ele>508.4</ele>
        <time>2023-08-20T14:31:00Z</time>
      </trkpt>
      <trkpt lat="44.48918" lon="2.3225">
        <ele>509.2</ele>
        <time>2023-08-20T14:31:01Z</time>
      </trkpt>
      <trkpt lat="44.48905" lon="2.32245">
        <ele>509.4</ele>
        <time>2023-08-20T14:31:02Z</time>
      </trkpt>
      <trkpt lat="44.48892" lon="2.3224">
        <ele>510</ele>
        <time>2023-08-20T14:31:03Z</time>
      </trkpt>
      <trkpt lat="44.48879" lon="2.32235">
        <ele>510.2</ele>
        <time>2023-08-20T14:31:04Z</time>
      </trkpt>
      <trkpt lat="44.4887" lon="2.3223">
        <ele>511.4</ele>
        <time>2023-08-20T14:31:05Z</time>
      </trkpt>
      <trkpt lat="44.48857" lon="2.32221">
        <ele>511.8</ele>
        <time>2023-08-20T14:31:06Z</time>
      </trkpt>
      <trkpt lat="44.48846" lon="2.32214">
        <ele>513</ele>
        <time>2023-08-20T14:31:07Z</time>
      </trkpt>
      <trkpt lat="44.48837" lon="2.3221">
        <ele>513.4</ele>
        <time>2023-08-20T14:31:08Z</time>
      </trkpt>
      <trkpt lat="44.48822" lon="2.32205">
        <ele>514</ele>
        <time>2023-08-20T14:31:09Z</time>
      </trkpt>
      <trkpt lat="44.48809" lon="2.32202">
        <ele>514.8</ele>
        <time>2023-08-20T14:31:10Z</time>
      </trkpt>
      <trkpt lat="44.48797" lon="2.322">
        <ele>515</ele>
        <time>2023-08-20T14:31:11Z</time>
      </trkpt>
      <trkpt lat="44.48784" lon="2.32199">
        <ele>515.8</ele>
        <time>2023-08-20T14:31:12Z</time>
      </trkpt>
      <trkpt lat="44.48772" lon="2.32197">
        <ele>516.2</ele>
        <time>2023-08-20T14:31:13Z</time>
      </trkpt>
      <trkpt lat="44.48759" lon="2.32195">
        <ele>516.8</ele>
        <time>2023-08-20T14:31:14Z</time>
      </trkpt>
      <trkpt lat="44.4875" lon="2.32193">
        <ele>516.8</ele>
        <time>2023-08-20T14:31:15Z</time>
      </trkpt>
      <trkpt lat="44.48735" lon="2.32192">
        <ele>517.6</ele>
        <time>2023-08-20T14:31:16Z</time>
      </trkpt>
      <trkpt lat="44.48723" lon="2.32193">
        <ele>517.8</ele>
        <time>2023-08-20T14:31:17Z</time>
      </trkpt>
      <trkpt lat="44.48712" lon="2.32196">
        <ele>518.6</ele>
        <time>2023-08-20T14:31:18Z</time>
      </trkpt>
      <trkpt lat="44.48703" lon="2.32199">
        <ele>519.6</ele>
        <time>2023-08-20T14:31:19Z</time>
      </trkpt>
      <trkpt lat="44.48692" lon="2.32202">
        <ele>520</ele>
        <time>2023-08-20T14:31:20Z</time>
      </trkpt>
      <trkpt lat="44.48678" lon="2.32205">
        <ele>521</ele>
        <time>2023-08-20T14:31:21Z</time>
      </trkpt>
      <trkpt lat="44.48666" lon="2.32207">
        <ele>521.2</ele>
        <time>2023-08-20T14:31:22Z</time>
      </trkpt>
      <trkpt lat="44.48654" lon="2.32207">
        <ele>522.2</ele>
        <time>2023-08-20T14:31:23Z</time>
      </trkpt>
      <trkpt lat="44.48644" lon="2.32207">
        <ele>522.4</ele>
        <time>2023-08-20T14:31:24Z</time>
      </trkpt>
      <trkpt lat="44.48629" lon="2.32206">
        <ele>523.2</ele>
        <time>2023-08-20T14:31:25Z</time>
      </trkpt>
      <trkpt lat="44.48616" lon="2.32207">
        <ele>523.6</ele>
        <time>2023-08-20T14:31:26Z</time>
      </trkpt>
      <trkpt lat="44.48602" lon="2.32208">
        <ele>524.4</ele>
        <time>2023-08-20T14:31:27Z</time>
      </trkpt>
      <trkpt lat="44.48587" lon="2.32209">
        <ele>525.4</ele>
        <time>2023-08-20T14:31:28Z</time>
      </trkpt>
      <trkpt lat="44.48573" lon="2.32211">
        <ele>525.8</ele>
        <time>2023-08-20T14:31:29Z</time>
      </trkpt>
      <trkpt lat="44.48557" lon="2.32215">
        <ele>526.4</ele>
        <time>2023-08-20T14:31:30Z</time>
      </trkpt>
      <trkpt lat="44.48542" lon="2.3222">
        <ele>526.8</ele>
        <time>2023-08-20T14:31:31Z</time>
      </trkpt>
      <trkpt lat="44.48527" lon="2.32225">
        <ele>528</ele>
        <time>2023-08-20T14:31:32Z</time>
      </trkpt>
      <trkpt lat="44.48513" lon="2.32231">
        <ele>528.8</ele>
        <time>2023-08-20T14:31:33Z</time>
      </trkpt>
      <trkpt lat="44.48501" lon="2.32235">
        <ele>529.8</ele>
        <time>2023-08-20T14:31:34Z</time>
      </trkpt>
      <trkpt lat="44.48484" lon="2.3224">
        <ele>530.6</ele>
        <time>2023-08-20T14:31:35Z</time>
      </trkpt>
      <trkpt lat="44.48474" lon="2.32244">
        <ele>532.2</ele>
        <time>2023-08-20T14:31:36Z</time>
      </trkpt>
      <trkpt lat="44.48459" lon="2.32249">
        <ele>533.2</ele>
        <time>2023-08-20T14:31:37Z</time>
      </trkpt>
      <trkpt lat="44.48449" lon="2.32253">
        <ele>533.8</ele>
        <time>2023-08-20T14:31:38Z</time>
      </trkpt>
      <trkpt lat="44.48438" lon="2.32258">
        <ele>534.8</ele>
        <time>2023-08-20T14:31:39Z</time>
      </trkpt>
      <trkpt lat="44.48428" lon="2.32263">
        <ele>535.2</ele>
        <time>2023-08-20T14:31:40Z</time>
      </trkpt>
      <trkpt lat="44.48418" lon="2.3227">
        <ele>536</ele>
        <time>2023-08-20T14:31:41Z</time>
      </trkpt>
      <trkpt lat="44.48407" lon="2.32278">
        <ele>536.4</ele>
        <time>2023-08-20T14:31:42Z</time>
      </trkpt>
      <trkpt lat="44.48397" lon="2.32286">
        <ele>537</ele>
        <time>2023-08-20T14:31:43Z</time>
      </trkpt>
      <trkpt lat="44.48387" lon="2.32292">
        <ele>537.4</ele>
        <time>2023-08-20T14:31:44Z</time>
      </trkpt>
      <trkpt lat="44.48376" lon="2.32297">
        <ele>538</ele>
        <time>2023-08-20T14:31:45Z</time>
      </trkpt>
      <trkpt lat="44.48366" lon="2.32299">
        <ele>539</ele>
        <time>2023-08-20T14:31:46Z</time>
      </trkpt>
      <trkpt lat="44.48356" lon="2.32299">
        <ele>539.2</ele>
        <time>2023-08-20T14:31:47Z</time>
      </trkpt>
      <trkpt lat="44.48346" lon="2.32295">
        <ele>539.8</ele>
        <time>2023-08-20T14:31:48Z</time>
      </trkpt>
      <trkpt lat="44.48337" lon="2.32288">
        <ele>540</ele>
        <time>2023-08-20T14:31:49Z</time>
      </trkpt>
      <trkpt lat="44.48328" lon="2.32278">
        <ele>540.6</ele>
        <time>2023-08-20T14:31:50Z</time>
      </trkpt>
      <trkpt lat="44.48321" lon="2.32265">
        <ele>540.8</ele>
        <time>2023-08-20T14:31:51Z</time>
      </trkpt>
      <trkpt lat="44.48315" lon="2.3225">
        <ele>541.6</ele>
        <time>2023-08-20T14:31:52Z</time>
      </trkpt>
      <trkpt lat="44.48309" lon="2.32234">
        <ele>542.2</ele>
        <time>2023-08-20T14:31:53Z</time>
      </trkpt>
      <trkpt lat="44.48304" lon="2.32219">
        <ele>543</ele>
        <time>2023-08-20T14:31:54Z</time>
      </trkpt>
      <trkpt lat="44.48298" lon="2.32203">
        <ele>543.8</ele>
        <time>2023-08-20T14:31:55Z</time>
      </trkpt>
      <trkpt lat="44.4829" lon="2.3219">
        <ele>544.6</ele>
        <time>2023-08-20T14:31:56Z</time>
      </trkpt>
      <trkpt lat="44.48282" lon="2.32178">
        <ele>545.8</ele>
        <time>2023-08-20T14:31:57Z</time>
      </trkpt>
      <trkpt lat="44.48273" lon="2.32168">
        <ele>546.6</ele>
        <time>2023-08-20T14:31:58Z</time>
      </trkpt>
      <trkpt lat="44.48262" lon="2.32158">
        <ele>547.2</ele>
        <time>2023-08-20T14:31:59Z</time>
      </trkpt>
      <trkpt lat="44.48251" lon="2.32151">
        <ele>547.6</ele>
        <time>2023-08-20T14:32:00Z</time>
      </trkpt>
      <trkpt lat="44.4824" lon="2.32144">
        <ele>548.6</ele>
        <time>2023-08-20T14:32:01Z</time>
      </trkpt>
      <trkpt lat="44.48228" lon="2.32137">
        <ele>549.2</ele>
        <time>2023-08-20T14:32:02Z</time>
      </trkpt>
      <trkpt lat="44.48216" lon="2.32132">
        <ele>550.2</ele>
        <time>2023-08-20T14:32:03Z</time>
      </trkpt>
      <trkpt lat="44.48204" lon="2.32127">
        <ele>551.2</ele>
        <time>2023-08-20T14:32:04Z</time>
      </trkpt>
      <trkpt lat="44.48193" lon="2.32123">
        <ele>551.6</ele>
        <time>2023-08-20T14:32:05Z</time>
      </trkpt>
      <trkpt lat="44.48181" lon="2.32119">
        <ele>552.2</ele>
        <time>2023-08-20T14:32:06Z</time>
      </trkpt>
      <trkpt lat="44.48171" lon="2.32115">
        <ele>552.6</ele>
        <time>2023-08-20T14:32:07Z</time>
      </trkpt>
      <trkpt lat="44.4816" lon="2.3211">
        <ele>553.4</ele>
        <time>2023-08-20T14:32:08Z</time>
      </trkpt>
      <trkpt lat="44.4815" lon="2.32103">
        <ele>553.8</ele>
        <time>2023-08-20T14:32:09Z</time>
      </trkpt>
      <trkpt lat="44.48142" lon="2.32097">
        <ele>554.4</ele>
        <time>2023-08-20T14:32:10Z</time>
      </trkpt>
      <trkpt lat="44.48131" lon="2.32086">
        <ele>554.6</ele>
        <time>2023-08-20T14:32:11Z</time>
      </trkpt>
      <trkpt lat="44.48122" lon="2.32077">
        <ele>554.8</ele>
        <time>2023-08-20T14:32:12Z</time>
      </trkpt>
      <trkpt lat="44.48112" lon="2.32068">
        <ele>555.2</ele>
        <time>2023-08-20T14:32:13Z</time>
      </trkpt>
      <trkpt lat="44.48104" lon="2.32062">
        <ele>555.6</ele>
        <time>2023-08-20T14:32:14Z</time>
      </trkpt>
      <trkpt lat="44.48093" lon="2.32056">
        <ele>556</ele>
        <time>2023-08-20T14:32:15Z</time>
      </trkpt>
      <trkpt lat="44.48079" lon="2.32053">
        <ele>556.4</ele>
        <time>2023-08-20T14:32:16Z</time>
      </trkpt>
      <trkpt lat="44.48066" lon="2.32053">
        <ele>556.8</ele>
        <time>2023-08-20T14:32:17Z</time>
      </trkpt>
      <trkpt lat="44.48053" lon="2.32054">
        <ele>557.4</ele>
        <time>2023-08-20T14:32:18Z</time>
      </trkpt>
      <trkpt lat="44.48044" lon="2.32054">
        <ele>558.2</ele>
        <time>2023-08-20T14:32:19Z</time>
      </trkpt>
      <trkpt lat="44.48029" lon="2.32053">
        <ele>558.4</ele>
        <time>2023-08-20T14:32:20Z</time>
      </trkpt>
      <trkpt lat="44.48018" lon="2.32049">
        <ele>558.6</ele>
        <time>2023-08-20T14:32:21Z</time>
      </trkpt>
      <trkpt lat="44.48006" lon="2.32041">
        <ele>559</ele>
        <time>2023-08-20T14:32:22Z</time>
      </trkpt>
      <trkpt lat="44.47996" lon="2.3203">
        <ele>559.2</ele>
        <time>2023-08-20T14:32:23Z</time>
      </trkpt>
      <trkpt lat="44.47987" lon="2.32018">
        <ele>559.6</ele>
        <time>2023-08-20T14:32:24Z</time>
      </trkpt>
      <trkpt lat="44.47977" lon="2.32007">
        <ele>559.8</ele>
        <time>2023-08-20T14:32:25Z</time>
      </trkpt>
      <trkpt lat="44.47967" lon="2.31997">
        <ele>560.4</ele>
        <time>2023-08-20T14:32:26Z</time>
      </trkpt>
      <trkpt lat="44.47956" lon="2.31989">
        <ele>560.6</ele>
        <time>2023-08-20T14:32:27Z</time>
      </trkpt>
      <trkpt lat="44.47945" lon="2.31983">
        <ele>561</ele>
        <time>2023-08-20T14:32:28Z</time>
      </trkpt>
      <trkpt lat="44.47936" lon="2.3198">
        <ele>561.4</ele>
        <time>2023-08-20T14:32:29Z</time>
      </trkpt>
      <trkpt lat="44.47921" lon="2.3198">
        <ele>562.2</ele>
        <time>2023-08-20T14:32:30Z</time>
      </trkpt>
      <trkpt lat="44.4791" lon="2.31983">
        <ele>562.8</ele>
        <time>2023-08-20T14:32:31Z</time>
      </trkpt>
      <trkpt lat="44.479" lon="2.31989">
        <ele>563</ele>
        <time>2023-08-20T14:32:32Z</time>
      </trkpt>
      <trkpt lat="44.47888" lon="2.31995">
        <ele>563.2</ele>
        <time>2023-08-20T14:32:33Z</time>
      </trkpt>
      <trkpt lat="44.47879" lon="2.32">
        <ele>563.2</ele>
        <time>2023-08-20T14:32:34Z</time>
      </trkpt>
      <trkpt lat="44.47867" lon="2.32006">
        <ele>563.4</ele>
        <time>2023-08-20T14:32:35Z</time>
      </trkpt>
      <trkpt lat="44.47857" lon="2.32009">
        <ele>563.4</ele>
        <time>2023-08-20T14:32:36Z</time>
      </trkpt>
      <trkpt lat="44.47847" lon="2.32011">
        <ele>563.6</ele>
        <time>2023-08-20T14:32:37Z</time>
      </trkpt>
      <trkpt lat="44.47838" lon="2.32013">
        <ele>563.6</ele>
        <time>2023-08-20T14:32:38Z</time>
      </trkpt>
      <trkpt lat="44.47828" lon="2.32013">
        <ele>563.8</ele>
        <time>2023-08-20T14:32:39Z</time>
      </trkpt>
      <trkpt lat="44.47817" lon="2.32012">
        <ele>564.2</ele>
        <time>2023-08-20T14:32:40Z</time>
      </trkpt>
      <trkpt lat="44.47805" lon="2.32008">
        <ele>564.2</ele>
        <time>2023-08-20T14:32:41Z</time>
      </trkpt>
      <trkpt lat="44.47793" lon="2.32002">
        <ele>564.8</ele>
        <time>2023-08-20T14:32:42Z</time>
      </trkpt>
      <trkpt lat="44.47781" lon="2.31995">
        <ele>565</ele>
        <time>2023-08-20T14:32:43Z</time>
      </trkpt>
      <trkpt lat="44.47769" lon="2.31987">
        <ele>565.6</ele>
        <time>2023-08-20T14:32:44Z</time>
      </trkpt>
      <trkpt lat="44.47756" lon="2.31979">
        <ele>565.6</ele>
        <time>2023-08-20T14:32:45Z</time>
      </trkpt>
      <trkpt lat="44.47743" lon="2.31972">
        <ele>566.4</ele>
        <time>2023-08-20T14:32:46Z</time>
      </trkpt>
      <trkpt lat="44.4773" lon="2.31964">
        <ele>567.8</ele>
        <time>2023-08-20T14:32:47Z</time>
      </trkpt>
      <trkpt lat="44.47717" lon="2.31957">
        <ele>568</ele>
        <time>2023-08-20T14:32:48Z</time>
      </trkpt>
      <trkpt lat="44.47704" lon="2.3195">
        <ele>569</ele>
        <time>2023-08-20T14:32:49Z</time>
      </trkpt>
      <trkpt lat="44.47692" lon="2.31942">
        <ele>569.8</ele>
        <time>2023-08-20T14:32:50Z</time>
      </trkpt>
      <trkpt lat="44.4768" lon="2.31932">
        <ele>570.6</ele>
        <time>2023-08-20T14:32:51Z</time>
      </trkpt>
      <trkpt lat="44.47669" lon="2.3192">
        <ele>571.4</ele>
        <time>2023-08-20T14:32:52Z</time>
      </trkpt>
      <trkpt lat="44.47659" lon="2.31908">
        <ele>572.2</ele>
        <time>2023-08-20T14:32:53Z</time>
      </trkpt>
      <trkpt lat="44.47649" lon="2.31895">
        <ele>572.4</ele>
        <time>2023-08-20T14:32:54Z</time>
      </trkpt>
      <trkpt lat="44.4764" lon="2.31882">
        <ele>573.2</ele>
        <time>2023-08-20T14:32:55Z</time>
      </trkpt>
      <trkpt lat="44.4763" lon="2.31871">
        <ele>573.6</ele>
        <time>2023-08-20T14:32:56Z</time>
      </trkpt>
      <trkpt lat="44.4762" lon="2.31862">
        <ele>574.2</ele>
        <time>2023-08-20T14:32:57Z</time>
      </trkpt>
      <trkpt lat="44.47609" lon="2.31856">
        <ele>574.8</ele>
        <time>2023-08-20T14:32:58Z</time>
      </trkpt>
      <trkpt lat="44.47596" lon="2.31854">
        <ele>575</ele>
        <time>2023-08-20T14:32:59Z</time>
      </trkpt>
      <trkpt lat="44.47583" lon="2.31854">
        <ele>575.8</ele>
        <time>2023-08-20T14:33:00Z</time>
      </trkpt>
      <trkpt lat="44.47571" lon="2.31853">
        <ele>576.2</ele>
        <time>2023-08-20T14:33:01Z</time>
      </trkpt>
      <trkpt lat="44.47558" lon="2.31849">
        <ele>576.8</ele>
        <time>2023-08-20T14:33:02Z</time>
      </trkpt>
      <trkpt lat="44.47546" lon="2.31843">
        <ele>577</ele>
        <time>2023-08-20T14:33:03Z</time>
      </trkpt>
      <trkpt lat="44.47535" lon="2.31838">
        <ele>577.8</ele>
        <time>2023-08-20T14:33:04Z</time>
      </trkpt>
      <trkpt lat="44.47524" lon="2.31835">
        <ele>578</ele>
        <time>2023-08-20T14:33:05Z</time>
      </trkpt>
      <trkpt lat="44.47514" lon="2.31834">
        <ele>578.4</ele>
        <time>2023-08-20T14:33:06Z</time>
      </trkpt>
      <trkpt lat="44.47504" lon="2.31836">
        <ele>579</ele>
        <time>2023-08-20T14:33:07Z</time>
      </trkpt>
      <trkpt lat="44.47494" lon="2.31839">
        <ele>579.2</ele>
        <time>2023-08-20T14:33:08Z</time>
      </trkpt>
      <trkpt lat="44.47487" lon="2.31842">
        <ele>579.6</ele>
        <time>2023-08-20T14:33:09Z</time>
      </trkpt>
      <trkpt lat="44.47482" lon="2.31846">
        <ele>579.8</ele>
        <time>2023-08-20T14:33:10Z</time>
      </trkpt>
      <trkpt lat="44.47477" lon="2.31849">
        <ele>580.2</ele>
        <time>2023-08-20T14:33:11Z</time>
      </trkpt>
      <trkpt lat="44.47473" lon="2.31852">
        <ele>580.4</ele>
        <time>2023-08-20T14:33:12Z</time>
      </trkpt>
      <trkpt lat="44.47469" lon="2.31854">
        <ele>580.6</ele>
        <time>2023-08-20T14:33:13Z</time>
      </trkpt>
      <trkpt lat="44.47466" lon="2.31857">
        <ele>580.6</ele>
        <time>2023-08-20T14:33:14Z</time>
      </trkpt>
      <trkpt lat="44.47463" lon="2.3186">
        <ele>580.8</ele>
        <time>2023-08-20T14:33:15Z</time>
      </trkpt>
      <trkpt lat="44.47461" lon="2.31863">
        <ele>581</ele>
        <time>2023-08-20T14:33:16Z</time>
      </trkpt>
      <trkpt lat="44.47458" lon="2.31867">
        <ele>581.2</ele>
        <time>2023-08-20T14:33:17Z</time>
      </trkpt>
      <trkpt lat="44.47454" lon="2.31871">
        <ele>581.2</ele>
        <time>2023-08-20T14:33:18Z</time>
      </trkpt>
      <trkpt lat="44.4745" lon="2.31875">
        <ele>581.4</ele>
        <time>2023-08-20T14:33:19Z</time>
      </trkpt>
      <trkpt lat="44.47446" lon="2.3188">
        <ele>581.4</ele>
        <time>2023-08-20T14:33:20Z</time>
      </trkpt>
      <trkpt lat="44.47441" lon="2.31885">
        <ele>581.6</ele>
        <time>2023-08-20T14:33:21Z</time>
      </trkpt>
      <trkpt lat="44.47437" lon="2.3189">
        <ele>582</ele>
        <time>2023-08-20T14:33:22Z</time>
      </trkpt>
      <trkpt lat="44.47432" lon="2.31893">
        <ele>582.2</ele>
        <time>2023-08-20T14:33:23Z</time>
      </trkpt>
      <trkpt lat="44.47427" lon="2.31897">
        <ele>582.6</ele>
        <time>2023-08-20T14:33:24Z</time>
      </trkpt>
      <trkpt lat="44.47422" lon="2.31902">
        <ele>583</ele>
        <time>2023-08-20T14:33:25Z</time>
      </trkpt>
      <trkpt lat="44.47418" lon="2.31906">
        <ele>583</ele>
        <time>2023-08-20T14:33:26Z</time>
      </trkpt>
      <trkpt lat="44.47414" lon="2.3191">
        <ele>583.4</ele>
        <time>2023-08-20T14:33:27Z</time>
      </trkpt>
      <trkpt lat="44.47409" lon="2.31913">
        <ele>583.6</ele>
        <time>2023-08-20T14:33:28Z</time>
      </trkpt>
      <trkpt lat="44.47403" lon="2.31916">
        <ele>583.8</ele>
        <time>2023-08-20T14:33:29Z</time>
      </trkpt>
      <trkpt lat="44.47397" lon="2.31918">
        <ele>584</ele>
        <time>2023-08-20T14:33:30Z</time>
      </trkpt>
      <trkpt lat="44.4739" lon="2.3192">
        <ele>584.4</ele>
        <time>2023-08-20T14:33:31Z</time>
      </trkpt>
      <trkpt lat="44.47383" lon="2.31922">
        <ele>584.6</ele>
        <time>2023-08-20T14:33:32Z</time>
      </trkpt>
      <trkpt lat="44.47376" lon="2.31924">
        <ele>585</ele>
        <time>2023-08-20T14:33:33Z</time>
      </trkpt>
      <trkpt lat="44.47371" lon="2.31926">
        <ele>585.6</ele>
        <time>2023-08-20T14:33:34Z</time>
      </trkpt>
      <trkpt lat="44.47365" lon="2.3193">
        <ele>585.6</ele>
        <time>2023-08-20T14:33:35Z</time>
      </trkpt>
      <trkpt lat="44.47358" lon="2.31936">
        <ele>586</ele>
        <time>2023-08-20T14:33:36Z</time>
      </trkpt>
      <trkpt lat="44.47354" lon="2.31942">
        <ele>586.4</ele>
        <time>2023-08-20T14:33:37Z</time>
      </trkpt>
      <trkpt lat="44.47349" lon="2.31948">
        <ele>586.8</ele>
        <time>2023-08-20T14:33:38Z</time>
      </trkpt>
      <trkpt lat="44.47345" lon="2.31954">
        <ele>587.2</ele>
        <time>2023-08-20T14:33:39Z</time>
      </trkpt>
      <trkpt lat="44.47342" lon="2.3196">
        <ele>587.4</ele>
        <time>2023-08-20T14:33:40Z</time>
      </trkpt>
      <trkpt lat="44.47339" lon="2.31965">
        <ele>587.6</ele>
        <time>2023-08-20T14:33:41Z</time>
      </trkpt>
      <trkpt lat="44.47335" lon="2.31972">
        <ele>587.6</ele>
        <time>2023-08-20T14:33:42Z</time>
      </trkpt>
      <trkpt lat="44.47332" lon="2.31978">
        <ele>587.8</ele>
        <time>2023-08-20T14:33:43Z</time>
      </trkpt>
      <trkpt lat="44.4733" lon="2.31986">
        <ele>587.8</ele>
        <time>2023-08-20T14:33:44Z</time>
      </trkpt>
      <trkpt lat="44.47327" lon="2.31994">
        <ele>588.2</ele>
        <time>2023-08-20T14:33:45Z</time>
      </trkpt>
      <trkpt lat="44.47325" lon="2.32001">
        <ele>588.2</ele>
        <time>2023-08-20T14:33:46Z</time>
      </trkpt>
      <trkpt lat="44.47322" lon="2.32008">
        <ele>588.4</ele>
        <time>2023-08-20T14:33:47Z</time>
      </trkpt>
      <trkpt lat="44.4732" lon="2.32015">
        <ele>588.4</ele>
        <time>2023-08-20T14:33:48Z</time>
      </trkpt>
      <trkpt lat="44.47318" lon="2.3202">
        <ele>588.6</ele>
        <time>2023-08-20T14:33:49Z</time>
      </trkpt>
      <trkpt lat="44.47316" lon="2.32027">
        <ele>589</ele>
        <time>2023-08-20T14:33:50Z</time>
      </trkpt>
      <trkpt lat="44.47313" lon="2.32034">
        <ele>589.4</ele>
        <time>2023-08-20T14:33:51Z</time>
      </trkpt>
      <trkpt lat="44.4731" lon="2.32041">
        <ele>589.6</ele>
        <time>2023-08-20T14:33:52Z</time>
      </trkpt>
      <trkpt lat="44.47308" lon="2.32047">
        <ele>589.8</ele>
        <time>2023-08-20T14:33:53Z</time>
      </trkpt>
      <trkpt lat="44.47306" lon="2.32053">
        <ele>590</ele>
        <time>2023-08-20T14:33:54Z</time>
      </trkpt>
      <trkpt lat="44.47304" lon="2.32061">
        <ele>590.2</ele>
        <time>2023-08-20T14:33:55Z</time>
      </trkpt>
      <trkpt lat="44.47302" lon="2.32067">
        <ele>590.4</ele>
        <time>2023-08-20T14:33:56Z</time>
      </trkpt>
      <trkpt lat="44.47299" lon="2.32076">
        <ele>590.6</ele>
        <time>2023-08-20T14:33:57Z</time>
      </trkpt>
      <trkpt lat="44.47298" lon="2.32084">
        <ele>590.6</ele>
        <time>2023-08-20T14:33:58Z</time>
      </trkpt>
      <trkpt lat="44.47297" lon="2.3209">
        <ele>590.8</ele>
        <time>2023-08-20T14:33:59Z</time>
      </trkpt>
      <trkpt lat="44.47296" lon="2.32098">
        <ele>591</ele>
        <time>2023-08-20T14:34:00Z</time>
      </trkpt>
      <trkpt lat="44.47295" lon="2.32106">
        <ele>591.2</ele>
        <time>2023-08-20T14:34:01Z</time>
      </trkpt>
      <trkpt lat="44.47295" lon="2.32114">
        <ele>591.2</ele>
        <time>2023-08-20T14:34:02Z</time>
      </trkpt>
      <trkpt lat="44.47295" lon="2.3212">
        <ele>591.4</ele>
        <time>2023-08-20T14:34:03Z</time>
      </trkpt>
      <trkpt lat="44.47295" lon="2.32125">
        <ele>591.6</ele>
        <time>2023-08-20T14:34:04Z</time>
      </trkpt>
      <trkpt lat="44.47295" lon="2.32131">
        <ele>591.8</ele>
        <time>2023-08-20T14:34:05Z</time>
      </trkpt>
      <trkpt lat="44.47294" lon="2.32137">
        <ele>592</ele>
        <time>2023-08-20T14:34:06Z</time>
      </trkpt>
      <trkpt lat="44.47294" lon="2.32146">
        <ele>592.4</ele>
        <time>2023-08-20T14:34:07Z</time>
      </trkpt>
      <trkpt lat="44.47294" lon="2.32153">
        <ele>592.6</ele>
        <time>2023-08-20T14:34:08Z</time>
      </trkpt>
      <trkpt lat="44.47293" lon="2.32161">
        <ele>592.8</ele>
        <time>2023-08-20T14:34:09Z</time>
      </trkpt>
      <trkpt lat="44.47292" lon="2.32168">
        <ele>593</ele>
        <time>2023-08-20T14:34:10Z</time>
      </trkpt>
      <trkpt lat="44.47291" lon="2.32176">
        <ele>593.2</ele>
        <time>2023-08-20T14:34:11Z</time>
      </trkpt>
      <trkpt lat="44.47288" lon="2.32186">
        <ele>593.2</ele>
        <time>2023-08-20T14:34:12Z</time>
      </trkpt>
      <trkpt lat="44.47285" lon="2.32194">
        <ele>593.4</ele>
        <time>2023-08-20T14:34:13Z</time>
      </trkpt>
      <trkpt lat="44.47282" lon="2.32202">
        <ele>593.8</ele>
        <time>2023-08-20T14:34:14Z</time>
      </trkpt>
      <trkpt lat="44.4728" lon="2.32208">
        <ele>594</ele>
        <time>2023-08-20T14:34:15Z</time>
      </trkpt>
      <trkpt lat="44.47277" lon="2.32215">
        <ele>594.4</ele>
        <time>2023-08-20T14:34:16Z</time>
      </trkpt>
      <trkpt lat="44.47273" lon="2.32223">
        <ele>594.6</ele>
        <time>2023-08-20T14:34:17Z</time>
      </trkpt>
      <trkpt lat="44.47269" lon="2.3223">
        <ele>594.8</ele>
        <time>2023-08-20T14:34:18Z</time>
      </trkpt>
      <trkpt lat="44.47265" lon="2.32239">
        <ele>595</ele>
        <time>2023-08-20T14:34:19Z</time>
      </trkpt>
      <trkpt lat="44.47261" lon="2.32248">
        <ele>595.2</ele>
        <time>2023-08-20T14:34:20Z</time>
      </trkpt>
      <trkpt lat="44.47256" lon="2.32259">
        <ele>595.4</ele>
        <time>2023-08-20T14:34:21Z</time>
      </trkpt>
      <trkpt lat="44.4725" lon="2.32273">
        <ele>595.6</ele>
        <time>2023-08-20T14:34:22Z</time>
      </trkpt>
      <trkpt lat="44.47246" lon="2.32284">
        <ele>595.6</ele>
        <time>2023-08-20T14:34:23Z</time>
      </trkpt>
      <trkpt lat="44.47239" lon="2.32301">
        <ele>595.8</ele>
        <time>2023-08-20T14:34:24Z</time>
      </trkpt>
      <trkpt lat="44.47234" lon="2.32314">
        <ele>596.4</ele>
        <time>2023-08-20T14:34:25Z</time>
      </trkpt>
      <trkpt lat="44.47228" lon="2.3233">
        <ele>596.8</ele>
        <time>2023-08-20T14:34:26Z</time>
      </trkpt>
      <trkpt lat="44.47221" lon="2.32345">
        <ele>597.4</ele>
        <time>2023-08-20T14:34:27Z</time>
      </trkpt>
      <trkpt lat="44.47214" lon="2.32361">
        <ele>598.2</ele>
        <time>2023-08-20T14:34:28Z</time>
      </trkpt>
      <trkpt lat="44.47205" lon="2.32379">
        <ele>598.6</ele>
        <time>2023-08-20T14:34:29Z</time>
      </trkpt>
      <trkpt lat="44.47199" lon="2.3239">
        <ele>599.4</ele>
        <time>2023-08-20T14:34:30Z</time>
      </trkpt>
      <trkpt lat="44.47192" lon="2.32403">
        <ele>600</ele>
        <time>2023-08-20T14:34:31Z</time>
      </trkpt>
      <trkpt lat="44.47184" lon="2.32416">
        <ele>601.6</ele>
        <time>2023-08-20T14:34:32Z</time>
      </trkpt>
      <trkpt lat="44.47174" lon="2.3243">
        <ele>602.2</ele>
        <time>2023-08-20T14:34:33Z</time>
      </trkpt>
      <trkpt lat="44.47167" lon="2.32438">
        <ele>602.8</ele>
        <time>2023-08-20T14:34:34Z</time>
      </trkpt>
      <trkpt lat="44.47157" lon="2.32449">
        <ele>603.4</ele>
        <time>2023-08-20T14:34:35Z</time>
      </trkpt>
      <trkpt lat="44.47146" lon="2.32459">
        <ele>604.2</ele>
        <time>2023-08-20T14:34:36Z</time>
      </trkpt>
      <trkpt lat="44.47136" lon="2.32468">
        <ele>605.4</ele>
        <time>2023-08-20T14:34:37Z</time>
      </trkpt>
      <trkpt lat="44.47125" lon="2.32476">
        <ele>605.8</ele>
        <time>2023-08-20T14:34:38Z</time>
      </trkpt>
      <trkpt lat="44.47114" lon="2.32485">
        <ele>606.8</ele>
        <time>2023-08-20T14:34:39Z</time>
      </trkpt>
      <trkpt lat="44.47104" lon="2.32495">
        <ele>607.8</ele>
        <time>2023-08-20T14:34:40Z</time>
      </trkpt>
      <trkpt lat="44.47095" lon="2.32504">
        <ele>609.2</ele>
        <time>2023-08-20T14:34:41Z</time>
      </trkpt>
      <trkpt lat="44.47085" lon="2.32514">
        <ele>609.8</ele>
        <time>2023-08-20T14:34:42Z</time>
      </trkpt>
      <trkpt lat="44.47076" lon="2.32523">
        <ele>611</ele>
        <time>2023-08-20T14:34:43Z</time>
      </trkpt>
      <trkpt lat="44.47064" lon="2.32534">
        <ele>611.8</ele>
        <time>2023-08-20T14:34:44Z</time>
      </trkpt>
      <trkpt lat="44.47056" lon="2.32541">
        <ele>613.2</ele>
        <time>2023-08-20T14:34:45Z</time>
      </trkpt>
      <trkpt lat="44.47045" lon="2.32548">
        <ele>614.4</ele>
        <time>2023-08-20T14:34:46Z</time>
      </trkpt>
      <trkpt lat="44.47035" lon="2.32555">
        <ele>614.8</ele>
        <time>2023-08-20T14:34:47Z</time>
      </trkpt>
      <trkpt lat="44.47025" lon="2.32561">
        <ele>615.8</ele>
        <time>2023-08-20T14:34:48Z</time>
      </trkpt>
      <trkpt lat="44.47013" lon="2.32567">
        <ele>616.2</ele>
        <time>2023-08-20T14:34:49Z</time>
      </trkpt>
      <trkpt lat="44.47005" lon="2.3257">
        <ele>616.8</ele>
        <time>2023-08-20T14:34:50Z</time>
      </trkpt>
      <trkpt lat="44.46995" lon="2.32575">
        <ele>617</ele>
        <time>2023-08-20T14:34:51Z</time>
      </trkpt>
      <trkpt lat="44.46985" lon="2.32581">
        <ele>617.6</ele>
        <time>2023-08-20T14:34:52Z</time>
      </trkpt>
      <trkpt lat="44.46974" lon="2.32588">
        <ele>618.2</ele>
        <time>2023-08-20T14:34:53Z</time>
      </trkpt>
      <trkpt lat="44.46961" lon="2.32597">
        <ele>618.4</ele>
        <time>2023-08-20T14:34:54Z</time>
      </trkpt>
      <trkpt lat="44.46952" lon="2.32604">
        <ele>619.2</ele>
        <time>2023-08-20T14:34:55Z</time>
      </trkpt>
      <trkpt lat="44.4694" lon="2.32612">
        <ele>619.4</ele>
        <time>2023-08-20T14:34:56Z</time>
      </trkpt>
      <trkpt lat="44.46928" lon="2.3262">
        <ele>620</ele>
        <time>2023-08-20T14:34:57Z</time>
      </trkpt>
      <trkpt lat="44.46915" lon="2.32628">
        <ele>620.2</ele>
        <time>2023-08-20T14:34:58Z</time>
      </trkpt>
      <trkpt lat="44.46902" lon="2.32636">
        <ele>620.6</ele>
        <time>2023-08-20T14:34:59Z</time>
      </trkpt>
      <trkpt lat="44.46889" lon="2.32645">
        <ele>620.8</ele>
        <time>2023-08-20T14:35:00Z</time>
      </trkpt>
      <trkpt lat="44.46875" lon="2.32655">
        <ele>621</ele>
        <time>2023-08-20T14:35:01Z</time>
      </trkpt>
      <trkpt lat="44.46861" lon="2.32665">
        <ele>621.2</ele>
        <time>2023-08-20T14:35:02Z</time>
      </trkpt>
      <trkpt lat="44.46847" lon="2.32675">
        <ele>621.6</ele>
        <time>2023-08-20T14:35:03Z</time>
      </trkpt>
      <trkpt lat="44.46833" lon="2.32687">
        <ele>622</ele>
        <time>2023-08-20T14:35:04Z</time>
      </trkpt>
      <trkpt lat="44.46819" lon="2.32698">
        <ele>622.2</ele>
        <time>2023-08-20T14:35:05Z</time>
      </trkpt>
      <trkpt lat="44.46805" lon="2.3271">
        <ele>622.4</ele>
        <time>2023-08-20T14:35:06Z</time>
      </trkpt>
      <trkpt lat="44.46792" lon="2.32722">
        <ele>622.6</ele>
        <time>2023-08-20T14:35:07Z</time>
      </trkpt>
      <trkpt lat="44.46779" lon="2.32733">
        <ele>622.8</ele>
        <time>2023-08-20T14:35:08Z</time>
      </trkpt>
      <trkpt lat="44.46767" lon="2.32743">
        <ele>622.8</ele>
        <time>2023-08-20T14:35:09Z</time>
      </trkpt>
      <trkpt lat="44.46754" lon="2.32752">
        <ele>622.8</ele>
        <time>2023-08-20T14:35:10Z</time>
      </trkpt>
      <trkpt lat="44.46742" lon="2.32761">
        <ele>623</ele>
        <time>2023-08-20T14:35:11Z</time>
      </trkpt>
      <trkpt lat="44.4673" lon="2.32771">
        <ele>622.8</ele>
        <time>2023-08-20T14:35:12Z</time>
      </trkpt>
      <trkpt lat="44.4672" lon="2.32781">
        <ele>622.8</ele>
        <time>2023-08-20T14:35:13Z</time>
      </trkpt>
      <trkpt lat="44.4671" lon="2.32795">
        <ele>622.8</ele>
        <time>2023-08-20T14:35:14Z</time>
      </trkpt>
      <trkpt lat="44.46699" lon="2.32813">
        <ele>622.6</ele>
        <time>2023-08-20T14:35:15Z</time>
      </trkpt>
      <trkpt lat="44.46692" lon="2.32827">
        <ele>622.4</ele>
        <time>2023-08-20T14:35:16Z</time>
      </trkpt>
      <trkpt lat="44.46683" lon="2.32845">
        <ele>622.4</ele>
        <time>2023-08-20T14:35:17Z</time>
      </trkpt>
      <trkpt lat="44.46674" lon="2.32863">
        <ele>622.2</ele>
        <time>2023-08-20T14:35:18Z</time>
      </trkpt>
      <trkpt lat="44.46664" lon="2.32882">
        <ele>622.2</ele>
        <time>2023-08-20T14:35:19Z</time>
      </trkpt>
      <trkpt lat="44.46654" lon="2.32901">
        <ele>622.2</ele>
        <time>2023-08-20T14:35:20Z</time>
      </trkpt>
      <trkpt lat="44.46645" lon="2.32919">
        <ele>622.2</ele>
        <time>2023-08-20T14:35:21Z</time>
      </trkpt>
      <trkpt lat="44.46635" lon="2.32938">
        <ele>622.2</ele>
        <time>2023-08-20T14:35:22Z</time>
      </trkpt>
      <trkpt lat="44.46625" lon="2.32957">
        <ele>622.2</ele>
        <time>2023-08-20T14:35:23Z</time>
      </trkpt>
      <trkpt lat="44.46615" lon="2.32975">
        <ele>622.4</ele>
        <time>2023-08-20T14:35:24Z</time>
      </trkpt>
      <trkpt lat="44.46604" lon="2.32996">
        <ele>622.4</ele>
        <time>2023-08-20T14:35:25Z</time>
      </trkpt>
      <trkpt lat="44.46596" lon="2.33011">
        <ele>622.6</ele>
        <time>2023-08-20T14:35:26Z</time>
      </trkpt>
      <trkpt lat="44.46587" lon="2.33029">
        <ele>622.6</ele>
        <time>2023-08-20T14:35:27Z</time>
      </trkpt>
      <trkpt lat="44.46577" lon="2.33048">
        <ele>622.4</ele>
        <time>2023-08-20T14:35:28Z</time>
      </trkpt>
      <trkpt lat="44.46568" lon="2.33066">
        <ele>622.2</ele>
        <time>2023-08-20T14:35:29Z</time>
      </trkpt>
      <trkpt lat="44.46558" lon="2.33088">
        <ele>622.2</ele>
        <time>2023-08-20T14:35:30Z</time>
      </trkpt>
      <trkpt lat="44.46552" lon="2.33101">
        <ele>622</ele>
        <time>2023-08-20T14:35:31Z</time>
      </trkpt>
      <trkpt lat="44.46544" lon="2.33118">
        <ele>622</ele>
        <time>2023-08-20T14:35:32Z</time>
      </trkpt>
      <trkpt lat="44.46536" lon="2.33135">
        <ele>621.6</ele>
        <time>2023-08-20T14:35:33Z</time>
      </trkpt>
      <trkpt lat="44.46529" lon="2.33151">
        <ele>621.2</ele>
        <time>2023-08-20T14:35:34Z</time>
      </trkpt>
      <trkpt lat="44.4652" lon="2.3317">
        <ele>620.4</ele>
        <time>2023-08-20T14:35:35Z</time>
      </trkpt>
      <trkpt lat="44.46514" lon="2.33182">
        <ele>620</ele>
        <time>2023-08-20T14:35:36Z</time>
      </trkpt>
      <trkpt lat="44.46507" lon="2.33197">
        <ele>619.4</ele>
        <time>2023-08-20T14:35:37Z</time>
      </trkpt>
      <trkpt lat="44.465" lon="2.33213">
        <ele>619.2</ele>
        <time>2023-08-20T14:35:38Z</time>
      </trkpt>
      <trkpt lat="44.46493" lon="2.3323">
        <ele>618.4</ele>
        <time>2023-08-20T14:35:39Z</time>
      </trkpt>
      <trkpt lat="44.46487" lon="2.33247">
        <ele>617.8</ele>
        <time>2023-08-20T14:35:40Z</time>
      </trkpt>
      <trkpt lat="44.46476" lon="2.33282">
        <ele>616.6</ele>
        <time>2023-08-20T14:35:42Z</time>
      </trkpt>
      <trkpt lat="44.4646" lon="2.33337">
        <ele>615.4</ele>
        <time>2023-08-20T14:35:45Z</time>
      </trkpt>
      <trkpt lat="44.46454" lon="2.33355">
        <ele>614.4</ele>
        <time>2023-08-20T14:35:46Z</time>
      </trkpt>
      <trkpt lat="44.46448" lon="2.33373">
        <ele>614</ele>
        <time>2023-08-20T14:35:47Z</time>
      </trkpt>
      <trkpt lat="44.46436" lon="2.33406">
        <ele>612.2</ele>
        <time>2023-08-20T14:35:49Z</time>
      </trkpt>
      <trkpt lat="44.4643" lon="2.33421">
        <ele>611.6</ele>
        <time>2023-08-20T14:35:50Z</time>
      </trkpt>
      <trkpt lat="44.46423" lon="2.33436">
        <ele>610.2</ele>
        <time>2023-08-20T14:35:51Z</time>
      </trkpt>
      <trkpt lat="44.46418" lon="2.33449">
        <ele>609.4</ele>
        <time>2023-08-20T14:35:52Z</time>
      </trkpt>
      <trkpt lat="44.46412" lon="2.33462">
        <ele>608</ele>
        <time>2023-08-20T14:35:53Z</time>
      </trkpt>
      <trkpt lat="44.46406" lon="2.33474">
        <ele>607.4</ele>
        <time>2023-08-20T14:35:54Z</time>
      </trkpt>
      <trkpt lat="44.46402" lon="2.33482">
        <ele>606</ele>
        <time>2023-08-20T14:35:55Z</time>
      </trkpt>
      <trkpt lat="44.46396" lon="2.33493">
        <ele>605</ele>
        <time>2023-08-20T14:35:56Z</time>
      </trkpt>
      <trkpt lat="44.46392" lon="2.33498">
        <ele>603.6</ele>
        <time>2023-08-20T14:35:57Z</time>
      </trkpt>
      <trkpt lat="44.46387" lon="2.33505">
        <ele>602.4</ele>
        <time>2023-08-20T14:35:58Z</time>
      </trkpt>
      <trkpt lat="44.46383" lon="2.33511">
        <ele>601.6</ele>
        <time>2023-08-20T14:35:59Z</time>
      </trkpt>
      <trkpt lat="44.46379" lon="2.33516">
        <ele>600.2</ele>
        <time>2023-08-20T14:36:00Z</time>
      </trkpt>
      <trkpt lat="44.46374" lon="2.33521">
        <ele>599.6</ele>
        <time>2023-08-20T14:36:01Z</time>
      </trkpt>
      <trkpt lat="44.46371" lon="2.33524">
        <ele>598.4</ele>
        <time>2023-08-20T14:36:02Z</time>
      </trkpt>
      <trkpt lat="44.46367" lon="2.33527">
        <ele>598</ele>
        <time>2023-08-20T14:36:03Z</time>
      </trkpt>
      <trkpt lat="44.46364" lon="2.33529">
        <ele>597.4</ele>
        <time>2023-08-20T14:36:04Z</time>
      </trkpt>
      <trkpt lat="44.46359" lon="2.33529">
        <ele>597</ele>
        <time>2023-08-20T14:36:05Z</time>
      </trkpt>
      <trkpt lat="44.46354" lon="2.33527">
        <ele>596.6</ele>
        <time>2023-08-20T14:36:06Z</time>
      </trkpt>
      <trkpt lat="44.46347" lon="2.33521">
        <ele>596.4</ele>
        <time>2023-08-20T14:36:07Z</time>
      </trkpt>
      <trkpt lat="44.46332" lon="2.33504">
        <ele>596.2</ele>
        <time>2023-08-20T14:36:09Z</time>
      </trkpt>
      <trkpt lat="44.46324" lon="2.33492">
        <ele>596.2</ele>
        <time>2023-08-20T14:36:10Z</time>
      </trkpt>
      <trkpt lat="44.46316" lon="2.33474">
        <ele>596</ele>
        <time>2023-08-20T14:36:11Z</time>
      </trkpt>
      <trkpt lat="44.46311" lon="2.3346">
        <ele>596</ele>
        <time>2023-08-20T14:36:12Z</time>
      </trkpt>
      <trkpt lat="44.46306" lon="2.33441">
        <ele>596</ele>
        <time>2023-08-20T14:36:13Z</time>
      </trkpt>
      <trkpt lat="44.46303" lon="2.33421">
        <ele>596</ele>
        <time>2023-08-20T14:36:14Z</time>
      </trkpt>
      <trkpt lat="44.463" lon="2.33401">
        <ele>596</ele>
        <time>2023-08-20T14:36:15Z</time>
      </trkpt>
      <trkpt lat="44.46291" lon="2.33315">
        <ele>595.6</ele>
        <time>2023-08-20T14:36:19Z</time>
      </trkpt>
      <trkpt lat="44.46286" lon="2.33269">
        <ele>595</ele>
        <time>2023-08-20T14:36:21Z</time>
      </trkpt>
      <trkpt lat="44.46279" lon="2.33199">
        <ele>593.6</ele>
        <time>2023-08-20T14:36:24Z</time>
      </trkpt>
      <trkpt lat="44.46277" lon="2.33176">
        <ele>592.8</ele>
        <time>2023-08-20T14:36:25Z</time>
      </trkpt>
      <trkpt lat="44.46277" lon="2.3315">
        <ele>592.4</ele>
        <time>2023-08-20T14:36:26Z</time>
      </trkpt>
      <trkpt lat="44.4628" lon="2.3313">
        <ele>591.6</ele>
        <time>2023-08-20T14:36:27Z</time>
      </trkpt>
      <trkpt lat="44.46282" lon="2.33114">
        <ele>591.4</ele>
        <time>2023-08-20T14:36:28Z</time>
      </trkpt>
      <trkpt lat="44.46285" lon="2.33096">
        <ele>590.4</ele>
        <time>2023-08-20T14:36:29Z</time>
      </trkpt>
      <trkpt lat="44.46288" lon="2.33079">
        <ele>589.8</ele>
        <time>2023-08-20T14:36:30Z</time>
      </trkpt>
      <trkpt lat="44.46291" lon="2.33059">
        <ele>587.8</ele>
        <time>2023-08-20T14:36:31Z</time>
      </trkpt>
      <trkpt lat="44.46293" lon="2.33041">
        <ele>586.6</ele>
        <time>2023-08-20T14:36:32Z</time>
      </trkpt>
      <trkpt lat="44.46294" lon="2.33026">
        <ele>584.8</ele>
        <time>2023-08-20T14:36:33Z</time>
      </trkpt>
      <trkpt lat="44.46294" lon="2.33007">
        <ele>583.2</ele>
        <time>2023-08-20T14:36:34Z</time>
      </trkpt>
      <trkpt lat="44.46292" lon="2.32966">
        <ele>580.6</ele>
        <time>2023-08-20T14:36:36Z</time>
      </trkpt>
      <trkpt lat="44.4629" lon="2.32948">
        <ele>579.8</ele>
        <time>2023-08-20T14:36:37Z</time>
      </trkpt>
      <trkpt lat="44.46288" lon="2.32929">
        <ele>579</ele>
        <time>2023-08-20T14:36:38Z</time>
      </trkpt>
      <trkpt lat="44.46284" lon="2.32895">
        <ele>577.2</ele>
        <time>2023-08-20T14:36:40Z</time>
      </trkpt>
      <trkpt lat="44.46277" lon="2.32852">
        <ele>575.4</ele>
        <time>2023-08-20T14:36:42Z</time>
      </trkpt>
      <trkpt lat="44.46273" lon="2.32834">
        <ele>574</ele>
        <time>2023-08-20T14:36:43Z</time>
      </trkpt>
      <trkpt lat="44.46266" lon="2.32816">
        <ele>573.6</ele>
        <time>2023-08-20T14:36:44Z</time>
      </trkpt>
      <trkpt lat="44.46258" lon="2.328">
        <ele>572.8</ele>
        <time>2023-08-20T14:36:45Z</time>
      </trkpt>
      <trkpt lat="44.46249" lon="2.32787">
        <ele>572.4</ele>
        <time>2023-08-20T14:36:46Z</time>
      </trkpt>
      <trkpt lat="44.46238" lon="2.32777">
        <ele>571</ele>
        <time>2023-08-20T14:36:47Z</time>
      </trkpt>
      <trkpt lat="44.46227" lon="2.32768">
        <ele>570.6</ele>
        <time>2023-08-20T14:36:48Z</time>
      </trkpt>
      <trkpt lat="44.46215" lon="2.32762">
        <ele>569.4</ele>
        <time>2023-08-20T14:36:49Z</time>
      </trkpt>
      <trkpt lat="44.46203" lon="2.32758">
        <ele>569</ele>
        <time>2023-08-20T14:36:50Z</time>
      </trkpt>
      <trkpt lat="44.46192" lon="2.32757">
        <ele>567.4</ele>
        <time>2023-08-20T14:36:51Z</time>
      </trkpt>
      <trkpt lat="44.46177" lon="2.32756">
        <ele>566.4</ele>
        <time>2023-08-20T14:36:52Z</time>
      </trkpt>
      <trkpt lat="44.46164" lon="2.32755">
        <ele>566</ele>
        <time>2023-08-20T14:36:53Z</time>
      </trkpt>
      <trkpt lat="44.46154" lon="2.32753">
        <ele>565</ele>
        <time>2023-08-20T14:36:54Z</time>
      </trkpt>
      <trkpt lat="44.46142" lon="2.32748">
        <ele>564.4</ele>
        <time>2023-08-20T14:36:55Z</time>
      </trkpt>
      <trkpt lat="44.46128" lon="2.3274">
        <ele>563.8</ele>
        <time>2023-08-20T14:36:56Z</time>
      </trkpt>
      <trkpt lat="44.46107" lon="2.3272">
        <ele>563.4</ele>
        <time>2023-08-20T14:36:58Z</time>
      </trkpt>
      <trkpt lat="44.46098" lon="2.32708">
        <ele>563.2</ele>
        <time>2023-08-20T14:36:59Z</time>
      </trkpt>
      <trkpt lat="44.46083" lon="2.32676">
        <ele>563.2</ele>
        <time>2023-08-20T14:37:01Z</time>
      </trkpt>
      <trkpt lat="44.46078" lon="2.32658">
        <ele>563.2</ele>
        <time>2023-08-20T14:37:02Z</time>
      </trkpt>
      <trkpt lat="44.46073" lon="2.3264">
        <ele>563.2</ele>
        <time>2023-08-20T14:37:03Z</time>
      </trkpt>
      <trkpt lat="44.46051" lon="2.3257">
        <ele>563</ele>
        <time>2023-08-20T14:37:07Z</time>
      </trkpt>
      <trkpt lat="44.46045" lon="2.32554">
        <ele>563</ele>
        <time>2023-08-20T14:37:08Z</time>
      </trkpt>
      <trkpt lat="44.46039" lon="2.32539">
        <ele>563</ele>
        <time>2023-08-20T14:37:09Z</time>
      </trkpt>
      <trkpt lat="44.46015" lon="2.32494">
        <ele>562.8</ele>
        <time>2023-08-20T14:37:12Z</time>
      </trkpt>
      <trkpt lat="44.4598" lon="2.3245">
        <ele>562.6</ele>
        <time>2023-08-20T14:37:15Z</time>
      </trkpt>
      <trkpt lat="44.45941" lon="2.32415">
        <ele>562</ele>
        <time>2023-08-20T14:37:18Z</time>
      </trkpt>
      <trkpt lat="44.45927" lon="2.32406">
        <ele>561.8</ele>
        <time>2023-08-20T14:37:19Z</time>
      </trkpt>
      <trkpt lat="44.45916" lon="2.324">
        <ele>561.6</ele>
        <time>2023-08-20T14:37:20Z</time>
      </trkpt>
      <trkpt lat="44.45903" lon="2.32394">
        <ele>561</ele>
        <time>2023-08-20T14:37:21Z</time>
      </trkpt>
      <trkpt lat="44.45887" lon="2.32385">
        <ele>560.6</ele>
        <time>2023-08-20T14:37:22Z</time>
      </trkpt>
      <trkpt lat="44.45874" lon="2.32378">
        <ele>559.8</ele>
        <time>2023-08-20T14:37:23Z</time>
      </trkpt>
      <trkpt lat="44.45861" lon="2.32372">
        <ele>559.4</ele>
        <time>2023-08-20T14:37:24Z</time>
      </trkpt>
      <trkpt lat="44.4585" lon="2.32366">
        <ele>558.4</ele>
        <time>2023-08-20T14:37:25Z</time>
      </trkpt>
      <trkpt lat="44.45837" lon="2.3236">
        <ele>557.6</ele>
        <time>2023-08-20T14:37:26Z</time>
      </trkpt>
      <trkpt lat="44.45824" lon="2.32352">
        <ele>556.4</ele>
        <time>2023-08-20T14:37:27Z</time>
      </trkpt>
      <trkpt lat="44.45812" lon="2.32343">
        <ele>555.2</ele>
        <time>2023-08-20T14:37:28Z</time>
      </trkpt>
      <trkpt lat="44.45797" lon="2.32329">
        <ele>554.6</ele>
        <time>2023-08-20T14:37:29Z</time>
      </trkpt>
      <trkpt lat="44.45788" lon="2.32318">
        <ele>553.8</ele>
        <time>2023-08-20T14:37:30Z</time>
      </trkpt>
      <trkpt lat="44.45778" lon="2.32303">
        <ele>553.2</ele>
        <time>2023-08-20T14:37:31Z</time>
      </trkpt>
      <trkpt lat="44.45768" lon="2.32286">
        <ele>552</ele>
        <time>2023-08-20T14:37:32Z</time>
      </trkpt>
      <trkpt lat="44.45749" lon="2.32244">
        <ele>550</ele>
        <time>2023-08-20T14:37:34Z</time>
      </trkpt>
      <trkpt lat="44.45734" lon="2.32207">
        <ele>548.4</ele>
        <time>2023-08-20T14:37:36Z</time>
      </trkpt>
      <trkpt lat="44.45726" lon="2.32188">
        <ele>547</ele>
        <time>2023-08-20T14:37:37Z</time>
      </trkpt>
      <trkpt lat="44.45716" lon="2.32166">
        <ele>546.4</ele>
        <time>2023-08-20T14:37:38Z</time>
      </trkpt>
      <trkpt lat="44.45707" lon="2.32149">
        <ele>545</ele>
        <time>2023-08-20T14:37:39Z</time>
      </trkpt>
      <trkpt lat="44.45699" lon="2.32136">
        <ele>544.2</ele>
        <time>2023-08-20T14:37:40Z</time>
      </trkpt>
      <trkpt lat="44.45688" lon="2.32122">
        <ele>543.4</ele>
        <time>2023-08-20T14:37:41Z</time>
      </trkpt>
      <trkpt lat="44.45676" lon="2.32109">
        <ele>542.4</ele>
        <time>2023-08-20T14:37:42Z</time>
      </trkpt>
      <trkpt lat="44.45661" lon="2.32095">
        <ele>541.4</ele>
        <time>2023-08-20T14:37:43Z</time>
      </trkpt>
      <trkpt lat="44.45648" lon="2.32085">
        <ele>540.8</ele>
        <time>2023-08-20T14:37:44Z</time>
      </trkpt>
      <trkpt lat="44.45638" lon="2.32077">
        <ele>539.8</ele>
        <time>2023-08-20T14:37:45Z</time>
      </trkpt>
      <trkpt lat="44.45624" lon="2.32067">
        <ele>538.2</ele>
        <time>2023-08-20T14:37:46Z</time>
      </trkpt>
      <trkpt lat="44.45596" lon="2.32047">
        <ele>536</ele>
        <time>2023-08-20T14:37:48Z</time>
      </trkpt>
      <trkpt lat="44.45582" lon="2.32037">
        <ele>535.4</ele>
        <time>2023-08-20T14:37:49Z</time>
      </trkpt>
      <trkpt lat="44.45572" lon="2.3203">
        <ele>533.4</ele>
        <time>2023-08-20T14:37:50Z</time>
      </trkpt>
      <trkpt lat="44.45545" lon="2.3201">
        <ele>531.8</ele>
        <time>2023-08-20T14:37:52Z</time>
      </trkpt>
      <trkpt lat="44.45516" lon="2.31988">
        <ele>530.4</ele>
        <time>2023-08-20T14:37:54Z</time>
      </trkpt>
      <trkpt lat="44.45502" lon="2.31978">
        <ele>529.6</ele>
        <time>2023-08-20T14:37:55Z</time>
      </trkpt>
      <trkpt lat="44.45476" lon="2.3196">
        <ele>528.2</ele>
        <time>2023-08-20T14:37:57Z</time>
      </trkpt>
      <trkpt lat="44.45443" lon="2.31936">
        <ele>527</ele>
        <time>2023-08-20T14:37:59Z</time>
      </trkpt>
      <trkpt lat="44.45399" lon="2.31903">
        <ele>525.8</ele>
        <time>2023-08-20T14:38:02Z</time>
      </trkpt>
      <trkpt lat="44.4537" lon="2.31878">
        <ele>525.2</ele>
        <time>2023-08-20T14:38:04Z</time>
      </trkpt>
      <trkpt lat="44.45357" lon="2.31864">
        <ele>525</ele>
        <time>2023-08-20T14:38:05Z</time>
      </trkpt>
      <trkpt lat="44.45346" lon="2.31847">
        <ele>524.4</ele>
        <time>2023-08-20T14:38:06Z</time>
      </trkpt>
      <trkpt lat="44.45337" lon="2.31828">
        <ele>524.2</ele>
        <time>2023-08-20T14:38:07Z</time>
      </trkpt>
      <trkpt lat="44.4533" lon="2.31808">
        <ele>523.6</ele>
        <time>2023-08-20T14:38:08Z</time>
      </trkpt>
      <trkpt lat="44.45323" lon="2.31787">
        <ele>523.2</ele>
        <time>2023-08-20T14:38:09Z</time>
      </trkpt>
      <trkpt lat="44.45316" lon="2.31762">
        <ele>522.6</ele>
        <time>2023-08-20T14:38:10Z</time>
      </trkpt>
      <trkpt lat="44.45301" lon="2.31729">
        <ele>521.8</ele>
        <time>2023-08-20T14:38:12Z</time>
      </trkpt>
      <trkpt lat="44.45289" lon="2.31713">
        <ele>521</ele>
        <time>2023-08-20T14:38:13Z</time>
      </trkpt>
      <trkpt lat="44.4527" lon="2.31695">
        <ele>520.8</ele>
        <time>2023-08-20T14:38:14Z</time>
      </trkpt>
      <trkpt lat="44.45255" lon="2.31684">
        <ele>520.4</ele>
        <time>2023-08-20T14:38:15Z</time>
      </trkpt>
      <trkpt lat="44.45235" lon="2.3167">
        <ele>520.2</ele>
        <time>2023-08-20T14:38:16Z</time>
      </trkpt>
      <trkpt lat="44.45174" lon="2.31629">
        <ele>519.6</ele>
        <time>2023-08-20T14:38:19Z</time>
      </trkpt>
      <trkpt lat="44.45156" lon="2.31619">
        <ele>519.6</ele>
        <time>2023-08-20T14:38:20Z</time>
      </trkpt>
      <trkpt lat="44.45142" lon="2.31612">
        <ele>519.4</ele>
        <time>2023-08-20T14:38:21Z</time>
      </trkpt>
      <trkpt lat="44.45124" lon="2.31606">
        <ele>518.6</ele>
        <time>2023-08-20T14:38:22Z</time>
      </trkpt>
      <trkpt lat="44.45107" lon="2.31602">
        <ele>518</ele>
        <time>2023-08-20T14:38:23Z</time>
      </trkpt>
      <trkpt lat="44.45088" lon="2.316">
        <ele>516.4</ele>
        <time>2023-08-20T14:38:24Z</time>
      </trkpt>
      <trkpt lat="44.45072" lon="2.31599">
        <ele>515.2</ele>
        <time>2023-08-20T14:38:25Z</time>
      </trkpt>
      <trkpt lat="44.4506" lon="2.31599">
        <ele>513.6</ele>
        <time>2023-08-20T14:38:26Z</time>
      </trkpt>
      <trkpt lat="44.45045" lon="2.31599">
        <ele>513</ele>
        <time>2023-08-20T14:38:27Z</time>
      </trkpt>
      <trkpt lat="44.45028" lon="2.31598">
        <ele>511.4</ele>
        <time>2023-08-20T14:38:28Z</time>
      </trkpt>
      <trkpt lat="44.45014" lon="2.31599">
        <ele>510.4</ele>
        <time>2023-08-20T14:38:29Z</time>
      </trkpt>
      <trkpt lat="44.45" lon="2.31599">
        <ele>508.4</ele>
        <time>2023-08-20T14:38:30Z</time>
      </trkpt>
      <trkpt lat="44.44986" lon="2.316">
        <ele>507</ele>
        <time>2023-08-20T14:38:31Z</time>
      </trkpt>
      <trkpt lat="44.44957" lon="2.31601">
        <ele>505</ele>
        <time>2023-08-20T14:38:33Z</time>
      </trkpt>
      <trkpt lat="44.44928" lon="2.31603">
        <ele>503</ele>
        <time>2023-08-20T14:38:35Z</time>
      </trkpt>
      <trkpt lat="44.44914" lon="2.31604">
        <ele>502.2</ele>
        <time>2023-08-20T14:38:36Z</time>
      </trkpt>
      <trkpt lat="44.44903" lon="2.31604">
        <ele>501.2</ele>
        <time>2023-08-20T14:38:37Z</time>
      </trkpt>
      <trkpt lat="44.44891" lon="2.31605">
        <ele>500.6</ele>
        <time>2023-08-20T14:38:38Z</time>
      </trkpt>
      <trkpt lat="44.44879" lon="2.31605">
        <ele>499.8</ele>
        <time>2023-08-20T14:38:39Z</time>
      </trkpt>
      <trkpt lat="44.4487" lon="2.31602">
        <ele>498.4</ele>
        <time>2023-08-20T14:38:40Z</time>
      </trkpt>
      <trkpt lat="44.44863" lon="2.31596">
        <ele>498</ele>
        <time>2023-08-20T14:38:41Z</time>
      </trkpt>
      <trkpt lat="44.44858" lon="2.3159">
        <ele>496.8</ele>
        <time>2023-08-20T14:38:42Z</time>
      </trkpt>
      <trkpt lat="44.44852" lon="2.3158">
        <ele>496.2</ele>
        <time>2023-08-20T14:38:43Z</time>
      </trkpt>
      <trkpt lat="44.44844" lon="2.31566">
        <ele>495.8</ele>
        <time>2023-08-20T14:38:44Z</time>
      </trkpt>
      <trkpt lat="44.44837" lon="2.31553">
        <ele>495.6</ele>
        <time>2023-08-20T14:38:45Z</time>
      </trkpt>
      <trkpt lat="44.44807" lon="2.31492">
        <ele>495.8</ele>
        <time>2023-08-20T14:38:49Z</time>
      </trkpt>
      <trkpt lat="44.44796" lon="2.31463">
        <ele>497.4</ele>
        <time>2023-08-20T14:38:51Z</time>
      </trkpt>
      <trkpt lat="44.4479" lon="2.31449">
        <ele>497.6</ele>
        <time>2023-08-20T14:38:52Z</time>
      </trkpt>
      <trkpt lat="44.44786" lon="2.31437">
        <ele>498.6</ele>
        <time>2023-08-20T14:38:53Z</time>
      </trkpt>
      <trkpt lat="44.44781" lon="2.31422">
        <ele>499</ele>
        <time>2023-08-20T14:38:54Z</time>
      </trkpt>
      <trkpt lat="44.44777" lon="2.31402">
        <ele>500</ele>
        <time>2023-08-20T14:38:55Z</time>
      </trkpt>
      <trkpt lat="44.44775" lon="2.31385">
        <ele>500.6</ele>
        <time>2023-08-20T14:38:56Z</time>
      </trkpt>
      <trkpt lat="44.44774" lon="2.31371">
        <ele>501.2</ele>
        <time>2023-08-20T14:38:57Z</time>
      </trkpt>
      <trkpt lat="44.44775" lon="2.31354">
        <ele>501.4</ele>
        <time>2023-08-20T14:38:58Z</time>
      </trkpt>
      <trkpt lat="44.44778" lon="2.31338">
        <ele>501.6</ele>
        <time>2023-08-20T14:38:59Z</time>
      </trkpt>
      <trkpt lat="44.44783" lon="2.3132">
        <ele>501.6</ele>
        <time>2023-08-20T14:39:00Z</time>
      </trkpt>
      <trkpt lat="44.44789" lon="2.31308">
        <ele>501.6</ele>
        <time>2023-08-20T14:39:01Z</time>
      </trkpt>
      <trkpt lat="44.44796" lon="2.313">
        <ele>501.6</ele>
        <time>2023-08-20T14:39:02Z</time>
      </trkpt>
      <trkpt lat="44.44806" lon="2.31291">
        <ele>501.6</ele>
        <time>2023-08-20T14:39:03Z</time>
      </trkpt>
      <trkpt lat="44.44815" lon="2.31282">
        <ele>501.6</ele>
        <time>2023-08-20T14:39:04Z</time>
      </trkpt>
      <trkpt lat="44.44826" lon="2.31273">
        <ele>501.6</ele>
        <time>2023-08-20T14:39:05Z</time>
      </trkpt>
      <trkpt lat="44.44844" lon="2.31256">
        <ele>501.2</ele>
        <time>2023-08-20T14:39:07Z</time>
      </trkpt>
      <trkpt lat="44.44851" lon="2.31247">
        <ele>501.2</ele>
        <time>2023-08-20T14:39:08Z</time>
      </trkpt>
      <trkpt lat="44.44856" lon="2.31238">
        <ele>500.8</ele>
        <time>2023-08-20T14:39:09Z</time>
      </trkpt>
      <trkpt lat="44.4486" lon="2.31227">
        <ele>500.8</ele>
        <time>2023-08-20T14:39:10Z</time>
      </trkpt>
      <trkpt lat="44.44864" lon="2.31214">
        <ele>500.4</ele>
        <time>2023-08-20T14:39:11Z</time>
      </trkpt>
      <trkpt lat="44.44868" lon="2.31197">
        <ele>500.4</ele>
        <time>2023-08-20T14:39:12Z</time>
      </trkpt>
      <trkpt lat="44.44871" lon="2.31183">
        <ele>500.2</ele>
        <time>2023-08-20T14:39:13Z</time>
      </trkpt>
      <trkpt lat="44.44878" lon="2.31157">
        <ele>500</ele>
        <time>2023-08-20T14:39:15Z</time>
      </trkpt>
      <trkpt lat="44.44893" lon="2.31098">
        <ele>499.8</ele>
        <time>2023-08-20T14:39:19Z</time>
      </trkpt>
      <trkpt lat="44.4491" lon="2.3103">
        <ele>499.6</ele>
        <time>2023-08-20T14:39:23Z</time>
      </trkpt>
      <trkpt lat="44.44927" lon="2.30952">
        <ele>499.2</ele>
        <time>2023-08-20T14:39:27Z</time>
      </trkpt>
      <trkpt lat="44.44932" lon="2.30932">
        <ele>499.2</ele>
        <time>2023-08-20T14:39:28Z</time>
      </trkpt>
      <trkpt lat="44.44937" lon="2.30913">
        <ele>499.2</ele>
        <time>2023-08-20T14:39:29Z</time>
      </trkpt>
      <trkpt lat="44.44944" lon="2.30895">
        <ele>499.2</ele>
        <time>2023-08-20T14:39:30Z</time>
      </trkpt>
      <trkpt lat="44.44954" lon="2.30876">
        <ele>499.2</ele>
        <time>2023-08-20T14:39:31Z</time>
      </trkpt>
      <trkpt lat="44.44989" lon="2.30809">
        <ele>498.8</ele>
        <time>2023-08-20T14:39:34Z</time>
      </trkpt>
      <trkpt lat="44.45007" lon="2.30772">
        <ele>498.6</ele>
        <time>2023-08-20T14:39:36Z</time>
      </trkpt>
      <trkpt lat="44.45014" lon="2.30758">
        <ele>498.4</ele>
        <time>2023-08-20T14:39:37Z</time>
      </trkpt>
      <trkpt lat="44.45023" lon="2.30746">
        <ele>498.2</ele>
        <time>2023-08-20T14:39:38Z</time>
      </trkpt>
      <trkpt lat="44.45031" lon="2.30735">
        <ele>498</ele>
        <time>2023-08-20T14:39:39Z</time>
      </trkpt>
      <trkpt lat="44.45041" lon="2.30726">
        <ele>497.6</ele>
        <time>2023-08-20T14:39:40Z</time>
      </trkpt>
      <trkpt lat="44.45052" lon="2.30718">
        <ele>497.4</ele>
        <time>2023-08-20T14:39:41Z</time>
      </trkpt>
      <trkpt lat="44.45062" lon="2.30712">
        <ele>496.8</ele>
        <time>2023-08-20T14:39:42Z</time>
      </trkpt>
      <trkpt lat="44.45074" lon="2.30708">
        <ele>496.2</ele>
        <time>2023-08-20T14:39:43Z</time>
      </trkpt>
      <trkpt lat="44.45118" lon="2.30687">
        <ele>495.2</ele>
        <time>2023-08-20T14:39:47Z</time>
      </trkpt>
      <trkpt lat="44.45128" lon="2.30677">
        <ele>495</ele>
        <time>2023-08-20T14:39:48Z</time>
      </trkpt>
      <trkpt lat="44.45166" lon="2.30628">
        <ele>494.8</ele>
        <time>2023-08-20T14:39:52Z</time>
      </trkpt>
      <trkpt lat="44.45207" lon="2.30575">
        <ele>495.4</ele>
        <time>2023-08-20T14:39:56Z</time>
      </trkpt>
      <trkpt lat="44.45229" lon="2.30548">
        <ele>496</ele>
        <time>2023-08-20T14:39:58Z</time>
      </trkpt>
      <trkpt lat="44.4524" lon="2.30534">
        <ele>496.2</ele>
        <time>2023-08-20T14:39:59Z</time>
      </trkpt>
      <trkpt lat="44.45286" lon="2.30483">
        <ele>497.2</ele>
        <time>2023-08-20T14:40:03Z</time>
      </trkpt>
      <trkpt lat="44.45298" lon="2.30471">
        <ele>497.4</ele>
        <time>2023-08-20T14:40:04Z</time>
      </trkpt>
      <trkpt lat="44.45309" lon="2.30459">
        <ele>498</ele>
        <time>2023-08-20T14:40:05Z</time>
      </trkpt>
      <trkpt lat="44.45332" lon="2.30437">
        <ele>499.2</ele>
        <time>2023-08-20T14:40:07Z</time>
      </trkpt>
      <trkpt lat="44.45343" lon="2.30426">
        <ele>499.8</ele>
        <time>2023-08-20T14:40:08Z</time>
      </trkpt>
      <trkpt lat="44.45354" lon="2.30416">
        <ele>500</ele>
        <time>2023-08-20T14:40:09Z</time>
      </trkpt>
      <trkpt lat="44.45365" lon="2.30407">
        <ele>500.4</ele>
        <time>2023-08-20T14:40:10Z</time>
      </trkpt>
      <trkpt lat="44.45376" lon="2.30397">
        <ele>500.8</ele>
        <time>2023-08-20T14:40:11Z</time>
      </trkpt>
      <trkpt lat="44.45386" lon="2.30388">
        <ele>501.4</ele>
        <time>2023-08-20T14:40:12Z</time>
      </trkpt>
      <trkpt lat="44.45396" lon="2.30379">
        <ele>501.6</ele>
        <time>2023-08-20T14:40:13Z</time>
      </trkpt>
      <trkpt lat="44.45404" lon="2.3037">
        <ele>501.8</ele>
        <time>2023-08-20T14:40:14Z</time>
      </trkpt>
      <trkpt lat="44.45413" lon="2.30361">
        <ele>501.8</ele>
        <time>2023-08-20T14:40:15Z</time>
      </trkpt>
      <trkpt lat="44.4542" lon="2.30353">
        <ele>501.8</ele>
        <time>2023-08-20T14:40:16Z</time>
      </trkpt>
      <trkpt lat="44.45427" lon="2.30344">
        <ele>501.8</ele>
        <time>2023-08-20T14:40:17Z</time>
      </trkpt>
      <trkpt lat="44.45434" lon="2.30337">
        <ele>501.8</ele>
        <time>2023-08-20T14:40:18Z</time>
      </trkpt>
      <trkpt lat="44.45442" lon="2.3033">
        <ele>501.4</ele>
        <time>2023-08-20T14:40:19Z</time>
      </trkpt>
      <trkpt lat="44.45449" lon="2.30325">
        <ele>501</ele>
        <time>2023-08-20T14:40:20Z</time>
      </trkpt>
      <trkpt lat="44.45457" lon="2.30321">
        <ele>500.6</ele>
        <time>2023-08-20T14:40:21Z</time>
      </trkpt>
      <trkpt lat="44.45466" lon="2.30319">
        <ele>500.2</ele>
        <time>2023-08-20T14:40:22Z</time>
      </trkpt>
      <trkpt lat="44.45475" lon="2.30317">
        <ele>499.4</ele>
        <time>2023-08-20T14:40:23Z</time>
      </trkpt>
      <trkpt lat="44.45484" lon="2.30315">
        <ele>499.2</ele>
        <time>2023-08-20T14:40:24Z</time>
      </trkpt>
      <trkpt lat="44.45494" lon="2.30313">
        <ele>498.6</ele>
        <time>2023-08-20T14:40:25Z</time>
      </trkpt>
      <trkpt lat="44.45502" lon="2.3031">
        <ele>498.4</ele>
        <time>2023-08-20T14:40:26Z</time>
      </trkpt>
      <trkpt lat="44.4551" lon="2.30305">
        <ele>498.2</ele>
        <time>2023-08-20T14:40:27Z</time>
      </trkpt>
      <trkpt lat="44.45516" lon="2.30296">
        <ele>497.8</ele>
        <time>2023-08-20T14:40:28Z</time>
      </trkpt>
      <trkpt lat="44.45521" lon="2.30285">
        <ele>497.8</ele>
        <time>2023-08-20T14:40:29Z</time>
      </trkpt>
      <trkpt lat="44.45527" lon="2.30272">
        <ele>497.4</ele>
        <time>2023-08-20T14:40:30Z</time>
      </trkpt>
      <trkpt lat="44.45533" lon="2.30259">
        <ele>497.2</ele>
        <time>2023-08-20T14:40:31Z</time>
      </trkpt>
      <trkpt lat="44.45539" lon="2.30246">
        <ele>497.2</ele>
        <time>2023-08-20T14:40:32Z</time>
      </trkpt>
      <trkpt lat="44.45555" lon="2.3022">
        <ele>497</ele>
        <time>2023-08-20T14:40:34Z</time>
      </trkpt>
      <trkpt lat="44.45564" lon="2.30208">
        <ele>497</ele>
        <time>2023-08-20T14:40:35Z</time>
      </trkpt>
      <trkpt lat="44.45575" lon="2.30199">
        <ele>497</ele>
        <time>2023-08-20T14:40:36Z</time>
      </trkpt>
      <trkpt lat="44.45586" lon="2.3019">
        <ele>497.4</ele>
        <time>2023-08-20T14:40:37Z</time>
      </trkpt>
      <trkpt lat="44.45631" lon="2.30159">
        <ele>499</ele>
        <time>2023-08-20T14:40:41Z</time>
      </trkpt>
      <trkpt lat="44.45655" lon="2.30144">
        <ele>500</ele>
        <time>2023-08-20T14:40:43Z</time>
      </trkpt>
      <trkpt lat="44.45676" lon="2.3013">
        <ele>500.8</ele>
        <time>2023-08-20T14:40:45Z</time>
      </trkpt>
      <trkpt lat="44.45686" lon="2.30124">
        <ele>501</ele>
        <time>2023-08-20T14:40:46Z</time>
      </trkpt>
      <trkpt lat="44.45695" lon="2.30119">
        <ele>501</ele>
        <time>2023-08-20T14:40:47Z</time>
      </trkpt>
      <trkpt lat="44.45703" lon="2.30114">
        <ele>501.2</ele>
        <time>2023-08-20T14:40:48Z</time>
      </trkpt>
      <trkpt lat="44.45711" lon="2.30109">
        <ele>501.2</ele>
        <time>2023-08-20T14:40:49Z</time>
      </trkpt>
      <trkpt lat="44.45718" lon="2.30105">
        <ele>501.2</ele>
        <time>2023-08-20T14:40:50Z</time>
      </trkpt>
      <trkpt lat="44.45725" lon="2.30101">
        <ele>501.2</ele>
        <time>2023-08-20T14:40:51Z</time>
      </trkpt>
      <trkpt lat="44.45732" lon="2.30096">
        <ele>501.4</ele>
        <time>2023-08-20T14:40:52Z</time>
      </trkpt>
      <trkpt lat="44.45739" lon="2.30092">
        <ele>501.4</ele>
        <time>2023-08-20T14:40:53Z</time>
      </trkpt>
      <trkpt lat="44.45744" lon="2.30089">
        <ele>501.4</ele>
        <time>2023-08-20T14:40:54Z</time>
      </trkpt>
      <trkpt lat="44.45749" lon="2.30086">
        <ele>501.6</ele>
        <time>2023-08-20T14:40:55Z</time>
      </trkpt>
      <trkpt lat="44.45754" lon="2.30083">
        <ele>501.6</ele>
        <time>2023-08-20T14:40:56Z</time>
      </trkpt>
      <trkpt lat="44.45759" lon="2.30081">
        <ele>501.8</ele>
        <time>2023-08-20T14:40:57Z</time>
      </trkpt>
      <trkpt lat="44.45764" lon="2.30078">
        <ele>502</ele>
        <time>2023-08-20T14:40:58Z</time>
      </trkpt>
      <trkpt lat="44.45769" lon="2.30075">
        <ele>502.4</ele>
        <time>2023-08-20T14:40:59Z</time>
      </trkpt>
      <trkpt lat="44.45773" lon="2.30071">
        <ele>502.4</ele>
        <time>2023-08-20T14:41:00Z</time>
      </trkpt>
      <trkpt lat="44.45777" lon="2.30065">
        <ele>502.6</ele>
        <time>2023-08-20T14:41:01Z</time>
      </trkpt>
      <trkpt lat="44.45779" lon="2.30058">
        <ele>502.8</ele>
        <time>2023-08-20T14:41:02Z</time>
      </trkpt>
      <trkpt lat="44.45779" lon="2.30051">
        <ele>502.8</ele>
        <time>2023-08-20T14:41:03Z</time>
      </trkpt>
      <trkpt lat="44.45778" lon="2.30043">
        <ele>503</ele>
        <time>2023-08-20T14:41:04Z</time>
      </trkpt>
      <trkpt lat="44.45777" lon="2.30035">
        <ele>503.2</ele>
        <time>2023-08-20T14:41:05Z</time>
      </trkpt>
      <trkpt lat="44.45776" lon="2.30026">
        <ele>503.4</ele>
        <time>2023-08-20T14:41:06Z</time>
      </trkpt>
      <trkpt lat="44.45775" lon="2.30017">
        <ele>503.4</ele>
        <time>2023-08-20T14:41:07Z</time>
      </trkpt>
      <trkpt lat="44.45773" lon="2.30007">
        <ele>503.4</ele>
        <time>2023-08-20T14:41:08Z</time>
      </trkpt>
      <trkpt lat="44.45771" lon="2.29996">
        <ele>503.4</ele>
        <time>2023-08-20T14:41:09Z</time>
      </trkpt>
      <trkpt lat="44.4577" lon="2.29985">
        <ele>503.4</ele>
        <time>2023-08-20T14:41:10Z</time>
      </trkpt>
      <trkpt lat="44.45768" lon="2.29975">
        <ele>503.4</ele>
        <time>2023-08-20T14:41:11Z</time>
      </trkpt>
      <trkpt lat="44.45767" lon="2.29964">
        <ele>503.4</ele>
        <time>2023-08-20T14:41:12Z</time>
      </trkpt>
      <trkpt lat="44.45766" lon="2.29954">
        <ele>503.2</ele>
        <time>2023-08-20T14:41:13Z</time>
      </trkpt>
      <trkpt lat="44.45765" lon="2.29946">
        <ele>503.2</ele>
        <time>2023-08-20T14:41:14Z</time>
      </trkpt>
      <trkpt lat="44.45764" lon="2.29939">
        <ele>502.8</ele>
        <time>2023-08-20T14:41:15Z</time>
      </trkpt>
      <trkpt lat="44.45763" lon="2.29933">
        <ele>502.6</ele>
        <time>2023-08-20T14:41:16Z</time>
      </trkpt>
      <trkpt lat="44.45762" lon="2.29926">
        <ele>502.4</ele>
        <time>2023-08-20T14:41:17Z</time>
      </trkpt>
      <trkpt lat="44.45761" lon="2.29921">
        <ele>502</ele>
        <time>2023-08-20T14:41:18Z</time>
      </trkpt>
      <trkpt lat="44.45761" lon="2.29915">
        <ele>501.4</ele>
        <time>2023-08-20T14:41:19Z</time>
      </trkpt>
      <trkpt lat="44.4576" lon="2.2991">
        <ele>501.4</ele>
        <time>2023-08-20T14:41:20Z</time>
      </trkpt>
      <trkpt lat="44.45761" lon="2.29904">
        <ele>501.4</ele>
        <time>2023-08-20T14:41:21Z</time>
      </trkpt>
      <trkpt lat="44.45762" lon="2.29899">
        <ele>501.2</ele>
        <time>2023-08-20T14:41:22Z</time>
      </trkpt>
      <trkpt lat="44.45765" lon="2.29894">
        <ele>501</ele>
        <time>2023-08-20T14:41:23Z</time>
      </trkpt>
      <trkpt lat="44.4577" lon="2.2989">
        <ele>500.8</ele>
        <time>2023-08-20T14:41:24Z</time>
      </trkpt>
      <trkpt lat="44.45776" lon="2.29886">
        <ele>500.6</ele>
        <time>2023-08-20T14:41:25Z</time>
      </trkpt>
      <trkpt lat="44.45782" lon="2.29882">
        <ele>500.4</ele>
        <time>2023-08-20T14:41:26Z</time>
      </trkpt>
      <trkpt lat="44.45789" lon="2.29878">
        <ele>500</ele>
        <time>2023-08-20T14:41:27Z</time>
      </trkpt>
      <trkpt lat="44.45796" lon="2.29873">
        <ele>500</ele>
        <time>2023-08-20T14:41:28Z</time>
      </trkpt>
      <trkpt lat="44.4581" lon="2.29863">
        <ele>499.8</ele>
        <time>2023-08-20T14:41:30Z</time>
      </trkpt>
      <trkpt lat="44.45864" lon="2.29827">
        <ele>499.4</ele>
        <time>2023-08-20T14:41:37Z</time>
      </trkpt>
      <trkpt lat="44.45895" lon="2.29805">
        <ele>499.4</ele>
        <time>2023-08-20T14:41:41Z</time>
      </trkpt>
      <trkpt lat="44.45916" lon="2.29791">
        <ele>499.8</ele>
        <time>2023-08-20T14:41:44Z</time>
      </trkpt>
      <trkpt lat="44.45921" lon="2.29786">
        <ele>500</ele>
        <time>2023-08-20T14:41:45Z</time>
      </trkpt>
      <trkpt lat="44.45927" lon="2.29782">
        <ele>500.4</ele>
        <time>2023-08-20T14:41:46Z</time>
      </trkpt>
      <trkpt lat="44.45934" lon="2.29778">
        <ele>500.8</ele>
        <time>2023-08-20T14:41:47Z</time>
      </trkpt>
      <trkpt lat="44.45939" lon="2.29774">
        <ele>501.2</ele>
        <time>2023-08-20T14:41:48Z</time>
      </trkpt>
      <trkpt lat="44.45958" lon="2.29762">
        <ele>502.6</ele>
        <time>2023-08-20T14:41:51Z</time>
      </trkpt>
      <trkpt lat="44.45963" lon="2.2976">
        <ele>502.6</ele>
        <time>2023-08-20T14:41:52Z</time>
      </trkpt>
      <trkpt lat="44.45966" lon="2.29758">
        <ele>503.4</ele>
        <time>2023-08-20T14:41:53Z</time>
      </trkpt>
      <trkpt lat="44.45969" lon="2.29754">
        <ele>503.8</ele>
        <time>2023-08-20T14:41:54Z</time>
      </trkpt>
      <trkpt lat="44.45971" lon="2.29749">
        <ele>503.8</ele>
        <time>2023-08-20T14:41:55Z</time>
      </trkpt>
      <trkpt lat="44.45971" lon="2.29743">
        <ele>504.4</ele>
        <time>2023-08-20T14:41:56Z</time>
      </trkpt>
      <trkpt lat="44.4597" lon="2.29735">
        <ele>504.6</ele>
        <time>2023-08-20T14:41:57Z</time>
      </trkpt>
      <trkpt lat="44.45968" lon="2.29727">
        <ele>505</ele>
        <time>2023-08-20T14:41:58Z</time>
      </trkpt>
      <trkpt lat="44.45966" lon="2.29718">
        <ele>505.2</ele>
        <time>2023-08-20T14:41:59Z</time>
      </trkpt>
      <trkpt lat="44.45963" lon="2.29708">
        <ele>505.6</ele>
        <time>2023-08-20T14:42:00Z</time>
      </trkpt>
      <trkpt lat="44.4596" lon="2.29697">
        <ele>505.8</ele>
        <time>2023-08-20T14:42:01Z</time>
      </trkpt>
      <trkpt lat="44.45956" lon="2.29686">
        <ele>506</ele>
        <time>2023-08-20T14:42:02Z</time>
      </trkpt>
      <trkpt lat="44.45951" lon="2.29674">
        <ele>506.2</ele>
        <time>2023-08-20T14:42:03Z</time>
      </trkpt>
      <trkpt lat="44.45946" lon="2.29661">
        <ele>506.2</ele>
        <time>2023-08-20T14:42:04Z</time>
      </trkpt>
      <trkpt lat="44.4594" lon="2.29647">
        <ele>506.4</ele>
        <time>2023-08-20T14:42:05Z</time>
      </trkpt>
      <trkpt lat="44.45934" lon="2.29632">
        <ele>506.4</ele>
        <time>2023-08-20T14:42:06Z</time>
      </trkpt>
      <trkpt lat="44.45928" lon="2.29617">
        <ele>506.4</ele>
        <time>2023-08-20T14:42:07Z</time>
      </trkpt>
      <trkpt lat="44.4592" lon="2.29602">
        <ele>506.4</ele>
        <time>2023-08-20T14:42:08Z</time>
      </trkpt>
      <trkpt lat="44.45912" lon="2.29587">
        <ele>506.4</ele>
        <time>2023-08-20T14:42:09Z</time>
      </trkpt>
      <trkpt lat="44.45904" lon="2.29573">
        <ele>506.2</ele>
        <time>2023-08-20T14:42:10Z</time>
      </trkpt>
      <trkpt lat="44.45896" lon="2.29559">
        <ele>506.2</ele>
        <time>2023-08-20T14:42:11Z</time>
      </trkpt>
      <trkpt lat="44.45889" lon="2.29545">
        <ele>505.8</ele>
        <time>2023-08-20T14:42:12Z</time>
      </trkpt>
      <trkpt lat="44.45883" lon="2.2953">
        <ele>505.4</ele>
        <time>2023-08-20T14:42:13Z</time>
      </trkpt>
      <trkpt lat="44.45879" lon="2.29515">
        <ele>504.6</ele>
        <time>2023-08-20T14:42:14Z</time>
      </trkpt>
      <trkpt lat="44.45874" lon="2.29499">
        <ele>504.4</ele>
        <time>2023-08-20T14:42:15Z</time>
      </trkpt>
      <trkpt lat="44.45869" lon="2.29484">
        <ele>504</ele>
        <time>2023-08-20T14:42:16Z</time>
      </trkpt>
      <trkpt lat="44.45863" lon="2.29469">
        <ele>503.6</ele>
        <time>2023-08-20T14:42:17Z</time>
      </trkpt>
      <trkpt lat="44.45857" lon="2.29453">
        <ele>503.2</ele>
        <time>2023-08-20T14:42:18Z</time>
      </trkpt>
      <trkpt lat="44.45849" lon="2.29438">
        <ele>503</ele>
        <time>2023-08-20T14:42:19Z</time>
      </trkpt>
      <trkpt lat="44.45842" lon="2.29422">
        <ele>502</ele>
        <time>2023-08-20T14:42:20Z</time>
      </trkpt>
      <trkpt lat="44.45829" lon="2.29391">
        <ele>500.6</ele>
        <time>2023-08-20T14:42:22Z</time>
      </trkpt>
      <trkpt lat="44.45823" lon="2.29376">
        <ele>500</ele>
        <time>2023-08-20T14:42:23Z</time>
      </trkpt>
      <trkpt lat="44.45816" lon="2.2936">
        <ele>499.4</ele>
        <time>2023-08-20T14:42:24Z</time>
      </trkpt>
      <trkpt lat="44.45811" lon="2.29344">
        <ele>498.6</ele>
        <time>2023-08-20T14:42:25Z</time>
      </trkpt>
      <trkpt lat="44.45806" lon="2.29328">
        <ele>498.2</ele>
        <time>2023-08-20T14:42:26Z</time>
      </trkpt>
      <trkpt lat="44.45804" lon="2.29311">
        <ele>497.2</ele>
        <time>2023-08-20T14:42:27Z</time>
      </trkpt>
      <trkpt lat="44.45803" lon="2.29295">
        <ele>496.4</ele>
        <time>2023-08-20T14:42:28Z</time>
      </trkpt>
      <trkpt lat="44.45803" lon="2.29278">
        <ele>495.8</ele>
        <time>2023-08-20T14:42:29Z</time>
      </trkpt>
      <trkpt lat="44.45804" lon="2.29261">
        <ele>494.8</ele>
        <time>2023-08-20T14:42:30Z</time>
      </trkpt>
      <trkpt lat="44.45803" lon="2.29244">
        <ele>494.2</ele>
        <time>2023-08-20T14:42:31Z</time>
      </trkpt>
      <trkpt lat="44.458" lon="2.29229">
        <ele>492.8</ele>
        <time>2023-08-20T14:42:32Z</time>
      </trkpt>
      <trkpt lat="44.45796" lon="2.29215">
        <ele>492.4</ele>
        <time>2023-08-20T14:42:33Z</time>
      </trkpt>
      <trkpt lat="44.4579" lon="2.29202">
        <ele>491.8</ele>
        <time>2023-08-20T14:42:34Z</time>
      </trkpt>
      <trkpt lat="44.45784" lon="2.29189">
        <ele>491.6</ele>
        <time>2023-08-20T14:42:35Z</time>
      </trkpt>
      <trkpt lat="44.45776" lon="2.29177">
        <ele>491.4</ele>
        <time>2023-08-20T14:42:36Z</time>
      </trkpt>
      <trkpt lat="44.45768" lon="2.29165">
        <ele>491.2</ele>
        <time>2023-08-20T14:42:37Z</time>
      </trkpt>
      <trkpt lat="44.45734" lon="2.29114">
        <ele>491</ele>
        <time>2023-08-20T14:42:41Z</time>
      </trkpt>
      <trkpt lat="44.45717" lon="2.29083">
        <ele>491.2</ele>
        <time>2023-08-20T14:42:43Z</time>
      </trkpt>
      <trkpt lat="44.45712" lon="2.29069">
        <ele>491.4</ele>
        <time>2023-08-20T14:42:44Z</time>
      </trkpt>
      <trkpt lat="44.45686" lon="2.28986">
        <ele>493</ele>
        <time>2023-08-20T14:42:48Z</time>
      </trkpt>
      <trkpt lat="44.45669" lon="2.28928">
        <ele>493.2</ele>
        <time>2023-08-20T14:42:51Z</time>
      </trkpt>
      <trkpt lat="44.45663" lon="2.2891">
        <ele>493.2</ele>
        <time>2023-08-20T14:42:52Z</time>
      </trkpt>
      <trkpt lat="44.45657" lon="2.28892">
        <ele>493.4</ele>
        <time>2023-08-20T14:42:53Z</time>
      </trkpt>
      <trkpt lat="44.4563" lon="2.28818">
        <ele>493</ele>
        <time>2023-08-20T14:42:57Z</time>
      </trkpt>
      <trkpt lat="44.45618" lon="2.28785">
        <ele>492</ele>
        <time>2023-08-20T14:42:59Z</time>
      </trkpt>
      <trkpt lat="44.45613" lon="2.28762">
        <ele>491.6</ele>
        <time>2023-08-20T14:43:00Z</time>
      </trkpt>
      <trkpt lat="44.45611" lon="2.2874">
        <ele>491</ele>
        <time>2023-08-20T14:43:01Z</time>
      </trkpt>
      <trkpt lat="44.45611" lon="2.28723">
        <ele>490.4</ele>
        <time>2023-08-20T14:43:02Z</time>
      </trkpt>
      <trkpt lat="44.45611" lon="2.287">
        <ele>489.8</ele>
        <time>2023-08-20T14:43:03Z</time>
      </trkpt>
      <trkpt lat="44.45612" lon="2.28673">
        <ele>489.4</ele>
        <time>2023-08-20T14:43:04Z</time>
      </trkpt>
      <trkpt lat="44.45613" lon="2.2865">
        <ele>489.4</ele>
        <time>2023-08-20T14:43:05Z</time>
      </trkpt>
      <trkpt lat="44.45621" lon="2.28559">
        <ele>488.8</ele>
        <time>2023-08-20T14:43:09Z</time>
      </trkpt>
      <trkpt lat="44.45625" lon="2.28537">
        <ele>488.8</ele>
        <time>2023-08-20T14:43:10Z</time>
      </trkpt>
      <trkpt lat="44.45636" lon="2.28479">
        <ele>488.8</ele>
        <time>2023-08-20T14:43:13Z</time>
      </trkpt>
      <trkpt lat="44.45639" lon="2.28456">
        <ele>488.8</ele>
        <time>2023-08-20T14:43:14Z</time>
      </trkpt>
      <trkpt lat="44.45639" lon="2.28437">
        <ele>489.4</ele>
        <time>2023-08-20T14:43:15Z</time>
      </trkpt>
      <trkpt lat="44.45637" lon="2.28418">
        <ele>489.6</ele>
        <time>2023-08-20T14:43:16Z</time>
      </trkpt>
      <trkpt lat="44.45634" lon="2.28402">
        <ele>490</ele>
        <time>2023-08-20T14:43:17Z</time>
      </trkpt>
      <trkpt lat="44.45628" lon="2.28383">
        <ele>490.2</ele>
        <time>2023-08-20T14:43:18Z</time>
      </trkpt>
      <trkpt lat="44.45619" lon="2.28361">
        <ele>490.4</ele>
        <time>2023-08-20T14:43:19Z</time>
      </trkpt>
      <trkpt lat="44.45612" lon="2.28343">
        <ele>490.6</ele>
        <time>2023-08-20T14:43:20Z</time>
      </trkpt>
      <trkpt lat="44.45606" lon="2.28325">
        <ele>490.8</ele>
        <time>2023-08-20T14:43:21Z</time>
      </trkpt>
      <trkpt lat="44.45602" lon="2.28311">
        <ele>491.2</ele>
        <time>2023-08-20T14:43:22Z</time>
      </trkpt>
      <trkpt lat="44.456" lon="2.28292">
        <ele>491.4</ele>
        <time>2023-08-20T14:43:23Z</time>
      </trkpt>
      <trkpt lat="44.456" lon="2.28272">
        <ele>491.6</ele>
        <time>2023-08-20T14:43:24Z</time>
      </trkpt>
      <trkpt lat="44.45601" lon="2.28252">
        <ele>491.8</ele>
        <time>2023-08-20T14:43:25Z</time>
      </trkpt>
      <trkpt lat="44.45602" lon="2.28233">
        <ele>492</ele>
        <time>2023-08-20T14:43:26Z</time>
      </trkpt>
      <trkpt lat="44.45605" lon="2.28193">
        <ele>493.2</ele>
        <time>2023-08-20T14:43:28Z</time>
      </trkpt>
      <trkpt lat="44.45607" lon="2.28153">
        <ele>494.4</ele>
        <time>2023-08-20T14:43:30Z</time>
      </trkpt>
      <trkpt lat="44.45609" lon="2.28128">
        <ele>495.4</ele>
        <time>2023-08-20T14:43:31Z</time>
      </trkpt>
      <trkpt lat="44.4561" lon="2.28111">
        <ele>495.8</ele>
        <time>2023-08-20T14:43:32Z</time>
      </trkpt>
      <trkpt lat="44.45612" lon="2.28091">
        <ele>496.4</ele>
        <time>2023-08-20T14:43:33Z</time>
      </trkpt>
      <trkpt lat="44.45613" lon="2.28067">
        <ele>496.6</ele>
        <time>2023-08-20T14:43:34Z</time>
      </trkpt>
      <trkpt lat="44.45615" lon="2.28048">
        <ele>496.8</ele>
        <time>2023-08-20T14:43:35Z</time>
      </trkpt>
      <trkpt lat="44.45617" lon="2.28029">
        <ele>496.8</ele>
        <time>2023-08-20T14:43:36Z</time>
      </trkpt>
      <trkpt lat="44.4562" lon="2.28015">
        <ele>496.8</ele>
        <time>2023-08-20T14:43:37Z</time>
      </trkpt>
      <trkpt lat="44.45625" lon="2.28001">
        <ele>496.8</ele>
        <time>2023-08-20T14:43:38Z</time>
      </trkpt>
      <trkpt lat="44.45631" lon="2.27989">
        <ele>496.8</ele>
        <time>2023-08-20T14:43:39Z</time>
      </trkpt>
      <trkpt lat="44.45637" lon="2.27977">
        <ele>496.8</ele>
        <time>2023-08-20T14:43:40Z</time>
      </trkpt>
      <trkpt lat="44.45642" lon="2.27965">
        <ele>496.8</ele>
        <time>2023-08-20T14:43:41Z</time>
      </trkpt>
      <trkpt lat="44.45645" lon="2.27953">
        <ele>496.4</ele>
        <time>2023-08-20T14:43:42Z</time>
      </trkpt>
      <trkpt lat="44.45647" lon="2.2794">
        <ele>496</ele>
        <time>2023-08-20T14:43:43Z</time>
      </trkpt>
      <trkpt lat="44.45647" lon="2.27922">
        <ele>495.2</ele>
        <time>2023-08-20T14:43:44Z</time>
      </trkpt>
      <trkpt lat="44.45645" lon="2.27909">
        <ele>494.8</ele>
        <time>2023-08-20T14:43:45Z</time>
      </trkpt>
      <trkpt lat="44.45642" lon="2.27889">
        <ele>494.4</ele>
        <time>2023-08-20T14:43:46Z</time>
      </trkpt>
      <trkpt lat="44.45639" lon="2.27876">
        <ele>493.8</ele>
        <time>2023-08-20T14:43:47Z</time>
      </trkpt>
      <trkpt lat="44.45635" lon="2.27859">
        <ele>493.6</ele>
        <time>2023-08-20T14:43:48Z</time>
      </trkpt>
      <trkpt lat="44.45629" lon="2.2784">
        <ele>493</ele>
        <time>2023-08-20T14:43:49Z</time>
      </trkpt>
      <trkpt lat="44.45623" lon="2.27825">
        <ele>492.6</ele>
        <time>2023-08-20T14:43:50Z</time>
      </trkpt>
      <trkpt lat="44.45616" lon="2.27811">
        <ele>492.2</ele>
        <time>2023-08-20T14:43:51Z</time>
      </trkpt>
      <trkpt lat="44.45601" lon="2.27787">
        <ele>490.6</ele>
        <time>2023-08-20T14:43:53Z</time>
      </trkpt>
      <trkpt lat="44.45592" lon="2.2777">
        <ele>490.2</ele>
        <time>2023-08-20T14:43:54Z</time>
      </trkpt>
      <trkpt lat="44.45586" lon="2.27754">
        <ele>489.2</ele>
        <time>2023-08-20T14:43:55Z</time>
      </trkpt>
      <trkpt lat="44.45582" lon="2.2774">
        <ele>488.2</ele>
        <time>2023-08-20T14:43:56Z</time>
      </trkpt>
      <trkpt lat="44.45576" lon="2.27704">
        <ele>486.4</ele>
        <time>2023-08-20T14:43:58Z</time>
      </trkpt>
      <trkpt lat="44.45572" lon="2.27682">
        <ele>486</ele>
        <time>2023-08-20T14:43:59Z</time>
      </trkpt>
      <trkpt lat="44.4557" lon="2.27668">
        <ele>484.8</ele>
        <time>2023-08-20T14:44:00Z</time>
      </trkpt>
      <trkpt lat="44.45563" lon="2.27631">
        <ele>483.6</ele>
        <time>2023-08-20T14:44:02Z</time>
      </trkpt>
      <trkpt lat="44.4555" lon="2.27553">
        <ele>483</ele>
        <time>2023-08-20T14:44:06Z</time>
      </trkpt>
      <trkpt lat="44.45548" lon="2.27537">
        <ele>483</ele>
        <time>2023-08-20T14:44:07Z</time>
      </trkpt>
      <trkpt lat="44.45543" lon="2.27451">
        <ele>484</ele>
        <time>2023-08-20T14:44:11Z</time>
      </trkpt>
      <trkpt lat="44.45541" lon="2.27405">
        <ele>484.8</ele>
        <time>2023-08-20T14:44:13Z</time>
      </trkpt>
      <trkpt lat="44.45539" lon="2.27359">
        <ele>486.2</ele>
        <time>2023-08-20T14:44:15Z</time>
      </trkpt>
      <trkpt lat="44.45536" lon="2.27314">
        <ele>487</ele>
        <time>2023-08-20T14:44:17Z</time>
      </trkpt>
      <trkpt lat="44.45533" lon="2.27292">
        <ele>487.6</ele>
        <time>2023-08-20T14:44:18Z</time>
      </trkpt>
      <trkpt lat="44.45518" lon="2.27203">
        <ele>488.6</ele>
        <time>2023-08-20T14:44:22Z</time>
      </trkpt>
      <trkpt lat="44.45511" lon="2.27153">
        <ele>489.2</ele>
        <time>2023-08-20T14:44:24Z</time>
      </trkpt>
      <trkpt lat="44.45504" lon="2.27094">
        <ele>490</ele>
        <time>2023-08-20T14:44:27Z</time>
      </trkpt>
      <trkpt lat="44.45502" lon="2.27074">
        <ele>490.2</ele>
        <time>2023-08-20T14:44:28Z</time>
      </trkpt>
      <trkpt lat="44.455" lon="2.27055">
        <ele>490.2</ele>
        <time>2023-08-20T14:44:29Z</time>
      </trkpt>
      <trkpt lat="44.45498" lon="2.27032">
        <ele>490.4</ele>
        <time>2023-08-20T14:44:30Z</time>
      </trkpt>
      <trkpt lat="44.45496" lon="2.27016">
        <ele>490.4</ele>
        <time>2023-08-20T14:44:31Z</time>
      </trkpt>
      <trkpt lat="44.45496" lon="2.26997">
        <ele>490.6</ele>
        <time>2023-08-20T14:44:32Z</time>
      </trkpt>
      <trkpt lat="44.45496" lon="2.26978">
        <ele>490.8</ele>
        <time>2023-08-20T14:44:33Z</time>
      </trkpt>
      <trkpt lat="44.45496" lon="2.26954">
        <ele>491</ele>
        <time>2023-08-20T14:44:34Z</time>
      </trkpt>
      <trkpt lat="44.45497" lon="2.26938">
        <ele>491</ele>
        <time>2023-08-20T14:44:35Z</time>
      </trkpt>
      <trkpt lat="44.45499" lon="2.26918">
        <ele>491.2</ele>
        <time>2023-08-20T14:44:36Z</time>
      </trkpt>
      <trkpt lat="44.45502" lon="2.26898">
        <ele>491.4</ele>
        <time>2023-08-20T14:44:37Z</time>
      </trkpt>
      <trkpt lat="44.45505" lon="2.26878">
        <ele>492.2</ele>
        <time>2023-08-20T14:44:38Z</time>
      </trkpt>
      <trkpt lat="44.45509" lon="2.26857">
        <ele>493</ele>
        <time>2023-08-20T14:44:39Z</time>
      </trkpt>
      <trkpt lat="44.45513" lon="2.26836">
        <ele>493.4</ele>
        <time>2023-08-20T14:44:40Z</time>
      </trkpt>
      <trkpt lat="44.45518" lon="2.2681">
        <ele>494</ele>
        <time>2023-08-20T14:44:41Z</time>
      </trkpt>
      <trkpt lat="44.45522" lon="2.26789">
        <ele>494.6</ele>
        <time>2023-08-20T14:44:42Z</time>
      </trkpt>
      <trkpt lat="44.45527" lon="2.26768">
        <ele>495.8</ele>
        <time>2023-08-20T14:44:43Z</time>
      </trkpt>
      <trkpt lat="44.45531" lon="2.26747">
        <ele>496.4</ele>
        <time>2023-08-20T14:44:44Z</time>
      </trkpt>
      <trkpt lat="44.45536" lon="2.26727">
        <ele>497.2</ele>
        <time>2023-08-20T14:44:45Z</time>
      </trkpt>
      <trkpt lat="44.4554" lon="2.26707">
        <ele>497.6</ele>
        <time>2023-08-20T14:44:46Z</time>
      </trkpt>
      <trkpt lat="44.45545" lon="2.26687">
        <ele>498.8</ele>
        <time>2023-08-20T14:44:47Z</time>
      </trkpt>
      <trkpt lat="44.45549" lon="2.26667">
        <ele>499.8</ele>
        <time>2023-08-20T14:44:48Z</time>
      </trkpt>
      <trkpt lat="44.45552" lon="2.26647">
        <ele>500.6</ele>
        <time>2023-08-20T14:44:49Z</time>
      </trkpt>
      <trkpt lat="44.45556" lon="2.26627">
        <ele>501.4</ele>
        <time>2023-08-20T14:44:50Z</time>
      </trkpt>
      <trkpt lat="44.4556" lon="2.26608">
        <ele>501.6</ele>
        <time>2023-08-20T14:44:51Z</time>
      </trkpt>
      <trkpt lat="44.45565" lon="2.26588">
        <ele>502.8</ele>
        <time>2023-08-20T14:44:52Z</time>
      </trkpt>
      <trkpt lat="44.45569" lon="2.26569">
        <ele>503.4</ele>
        <time>2023-08-20T14:44:53Z</time>
      </trkpt>
      <trkpt lat="44.45571" lon="2.26548">
        <ele>504.2</ele>
        <time>2023-08-20T14:44:54Z</time>
      </trkpt>
      <trkpt lat="44.45573" lon="2.26528">
        <ele>504.4</ele>
        <time>2023-08-20T14:44:55Z</time>
      </trkpt>
      <trkpt lat="44.45574" lon="2.26507">
        <ele>505.4</ele>
        <time>2023-08-20T14:44:56Z</time>
      </trkpt>
      <trkpt lat="44.45574" lon="2.26486">
        <ele>506.8</ele>
        <time>2023-08-20T14:44:57Z</time>
      </trkpt>
      <trkpt lat="44.45574" lon="2.26464">
        <ele>507.4</ele>
        <time>2023-08-20T14:44:58Z</time>
      </trkpt>
      <trkpt lat="44.45574" lon="2.26443">
        <ele>508.2</ele>
        <time>2023-08-20T14:44:59Z</time>
      </trkpt>
      <trkpt lat="44.45573" lon="2.26422">
        <ele>508.4</ele>
        <time>2023-08-20T14:45:00Z</time>
      </trkpt>
      <trkpt lat="44.45573" lon="2.264">
        <ele>509.4</ele>
        <time>2023-08-20T14:45:01Z</time>
      </trkpt>
      <trkpt lat="44.45573" lon="2.26378">
        <ele>510</ele>
        <time>2023-08-20T14:45:02Z</time>
      </trkpt>
      <trkpt lat="44.45574" lon="2.26349">
        <ele>510.8</ele>
        <time>2023-08-20T14:45:03Z</time>
      </trkpt>
      <trkpt lat="44.45575" lon="2.26325">
        <ele>511.2</ele>
        <time>2023-08-20T14:45:04Z</time>
      </trkpt>
      <trkpt lat="44.45577" lon="2.26301">
        <ele>511.8</ele>
        <time>2023-08-20T14:45:05Z</time>
      </trkpt>
      <trkpt lat="44.45579" lon="2.26276">
        <ele>512.4</ele>
        <time>2023-08-20T14:45:06Z</time>
      </trkpt>
      <trkpt lat="44.45581" lon="2.26257">
        <ele>512.6</ele>
        <time>2023-08-20T14:45:07Z</time>
      </trkpt>
      <trkpt lat="44.45583" lon="2.26228">
        <ele>512.8</ele>
        <time>2023-08-20T14:45:08Z</time>
      </trkpt>
      <trkpt lat="44.45586" lon="2.26206">
        <ele>512.8</ele>
        <time>2023-08-20T14:45:09Z</time>
      </trkpt>
      <trkpt lat="44.45588" lon="2.26184">
        <ele>512.8</ele>
        <time>2023-08-20T14:45:10Z</time>
      </trkpt>
      <trkpt lat="44.45589" lon="2.26167">
        <ele>512.8</ele>
        <time>2023-08-20T14:45:11Z</time>
      </trkpt>
      <trkpt lat="44.45591" lon="2.26148">
        <ele>512.8</ele>
        <time>2023-08-20T14:45:12Z</time>
      </trkpt>
      <trkpt lat="44.45592" lon="2.26124">
        <ele>512.8</ele>
        <time>2023-08-20T14:45:13Z</time>
      </trkpt>
      <trkpt lat="44.45592" lon="2.26105">
        <ele>512.8</ele>
        <time>2023-08-20T14:45:14Z</time>
      </trkpt>
      <trkpt lat="44.45593" lon="2.26086">
        <ele>512.6</ele>
        <time>2023-08-20T14:45:15Z</time>
      </trkpt>
      <trkpt lat="44.45593" lon="2.26071">
        <ele>512.4</ele>
        <time>2023-08-20T14:45:16Z</time>
      </trkpt>
      <trkpt lat="44.45593" lon="2.26049">
        <ele>512.2</ele>
        <time>2023-08-20T14:45:17Z</time>
      </trkpt>
      <trkpt lat="44.45592" lon="2.2603">
        <ele>512</ele>
        <time>2023-08-20T14:45:18Z</time>
      </trkpt>
      <trkpt lat="44.45591" lon="2.26009">
        <ele>511.8</ele>
        <time>2023-08-20T14:45:19Z</time>
      </trkpt>
      <trkpt lat="44.45589" lon="2.25992">
        <ele>511.6</ele>
        <time>2023-08-20T14:45:20Z</time>
      </trkpt>
      <trkpt lat="44.45587" lon="2.25971">
        <ele>511.4</ele>
        <time>2023-08-20T14:45:21Z</time>
      </trkpt>
      <trkpt lat="44.45585" lon="2.25949">
        <ele>511.4</ele>
        <time>2023-08-20T14:45:22Z</time>
      </trkpt>
      <trkpt lat="44.45582" lon="2.25928">
        <ele>511.2</ele>
        <time>2023-08-20T14:45:23Z</time>
      </trkpt>
      <trkpt lat="44.4558" lon="2.25907">
        <ele>511</ele>
        <time>2023-08-20T14:45:24Z</time>
      </trkpt>
      <trkpt lat="44.45578" lon="2.25887">
        <ele>511</ele>
        <time>2023-08-20T14:45:25Z</time>
      </trkpt>
      <trkpt lat="44.45576" lon="2.25866">
        <ele>510.6</ele>
        <time>2023-08-20T14:45:26Z</time>
      </trkpt>
      <trkpt lat="44.45574" lon="2.25846">
        <ele>510.6</ele>
        <time>2023-08-20T14:45:27Z</time>
      </trkpt>
      <trkpt lat="44.45572" lon="2.25826">
        <ele>509.8</ele>
        <time>2023-08-20T14:45:28Z</time>
      </trkpt>
      <trkpt lat="44.45569" lon="2.25803">
        <ele>509.4</ele>
        <time>2023-08-20T14:45:29Z</time>
      </trkpt>
      <trkpt lat="44.45567" lon="2.25787">
        <ele>508.4</ele>
        <time>2023-08-20T14:45:30Z</time>
      </trkpt>
      <trkpt lat="44.45565" lon="2.25768">
        <ele>508.2</ele>
        <time>2023-08-20T14:45:31Z</time>
      </trkpt>
      <trkpt lat="44.45563" lon="2.25745">
        <ele>507.2</ele>
        <time>2023-08-20T14:45:32Z</time>
      </trkpt>
      <trkpt lat="44.45561" lon="2.25725">
        <ele>506.4</ele>
        <time>2023-08-20T14:45:33Z</time>
      </trkpt>
      <trkpt lat="44.45559" lon="2.25705">
        <ele>506.2</ele>
        <time>2023-08-20T14:45:34Z</time>
      </trkpt>
      <trkpt lat="44.45554" lon="2.25667">
        <ele>504.8</ele>
        <time>2023-08-20T14:45:36Z</time>
      </trkpt>
      <trkpt lat="44.45551" lon="2.25651">
        <ele>503.8</ele>
        <time>2023-08-20T14:45:37Z</time>
      </trkpt>
      <trkpt lat="44.45546" lon="2.25629">
        <ele>503.4</ele>
        <time>2023-08-20T14:45:38Z</time>
      </trkpt>
      <trkpt lat="44.45536" lon="2.25596">
        <ele>501.6</ele>
        <time>2023-08-20T14:45:40Z</time>
      </trkpt>
      <trkpt lat="44.45529" lon="2.25574">
        <ele>501.4</ele>
        <time>2023-08-20T14:45:41Z</time>
      </trkpt>
      <trkpt lat="44.45525" lon="2.25561">
        <ele>500.6</ele>
        <time>2023-08-20T14:45:42Z</time>
      </trkpt>
      <trkpt lat="44.45519" lon="2.25545">
        <ele>500.4</ele>
        <time>2023-08-20T14:45:43Z</time>
      </trkpt>
      <trkpt lat="44.45512" lon="2.2553">
        <ele>499.4</ele>
        <time>2023-08-20T14:45:44Z</time>
      </trkpt>
      <trkpt lat="44.45505" lon="2.25517">
        <ele>498.8</ele>
        <time>2023-08-20T14:45:45Z</time>
      </trkpt>
      <trkpt lat="44.45495" lon="2.25503">
        <ele>497.8</ele>
        <time>2023-08-20T14:45:46Z</time>
      </trkpt>
      <trkpt lat="44.45487" lon="2.25492">
        <ele>497.2</ele>
        <time>2023-08-20T14:45:47Z</time>
      </trkpt>
      <trkpt lat="44.4548" lon="2.25481">
        <ele>496.4</ele>
        <time>2023-08-20T14:45:48Z</time>
      </trkpt>
      <trkpt lat="44.45474" lon="2.25472">
        <ele>495.6</ele>
        <time>2023-08-20T14:45:49Z</time>
      </trkpt>
      <trkpt lat="44.45465" lon="2.25458">
        <ele>495.2</ele>
        <time>2023-08-20T14:45:50Z</time>
      </trkpt>
      <trkpt lat="44.4546" lon="2.2545">
        <ele>494.6</ele>
        <time>2023-08-20T14:45:51Z</time>
      </trkpt>
      <trkpt lat="44.45452" lon="2.25437">
        <ele>494.4</ele>
        <time>2023-08-20T14:45:52Z</time>
      </trkpt>
      <trkpt lat="44.45448" lon="2.25428">
        <ele>493.6</ele>
        <time>2023-08-20T14:45:53Z</time>
      </trkpt>
      <trkpt lat="44.45443" lon="2.25417">
        <ele>493.2</ele>
        <time>2023-08-20T14:45:54Z</time>
      </trkpt>
      <trkpt lat="44.45438" lon="2.25407">
        <ele>492.8</ele>
        <time>2023-08-20T14:45:55Z</time>
      </trkpt>
      <trkpt lat="44.45432" lon="2.25396">
        <ele>492.4</ele>
        <time>2023-08-20T14:45:56Z</time>
      </trkpt>
      <trkpt lat="44.45428" lon="2.25389">
        <ele>492.2</ele>
        <time>2023-08-20T14:45:57Z</time>
      </trkpt>
      <trkpt lat="44.45423" lon="2.25381">
        <ele>491.6</ele>
        <time>2023-08-20T14:45:58Z</time>
      </trkpt>
      <trkpt lat="44.45417" lon="2.25372">
        <ele>491.4</ele>
        <time>2023-08-20T14:45:59Z</time>
      </trkpt>
      <trkpt lat="44.45412" lon="2.25365">
        <ele>490.8</ele>
        <time>2023-08-20T14:46:00Z</time>
      </trkpt>
      <trkpt lat="44.45409" lon="2.2536">
        <ele>490.6</ele>
        <time>2023-08-20T14:46:01Z</time>
      </trkpt>
      <trkpt lat="44.45404" lon="2.25353">
        <ele>490.2</ele>
        <time>2023-08-20T14:46:02Z</time>
      </trkpt>
      <trkpt lat="44.454" lon="2.25346">
        <ele>490</ele>
        <time>2023-08-20T14:46:03Z</time>
      </trkpt>
      <trkpt lat="44.45397" lon="2.2534">
        <ele>489.4</ele>
        <time>2023-08-20T14:46:04Z</time>
      </trkpt>
      <trkpt lat="44.45393" lon="2.25334">
        <ele>489.4</ele>
        <time>2023-08-20T14:46:05Z</time>
      </trkpt>
      <trkpt lat="44.45389" lon="2.25327">
        <ele>489.2</ele>
        <time>2023-08-20T14:46:06Z</time>
      </trkpt>
      <trkpt lat="44.45386" lon="2.25323">
        <ele>489</ele>
        <time>2023-08-20T14:46:07Z</time>
      </trkpt>
      <trkpt lat="44.45384" lon="2.25317">
        <ele>489</ele>
        <time>2023-08-20T14:46:08Z</time>
      </trkpt>
      <trkpt lat="44.45382" lon="2.25311">
        <ele>489</ele>
        <time>2023-08-20T14:46:09Z</time>
      </trkpt>
      <trkpt lat="44.45382" lon="2.25304">
        <ele>488.8</ele>
        <time>2023-08-20T14:46:10Z</time>
      </trkpt>
      <trkpt lat="44.45384" lon="2.25298">
        <ele>488.8</ele>
        <time>2023-08-20T14:46:11Z</time>
      </trkpt>
      <trkpt lat="44.45388" lon="2.2529">
        <ele>488.8</ele>
        <time>2023-08-20T14:46:12Z</time>
      </trkpt>
      <trkpt lat="44.45403" lon="2.25272">
        <ele>488.8</ele>
        <time>2023-08-20T14:46:14Z</time>
      </trkpt>
      <trkpt lat="44.45411" lon="2.25262">
        <ele>488.8</ele>
        <time>2023-08-20T14:46:15Z</time>
      </trkpt>
      <trkpt lat="44.45438" lon="2.2523">
        <ele>488.8</ele>
        <time>2023-08-20T14:46:18Z</time>
      </trkpt>
      <trkpt lat="44.45445" lon="2.25223">
        <ele>489</ele>
        <time>2023-08-20T14:46:19Z</time>
      </trkpt>
      <trkpt lat="44.45464" lon="2.25209">
        <ele>489</ele>
        <time>2023-08-20T14:46:21Z</time>
      </trkpt>
      <trkpt lat="44.45473" lon="2.25205">
        <ele>489</ele>
        <time>2023-08-20T14:46:22Z</time>
      </trkpt>
      <trkpt lat="44.45481" lon="2.25201">
        <ele>489</ele>
        <time>2023-08-20T14:46:23Z</time>
      </trkpt>
      <trkpt lat="44.45491" lon="2.25197">
        <ele>488.6</ele>
        <time>2023-08-20T14:46:24Z</time>
      </trkpt>
      <trkpt lat="44.45498" lon="2.25194">
        <ele>488.4</ele>
        <time>2023-08-20T14:46:25Z</time>
      </trkpt>
      <trkpt lat="44.45517" lon="2.25183">
        <ele>488.2</ele>
        <time>2023-08-20T14:46:27Z</time>
      </trkpt>
      <trkpt lat="44.45524" lon="2.25176">
        <ele>488.2</ele>
        <time>2023-08-20T14:46:28Z</time>
      </trkpt>
      <trkpt lat="44.45533" lon="2.25164">
        <ele>488</ele>
        <time>2023-08-20T14:46:29Z</time>
      </trkpt>
      <trkpt lat="44.45538" lon="2.25154">
        <ele>488</ele>
        <time>2023-08-20T14:46:30Z</time>
      </trkpt>
      <trkpt lat="44.45544" lon="2.2514">
        <ele>487.8</ele>
        <time>2023-08-20T14:46:31Z</time>
      </trkpt>
      <trkpt lat="44.4555" lon="2.25121">
        <ele>487.8</ele>
        <time>2023-08-20T14:46:32Z</time>
      </trkpt>
      <trkpt lat="44.45554" lon="2.25103">
        <ele>487.8</ele>
        <time>2023-08-20T14:46:33Z</time>
      </trkpt>
      <trkpt lat="44.45558" lon="2.25089">
        <ele>488</ele>
        <time>2023-08-20T14:46:34Z</time>
      </trkpt>
      <trkpt lat="44.45577" lon="2.25008">
        <ele>488.2</ele>
        <time>2023-08-20T14:46:38Z</time>
      </trkpt>
      <trkpt lat="44.45581" lon="2.24992">
        <ele>488.2</ele>
        <time>2023-08-20T14:46:39Z</time>
      </trkpt>
      <trkpt lat="44.45585" lon="2.24973">
        <ele>488.2</ele>
        <time>2023-08-20T14:46:40Z</time>
      </trkpt>
      <trkpt lat="44.45594" lon="2.24937">
        <ele>488.2</ele>
        <time>2023-08-20T14:46:42Z</time>
      </trkpt>
      <trkpt lat="44.45599" lon="2.24919">
        <ele>487.8</ele>
        <time>2023-08-20T14:46:43Z</time>
      </trkpt>
      <trkpt lat="44.45608" lon="2.24881">
        <ele>487.4</ele>
        <time>2023-08-20T14:46:45Z</time>
      </trkpt>
      <trkpt lat="44.45627" lon="2.24804">
        <ele>487.2</ele>
        <time>2023-08-20T14:46:49Z</time>
      </trkpt>
      <trkpt lat="44.45636" lon="2.24765">
        <ele>487.2</ele>
        <time>2023-08-20T14:46:51Z</time>
      </trkpt>
      <trkpt lat="44.45656" lon="2.24681">
        <ele>487.8</ele>
        <time>2023-08-20T14:46:55Z</time>
      </trkpt>
      <trkpt lat="44.45661" lon="2.24659">
        <ele>487.8</ele>
        <time>2023-08-20T14:46:56Z</time>
      </trkpt>
      <trkpt lat="44.45683" lon="2.24572">
        <ele>487.6</ele>
        <time>2023-08-20T14:47:00Z</time>
      </trkpt>
      <trkpt lat="44.45694" lon="2.24525">
        <ele>487.8</ele>
        <time>2023-08-20T14:47:02Z</time>
      </trkpt>
      <trkpt lat="44.45711" lon="2.24455">
        <ele>487.8</ele>
        <time>2023-08-20T14:47:05Z</time>
      </trkpt>
      <trkpt lat="44.45716" lon="2.24432">
        <ele>487.8</ele>
        <time>2023-08-20T14:47:06Z</time>
      </trkpt>
      <trkpt lat="44.45738" lon="2.24339">
        <ele>489</ele>
        <time>2023-08-20T14:47:10Z</time>
      </trkpt>
      <trkpt lat="44.45744" lon="2.24316">
        <ele>489.2</ele>
        <time>2023-08-20T14:47:11Z</time>
      </trkpt>
      <trkpt lat="44.4575" lon="2.24292">
        <ele>489.4</ele>
        <time>2023-08-20T14:47:12Z</time>
      </trkpt>
      <trkpt lat="44.45767" lon="2.2422">
        <ele>489.6</ele>
        <time>2023-08-20T14:47:15Z</time>
      </trkpt>
      <trkpt lat="44.45781" lon="2.24144">
        <ele>489.6</ele>
        <time>2023-08-20T14:47:18Z</time>
      </trkpt>
      <trkpt lat="44.4579" lon="2.24061">
        <ele>489.6</ele>
        <time>2023-08-20T14:47:21Z</time>
      </trkpt>
      <trkpt lat="44.45792" lon="2.24032">
        <ele>489.6</ele>
        <time>2023-08-20T14:47:22Z</time>
      </trkpt>
      <trkpt lat="44.45796" lon="2.23975">
        <ele>489.6</ele>
        <time>2023-08-20T14:47:24Z</time>
      </trkpt>
      <trkpt lat="44.45797" lon="2.23949">
        <ele>489.6</ele>
        <time>2023-08-20T14:47:25Z</time>
      </trkpt>
      <trkpt lat="44.45799" lon="2.23923">
        <ele>489.4</ele>
        <time>2023-08-20T14:47:26Z</time>
      </trkpt>
      <trkpt lat="44.458" lon="2.23897">
        <ele>489.4</ele>
        <time>2023-08-20T14:47:27Z</time>
      </trkpt>
      <trkpt lat="44.45802" lon="2.23873">
        <ele>489</ele>
        <time>2023-08-20T14:47:28Z</time>
      </trkpt>
      <trkpt lat="44.45803" lon="2.23848">
        <ele>488.8</ele>
        <time>2023-08-20T14:47:29Z</time>
      </trkpt>
      <trkpt lat="44.45805" lon="2.23824">
        <ele>487.8</ele>
        <time>2023-08-20T14:47:30Z</time>
      </trkpt>
      <trkpt lat="44.45806" lon="2.23799">
        <ele>487.4</ele>
        <time>2023-08-20T14:47:31Z</time>
      </trkpt>
      <trkpt lat="44.45808" lon="2.23774">
        <ele>486.8</ele>
        <time>2023-08-20T14:47:32Z</time>
      </trkpt>
      <trkpt lat="44.45809" lon="2.23748">
        <ele>486.4</ele>
        <time>2023-08-20T14:47:33Z</time>
      </trkpt>
      <trkpt lat="44.45811" lon="2.23722">
        <ele>485.6</ele>
        <time>2023-08-20T14:47:34Z</time>
      </trkpt>
      <trkpt lat="44.45816" lon="2.23643">
        <ele>484.8</ele>
        <time>2023-08-20T14:47:37Z</time>
      </trkpt>
      <trkpt lat="44.45819" lon="2.23587">
        <ele>484.8</ele>
        <time>2023-08-20T14:47:39Z</time>
      </trkpt>
      <trkpt lat="44.45824" lon="2.23504">
        <ele>485.2</ele>
        <time>2023-08-20T14:47:42Z</time>
      </trkpt>
      <trkpt lat="44.45825" lon="2.23477">
        <ele>485.4</ele>
        <time>2023-08-20T14:47:43Z</time>
      </trkpt>
      <trkpt lat="44.45831" lon="2.23397">
        <ele>486.6</ele>
        <time>2023-08-20T14:47:46Z</time>
      </trkpt>
      <trkpt lat="44.45833" lon="2.23371">
        <ele>486.8</ele>
        <time>2023-08-20T14:47:47Z</time>
      </trkpt>
      <trkpt lat="44.45835" lon="2.23346">
        <ele>487.4</ele>
        <time>2023-08-20T14:47:48Z</time>
      </trkpt>
      <trkpt lat="44.45836" lon="2.23321">
        <ele>487.6</ele>
        <time>2023-08-20T14:47:49Z</time>
      </trkpt>
      <trkpt lat="44.45838" lon="2.23295">
        <ele>487.8</ele>
        <time>2023-08-20T14:47:50Z</time>
      </trkpt>
      <trkpt lat="44.45839" lon="2.23271">
        <ele>488</ele>
        <time>2023-08-20T14:47:51Z</time>
      </trkpt>
      <trkpt lat="44.45841" lon="2.23246">
        <ele>488.2</ele>
        <time>2023-08-20T14:47:52Z</time>
      </trkpt>
      <trkpt lat="44.45843" lon="2.23223">
        <ele>488.2</ele>
        <time>2023-08-20T14:47:53Z</time>
      </trkpt>
      <trkpt lat="44.45844" lon="2.23199">
        <ele>488.4</ele>
        <time>2023-08-20T14:47:54Z</time>
      </trkpt>
      <trkpt lat="44.45847" lon="2.23153">
        <ele>488.4</ele>
        <time>2023-08-20T14:47:55Z</time>
      </trkpt>
      <trkpt lat="44.45847" lon="2.23153">
        <ele>488.6</ele>
        <time>2023-08-20T14:47:56Z</time>
      </trkpt>
      <trkpt lat="44.45849" lon="2.23131">
        <ele>488.6</ele>
        <time>2023-08-20T14:47:57Z</time>
      </trkpt>
      <trkpt lat="44.45851" lon="2.23109">
        <ele>488.8</ele>
        <time>2023-08-20T14:47:58Z</time>
      </trkpt>
      <trkpt lat="44.45854" lon="2.23088">
        <ele>488.8</ele>
        <time>2023-08-20T14:47:59Z</time>
      </trkpt>
      <trkpt lat="44.45858" lon="2.23066">
        <ele>489</ele>
        <time>2023-08-20T14:48:00Z</time>
      </trkpt>
      <trkpt lat="44.45863" lon="2.23045">
        <ele>489.2</ele>
        <time>2023-08-20T14:48:01Z</time>
      </trkpt>
      <trkpt lat="44.45875" lon="2.23005">
        <ele>489.4</ele>
        <time>2023-08-20T14:48:03Z</time>
      </trkpt>
      <trkpt lat="44.45881" lon="2.22986">
        <ele>489.6</ele>
        <time>2023-08-20T14:48:04Z</time>
      </trkpt>
      <trkpt lat="44.45887" lon="2.22967">
        <ele>489.6</ele>
        <time>2023-08-20T14:48:05Z</time>
      </trkpt>
      <trkpt lat="44.45893" lon="2.22947">
        <ele>489.6</ele>
        <time>2023-08-20T14:48:06Z</time>
      </trkpt>
      <trkpt lat="44.45899" lon="2.22927">
        <ele>489.6</ele>
        <time>2023-08-20T14:48:07Z</time>
      </trkpt>
      <trkpt lat="44.45906" lon="2.22907">
        <ele>489.8</ele>
        <time>2023-08-20T14:48:08Z</time>
      </trkpt>
      <trkpt lat="44.45912" lon="2.22886">
        <ele>489.6</ele>
        <time>2023-08-20T14:48:09Z</time>
      </trkpt>
      <trkpt lat="44.45919" lon="2.22865">
        <ele>489.6</ele>
        <time>2023-08-20T14:48:10Z</time>
      </trkpt>
      <trkpt lat="44.45925" lon="2.22844">
        <ele>489.6</ele>
        <time>2023-08-20T14:48:11Z</time>
      </trkpt>
      <trkpt lat="44.45939" lon="2.228">
        <ele>489.6</ele>
        <time>2023-08-20T14:48:12Z</time>
      </trkpt>
      <trkpt lat="44.45939" lon="2.228">
        <ele>489.4</ele>
        <time>2023-08-20T14:48:13Z</time>
      </trkpt>
      <trkpt lat="44.45952" lon="2.22754">
        <ele>489.4</ele>
        <time>2023-08-20T14:48:14Z</time>
      </trkpt>
      <trkpt lat="44.45966" lon="2.22711">
        <ele>488.8</ele>
        <time>2023-08-20T14:48:17Z</time>
      </trkpt>
      <trkpt lat="44.45972" lon="2.2269">
        <ele>488.4</ele>
        <time>2023-08-20T14:48:18Z</time>
      </trkpt>
      <trkpt lat="44.45984" lon="2.22651">
        <ele>488</ele>
        <time>2023-08-20T14:48:19Z</time>
      </trkpt>
      <trkpt lat="44.45984" lon="2.22651">
        <ele>487.6</ele>
        <time>2023-08-20T14:48:20Z</time>
      </trkpt>
      <trkpt lat="44.45994" lon="2.22617">
        <ele>487.2</ele>
        <time>2023-08-20T14:48:21Z</time>
      </trkpt>
      <trkpt lat="44.45994" lon="2.22617">
        <ele>486.4</ele>
        <time>2023-08-20T14:48:22Z</time>
      </trkpt>
      <trkpt lat="44.46004" lon="2.22584">
        <ele>486.2</ele>
        <time>2023-08-20T14:48:23Z</time>
      </trkpt>
      <trkpt lat="44.46004" lon="2.22584">
        <ele>485.8</ele>
        <time>2023-08-20T14:48:24Z</time>
      </trkpt>
      <trkpt lat="44.46009" lon="2.22568">
        <ele>485.6</ele>
        <time>2023-08-20T14:48:25Z</time>
      </trkpt>
      <trkpt lat="44.46014" lon="2.22552">
        <ele>485.2</ele>
        <time>2023-08-20T14:48:26Z</time>
      </trkpt>
      <trkpt lat="44.46042" lon="2.22465">
        <ele>484.6</ele>
        <time>2023-08-20T14:48:30Z</time>
      </trkpt>
      <trkpt lat="44.46047" lon="2.22448">
        <ele>484.6</ele>
        <time>2023-08-20T14:48:32Z</time>
      </trkpt>
      <trkpt lat="44.46067" lon="2.2238">
        <ele>484.2</ele>
        <time>2023-08-20T14:48:36Z</time>
      </trkpt>
      <trkpt lat="44.46072" lon="2.22363">
        <ele>484</ele>
        <time>2023-08-20T14:48:37Z</time>
      </trkpt>
      <trkpt lat="44.46077" lon="2.22348">
        <ele>483.8</ele>
        <time>2023-08-20T14:48:38Z</time>
      </trkpt>
      <trkpt lat="44.46081" lon="2.22333">
        <ele>483.8</ele>
        <time>2023-08-20T14:48:39Z</time>
      </trkpt>
      <trkpt lat="44.46089" lon="2.22309">
        <ele>483.6</ele>
        <time>2023-08-20T14:48:40Z</time>
      </trkpt>
      <trkpt lat="44.46093" lon="2.22299">
        <ele>483.4</ele>
        <time>2023-08-20T14:48:41Z</time>
      </trkpt>
      <trkpt lat="44.46096" lon="2.22291">
        <ele>483</ele>
        <time>2023-08-20T14:48:42Z</time>
      </trkpt>
      <trkpt lat="44.46098" lon="2.22283">
        <ele>482.6</ele>
        <time>2023-08-20T14:48:43Z</time>
      </trkpt>
      <trkpt lat="44.461" lon="2.22277">
        <ele>481.8</ele>
        <time>2023-08-20T14:48:44Z</time>
      </trkpt>
      <trkpt lat="44.46102" lon="2.22272">
        <ele>480.8</ele>
        <time>2023-08-20T14:48:45Z</time>
      </trkpt>
      <trkpt lat="44.46103" lon="2.22268">
        <ele>480.2</ele>
        <time>2023-08-20T14:48:46Z</time>
      </trkpt>
      <trkpt lat="44.46105" lon="2.22264">
        <ele>479.4</ele>
        <time>2023-08-20T14:48:47Z</time>
      </trkpt>
      <trkpt lat="44.46105" lon="2.22264">
        <ele>478.8</ele>
        <time>2023-08-20T14:48:48Z</time>
      </trkpt>
      <trkpt lat="44.46106" lon="2.22258">
        <ele>478</ele>
        <time>2023-08-20T14:48:49Z</time>
      </trkpt>
      <trkpt lat="44.46107" lon="2.22256">
        <ele>477.8</ele>
        <time>2023-08-20T14:48:50Z</time>
      </trkpt>
      <trkpt lat="44.46107" lon="2.22255">
        <ele>477.2</ele>
        <time>2023-08-20T14:48:51Z</time>
      </trkpt>
      <trkpt lat="44.46107" lon="2.22255">
        <ele>476.8</ele>
        <time>2023-08-20T14:48:52Z</time>
      </trkpt>
      <trkpt lat="44.46109" lon="2.2225">
        <ele>474.4</ele>
        <time>2023-08-20T14:49:07Z</time>
      </trkpt>
      <trkpt lat="44.46109" lon="2.2225">
        <ele>474.4</ele>
        <time>2023-08-20T14:49:08Z</time>
      </trkpt>
      <trkpt lat="44.46113" lon="2.22236">
        <ele>474.2</ele>
        <time>2023-08-20T14:49:11Z</time>
      </trkpt>
      <trkpt lat="44.46117" lon="2.2223">
        <ele>474.2</ele>
        <time>2023-08-20T14:49:12Z</time>
      </trkpt>
      <trkpt lat="44.46119" lon="2.22229">
        <ele>474.2</ele>
        <time>2023-08-20T14:49:13Z</time>
      </trkpt>
      <trkpt lat="44.46122" lon="2.22228">
        <ele>474</ele>
        <time>2023-08-20T14:49:14Z</time>
      </trkpt>
      <trkpt lat="44.46124" lon="2.22226">
        <ele>474</ele>
        <time>2023-08-20T14:49:15Z</time>
      </trkpt>
      <trkpt lat="44.46126" lon="2.22225">
        <ele>474</ele>
        <time>2023-08-20T14:49:16Z</time>
      </trkpt>
      <trkpt lat="44.46126" lon="2.22223">
        <ele>474</ele>
        <time>2023-08-20T14:49:17Z</time>
      </trkpt>
      <trkpt lat="44.46126" lon="2.2222">
        <ele>473.8</ele>
        <time>2023-08-20T14:49:18Z</time>
      </trkpt>
      <trkpt lat="44.46126" lon="2.22217">
        <ele>473.8</ele>
        <time>2023-08-20T14:49:19Z</time>
      </trkpt>
      <trkpt lat="44.46126" lon="2.22212">
        <ele>473.8</ele>
        <time>2023-08-20T14:49:22Z</time>
      </trkpt>
      <trkpt lat="44.46126" lon="2.22212">
        <ele>473.8</ele>
        <time>2023-08-20T14:49:23Z</time>
      </trkpt>
      <trkpt lat="44.46126" lon="2.22212">
        <ele>473.8</ele>
        <time>2023-08-20T14:49:24Z</time>
      </trkpt>
      <trkpt lat="44.46125" lon="2.22205">
        <ele>473.4</ele>
        <time>2023-08-20T14:49:48Z</time>
      </trkpt>
      <trkpt lat="44.4612" lon="2.22191">
        <ele>473.4</ele>
        <time>2023-08-20T14:49:49Z</time>
      </trkpt>
      <trkpt lat="44.46115" lon="2.22183">
        <ele>473.6</ele>
        <time>2023-08-20T14:49:51Z</time>
      </trkpt>
      <trkpt lat="44.46112" lon="2.22183">
        <ele>473.8</ele>
        <time>2023-08-20T14:49:52Z</time>
      </trkpt>
      <trkpt lat="44.46112" lon="2.22183">
        <ele>473.8</ele>
        <time>2023-08-20T14:49:53Z</time>
      </trkpt>
      <trkpt lat="44.46112" lon="2.22182">
        <ele>474.2</ele>
        <time>2023-08-20T14:49:54Z</time>
      </trkpt>
      <trkpt lat="44.46112" lon="2.22182">
        <ele>474.2</ele>
        <time>2023-08-20T14:49:55Z</time>
      </trkpt>
      <trkpt lat="44.46107" lon="2.2219">
        <ele>475.8</ele>
        <time>2023-08-20T14:59:18Z</time>
      </trkpt>
      <trkpt lat="44.46106" lon="2.2221">
        <ele>475.6</ele>
        <time>2023-08-20T14:59:22Z</time>
      </trkpt>
      <trkpt lat="44.46105" lon="2.22214">
        <ele>475.4</ele>
        <time>2023-08-20T14:59:23Z</time>
      </trkpt>
      <trkpt lat="44.46104" lon="2.22217">
        <ele>475.4</ele>
        <time>2023-08-20T14:59:25Z</time>
      </trkpt>
      <trkpt lat="44.46104" lon="2.22218">
        <ele>475.2</ele>
        <time>2023-08-20T14:59:26Z</time>
      </trkpt>
      <trkpt lat="44.46104" lon="2.22218">
        <ele>475.2</ele>
        <time>2023-08-20T14:59:27Z</time>
      </trkpt>
      <trkpt lat="44.46103" lon="2.22228">
        <ele>474.8</ele>
        <time>2023-08-20T14:59:30Z</time>
      </trkpt>
      <trkpt lat="44.46102" lon="2.22232">
        <ele>474.8</ele>
        <time>2023-08-20T14:59:31Z</time>
      </trkpt>
      <trkpt lat="44.461" lon="2.22236">
        <ele>474.4</ele>
        <time>2023-08-20T14:59:32Z</time>
      </trkpt>
      <trkpt lat="44.46097" lon="2.22238">
        <ele>474.4</ele>
        <time>2023-08-20T14:59:33Z</time>
      </trkpt>
      <trkpt lat="44.46091" lon="2.22239">
        <ele>474.2</ele>
        <time>2023-08-20T14:59:34Z</time>
      </trkpt>
      <trkpt lat="44.4607" lon="2.22232">
        <ele>474.2</ele>
        <time>2023-08-20T14:59:37Z</time>
      </trkpt>
      <trkpt lat="44.46061" lon="2.22229">
        <ele>474.2</ele>
        <time>2023-08-20T14:59:38Z</time>
      </trkpt>
      <trkpt lat="44.4605" lon="2.22225">
        <ele>474.2</ele>
        <time>2023-08-20T14:59:39Z</time>
      </trkpt>
      <trkpt lat="44.46042" lon="2.22222">
        <ele>474.2</ele>
        <time>2023-08-20T14:59:40Z</time>
      </trkpt>
      <trkpt lat="44.45999" lon="2.22207">
        <ele>475</ele>
        <time>2023-08-20T14:59:43Z</time>
      </trkpt>
      <trkpt lat="44.45972" lon="2.22198">
        <ele>476</ele>
        <time>2023-08-20T14:59:45Z</time>
      </trkpt>
      <trkpt lat="44.4594" lon="2.22188">
        <ele>477</ele>
        <time>2023-08-20T14:59:47Z</time>
      </trkpt>
      <trkpt lat="44.45921" lon="2.22181">
        <ele>478</ele>
        <time>2023-08-20T14:59:48Z</time>
      </trkpt>
      <trkpt lat="44.4586" lon="2.22163">
        <ele>479.6</ele>
        <time>2023-08-20T14:59:52Z</time>
      </trkpt>
      <trkpt lat="44.45845" lon="2.22159">
        <ele>480</ele>
        <time>2023-08-20T14:59:53Z</time>
      </trkpt>
      <trkpt lat="44.45832" lon="2.22156">
        <ele>480</ele>
        <time>2023-08-20T14:59:54Z</time>
      </trkpt>
      <trkpt lat="44.45821" lon="2.22152">
        <ele>480</ele>
        <time>2023-08-20T14:59:55Z</time>
      </trkpt>
      <trkpt lat="44.45809" lon="2.22148">
        <ele>480</ele>
        <time>2023-08-20T14:59:56Z</time>
      </trkpt>
      <trkpt lat="44.45796" lon="2.22144">
        <ele>480</ele>
        <time>2023-08-20T14:59:57Z</time>
      </trkpt>
      <trkpt lat="44.45782" lon="2.22138">
        <ele>480</ele>
        <time>2023-08-20T14:59:58Z</time>
      </trkpt>
      <trkpt lat="44.4577" lon="2.22133">
        <ele>480</ele>
        <time>2023-08-20T14:59:59Z</time>
      </trkpt>
      <trkpt lat="44.4576" lon="2.22128">
        <ele>480</ele>
        <time>2023-08-20T15:00:00Z</time>
      </trkpt>
      <trkpt lat="44.45747" lon="2.22121">
        <ele>479.8</ele>
        <time>2023-08-20T15:00:01Z</time>
      </trkpt>
      <trkpt lat="44.45733" lon="2.22112">
        <ele>479.8</ele>
        <time>2023-08-20T15:00:02Z</time>
      </trkpt>
      <trkpt lat="44.45718" lon="2.22102">
        <ele>479.8</ele>
        <time>2023-08-20T15:00:03Z</time>
      </trkpt>
      <trkpt lat="44.45701" lon="2.22087">
        <ele>479.8</ele>
        <time>2023-08-20T15:00:04Z</time>
      </trkpt>
      <trkpt lat="44.45689" lon="2.22075">
        <ele>479.8</ele>
        <time>2023-08-20T15:00:05Z</time>
      </trkpt>
      <trkpt lat="44.45675" lon="2.22059">
        <ele>479.8</ele>
        <time>2023-08-20T15:00:06Z</time>
      </trkpt>
      <trkpt lat="44.45662" lon="2.22041">
        <ele>479.8</ele>
        <time>2023-08-20T15:00:07Z</time>
      </trkpt>
      <trkpt lat="44.45647" lon="2.22019">
        <ele>480.4</ele>
        <time>2023-08-20T15:00:08Z</time>
      </trkpt>
      <trkpt lat="44.45635" lon="2.21999">
        <ele>480.6</ele>
        <time>2023-08-20T15:00:09Z</time>
      </trkpt>
      <trkpt lat="44.45624" lon="2.21979">
        <ele>481.2</ele>
        <time>2023-08-20T15:00:10Z</time>
      </trkpt>
      <trkpt lat="44.45615" lon="2.21962">
        <ele>481.6</ele>
        <time>2023-08-20T15:00:11Z</time>
      </trkpt>
      <trkpt lat="44.45603" lon="2.21942">
        <ele>481.8</ele>
        <time>2023-08-20T15:00:12Z</time>
      </trkpt>
      <trkpt lat="44.45588" lon="2.21916">
        <ele>482.6</ele>
        <time>2023-08-20T15:00:13Z</time>
      </trkpt>
      <trkpt lat="44.45575" lon="2.21895">
        <ele>482.6</ele>
        <time>2023-08-20T15:00:14Z</time>
      </trkpt>
      <trkpt lat="44.45563" lon="2.21875">
        <ele>483.2</ele>
        <time>2023-08-20T15:00:15Z</time>
      </trkpt>
      <trkpt lat="44.45554" lon="2.21859">
        <ele>483.6</ele>
        <time>2023-08-20T15:00:16Z</time>
      </trkpt>
      <trkpt lat="44.45542" lon="2.21839">
        <ele>484.6</ele>
        <time>2023-08-20T15:00:17Z</time>
      </trkpt>
      <trkpt lat="44.45528" lon="2.21815">
        <ele>485</ele>
        <time>2023-08-20T15:00:18Z</time>
      </trkpt>
      <trkpt lat="44.45518" lon="2.21799">
        <ele>485.8</ele>
        <time>2023-08-20T15:00:19Z</time>
      </trkpt>
      <trkpt lat="44.45504" lon="2.21776">
        <ele>487.4</ele>
        <time>2023-08-20T15:00:20Z</time>
      </trkpt>
      <trkpt lat="44.45494" lon="2.21761">
        <ele>487.8</ele>
        <time>2023-08-20T15:00:21Z</time>
      </trkpt>
      <trkpt lat="44.45482" lon="2.21744">
        <ele>489</ele>
        <time>2023-08-20T15:00:22Z</time>
      </trkpt>
      <trkpt lat="44.45468" lon="2.21729">
        <ele>489.8</ele>
        <time>2023-08-20T15:00:23Z</time>
      </trkpt>
      <trkpt lat="44.45452" lon="2.21712">
        <ele>491.6</ele>
        <time>2023-08-20T15:00:24Z</time>
      </trkpt>
      <trkpt lat="44.45437" lon="2.217">
        <ele>492.2</ele>
        <time>2023-08-20T15:00:25Z</time>
      </trkpt>
      <trkpt lat="44.45426" lon="2.21691">
        <ele>493.6</ele>
        <time>2023-08-20T15:00:26Z</time>
      </trkpt>
      <trkpt lat="44.45412" lon="2.21679">
        <ele>494.2</ele>
        <time>2023-08-20T15:00:27Z</time>
      </trkpt>
      <trkpt lat="44.45412" lon="2.21679">
        <ele>495.4</ele>
        <time>2023-08-20T15:00:28Z</time>
      </trkpt>
      <trkpt lat="44.45382" lon="2.21657">
        <ele>496.2</ele>
        <time>2023-08-20T15:00:29Z</time>
      </trkpt>
      <trkpt lat="44.45364" lon="2.21643">
        <ele>496.8</ele>
        <time>2023-08-20T15:00:30Z</time>
      </trkpt>
      <trkpt lat="44.45352" lon="2.21634">
        <ele>497.8</ele>
        <time>2023-08-20T15:00:31Z</time>
      </trkpt>
      <trkpt lat="44.45336" lon="2.21622">
        <ele>498</ele>
        <time>2023-08-20T15:00:32Z</time>
      </trkpt>
      <trkpt lat="44.45336" lon="2.21622">
        <ele>498.8</ele>
        <time>2023-08-20T15:00:33Z</time>
      </trkpt>
      <trkpt lat="44.45303" lon="2.21598">
        <ele>499</ele>
        <time>2023-08-20T15:00:34Z</time>
      </trkpt>
      <trkpt lat="44.45282" lon="2.21583">
        <ele>500</ele>
        <time>2023-08-20T15:00:35Z</time>
      </trkpt>
      <trkpt lat="44.45265" lon="2.2157">
        <ele>500</ele>
        <time>2023-08-20T15:00:36Z</time>
      </trkpt>
      <trkpt lat="44.45248" lon="2.21557">
        <ele>501.2</ele>
        <time>2023-08-20T15:00:37Z</time>
      </trkpt>
      <trkpt lat="44.45231" lon="2.21543">
        <ele>501.8</ele>
        <time>2023-08-20T15:00:38Z</time>
      </trkpt>
      <trkpt lat="44.45214" lon="2.21529">
        <ele>501.8</ele>
        <time>2023-08-20T15:00:39Z</time>
      </trkpt>
      <trkpt lat="44.45198" lon="2.21514">
        <ele>502.8</ele>
        <time>2023-08-20T15:00:40Z</time>
      </trkpt>
      <trkpt lat="44.45181" lon="2.21497">
        <ele>503.4</ele>
        <time>2023-08-20T15:00:41Z</time>
      </trkpt>
      <trkpt lat="44.45166" lon="2.21479">
        <ele>504.8</ele>
        <time>2023-08-20T15:00:42Z</time>
      </trkpt>
      <trkpt lat="44.4515" lon="2.21461">
        <ele>505.4</ele>
        <time>2023-08-20T15:00:43Z</time>
      </trkpt>
      <trkpt lat="44.45134" lon="2.21442">
        <ele>506.4</ele>
        <time>2023-08-20T15:00:44Z</time>
      </trkpt>
      <trkpt lat="44.45119" lon="2.21424">
        <ele>507.4</ele>
        <time>2023-08-20T15:00:45Z</time>
      </trkpt>
      <trkpt lat="44.45103" lon="2.21405">
        <ele>507.8</ele>
        <time>2023-08-20T15:00:46Z</time>
      </trkpt>
      <trkpt lat="44.45087" lon="2.21386">
        <ele>508.2</ele>
        <time>2023-08-20T15:00:47Z</time>
      </trkpt>
      <trkpt lat="44.45071" lon="2.21367">
        <ele>508.4</ele>
        <time>2023-08-20T15:00:48Z</time>
      </trkpt>
      <trkpt lat="44.45055" lon="2.21348">
        <ele>508.4</ele>
        <time>2023-08-20T15:00:49Z</time>
      </trkpt>
      <trkpt lat="44.45039" lon="2.21329">
        <ele>508.6</ele>
        <time>2023-08-20T15:00:50Z</time>
      </trkpt>
      <trkpt lat="44.45023" lon="2.21309">
        <ele>508.6</ele>
        <time>2023-08-20T15:00:51Z</time>
      </trkpt>
      <trkpt lat="44.45007" lon="2.2129">
        <ele>508.6</ele>
        <time>2023-08-20T15:00:52Z</time>
      </trkpt>
      <trkpt lat="44.4499" lon="2.2127">
        <ele>508.6</ele>
        <time>2023-08-20T15:00:53Z</time>
      </trkpt>
      <trkpt lat="44.44977" lon="2.21255">
        <ele>508.4</ele>
        <time>2023-08-20T15:00:54Z</time>
      </trkpt>
      <trkpt lat="44.44961" lon="2.21236">
        <ele>508.2</ele>
        <time>2023-08-20T15:00:55Z</time>
      </trkpt>
      <trkpt lat="44.44945" lon="2.21217">
        <ele>508</ele>
        <time>2023-08-20T15:00:56Z</time>
      </trkpt>
      <trkpt lat="44.44929" lon="2.21197">
        <ele>507.6</ele>
        <time>2023-08-20T15:00:57Z</time>
      </trkpt>
      <trkpt lat="44.44913" lon="2.21178">
        <ele>506.8</ele>
        <time>2023-08-20T15:00:58Z</time>
      </trkpt>
      <trkpt lat="44.44897" lon="2.21159">
        <ele>506.4</ele>
        <time>2023-08-20T15:00:59Z</time>
      </trkpt>
      <trkpt lat="44.44882" lon="2.2114">
        <ele>505</ele>
        <time>2023-08-20T15:01:00Z</time>
      </trkpt>
      <trkpt lat="44.44866" lon="2.21122">
        <ele>504.4</ele>
        <time>2023-08-20T15:01:01Z</time>
      </trkpt>
      <trkpt lat="44.4485" lon="2.21103">
        <ele>503.8</ele>
        <time>2023-08-20T15:01:02Z</time>
      </trkpt>
      <trkpt lat="44.44835" lon="2.21085">
        <ele>502.8</ele>
        <time>2023-08-20T15:01:03Z</time>
      </trkpt>
      <trkpt lat="44.44817" lon="2.21062">
        <ele>502.2</ele>
        <time>2023-08-20T15:01:04Z</time>
      </trkpt>
      <trkpt lat="44.44802" lon="2.21044">
        <ele>500.8</ele>
        <time>2023-08-20T15:01:05Z</time>
      </trkpt>
      <trkpt lat="44.44786" lon="2.21025">
        <ele>500.4</ele>
        <time>2023-08-20T15:01:06Z</time>
      </trkpt>
      <trkpt lat="44.44771" lon="2.21007">
        <ele>499.6</ele>
        <time>2023-08-20T15:01:07Z</time>
      </trkpt>
      <trkpt lat="44.44756" lon="2.20989">
        <ele>499</ele>
        <time>2023-08-20T15:01:08Z</time>
      </trkpt>
      <trkpt lat="44.44741" lon="2.20971">
        <ele>498.4</ele>
        <time>2023-08-20T15:01:09Z</time>
      </trkpt>
      <trkpt lat="44.44696" lon="2.20918">
        <ele>497.6</ele>
        <time>2023-08-20T15:01:12Z</time>
      </trkpt>
      <trkpt lat="44.44681" lon="2.209">
        <ele>497.6</ele>
        <time>2023-08-20T15:01:13Z</time>
      </trkpt>
      <trkpt lat="44.4465" lon="2.20863">
        <ele>497.6</ele>
        <time>2023-08-20T15:01:15Z</time>
      </trkpt>
      <trkpt lat="44.44601" lon="2.20805">
        <ele>499</ele>
        <time>2023-08-20T15:01:18Z</time>
      </trkpt>
      <trkpt lat="44.4457" lon="2.20766">
        <ele>500.6</ele>
        <time>2023-08-20T15:01:20Z</time>
      </trkpt>
      <trkpt lat="44.44555" lon="2.20746">
        <ele>501.6</ele>
        <time>2023-08-20T15:01:21Z</time>
      </trkpt>
      <trkpt lat="44.44541" lon="2.20726">
        <ele>501.8</ele>
        <time>2023-08-20T15:01:22Z</time>
      </trkpt>
      <trkpt lat="44.44513" lon="2.20684">
        <ele>503</ele>
        <time>2023-08-20T15:01:24Z</time>
      </trkpt>
      <trkpt lat="44.445" lon="2.20662">
        <ele>503.6</ele>
        <time>2023-08-20T15:01:25Z</time>
      </trkpt>
      <trkpt lat="44.44474" lon="2.2062">
        <ele>504.8</ele>
        <time>2023-08-20T15:01:27Z</time>
      </trkpt>
      <trkpt lat="44.44462" lon="2.20599">
        <ele>505</ele>
        <time>2023-08-20T15:01:28Z</time>
      </trkpt>
      <trkpt lat="44.4445" lon="2.20579">
        <ele>505.6</ele>
        <time>2023-08-20T15:01:29Z</time>
      </trkpt>
      <trkpt lat="44.44438" lon="2.2056">
        <ele>506.4</ele>
        <time>2023-08-20T15:01:30Z</time>
      </trkpt>
      <trkpt lat="44.44427" lon="2.20542">
        <ele>506.8</ele>
        <time>2023-08-20T15:01:31Z</time>
      </trkpt>
      <trkpt lat="44.44417" lon="2.20524">
        <ele>507.2</ele>
        <time>2023-08-20T15:01:32Z</time>
      </trkpt>
      <trkpt lat="44.44407" lon="2.20507">
        <ele>507.4</ele>
        <time>2023-08-20T15:01:33Z</time>
      </trkpt>
      <trkpt lat="44.44397" lon="2.2049">
        <ele>507.8</ele>
        <time>2023-08-20T15:01:34Z</time>
      </trkpt>
      <trkpt lat="44.44387" lon="2.20473">
        <ele>508.2</ele>
        <time>2023-08-20T15:01:35Z</time>
      </trkpt>
      <trkpt lat="44.4438" lon="2.2046">
        <ele>508.6</ele>
        <time>2023-08-20T15:01:36Z</time>
      </trkpt>
      <trkpt lat="44.44371" lon="2.20442">
        <ele>508.8</ele>
        <time>2023-08-20T15:01:37Z</time>
      </trkpt>
      <trkpt lat="44.44362" lon="2.2042">
        <ele>509.2</ele>
        <time>2023-08-20T15:01:38Z</time>
      </trkpt>
      <trkpt lat="44.44356" lon="2.20399">
        <ele>509.6</ele>
        <time>2023-08-20T15:01:39Z</time>
      </trkpt>
      <trkpt lat="44.44352" lon="2.20381">
        <ele>510</ele>
        <time>2023-08-20T15:01:40Z</time>
      </trkpt>
      <trkpt lat="44.44349" lon="2.20357">
        <ele>510.4</ele>
        <time>2023-08-20T15:01:41Z</time>
      </trkpt>
      <trkpt lat="44.44346" lon="2.20327">
        <ele>510.8</ele>
        <time>2023-08-20T15:01:42Z</time>
      </trkpt>
      <trkpt lat="44.44344" lon="2.20302">
        <ele>511.4</ele>
        <time>2023-08-20T15:01:43Z</time>
      </trkpt>
      <trkpt lat="44.44342" lon="2.20276">
        <ele>512</ele>
        <time>2023-08-20T15:01:44Z</time>
      </trkpt>
      <trkpt lat="44.4434" lon="2.20251">
        <ele>512.8</ele>
        <time>2023-08-20T15:01:45Z</time>
      </trkpt>
      <trkpt lat="44.44338" lon="2.20225">
        <ele>513.2</ele>
        <time>2023-08-20T15:01:46Z</time>
      </trkpt>
      <trkpt lat="44.44336" lon="2.20199">
        <ele>514</ele>
        <time>2023-08-20T15:01:47Z</time>
      </trkpt>
      <trkpt lat="44.44334" lon="2.20173">
        <ele>515</ele>
        <time>2023-08-20T15:01:48Z</time>
      </trkpt>
      <trkpt lat="44.44332" lon="2.20147">
        <ele>515.6</ele>
        <time>2023-08-20T15:01:49Z</time>
      </trkpt>
      <trkpt lat="44.4433" lon="2.20121">
        <ele>516.4</ele>
        <time>2023-08-20T15:01:50Z</time>
      </trkpt>
      <trkpt lat="44.44328" lon="2.20095">
        <ele>516.8</ele>
        <time>2023-08-20T15:01:51Z</time>
      </trkpt>
      <trkpt lat="44.44326" lon="2.20068">
        <ele>517.4</ele>
        <time>2023-08-20T15:01:52Z</time>
      </trkpt>
      <trkpt lat="44.44324" lon="2.20041">
        <ele>517.8</ele>
        <time>2023-08-20T15:01:53Z</time>
      </trkpt>
      <trkpt lat="44.44322" lon="2.20014">
        <ele>518.2</ele>
        <time>2023-08-20T15:01:54Z</time>
      </trkpt>
      <trkpt lat="44.44319" lon="2.19987">
        <ele>518.4</ele>
        <time>2023-08-20T15:01:55Z</time>
      </trkpt>
      <trkpt lat="44.44317" lon="2.19959">
        <ele>518.6</ele>
        <time>2023-08-20T15:01:56Z</time>
      </trkpt>
      <trkpt lat="44.44315" lon="2.19931">
        <ele>519.4</ele>
        <time>2023-08-20T15:01:57Z</time>
      </trkpt>
      <trkpt lat="44.44312" lon="2.19904">
        <ele>519.6</ele>
        <time>2023-08-20T15:01:58Z</time>
      </trkpt>
      <trkpt lat="44.44308" lon="2.19877">
        <ele>520.2</ele>
        <time>2023-08-20T15:01:59Z</time>
      </trkpt>
      <trkpt lat="44.44303" lon="2.1985">
        <ele>520.4</ele>
        <time>2023-08-20T15:02:00Z</time>
      </trkpt>
      <trkpt lat="44.44296" lon="2.19824">
        <ele>520.8</ele>
        <time>2023-08-20T15:02:01Z</time>
      </trkpt>
      <trkpt lat="44.44287" lon="2.198">
        <ele>520.8</ele>
        <time>2023-08-20T15:02:02Z</time>
      </trkpt>
      <trkpt lat="44.44277" lon="2.19776">
        <ele>521.2</ele>
        <time>2023-08-20T15:02:03Z</time>
      </trkpt>
      <trkpt lat="44.44265" lon="2.19754">
        <ele>521.6</ele>
        <time>2023-08-20T15:02:04Z</time>
      </trkpt>
      <trkpt lat="44.44253" lon="2.19732">
        <ele>522</ele>
        <time>2023-08-20T15:02:05Z</time>
      </trkpt>
      <trkpt lat="44.44241" lon="2.1971">
        <ele>522.4</ele>
        <time>2023-08-20T15:02:06Z</time>
      </trkpt>
      <trkpt lat="44.44229" lon="2.19689">
        <ele>522.4</ele>
        <time>2023-08-20T15:02:07Z</time>
      </trkpt>
      <trkpt lat="44.44216" lon="2.19668">
        <ele>523</ele>
        <time>2023-08-20T15:02:08Z</time>
      </trkpt>
      <trkpt lat="44.44204" lon="2.19647">
        <ele>523.6</ele>
        <time>2023-08-20T15:02:09Z</time>
      </trkpt>
      <trkpt lat="44.44191" lon="2.19626">
        <ele>524.4</ele>
        <time>2023-08-20T15:02:10Z</time>
      </trkpt>
      <trkpt lat="44.44179" lon="2.19606">
        <ele>524.8</ele>
        <time>2023-08-20T15:02:11Z</time>
      </trkpt>
      <trkpt lat="44.44165" lon="2.19587">
        <ele>525.2</ele>
        <time>2023-08-20T15:02:12Z</time>
      </trkpt>
      <trkpt lat="44.4415" lon="2.19569">
        <ele>525.4</ele>
        <time>2023-08-20T15:02:13Z</time>
      </trkpt>
      <trkpt lat="44.44134" lon="2.19555">
        <ele>526.2</ele>
        <time>2023-08-20T15:02:14Z</time>
      </trkpt>
      <trkpt lat="44.44117" lon="2.19542">
        <ele>526.6</ele>
        <time>2023-08-20T15:02:15Z</time>
      </trkpt>
      <trkpt lat="44.441" lon="2.1953">
        <ele>526.8</ele>
        <time>2023-08-20T15:02:16Z</time>
      </trkpt>
      <trkpt lat="44.44082" lon="2.19521">
        <ele>527.4</ele>
        <time>2023-08-20T15:02:17Z</time>
      </trkpt>
      <trkpt lat="44.44063" lon="2.19513">
        <ele>527.8</ele>
        <time>2023-08-20T15:02:18Z</time>
      </trkpt>
      <trkpt lat="44.44044" lon="2.19508">
        <ele>528.6</ele>
        <time>2023-08-20T15:02:19Z</time>
      </trkpt>
      <trkpt lat="44.44025" lon="2.19505">
        <ele>528.8</ele>
        <time>2023-08-20T15:02:20Z</time>
      </trkpt>
      <trkpt lat="44.44005" lon="2.19505">
        <ele>529.6</ele>
        <time>2023-08-20T15:02:21Z</time>
      </trkpt>
      <trkpt lat="44.43985" lon="2.19508">
        <ele>530</ele>
        <time>2023-08-20T15:02:22Z</time>
      </trkpt>
      <trkpt lat="44.43965" lon="2.19512">
        <ele>530.2</ele>
        <time>2023-08-20T15:02:23Z</time>
      </trkpt>
      <trkpt lat="44.43945" lon="2.19519">
        <ele>531</ele>
        <time>2023-08-20T15:02:24Z</time>
      </trkpt>
      <trkpt lat="44.43925" lon="2.19527">
        <ele>531.2</ele>
        <time>2023-08-20T15:02:25Z</time>
      </trkpt>
      <trkpt lat="44.43905" lon="2.19536">
        <ele>531.6</ele>
        <time>2023-08-20T15:02:26Z</time>
      </trkpt>
      <trkpt lat="44.43885" lon="2.19545">
        <ele>531.8</ele>
        <time>2023-08-20T15:02:27Z</time>
      </trkpt>
      <trkpt lat="44.43865" lon="2.19554">
        <ele>532.4</ele>
        <time>2023-08-20T15:02:28Z</time>
      </trkpt>
      <trkpt lat="44.43845" lon="2.19563">
        <ele>532.6</ele>
        <time>2023-08-20T15:02:29Z</time>
      </trkpt>
      <trkpt lat="44.43825" lon="2.19572">
        <ele>533</ele>
        <time>2023-08-20T15:02:30Z</time>
      </trkpt>
      <trkpt lat="44.43804" lon="2.1958">
        <ele>533</ele>
        <time>2023-08-20T15:02:31Z</time>
      </trkpt>
      <trkpt lat="44.43783" lon="2.19587">
        <ele>533.2</ele>
        <time>2023-08-20T15:02:32Z</time>
      </trkpt>
      <trkpt lat="44.43762" lon="2.19592">
        <ele>533.4</ele>
        <time>2023-08-20T15:02:33Z</time>
      </trkpt>
      <trkpt lat="44.43742" lon="2.19594">
        <ele>533.6</ele>
        <time>2023-08-20T15:02:34Z</time>
      </trkpt>
      <trkpt lat="44.43721" lon="2.19594">
        <ele>533.8</ele>
        <time>2023-08-20T15:02:35Z</time>
      </trkpt>
      <trkpt lat="44.437" lon="2.19591">
        <ele>533.8</ele>
        <time>2023-08-20T15:02:36Z</time>
      </trkpt>
      <trkpt lat="44.4368" lon="2.19585">
        <ele>534</ele>
        <time>2023-08-20T15:02:37Z</time>
      </trkpt>
      <trkpt lat="44.4366" lon="2.19576">
        <ele>534</ele>
        <time>2023-08-20T15:02:38Z</time>
      </trkpt>
      <trkpt lat="44.43641" lon="2.19566">
        <ele>534.2</ele>
        <time>2023-08-20T15:02:39Z</time>
      </trkpt>
      <trkpt lat="44.43623" lon="2.19554">
        <ele>534.2</ele>
        <time>2023-08-20T15:02:40Z</time>
      </trkpt>
      <trkpt lat="44.43604" lon="2.19541">
        <ele>534.4</ele>
        <time>2023-08-20T15:02:41Z</time>
      </trkpt>
      <trkpt lat="44.4359" lon="2.1953">
        <ele>534.8</ele>
        <time>2023-08-20T15:02:42Z</time>
      </trkpt>
      <trkpt lat="44.4359" lon="2.1953">
        <ele>535</ele>
        <time>2023-08-20T15:02:43Z</time>
      </trkpt>
      <trkpt lat="44.43572" lon="2.19517">
        <ele>535.2</ele>
        <time>2023-08-20T15:02:44Z</time>
      </trkpt>
      <trkpt lat="44.43553" lon="2.19504">
        <ele>535.6</ele>
        <time>2023-08-20T15:02:45Z</time>
      </trkpt>
      <trkpt lat="44.43517" lon="2.19479">
        <ele>536</ele>
        <time>2023-08-20T15:02:46Z</time>
      </trkpt>
      <trkpt lat="44.43499" lon="2.19466">
        <ele>536.4</ele>
        <time>2023-08-20T15:02:47Z</time>
      </trkpt>
      <trkpt lat="44.43481" lon="2.19453">
        <ele>537</ele>
        <time>2023-08-20T15:02:48Z</time>
      </trkpt>
      <trkpt lat="44.43462" lon="2.1944">
        <ele>537.6</ele>
        <time>2023-08-20T15:02:49Z</time>
      </trkpt>
      <trkpt lat="44.43462" lon="2.1944">
        <ele>538</ele>
        <time>2023-08-20T15:02:50Z</time>
      </trkpt>
      <trkpt lat="44.43427" lon="2.19415">
        <ele>538.4</ele>
        <time>2023-08-20T15:02:51Z</time>
      </trkpt>
      <trkpt lat="44.4341" lon="2.19403">
        <ele>538.6</ele>
        <time>2023-08-20T15:02:52Z</time>
      </trkpt>
      <trkpt lat="44.43395" lon="2.19392">
        <ele>538.8</ele>
        <time>2023-08-20T15:02:53Z</time>
      </trkpt>
      <trkpt lat="44.43395" lon="2.19392">
        <ele>539</ele>
        <time>2023-08-20T15:02:54Z</time>
      </trkpt>
      <trkpt lat="44.43366" lon="2.1937">
        <ele>539</ele>
        <time>2023-08-20T15:02:55Z</time>
      </trkpt>
      <trkpt lat="44.4335" lon="2.19357">
        <ele>539.2</ele>
        <time>2023-08-20T15:02:56Z</time>
      </trkpt>
      <trkpt lat="44.4334" lon="2.19345">
        <ele>539.2</ele>
        <time>2023-08-20T15:02:57Z</time>
      </trkpt>
      <trkpt lat="44.43331" lon="2.19332">
        <ele>539.2</ele>
        <time>2023-08-20T15:02:58Z</time>
      </trkpt>
      <trkpt lat="44.43325" lon="2.19323">
        <ele>539.4</ele>
        <time>2023-08-20T15:02:59Z</time>
      </trkpt>
      <trkpt lat="44.43317" lon="2.19312">
        <ele>539.4</ele>
        <time>2023-08-20T15:03:00Z</time>
      </trkpt>
      <trkpt lat="44.4331" lon="2.19304">
        <ele>539.4</ele>
        <time>2023-08-20T15:03:01Z</time>
      </trkpt>
      <trkpt lat="44.43302" lon="2.19298">
        <ele>539.4</ele>
        <time>2023-08-20T15:03:02Z</time>
      </trkpt>
      <trkpt lat="44.43294" lon="2.19295">
        <ele>539.4</ele>
        <time>2023-08-20T15:03:03Z</time>
      </trkpt>
      <trkpt lat="44.43294" lon="2.19295">
        <ele>539.2</ele>
        <time>2023-08-20T15:03:04Z</time>
      </trkpt>
      <trkpt lat="44.43281" lon="2.19292">
        <ele>539.2</ele>
        <time>2023-08-20T15:03:05Z</time>
      </trkpt>
      <trkpt lat="44.43275" lon="2.1929">
        <ele>539.2</ele>
        <time>2023-08-20T15:03:06Z</time>
      </trkpt>
      <trkpt lat="44.43269" lon="2.19285">
        <ele>539.2</ele>
        <time>2023-08-20T15:03:07Z</time>
      </trkpt>
      <trkpt lat="44.43265" lon="2.19278">
        <ele>539.2</ele>
        <time>2023-08-20T15:03:08Z</time>
      </trkpt>
      <trkpt lat="44.43261" lon="2.19266">
        <ele>539.2</ele>
        <time>2023-08-20T15:03:09Z</time>
      </trkpt>
      <trkpt lat="44.43259" lon="2.19257">
        <ele>539.2</ele>
        <time>2023-08-20T15:03:10Z</time>
      </trkpt>
      <trkpt lat="44.43257" lon="2.19244">
        <ele>539.2</ele>
        <time>2023-08-20T15:03:11Z</time>
      </trkpt>
      <trkpt lat="44.43256" lon="2.19227">
        <ele>539.2</ele>
        <time>2023-08-20T15:03:12Z</time>
      </trkpt>
      <trkpt lat="44.43254" lon="2.19212">
        <ele>539.4</ele>
        <time>2023-08-20T15:03:13Z</time>
      </trkpt>
      <trkpt lat="44.43252" lon="2.19195">
        <ele>539.4</ele>
        <time>2023-08-20T15:03:14Z</time>
      </trkpt>
      <trkpt lat="44.4325" lon="2.19177">
        <ele>539.6</ele>
        <time>2023-08-20T15:03:15Z</time>
      </trkpt>
      <trkpt lat="44.43248" lon="2.19158">
        <ele>539.8</ele>
        <time>2023-08-20T15:03:16Z</time>
      </trkpt>
      <trkpt lat="44.43246" lon="2.19138">
        <ele>539.8</ele>
        <time>2023-08-20T15:03:17Z</time>
      </trkpt>
      <trkpt lat="44.43243" lon="2.19117">
        <ele>540.2</ele>
        <time>2023-08-20T15:03:18Z</time>
      </trkpt>
      <trkpt lat="44.43241" lon="2.19094">
        <ele>540.2</ele>
        <time>2023-08-20T15:03:19Z</time>
      </trkpt>
      <trkpt lat="44.4324" lon="2.19043">
        <ele>541.2</ele>
        <time>2023-08-20T15:03:21Z</time>
      </trkpt>
      <trkpt lat="44.4324" lon="2.19017">
        <ele>542</ele>
        <time>2023-08-20T15:03:22Z</time>
      </trkpt>
      <trkpt lat="44.43244" lon="2.18963">
        <ele>543</ele>
        <time>2023-08-20T15:03:24Z</time>
      </trkpt>
      <trkpt lat="44.43249" lon="2.18936">
        <ele>544.2</ele>
        <time>2023-08-20T15:03:25Z</time>
      </trkpt>
      <trkpt lat="44.43255" lon="2.18909">
        <ele>544.6</ele>
        <time>2023-08-20T15:03:26Z</time>
      </trkpt>
      <trkpt lat="44.43263" lon="2.18882">
        <ele>545.6</ele>
        <time>2023-08-20T15:03:27Z</time>
      </trkpt>
      <trkpt lat="44.43272" lon="2.18857">
        <ele>546.2</ele>
        <time>2023-08-20T15:03:28Z</time>
      </trkpt>
      <trkpt lat="44.43282" lon="2.18831">
        <ele>547.4</ele>
        <time>2023-08-20T15:03:29Z</time>
      </trkpt>
      <trkpt lat="44.43292" lon="2.18807">
        <ele>547.8</ele>
        <time>2023-08-20T15:03:30Z</time>
      </trkpt>
      <trkpt lat="44.43292" lon="2.18807">
        <ele>548.4</ele>
        <time>2023-08-20T15:03:31Z</time>
      </trkpt>
      <trkpt lat="44.43312" lon="2.18763">
        <ele>548.6</ele>
        <time>2023-08-20T15:03:32Z</time>
      </trkpt>
      <trkpt lat="44.43312" lon="2.18763">
        <ele>548.8</ele>
        <time>2023-08-20T15:03:33Z</time>
      </trkpt>
      <trkpt lat="44.43333" lon="2.18717">
        <ele>548.8</ele>
        <time>2023-08-20T15:03:34Z</time>
      </trkpt>
      <trkpt lat="44.43333" lon="2.18717">
        <ele>548.8</ele>
        <time>2023-08-20T15:03:35Z</time>
      </trkpt>
      <trkpt lat="44.43353" lon="2.18674">
        <ele>548.8</ele>
        <time>2023-08-20T15:03:36Z</time>
      </trkpt>
      <trkpt lat="44.43363" lon="2.18654">
        <ele>548.8</ele>
        <time>2023-08-20T15:03:37Z</time>
      </trkpt>
      <trkpt lat="44.43372" lon="2.18634">
        <ele>548.4</ele>
        <time>2023-08-20T15:03:38Z</time>
      </trkpt>
      <trkpt lat="44.43381" lon="2.18615">
        <ele>548.2</ele>
        <time>2023-08-20T15:03:39Z</time>
      </trkpt>
      <trkpt lat="44.43381" lon="2.18615">
        <ele>547.8</ele>
        <time>2023-08-20T15:03:40Z</time>
      </trkpt>
      <trkpt lat="44.43398" lon="2.18575">
        <ele>547.6</ele>
        <time>2023-08-20T15:03:41Z</time>
      </trkpt>
      <trkpt lat="44.43405" lon="2.18554">
        <ele>547.4</ele>
        <time>2023-08-20T15:03:42Z</time>
      </trkpt>
      <trkpt lat="44.4341" lon="2.18532">
        <ele>547.2</ele>
        <time>2023-08-20T15:03:43Z</time>
      </trkpt>
      <trkpt lat="44.43415" lon="2.1851">
        <ele>546.8</ele>
        <time>2023-08-20T15:03:44Z</time>
      </trkpt>
      <trkpt lat="44.43419" lon="2.18488">
        <ele>546</ele>
        <time>2023-08-20T15:03:45Z</time>
      </trkpt>
      <trkpt lat="44.43422" lon="2.18465">
        <ele>545.6</ele>
        <time>2023-08-20T15:03:46Z</time>
      </trkpt>
      <trkpt lat="44.43422" lon="2.18465">
        <ele>545.2</ele>
        <time>2023-08-20T15:03:47Z</time>
      </trkpt>
      <trkpt lat="44.43425" lon="2.18419">
        <ele>545</ele>
        <time>2023-08-20T15:03:48Z</time>
      </trkpt>
      <trkpt lat="44.43425" lon="2.18396">
        <ele>544.6</ele>
        <time>2023-08-20T15:03:49Z</time>
      </trkpt>
      <trkpt lat="44.43425" lon="2.18396">
        <ele>544.6</ele>
        <time>2023-08-20T15:03:50Z</time>
      </trkpt>
      <trkpt lat="44.43423" lon="2.1835">
        <ele>544.2</ele>
        <time>2023-08-20T15:03:51Z</time>
      </trkpt>
      <trkpt lat="44.43421" lon="2.18327">
        <ele>544</ele>
        <time>2023-08-20T15:03:52Z</time>
      </trkpt>
      <trkpt lat="44.43416" lon="2.18259">
        <ele>543.2</ele>
        <time>2023-08-20T15:03:55Z</time>
      </trkpt>
      <trkpt lat="44.43414" lon="2.18236">
        <ele>542.8</ele>
        <time>2023-08-20T15:03:56Z</time>
      </trkpt>
      <trkpt lat="44.43407" lon="2.18163">
        <ele>542.2</ele>
        <time>2023-08-20T15:04:00Z</time>
      </trkpt>
      <trkpt lat="44.43398" lon="2.18114">
        <ele>542</ele>
        <time>2023-08-20T15:04:01Z</time>
      </trkpt>
      <trkpt lat="44.43384" lon="2.18066">
        <ele>541.8</ele>
        <time>2023-08-20T15:04:03Z</time>
      </trkpt>
      <trkpt lat="44.43375" lon="2.18044">
        <ele>541.6</ele>
        <time>2023-08-20T15:04:04Z</time>
      </trkpt>
      <trkpt lat="44.43364" lon="2.18022">
        <ele>541.2</ele>
        <time>2023-08-20T15:04:06Z</time>
      </trkpt>
      <trkpt lat="44.43338" lon="2.17982">
        <ele>541</ele>
        <time>2023-08-20T15:04:07Z</time>
      </trkpt>
      <trkpt lat="44.43308" lon="2.17944">
        <ele>540.2</ele>
        <time>2023-08-20T15:04:09Z</time>
      </trkpt>
      <trkpt lat="44.43263" lon="2.17886">
        <ele>538.6</ele>
        <time>2023-08-20T15:04:12Z</time>
      </trkpt>
      <trkpt lat="44.43233" lon="2.17848">
        <ele>536.8</ele>
        <time>2023-08-20T15:04:14Z</time>
      </trkpt>
      <trkpt lat="44.4322" lon="2.1783">
        <ele>536.4</ele>
        <time>2023-08-20T15:04:15Z</time>
      </trkpt>
      <trkpt lat="44.4322" lon="2.1783">
        <ele>535.2</ele>
        <time>2023-08-20T15:04:16Z</time>
      </trkpt>
      <trkpt lat="44.43196" lon="2.17791">
        <ele>534.4</ele>
        <time>2023-08-20T15:04:17Z</time>
      </trkpt>
      <trkpt lat="44.43186" lon="2.17769">
        <ele>533.4</ele>
        <time>2023-08-20T15:04:18Z</time>
      </trkpt>
      <trkpt lat="44.43177" lon="2.17746">
        <ele>532.2</ele>
        <time>2023-08-20T15:04:19Z</time>
      </trkpt>
      <trkpt lat="44.43164" lon="2.17698">
        <ele>530.8</ele>
        <time>2023-08-20T15:04:21Z</time>
      </trkpt>
      <trkpt lat="44.4315" lon="2.17623">
        <ele>529.6</ele>
        <time>2023-08-20T15:04:24Z</time>
      </trkpt>
      <trkpt lat="44.43142" lon="2.17574">
        <ele>529.2</ele>
        <time>2023-08-20T15:04:26Z</time>
      </trkpt>
      <trkpt lat="44.4313" lon="2.17525">
        <ele>528.8</ele>
        <time>2023-08-20T15:04:28Z</time>
      </trkpt>
      <trkpt lat="44.43121" lon="2.17502">
        <ele>528.8</ele>
        <time>2023-08-20T15:04:29Z</time>
      </trkpt>
      <trkpt lat="44.43101" lon="2.17458">
        <ele>528.6</ele>
        <time>2023-08-20T15:04:31Z</time>
      </trkpt>
      <trkpt lat="44.43079" lon="2.17416">
        <ele>528.2</ele>
        <time>2023-08-20T15:04:33Z</time>
      </trkpt>
      <trkpt lat="44.43038" lon="2.17333">
        <ele>527.4</ele>
        <time>2023-08-20T15:04:37Z</time>
      </trkpt>
      <trkpt lat="44.43018" lon="2.17292">
        <ele>525.8</ele>
        <time>2023-08-20T15:04:39Z</time>
      </trkpt>
      <trkpt lat="44.42997" lon="2.17251">
        <ele>524</ele>
        <time>2023-08-20T15:04:41Z</time>
      </trkpt>
      <trkpt lat="44.42987" lon="2.17232">
        <ele>523.6</ele>
        <time>2023-08-20T15:04:42Z</time>
      </trkpt>
      <trkpt lat="44.42977" lon="2.17213">
        <ele>522.8</ele>
        <time>2023-08-20T15:04:43Z</time>
      </trkpt>
      <trkpt lat="44.42968" lon="2.17193">
        <ele>522.2</ele>
        <time>2023-08-20T15:04:44Z</time>
      </trkpt>
      <trkpt lat="44.42959" lon="2.17175">
        <ele>521.2</ele>
        <time>2023-08-20T15:04:45Z</time>
      </trkpt>
      <trkpt lat="44.4295" lon="2.17156">
        <ele>520.4</ele>
        <time>2023-08-20T15:04:46Z</time>
      </trkpt>
      <trkpt lat="44.42939" lon="2.17135">
        <ele>519.8</ele>
        <time>2023-08-20T15:04:47Z</time>
      </trkpt>
      <trkpt lat="44.42932" lon="2.1712">
        <ele>519</ele>
        <time>2023-08-20T15:04:48Z</time>
      </trkpt>
      <trkpt lat="44.42923" lon="2.17103">
        <ele>518.6</ele>
        <time>2023-08-20T15:04:49Z</time>
      </trkpt>
      <trkpt lat="44.42914" lon="2.17086">
        <ele>518</ele>
        <time>2023-08-20T15:04:50Z</time>
      </trkpt>
      <trkpt lat="44.42906" lon="2.17069">
        <ele>517.8</ele>
        <time>2023-08-20T15:04:51Z</time>
      </trkpt>
      <trkpt lat="44.42898" lon="2.17052">
        <ele>517.4</ele>
        <time>2023-08-20T15:04:52Z</time>
      </trkpt>
      <trkpt lat="44.4289" lon="2.17036">
        <ele>516.8</ele>
        <time>2023-08-20T15:04:53Z</time>
      </trkpt>
      <trkpt lat="44.42882" lon="2.1702">
        <ele>516.2</ele>
        <time>2023-08-20T15:04:54Z</time>
      </trkpt>
      <trkpt lat="44.42873" lon="2.17003">
        <ele>515.6</ele>
        <time>2023-08-20T15:04:55Z</time>
      </trkpt>
      <trkpt lat="44.42857" lon="2.1697">
        <ele>514.8</ele>
        <time>2023-08-20T15:04:57Z</time>
      </trkpt>
      <trkpt lat="44.42826" lon="2.16907">
        <ele>514</ele>
        <time>2023-08-20T15:05:01Z</time>
      </trkpt>
      <trkpt lat="44.42819" lon="2.16893">
        <ele>513.8</ele>
        <time>2023-08-20T15:05:02Z</time>
      </trkpt>
      <trkpt lat="44.4281" lon="2.16875">
        <ele>513.2</ele>
        <time>2023-08-20T15:05:03Z</time>
      </trkpt>
      <trkpt lat="44.42805" lon="2.16864">
        <ele>512.8</ele>
        <time>2023-08-20T15:05:04Z</time>
      </trkpt>
      <trkpt lat="44.42798" lon="2.1685">
        <ele>512.6</ele>
        <time>2023-08-20T15:05:05Z</time>
      </trkpt>
      <trkpt lat="44.4279" lon="2.16836">
        <ele>512.4</ele>
        <time>2023-08-20T15:05:06Z</time>
      </trkpt>
      <trkpt lat="44.42783" lon="2.16822">
        <ele>512.2</ele>
        <time>2023-08-20T15:05:07Z</time>
      </trkpt>
      <trkpt lat="44.42776" lon="2.16807">
        <ele>511.6</ele>
        <time>2023-08-20T15:05:08Z</time>
      </trkpt>
      <trkpt lat="44.42739" lon="2.16733">
        <ele>510.8</ele>
        <time>2023-08-20T15:05:13Z</time>
      </trkpt>
      <trkpt lat="44.42732" lon="2.16717">
        <ele>510.8</ele>
        <time>2023-08-20T15:05:14Z</time>
      </trkpt>
      <trkpt lat="44.42726" lon="2.16702">
        <ele>510.6</ele>
        <time>2023-08-20T15:05:15Z</time>
      </trkpt>
      <trkpt lat="44.42708" lon="2.16657">
        <ele>510.2</ele>
        <time>2023-08-20T15:05:18Z</time>
      </trkpt>
      <trkpt lat="44.42703" lon="2.16644">
        <ele>510.2</ele>
        <time>2023-08-20T15:05:19Z</time>
      </trkpt>
      <trkpt lat="44.42698" lon="2.16633">
        <ele>510</ele>
        <time>2023-08-20T15:05:20Z</time>
      </trkpt>
      <trkpt lat="44.42694" lon="2.16621">
        <ele>509.6</ele>
        <time>2023-08-20T15:05:21Z</time>
      </trkpt>
      <trkpt lat="44.4269" lon="2.1661">
        <ele>509.2</ele>
        <time>2023-08-20T15:05:22Z</time>
      </trkpt>
      <trkpt lat="44.42686" lon="2.16599">
        <ele>509</ele>
        <time>2023-08-20T15:05:23Z</time>
      </trkpt>
      <trkpt lat="44.42681" lon="2.16587">
        <ele>508.4</ele>
        <time>2023-08-20T15:05:24Z</time>
      </trkpt>
      <trkpt lat="44.42678" lon="2.16578">
        <ele>508.2</ele>
        <time>2023-08-20T15:05:25Z</time>
      </trkpt>
      <trkpt lat="44.42674" lon="2.16568">
        <ele>507.6</ele>
        <time>2023-08-20T15:05:26Z</time>
      </trkpt>
      <trkpt lat="44.42665" lon="2.16545">
        <ele>507</ele>
        <time>2023-08-20T15:05:28Z</time>
      </trkpt>
      <trkpt lat="44.42651" lon="2.16507">
        <ele>506.4</ele>
        <time>2023-08-20T15:05:31Z</time>
      </trkpt>
      <trkpt lat="44.42626" lon="2.16444">
        <ele>506.2</ele>
        <time>2023-08-20T15:05:36Z</time>
      </trkpt>
      <trkpt lat="44.42621" lon="2.16432">
        <ele>506.2</ele>
        <time>2023-08-20T15:05:37Z</time>
      </trkpt>
      <trkpt lat="44.42612" lon="2.16408">
        <ele>506.2</ele>
        <time>2023-08-20T15:05:39Z</time>
      </trkpt>
      <trkpt lat="44.42603" lon="2.16386">
        <ele>506.2</ele>
        <time>2023-08-20T15:05:41Z</time>
      </trkpt>
      <trkpt lat="44.42599" lon="2.16376">
        <ele>506</ele>
        <time>2023-08-20T15:05:42Z</time>
      </trkpt>
      <trkpt lat="44.42595" lon="2.16365">
        <ele>505.8</ele>
        <time>2023-08-20T15:05:43Z</time>
      </trkpt>
      <trkpt lat="44.42592" lon="2.16358">
        <ele>505.8</ele>
        <time>2023-08-20T15:05:44Z</time>
      </trkpt>
      <trkpt lat="44.4259" lon="2.1635">
        <ele>505.8</ele>
        <time>2023-08-20T15:05:45Z</time>
      </trkpt>
      <trkpt lat="44.42587" lon="2.16342">
        <ele>505.6</ele>
        <time>2023-08-20T15:05:46Z</time>
      </trkpt>
      <trkpt lat="44.42584" lon="2.16335">
        <ele>505.6</ele>
        <time>2023-08-20T15:05:47Z</time>
      </trkpt>
      <trkpt lat="44.42581" lon="2.16327">
        <ele>505.6</ele>
        <time>2023-08-20T15:05:48Z</time>
      </trkpt>
      <trkpt lat="44.42577" lon="2.16318">
        <ele>505.4</ele>
        <time>2023-08-20T15:05:49Z</time>
      </trkpt>
      <trkpt lat="44.42565" lon="2.16288">
        <ele>505.2</ele>
        <time>2023-08-20T15:05:52Z</time>
      </trkpt>
      <trkpt lat="44.42539" lon="2.16222">
        <ele>505.2</ele>
        <time>2023-08-20T15:05:58Z</time>
      </trkpt>
      <trkpt lat="44.42515" lon="2.16156">
        <ele>505</ele>
        <time>2023-08-20T15:06:04Z</time>
      </trkpt>
      <trkpt lat="44.42509" lon="2.16134">
        <ele>504.8</ele>
        <time>2023-08-20T15:06:06Z</time>
      </trkpt>
      <trkpt lat="44.42506" lon="2.16124">
        <ele>504.6</ele>
        <time>2023-08-20T15:06:07Z</time>
      </trkpt>
      <trkpt lat="44.42503" lon="2.16114">
        <ele>504.2</ele>
        <time>2023-08-20T15:06:08Z</time>
      </trkpt>
      <trkpt lat="44.42499" lon="2.16104">
        <ele>503.8</ele>
        <time>2023-08-20T15:06:09Z</time>
      </trkpt>
      <trkpt lat="44.42497" lon="2.16095">
        <ele>503.6</ele>
        <time>2023-08-20T15:06:10Z</time>
      </trkpt>
      <trkpt lat="44.42495" lon="2.16086">
        <ele>502.8</ele>
        <time>2023-08-20T15:06:11Z</time>
      </trkpt>
      <trkpt lat="44.42492" lon="2.16076">
        <ele>502.6</ele>
        <time>2023-08-20T15:06:12Z</time>
      </trkpt>
      <trkpt lat="44.4249" lon="2.16067">
        <ele>502.2</ele>
        <time>2023-08-20T15:06:13Z</time>
      </trkpt>
      <trkpt lat="44.42488" lon="2.16058">
        <ele>502</ele>
        <time>2023-08-20T15:06:14Z</time>
      </trkpt>
      <trkpt lat="44.42486" lon="2.1605">
        <ele>501.8</ele>
        <time>2023-08-20T15:06:15Z</time>
      </trkpt>
      <trkpt lat="44.42485" lon="2.16041">
        <ele>501.6</ele>
        <time>2023-08-20T15:06:16Z</time>
      </trkpt>
      <trkpt lat="44.42483" lon="2.16033">
        <ele>501.6</ele>
        <time>2023-08-20T15:06:17Z</time>
      </trkpt>
      <trkpt lat="44.42482" lon="2.16027">
        <ele>501</ele>
        <time>2023-08-20T15:06:18Z</time>
      </trkpt>
      <trkpt lat="44.42481" lon="2.1602">
        <ele>501.2</ele>
        <time>2023-08-20T15:06:19Z</time>
      </trkpt>
      <trkpt lat="44.42479" lon="2.16011">
        <ele>501</ele>
        <time>2023-08-20T15:06:20Z</time>
      </trkpt>
      <trkpt lat="44.42477" lon="2.15991">
        <ele>500.4</ele>
        <time>2023-08-20T15:06:22Z</time>
      </trkpt>
      <trkpt lat="44.42468" lon="2.15928">
        <ele>500.6</ele>
        <time>2023-08-20T15:06:27Z</time>
      </trkpt>
      <trkpt lat="44.42457" lon="2.15849">
        <ele>500.4</ele>
        <time>2023-08-20T15:06:32Z</time>
      </trkpt>
      <trkpt lat="44.42448" lon="2.15772">
        <ele>500.6</ele>
        <time>2023-08-20T15:06:36Z</time>
      </trkpt>
      <trkpt lat="44.42445" lon="2.15751">
        <ele>500.6</ele>
        <time>2023-08-20T15:06:37Z</time>
      </trkpt>
      <trkpt lat="44.42435" lon="2.15682">
        <ele>500</ele>
        <time>2023-08-20T15:06:41Z</time>
      </trkpt>
      <trkpt lat="44.42428" lon="2.15622">
        <ele>499.8</ele>
        <time>2023-08-20T15:06:43Z</time>
      </trkpt>
      <trkpt lat="44.42416" lon="2.15539">
        <ele>499</ele>
        <time>2023-08-20T15:06:47Z</time>
      </trkpt>
      <trkpt lat="44.42403" lon="2.1545">
        <ele>498.2</ele>
        <time>2023-08-20T15:06:51Z</time>
      </trkpt>
      <trkpt lat="44.42398" lon="2.1541">
        <ele>498</ele>
        <time>2023-08-20T15:06:53Z</time>
      </trkpt>
      <trkpt lat="44.42395" lon="2.15386">
        <ele>497.8</ele>
        <time>2023-08-20T15:06:54Z</time>
      </trkpt>
      <trkpt lat="44.42384" lon="2.15303">
        <ele>497</ele>
        <time>2023-08-20T15:06:57Z</time>
      </trkpt>
      <trkpt lat="44.42373" lon="2.15218">
        <ele>497</ele>
        <time>2023-08-20T15:07:00Z</time>
      </trkpt>
      <trkpt lat="44.42362" lon="2.15139">
        <ele>498.2</ele>
        <time>2023-08-20T15:07:03Z</time>
      </trkpt>
      <trkpt lat="44.42358" lon="2.15111">
        <ele>499.2</ele>
        <time>2023-08-20T15:07:04Z</time>
      </trkpt>
      <trkpt lat="44.42355" lon="2.15084">
        <ele>500.4</ele>
        <time>2023-08-20T15:07:05Z</time>
      </trkpt>
      <trkpt lat="44.42347" lon="2.15026">
        <ele>501.4</ele>
        <time>2023-08-20T15:07:07Z</time>
      </trkpt>
      <trkpt lat="44.42344" lon="2.15006">
        <ele>501.8</ele>
        <time>2023-08-20T15:07:08Z</time>
      </trkpt>
      <trkpt lat="44.42341" lon="2.14981">
        <ele>502.4</ele>
        <time>2023-08-20T15:07:09Z</time>
      </trkpt>
      <trkpt lat="44.42338" lon="2.14957">
        <ele>503.2</ele>
        <time>2023-08-20T15:07:10Z</time>
      </trkpt>
      <trkpt lat="44.42334" lon="2.14927">
        <ele>503.6</ele>
        <time>2023-08-20T15:07:11Z</time>
      </trkpt>
      <trkpt lat="44.42327" lon="2.14877">
        <ele>504.4</ele>
        <time>2023-08-20T15:07:13Z</time>
      </trkpt>
      <trkpt lat="44.42325" lon="2.14857">
        <ele>504.8</ele>
        <time>2023-08-20T15:07:14Z</time>
      </trkpt>
      <trkpt lat="44.42321" lon="2.14831">
        <ele>505</ele>
        <time>2023-08-20T15:07:15Z</time>
      </trkpt>
      <trkpt lat="44.42317" lon="2.148">
        <ele>505.4</ele>
        <time>2023-08-20T15:07:16Z</time>
      </trkpt>
      <trkpt lat="44.42313" lon="2.14774">
        <ele>506</ele>
        <time>2023-08-20T15:07:17Z</time>
      </trkpt>
      <trkpt lat="44.4231" lon="2.14748">
        <ele>506</ele>
        <time>2023-08-20T15:07:18Z</time>
      </trkpt>
      <trkpt lat="44.42307" lon="2.14727">
        <ele>506.4</ele>
        <time>2023-08-20T15:07:19Z</time>
      </trkpt>
      <trkpt lat="44.42303" lon="2.14701">
        <ele>506.8</ele>
        <time>2023-08-20T15:07:20Z</time>
      </trkpt>
      <trkpt lat="44.42299" lon="2.14668">
        <ele>507.4</ele>
        <time>2023-08-20T15:07:21Z</time>
      </trkpt>
      <trkpt lat="44.42295" lon="2.1464">
        <ele>507.8</ele>
        <time>2023-08-20T15:07:22Z</time>
      </trkpt>
      <trkpt lat="44.42291" lon="2.14612">
        <ele>508.2</ele>
        <time>2023-08-20T15:07:23Z</time>
      </trkpt>
      <trkpt lat="44.42288" lon="2.1459">
        <ele>508.4</ele>
        <time>2023-08-20T15:07:24Z</time>
      </trkpt>
      <trkpt lat="44.42284" lon="2.14562">
        <ele>509</ele>
        <time>2023-08-20T15:07:25Z</time>
      </trkpt>
      <trkpt lat="44.42284" lon="2.14562">
        <ele>509.6</ele>
        <time>2023-08-20T15:07:26Z</time>
      </trkpt>
      <trkpt lat="44.42276" lon="2.14501">
        <ele>510.2</ele>
        <time>2023-08-20T15:07:27Z</time>
      </trkpt>
      <trkpt lat="44.42272" lon="2.14473">
        <ele>510.8</ele>
        <time>2023-08-20T15:07:28Z</time>
      </trkpt>
      <trkpt lat="44.42269" lon="2.14451">
        <ele>511</ele>
        <time>2023-08-20T15:07:29Z</time>
      </trkpt>
      <trkpt lat="44.42266" lon="2.14424">
        <ele>511.4</ele>
        <time>2023-08-20T15:07:30Z</time>
      </trkpt>
      <trkpt lat="44.42262" lon="2.14397">
        <ele>511.6</ele>
        <time>2023-08-20T15:07:31Z</time>
      </trkpt>
      <trkpt lat="44.42257" lon="2.14364">
        <ele>512</ele>
        <time>2023-08-20T15:07:32Z</time>
      </trkpt>
      <trkpt lat="44.42254" lon="2.14337">
        <ele>512.2</ele>
        <time>2023-08-20T15:07:33Z</time>
      </trkpt>
      <trkpt lat="44.42251" lon="2.14316">
        <ele>512.4</ele>
        <time>2023-08-20T15:07:34Z</time>
      </trkpt>
      <trkpt lat="44.42247" lon="2.14289">
        <ele>512.6</ele>
        <time>2023-08-20T15:07:35Z</time>
      </trkpt>
      <trkpt lat="44.42243" lon="2.14262">
        <ele>512.8</ele>
        <time>2023-08-20T15:07:36Z</time>
      </trkpt>
      <trkpt lat="44.4224" lon="2.14229">
        <ele>513.4</ele>
        <time>2023-08-20T15:07:37Z</time>
      </trkpt>
      <trkpt lat="44.42239" lon="2.14202">
        <ele>513.8</ele>
        <time>2023-08-20T15:07:38Z</time>
      </trkpt>
      <trkpt lat="44.4224" lon="2.14175">
        <ele>514.2</ele>
        <time>2023-08-20T15:07:39Z</time>
      </trkpt>
      <trkpt lat="44.42241" lon="2.14154">
        <ele>514.6</ele>
        <time>2023-08-20T15:07:40Z</time>
      </trkpt>
      <trkpt lat="44.42244" lon="2.14128">
        <ele>515.2</ele>
        <time>2023-08-20T15:07:41Z</time>
      </trkpt>
      <trkpt lat="44.42247" lon="2.14096">
        <ele>515.4</ele>
        <time>2023-08-20T15:07:42Z</time>
      </trkpt>
      <trkpt lat="44.42249" lon="2.14069">
        <ele>515.4</ele>
        <time>2023-08-20T15:07:43Z</time>
      </trkpt>
      <trkpt lat="44.42252" lon="2.14042">
        <ele>515.6</ele>
        <time>2023-08-20T15:07:44Z</time>
      </trkpt>
      <trkpt lat="44.42254" lon="2.1402">
        <ele>515.6</ele>
        <time>2023-08-20T15:07:45Z</time>
      </trkpt>
      <trkpt lat="44.42257" lon="2.13992">
        <ele>515.8</ele>
        <time>2023-08-20T15:07:46Z</time>
      </trkpt>
      <trkpt lat="44.4226" lon="2.13958">
        <ele>515.8</ele>
        <time>2023-08-20T15:07:47Z</time>
      </trkpt>
      <trkpt lat="44.42263" lon="2.13929">
        <ele>515.6</ele>
        <time>2023-08-20T15:07:48Z</time>
      </trkpt>
      <trkpt lat="44.42266" lon="2.139">
        <ele>515.6</ele>
        <time>2023-08-20T15:07:49Z</time>
      </trkpt>
      <trkpt lat="44.42266" lon="2.139">
        <ele>515.4</ele>
        <time>2023-08-20T15:07:50Z</time>
      </trkpt>
      <trkpt lat="44.42271" lon="2.13847">
        <ele>515.4</ele>
        <time>2023-08-20T15:07:51Z</time>
      </trkpt>
      <trkpt lat="44.42274" lon="2.13812">
        <ele>515.2</ele>
        <time>2023-08-20T15:07:52Z</time>
      </trkpt>
      <trkpt lat="44.42277" lon="2.13783">
        <ele>515</ele>
        <time>2023-08-20T15:07:53Z</time>
      </trkpt>
      <trkpt lat="44.4228" lon="2.13754">
        <ele>514.8</ele>
        <time>2023-08-20T15:07:54Z</time>
      </trkpt>
      <trkpt lat="44.42282" lon="2.13731">
        <ele>514.6</ele>
        <time>2023-08-20T15:07:55Z</time>
      </trkpt>
      <trkpt lat="44.42285" lon="2.13703">
        <ele>514.6</ele>
        <time>2023-08-20T15:07:56Z</time>
      </trkpt>
      <trkpt lat="44.42289" lon="2.13668">
        <ele>514</ele>
        <time>2023-08-20T15:07:57Z</time>
      </trkpt>
      <trkpt lat="44.42292" lon="2.1364">
        <ele>513.6</ele>
        <time>2023-08-20T15:07:58Z</time>
      </trkpt>
      <trkpt lat="44.42294" lon="2.13611">
        <ele>512.8</ele>
        <time>2023-08-20T15:07:59Z</time>
      </trkpt>
      <trkpt lat="44.42297" lon="2.13588">
        <ele>512.6</ele>
        <time>2023-08-20T15:08:00Z</time>
      </trkpt>
      <trkpt lat="44.42299" lon="2.13559">
        <ele>512.2</ele>
        <time>2023-08-20T15:08:01Z</time>
      </trkpt>
      <trkpt lat="44.42311" lon="2.13467">
        <ele>511.6</ele>
        <time>2023-08-20T15:08:04Z</time>
      </trkpt>
      <trkpt lat="44.42324" lon="2.13411">
        <ele>511.2</ele>
        <time>2023-08-20T15:08:06Z</time>
      </trkpt>
      <trkpt lat="44.42333" lon="2.13385">
        <ele>511.2</ele>
        <time>2023-08-20T15:08:07Z</time>
      </trkpt>
      <trkpt lat="44.42366" lon="2.13309">
        <ele>510.2</ele>
        <time>2023-08-20T15:08:10Z</time>
      </trkpt>
      <trkpt lat="44.42378" lon="2.13284">
        <ele>509.8</ele>
        <time>2023-08-20T15:08:11Z</time>
      </trkpt>
      <trkpt lat="44.424" lon="2.13235">
        <ele>509</ele>
        <time>2023-08-20T15:08:13Z</time>
      </trkpt>
      <trkpt lat="44.42433" lon="2.13163">
        <ele>508</ele>
        <time>2023-08-20T15:08:16Z</time>
      </trkpt>
      <trkpt lat="44.42443" lon="2.13139">
        <ele>507.6</ele>
        <time>2023-08-20T15:08:17Z</time>
      </trkpt>
      <trkpt lat="44.42454" lon="2.13115">
        <ele>507.6</ele>
        <time>2023-08-20T15:08:18Z</time>
      </trkpt>
      <trkpt lat="44.42465" lon="2.13092">
        <ele>507</ele>
        <time>2023-08-20T15:08:19Z</time>
      </trkpt>
      <trkpt lat="44.42475" lon="2.13068">
        <ele>506.2</ele>
        <time>2023-08-20T15:08:20Z</time>
      </trkpt>
      <trkpt lat="44.42496" lon="2.13021">
        <ele>505</ele>
        <time>2023-08-20T15:08:22Z</time>
      </trkpt>
      <trkpt lat="44.42527" lon="2.12952">
        <ele>503.8</ele>
        <time>2023-08-20T15:08:25Z</time>
      </trkpt>
      <trkpt lat="44.42547" lon="2.12907">
        <ele>502.8</ele>
        <time>2023-08-20T15:08:27Z</time>
      </trkpt>
      <trkpt lat="44.42556" lon="2.12884">
        <ele>501.8</ele>
        <time>2023-08-20T15:08:28Z</time>
      </trkpt>
      <trkpt lat="44.42564" lon="2.12862">
        <ele>500.4</ele>
        <time>2023-08-20T15:08:29Z</time>
      </trkpt>
      <trkpt lat="44.42572" lon="2.12839">
        <ele>500</ele>
        <time>2023-08-20T15:08:30Z</time>
      </trkpt>
      <trkpt lat="44.42578" lon="2.12816">
        <ele>498.8</ele>
        <time>2023-08-20T15:08:31Z</time>
      </trkpt>
      <trkpt lat="44.42583" lon="2.12793">
        <ele>498.2</ele>
        <time>2023-08-20T15:08:32Z</time>
      </trkpt>
      <trkpt lat="44.42586" lon="2.1277">
        <ele>496.8</ele>
        <time>2023-08-20T15:08:33Z</time>
      </trkpt>
      <trkpt lat="44.42588" lon="2.12747">
        <ele>496</ele>
        <time>2023-08-20T15:08:34Z</time>
      </trkpt>
      <trkpt lat="44.42589" lon="2.12724">
        <ele>495.2</ele>
        <time>2023-08-20T15:08:35Z</time>
      </trkpt>
      <trkpt lat="44.42588" lon="2.12702">
        <ele>494.6</ele>
        <time>2023-08-20T15:08:36Z</time>
      </trkpt>
      <trkpt lat="44.42587" lon="2.1268">
        <ele>494</ele>
        <time>2023-08-20T15:08:37Z</time>
      </trkpt>
      <trkpt lat="44.42584" lon="2.12658">
        <ele>492.2</ele>
        <time>2023-08-20T15:08:38Z</time>
      </trkpt>
      <trkpt lat="44.42581" lon="2.12636">
        <ele>491.2</ele>
        <time>2023-08-20T15:08:39Z</time>
      </trkpt>
      <trkpt lat="44.42576" lon="2.12615">
        <ele>489.6</ele>
        <time>2023-08-20T15:08:40Z</time>
      </trkpt>
      <trkpt lat="44.42563" lon="2.12573">
        <ele>487</ele>
        <time>2023-08-20T15:08:42Z</time>
      </trkpt>
      <trkpt lat="44.42556" lon="2.12552">
        <ele>486</ele>
        <time>2023-08-20T15:08:43Z</time>
      </trkpt>
      <trkpt lat="44.42549" lon="2.12532">
        <ele>484.4</ele>
        <time>2023-08-20T15:08:44Z</time>
      </trkpt>
      <trkpt lat="44.42541" lon="2.12513">
        <ele>482.8</ele>
        <time>2023-08-20T15:08:45Z</time>
      </trkpt>
      <trkpt lat="44.42527" lon="2.12475">
        <ele>480.6</ele>
        <time>2023-08-20T15:08:47Z</time>
      </trkpt>
      <trkpt lat="44.42521" lon="2.12457">
        <ele>479.8</ele>
        <time>2023-08-20T15:08:48Z</time>
      </trkpt>
      <trkpt lat="44.42515" lon="2.12439">
        <ele>478.6</ele>
        <time>2023-08-20T15:08:49Z</time>
      </trkpt>
      <trkpt lat="44.42509" lon="2.12423">
        <ele>478</ele>
        <time>2023-08-20T15:08:50Z</time>
      </trkpt>
      <trkpt lat="44.42503" lon="2.12408">
        <ele>476.6</ele>
        <time>2023-08-20T15:08:51Z</time>
      </trkpt>
      <trkpt lat="44.42498" lon="2.12394">
        <ele>476.2</ele>
        <time>2023-08-20T15:08:52Z</time>
      </trkpt>
      <trkpt lat="44.42493" lon="2.1238">
        <ele>474.6</ele>
        <time>2023-08-20T15:08:53Z</time>
      </trkpt>
      <trkpt lat="44.42489" lon="2.12366">
        <ele>473.6</ele>
        <time>2023-08-20T15:08:54Z</time>
      </trkpt>
      <trkpt lat="44.42487" lon="2.12353">
        <ele>473.2</ele>
        <time>2023-08-20T15:08:55Z</time>
      </trkpt>
      <trkpt lat="44.42487" lon="2.1234">
        <ele>472.4</ele>
        <time>2023-08-20T15:08:56Z</time>
      </trkpt>
      <trkpt lat="44.4249" lon="2.12327">
        <ele>472</ele>
        <time>2023-08-20T15:08:57Z</time>
      </trkpt>
      <trkpt lat="44.42496" lon="2.12316">
        <ele>471.6</ele>
        <time>2023-08-20T15:08:58Z</time>
      </trkpt>
      <trkpt lat="44.42503" lon="2.12306">
        <ele>471.4</ele>
        <time>2023-08-20T15:08:59Z</time>
      </trkpt>
      <trkpt lat="44.42521" lon="2.12285">
        <ele>471.2</ele>
        <time>2023-08-20T15:09:01Z</time>
      </trkpt>
      <trkpt lat="44.42531" lon="2.12274">
        <ele>471.2</ele>
        <time>2023-08-20T15:09:02Z</time>
      </trkpt>
      <trkpt lat="44.42566" lon="2.12236">
        <ele>471.8</ele>
        <time>2023-08-20T15:09:05Z</time>
      </trkpt>
      <trkpt lat="44.42592" lon="2.12207">
        <ele>473.2</ele>
        <time>2023-08-20T15:09:07Z</time>
      </trkpt>
      <trkpt lat="44.42623" lon="2.12173">
        <ele>474.2</ele>
        <time>2023-08-20T15:09:09Z</time>
      </trkpt>
      <trkpt lat="44.42658" lon="2.12134">
        <ele>475.8</ele>
        <time>2023-08-20T15:09:11Z</time>
      </trkpt>
      <trkpt lat="44.42675" lon="2.12116">
        <ele>476.8</ele>
        <time>2023-08-20T15:09:12Z</time>
      </trkpt>
      <trkpt lat="44.42706" lon="2.12081">
        <ele>479</ele>
        <time>2023-08-20T15:09:14Z</time>
      </trkpt>
      <trkpt lat="44.42721" lon="2.12065">
        <ele>479.6</ele>
        <time>2023-08-20T15:09:15Z</time>
      </trkpt>
      <trkpt lat="44.42736" lon="2.12049">
        <ele>481.2</ele>
        <time>2023-08-20T15:09:16Z</time>
      </trkpt>
      <trkpt lat="44.4275" lon="2.12034">
        <ele>481.6</ele>
        <time>2023-08-20T15:09:17Z</time>
      </trkpt>
      <trkpt lat="44.42765" lon="2.12018">
        <ele>482.2</ele>
        <time>2023-08-20T15:09:18Z</time>
      </trkpt>
      <trkpt lat="44.42779" lon="2.12002">
        <ele>482.4</ele>
        <time>2023-08-20T15:09:19Z</time>
      </trkpt>
      <trkpt lat="44.42793" lon="2.11987">
        <ele>483</ele>
        <time>2023-08-20T15:09:20Z</time>
      </trkpt>
      <trkpt lat="44.42808" lon="2.11971">
        <ele>483.2</ele>
        <time>2023-08-20T15:09:21Z</time>
      </trkpt>
      <trkpt lat="44.42822" lon="2.11955">
        <ele>483.6</ele>
        <time>2023-08-20T15:09:22Z</time>
      </trkpt>
      <trkpt lat="44.42836" lon="2.1194">
        <ele>484</ele>
        <time>2023-08-20T15:09:23Z</time>
      </trkpt>
      <trkpt lat="44.42851" lon="2.11924">
        <ele>484.2</ele>
        <time>2023-08-20T15:09:24Z</time>
      </trkpt>
      <trkpt lat="44.42866" lon="2.11908">
        <ele>484.2</ele>
        <time>2023-08-20T15:09:25Z</time>
      </trkpt>
      <trkpt lat="44.42881" lon="2.11892">
        <ele>484.4</ele>
        <time>2023-08-20T15:09:26Z</time>
      </trkpt>
      <trkpt lat="44.42895" lon="2.11877">
        <ele>484.8</ele>
        <time>2023-08-20T15:09:27Z</time>
      </trkpt>
      <trkpt lat="44.42908" lon="2.11861">
        <ele>484.8</ele>
        <time>2023-08-20T15:09:28Z</time>
      </trkpt>
      <trkpt lat="44.4292" lon="2.11845">
        <ele>485</ele>
        <time>2023-08-20T15:09:29Z</time>
      </trkpt>
      <trkpt lat="44.42928" lon="2.11827">
        <ele>486</ele>
        <time>2023-08-20T15:09:30Z</time>
      </trkpt>
      <trkpt lat="44.42935" lon="2.11808">
        <ele>486.2</ele>
        <time>2023-08-20T15:09:31Z</time>
      </trkpt>
      <trkpt lat="44.42939" lon="2.11787">
        <ele>486.6</ele>
        <time>2023-08-20T15:09:32Z</time>
      </trkpt>
      <trkpt lat="44.42941" lon="2.11764">
        <ele>487</ele>
        <time>2023-08-20T15:09:33Z</time>
      </trkpt>
      <trkpt lat="44.4294" lon="2.1174">
        <ele>487.2</ele>
        <time>2023-08-20T15:09:34Z</time>
      </trkpt>
      <trkpt lat="44.4294" lon="2.11717">
        <ele>487.6</ele>
        <time>2023-08-20T15:09:35Z</time>
      </trkpt>
      <trkpt lat="44.42939" lon="2.11692">
        <ele>488.4</ele>
        <time>2023-08-20T15:09:36Z</time>
      </trkpt>
      <trkpt lat="44.42938" lon="2.11668">
        <ele>488.6</ele>
        <time>2023-08-20T15:09:37Z</time>
      </trkpt>
      <trkpt lat="44.42938" lon="2.11642">
        <ele>489.4</ele>
        <time>2023-08-20T15:09:38Z</time>
      </trkpt>
      <trkpt lat="44.42939" lon="2.11615">
        <ele>490.2</ele>
        <time>2023-08-20T15:09:39Z</time>
      </trkpt>
      <trkpt lat="44.42942" lon="2.11588">
        <ele>490.6</ele>
        <time>2023-08-20T15:09:40Z</time>
      </trkpt>
      <trkpt lat="44.42946" lon="2.11561">
        <ele>491.2</ele>
        <time>2023-08-20T15:09:41Z</time>
      </trkpt>
      <trkpt lat="44.4295" lon="2.11534">
        <ele>491.8</ele>
        <time>2023-08-20T15:09:42Z</time>
      </trkpt>
      <trkpt lat="44.42954" lon="2.11508">
        <ele>492.8</ele>
        <time>2023-08-20T15:09:43Z</time>
      </trkpt>
      <trkpt lat="44.42957" lon="2.11481">
        <ele>493.8</ele>
        <time>2023-08-20T15:09:44Z</time>
      </trkpt>
      <trkpt lat="44.42961" lon="2.11455">
        <ele>494.8</ele>
        <time>2023-08-20T15:09:45Z</time>
      </trkpt>
      <trkpt lat="44.42965" lon="2.11429">
        <ele>495.8</ele>
        <time>2023-08-20T15:09:46Z</time>
      </trkpt>
      <trkpt lat="44.42969" lon="2.11404">
        <ele>496</ele>
        <time>2023-08-20T15:09:47Z</time>
      </trkpt>
      <trkpt lat="44.42973" lon="2.1138">
        <ele>496.6</ele>
        <time>2023-08-20T15:09:48Z</time>
      </trkpt>
      <trkpt lat="44.42977" lon="2.11356">
        <ele>497.2</ele>
        <time>2023-08-20T15:09:49Z</time>
      </trkpt>
      <trkpt lat="44.4298" lon="2.11332">
        <ele>498</ele>
        <time>2023-08-20T15:09:50Z</time>
      </trkpt>
      <trkpt lat="44.42984" lon="2.11308">
        <ele>498.2</ele>
        <time>2023-08-20T15:09:51Z</time>
      </trkpt>
      <trkpt lat="44.42988" lon="2.11284">
        <ele>498.6</ele>
        <time>2023-08-20T15:09:52Z</time>
      </trkpt>
      <trkpt lat="44.42993" lon="2.1126">
        <ele>498.6</ele>
        <time>2023-08-20T15:09:53Z</time>
      </trkpt>
      <trkpt lat="44.42998" lon="2.11235">
        <ele>499.4</ele>
        <time>2023-08-20T15:09:54Z</time>
      </trkpt>
      <trkpt lat="44.43004" lon="2.11211">
        <ele>499.8</ele>
        <time>2023-08-20T15:09:55Z</time>
      </trkpt>
      <trkpt lat="44.4301" lon="2.11187">
        <ele>500.2</ele>
        <time>2023-08-20T15:09:56Z</time>
      </trkpt>
      <trkpt lat="44.43016" lon="2.11162">
        <ele>500.6</ele>
        <time>2023-08-20T15:09:57Z</time>
      </trkpt>
      <trkpt lat="44.43022" lon="2.11137">
        <ele>500.8</ele>
        <time>2023-08-20T15:09:58Z</time>
      </trkpt>
      <trkpt lat="44.43028" lon="2.11112">
        <ele>501.6</ele>
        <time>2023-08-20T15:09:59Z</time>
      </trkpt>
      <trkpt lat="44.43036" lon="2.11087">
        <ele>502.2</ele>
        <time>2023-08-20T15:10:00Z</time>
      </trkpt>
      <trkpt lat="44.43044" lon="2.11062">
        <ele>503.6</ele>
        <time>2023-08-20T15:10:01Z</time>
      </trkpt>
      <trkpt lat="44.43053" lon="2.11038">
        <ele>504</ele>
        <time>2023-08-20T15:10:02Z</time>
      </trkpt>
      <trkpt lat="44.43063" lon="2.11014">
        <ele>504.4</ele>
        <time>2023-08-20T15:10:03Z</time>
      </trkpt>
      <trkpt lat="44.43074" lon="2.10991">
        <ele>504.6</ele>
        <time>2023-08-20T15:10:04Z</time>
      </trkpt>
      <trkpt lat="44.43085" lon="2.10968">
        <ele>504.6</ele>
        <time>2023-08-20T15:10:05Z</time>
      </trkpt>
      <trkpt lat="44.43097" lon="2.10947">
        <ele>504.6</ele>
        <time>2023-08-20T15:10:06Z</time>
      </trkpt>
      <trkpt lat="44.43108" lon="2.10926">
        <ele>504.6</ele>
        <time>2023-08-20T15:10:07Z</time>
      </trkpt>
      <trkpt lat="44.4312" lon="2.10906">
        <ele>504.8</ele>
        <time>2023-08-20T15:10:08Z</time>
      </trkpt>
      <trkpt lat="44.43131" lon="2.10886">
        <ele>504.8</ele>
        <time>2023-08-20T15:10:09Z</time>
      </trkpt>
      <trkpt lat="44.43143" lon="2.10867">
        <ele>504.8</ele>
        <time>2023-08-20T15:10:10Z</time>
      </trkpt>
      <trkpt lat="44.43154" lon="2.10849">
        <ele>504.8</ele>
        <time>2023-08-20T15:10:11Z</time>
      </trkpt>
      <trkpt lat="44.43165" lon="2.1083">
        <ele>504.8</ele>
        <time>2023-08-20T15:10:12Z</time>
      </trkpt>
      <trkpt lat="44.43176" lon="2.10811">
        <ele>504.8</ele>
        <time>2023-08-20T15:10:13Z</time>
      </trkpt>
      <trkpt lat="44.43187" lon="2.10793">
        <ele>504.8</ele>
        <time>2023-08-20T15:10:14Z</time>
      </trkpt>
      <trkpt lat="44.43199" lon="2.10776">
        <ele>504.8</ele>
        <time>2023-08-20T15:10:15Z</time>
      </trkpt>
      <trkpt lat="44.43211" lon="2.10758">
        <ele>504.8</ele>
        <time>2023-08-20T15:10:16Z</time>
      </trkpt>
      <trkpt lat="44.43224" lon="2.1074">
        <ele>504.8</ele>
        <time>2023-08-20T15:10:17Z</time>
      </trkpt>
      <trkpt lat="44.43237" lon="2.10723">
        <ele>504.8</ele>
        <time>2023-08-20T15:10:18Z</time>
      </trkpt>
      <trkpt lat="44.4325" lon="2.10706">
        <ele>504.8</ele>
        <time>2023-08-20T15:10:19Z</time>
      </trkpt>
      <trkpt lat="44.43263" lon="2.10688">
        <ele>504.8</ele>
        <time>2023-08-20T15:10:20Z</time>
      </trkpt>
      <trkpt lat="44.43276" lon="2.1067">
        <ele>504.8</ele>
        <time>2023-08-20T15:10:21Z</time>
      </trkpt>
      <trkpt lat="44.43289" lon="2.10651">
        <ele>504.8</ele>
        <time>2023-08-20T15:10:22Z</time>
      </trkpt>
      <trkpt lat="44.43301" lon="2.1063">
        <ele>504.8</ele>
        <time>2023-08-20T15:10:23Z</time>
      </trkpt>
      <trkpt lat="44.43312" lon="2.10608">
        <ele>505</ele>
        <time>2023-08-20T15:10:24Z</time>
      </trkpt>
      <trkpt lat="44.43323" lon="2.10583">
        <ele>505</ele>
        <time>2023-08-20T15:10:25Z</time>
      </trkpt>
      <trkpt lat="44.43335" lon="2.10557">
        <ele>505</ele>
        <time>2023-08-20T15:10:26Z</time>
      </trkpt>
      <trkpt lat="44.43346" lon="2.1053">
        <ele>505</ele>
        <time>2023-08-20T15:10:27Z</time>
      </trkpt>
      <trkpt lat="44.43358" lon="2.10504">
        <ele>505.2</ele>
        <time>2023-08-20T15:10:28Z</time>
      </trkpt>
      <trkpt lat="44.43369" lon="2.10477">
        <ele>505.2</ele>
        <time>2023-08-20T15:10:29Z</time>
      </trkpt>
      <trkpt lat="44.43381" lon="2.10451">
        <ele>505.6</ele>
        <time>2023-08-20T15:10:30Z</time>
      </trkpt>
      <trkpt lat="44.43392" lon="2.10424">
        <ele>506.4</ele>
        <time>2023-08-20T15:10:31Z</time>
      </trkpt>
      <trkpt lat="44.43403" lon="2.10399">
        <ele>506.6</ele>
        <time>2023-08-20T15:10:32Z</time>
      </trkpt>
      <trkpt lat="44.43414" lon="2.10373">
        <ele>507.2</ele>
        <time>2023-08-20T15:10:33Z</time>
      </trkpt>
      <trkpt lat="44.43424" lon="2.10348">
        <ele>507.2</ele>
        <time>2023-08-20T15:10:34Z</time>
      </trkpt>
      <trkpt lat="44.43434" lon="2.10323">
        <ele>507.4</ele>
        <time>2023-08-20T15:10:35Z</time>
      </trkpt>
      <trkpt lat="44.43442" lon="2.10298">
        <ele>507.4</ele>
        <time>2023-08-20T15:10:36Z</time>
      </trkpt>
      <trkpt lat="44.4345" lon="2.10273">
        <ele>507.4</ele>
        <time>2023-08-20T15:10:37Z</time>
      </trkpt>
      <trkpt lat="44.43457" lon="2.10249">
        <ele>507.4</ele>
        <time>2023-08-20T15:10:38Z</time>
      </trkpt>
      <trkpt lat="44.43465" lon="2.10224">
        <ele>507.2</ele>
        <time>2023-08-20T15:10:39Z</time>
      </trkpt>
      <trkpt lat="44.43472" lon="2.102">
        <ele>506.8</ele>
        <time>2023-08-20T15:10:40Z</time>
      </trkpt>
      <trkpt lat="44.43479" lon="2.10176">
        <ele>506.8</ele>
        <time>2023-08-20T15:10:41Z</time>
      </trkpt>
      <trkpt lat="44.43487" lon="2.10153">
        <ele>506.6</ele>
        <time>2023-08-20T15:10:42Z</time>
      </trkpt>
      <trkpt lat="44.43494" lon="2.10131">
        <ele>506.4</ele>
        <time>2023-08-20T15:10:43Z</time>
      </trkpt>
      <trkpt lat="44.43502" lon="2.1011">
        <ele>506</ele>
        <time>2023-08-20T15:10:44Z</time>
      </trkpt>
      <trkpt lat="44.43512" lon="2.1009">
        <ele>506</ele>
        <time>2023-08-20T15:10:45Z</time>
      </trkpt>
      <trkpt lat="44.43522" lon="2.10071">
        <ele>505.6</ele>
        <time>2023-08-20T15:10:46Z</time>
      </trkpt>
      <trkpt lat="44.43534" lon="2.10055">
        <ele>505.6</ele>
        <time>2023-08-20T15:10:47Z</time>
      </trkpt>
      <trkpt lat="44.43546" lon="2.10041">
        <ele>505.2</ele>
        <time>2023-08-20T15:10:48Z</time>
      </trkpt>
      <trkpt lat="44.4356" lon="2.10029">
        <ele>504.4</ele>
        <time>2023-08-20T15:10:49Z</time>
      </trkpt>
      <trkpt lat="44.43574" lon="2.10017">
        <ele>504</ele>
        <time>2023-08-20T15:10:50Z</time>
      </trkpt>
      <trkpt lat="44.43588" lon="2.10006">
        <ele>503.4</ele>
        <time>2023-08-20T15:10:51Z</time>
      </trkpt>
      <trkpt lat="44.43602" lon="2.09995">
        <ele>503.4</ele>
        <time>2023-08-20T15:10:52Z</time>
      </trkpt>
      <trkpt lat="44.43616" lon="2.09984">
        <ele>502.2</ele>
        <time>2023-08-20T15:10:53Z</time>
      </trkpt>
      <trkpt lat="44.43659" lon="2.09958">
        <ele>500.8</ele>
        <time>2023-08-20T15:10:56Z</time>
      </trkpt>
      <trkpt lat="44.43692" lon="2.09947">
        <ele>499.4</ele>
        <time>2023-08-20T15:10:58Z</time>
      </trkpt>
      <trkpt lat="44.43726" lon="2.09939">
        <ele>497.8</ele>
        <time>2023-08-20T15:11:00Z</time>
      </trkpt>
      <trkpt lat="44.43779" lon="2.09937">
        <ele>496.6</ele>
        <time>2023-08-20T15:11:03Z</time>
      </trkpt>
      <trkpt lat="44.43797" lon="2.09938">
        <ele>495.6</ele>
        <time>2023-08-20T15:11:04Z</time>
      </trkpt>
      <trkpt lat="44.43833" lon="2.09938">
        <ele>493.8</ele>
        <time>2023-08-20T15:11:06Z</time>
      </trkpt>
      <trkpt lat="44.43851" lon="2.09939">
        <ele>492.6</ele>
        <time>2023-08-20T15:11:07Z</time>
      </trkpt>
      <trkpt lat="44.43887" lon="2.09936">
        <ele>490.8</ele>
        <time>2023-08-20T15:11:09Z</time>
      </trkpt>
      <trkpt lat="44.43904" lon="2.09932">
        <ele>490.4</ele>
        <time>2023-08-20T15:11:10Z</time>
      </trkpt>
      <trkpt lat="44.43937" lon="2.09914">
        <ele>489.4</ele>
        <time>2023-08-20T15:11:12Z</time>
      </trkpt>
      <trkpt lat="44.43951" lon="2.09901">
        <ele>488.2</ele>
        <time>2023-08-20T15:11:13Z</time>
      </trkpt>
      <trkpt lat="44.43965" lon="2.09885">
        <ele>487.6</ele>
        <time>2023-08-20T15:11:14Z</time>
      </trkpt>
      <trkpt lat="44.43977" lon="2.09867">
        <ele>486</ele>
        <time>2023-08-20T15:11:15Z</time>
      </trkpt>
      <trkpt lat="44.43988" lon="2.09846">
        <ele>484.8</ele>
        <time>2023-08-20T15:11:16Z</time>
      </trkpt>
      <trkpt lat="44.44005" lon="2.098">
        <ele>483.2</ele>
        <time>2023-08-20T15:11:18Z</time>
      </trkpt>
      <trkpt lat="44.44021" lon="2.09751">
        <ele>482</ele>
        <time>2023-08-20T15:11:20Z</time>
      </trkpt>
      <trkpt lat="44.44047" lon="2.09678">
        <ele>480.4</ele>
        <time>2023-08-20T15:11:23Z</time>
      </trkpt>
      <trkpt lat="44.44055" lon="2.09654">
        <ele>480</ele>
        <time>2023-08-20T15:11:24Z</time>
      </trkpt>
      <trkpt lat="44.44081" lon="2.09583">
        <ele>478.8</ele>
        <time>2023-08-20T15:11:27Z</time>
      </trkpt>
      <trkpt lat="44.44103" lon="2.09539">
        <ele>477</ele>
        <time>2023-08-20T15:11:29Z</time>
      </trkpt>
      <trkpt lat="44.44125" lon="2.09503">
        <ele>475</ele>
        <time>2023-08-20T15:11:31Z</time>
      </trkpt>
      <trkpt lat="44.44137" lon="2.09484">
        <ele>473.6</ele>
        <time>2023-08-20T15:11:32Z</time>
      </trkpt>
      <trkpt lat="44.4415" lon="2.09464">
        <ele>472.8</ele>
        <time>2023-08-20T15:11:33Z</time>
      </trkpt>
      <trkpt lat="44.44165" lon="2.09441">
        <ele>471.4</ele>
        <time>2023-08-20T15:11:34Z</time>
      </trkpt>
      <trkpt lat="44.44186" lon="2.09407">
        <ele>469.6</ele>
        <time>2023-08-20T15:11:36Z</time>
      </trkpt>
      <trkpt lat="44.44214" lon="2.09367">
        <ele>467.6</ele>
        <time>2023-08-20T15:11:38Z</time>
      </trkpt>
      <trkpt lat="44.44225" lon="2.09349">
        <ele>467</ele>
        <time>2023-08-20T15:11:39Z</time>
      </trkpt>
      <trkpt lat="44.44235" lon="2.09332">
        <ele>465.6</ele>
        <time>2023-08-20T15:11:40Z</time>
      </trkpt>
      <trkpt lat="44.44242" lon="2.09315">
        <ele>464.4</ele>
        <time>2023-08-20T15:11:41Z</time>
      </trkpt>
      <trkpt lat="44.44246" lon="2.09297">
        <ele>464</ele>
        <time>2023-08-20T15:11:42Z</time>
      </trkpt>
      <trkpt lat="44.44247" lon="2.0928">
        <ele>462.6</ele>
        <time>2023-08-20T15:11:43Z</time>
      </trkpt>
      <trkpt lat="44.44245" lon="2.09261">
        <ele>461.4</ele>
        <time>2023-08-20T15:11:44Z</time>
      </trkpt>
      <trkpt lat="44.44241" lon="2.09241">
        <ele>459.2</ele>
        <time>2023-08-20T15:11:45Z</time>
      </trkpt>
      <trkpt lat="44.44235" lon="2.09221">
        <ele>458</ele>
        <time>2023-08-20T15:11:46Z</time>
      </trkpt>
      <trkpt lat="44.44227" lon="2.09201">
        <ele>456</ele>
        <time>2023-08-20T15:11:47Z</time>
      </trkpt>
      <trkpt lat="44.44217" lon="2.0918">
        <ele>455.2</ele>
        <time>2023-08-20T15:11:48Z</time>
      </trkpt>
      <trkpt lat="44.44207" lon="2.09158">
        <ele>454</ele>
        <time>2023-08-20T15:11:49Z</time>
      </trkpt>
      <trkpt lat="44.44197" lon="2.09135">
        <ele>453.2</ele>
        <time>2023-08-20T15:11:50Z</time>
      </trkpt>
      <trkpt lat="44.44186" lon="2.09113">
        <ele>452.6</ele>
        <time>2023-08-20T15:11:51Z</time>
      </trkpt>
      <trkpt lat="44.44157" lon="2.09046">
        <ele>451.2</ele>
        <time>2023-08-20T15:11:54Z</time>
      </trkpt>
      <trkpt lat="44.4415" lon="2.09023">
        <ele>450.8</ele>
        <time>2023-08-20T15:11:55Z</time>
      </trkpt>
      <trkpt lat="44.44141" lon="2.08974">
        <ele>450</ele>
        <time>2023-08-20T15:11:57Z</time>
      </trkpt>
      <trkpt lat="44.4414" lon="2.08949">
        <ele>449.8</ele>
        <time>2023-08-20T15:11:58Z</time>
      </trkpt>
      <trkpt lat="44.44139" lon="2.08874">
        <ele>448.8</ele>
        <time>2023-08-20T15:12:01Z</time>
      </trkpt>
      <trkpt lat="44.44139" lon="2.08849">
        <ele>448.6</ele>
        <time>2023-08-20T15:12:02Z</time>
      </trkpt>
      <trkpt lat="44.44139" lon="2.08775">
        <ele>447.6</ele>
        <time>2023-08-20T15:12:05Z</time>
      </trkpt>
      <trkpt lat="44.44135" lon="2.08727">
        <ele>447</ele>
        <time>2023-08-20T15:12:07Z</time>
      </trkpt>
      <trkpt lat="44.44124" lon="2.08654">
        <ele>446.4</ele>
        <time>2023-08-20T15:12:10Z</time>
      </trkpt>
      <trkpt lat="44.44113" lon="2.08581">
        <ele>446</ele>
        <time>2023-08-20T15:12:13Z</time>
      </trkpt>
      <trkpt lat="44.44099" lon="2.08507">
        <ele>445.4</ele>
        <time>2023-08-20T15:12:16Z</time>
      </trkpt>
      <trkpt lat="44.44092" lon="2.0846">
        <ele>444.8</ele>
        <time>2023-08-20T15:12:18Z</time>
      </trkpt>
      <trkpt lat="44.44089" lon="2.08437">
        <ele>444.4</ele>
        <time>2023-08-20T15:12:19Z</time>
      </trkpt>
      <trkpt lat="44.44087" lon="2.08416">
        <ele>444.2</ele>
        <time>2023-08-20T15:12:20Z</time>
      </trkpt>
      <trkpt lat="44.44087" lon="2.08395">
        <ele>443.4</ele>
        <time>2023-08-20T15:12:21Z</time>
      </trkpt>
      <trkpt lat="44.44089" lon="2.08377">
        <ele>443</ele>
        <time>2023-08-20T15:12:22Z</time>
      </trkpt>
      <trkpt lat="44.44094" lon="2.08359">
        <ele>442.4</ele>
        <time>2023-08-20T15:12:23Z</time>
      </trkpt>
      <trkpt lat="44.441" lon="2.08342">
        <ele>441.8</ele>
        <time>2023-08-20T15:12:24Z</time>
      </trkpt>
      <trkpt lat="44.44108" lon="2.08326">
        <ele>441.2</ele>
        <time>2023-08-20T15:12:25Z</time>
      </trkpt>
      <trkpt lat="44.44116" lon="2.08308">
        <ele>440.8</ele>
        <time>2023-08-20T15:12:26Z</time>
      </trkpt>
      <trkpt lat="44.44124" lon="2.08289">
        <ele>440.4</ele>
        <time>2023-08-20T15:12:27Z</time>
      </trkpt>
      <trkpt lat="44.4413" lon="2.08268">
        <ele>439.8</ele>
        <time>2023-08-20T15:12:28Z</time>
      </trkpt>
      <trkpt lat="44.44135" lon="2.08245">
        <ele>439.6</ele>
        <time>2023-08-20T15:12:29Z</time>
      </trkpt>
      <trkpt lat="44.44141" lon="2.08195">
        <ele>439</ele>
        <time>2023-08-20T15:12:31Z</time>
      </trkpt>
      <trkpt lat="44.44143" lon="2.08169">
        <ele>438.2</ele>
        <time>2023-08-20T15:12:32Z</time>
      </trkpt>
      <trkpt lat="44.4415" lon="2.08088">
        <ele>436.4</ele>
        <time>2023-08-20T15:12:35Z</time>
      </trkpt>
      <trkpt lat="44.4416" lon="2.08009">
        <ele>435.4</ele>
        <time>2023-08-20T15:12:38Z</time>
      </trkpt>
      <trkpt lat="44.44164" lon="2.07984">
        <ele>434.8</ele>
        <time>2023-08-20T15:12:39Z</time>
      </trkpt>
      <trkpt lat="44.44167" lon="2.07959">
        <ele>434.4</ele>
        <time>2023-08-20T15:12:40Z</time>
      </trkpt>
      <trkpt lat="44.4417" lon="2.07934">
        <ele>433.4</ele>
        <time>2023-08-20T15:12:41Z</time>
      </trkpt>
      <trkpt lat="44.44174" lon="2.07909">
        <ele>432.6</ele>
        <time>2023-08-20T15:12:42Z</time>
      </trkpt>
      <trkpt lat="44.44177" lon="2.07884">
        <ele>430.6</ele>
        <time>2023-08-20T15:12:43Z</time>
      </trkpt>
      <trkpt lat="44.4418" lon="2.07859">
        <ele>429</ele>
        <time>2023-08-20T15:12:44Z</time>
      </trkpt>
      <trkpt lat="44.44187" lon="2.07807">
        <ele>426.4</ele>
        <time>2023-08-20T15:12:46Z</time>
      </trkpt>
      <trkpt lat="44.44189" lon="2.07753">
        <ele>423.8</ele>
        <time>2023-08-20T15:12:48Z</time>
      </trkpt>
      <trkpt lat="44.44188" lon="2.07725">
        <ele>423</ele>
        <time>2023-08-20T15:12:49Z</time>
      </trkpt>
      <trkpt lat="44.44186" lon="2.07698">
        <ele>422</ele>
        <time>2023-08-20T15:12:50Z</time>
      </trkpt>
      <trkpt lat="44.44182" lon="2.0767">
        <ele>421</ele>
        <time>2023-08-20T15:12:51Z</time>
      </trkpt>
      <trkpt lat="44.44176" lon="2.07644">
        <ele>419.2</ele>
        <time>2023-08-20T15:12:52Z</time>
      </trkpt>
      <trkpt lat="44.44162" lon="2.07594">
        <ele>418.2</ele>
        <time>2023-08-20T15:12:54Z</time>
      </trkpt>
      <trkpt lat="44.44154" lon="2.07572">
        <ele>417.8</ele>
        <time>2023-08-20T15:12:55Z</time>
      </trkpt>
      <trkpt lat="44.44144" lon="2.07551">
        <ele>417.6</ele>
        <time>2023-08-20T15:12:56Z</time>
      </trkpt>
      <trkpt lat="44.44134" lon="2.07532">
        <ele>417.4</ele>
        <time>2023-08-20T15:12:57Z</time>
      </trkpt>
      <trkpt lat="44.44123" lon="2.07515">
        <ele>417.2</ele>
        <time>2023-08-20T15:12:58Z</time>
      </trkpt>
      <trkpt lat="44.44111" lon="2.07497">
        <ele>416.8</ele>
        <time>2023-08-20T15:12:59Z</time>
      </trkpt>
      <trkpt lat="44.44099" lon="2.07481">
        <ele>416.8</ele>
        <time>2023-08-20T15:13:00Z</time>
      </trkpt>
      <trkpt lat="44.44086" lon="2.07465">
        <ele>416.6</ele>
        <time>2023-08-20T15:13:01Z</time>
      </trkpt>
      <trkpt lat="44.4404" lon="2.07425">
        <ele>416.6</ele>
        <time>2023-08-20T15:13:04Z</time>
      </trkpt>
      <trkpt lat="44.43987" lon="2.07392">
        <ele>416.6</ele>
        <time>2023-08-20T15:13:07Z</time>
      </trkpt>
      <trkpt lat="44.43968" lon="2.0738">
        <ele>416.6</ele>
        <time>2023-08-20T15:13:08Z</time>
      </trkpt>
      <trkpt lat="44.43913" lon="2.07346">
        <ele>416.6</ele>
        <time>2023-08-20T15:13:11Z</time>
      </trkpt>
      <trkpt lat="44.43877" lon="2.07323">
        <ele>416.4</ele>
        <time>2023-08-20T15:13:13Z</time>
      </trkpt>
      <trkpt lat="44.4384" lon="2.073">
        <ele>415.8</ele>
        <time>2023-08-20T15:13:15Z</time>
      </trkpt>
      <trkpt lat="44.43822" lon="2.07288">
        <ele>415.4</ele>
        <time>2023-08-20T15:13:16Z</time>
      </trkpt>
      <trkpt lat="44.43804" lon="2.07276">
        <ele>414.8</ele>
        <time>2023-08-20T15:13:17Z</time>
      </trkpt>
      <trkpt lat="44.43772" lon="2.0725">
        <ele>414</ele>
        <time>2023-08-20T15:13:19Z</time>
      </trkpt>
      <trkpt lat="44.43757" lon="2.07234">
        <ele>413.6</ele>
        <time>2023-08-20T15:13:20Z</time>
      </trkpt>
      <trkpt lat="44.43743" lon="2.07218">
        <ele>413.4</ele>
        <time>2023-08-20T15:13:21Z</time>
      </trkpt>
      <trkpt lat="44.43731" lon="2.07199">
        <ele>412.8</ele>
        <time>2023-08-20T15:13:22Z</time>
      </trkpt>
      <trkpt lat="44.43719" lon="2.07181">
        <ele>412.2</ele>
        <time>2023-08-20T15:13:23Z</time>
      </trkpt>
      <trkpt lat="44.4371" lon="2.07161">
        <ele>411.4</ele>
        <time>2023-08-20T15:13:24Z</time>
      </trkpt>
      <trkpt lat="44.43701" lon="2.07141">
        <ele>411.2</ele>
        <time>2023-08-20T15:13:25Z</time>
      </trkpt>
      <trkpt lat="44.43694" lon="2.0712">
        <ele>410.8</ele>
        <time>2023-08-20T15:13:26Z</time>
      </trkpt>
      <trkpt lat="44.43688" lon="2.07098">
        <ele>410.4</ele>
        <time>2023-08-20T15:13:27Z</time>
      </trkpt>
      <trkpt lat="44.43682" lon="2.07076">
        <ele>409.6</ele>
        <time>2023-08-20T15:13:28Z</time>
      </trkpt>
      <trkpt lat="44.43678" lon="2.07052">
        <ele>409</ele>
        <time>2023-08-20T15:13:29Z</time>
      </trkpt>
      <trkpt lat="44.43675" lon="2.0698">
        <ele>408.8</ele>
        <time>2023-08-20T15:13:32Z</time>
      </trkpt>
      <trkpt lat="44.43684" lon="2.06907">
        <ele>408.6</ele>
        <time>2023-08-20T15:13:35Z</time>
      </trkpt>
      <trkpt lat="44.43705" lon="2.06832">
        <ele>409.2</ele>
        <time>2023-08-20T15:13:38Z</time>
      </trkpt>
      <trkpt lat="44.43737" lon="2.06754">
        <ele>410</ele>
        <time>2023-08-20T15:13:41Z</time>
      </trkpt>
      <trkpt lat="44.43749" lon="2.06727">
        <ele>410.6</ele>
        <time>2023-08-20T15:13:42Z</time>
      </trkpt>
      <trkpt lat="44.4376" lon="2.067">
        <ele>411</ele>
        <time>2023-08-20T15:13:43Z</time>
      </trkpt>
      <trkpt lat="44.4379" lon="2.06629">
        <ele>411.2</ele>
        <time>2023-08-20T15:13:46Z</time>
      </trkpt>
      <trkpt lat="44.43803" lon="2.06599">
        <ele>411.4</ele>
        <time>2023-08-20T15:13:47Z</time>
      </trkpt>
      <trkpt lat="44.43814" lon="2.06575">
        <ele>411.2</ele>
        <time>2023-08-20T15:13:48Z</time>
      </trkpt>
      <trkpt lat="44.43848" lon="2.06503">
        <ele>409.6</ele>
        <time>2023-08-20T15:13:51Z</time>
      </trkpt>
      <trkpt lat="44.43859" lon="2.06482">
        <ele>409</ele>
        <time>2023-08-20T15:13:52Z</time>
      </trkpt>
      <trkpt lat="44.43871" lon="2.06462">
        <ele>408.2</ele>
        <time>2023-08-20T15:13:53Z</time>
      </trkpt>
      <trkpt lat="44.43884" lon="2.06443">
        <ele>406.8</ele>
        <time>2023-08-20T15:13:54Z</time>
      </trkpt>
      <trkpt lat="44.43897" lon="2.06425">
        <ele>406</ele>
        <time>2023-08-20T15:13:55Z</time>
      </trkpt>
      <trkpt lat="44.4391" lon="2.06407">
        <ele>405</ele>
        <time>2023-08-20T15:13:56Z</time>
      </trkpt>
      <trkpt lat="44.43938" lon="2.06371">
        <ele>403.2</ele>
        <time>2023-08-20T15:13:58Z</time>
      </trkpt>
      <trkpt lat="44.43966" lon="2.06335">
        <ele>401.8</ele>
        <time>2023-08-20T15:14:00Z</time>
      </trkpt>
      <trkpt lat="44.43994" lon="2.06297">
        <ele>400.4</ele>
        <time>2023-08-20T15:14:02Z</time>
      </trkpt>
      <trkpt lat="44.44006" lon="2.06277">
        <ele>399.2</ele>
        <time>2023-08-20T15:14:03Z</time>
      </trkpt>
      <trkpt lat="44.44017" lon="2.06256">
        <ele>399</ele>
        <time>2023-08-20T15:14:04Z</time>
      </trkpt>
      <trkpt lat="44.44035" lon="2.06209">
        <ele>398</ele>
        <time>2023-08-20T15:14:06Z</time>
      </trkpt>
      <trkpt lat="44.44041" lon="2.06184">
        <ele>397.8</ele>
        <time>2023-08-20T15:14:07Z</time>
      </trkpt>
      <trkpt lat="44.4405" lon="2.06133">
        <ele>397.4</ele>
        <time>2023-08-20T15:14:09Z</time>
      </trkpt>
      <trkpt lat="44.44057" lon="2.06055">
        <ele>397.4</ele>
        <time>2023-08-20T15:14:12Z</time>
      </trkpt>
      <trkpt lat="44.44061" lon="2.06002">
        <ele>397.4</ele>
        <time>2023-08-20T15:14:14Z</time>
      </trkpt>
      <trkpt lat="44.44068" lon="2.05915">
        <ele>397.8</ele>
        <time>2023-08-20T15:14:17Z</time>
      </trkpt>
      <trkpt lat="44.4407" lon="2.05884">
        <ele>398.6</ele>
        <time>2023-08-20T15:14:18Z</time>
      </trkpt>
      <trkpt lat="44.44075" lon="2.05826">
        <ele>400.8</ele>
        <time>2023-08-20T15:14:20Z</time>
      </trkpt>
      <trkpt lat="44.44077" lon="2.05798">
        <ele>403.6</ele>
        <time>2023-08-20T15:14:21Z</time>
      </trkpt>
      <trkpt lat="44.44079" lon="2.05772">
        <ele>404.2</ele>
        <time>2023-08-20T15:14:22Z</time>
      </trkpt>
      <trkpt lat="44.44081" lon="2.05747">
        <ele>405.8</ele>
        <time>2023-08-20T15:14:23Z</time>
      </trkpt>
      <trkpt lat="44.44083" lon="2.05723">
        <ele>406.4</ele>
        <time>2023-08-20T15:14:24Z</time>
      </trkpt>
      <trkpt lat="44.44085" lon="2.05698">
        <ele>407.4</ele>
        <time>2023-08-20T15:14:25Z</time>
      </trkpt>
      <trkpt lat="44.44087" lon="2.05674">
        <ele>407.6</ele>
        <time>2023-08-20T15:14:26Z</time>
      </trkpt>
      <trkpt lat="44.44089" lon="2.0565">
        <ele>408.4</ele>
        <time>2023-08-20T15:14:27Z</time>
      </trkpt>
      <trkpt lat="44.44091" lon="2.05626">
        <ele>408.6</ele>
        <time>2023-08-20T15:14:28Z</time>
      </trkpt>
      <trkpt lat="44.44092" lon="2.05601">
        <ele>409</ele>
        <time>2023-08-20T15:14:29Z</time>
      </trkpt>
      <trkpt lat="44.44094" lon="2.05577">
        <ele>410.2</ele>
        <time>2023-08-20T15:14:30Z</time>
      </trkpt>
      <trkpt lat="44.44095" lon="2.05552">
        <ele>410.6</ele>
        <time>2023-08-20T15:14:31Z</time>
      </trkpt>
      <trkpt lat="44.44097" lon="2.05527">
        <ele>411.4</ele>
        <time>2023-08-20T15:14:32Z</time>
      </trkpt>
      <trkpt lat="44.44098" lon="2.05503">
        <ele>411.8</ele>
        <time>2023-08-20T15:14:33Z</time>
      </trkpt>
      <trkpt lat="44.441" lon="2.05478">
        <ele>412.8</ele>
        <time>2023-08-20T15:14:34Z</time>
      </trkpt>
      <trkpt lat="44.44101" lon="2.05454">
        <ele>413</ele>
        <time>2023-08-20T15:14:35Z</time>
      </trkpt>
      <trkpt lat="44.44103" lon="2.0543">
        <ele>413.8</ele>
        <time>2023-08-20T15:14:36Z</time>
      </trkpt>
      <trkpt lat="44.44105" lon="2.05406">
        <ele>414</ele>
        <time>2023-08-20T15:14:37Z</time>
      </trkpt>
      <trkpt lat="44.44108" lon="2.05381">
        <ele>414.4</ele>
        <time>2023-08-20T15:14:38Z</time>
      </trkpt>
      <trkpt lat="44.44111" lon="2.05357">
        <ele>414.8</ele>
        <time>2023-08-20T15:14:39Z</time>
      </trkpt>
      <trkpt lat="44.44115" lon="2.05333">
        <ele>414.8</ele>
        <time>2023-08-20T15:14:40Z</time>
      </trkpt>
      <trkpt lat="44.4412" lon="2.05308">
        <ele>415</ele>
        <time>2023-08-20T15:14:41Z</time>
      </trkpt>
      <trkpt lat="44.44125" lon="2.05284">
        <ele>415.2</ele>
        <time>2023-08-20T15:14:42Z</time>
      </trkpt>
      <trkpt lat="44.4413" lon="2.05259">
        <ele>415.8</ele>
        <time>2023-08-20T15:14:43Z</time>
      </trkpt>
      <trkpt lat="44.44134" lon="2.05233">
        <ele>416.4</ele>
        <time>2023-08-20T15:14:44Z</time>
      </trkpt>
      <trkpt lat="44.44138" lon="2.05207">
        <ele>417.4</ele>
        <time>2023-08-20T15:14:45Z</time>
      </trkpt>
      <trkpt lat="44.4414" lon="2.05181">
        <ele>417.8</ele>
        <time>2023-08-20T15:14:46Z</time>
      </trkpt>
      <trkpt lat="44.44139" lon="2.05154">
        <ele>418.4</ele>
        <time>2023-08-20T15:14:47Z</time>
      </trkpt>
      <trkpt lat="44.44137" lon="2.05128">
        <ele>418.8</ele>
        <time>2023-08-20T15:14:48Z</time>
      </trkpt>
      <trkpt lat="44.44133" lon="2.05102">
        <ele>419</ele>
        <time>2023-08-20T15:14:49Z</time>
      </trkpt>
      <trkpt lat="44.44126" lon="2.05077">
        <ele>419.8</ele>
        <time>2023-08-20T15:14:50Z</time>
      </trkpt>
      <trkpt lat="44.44117" lon="2.05053">
        <ele>420</ele>
        <time>2023-08-20T15:14:51Z</time>
      </trkpt>
      <trkpt lat="44.44107" lon="2.05029">
        <ele>420.2</ele>
        <time>2023-08-20T15:14:52Z</time>
      </trkpt>
      <trkpt lat="44.44095" lon="2.05007">
        <ele>420.4</ele>
        <time>2023-08-20T15:14:53Z</time>
      </trkpt>
      <trkpt lat="44.44083" lon="2.04984">
        <ele>420.8</ele>
        <time>2023-08-20T15:14:54Z</time>
      </trkpt>
      <trkpt lat="44.4407" lon="2.04962">
        <ele>420.8</ele>
        <time>2023-08-20T15:14:55Z</time>
      </trkpt>
      <trkpt lat="44.44057" lon="2.04939">
        <ele>421.4</ele>
        <time>2023-08-20T15:14:56Z</time>
      </trkpt>
      <trkpt lat="44.44044" lon="2.04916">
        <ele>421.8</ele>
        <time>2023-08-20T15:14:57Z</time>
      </trkpt>
      <trkpt lat="44.44031" lon="2.04893">
        <ele>422</ele>
        <time>2023-08-20T15:14:58Z</time>
      </trkpt>
      <trkpt lat="44.44021" lon="2.04869">
        <ele>422.4</ele>
        <time>2023-08-20T15:14:59Z</time>
      </trkpt>
      <trkpt lat="44.44012" lon="2.04844">
        <ele>422.8</ele>
        <time>2023-08-20T15:15:00Z</time>
      </trkpt>
      <trkpt lat="44.44004" lon="2.04821">
        <ele>423.6</ele>
        <time>2023-08-20T15:15:01Z</time>
      </trkpt>
      <trkpt lat="44.43995" lon="2.04799">
        <ele>423.8</ele>
        <time>2023-08-20T15:15:02Z</time>
      </trkpt>
      <trkpt lat="44.43985" lon="2.04779">
        <ele>424.2</ele>
        <time>2023-08-20T15:15:03Z</time>
      </trkpt>
      <trkpt lat="44.43975" lon="2.0476">
        <ele>424.4</ele>
        <time>2023-08-20T15:15:04Z</time>
      </trkpt>
      <trkpt lat="44.43963" lon="2.04743">
        <ele>424.8</ele>
        <time>2023-08-20T15:15:05Z</time>
      </trkpt>
      <trkpt lat="44.4395" lon="2.04726">
        <ele>424.8</ele>
        <time>2023-08-20T15:15:06Z</time>
      </trkpt>
      <trkpt lat="44.43937" lon="2.0471">
        <ele>424.8</ele>
        <time>2023-08-20T15:15:07Z</time>
      </trkpt>
      <trkpt lat="44.43924" lon="2.04693">
        <ele>424.8</ele>
        <time>2023-08-20T15:15:08Z</time>
      </trkpt>
      <trkpt lat="44.43911" lon="2.04676">
        <ele>424.6</ele>
        <time>2023-08-20T15:15:09Z</time>
      </trkpt>
      <trkpt lat="44.43898" lon="2.04658">
        <ele>424.4</ele>
        <time>2023-08-20T15:15:10Z</time>
      </trkpt>
      <trkpt lat="44.43885" lon="2.0464">
        <ele>424.2</ele>
        <time>2023-08-20T15:15:11Z</time>
      </trkpt>
      <trkpt lat="44.43872" lon="2.04621">
        <ele>424</ele>
        <time>2023-08-20T15:15:12Z</time>
      </trkpt>
      <trkpt lat="44.43861" lon="2.046">
        <ele>423.8</ele>
        <time>2023-08-20T15:15:13Z</time>
      </trkpt>
      <trkpt lat="44.43852" lon="2.04579">
        <ele>423.2</ele>
        <time>2023-08-20T15:15:14Z</time>
      </trkpt>
      <trkpt lat="44.43845" lon="2.04556">
        <ele>422.8</ele>
        <time>2023-08-20T15:15:15Z</time>
      </trkpt>
      <trkpt lat="44.43841" lon="2.04533">
        <ele>422.4</ele>
        <time>2023-08-20T15:15:16Z</time>
      </trkpt>
      <trkpt lat="44.43838" lon="2.0451">
        <ele>422</ele>
        <time>2023-08-20T15:15:17Z</time>
      </trkpt>
      <trkpt lat="44.43837" lon="2.04487">
        <ele>421.8</ele>
        <time>2023-08-20T15:15:18Z</time>
      </trkpt>
      <trkpt lat="44.43838" lon="2.04464">
        <ele>421.2</ele>
        <time>2023-08-20T15:15:19Z</time>
      </trkpt>
      <trkpt lat="44.43841" lon="2.04447">
        <ele>421</ele>
        <time>2023-08-20T15:15:20Z</time>
      </trkpt>
      <trkpt lat="44.43845" lon="2.04426">
        <ele>420.6</ele>
        <time>2023-08-20T15:15:21Z</time>
      </trkpt>
      <trkpt lat="44.43851" lon="2.04401">
        <ele>420.6</ele>
        <time>2023-08-20T15:15:22Z</time>
      </trkpt>
      <trkpt lat="44.43857" lon="2.04381">
        <ele>420.4</ele>
        <time>2023-08-20T15:15:23Z</time>
      </trkpt>
      <trkpt lat="44.43862" lon="2.04361">
        <ele>420.2</ele>
        <time>2023-08-20T15:15:24Z</time>
      </trkpt>
      <trkpt lat="44.43868" lon="2.0434">
        <ele>420.2</ele>
        <time>2023-08-20T15:15:25Z</time>
      </trkpt>
      <trkpt lat="44.43877" lon="2.04295">
        <ele>420</ele>
        <time>2023-08-20T15:15:27Z</time>
      </trkpt>
      <trkpt lat="44.43881" lon="2.04272">
        <ele>420</ele>
        <time>2023-08-20T15:15:28Z</time>
      </trkpt>
      <trkpt lat="44.43883" lon="2.04222">
        <ele>419.8</ele>
        <time>2023-08-20T15:15:30Z</time>
      </trkpt>
      <trkpt lat="44.43879" lon="2.04146">
        <ele>419.4</ele>
        <time>2023-08-20T15:15:33Z</time>
      </trkpt>
      <trkpt lat="44.43876" lon="2.04098">
        <ele>419</ele>
        <time>2023-08-20T15:15:35Z</time>
      </trkpt>
      <trkpt lat="44.43874" lon="2.04074">
        <ele>419</ele>
        <time>2023-08-20T15:15:36Z</time>
      </trkpt>
      <trkpt lat="44.43873" lon="2.04051">
        <ele>418.2</ele>
        <time>2023-08-20T15:15:37Z</time>
      </trkpt>
      <trkpt lat="44.43871" lon="2.04029">
        <ele>417.8</ele>
        <time>2023-08-20T15:15:38Z</time>
      </trkpt>
      <trkpt lat="44.43869" lon="2.04007">
        <ele>416.8</ele>
        <time>2023-08-20T15:15:39Z</time>
      </trkpt>
      <trkpt lat="44.43868" lon="2.03985">
        <ele>416.2</ele>
        <time>2023-08-20T15:15:40Z</time>
      </trkpt>
      <trkpt lat="44.43866" lon="2.03964">
        <ele>415.4</ele>
        <time>2023-08-20T15:15:41Z</time>
      </trkpt>
      <trkpt lat="44.43865" lon="2.03943">
        <ele>414.8</ele>
        <time>2023-08-20T15:15:42Z</time>
      </trkpt>
      <trkpt lat="44.43864" lon="2.03923">
        <ele>414.8</ele>
        <time>2023-08-20T15:15:43Z</time>
      </trkpt>
      <trkpt lat="44.43863" lon="2.03903">
        <ele>414.2</ele>
        <time>2023-08-20T15:15:44Z</time>
      </trkpt>
      <trkpt lat="44.43862" lon="2.03884">
        <ele>413.8</ele>
        <time>2023-08-20T15:15:45Z</time>
      </trkpt>
      <trkpt lat="44.4386" lon="2.03865">
        <ele>413.2</ele>
        <time>2023-08-20T15:15:46Z</time>
      </trkpt>
      <trkpt lat="44.43859" lon="2.03846">
        <ele>412.6</ele>
        <time>2023-08-20T15:15:47Z</time>
      </trkpt>
      <trkpt lat="44.43858" lon="2.03828">
        <ele>412</ele>
        <time>2023-08-20T15:15:48Z</time>
      </trkpt>
      <trkpt lat="44.43857" lon="2.0381">
        <ele>411.4</ele>
        <time>2023-08-20T15:15:49Z</time>
      </trkpt>
      <trkpt lat="44.43856" lon="2.03792">
        <ele>411.2</ele>
        <time>2023-08-20T15:15:50Z</time>
      </trkpt>
      <trkpt lat="44.43855" lon="2.03774">
        <ele>410.8</ele>
        <time>2023-08-20T15:15:51Z</time>
      </trkpt>
      <trkpt lat="44.43854" lon="2.03755">
        <ele>410.6</ele>
        <time>2023-08-20T15:15:52Z</time>
      </trkpt>
      <trkpt lat="44.4385" lon="2.037">
        <ele>409.6</ele>
        <time>2023-08-20T15:15:55Z</time>
      </trkpt>
      <trkpt lat="44.43845" lon="2.03615">
        <ele>408.2</ele>
        <time>2023-08-20T15:16:00Z</time>
      </trkpt>
      <trkpt lat="44.43844" lon="2.03601">
        <ele>408.2</ele>
        <time>2023-08-20T15:16:01Z</time>
      </trkpt>
      <trkpt lat="44.43843" lon="2.0359">
        <ele>407.8</ele>
        <time>2023-08-20T15:16:02Z</time>
      </trkpt>
      <trkpt lat="44.43843" lon="2.03582">
        <ele>407.4</ele>
        <time>2023-08-20T15:16:03Z</time>
      </trkpt>
      <trkpt lat="44.43843" lon="2.03575">
        <ele>406.8</ele>
        <time>2023-08-20T15:16:04Z</time>
      </trkpt>
      <trkpt lat="44.43843" lon="2.03571">
        <ele>406.6</ele>
        <time>2023-08-20T15:16:05Z</time>
      </trkpt>
      <trkpt lat="44.43843" lon="2.03568">
        <ele>405.8</ele>
        <time>2023-08-20T15:16:06Z</time>
      </trkpt>
      <trkpt lat="44.43843" lon="2.03564">
        <ele>405</ele>
        <time>2023-08-20T15:16:07Z</time>
      </trkpt>
      <trkpt lat="44.43843" lon="2.03561">
        <ele>404.8</ele>
        <time>2023-08-20T15:16:08Z</time>
      </trkpt>
      <trkpt lat="44.43843" lon="2.03557">
        <ele>404</ele>
        <time>2023-08-20T15:16:09Z</time>
      </trkpt>
      <trkpt lat="44.43843" lon="2.03552">
        <ele>403.8</ele>
        <time>2023-08-20T15:16:10Z</time>
      </trkpt>
      <trkpt lat="44.43842" lon="2.03548">
        <ele>403.4</ele>
        <time>2023-08-20T15:16:11Z</time>
      </trkpt>
      <trkpt lat="44.4384" lon="2.03544">
        <ele>403</ele>
        <time>2023-08-20T15:16:12Z</time>
      </trkpt>
      <trkpt lat="44.43838" lon="2.03541">
        <ele>402.8</ele>
        <time>2023-08-20T15:16:13Z</time>
      </trkpt>
      <trkpt lat="44.43835" lon="2.03537">
        <ele>402.8</ele>
        <time>2023-08-20T15:16:14Z</time>
      </trkpt>
      <trkpt lat="44.43832" lon="2.03533">
        <ele>402.4</ele>
        <time>2023-08-20T15:16:15Z</time>
      </trkpt>
      <trkpt lat="44.4383" lon="2.03527">
        <ele>402.2</ele>
        <time>2023-08-20T15:16:16Z</time>
      </trkpt>
      <trkpt lat="44.43827" lon="2.0352">
        <ele>402.2</ele>
        <time>2023-08-20T15:16:17Z</time>
      </trkpt>
      <trkpt lat="44.43813" lon="2.03477">
        <ele>401.8</ele>
        <time>2023-08-20T15:16:22Z</time>
      </trkpt>
      <trkpt lat="44.43795" lon="2.03425">
        <ele>402</ele>
        <time>2023-08-20T15:16:27Z</time>
      </trkpt>
      <trkpt lat="44.43792" lon="2.03417">
        <ele>402</ele>
        <time>2023-08-20T15:16:28Z</time>
      </trkpt>
      <trkpt lat="44.4379" lon="2.03411">
        <ele>402</ele>
        <time>2023-08-20T15:16:29Z</time>
      </trkpt>
      <trkpt lat="44.43788" lon="2.03406">
        <ele>402</ele>
        <time>2023-08-20T15:16:30Z</time>
      </trkpt>
      <trkpt lat="44.43786" lon="2.03401">
        <ele>402</ele>
        <time>2023-08-20T15:16:31Z</time>
      </trkpt>
      <trkpt lat="44.43785" lon="2.03398">
        <ele>402</ele>
        <time>2023-08-20T15:16:32Z</time>
      </trkpt>
      <trkpt lat="44.43783" lon="2.03393">
        <ele>402.2</ele>
        <time>2023-08-20T15:16:33Z</time>
      </trkpt>
      <trkpt lat="44.43782" lon="2.03389">
        <ele>402</ele>
        <time>2023-08-20T15:16:34Z</time>
      </trkpt>
      <trkpt lat="44.4378" lon="2.03385">
        <ele>402</ele>
        <time>2023-08-20T15:16:35Z</time>
      </trkpt>
      <trkpt lat="44.4378" lon="2.03383">
        <ele>402</ele>
        <time>2023-08-20T15:16:36Z</time>
      </trkpt>
      <trkpt lat="44.4378" lon="2.03381">
        <ele>402</ele>
        <time>2023-08-20T15:16:37Z</time>
      </trkpt>
      <trkpt lat="44.4378" lon="2.0338">
        <ele>402</ele>
        <time>2023-08-20T15:16:38Z</time>
      </trkpt>
      <trkpt lat="44.43779" lon="2.03377">
        <ele>402</ele>
        <time>2023-08-20T15:16:39Z</time>
      </trkpt>
      <trkpt lat="44.43779" lon="2.03375">
        <ele>401.8</ele>
        <time>2023-08-20T15:16:40Z</time>
      </trkpt>
      <trkpt lat="44.43779" lon="2.03368">
        <ele>401.8</ele>
        <time>2023-08-20T15:16:42Z</time>
      </trkpt>
      <trkpt lat="44.4378" lon="2.03365">
        <ele>401.8</ele>
        <time>2023-08-20T15:16:43Z</time>
      </trkpt>
      <trkpt lat="44.43781" lon="2.03363">
        <ele>401.8</ele>
        <time>2023-08-20T15:16:44Z</time>
      </trkpt>
      <trkpt lat="44.43782" lon="2.03361">
        <ele>401.8</ele>
        <time>2023-08-20T15:16:45Z</time>
      </trkpt>
      <trkpt lat="44.43782" lon="2.03359">
        <ele>401.8</ele>
        <time>2023-08-20T15:16:46Z</time>
      </trkpt>
      <trkpt lat="44.43782" lon="2.03356">
        <ele>402</ele>
        <time>2023-08-20T15:16:47Z</time>
      </trkpt>
      <trkpt lat="44.43782" lon="2.03353">
        <ele>402</ele>
        <time>2023-08-20T15:16:48Z</time>
      </trkpt>
      <trkpt lat="44.43782" lon="2.03349">
        <ele>402</ele>
        <time>2023-08-20T15:16:49Z</time>
      </trkpt>
      <trkpt lat="44.43783" lon="2.03346">
        <ele>402</ele>
        <time>2023-08-20T15:16:50Z</time>
      </trkpt>
      <trkpt lat="44.43785" lon="2.03342">
        <ele>402</ele>
        <time>2023-08-20T15:16:52Z</time>
      </trkpt>
      <trkpt lat="44.43784" lon="2.0334">
        <ele>402</ele>
        <time>2023-08-20T15:16:53Z</time>
      </trkpt>
      <trkpt lat="44.43783" lon="2.03339">
        <ele>402</ele>
        <time>2023-08-20T15:16:54Z</time>
      </trkpt>
      <trkpt lat="44.43781" lon="2.0334">
        <ele>402</ele>
        <time>2023-08-20T15:16:55Z</time>
      </trkpt>
      <trkpt lat="44.43778" lon="2.03343">
        <ele>402</ele>
        <time>2023-08-20T15:16:57Z</time>
      </trkpt>
      <trkpt lat="44.43778" lon="2.03347">
        <ele>402</ele>
        <time>2023-08-20T15:16:59Z</time>
      </trkpt>
      <trkpt lat="44.43778" lon="2.03347">
        <ele>402</ele>
        <time>2023-08-20T15:17:00Z</time>
      </trkpt>
      <trkpt lat="44.43778" lon="2.03347">
        <ele>401.8</ele>
        <time>2023-08-20T15:17:01Z</time>
      </trkpt>
      <trkpt lat="44.43794" lon="2.03345">
        <ele>403</ele>
        <time>2023-08-20T15:27:59Z</time>
      </trkpt>
      <trkpt lat="44.43792" lon="2.03349">
        <ele>403</ele>
        <time>2023-08-20T15:28:00Z</time>
      </trkpt>
      <trkpt lat="44.43792" lon="2.03349">
        <ele>403</ele>
        <time>2023-08-20T15:28:02Z</time>
      </trkpt>
      <trkpt lat="44.43792" lon="2.03353">
        <ele>402.4</ele>
        <time>2023-08-20T15:28:25Z</time>
      </trkpt>
      <trkpt lat="44.43795" lon="2.03352">
        <ele>402.4</ele>
        <time>2023-08-20T15:28:26Z</time>
      </trkpt>
      <trkpt lat="44.43806" lon="2.03336">
        <ele>402.4</ele>
        <time>2023-08-20T15:28:29Z</time>
      </trkpt>
      <trkpt lat="44.43815" lon="2.03318">
        <ele>402.4</ele>
        <time>2023-08-20T15:28:31Z</time>
      </trkpt>
      <trkpt lat="44.43819" lon="2.03305">
        <ele>402.6</ele>
        <time>2023-08-20T15:28:32Z</time>
      </trkpt>
      <trkpt lat="44.4382" lon="2.03291">
        <ele>402.6</ele>
        <time>2023-08-20T15:28:33Z</time>
      </trkpt>
      <trkpt lat="44.43819" lon="2.03277">
        <ele>402.8</ele>
        <time>2023-08-20T15:28:34Z</time>
      </trkpt>
      <trkpt lat="44.43817" lon="2.03262">
        <ele>403.2</ele>
        <time>2023-08-20T15:28:35Z</time>
      </trkpt>
      <trkpt lat="44.43817" lon="2.03262">
        <ele>403.2</ele>
        <time>2023-08-20T15:28:36Z</time>
      </trkpt>
      <trkpt lat="44.43816" lon="2.03252">
        <ele>403.4</ele>
        <time>2023-08-20T15:28:37Z</time>
      </trkpt>
      <trkpt lat="44.43815" lon="2.03228">
        <ele>403.4</ele>
        <time>2023-08-20T15:28:38Z</time>
      </trkpt>
      <trkpt lat="44.43814" lon="2.03213">
        <ele>403.4</ele>
        <time>2023-08-20T15:28:39Z</time>
      </trkpt>
      <trkpt lat="44.43812" lon="2.0318">
        <ele>403.6</ele>
        <time>2023-08-20T15:28:42Z</time>
      </trkpt>
      <trkpt lat="44.4381" lon="2.03103">
        <ele>403.6</ele>
        <time>2023-08-20T15:28:45Z</time>
      </trkpt>
      <trkpt lat="44.4381" lon="2.03103">
        <ele>403.6</ele>
        <time>2023-08-20T15:28:46Z</time>
      </trkpt>
      <trkpt lat="44.43808" lon="2.03049">
        <ele>403.8</ele>
        <time>2023-08-20T15:28:48Z</time>
      </trkpt>
      <trkpt lat="44.43806" lon="2.03033">
        <ele>404</ele>
        <time>2023-08-20T15:28:49Z</time>
      </trkpt>
      <trkpt lat="44.43803" lon="2.03018">
        <ele>404</ele>
        <time>2023-08-20T15:28:50Z</time>
      </trkpt>
      <trkpt lat="44.43803" lon="2.03018">
        <ele>404</ele>
        <time>2023-08-20T15:28:51Z</time>
      </trkpt>
      <trkpt lat="44.43792" lon="2.02993">
        <ele>404</ele>
        <time>2023-08-20T15:28:52Z</time>
      </trkpt>
      <trkpt lat="44.43785" lon="2.02983">
        <ele>403.8</ele>
        <time>2023-08-20T15:28:53Z</time>
      </trkpt>
      <trkpt lat="44.43776" lon="2.02975">
        <ele>403.6</ele>
        <time>2023-08-20T15:28:54Z</time>
      </trkpt>
      <trkpt lat="44.43766" lon="2.02968">
        <ele>403.6</ele>
        <time>2023-08-20T15:28:55Z</time>
      </trkpt>
      <trkpt lat="44.43756" lon="2.02962">
        <ele>403.4</ele>
        <time>2023-08-20T15:28:56Z</time>
      </trkpt>
      <trkpt lat="44.43745" lon="2.02958">
        <ele>403.2</ele>
        <time>2023-08-20T15:28:57Z</time>
      </trkpt>
      <trkpt lat="44.43723" lon="2.02958">
        <ele>403</ele>
        <time>2023-08-20T15:28:59Z</time>
      </trkpt>
      <trkpt lat="44.43713" lon="2.02961">
        <ele>402.8</ele>
        <time>2023-08-20T15:29:00Z</time>
      </trkpt>
      <trkpt lat="44.43704" lon="2.02966">
        <ele>402.4</ele>
        <time>2023-08-20T15:29:01Z</time>
      </trkpt>
      <trkpt lat="44.43696" lon="2.02973">
        <ele>402</ele>
        <time>2023-08-20T15:29:02Z</time>
      </trkpt>
      <trkpt lat="44.43696" lon="2.02973">
        <ele>402</ele>
        <time>2023-08-20T15:29:03Z</time>
      </trkpt>
      <trkpt lat="44.43684" lon="2.02989">
        <ele>401.4</ele>
        <time>2023-08-20T15:29:04Z</time>
      </trkpt>
      <trkpt lat="44.43679" lon="2.02997">
        <ele>401.2</ele>
        <time>2023-08-20T15:29:05Z</time>
      </trkpt>
      <trkpt lat="44.43679" lon="2.02997">
        <ele>400.8</ele>
        <time>2023-08-20T15:29:06Z</time>
      </trkpt>
      <trkpt lat="44.43671" lon="2.03013">
        <ele>400.4</ele>
        <time>2023-08-20T15:29:07Z</time>
      </trkpt>
      <trkpt lat="44.43671" lon="2.03013">
        <ele>400.4</ele>
        <time>2023-08-20T15:29:08Z</time>
      </trkpt>
      <trkpt lat="44.43666" lon="2.03021">
        <ele>399.8</ele>
        <time>2023-08-20T15:29:09Z</time>
      </trkpt>
      <trkpt lat="44.43663" lon="2.03025">
        <ele>399.6</ele>
        <time>2023-08-20T15:29:10Z</time>
      </trkpt>
      <trkpt lat="44.4366" lon="2.03032">
        <ele>399</ele>
        <time>2023-08-20T15:29:11Z</time>
      </trkpt>
      <trkpt lat="44.43657" lon="2.03039">
        <ele>398.6</ele>
        <time>2023-08-20T15:29:13Z</time>
      </trkpt>
      <trkpt lat="44.43649" lon="2.03058">
        <ele>398.6</ele>
        <time>2023-08-20T15:29:14Z</time>
      </trkpt>
      <trkpt lat="44.43646" lon="2.03067">
        <ele>398.6</ele>
        <time>2023-08-20T15:29:15Z</time>
      </trkpt>
      <trkpt lat="44.43645" lon="2.03078">
        <ele>398.6</ele>
        <time>2023-08-20T15:29:17Z</time>
      </trkpt>
      <trkpt lat="44.43646" lon="2.03099">
        <ele>398.8</ele>
        <time>2023-08-20T15:29:19Z</time>
      </trkpt>
      <trkpt lat="44.43649" lon="2.03122">
        <ele>399.2</ele>
        <time>2023-08-20T15:29:20Z</time>
      </trkpt>
      <trkpt lat="44.43651" lon="2.03134">
        <ele>399.2</ele>
        <time>2023-08-20T15:29:21Z</time>
      </trkpt>
      <trkpt lat="44.43651" lon="2.03134">
        <ele>399.8</ele>
        <time>2023-08-20T15:29:22Z</time>
      </trkpt>
      <trkpt lat="44.43656" lon="2.03171">
        <ele>401</ele>
        <time>2023-08-20T15:29:25Z</time>
      </trkpt>
      <trkpt lat="44.43661" lon="2.0321">
        <ele>401.8</ele>
        <time>2023-08-20T15:29:28Z</time>
      </trkpt>
      <trkpt lat="44.43663" lon="2.03224">
        <ele>402.4</ele>
        <time>2023-08-20T15:29:29Z</time>
      </trkpt>
      <trkpt lat="44.43668" lon="2.0326">
        <ele>403.4</ele>
        <time>2023-08-20T15:29:31Z</time>
      </trkpt>
      <trkpt lat="44.43669" lon="2.03268">
        <ele>403.6</ele>
        <time>2023-08-20T15:29:32Z</time>
      </trkpt>
      <trkpt lat="44.4367" lon="2.03274">
        <ele>403.6</ele>
        <time>2023-08-20T15:29:33Z</time>
      </trkpt>
      <trkpt lat="44.4367" lon="2.03274">
        <ele>403.6</ele>
        <time>2023-08-20T15:29:34Z</time>
      </trkpt>
      <trkpt lat="44.43673" lon="2.03281">
        <ele>403.8</ele>
        <time>2023-08-20T15:29:35Z</time>
      </trkpt>
      <trkpt lat="44.43676" lon="2.03283">
        <ele>403.8</ele>
        <time>2023-08-20T15:29:36Z</time>
      </trkpt>
      <trkpt lat="44.43679" lon="2.03283">
        <ele>403.8</ele>
        <time>2023-08-20T15:29:37Z</time>
      </trkpt>
      <trkpt lat="44.43679" lon="2.03283">
        <ele>403.8</ele>
        <time>2023-08-20T15:29:38Z</time>
      </trkpt>
      <trkpt lat="44.43684" lon="2.03282">
        <ele>403.8</ele>
        <time>2023-08-20T15:29:39Z</time>
      </trkpt>
      <trkpt lat="44.43694" lon="2.03279">
        <ele>403.8</ele>
        <time>2023-08-20T15:29:40Z</time>
      </trkpt>
      <trkpt lat="44.43699" lon="2.03278">
        <ele>403.8</ele>
        <time>2023-08-20T15:29:41Z</time>
      </trkpt>
      <trkpt lat="44.43704" lon="2.03277">
        <ele>403.8</ele>
        <time>2023-08-20T15:29:42Z</time>
      </trkpt>
      <trkpt lat="44.43709" lon="2.03279">
        <ele>403.8</ele>
        <time>2023-08-20T15:29:43Z</time>
      </trkpt>
      <trkpt lat="44.43709" lon="2.03279">
        <ele>403.6</ele>
        <time>2023-08-20T15:29:44Z</time>
      </trkpt>
      <trkpt lat="44.43713" lon="2.03281">
        <ele>403.6</ele>
        <time>2023-08-20T15:29:45Z</time>
      </trkpt>
      <trkpt lat="44.4372" lon="2.03288">
        <ele>403.6</ele>
        <time>2023-08-20T15:29:46Z</time>
      </trkpt>
      <trkpt lat="44.43723" lon="2.03292">
        <ele>403.4</ele>
        <time>2023-08-20T15:29:47Z</time>
      </trkpt>
      <trkpt lat="44.43726" lon="2.03296">
        <ele>403.4</ele>
        <time>2023-08-20T15:29:48Z</time>
      </trkpt>
      <trkpt lat="44.43728" lon="2.03299">
        <ele>403.4</ele>
        <time>2023-08-20T15:29:49Z</time>
      </trkpt>
      <trkpt lat="44.43728" lon="2.03299">
        <ele>403.2</ele>
        <time>2023-08-20T15:29:50Z</time>
      </trkpt>
      <trkpt lat="44.43735" lon="2.03305">
        <ele>403.2</ele>
        <time>2023-08-20T15:29:51Z</time>
      </trkpt>
      <trkpt lat="44.43737" lon="2.03307">
        <ele>403</ele>
        <time>2023-08-20T15:29:52Z</time>
      </trkpt>
      <trkpt lat="44.4374" lon="2.03307">
        <ele>403</ele>
        <time>2023-08-20T15:29:53Z</time>
      </trkpt>
      <trkpt lat="44.43742" lon="2.03306">
        <ele>402.8</ele>
        <time>2023-08-20T15:29:54Z</time>
      </trkpt>
      <trkpt lat="44.43743" lon="2.03303">
        <ele>402.8</ele>
        <time>2023-08-20T15:29:55Z</time>
      </trkpt>
      <trkpt lat="44.43743" lon="2.03299">
        <ele>402.8</ele>
        <time>2023-08-20T15:29:56Z</time>
      </trkpt>
      <trkpt lat="44.43743" lon="2.03295">
        <ele>402.8</ele>
        <time>2023-08-20T15:29:57Z</time>
      </trkpt>
      <trkpt lat="44.43741" lon="2.03286">
        <ele>402.6</ele>
        <time>2023-08-20T15:30:00Z</time>
      </trkpt>
      <trkpt lat="44.43735" lon="2.03283">
        <ele>402.6</ele>
        <time>2023-08-20T15:30:01Z</time>
      </trkpt>
      <trkpt lat="44.4373" lon="2.03283">
        <ele>402.6</ele>
        <time>2023-08-20T15:30:02Z</time>
      </trkpt>
      <trkpt lat="44.43716" lon="2.03281">
        <ele>402.8</ele>
        <time>2023-08-20T15:30:04Z</time>
      </trkpt>
      <trkpt lat="44.43708" lon="2.03279">
        <ele>403</ele>
        <time>2023-08-20T15:30:05Z</time>
      </trkpt>
      <trkpt lat="44.437" lon="2.03278">
        <ele>403</ele>
        <time>2023-08-20T15:30:06Z</time>
      </trkpt>
      <trkpt lat="44.43679" lon="2.03276">
        <ele>403.8</ele>
        <time>2023-08-20T15:30:09Z</time>
      </trkpt>
      <trkpt lat="44.43675" lon="2.03275">
        <ele>403.8</ele>
        <time>2023-08-20T15:30:10Z</time>
      </trkpt>
      <trkpt lat="44.43671" lon="2.03275">
        <ele>404</ele>
        <time>2023-08-20T15:30:11Z</time>
      </trkpt>
      <trkpt lat="44.43667" lon="2.03273">
        <ele>404.2</ele>
        <time>2023-08-20T15:30:12Z</time>
      </trkpt>
      <trkpt lat="44.43665" lon="2.03264">
        <ele>404.2</ele>
        <time>2023-08-20T15:30:13Z</time>
      </trkpt>
      <trkpt lat="44.43665" lon="2.03252">
        <ele>404.4</ele>
        <time>2023-08-20T15:30:15Z</time>
      </trkpt>
      <trkpt lat="44.43661" lon="2.03213">
        <ele>404.6</ele>
        <time>2023-08-20T15:30:16Z</time>
      </trkpt>
      <trkpt lat="44.43657" lon="2.03188">
        <ele>404.8</ele>
        <time>2023-08-20T15:30:17Z</time>
      </trkpt>
      <trkpt lat="44.43652" lon="2.03141">
        <ele>406</ele>
        <time>2023-08-20T15:30:19Z</time>
      </trkpt>
      <trkpt lat="44.4365" lon="2.03127">
        <ele>406.4</ele>
        <time>2023-08-20T15:30:20Z</time>
      </trkpt>
      <trkpt lat="44.43646" lon="2.03086">
        <ele>407.2</ele>
        <time>2023-08-20T15:30:23Z</time>
      </trkpt>
      <trkpt lat="44.43645" lon="2.03076">
        <ele>407.2</ele>
        <time>2023-08-20T15:30:24Z</time>
      </trkpt>
      <trkpt lat="44.43647" lon="2.03066">
        <ele>407.2</ele>
        <time>2023-08-20T15:30:25Z</time>
      </trkpt>
      <trkpt lat="44.4365" lon="2.03057">
        <ele>407.2</ele>
        <time>2023-08-20T15:30:26Z</time>
      </trkpt>
      <trkpt lat="44.43654" lon="2.0305">
        <ele>407.2</ele>
        <time>2023-08-20T15:30:27Z</time>
      </trkpt>
      <trkpt lat="44.43657" lon="2.03043">
        <ele>406.6</ele>
        <time>2023-08-20T15:30:28Z</time>
      </trkpt>
      <trkpt lat="44.4366" lon="2.03037">
        <ele>406</ele>
        <time>2023-08-20T15:30:29Z</time>
      </trkpt>
      <trkpt lat="44.43662" lon="2.03034">
        <ele>405</ele>
        <time>2023-08-20T15:30:30Z</time>
      </trkpt>
      <trkpt lat="44.43662" lon="2.0303">
        <ele>404.6</ele>
        <time>2023-08-20T15:30:31Z</time>
      </trkpt>
      <trkpt lat="44.43661" lon="2.03027">
        <ele>403.8</ele>
        <time>2023-08-20T15:30:32Z</time>
      </trkpt>
      <trkpt lat="44.43659" lon="2.03025">
        <ele>403.2</ele>
        <time>2023-08-20T15:30:33Z</time>
      </trkpt>
      <trkpt lat="44.43654" lon="2.03024">
        <ele>402.4</ele>
        <time>2023-08-20T15:30:34Z</time>
      </trkpt>
      <trkpt lat="44.43648" lon="2.03026">
        <ele>401.6</ele>
        <time>2023-08-20T15:30:35Z</time>
      </trkpt>
      <trkpt lat="44.4364" lon="2.03029">
        <ele>401.4</ele>
        <time>2023-08-20T15:30:36Z</time>
      </trkpt>
      <trkpt lat="44.43629" lon="2.03031">
        <ele>400.6</ele>
        <time>2023-08-20T15:30:37Z</time>
      </trkpt>
      <trkpt lat="44.43607" lon="2.03036">
        <ele>400</ele>
        <time>2023-08-20T15:30:39Z</time>
      </trkpt>
      <trkpt lat="44.43577" lon="2.03042">
        <ele>399.6</ele>
        <time>2023-08-20T15:30:42Z</time>
      </trkpt>
      <trkpt lat="44.43572" lon="2.03042">
        <ele>399.4</ele>
        <time>2023-08-20T15:30:43Z</time>
      </trkpt>
      <trkpt lat="44.43568" lon="2.03042">
        <ele>399.4</ele>
        <time>2023-08-20T15:30:44Z</time>
      </trkpt>
      <trkpt lat="44.43566" lon="2.03041">
        <ele>398.8</ele>
        <time>2023-08-20T15:30:45Z</time>
      </trkpt>
      <trkpt lat="44.43565" lon="2.0304">
        <ele>398</ele>
        <time>2023-08-20T15:30:46Z</time>
      </trkpt>
      <trkpt lat="44.43562" lon="2.03039">
        <ele>397.6</ele>
        <time>2023-08-20T15:30:47Z</time>
      </trkpt>
      <trkpt lat="44.43557" lon="2.0304">
        <ele>396.8</ele>
        <time>2023-08-20T15:30:48Z</time>
      </trkpt>
      <trkpt lat="44.43551" lon="2.03043">
        <ele>396.2</ele>
        <time>2023-08-20T15:30:49Z</time>
      </trkpt>
      <trkpt lat="44.4354" lon="2.03049">
        <ele>395.4</ele>
        <time>2023-08-20T15:30:50Z</time>
      </trkpt>
      <trkpt lat="44.43531" lon="2.03054">
        <ele>395.2</ele>
        <time>2023-08-20T15:30:51Z</time>
      </trkpt>
      <trkpt lat="44.43517" lon="2.03061">
        <ele>394.8</ele>
        <time>2023-08-20T15:30:52Z</time>
      </trkpt>
      <trkpt lat="44.43501" lon="2.0307">
        <ele>394.8</ele>
        <time>2023-08-20T15:30:53Z</time>
      </trkpt>
      <trkpt lat="44.43443" lon="2.03097">
        <ele>394.8</ele>
        <time>2023-08-20T15:30:56Z</time>
      </trkpt>
      <trkpt lat="44.43395" lon="2.03117">
        <ele>394.8</ele>
        <time>2023-08-20T15:30:59Z</time>
      </trkpt>
      <trkpt lat="44.43379" lon="2.03124">
        <ele>394.8</ele>
        <time>2023-08-20T15:31:00Z</time>
      </trkpt>
      <trkpt lat="44.43363" lon="2.03131">
        <ele>394.8</ele>
        <time>2023-08-20T15:31:01Z</time>
      </trkpt>
      <trkpt lat="44.43348" lon="2.03137">
        <ele>394.8</ele>
        <time>2023-08-20T15:31:02Z</time>
      </trkpt>
      <trkpt lat="44.43333" lon="2.03143">
        <ele>394.8</ele>
        <time>2023-08-20T15:31:03Z</time>
      </trkpt>
      <trkpt lat="44.43318" lon="2.03148">
        <ele>394.6</ele>
        <time>2023-08-20T15:31:04Z</time>
      </trkpt>
      <trkpt lat="44.43304" lon="2.03154">
        <ele>394.2</ele>
        <time>2023-08-20T15:31:05Z</time>
      </trkpt>
      <trkpt lat="44.4329" lon="2.03159">
        <ele>393.6</ele>
        <time>2023-08-20T15:31:06Z</time>
      </trkpt>
      <trkpt lat="44.4329" lon="2.03159">
        <ele>393.2</ele>
        <time>2023-08-20T15:31:07Z</time>
      </trkpt>
      <trkpt lat="44.43264" lon="2.03168">
        <ele>392.4</ele>
        <time>2023-08-20T15:31:08Z</time>
      </trkpt>
      <trkpt lat="44.4325" lon="2.03172">
        <ele>392.2</ele>
        <time>2023-08-20T15:31:09Z</time>
      </trkpt>
      <trkpt lat="44.43236" lon="2.03177">
        <ele>390.8</ele>
        <time>2023-08-20T15:31:10Z</time>
      </trkpt>
      <trkpt lat="44.43222" lon="2.03182">
        <ele>389.8</ele>
        <time>2023-08-20T15:31:11Z</time>
      </trkpt>
      <trkpt lat="44.43207" lon="2.03188">
        <ele>389.6</ele>
        <time>2023-08-20T15:31:12Z</time>
      </trkpt>
      <trkpt lat="44.43192" lon="2.03195">
        <ele>388.6</ele>
        <time>2023-08-20T15:31:14Z</time>
      </trkpt>
      <trkpt lat="44.43161" lon="2.03216">
        <ele>387.8</ele>
        <time>2023-08-20T15:31:15Z</time>
      </trkpt>
      <trkpt lat="44.43144" lon="2.03232">
        <ele>387.4</ele>
        <time>2023-08-20T15:31:17Z</time>
      </trkpt>
      <trkpt lat="44.43106" lon="2.03275">
        <ele>386.8</ele>
        <time>2023-08-20T15:31:19Z</time>
      </trkpt>
      <trkpt lat="44.43093" lon="2.03293">
        <ele>386.4</ele>
        <time>2023-08-20T15:31:20Z</time>
      </trkpt>
      <trkpt lat="44.43069" lon="2.03333">
        <ele>385.6</ele>
        <time>2023-08-20T15:31:22Z</time>
      </trkpt>
      <trkpt lat="44.43057" lon="2.03354">
        <ele>385.4</ele>
        <time>2023-08-20T15:31:23Z</time>
      </trkpt>
      <trkpt lat="44.43024" lon="2.03424">
        <ele>384.8</ele>
        <time>2023-08-20T15:31:26Z</time>
      </trkpt>
      <trkpt lat="44.43013" lon="2.03449">
        <ele>384.8</ele>
        <time>2023-08-20T15:31:27Z</time>
      </trkpt>
      <trkpt lat="44.42974" lon="2.03533">
        <ele>384.8</ele>
        <time>2023-08-20T15:31:30Z</time>
      </trkpt>
      <trkpt lat="44.42931" lon="2.03625">
        <ele>384.8</ele>
        <time>2023-08-20T15:31:33Z</time>
      </trkpt>
      <trkpt lat="44.42916" lon="2.03656">
        <ele>385.2</ele>
        <time>2023-08-20T15:31:34Z</time>
      </trkpt>
      <trkpt lat="44.42883" lon="2.03717">
        <ele>386</ele>
        <time>2023-08-20T15:31:36Z</time>
      </trkpt>
      <trkpt lat="44.42847" lon="2.03775">
        <ele>386.6</ele>
        <time>2023-08-20T15:31:38Z</time>
      </trkpt>
      <trkpt lat="44.42804" lon="2.03827">
        <ele>386.8</ele>
        <time>2023-08-20T15:31:40Z</time>
      </trkpt>
      <trkpt lat="44.42782" lon="2.03852">
        <ele>386.8</ele>
        <time>2023-08-20T15:31:41Z</time>
      </trkpt>
      <trkpt lat="44.42739" lon="2.039">
        <ele>386.8</ele>
        <time>2023-08-20T15:31:43Z</time>
      </trkpt>
      <trkpt lat="44.42718" lon="2.03922">
        <ele>386.8</ele>
        <time>2023-08-20T15:31:44Z</time>
      </trkpt>
      <trkpt lat="44.42698" lon="2.03944">
        <ele>386.4</ele>
        <time>2023-08-20T15:31:45Z</time>
      </trkpt>
      <trkpt lat="44.42679" lon="2.03966">
        <ele>386.4</ele>
        <time>2023-08-20T15:31:46Z</time>
      </trkpt>
      <trkpt lat="44.42659" lon="2.03987">
        <ele>385.8</ele>
        <time>2023-08-20T15:31:47Z</time>
      </trkpt>
      <trkpt lat="44.4264" lon="2.04008">
        <ele>385.4</ele>
        <time>2023-08-20T15:31:48Z</time>
      </trkpt>
      <trkpt lat="44.42621" lon="2.04029">
        <ele>384.4</ele>
        <time>2023-08-20T15:31:49Z</time>
      </trkpt>
      <trkpt lat="44.42601" lon="2.0405">
        <ele>384</ele>
        <time>2023-08-20T15:31:50Z</time>
      </trkpt>
      <trkpt lat="44.4258" lon="2.0407">
        <ele>383</ele>
        <time>2023-08-20T15:31:51Z</time>
      </trkpt>
      <trkpt lat="44.42536" lon="2.04104">
        <ele>381.8</ele>
        <time>2023-08-20T15:31:53Z</time>
      </trkpt>
      <trkpt lat="44.42513" lon="2.04119">
        <ele>381.6</ele>
        <time>2023-08-20T15:31:54Z</time>
      </trkpt>
      <trkpt lat="44.42443" lon="2.04166">
        <ele>380.8</ele>
        <time>2023-08-20T15:31:57Z</time>
      </trkpt>
      <trkpt lat="44.42374" lon="2.04213">
        <ele>379.8</ele>
        <time>2023-08-20T15:32:00Z</time>
      </trkpt>
      <trkpt lat="44.42351" lon="2.04229">
        <ele>379.4</ele>
        <time>2023-08-20T15:32:01Z</time>
      </trkpt>
      <trkpt lat="44.42328" lon="2.04244">
        <ele>378.4</ele>
        <time>2023-08-20T15:32:02Z</time>
      </trkpt>
      <trkpt lat="44.42306" lon="2.04259">
        <ele>377</ele>
        <time>2023-08-20T15:32:03Z</time>
      </trkpt>
      <trkpt lat="44.42284" lon="2.04273">
        <ele>376.4</ele>
        <time>2023-08-20T15:32:04Z</time>
      </trkpt>
      <trkpt lat="44.42264" lon="2.04288">
        <ele>375.2</ele>
        <time>2023-08-20T15:32:05Z</time>
      </trkpt>
      <trkpt lat="44.42243" lon="2.04302">
        <ele>374.4</ele>
        <time>2023-08-20T15:32:06Z</time>
      </trkpt>
      <trkpt lat="44.42223" lon="2.04316">
        <ele>373.2</ele>
        <time>2023-08-20T15:32:07Z</time>
      </trkpt>
      <trkpt lat="44.42202" lon="2.04329">
        <ele>372.4</ele>
        <time>2023-08-20T15:32:08Z</time>
      </trkpt>
      <trkpt lat="44.42182" lon="2.04343">
        <ele>370.2</ele>
        <time>2023-08-20T15:32:09Z</time>
      </trkpt>
      <trkpt lat="44.42161" lon="2.04356">
        <ele>369.4</ele>
        <time>2023-08-20T15:32:10Z</time>
      </trkpt>
      <trkpt lat="44.42141" lon="2.0437">
        <ele>368</ele>
        <time>2023-08-20T15:32:11Z</time>
      </trkpt>
      <trkpt lat="44.4212" lon="2.04382">
        <ele>367.4</ele>
        <time>2023-08-20T15:32:12Z</time>
      </trkpt>
      <trkpt lat="44.42098" lon="2.04391">
        <ele>366.8</ele>
        <time>2023-08-20T15:32:13Z</time>
      </trkpt>
      <trkpt lat="44.42076" lon="2.04398">
        <ele>365.8</ele>
        <time>2023-08-20T15:32:14Z</time>
      </trkpt>
      <trkpt lat="44.42054" lon="2.04403">
        <ele>365.2</ele>
        <time>2023-08-20T15:32:15Z</time>
      </trkpt>
      <trkpt lat="44.42032" lon="2.04405">
        <ele>364.6</ele>
        <time>2023-08-20T15:32:16Z</time>
      </trkpt>
      <trkpt lat="44.41987" lon="2.04402">
        <ele>363.2</ele>
        <time>2023-08-20T15:32:18Z</time>
      </trkpt>
      <trkpt lat="44.41965" lon="2.04397">
        <ele>362.8</ele>
        <time>2023-08-20T15:32:19Z</time>
      </trkpt>
      <trkpt lat="44.41965" lon="2.04397">
        <ele>362.2</ele>
        <time>2023-08-20T15:32:20Z</time>
      </trkpt>
      <trkpt lat="44.41922" lon="2.04377">
        <ele>361.6</ele>
        <time>2023-08-20T15:32:21Z</time>
      </trkpt>
      <trkpt lat="44.419" lon="2.04365">
        <ele>361.4</ele>
        <time>2023-08-20T15:32:22Z</time>
      </trkpt>
      <trkpt lat="44.41877" lon="2.04353">
        <ele>361.2</ele>
        <time>2023-08-20T15:32:23Z</time>
      </trkpt>
      <trkpt lat="44.41825" lon="2.04327">
        <ele>361.2</ele>
        <time>2023-08-20T15:32:25Z</time>
      </trkpt>
      <trkpt lat="44.41768" lon="2.04296">
        <ele>361.2</ele>
        <time>2023-08-20T15:32:27Z</time>
      </trkpt>
      <trkpt lat="44.41738" lon="2.0428">
        <ele>361.4</ele>
        <time>2023-08-20T15:32:28Z</time>
      </trkpt>
      <trkpt lat="44.41684" lon="2.04248">
        <ele>364.6</ele>
        <time>2023-08-20T15:32:30Z</time>
      </trkpt>
      <trkpt lat="44.4166" lon="2.04233">
        <ele>365.4</ele>
        <time>2023-08-20T15:32:31Z</time>
      </trkpt>
      <trkpt lat="44.4163" lon="2.04216">
        <ele>366.4</ele>
        <time>2023-08-20T15:32:32Z</time>
      </trkpt>
      <trkpt lat="44.41604" lon="2.04203">
        <ele>366.6</ele>
        <time>2023-08-20T15:32:33Z</time>
      </trkpt>
      <trkpt lat="44.41581" lon="2.04191">
        <ele>367.8</ele>
        <time>2023-08-20T15:32:34Z</time>
      </trkpt>
      <trkpt lat="44.41524" lon="2.04159">
        <ele>368.6</ele>
        <time>2023-08-20T15:32:36Z</time>
      </trkpt>
      <trkpt lat="44.41498" lon="2.04145">
        <ele>368.6</ele>
        <time>2023-08-20T15:32:37Z</time>
      </trkpt>
      <trkpt lat="44.41472" lon="2.04133">
        <ele>368.6</ele>
        <time>2023-08-20T15:32:38Z</time>
      </trkpt>
      <trkpt lat="44.41448" lon="2.04123">
        <ele>368.4</ele>
        <time>2023-08-20T15:32:39Z</time>
      </trkpt>
      <trkpt lat="44.41424" lon="2.04115">
        <ele>368.4</ele>
        <time>2023-08-20T15:32:40Z</time>
      </trkpt>
      <trkpt lat="44.41401" lon="2.04109">
        <ele>367.4</ele>
        <time>2023-08-20T15:32:41Z</time>
      </trkpt>
      <trkpt lat="44.41379" lon="2.04102">
        <ele>367.4</ele>
        <time>2023-08-20T15:32:42Z</time>
      </trkpt>
      <trkpt lat="44.41358" lon="2.04096">
        <ele>367.2</ele>
        <time>2023-08-20T15:32:43Z</time>
      </trkpt>
      <trkpt lat="44.41337" lon="2.04089">
        <ele>367</ele>
        <time>2023-08-20T15:32:44Z</time>
      </trkpt>
      <trkpt lat="44.41317" lon="2.04081">
        <ele>366</ele>
        <time>2023-08-20T15:32:45Z</time>
      </trkpt>
      <trkpt lat="44.41297" lon="2.04071">
        <ele>365</ele>
        <time>2023-08-20T15:32:46Z</time>
      </trkpt>
      <trkpt lat="44.41277" lon="2.04061">
        <ele>363.4</ele>
        <time>2023-08-20T15:32:47Z</time>
      </trkpt>
      <trkpt lat="44.41258" lon="2.04051">
        <ele>362</ele>
        <time>2023-08-20T15:32:48Z</time>
      </trkpt>
      <trkpt lat="44.4124" lon="2.0404">
        <ele>361.2</ele>
        <time>2023-08-20T15:32:49Z</time>
      </trkpt>
      <trkpt lat="44.41222" lon="2.0403">
        <ele>360.6</ele>
        <time>2023-08-20T15:32:50Z</time>
      </trkpt>
      <trkpt lat="44.41205" lon="2.04021">
        <ele>360</ele>
        <time>2023-08-20T15:32:51Z</time>
      </trkpt>
      <trkpt lat="44.41188" lon="2.04012">
        <ele>359.2</ele>
        <time>2023-08-20T15:32:52Z</time>
      </trkpt>
      <trkpt lat="44.41172" lon="2.04003">
        <ele>359</ele>
        <time>2023-08-20T15:32:53Z</time>
      </trkpt>
      <trkpt lat="44.41156" lon="2.03996">
        <ele>358.2</ele>
        <time>2023-08-20T15:32:54Z</time>
      </trkpt>
      <trkpt lat="44.41139" lon="2.0399">
        <ele>358</ele>
        <time>2023-08-20T15:32:55Z</time>
      </trkpt>
      <trkpt lat="44.4112" lon="2.03986">
        <ele>357</ele>
        <time>2023-08-20T15:32:56Z</time>
      </trkpt>
      <trkpt lat="44.411" lon="2.03986">
        <ele>356</ele>
        <time>2023-08-20T15:32:57Z</time>
      </trkpt>
      <trkpt lat="44.41059" lon="2.03993">
        <ele>354.8</ele>
        <time>2023-08-20T15:32:59Z</time>
      </trkpt>
      <trkpt lat="44.41034" lon="2.04001">
        <ele>354.6</ele>
        <time>2023-08-20T15:33:00Z</time>
      </trkpt>
      <trkpt lat="44.40977" lon="2.04016">
        <ele>353.8</ele>
        <time>2023-08-20T15:33:03Z</time>
      </trkpt>
      <trkpt lat="44.40957" lon="2.04016">
        <ele>353.6</ele>
        <time>2023-08-20T15:33:04Z</time>
      </trkpt>
      <trkpt lat="44.40911" lon="2.04008">
        <ele>352.2</ele>
        <time>2023-08-20T15:33:06Z</time>
      </trkpt>
      <trkpt lat="44.40892" lon="2.04001">
        <ele>352</ele>
        <time>2023-08-20T15:33:07Z</time>
      </trkpt>
      <trkpt lat="44.40839" lon="2.03982">
        <ele>351.8</ele>
        <time>2023-08-20T15:33:09Z</time>
      </trkpt>
      <trkpt lat="44.40806" lon="2.03969">
        <ele>351.6</ele>
        <time>2023-08-20T15:33:10Z</time>
      </trkpt>
      <trkpt lat="44.40731" lon="2.03935">
        <ele>352.4</ele>
        <time>2023-08-20T15:33:13Z</time>
      </trkpt>
      <trkpt lat="44.40707" lon="2.03923">
        <ele>353.2</ele>
        <time>2023-08-20T15:33:14Z</time>
      </trkpt>
      <trkpt lat="44.40679" lon="2.03909">
        <ele>354</ele>
        <time>2023-08-20T15:33:15Z</time>
      </trkpt>
      <trkpt lat="44.40657" lon="2.03898">
        <ele>354</ele>
        <time>2023-08-20T15:33:16Z</time>
      </trkpt>
      <trkpt lat="44.4064" lon="2.03892">
        <ele>354.4</ele>
        <time>2023-08-20T15:33:17Z</time>
      </trkpt>
      <trkpt lat="44.40617" lon="2.03885">
        <ele>354.6</ele>
        <time>2023-08-20T15:33:18Z</time>
      </trkpt>
      <trkpt lat="44.40593" lon="2.03881">
        <ele>355.2</ele>
        <time>2023-08-20T15:33:19Z</time>
      </trkpt>
      <trkpt lat="44.40564" lon="2.03879">
        <ele>355.4</ele>
        <time>2023-08-20T15:33:20Z</time>
      </trkpt>
      <trkpt lat="44.40496" lon="2.03875">
        <ele>355.6</ele>
        <time>2023-08-20T15:33:23Z</time>
      </trkpt>
      <trkpt lat="44.4047" lon="2.03872">
        <ele>355.6</ele>
        <time>2023-08-20T15:33:24Z</time>
      </trkpt>
      <trkpt lat="44.40414" lon="2.03855">
        <ele>355.8</ele>
        <time>2023-08-20T15:33:26Z</time>
      </trkpt>
      <trkpt lat="44.40387" lon="2.03846">
        <ele>355.8</ele>
        <time>2023-08-20T15:33:27Z</time>
      </trkpt>
      <trkpt lat="44.40361" lon="2.03839">
        <ele>356.4</ele>
        <time>2023-08-20T15:33:28Z</time>
      </trkpt>
      <trkpt lat="44.40337" lon="2.03837">
        <ele>356.6</ele>
        <time>2023-08-20T15:33:29Z</time>
      </trkpt>
      <trkpt lat="44.40309" lon="2.03837">
        <ele>356.6</ele>
        <time>2023-08-20T15:33:30Z</time>
      </trkpt>
      <trkpt lat="44.40286" lon="2.03843">
        <ele>356.6</ele>
        <time>2023-08-20T15:33:31Z</time>
      </trkpt>
      <trkpt lat="44.40266" lon="2.03853">
        <ele>356.6</ele>
        <time>2023-08-20T15:33:32Z</time>
      </trkpt>
      <trkpt lat="44.40245" lon="2.03865">
        <ele>356.4</ele>
        <time>2023-08-20T15:33:33Z</time>
      </trkpt>
      <trkpt lat="44.40226" lon="2.0388">
        <ele>356.4</ele>
        <time>2023-08-20T15:33:34Z</time>
      </trkpt>
      <trkpt lat="44.40208" lon="2.03897">
        <ele>355.8</ele>
        <time>2023-08-20T15:33:35Z</time>
      </trkpt>
      <trkpt lat="44.40189" lon="2.03913">
        <ele>355</ele>
        <time>2023-08-20T15:33:36Z</time>
      </trkpt>
      <trkpt lat="44.4017" lon="2.03928">
        <ele>353.4</ele>
        <time>2023-08-20T15:33:37Z</time>
      </trkpt>
      <trkpt lat="44.4015" lon="2.03942">
        <ele>352.8</ele>
        <time>2023-08-20T15:33:38Z</time>
      </trkpt>
      <trkpt lat="44.4013" lon="2.03951">
        <ele>352</ele>
        <time>2023-08-20T15:33:39Z</time>
      </trkpt>
      <trkpt lat="44.40109" lon="2.03957">
        <ele>351.2</ele>
        <time>2023-08-20T15:33:40Z</time>
      </trkpt>
      <trkpt lat="44.40088" lon="2.03961">
        <ele>349.8</ele>
        <time>2023-08-20T15:33:41Z</time>
      </trkpt>
      <trkpt lat="44.4007" lon="2.03962">
        <ele>348.2</ele>
        <time>2023-08-20T15:33:42Z</time>
      </trkpt>
      <trkpt lat="44.40047" lon="2.03963">
        <ele>347.4</ele>
        <time>2023-08-20T15:33:43Z</time>
      </trkpt>
      <trkpt lat="44.40024" lon="2.03965">
        <ele>346.2</ele>
        <time>2023-08-20T15:33:44Z</time>
      </trkpt>
      <trkpt lat="44.39976" lon="2.03977">
        <ele>345.2</ele>
        <time>2023-08-20T15:33:46Z</time>
      </trkpt>
      <trkpt lat="44.39959" lon="2.03983">
        <ele>345</ele>
        <time>2023-08-20T15:33:47Z</time>
      </trkpt>
      <trkpt lat="44.39939" lon="2.03992">
        <ele>344.4</ele>
        <time>2023-08-20T15:33:48Z</time>
      </trkpt>
      <trkpt lat="44.39916" lon="2.04006">
        <ele>344</ele>
        <time>2023-08-20T15:33:49Z</time>
      </trkpt>
      <trkpt lat="44.39898" lon="2.04018">
        <ele>343</ele>
        <time>2023-08-20T15:33:50Z</time>
      </trkpt>
      <trkpt lat="44.39883" lon="2.04029">
        <ele>341.4</ele>
        <time>2023-08-20T15:33:51Z</time>
      </trkpt>
      <trkpt lat="44.39847" lon="2.04056">
        <ele>340</ele>
        <time>2023-08-20T15:33:53Z</time>
      </trkpt>
      <trkpt lat="44.3983" lon="2.04069">
        <ele>339.2</ele>
        <time>2023-08-20T15:33:54Z</time>
      </trkpt>
      <trkpt lat="44.39808" lon="2.04083">
        <ele>338.4</ele>
        <time>2023-08-20T15:33:55Z</time>
      </trkpt>
      <trkpt lat="44.39789" lon="2.0409">
        <ele>337.8</ele>
        <time>2023-08-20T15:33:56Z</time>
      </trkpt>
      <trkpt lat="44.3977" lon="2.04094">
        <ele>336.4</ele>
        <time>2023-08-20T15:33:57Z</time>
      </trkpt>
      <trkpt lat="44.39751" lon="2.04096">
        <ele>335.8</ele>
        <time>2023-08-20T15:33:58Z</time>
      </trkpt>
      <trkpt lat="44.39732" lon="2.04097">
        <ele>335.4</ele>
        <time>2023-08-20T15:33:59Z</time>
      </trkpt>
      <trkpt lat="44.39712" lon="2.04095">
        <ele>334.8</ele>
        <time>2023-08-20T15:34:00Z</time>
      </trkpt>
      <trkpt lat="44.39692" lon="2.04083">
        <ele>334.4</ele>
        <time>2023-08-20T15:34:01Z</time>
      </trkpt>
      <trkpt lat="44.39672" lon="2.04071">
        <ele>334</ele>
        <time>2023-08-20T15:34:02Z</time>
      </trkpt>
      <trkpt lat="44.39652" lon="2.0406">
        <ele>333.8</ele>
        <time>2023-08-20T15:34:03Z</time>
      </trkpt>
      <trkpt lat="44.39632" lon="2.0405">
        <ele>333.6</ele>
        <time>2023-08-20T15:34:04Z</time>
      </trkpt>
      <trkpt lat="44.39612" lon="2.04043">
        <ele>333.6</ele>
        <time>2023-08-20T15:34:05Z</time>
      </trkpt>
      <trkpt lat="44.39553" lon="2.04032">
        <ele>332.6</ele>
        <time>2023-08-20T15:34:08Z</time>
      </trkpt>
      <trkpt lat="44.39506" lon="2.04039">
        <ele>331.6</ele>
        <time>2023-08-20T15:34:10Z</time>
      </trkpt>
      <trkpt lat="44.39484" lon="2.04047">
        <ele>331.2</ele>
        <time>2023-08-20T15:34:11Z</time>
      </trkpt>
      <trkpt lat="44.39443" lon="2.04065">
        <ele>330.4</ele>
        <time>2023-08-20T15:34:13Z</time>
      </trkpt>
      <trkpt lat="44.39383" lon="2.04095">
        <ele>329.8</ele>
        <time>2023-08-20T15:34:16Z</time>
      </trkpt>
      <trkpt lat="44.39362" lon="2.04104">
        <ele>329.6</ele>
        <time>2023-08-20T15:34:17Z</time>
      </trkpt>
      <trkpt lat="44.3932" lon="2.04115">
        <ele>328.8</ele>
        <time>2023-08-20T15:34:19Z</time>
      </trkpt>
      <trkpt lat="44.39279" lon="2.04124">
        <ele>328</ele>
        <time>2023-08-20T15:34:21Z</time>
      </trkpt>
      <trkpt lat="44.3926" lon="2.04128">
        <ele>327.2</ele>
        <time>2023-08-20T15:34:22Z</time>
      </trkpt>
      <trkpt lat="44.39243" lon="2.04131">
        <ele>326.6</ele>
        <time>2023-08-20T15:34:23Z</time>
      </trkpt>
      <trkpt lat="44.39227" lon="2.04133">
        <ele>326</ele>
        <time>2023-08-20T15:34:24Z</time>
      </trkpt>
      <trkpt lat="44.39212" lon="2.04135">
        <ele>325.4</ele>
        <time>2023-08-20T15:34:25Z</time>
      </trkpt>
      <trkpt lat="44.39199" lon="2.04135">
        <ele>323.8</ele>
        <time>2023-08-20T15:34:26Z</time>
      </trkpt>
      <trkpt lat="44.39186" lon="2.04133">
        <ele>322</ele>
        <time>2023-08-20T15:34:27Z</time>
      </trkpt>
      <trkpt lat="44.39176" lon="2.0413">
        <ele>321.2</ele>
        <time>2023-08-20T15:34:28Z</time>
      </trkpt>
      <trkpt lat="44.39168" lon="2.04124">
        <ele>319</ele>
        <time>2023-08-20T15:34:29Z</time>
      </trkpt>
      <trkpt lat="44.39163" lon="2.04116">
        <ele>318.4</ele>
        <time>2023-08-20T15:34:30Z</time>
      </trkpt>
      <trkpt lat="44.39158" lon="2.04107">
        <ele>316</ele>
        <time>2023-08-20T15:34:31Z</time>
      </trkpt>
      <trkpt lat="44.39153" lon="2.04098">
        <ele>315</ele>
        <time>2023-08-20T15:34:32Z</time>
      </trkpt>
      <trkpt lat="44.39146" lon="2.04092">
        <ele>313</ele>
        <time>2023-08-20T15:34:33Z</time>
      </trkpt>
      <trkpt lat="44.39138" lon="2.0409">
        <ele>312.4</ele>
        <time>2023-08-20T15:34:34Z</time>
      </trkpt>
      <trkpt lat="44.39131" lon="2.04091">
        <ele>311</ele>
        <time>2023-08-20T15:34:35Z</time>
      </trkpt>
      <trkpt lat="44.39126" lon="2.04098">
        <ele>310.2</ele>
        <time>2023-08-20T15:34:36Z</time>
      </trkpt>
      <trkpt lat="44.39124" lon="2.0411">
        <ele>309.6</ele>
        <time>2023-08-20T15:34:37Z</time>
      </trkpt>
      <trkpt lat="44.39125" lon="2.04123">
        <ele>308.6</ele>
        <time>2023-08-20T15:34:38Z</time>
      </trkpt>
      <trkpt lat="44.39125" lon="2.04137">
        <ele>308.2</ele>
        <time>2023-08-20T15:34:39Z</time>
      </trkpt>
      <trkpt lat="44.39123" lon="2.0417">
        <ele>308</ele>
        <time>2023-08-20T15:34:41Z</time>
      </trkpt>
      <trkpt lat="44.39105" lon="2.04212">
        <ele>307.8</ele>
        <time>2023-08-20T15:34:44Z</time>
      </trkpt>
      <trkpt lat="44.39095" lon="2.04216">
        <ele>307.8</ele>
        <time>2023-08-20T15:34:45Z</time>
      </trkpt>
      <trkpt lat="44.39083" lon="2.04218">
        <ele>308.2</ele>
        <time>2023-08-20T15:34:46Z</time>
      </trkpt>
      <trkpt lat="44.39073" lon="2.04213">
        <ele>308.4</ele>
        <time>2023-08-20T15:34:47Z</time>
      </trkpt>
      <trkpt lat="44.39061" lon="2.04203">
        <ele>308.6</ele>
        <time>2023-08-20T15:34:48Z</time>
      </trkpt>
      <trkpt lat="44.39047" lon="2.04186">
        <ele>308.8</ele>
        <time>2023-08-20T15:34:49Z</time>
      </trkpt>
      <trkpt lat="44.39033" lon="2.04167">
        <ele>309</ele>
        <time>2023-08-20T15:34:50Z</time>
      </trkpt>
      <trkpt lat="44.39016" lon="2.04148">
        <ele>309.8</ele>
        <time>2023-08-20T15:34:51Z</time>
      </trkpt>
      <trkpt lat="44.39" lon="2.04133">
        <ele>310.2</ele>
        <time>2023-08-20T15:34:52Z</time>
      </trkpt>
      <trkpt lat="44.38979" lon="2.04114">
        <ele>311.2</ele>
        <time>2023-08-20T15:34:53Z</time>
      </trkpt>
      <trkpt lat="44.38951" lon="2.04093">
        <ele>313.4</ele>
        <time>2023-08-20T15:34:54Z</time>
      </trkpt>
      <trkpt lat="44.38924" lon="2.04075">
        <ele>314.2</ele>
        <time>2023-08-20T15:34:55Z</time>
      </trkpt>
      <trkpt lat="44.38895" lon="2.04061">
        <ele>315.6</ele>
        <time>2023-08-20T15:34:56Z</time>
      </trkpt>
      <trkpt lat="44.38871" lon="2.04051">
        <ele>316.2</ele>
        <time>2023-08-20T15:34:57Z</time>
      </trkpt>
      <trkpt lat="44.3884" lon="2.04041">
        <ele>317.6</ele>
        <time>2023-08-20T15:34:58Z</time>
      </trkpt>
      <trkpt lat="44.38804" lon="2.04032">
        <ele>318.8</ele>
        <time>2023-08-20T15:34:59Z</time>
      </trkpt>
      <trkpt lat="44.38776" lon="2.04023">
        <ele>322.4</ele>
        <time>2023-08-20T15:35:00Z</time>
      </trkpt>
      <trkpt lat="44.38748" lon="2.04014">
        <ele>323.2</ele>
        <time>2023-08-20T15:35:01Z</time>
      </trkpt>
      <trkpt lat="44.38748" lon="2.04014">
        <ele>324.2</ele>
        <time>2023-08-20T15:35:02Z</time>
      </trkpt>
      <trkpt lat="44.38701" lon="2.03993">
        <ele>324.6</ele>
        <time>2023-08-20T15:35:03Z</time>
      </trkpt>
      <trkpt lat="44.38671" lon="2.03975">
        <ele>324.6</ele>
        <time>2023-08-20T15:35:04Z</time>
      </trkpt>
      <trkpt lat="44.38652" lon="2.03961">
        <ele>324.8</ele>
        <time>2023-08-20T15:35:05Z</time>
      </trkpt>
      <trkpt lat="44.38624" lon="2.03938">
        <ele>324.8</ele>
        <time>2023-08-20T15:35:06Z</time>
      </trkpt>
      <trkpt lat="44.38606" lon="2.03921">
        <ele>324.6</ele>
        <time>2023-08-20T15:35:07Z</time>
      </trkpt>
      <trkpt lat="44.38585" lon="2.03899">
        <ele>324.6</ele>
        <time>2023-08-20T15:35:08Z</time>
      </trkpt>
      <trkpt lat="44.3856" lon="2.03871">
        <ele>324.2</ele>
        <time>2023-08-20T15:35:09Z</time>
      </trkpt>
      <trkpt lat="44.38541" lon="2.03845">
        <ele>324</ele>
        <time>2023-08-20T15:35:10Z</time>
      </trkpt>
      <trkpt lat="44.38522" lon="2.03818">
        <ele>324</ele>
        <time>2023-08-20T15:35:11Z</time>
      </trkpt>
      <trkpt lat="44.38505" lon="2.03789">
        <ele>324</ele>
        <time>2023-08-20T15:35:12Z</time>
      </trkpt>
      <trkpt lat="44.38488" lon="2.03759">
        <ele>324</ele>
        <time>2023-08-20T15:35:13Z</time>
      </trkpt>
      <trkpt lat="44.38472" lon="2.03727">
        <ele>324</ele>
        <time>2023-08-20T15:35:14Z</time>
      </trkpt>
      <trkpt lat="44.38456" lon="2.03695">
        <ele>324</ele>
        <time>2023-08-20T15:35:15Z</time>
      </trkpt>
      <trkpt lat="44.38441" lon="2.03662">
        <ele>324.6</ele>
        <time>2023-08-20T15:35:16Z</time>
      </trkpt>
      <trkpt lat="44.38426" lon="2.0363">
        <ele>325</ele>
        <time>2023-08-20T15:35:17Z</time>
      </trkpt>
      <trkpt lat="44.3841" lon="2.03598">
        <ele>326</ele>
        <time>2023-08-20T15:35:18Z</time>
      </trkpt>
      <trkpt lat="44.38395" lon="2.03565">
        <ele>326.6</ele>
        <time>2023-08-20T15:35:19Z</time>
      </trkpt>
      <trkpt lat="44.3838" lon="2.03533">
        <ele>328</ele>
        <time>2023-08-20T15:35:20Z</time>
      </trkpt>
      <trkpt lat="44.38365" lon="2.035">
        <ele>329.4</ele>
        <time>2023-08-20T15:35:21Z</time>
      </trkpt>
      <trkpt lat="44.38352" lon="2.03474">
        <ele>330.4</ele>
        <time>2023-08-20T15:35:22Z</time>
      </trkpt>
      <trkpt lat="44.38337" lon="2.03442">
        <ele>332.6</ele>
        <time>2023-08-20T15:35:23Z</time>
      </trkpt>
      <trkpt lat="44.38319" lon="2.03403">
        <ele>333.6</ele>
        <time>2023-08-20T15:35:24Z</time>
      </trkpt>
      <trkpt lat="44.38304" lon="2.03371">
        <ele>335.6</ele>
        <time>2023-08-20T15:35:25Z</time>
      </trkpt>
      <trkpt lat="44.38292" lon="2.03345">
        <ele>336.6</ele>
        <time>2023-08-20T15:35:26Z</time>
      </trkpt>
      <trkpt lat="44.38277" lon="2.03314">
        <ele>338.6</ele>
        <time>2023-08-20T15:35:27Z</time>
      </trkpt>
      <trkpt lat="44.38263" lon="2.03282">
        <ele>339.4</ele>
        <time>2023-08-20T15:35:28Z</time>
      </trkpt>
      <trkpt lat="44.38245" lon="2.03244">
        <ele>341.6</ele>
        <time>2023-08-20T15:35:29Z</time>
      </trkpt>
      <trkpt lat="44.3823" lon="2.03212">
        <ele>343.8</ele>
        <time>2023-08-20T15:35:30Z</time>
      </trkpt>
      <trkpt lat="44.38218" lon="2.03187">
        <ele>345.2</ele>
        <time>2023-08-20T15:35:31Z</time>
      </trkpt>
      <trkpt lat="44.38203" lon="2.03155">
        <ele>348</ele>
        <time>2023-08-20T15:35:32Z</time>
      </trkpt>
      <trkpt lat="44.38188" lon="2.03123">
        <ele>348.8</ele>
        <time>2023-08-20T15:35:33Z</time>
      </trkpt>
      <trkpt lat="44.3817" lon="2.03084">
        <ele>350.2</ele>
        <time>2023-08-20T15:35:34Z</time>
      </trkpt>
      <trkpt lat="44.38155" lon="2.03051">
        <ele>351.8</ele>
        <time>2023-08-20T15:35:35Z</time>
      </trkpt>
      <trkpt lat="44.38144" lon="2.03024">
        <ele>354</ele>
        <time>2023-08-20T15:35:36Z</time>
      </trkpt>
      <trkpt lat="44.38131" lon="2.02989">
        <ele>355.4</ele>
        <time>2023-08-20T15:35:37Z</time>
      </trkpt>
      <trkpt lat="44.3812" lon="2.02954">
        <ele>357.8</ele>
        <time>2023-08-20T15:35:38Z</time>
      </trkpt>
      <trkpt lat="44.38112" lon="2.02917">
        <ele>359.8</ele>
        <time>2023-08-20T15:35:39Z</time>
      </trkpt>
      <trkpt lat="44.38104" lon="2.02873">
        <ele>360.8</ele>
        <time>2023-08-20T15:35:40Z</time>
      </trkpt>
      <trkpt lat="44.38101" lon="2.02842">
        <ele>362.4</ele>
        <time>2023-08-20T15:35:41Z</time>
      </trkpt>
      <trkpt lat="44.38094" lon="2.02766">
        <ele>364.8</ele>
        <time>2023-08-20T15:35:43Z</time>
      </trkpt>
      <trkpt lat="44.38089" lon="2.02721">
        <ele>365.4</ele>
        <time>2023-08-20T15:35:44Z</time>
      </trkpt>
      <trkpt lat="44.38089" lon="2.02721">
        <ele>366.2</ele>
        <time>2023-08-20T15:35:45Z</time>
      </trkpt>
      <trkpt lat="44.38075" lon="2.02662">
        <ele>367.2</ele>
        <time>2023-08-20T15:35:46Z</time>
      </trkpt>
      <trkpt lat="44.38064" lon="2.02631">
        <ele>369</ele>
        <time>2023-08-20T15:35:47Z</time>
      </trkpt>
      <trkpt lat="44.38052" lon="2.02602">
        <ele>370.2</ele>
        <time>2023-08-20T15:35:48Z</time>
      </trkpt>
      <trkpt lat="44.38033" lon="2.0257">
        <ele>370.6</ele>
        <time>2023-08-20T15:35:49Z</time>
      </trkpt>
      <trkpt lat="44.38015" lon="2.02546">
        <ele>371</ele>
        <time>2023-08-20T15:35:50Z</time>
      </trkpt>
      <trkpt lat="44.38" lon="2.02529">
        <ele>371.2</ele>
        <time>2023-08-20T15:35:51Z</time>
      </trkpt>
      <trkpt lat="44.37979" lon="2.0251">
        <ele>371.6</ele>
        <time>2023-08-20T15:35:52Z</time>
      </trkpt>
      <trkpt lat="44.37931" lon="2.02481">
        <ele>372.4</ele>
        <time>2023-08-20T15:35:54Z</time>
      </trkpt>
      <trkpt lat="44.37909" lon="2.02471">
        <ele>372.8</ele>
        <time>2023-08-20T15:35:55Z</time>
      </trkpt>
      <trkpt lat="44.37887" lon="2.02461">
        <ele>373</ele>
        <time>2023-08-20T15:35:56Z</time>
      </trkpt>
      <trkpt lat="44.3787" lon="2.02453">
        <ele>373</ele>
        <time>2023-08-20T15:35:57Z</time>
      </trkpt>
      <trkpt lat="44.3787" lon="2.02453">
        <ele>373</ele>
        <time>2023-08-20T15:35:58Z</time>
      </trkpt>
      <trkpt lat="44.37825" lon="2.02423">
        <ele>373</ele>
        <time>2023-08-20T15:35:59Z</time>
      </trkpt>
      <trkpt lat="44.37806" lon="2.02406">
        <ele>372.8</ele>
        <time>2023-08-20T15:36:00Z</time>
      </trkpt>
      <trkpt lat="44.37789" lon="2.02386">
        <ele>372.4</ele>
        <time>2023-08-20T15:36:01Z</time>
      </trkpt>
      <trkpt lat="44.37776" lon="2.02369">
        <ele>372.2</ele>
        <time>2023-08-20T15:36:02Z</time>
      </trkpt>
      <trkpt lat="44.37761" lon="2.02347">
        <ele>371.6</ele>
        <time>2023-08-20T15:36:03Z</time>
      </trkpt>
      <trkpt lat="44.37744" lon="2.02319">
        <ele>371.4</ele>
        <time>2023-08-20T15:36:04Z</time>
      </trkpt>
      <trkpt lat="44.3773" lon="2.02296">
        <ele>370.8</ele>
        <time>2023-08-20T15:36:05Z</time>
      </trkpt>
      <trkpt lat="44.37719" lon="2.02278">
        <ele>370.2</ele>
        <time>2023-08-20T15:36:06Z</time>
      </trkpt>
      <trkpt lat="44.37705" lon="2.02254">
        <ele>370</ele>
        <time>2023-08-20T15:36:07Z</time>
      </trkpt>
      <trkpt lat="44.37691" lon="2.0223">
        <ele>369.2</ele>
        <time>2023-08-20T15:36:08Z</time>
      </trkpt>
      <trkpt lat="44.37672" lon="2.02199">
        <ele>369</ele>
        <time>2023-08-20T15:36:09Z</time>
      </trkpt>
      <trkpt lat="44.37655" lon="2.02172">
        <ele>368.8</ele>
        <time>2023-08-20T15:36:10Z</time>
      </trkpt>
      <trkpt lat="44.37641" lon="2.02148">
        <ele>368.8</ele>
        <time>2023-08-20T15:36:11Z</time>
      </trkpt>
      <trkpt lat="44.37625" lon="2.02117">
        <ele>368.8</ele>
        <time>2023-08-20T15:36:12Z</time>
      </trkpt>
      <trkpt lat="44.37609" lon="2.02087">
        <ele>368.8</ele>
        <time>2023-08-20T15:36:13Z</time>
      </trkpt>
      <trkpt lat="44.37593" lon="2.02058">
        <ele>368.6</ele>
        <time>2023-08-20T15:36:14Z</time>
      </trkpt>
      <trkpt lat="44.37576" lon="2.02022">
        <ele>368.4</ele>
        <time>2023-08-20T15:36:15Z</time>
      </trkpt>
      <trkpt lat="44.37565" lon="2.01997">
        <ele>368.4</ele>
        <time>2023-08-20T15:36:16Z</time>
      </trkpt>
      <trkpt lat="44.37552" lon="2.01965">
        <ele>368.2</ele>
        <time>2023-08-20T15:36:17Z</time>
      </trkpt>
      <trkpt lat="44.37541" lon="2.01933">
        <ele>368</ele>
        <time>2023-08-20T15:36:18Z</time>
      </trkpt>
      <trkpt lat="44.37523" lon="2.01865">
        <ele>367.8</ele>
        <time>2023-08-20T15:36:20Z</time>
      </trkpt>
      <trkpt lat="44.37517" lon="2.0183">
        <ele>366.2</ele>
        <time>2023-08-20T15:36:21Z</time>
      </trkpt>
      <trkpt lat="44.37506" lon="2.01758">
        <ele>363.2</ele>
        <time>2023-08-20T15:36:23Z</time>
      </trkpt>
      <trkpt lat="44.37501" lon="2.01713">
        <ele>361</ele>
        <time>2023-08-20T15:36:24Z</time>
      </trkpt>
      <trkpt lat="44.37497" lon="2.01676">
        <ele>360.4</ele>
        <time>2023-08-20T15:36:25Z</time>
      </trkpt>
      <trkpt lat="44.37493" lon="2.01639">
        <ele>359</ele>
        <time>2023-08-20T15:36:26Z</time>
      </trkpt>
      <trkpt lat="44.37485" lon="2.01564">
        <ele>356.8</ele>
        <time>2023-08-20T15:36:28Z</time>
      </trkpt>
      <trkpt lat="44.37476" lon="2.01486">
        <ele>354.4</ele>
        <time>2023-08-20T15:36:30Z</time>
      </trkpt>
      <trkpt lat="44.37471" lon="2.01446">
        <ele>353.4</ele>
        <time>2023-08-20T15:36:31Z</time>
      </trkpt>
      <trkpt lat="44.37467" lon="2.01406">
        <ele>351.8</ele>
        <time>2023-08-20T15:36:32Z</time>
      </trkpt>
      <trkpt lat="44.37462" lon="2.01364">
        <ele>349.4</ele>
        <time>2023-08-20T15:36:33Z</time>
      </trkpt>
      <trkpt lat="44.37452" lon="2.0128">
        <ele>346.6</ele>
        <time>2023-08-20T15:36:35Z</time>
      </trkpt>
      <trkpt lat="44.37447" lon="2.01237">
        <ele>345.4</ele>
        <time>2023-08-20T15:36:36Z</time>
      </trkpt>
      <trkpt lat="44.37442" lon="2.01194">
        <ele>344</ele>
        <time>2023-08-20T15:36:37Z</time>
      </trkpt>
      <trkpt lat="44.37433" lon="2.01109">
        <ele>342</ele>
        <time>2023-08-20T15:36:39Z</time>
      </trkpt>
      <trkpt lat="44.37424" lon="2.01027">
        <ele>340.4</ele>
        <time>2023-08-20T15:36:41Z</time>
      </trkpt>
      <trkpt lat="44.3742" lon="2.00987">
        <ele>340</ele>
        <time>2023-08-20T15:36:42Z</time>
      </trkpt>
      <trkpt lat="44.37415" lon="2.00948">
        <ele>340</ele>
        <time>2023-08-20T15:36:43Z</time>
      </trkpt>
      <trkpt lat="44.37411" lon="2.00909">
        <ele>340</ele>
        <time>2023-08-20T15:36:44Z</time>
      </trkpt>
      <trkpt lat="44.37407" lon="2.00871">
        <ele>340</ele>
        <time>2023-08-20T15:36:45Z</time>
      </trkpt>
      <trkpt lat="44.37403" lon="2.00833">
        <ele>340</ele>
        <time>2023-08-20T15:36:46Z</time>
      </trkpt>
      <trkpt lat="44.37398" lon="2.00794">
        <ele>340.2</ele>
        <time>2023-08-20T15:36:47Z</time>
      </trkpt>
      <trkpt lat="44.37394" lon="2.00756">
        <ele>342.8</ele>
        <time>2023-08-20T15:36:48Z</time>
      </trkpt>
      <trkpt lat="44.3739" lon="2.00717">
        <ele>344.6</ele>
        <time>2023-08-20T15:36:49Z</time>
      </trkpt>
      <trkpt lat="44.37385" lon="2.00678">
        <ele>346.4</ele>
        <time>2023-08-20T15:36:50Z</time>
      </trkpt>
      <trkpt lat="44.37381" lon="2.00639">
        <ele>348.4</ele>
        <time>2023-08-20T15:36:51Z</time>
      </trkpt>
      <trkpt lat="44.37371" lon="2.0056">
        <ele>350.2</ele>
        <time>2023-08-20T15:36:53Z</time>
      </trkpt>
      <trkpt lat="44.37363" lon="2.00481">
        <ele>352.4</ele>
        <time>2023-08-20T15:36:55Z</time>
      </trkpt>
      <trkpt lat="44.37354" lon="2.00403">
        <ele>354.6</ele>
        <time>2023-08-20T15:36:57Z</time>
      </trkpt>
      <trkpt lat="44.3735" lon="2.00365">
        <ele>357</ele>
        <time>2023-08-20T15:36:58Z</time>
      </trkpt>
      <trkpt lat="44.37341" lon="2.00288">
        <ele>359</ele>
        <time>2023-08-20T15:37:00Z</time>
      </trkpt>
      <trkpt lat="44.37338" lon="2.00258">
        <ele>360.2</ele>
        <time>2023-08-20T15:37:01Z</time>
      </trkpt>
      <trkpt lat="44.37333" lon="2.0022">
        <ele>362</ele>
        <time>2023-08-20T15:37:02Z</time>
      </trkpt>
      <trkpt lat="44.37329" lon="2.00183">
        <ele>362.6</ele>
        <time>2023-08-20T15:37:03Z</time>
      </trkpt>
      <trkpt lat="44.37322" lon="2.00139">
        <ele>364.4</ele>
        <time>2023-08-20T15:37:04Z</time>
      </trkpt>
      <trkpt lat="44.37315" lon="2.00103">
        <ele>365.2</ele>
        <time>2023-08-20T15:37:05Z</time>
      </trkpt>
      <trkpt lat="44.37306" lon="2.00067">
        <ele>366.4</ele>
        <time>2023-08-20T15:37:06Z</time>
      </trkpt>
      <trkpt lat="44.37297" lon="2.00039">
        <ele>368.8</ele>
        <time>2023-08-20T15:37:07Z</time>
      </trkpt>
      <trkpt lat="44.37283" lon="1.99997">
        <ele>369.8</ele>
        <time>2023-08-20T15:37:08Z</time>
      </trkpt>
      <trkpt lat="44.3727" lon="1.99964">
        <ele>370.6</ele>
        <time>2023-08-20T15:37:09Z</time>
      </trkpt>
      <trkpt lat="44.37255" lon="1.99931">
        <ele>370.8</ele>
        <time>2023-08-20T15:37:10Z</time>
      </trkpt>
      <trkpt lat="44.37241" lon="1.99905">
        <ele>370.8</ele>
        <time>2023-08-20T15:37:11Z</time>
      </trkpt>
      <trkpt lat="44.3722" lon="1.99868">
        <ele>371</ele>
        <time>2023-08-20T15:37:12Z</time>
      </trkpt>
      <trkpt lat="44.37204" lon="1.99844">
        <ele>371</ele>
        <time>2023-08-20T15:37:13Z</time>
      </trkpt>
      <trkpt lat="44.3718" lon="1.99809">
        <ele>371</ele>
        <time>2023-08-20T15:37:14Z</time>
      </trkpt>
      <trkpt lat="44.37158" lon="1.99781">
        <ele>371</ele>
        <time>2023-08-20T15:37:15Z</time>
      </trkpt>
      <trkpt lat="44.37136" lon="1.99754">
        <ele>371</ele>
        <time>2023-08-20T15:37:16Z</time>
      </trkpt>
      <trkpt lat="44.37114" lon="1.99725">
        <ele>371</ele>
        <time>2023-08-20T15:37:17Z</time>
      </trkpt>
      <trkpt lat="44.37093" lon="1.99697">
        <ele>371</ele>
        <time>2023-08-20T15:37:18Z</time>
      </trkpt>
      <trkpt lat="44.37071" lon="1.99669">
        <ele>371</ele>
        <time>2023-08-20T15:37:19Z</time>
      </trkpt>
      <trkpt lat="44.37049" lon="1.99642">
        <ele>370.8</ele>
        <time>2023-08-20T15:37:20Z</time>
      </trkpt>
      <trkpt lat="44.37028" lon="1.99614">
        <ele>370.6</ele>
        <time>2023-08-20T15:37:21Z</time>
      </trkpt>
      <trkpt lat="44.37006" lon="1.99587">
        <ele>370.4</ele>
        <time>2023-08-20T15:37:22Z</time>
      </trkpt>
      <trkpt lat="44.36985" lon="1.9956">
        <ele>370.4</ele>
        <time>2023-08-20T15:37:23Z</time>
      </trkpt>
      <trkpt lat="44.36964" lon="1.99534">
        <ele>370.2</ele>
        <time>2023-08-20T15:37:24Z</time>
      </trkpt>
      <trkpt lat="44.36943" lon="1.99507">
        <ele>369.8</ele>
        <time>2023-08-20T15:37:25Z</time>
      </trkpt>
      <trkpt lat="44.36923" lon="1.9948">
        <ele>369.6</ele>
        <time>2023-08-20T15:37:26Z</time>
      </trkpt>
      <trkpt lat="44.36903" lon="1.99454">
        <ele>369.2</ele>
        <time>2023-08-20T15:37:27Z</time>
      </trkpt>
      <trkpt lat="44.36882" lon="1.99427">
        <ele>369.2</ele>
        <time>2023-08-20T15:37:28Z</time>
      </trkpt>
      <trkpt lat="44.36862" lon="1.99401">
        <ele>369.2</ele>
        <time>2023-08-20T15:37:29Z</time>
      </trkpt>
      <trkpt lat="44.36842" lon="1.99375">
        <ele>369</ele>
        <time>2023-08-20T15:37:30Z</time>
      </trkpt>
      <trkpt lat="44.36822" lon="1.99349">
        <ele>369</ele>
        <time>2023-08-20T15:37:31Z</time>
      </trkpt>
      <trkpt lat="44.36802" lon="1.99323">
        <ele>369</ele>
        <time>2023-08-20T15:37:32Z</time>
      </trkpt>
      <trkpt lat="44.36782" lon="1.99298">
        <ele>369</ele>
        <time>2023-08-20T15:37:33Z</time>
      </trkpt>
      <trkpt lat="44.36762" lon="1.99272">
        <ele>369</ele>
        <time>2023-08-20T15:37:34Z</time>
      </trkpt>
      <trkpt lat="44.36742" lon="1.99247">
        <ele>369</ele>
        <time>2023-08-20T15:37:35Z</time>
      </trkpt>
      <trkpt lat="44.36722" lon="1.99221">
        <ele>369</ele>
        <time>2023-08-20T15:37:36Z</time>
      </trkpt>
      <trkpt lat="44.36701" lon="1.99195">
        <ele>369</ele>
        <time>2023-08-20T15:37:37Z</time>
      </trkpt>
      <trkpt lat="44.36681" lon="1.99169">
        <ele>369</ele>
        <time>2023-08-20T15:37:38Z</time>
      </trkpt>
      <trkpt lat="44.3664" lon="1.99116">
        <ele>368.4</ele>
        <time>2023-08-20T15:37:40Z</time>
      </trkpt>
      <trkpt lat="44.3662" lon="1.9909">
        <ele>368</ele>
        <time>2023-08-20T15:37:41Z</time>
      </trkpt>
      <trkpt lat="44.36599" lon="1.99064">
        <ele>367</ele>
        <time>2023-08-20T15:37:42Z</time>
      </trkpt>
      <trkpt lat="44.36558" lon="1.9901">
        <ele>366.4</ele>
        <time>2023-08-20T15:37:44Z</time>
      </trkpt>
      <trkpt lat="44.36515" lon="1.98955">
        <ele>366.4</ele>
        <time>2023-08-20T15:37:46Z</time>
      </trkpt>
      <trkpt lat="44.3647" lon="1.98896">
        <ele>366.4</ele>
        <time>2023-08-20T15:37:48Z</time>
      </trkpt>
      <trkpt lat="44.36446" lon="1.98867">
        <ele>368.4</ele>
        <time>2023-08-20T15:37:49Z</time>
      </trkpt>
      <trkpt lat="44.364" lon="1.98807">
        <ele>371</ele>
        <time>2023-08-20T15:37:51Z</time>
      </trkpt>
      <trkpt lat="44.36377" lon="1.98777">
        <ele>374.4</ele>
        <time>2023-08-20T15:37:52Z</time>
      </trkpt>
      <trkpt lat="44.36355" lon="1.98748">
        <ele>375.8</ele>
        <time>2023-08-20T15:37:53Z</time>
      </trkpt>
      <trkpt lat="44.36333" lon="1.9872">
        <ele>379</ele>
        <time>2023-08-20T15:37:54Z</time>
      </trkpt>
      <trkpt lat="44.36312" lon="1.98693">
        <ele>380.8</ele>
        <time>2023-08-20T15:37:55Z</time>
      </trkpt>
      <trkpt lat="44.3629" lon="1.98668">
        <ele>384.6</ele>
        <time>2023-08-20T15:37:56Z</time>
      </trkpt>
      <trkpt lat="44.36267" lon="1.98644">
        <ele>385.8</ele>
        <time>2023-08-20T15:37:57Z</time>
      </trkpt>
      <trkpt lat="44.36245" lon="1.98622">
        <ele>386.8</ele>
        <time>2023-08-20T15:37:58Z</time>
      </trkpt>
      <trkpt lat="44.36223" lon="1.98602">
        <ele>387</ele>
        <time>2023-08-20T15:37:59Z</time>
      </trkpt>
      <trkpt lat="44.362" lon="1.98585">
        <ele>387.4</ele>
        <time>2023-08-20T15:38:00Z</time>
      </trkpt>
      <trkpt lat="44.36177" lon="1.9857">
        <ele>387.4</ele>
        <time>2023-08-20T15:38:01Z</time>
      </trkpt>
      <trkpt lat="44.36153" lon="1.98557">
        <ele>387.4</ele>
        <time>2023-08-20T15:38:02Z</time>
      </trkpt>
      <trkpt lat="44.3613" lon="1.98545">
        <ele>387</ele>
        <time>2023-08-20T15:38:03Z</time>
      </trkpt>
      <trkpt lat="44.36112" lon="1.98538">
        <ele>386.8</ele>
        <time>2023-08-20T15:38:04Z</time>
      </trkpt>
      <trkpt lat="44.36085" lon="1.98528">
        <ele>385.8</ele>
        <time>2023-08-20T15:38:05Z</time>
      </trkpt>
      <trkpt lat="44.36064" lon="1.9852">
        <ele>385.2</ele>
        <time>2023-08-20T15:38:06Z</time>
      </trkpt>
      <trkpt lat="44.36045" lon="1.98513">
        <ele>383.4</ele>
        <time>2023-08-20T15:38:07Z</time>
      </trkpt>
      <trkpt lat="44.36027" lon="1.98506">
        <ele>382.6</ele>
        <time>2023-08-20T15:38:08Z</time>
      </trkpt>
      <trkpt lat="44.36011" lon="1.985">
        <ele>380.6</ele>
        <time>2023-08-20T15:38:09Z</time>
      </trkpt>
      <trkpt lat="44.36" lon="1.98496">
        <ele>378.4</ele>
        <time>2023-08-20T15:38:10Z</time>
      </trkpt>
      <trkpt lat="44.35988" lon="1.9849">
        <ele>377.4</ele>
        <time>2023-08-20T15:38:11Z</time>
      </trkpt>
      <trkpt lat="44.35976" lon="1.98484">
        <ele>375.2</ele>
        <time>2023-08-20T15:38:12Z</time>
      </trkpt>
      <trkpt lat="44.35967" lon="1.98479">
        <ele>374</ele>
        <time>2023-08-20T15:38:13Z</time>
      </trkpt>
      <trkpt lat="44.3596" lon="1.98473">
        <ele>371.8</ele>
        <time>2023-08-20T15:38:14Z</time>
      </trkpt>
      <trkpt lat="44.35952" lon="1.98468">
        <ele>370.6</ele>
        <time>2023-08-20T15:38:15Z</time>
      </trkpt>
      <trkpt lat="44.35945" lon="1.98464">
        <ele>368.6</ele>
        <time>2023-08-20T15:38:16Z</time>
      </trkpt>
      <trkpt lat="44.35936" lon="1.98463">
        <ele>367.4</ele>
        <time>2023-08-20T15:38:17Z</time>
      </trkpt>
      <trkpt lat="44.35926" lon="1.98464">
        <ele>365.4</ele>
        <time>2023-08-20T15:38:18Z</time>
      </trkpt>
      <trkpt lat="44.35916" lon="1.98463">
        <ele>364</ele>
        <time>2023-08-20T15:38:19Z</time>
      </trkpt>
      <trkpt lat="44.35905" lon="1.98457">
        <ele>363.4</ele>
        <time>2023-08-20T15:38:20Z</time>
      </trkpt>
      <trkpt lat="44.35896" lon="1.98449">
        <ele>362.2</ele>
        <time>2023-08-20T15:38:21Z</time>
      </trkpt>
      <trkpt lat="44.3588" lon="1.98435">
        <ele>362</ele>
        <time>2023-08-20T15:38:22Z</time>
      </trkpt>
      <trkpt lat="44.35865" lon="1.98419">
        <ele>361.6</ele>
        <time>2023-08-20T15:38:23Z</time>
      </trkpt>
      <trkpt lat="44.35848" lon="1.98402">
        <ele>361.4</ele>
        <time>2023-08-20T15:38:24Z</time>
      </trkpt>
      <trkpt lat="44.35791" lon="1.98343">
        <ele>361.4</ele>
        <time>2023-08-20T15:38:27Z</time>
      </trkpt>
      <trkpt lat="44.3573" lon="1.98281">
        <ele>363.2</ele>
        <time>2023-08-20T15:38:30Z</time>
      </trkpt>
      <trkpt lat="44.35709" lon="1.9826">
        <ele>364</ele>
        <time>2023-08-20T15:38:31Z</time>
      </trkpt>
      <trkpt lat="44.35688" lon="1.98239">
        <ele>365.2</ele>
        <time>2023-08-20T15:38:32Z</time>
      </trkpt>
      <trkpt lat="44.35646" lon="1.98195">
        <ele>366.4</ele>
        <time>2023-08-20T15:38:34Z</time>
      </trkpt>
      <trkpt lat="44.35602" lon="1.9815">
        <ele>367.8</ele>
        <time>2023-08-20T15:38:36Z</time>
      </trkpt>
      <trkpt lat="44.35579" lon="1.98127">
        <ele>368.6</ele>
        <time>2023-08-20T15:38:37Z</time>
      </trkpt>
      <trkpt lat="44.35535" lon="1.98082">
        <ele>369.2</ele>
        <time>2023-08-20T15:38:39Z</time>
      </trkpt>
      <trkpt lat="44.35492" lon="1.98039">
        <ele>369.8</ele>
        <time>2023-08-20T15:38:41Z</time>
      </trkpt>
      <trkpt lat="44.35472" lon="1.98018">
        <ele>370</ele>
        <time>2023-08-20T15:38:42Z</time>
      </trkpt>
      <trkpt lat="44.35452" lon="1.97997">
        <ele>370.4</ele>
        <time>2023-08-20T15:38:43Z</time>
      </trkpt>
      <trkpt lat="44.35432" lon="1.97977">
        <ele>370.6</ele>
        <time>2023-08-20T15:38:44Z</time>
      </trkpt>
      <trkpt lat="44.35412" lon="1.97957">
        <ele>371</ele>
        <time>2023-08-20T15:38:45Z</time>
      </trkpt>
      <trkpt lat="44.35393" lon="1.97938">
        <ele>371.4</ele>
        <time>2023-08-20T15:38:46Z</time>
      </trkpt>
      <trkpt lat="44.35375" lon="1.97919">
        <ele>371.8</ele>
        <time>2023-08-20T15:38:47Z</time>
      </trkpt>
      <trkpt lat="44.35357" lon="1.97901">
        <ele>373</ele>
        <time>2023-08-20T15:38:48Z</time>
      </trkpt>
      <trkpt lat="44.35339" lon="1.97882">
        <ele>373.4</ele>
        <time>2023-08-20T15:38:49Z</time>
      </trkpt>
      <trkpt lat="44.35321" lon="1.97864">
        <ele>374.4</ele>
        <time>2023-08-20T15:38:50Z</time>
      </trkpt>
      <trkpt lat="44.35304" lon="1.97846">
        <ele>375</ele>
        <time>2023-08-20T15:38:51Z</time>
      </trkpt>
      <trkpt lat="44.35287" lon="1.97829">
        <ele>376</ele>
        <time>2023-08-20T15:38:52Z</time>
      </trkpt>
      <trkpt lat="44.35269" lon="1.97811">
        <ele>377</ele>
        <time>2023-08-20T15:38:53Z</time>
      </trkpt>
      <trkpt lat="44.35252" lon="1.97793">
        <ele>377.4</ele>
        <time>2023-08-20T15:38:54Z</time>
      </trkpt>
      <trkpt lat="44.35235" lon="1.97774">
        <ele>379</ele>
        <time>2023-08-20T15:38:55Z</time>
      </trkpt>
      <trkpt lat="44.35218" lon="1.97756">
        <ele>379.4</ele>
        <time>2023-08-20T15:38:56Z</time>
      </trkpt>
      <trkpt lat="44.35202" lon="1.97737">
        <ele>380.6</ele>
        <time>2023-08-20T15:38:57Z</time>
      </trkpt>
      <trkpt lat="44.35187" lon="1.97718">
        <ele>381.2</ele>
        <time>2023-08-20T15:38:58Z</time>
      </trkpt>
      <trkpt lat="44.35174" lon="1.97698">
        <ele>382</ele>
        <time>2023-08-20T15:38:59Z</time>
      </trkpt>
      <trkpt lat="44.35162" lon="1.97677">
        <ele>382.6</ele>
        <time>2023-08-20T15:39:00Z</time>
      </trkpt>
      <trkpt lat="44.35151" lon="1.97653">
        <ele>383.6</ele>
        <time>2023-08-20T15:39:01Z</time>
      </trkpt>
      <trkpt lat="44.35142" lon="1.97627">
        <ele>384.2</ele>
        <time>2023-08-20T15:39:02Z</time>
      </trkpt>
      <trkpt lat="44.35133" lon="1.97601">
        <ele>384.4</ele>
        <time>2023-08-20T15:39:03Z</time>
      </trkpt>
      <trkpt lat="44.35124" lon="1.97573">
        <ele>384.8</ele>
        <time>2023-08-20T15:39:04Z</time>
      </trkpt>
      <trkpt lat="44.35116" lon="1.97546">
        <ele>385</ele>
        <time>2023-08-20T15:39:05Z</time>
      </trkpt>
      <trkpt lat="44.35108" lon="1.9752">
        <ele>386</ele>
        <time>2023-08-20T15:39:06Z</time>
      </trkpt>
      <trkpt lat="44.351" lon="1.97493">
        <ele>386.6</ele>
        <time>2023-08-20T15:39:07Z</time>
      </trkpt>
      <trkpt lat="44.35092" lon="1.97467">
        <ele>387.6</ele>
        <time>2023-08-20T15:39:08Z</time>
      </trkpt>
      <trkpt lat="44.35085" lon="1.97441">
        <ele>388</ele>
        <time>2023-08-20T15:39:09Z</time>
      </trkpt>
      <trkpt lat="44.35078" lon="1.97414">
        <ele>389.4</ele>
        <time>2023-08-20T15:39:10Z</time>
      </trkpt>
      <trkpt lat="44.3507" lon="1.97386">
        <ele>390</ele>
        <time>2023-08-20T15:39:11Z</time>
      </trkpt>
      <trkpt lat="44.35062" lon="1.97359">
        <ele>390.2</ele>
        <time>2023-08-20T15:39:12Z</time>
      </trkpt>
      <trkpt lat="44.35055" lon="1.97331">
        <ele>390.4</ele>
        <time>2023-08-20T15:39:13Z</time>
      </trkpt>
      <trkpt lat="44.35048" lon="1.97309">
        <ele>390.4</ele>
        <time>2023-08-20T15:39:14Z</time>
      </trkpt>
      <trkpt lat="44.35039" lon="1.97275">
        <ele>390.4</ele>
        <time>2023-08-20T15:39:15Z</time>
      </trkpt>
      <trkpt lat="44.35031" lon="1.97248">
        <ele>390.4</ele>
        <time>2023-08-20T15:39:16Z</time>
      </trkpt>
      <trkpt lat="44.35023" lon="1.9722">
        <ele>390.4</ele>
        <time>2023-08-20T15:39:17Z</time>
      </trkpt>
      <trkpt lat="44.35016" lon="1.97194">
        <ele>390.4</ele>
        <time>2023-08-20T15:39:18Z</time>
      </trkpt>
      <trkpt lat="44.3501" lon="1.97172">
        <ele>389.6</ele>
        <time>2023-08-20T15:39:19Z</time>
      </trkpt>
      <trkpt lat="44.35001" lon="1.97141">
        <ele>388.4</ele>
        <time>2023-08-20T15:39:20Z</time>
      </trkpt>
      <trkpt lat="44.34994" lon="1.97116">
        <ele>388</ele>
        <time>2023-08-20T15:39:21Z</time>
      </trkpt>
      <trkpt lat="44.34988" lon="1.97093">
        <ele>386.4</ele>
        <time>2023-08-20T15:39:22Z</time>
      </trkpt>
      <trkpt lat="44.34983" lon="1.97073">
        <ele>385.6</ele>
        <time>2023-08-20T15:39:23Z</time>
      </trkpt>
      <trkpt lat="44.34978" lon="1.97054">
        <ele>384.4</ele>
        <time>2023-08-20T15:39:24Z</time>
      </trkpt>
      <trkpt lat="44.34975" lon="1.97036">
        <ele>383.2</ele>
        <time>2023-08-20T15:39:25Z</time>
      </trkpt>
      <trkpt lat="44.34973" lon="1.9702">
        <ele>381</ele>
        <time>2023-08-20T15:39:26Z</time>
      </trkpt>
      <trkpt lat="44.34971" lon="1.97006">
        <ele>380.4</ele>
        <time>2023-08-20T15:39:27Z</time>
      </trkpt>
      <trkpt lat="44.34968" lon="1.96996">
        <ele>378.8</ele>
        <time>2023-08-20T15:39:28Z</time>
      </trkpt>
      <trkpt lat="44.34961" lon="1.96981">
        <ele>377</ele>
        <time>2023-08-20T15:39:29Z</time>
      </trkpt>
      <trkpt lat="44.34953" lon="1.96967">
        <ele>376.2</ele>
        <time>2023-08-20T15:39:30Z</time>
      </trkpt>
      <trkpt lat="44.34944" lon="1.96949">
        <ele>375</ele>
        <time>2023-08-20T15:39:31Z</time>
      </trkpt>
      <trkpt lat="44.34936" lon="1.96925">
        <ele>374.8</ele>
        <time>2023-08-20T15:39:32Z</time>
      </trkpt>
      <trkpt lat="44.3493" lon="1.96902">
        <ele>374.6</ele>
        <time>2023-08-20T15:39:33Z</time>
      </trkpt>
      <trkpt lat="44.34911" lon="1.96831">
        <ele>374.4</ele>
        <time>2023-08-20T15:39:35Z</time>
      </trkpt>
      <trkpt lat="44.34886" lon="1.96741">
        <ele>374.8</ele>
        <time>2023-08-20T15:39:37Z</time>
      </trkpt>
      <trkpt lat="44.34873" lon="1.96697">
        <ele>376.2</ele>
        <time>2023-08-20T15:39:38Z</time>
      </trkpt>
      <trkpt lat="44.34861" lon="1.96653">
        <ele>377.6</ele>
        <time>2023-08-20T15:39:39Z</time>
      </trkpt>
      <trkpt lat="44.34848" lon="1.9661">
        <ele>381.8</ele>
        <time>2023-08-20T15:39:40Z</time>
      </trkpt>
      <trkpt lat="44.34836" lon="1.96567">
        <ele>384</ele>
        <time>2023-08-20T15:39:41Z</time>
      </trkpt>
      <trkpt lat="44.34825" lon="1.96526">
        <ele>387.6</ele>
        <time>2023-08-20T15:39:42Z</time>
      </trkpt>
      <trkpt lat="44.34813" lon="1.96485">
        <ele>388.8</ele>
        <time>2023-08-20T15:39:43Z</time>
      </trkpt>
      <trkpt lat="44.34802" lon="1.96445">
        <ele>391</ele>
        <time>2023-08-20T15:39:44Z</time>
      </trkpt>
      <trkpt lat="44.3479" lon="1.96405">
        <ele>391.6</ele>
        <time>2023-08-20T15:39:45Z</time>
      </trkpt>
      <trkpt lat="44.34779" lon="1.96366">
        <ele>392.6</ele>
        <time>2023-08-20T15:39:46Z</time>
      </trkpt>
      <trkpt lat="44.34768" lon="1.96329">
        <ele>393</ele>
        <time>2023-08-20T15:39:47Z</time>
      </trkpt>
      <trkpt lat="44.34757" lon="1.96292">
        <ele>393.2</ele>
        <time>2023-08-20T15:39:48Z</time>
      </trkpt>
      <trkpt lat="44.34747" lon="1.96255">
        <ele>393.4</ele>
        <time>2023-08-20T15:39:49Z</time>
      </trkpt>
      <trkpt lat="44.34736" lon="1.96218">
        <ele>393.4</ele>
        <time>2023-08-20T15:39:50Z</time>
      </trkpt>
      <trkpt lat="44.34726" lon="1.96182">
        <ele>393.4</ele>
        <time>2023-08-20T15:39:51Z</time>
      </trkpt>
      <trkpt lat="44.34715" lon="1.96145">
        <ele>393.4</ele>
        <time>2023-08-20T15:39:52Z</time>
      </trkpt>
      <trkpt lat="44.34705" lon="1.96108">
        <ele>393.2</ele>
        <time>2023-08-20T15:39:53Z</time>
      </trkpt>
      <trkpt lat="44.34697" lon="1.96079">
        <ele>392.8</ele>
        <time>2023-08-20T15:39:54Z</time>
      </trkpt>
      <trkpt lat="44.34685" lon="1.96035">
        <ele>392.8</ele>
        <time>2023-08-20T15:39:55Z</time>
      </trkpt>
      <trkpt lat="44.34674" lon="1.95999">
        <ele>392.4</ele>
        <time>2023-08-20T15:39:56Z</time>
      </trkpt>
      <trkpt lat="44.34664" lon="1.95964">
        <ele>392.2</ele>
        <time>2023-08-20T15:39:57Z</time>
      </trkpt>
      <trkpt lat="44.34654" lon="1.95929">
        <ele>392.2</ele>
        <time>2023-08-20T15:39:58Z</time>
      </trkpt>
      <trkpt lat="44.34644" lon="1.95893">
        <ele>392</ele>
        <time>2023-08-20T15:39:59Z</time>
      </trkpt>
      <trkpt lat="44.34634" lon="1.95858">
        <ele>392</ele>
        <time>2023-08-20T15:40:00Z</time>
      </trkpt>
      <trkpt lat="44.34623" lon="1.95823">
        <ele>392</ele>
        <time>2023-08-20T15:40:01Z</time>
      </trkpt>
      <trkpt lat="44.34613" lon="1.95787">
        <ele>392</ele>
        <time>2023-08-20T15:40:02Z</time>
      </trkpt>
      <trkpt lat="44.34605" lon="1.95758">
        <ele>392</ele>
        <time>2023-08-20T15:40:03Z</time>
      </trkpt>
      <trkpt lat="44.34592" lon="1.95715">
        <ele>392.2</ele>
        <time>2023-08-20T15:40:04Z</time>
      </trkpt>
      <trkpt lat="44.34582" lon="1.95678">
        <ele>392.4</ele>
        <time>2023-08-20T15:40:05Z</time>
      </trkpt>
      <trkpt lat="44.34571" lon="1.95641">
        <ele>392.6</ele>
        <time>2023-08-20T15:40:06Z</time>
      </trkpt>
      <trkpt lat="44.3456" lon="1.95605">
        <ele>393.4</ele>
        <time>2023-08-20T15:40:07Z</time>
      </trkpt>
      <trkpt lat="44.34549" lon="1.95568">
        <ele>393.6</ele>
        <time>2023-08-20T15:40:08Z</time>
      </trkpt>
      <trkpt lat="44.34541" lon="1.95538">
        <ele>394.2</ele>
        <time>2023-08-20T15:40:09Z</time>
      </trkpt>
      <trkpt lat="44.34528" lon="1.95494">
        <ele>394.4</ele>
        <time>2023-08-20T15:40:10Z</time>
      </trkpt>
      <trkpt lat="44.34517" lon="1.95458">
        <ele>395.6</ele>
        <time>2023-08-20T15:40:11Z</time>
      </trkpt>
      <trkpt lat="44.34507" lon="1.95421">
        <ele>396</ele>
        <time>2023-08-20T15:40:12Z</time>
      </trkpt>
      <trkpt lat="44.34496" lon="1.95384">
        <ele>396.8</ele>
        <time>2023-08-20T15:40:13Z</time>
      </trkpt>
      <trkpt lat="44.34486" lon="1.95347">
        <ele>397.6</ele>
        <time>2023-08-20T15:40:14Z</time>
      </trkpt>
      <trkpt lat="44.34475" lon="1.9531">
        <ele>398.2</ele>
        <time>2023-08-20T15:40:15Z</time>
      </trkpt>
      <trkpt lat="44.34464" lon="1.95274">
        <ele>399.6</ele>
        <time>2023-08-20T15:40:16Z</time>
      </trkpt>
      <trkpt lat="44.34453" lon="1.95236">
        <ele>400.4</ele>
        <time>2023-08-20T15:40:17Z</time>
      </trkpt>
      <trkpt lat="44.34442" lon="1.95199">
        <ele>402</ele>
        <time>2023-08-20T15:40:18Z</time>
      </trkpt>
      <trkpt lat="44.34432" lon="1.95162">
        <ele>402.8</ele>
        <time>2023-08-20T15:40:19Z</time>
      </trkpt>
      <trkpt lat="44.34421" lon="1.95125">
        <ele>404</ele>
        <time>2023-08-20T15:40:20Z</time>
      </trkpt>
      <trkpt lat="44.3441" lon="1.95088">
        <ele>404.8</ele>
        <time>2023-08-20T15:40:21Z</time>
      </trkpt>
      <trkpt lat="44.34399" lon="1.9505">
        <ele>406.2</ele>
        <time>2023-08-20T15:40:22Z</time>
      </trkpt>
      <trkpt lat="44.34389" lon="1.95013">
        <ele>407</ele>
        <time>2023-08-20T15:40:23Z</time>
      </trkpt>
      <trkpt lat="44.3438" lon="1.94983">
        <ele>407.4</ele>
        <time>2023-08-20T15:40:24Z</time>
      </trkpt>
      <trkpt lat="44.34367" lon="1.94939">
        <ele>407.8</ele>
        <time>2023-08-20T15:40:25Z</time>
      </trkpt>
      <trkpt lat="44.34356" lon="1.94902">
        <ele>408.2</ele>
        <time>2023-08-20T15:40:26Z</time>
      </trkpt>
      <trkpt lat="44.34345" lon="1.94866">
        <ele>408.6</ele>
        <time>2023-08-20T15:40:27Z</time>
      </trkpt>
      <trkpt lat="44.34335" lon="1.94829">
        <ele>408.8</ele>
        <time>2023-08-20T15:40:28Z</time>
      </trkpt>
      <trkpt lat="44.34327" lon="1.948">
        <ele>408.8</ele>
        <time>2023-08-20T15:40:29Z</time>
      </trkpt>
      <trkpt lat="44.34314" lon="1.94757">
        <ele>408.8</ele>
        <time>2023-08-20T15:40:30Z</time>
      </trkpt>
      <trkpt lat="44.34305" lon="1.94723">
        <ele>408.8</ele>
        <time>2023-08-20T15:40:31Z</time>
      </trkpt>
      <trkpt lat="44.34295" lon="1.9469">
        <ele>408.8</ele>
        <time>2023-08-20T15:40:32Z</time>
      </trkpt>
      <trkpt lat="44.34286" lon="1.94658">
        <ele>408.8</ele>
        <time>2023-08-20T15:40:33Z</time>
      </trkpt>
      <trkpt lat="44.34278" lon="1.94628">
        <ele>408</ele>
        <time>2023-08-20T15:40:34Z</time>
      </trkpt>
      <trkpt lat="44.3427" lon="1.94598">
        <ele>407.6</ele>
        <time>2023-08-20T15:40:35Z</time>
      </trkpt>
      <trkpt lat="44.34263" lon="1.9457">
        <ele>406.6</ele>
        <time>2023-08-20T15:40:36Z</time>
      </trkpt>
      <trkpt lat="44.34257" lon="1.94541">
        <ele>406</ele>
        <time>2023-08-20T15:40:37Z</time>
      </trkpt>
      <trkpt lat="44.34251" lon="1.94513">
        <ele>404.8</ele>
        <time>2023-08-20T15:40:38Z</time>
      </trkpt>
      <trkpt lat="44.34246" lon="1.94486">
        <ele>404.2</ele>
        <time>2023-08-20T15:40:39Z</time>
      </trkpt>
      <trkpt lat="44.34241" lon="1.9446">
        <ele>403</ele>
        <time>2023-08-20T15:40:40Z</time>
      </trkpt>
      <trkpt lat="44.34236" lon="1.94436">
        <ele>401.6</ele>
        <time>2023-08-20T15:40:41Z</time>
      </trkpt>
      <trkpt lat="44.34231" lon="1.94413">
        <ele>401</ele>
        <time>2023-08-20T15:40:42Z</time>
      </trkpt>
      <trkpt lat="44.34228" lon="1.94397">
        <ele>399.8</ele>
        <time>2023-08-20T15:40:43Z</time>
      </trkpt>
      <trkpt lat="44.34224" lon="1.94377">
        <ele>399</ele>
        <time>2023-08-20T15:40:44Z</time>
      </trkpt>
      <trkpt lat="44.34219" lon="1.94353">
        <ele>397.8</ele>
        <time>2023-08-20T15:40:45Z</time>
      </trkpt>
      <trkpt lat="44.34215" lon="1.94334">
        <ele>397</ele>
        <time>2023-08-20T15:40:46Z</time>
      </trkpt>
      <trkpt lat="44.34211" lon="1.94318">
        <ele>395.4</ele>
        <time>2023-08-20T15:40:47Z</time>
      </trkpt>
      <trkpt lat="44.34207" lon="1.94298">
        <ele>395</ele>
        <time>2023-08-20T15:40:48Z</time>
      </trkpt>
      <trkpt lat="44.34201" lon="1.94275">
        <ele>393.2</ele>
        <time>2023-08-20T15:40:49Z</time>
      </trkpt>
      <trkpt lat="44.34195" lon="1.94256">
        <ele>392.4</ele>
        <time>2023-08-20T15:40:50Z</time>
      </trkpt>
      <trkpt lat="44.34189" lon="1.94236">
        <ele>392</ele>
        <time>2023-08-20T15:40:51Z</time>
      </trkpt>
      <trkpt lat="44.34182" lon="1.94216">
        <ele>390.6</ele>
        <time>2023-08-20T15:40:52Z</time>
      </trkpt>
      <trkpt lat="44.34153" lon="1.94154">
        <ele>389.6</ele>
        <time>2023-08-20T15:40:55Z</time>
      </trkpt>
      <trkpt lat="44.34111" lon="1.94083">
        <ele>389.4</ele>
        <time>2023-08-20T15:40:58Z</time>
      </trkpt>
      <trkpt lat="44.34057" lon="1.94007">
        <ele>390</ele>
        <time>2023-08-20T15:41:01Z</time>
      </trkpt>
      <trkpt lat="44.34019" lon="1.93953">
        <ele>391.6</ele>
        <time>2023-08-20T15:41:03Z</time>
      </trkpt>
      <trkpt lat="44.34" lon="1.93927">
        <ele>392.2</ele>
        <time>2023-08-20T15:41:04Z</time>
      </trkpt>
      <trkpt lat="44.33982" lon="1.93902">
        <ele>393.4</ele>
        <time>2023-08-20T15:41:05Z</time>
      </trkpt>
      <trkpt lat="44.33967" lon="1.93883">
        <ele>394.2</ele>
        <time>2023-08-20T15:41:06Z</time>
      </trkpt>
      <trkpt lat="44.33945" lon="1.93857">
        <ele>395.4</ele>
        <time>2023-08-20T15:41:07Z</time>
      </trkpt>
      <trkpt lat="44.33924" lon="1.93837">
        <ele>396.2</ele>
        <time>2023-08-20T15:41:08Z</time>
      </trkpt>
      <trkpt lat="44.33904" lon="1.9382">
        <ele>396.2</ele>
        <time>2023-08-20T15:41:09Z</time>
      </trkpt>
      <trkpt lat="44.33882" lon="1.93805">
        <ele>397</ele>
        <time>2023-08-20T15:41:10Z</time>
      </trkpt>
      <trkpt lat="44.33861" lon="1.93793">
        <ele>397</ele>
        <time>2023-08-20T15:41:11Z</time>
      </trkpt>
      <trkpt lat="44.33844" lon="1.93784">
        <ele>397</ele>
        <time>2023-08-20T15:41:12Z</time>
      </trkpt>
      <trkpt lat="44.33823" lon="1.93774">
        <ele>397.2</ele>
        <time>2023-08-20T15:41:13Z</time>
      </trkpt>
      <trkpt lat="44.33799" lon="1.93764">
        <ele>397.4</ele>
        <time>2023-08-20T15:41:14Z</time>
      </trkpt>
      <trkpt lat="44.3378" lon="1.93756">
        <ele>397.4</ele>
        <time>2023-08-20T15:41:15Z</time>
      </trkpt>
      <trkpt lat="44.3376" lon="1.93748">
        <ele>397.4</ele>
        <time>2023-08-20T15:41:16Z</time>
      </trkpt>
      <trkpt lat="44.3374" lon="1.93739">
        <ele>397.4</ele>
        <time>2023-08-20T15:41:17Z</time>
      </trkpt>
      <trkpt lat="44.3372" lon="1.9373">
        <ele>397.6</ele>
        <time>2023-08-20T15:41:18Z</time>
      </trkpt>
      <trkpt lat="44.337" lon="1.93721">
        <ele>398</ele>
        <time>2023-08-20T15:41:19Z</time>
      </trkpt>
      <trkpt lat="44.3368" lon="1.93712">
        <ele>398.2</ele>
        <time>2023-08-20T15:41:20Z</time>
      </trkpt>
      <trkpt lat="44.33661" lon="1.93703">
        <ele>398.4</ele>
        <time>2023-08-20T15:41:21Z</time>
      </trkpt>
      <trkpt lat="44.33641" lon="1.93694">
        <ele>398.4</ele>
        <time>2023-08-20T15:41:22Z</time>
      </trkpt>
      <trkpt lat="44.33622" lon="1.93683">
        <ele>398.6</ele>
        <time>2023-08-20T15:41:23Z</time>
      </trkpt>
      <trkpt lat="44.33603" lon="1.9367">
        <ele>398.8</ele>
        <time>2023-08-20T15:41:24Z</time>
      </trkpt>
      <trkpt lat="44.33584" lon="1.93654">
        <ele>399.4</ele>
        <time>2023-08-20T15:41:25Z</time>
      </trkpt>
      <trkpt lat="44.33584" lon="1.93654">
        <ele>399.8</ele>
        <time>2023-08-20T15:41:26Z</time>
      </trkpt>
      <trkpt lat="44.3355" lon="1.93622">
        <ele>400</ele>
        <time>2023-08-20T15:41:27Z</time>
      </trkpt>
      <trkpt lat="44.33526" lon="1.93597">
        <ele>400.4</ele>
        <time>2023-08-20T15:41:28Z</time>
      </trkpt>
      <trkpt lat="44.33504" lon="1.93574">
        <ele>401</ele>
        <time>2023-08-20T15:41:29Z</time>
      </trkpt>
      <trkpt lat="44.33482" lon="1.9355">
        <ele>402</ele>
        <time>2023-08-20T15:41:30Z</time>
      </trkpt>
      <trkpt lat="44.33463" lon="1.9353">
        <ele>402.8</ele>
        <time>2023-08-20T15:41:31Z</time>
      </trkpt>
      <trkpt lat="44.33439" lon="1.93502">
        <ele>404</ele>
        <time>2023-08-20T15:41:32Z</time>
      </trkpt>
      <trkpt lat="44.33409" lon="1.93468">
        <ele>404.6</ele>
        <time>2023-08-20T15:41:33Z</time>
      </trkpt>
      <trkpt lat="44.33382" lon="1.93437">
        <ele>406.8</ele>
        <time>2023-08-20T15:41:34Z</time>
      </trkpt>
      <trkpt lat="44.33355" lon="1.93405">
        <ele>409.6</ele>
        <time>2023-08-20T15:41:35Z</time>
      </trkpt>
      <trkpt lat="44.33333" lon="1.93378">
        <ele>412</ele>
        <time>2023-08-20T15:41:36Z</time>
      </trkpt>
      <trkpt lat="44.33304" lon="1.93343">
        <ele>417.4</ele>
        <time>2023-08-20T15:41:37Z</time>
      </trkpt>
      <trkpt lat="44.33276" lon="1.93308">
        <ele>419.4</ele>
        <time>2023-08-20T15:41:38Z</time>
      </trkpt>
      <trkpt lat="44.33244" lon="1.93266">
        <ele>422.6</ele>
        <time>2023-08-20T15:41:39Z</time>
      </trkpt>
      <trkpt lat="44.33221" lon="1.93231">
        <ele>424.4</ele>
        <time>2023-08-20T15:41:40Z</time>
      </trkpt>
      <trkpt lat="44.33199" lon="1.93196">
        <ele>428.6</ele>
        <time>2023-08-20T15:41:41Z</time>
      </trkpt>
      <trkpt lat="44.33181" lon="1.93161">
        <ele>429.6</ele>
        <time>2023-08-20T15:41:42Z</time>
      </trkpt>
      <trkpt lat="44.33167" lon="1.93126">
        <ele>430.4</ele>
        <time>2023-08-20T15:41:43Z</time>
      </trkpt>
      <trkpt lat="44.33156" lon="1.9309">
        <ele>430.8</ele>
        <time>2023-08-20T15:41:44Z</time>
      </trkpt>
      <trkpt lat="44.33149" lon="1.93054">
        <ele>430.8</ele>
        <time>2023-08-20T15:41:45Z</time>
      </trkpt>
      <trkpt lat="44.33143" lon="1.93018">
        <ele>431</ele>
        <time>2023-08-20T15:41:46Z</time>
      </trkpt>
      <trkpt lat="44.33138" lon="1.92982">
        <ele>430.8</ele>
        <time>2023-08-20T15:41:47Z</time>
      </trkpt>
      <trkpt lat="44.33136" lon="1.92944">
        <ele>430.6</ele>
        <time>2023-08-20T15:41:48Z</time>
      </trkpt>
      <trkpt lat="44.33137" lon="1.92864">
        <ele>430.4</ele>
        <time>2023-08-20T15:41:50Z</time>
      </trkpt>
      <trkpt lat="44.3314" lon="1.92824">
        <ele>430.4</ele>
        <time>2023-08-20T15:41:51Z</time>
      </trkpt>
      <trkpt lat="44.33144" lon="1.92747">
        <ele>430.4</ele>
        <time>2023-08-20T15:41:53Z</time>
      </trkpt>
      <trkpt lat="44.33145" lon="1.92708">
        <ele>430.4</ele>
        <time>2023-08-20T15:41:54Z</time>
      </trkpt>
      <trkpt lat="44.33144" lon="1.92669">
        <ele>431.2</ele>
        <time>2023-08-20T15:41:55Z</time>
      </trkpt>
      <trkpt lat="44.33142" lon="1.92629">
        <ele>432.4</ele>
        <time>2023-08-20T15:41:56Z</time>
      </trkpt>
      <trkpt lat="44.33138" lon="1.92589">
        <ele>434</ele>
        <time>2023-08-20T15:41:57Z</time>
      </trkpt>
      <trkpt lat="44.33133" lon="1.92549">
        <ele>434.4</ele>
        <time>2023-08-20T15:41:58Z</time>
      </trkpt>
      <trkpt lat="44.33125" lon="1.92508">
        <ele>435.6</ele>
        <time>2023-08-20T15:41:59Z</time>
      </trkpt>
      <trkpt lat="44.33116" lon="1.92469">
        <ele>437</ele>
        <time>2023-08-20T15:42:00Z</time>
      </trkpt>
      <trkpt lat="44.33109" lon="1.92439">
        <ele>439.8</ele>
        <time>2023-08-20T15:42:01Z</time>
      </trkpt>
      <trkpt lat="44.33098" lon="1.92401">
        <ele>442.6</ele>
        <time>2023-08-20T15:42:02Z</time>
      </trkpt>
      <trkpt lat="44.33085" lon="1.92355">
        <ele>443.8</ele>
        <time>2023-08-20T15:42:03Z</time>
      </trkpt>
      <trkpt lat="44.33074" lon="1.92316">
        <ele>446</ele>
        <time>2023-08-20T15:42:04Z</time>
      </trkpt>
      <trkpt lat="44.33064" lon="1.92284">
        <ele>446.8</ele>
        <time>2023-08-20T15:42:05Z</time>
      </trkpt>
      <trkpt lat="44.33053" lon="1.92244">
        <ele>447.6</ele>
        <time>2023-08-20T15:42:06Z</time>
      </trkpt>
      <trkpt lat="44.33041" lon="1.92205">
        <ele>447.8</ele>
        <time>2023-08-20T15:42:07Z</time>
      </trkpt>
      <trkpt lat="44.33028" lon="1.92159">
        <ele>448</ele>
        <time>2023-08-20T15:42:08Z</time>
      </trkpt>
      <trkpt lat="44.33017" lon="1.92122">
        <ele>448</ele>
        <time>2023-08-20T15:42:09Z</time>
      </trkpt>
      <trkpt lat="44.33006" lon="1.92086">
        <ele>448</ele>
        <time>2023-08-20T15:42:10Z</time>
      </trkpt>
      <trkpt lat="44.32996" lon="1.92051">
        <ele>446.8</ele>
        <time>2023-08-20T15:42:11Z</time>
      </trkpt>
      <trkpt lat="44.32987" lon="1.92023">
        <ele>446.2</ele>
        <time>2023-08-20T15:42:12Z</time>
      </trkpt>
      <trkpt lat="44.32974" lon="1.91982">
        <ele>445.2</ele>
        <time>2023-08-20T15:42:13Z</time>
      </trkpt>
      <trkpt lat="44.32964" lon="1.91948">
        <ele>444.6</ele>
        <time>2023-08-20T15:42:14Z</time>
      </trkpt>
      <trkpt lat="44.32956" lon="1.91922">
        <ele>443.6</ele>
        <time>2023-08-20T15:42:15Z</time>
      </trkpt>
      <trkpt lat="44.32946" lon="1.91889">
        <ele>443.2</ele>
        <time>2023-08-20T15:42:16Z</time>
      </trkpt>
      <trkpt lat="44.32936" lon="1.91856">
        <ele>442.8</ele>
        <time>2023-08-20T15:42:17Z</time>
      </trkpt>
      <trkpt lat="44.32923" lon="1.91818">
        <ele>442.4</ele>
        <time>2023-08-20T15:42:18Z</time>
      </trkpt>
      <trkpt lat="44.32914" lon="1.91786">
        <ele>442</ele>
        <time>2023-08-20T15:42:19Z</time>
      </trkpt>
      <trkpt lat="44.32904" lon="1.91754">
        <ele>441.4</ele>
        <time>2023-08-20T15:42:20Z</time>
      </trkpt>
      <trkpt lat="44.32897" lon="1.91728">
        <ele>441.2</ele>
        <time>2023-08-20T15:42:21Z</time>
      </trkpt>
      <trkpt lat="44.32886" lon="1.91689">
        <ele>441</ele>
        <time>2023-08-20T15:42:22Z</time>
      </trkpt>
      <trkpt lat="44.32876" lon="1.91656">
        <ele>441</ele>
        <time>2023-08-20T15:42:23Z</time>
      </trkpt>
      <trkpt lat="44.32866" lon="1.91623">
        <ele>440.8</ele>
        <time>2023-08-20T15:42:24Z</time>
      </trkpt>
      <trkpt lat="44.32857" lon="1.91596">
        <ele>440.8</ele>
        <time>2023-08-20T15:42:25Z</time>
      </trkpt>
      <trkpt lat="44.32846" lon="1.91562">
        <ele>440.8</ele>
        <time>2023-08-20T15:42:26Z</time>
      </trkpt>
      <trkpt lat="44.32835" lon="1.91526">
        <ele>440.8</ele>
        <time>2023-08-20T15:42:27Z</time>
      </trkpt>
      <trkpt lat="44.32821" lon="1.91483">
        <ele>440.6</ele>
        <time>2023-08-20T15:42:28Z</time>
      </trkpt>
      <trkpt lat="44.32799" lon="1.91407">
        <ele>440.6</ele>
        <time>2023-08-20T15:42:30Z</time>
      </trkpt>
      <trkpt lat="44.32776" lon="1.9133">
        <ele>440.6</ele>
        <time>2023-08-20T15:42:32Z</time>
      </trkpt>
      <trkpt lat="44.32765" lon="1.91292">
        <ele>440</ele>
        <time>2023-08-20T15:42:33Z</time>
      </trkpt>
      <trkpt lat="44.32742" lon="1.91215">
        <ele>438.4</ele>
        <time>2023-08-20T15:42:35Z</time>
      </trkpt>
      <trkpt lat="44.3272" lon="1.91139">
        <ele>438</ele>
        <time>2023-08-20T15:42:37Z</time>
      </trkpt>
      <trkpt lat="44.32709" lon="1.91102">
        <ele>437.8</ele>
        <time>2023-08-20T15:42:38Z</time>
      </trkpt>
      <trkpt lat="44.32698" lon="1.91065">
        <ele>437.8</ele>
        <time>2023-08-20T15:42:39Z</time>
      </trkpt>
      <trkpt lat="44.3269" lon="1.91037">
        <ele>437.8</ele>
        <time>2023-08-20T15:42:40Z</time>
      </trkpt>
      <trkpt lat="44.32679" lon="1.91002">
        <ele>438</ele>
        <time>2023-08-20T15:42:41Z</time>
      </trkpt>
      <trkpt lat="44.32666" lon="1.9096">
        <ele>438</ele>
        <time>2023-08-20T15:42:42Z</time>
      </trkpt>
      <trkpt lat="44.32656" lon="1.90924">
        <ele>438</ele>
        <time>2023-08-20T15:42:43Z</time>
      </trkpt>
      <trkpt lat="44.32633" lon="1.90851">
        <ele>438.4</ele>
        <time>2023-08-20T15:42:45Z</time>
      </trkpt>
      <trkpt lat="44.32607" lon="1.90769">
        <ele>439</ele>
        <time>2023-08-20T15:42:47Z</time>
      </trkpt>
      <trkpt lat="44.32581" lon="1.90682">
        <ele>439.4</ele>
        <time>2023-08-20T15:42:49Z</time>
      </trkpt>
      <trkpt lat="44.32569" lon="1.9064">
        <ele>439.6</ele>
        <time>2023-08-20T15:42:50Z</time>
      </trkpt>
      <trkpt lat="44.32545" lon="1.9056">
        <ele>439.2</ele>
        <time>2023-08-20T15:42:52Z</time>
      </trkpt>
      <trkpt lat="44.32534" lon="1.90522">
        <ele>438.8</ele>
        <time>2023-08-20T15:42:53Z</time>
      </trkpt>
      <trkpt lat="44.32523" lon="1.90487">
        <ele>438.6</ele>
        <time>2023-08-20T15:42:54Z</time>
      </trkpt>
      <trkpt lat="44.32515" lon="1.90459">
        <ele>438.6</ele>
        <time>2023-08-20T15:42:55Z</time>
      </trkpt>
      <trkpt lat="44.32503" lon="1.90418">
        <ele>438.4</ele>
        <time>2023-08-20T15:42:56Z</time>
      </trkpt>
      <trkpt lat="44.32493" lon="1.90385">
        <ele>438.4</ele>
        <time>2023-08-20T15:42:57Z</time>
      </trkpt>
      <trkpt lat="44.32484" lon="1.90353">
        <ele>438.2</ele>
        <time>2023-08-20T15:42:58Z</time>
      </trkpt>
      <trkpt lat="44.32475" lon="1.90323">
        <ele>438</ele>
        <time>2023-08-20T15:42:59Z</time>
      </trkpt>
      <trkpt lat="44.32466" lon="1.90293">
        <ele>437.8</ele>
        <time>2023-08-20T15:43:00Z</time>
      </trkpt>
      <trkpt lat="44.3246" lon="1.9027">
        <ele>437.6</ele>
        <time>2023-08-20T15:43:01Z</time>
      </trkpt>
      <trkpt lat="44.32449" lon="1.90235">
        <ele>437.6</ele>
        <time>2023-08-20T15:43:02Z</time>
      </trkpt>
      <trkpt lat="44.32441" lon="1.90207">
        <ele>437.4</ele>
        <time>2023-08-20T15:43:03Z</time>
      </trkpt>
      <trkpt lat="44.32432" lon="1.90177">
        <ele>437.2</ele>
        <time>2023-08-20T15:43:04Z</time>
      </trkpt>
      <trkpt lat="44.32423" lon="1.90147">
        <ele>437.2</ele>
        <time>2023-08-20T15:43:05Z</time>
      </trkpt>
      <trkpt lat="44.32393" lon="1.90047">
        <ele>436.8</ele>
        <time>2023-08-20T15:43:08Z</time>
      </trkpt>
      <trkpt lat="44.32383" lon="1.90012">
        <ele>436.8</ele>
        <time>2023-08-20T15:43:09Z</time>
      </trkpt>
      <trkpt lat="44.32363" lon="1.89946">
        <ele>436.6</ele>
        <time>2023-08-20T15:43:11Z</time>
      </trkpt>
      <trkpt lat="44.32354" lon="1.89916">
        <ele>436.6</ele>
        <time>2023-08-20T15:43:12Z</time>
      </trkpt>
      <trkpt lat="44.32346" lon="1.89889">
        <ele>435.8</ele>
        <time>2023-08-20T15:43:13Z</time>
      </trkpt>
      <trkpt lat="44.32339" lon="1.89864">
        <ele>434.6</ele>
        <time>2023-08-20T15:43:14Z</time>
      </trkpt>
      <trkpt lat="44.32333" lon="1.89845">
        <ele>433.2</ele>
        <time>2023-08-20T15:43:15Z</time>
      </trkpt>
      <trkpt lat="44.32324" lon="1.89818">
        <ele>430.4</ele>
        <time>2023-08-20T15:43:16Z</time>
      </trkpt>
      <trkpt lat="44.32317" lon="1.89795">
        <ele>428.6</ele>
        <time>2023-08-20T15:43:17Z</time>
      </trkpt>
      <trkpt lat="44.32309" lon="1.89773">
        <ele>425.6</ele>
        <time>2023-08-20T15:43:18Z</time>
      </trkpt>
      <trkpt lat="44.32301" lon="1.89752">
        <ele>424.2</ele>
        <time>2023-08-20T15:43:19Z</time>
      </trkpt>
      <trkpt lat="44.32291" lon="1.89732">
        <ele>421.2</ele>
        <time>2023-08-20T15:43:20Z</time>
      </trkpt>
      <trkpt lat="44.32281" lon="1.89714">
        <ele>419.8</ele>
        <time>2023-08-20T15:43:21Z</time>
      </trkpt>
      <trkpt lat="44.32268" lon="1.89698">
        <ele>418.2</ele>
        <time>2023-08-20T15:43:22Z</time>
      </trkpt>
      <trkpt lat="44.32255" lon="1.89684">
        <ele>416.8</ele>
        <time>2023-08-20T15:43:23Z</time>
      </trkpt>
      <trkpt lat="44.32241" lon="1.8967">
        <ele>416.2</ele>
        <time>2023-08-20T15:43:24Z</time>
      </trkpt>
      <trkpt lat="44.32227" lon="1.89657">
        <ele>414.6</ele>
        <time>2023-08-20T15:43:25Z</time>
      </trkpt>
      <trkpt lat="44.32213" lon="1.89644">
        <ele>413.8</ele>
        <time>2023-08-20T15:43:26Z</time>
      </trkpt>
      <trkpt lat="44.32199" lon="1.89631">
        <ele>412.8</ele>
        <time>2023-08-20T15:43:27Z</time>
      </trkpt>
      <trkpt lat="44.32186" lon="1.89618">
        <ele>412.2</ele>
        <time>2023-08-20T15:43:28Z</time>
      </trkpt>
      <trkpt lat="44.32173" lon="1.89606">
        <ele>411</ele>
        <time>2023-08-20T15:43:29Z</time>
      </trkpt>
      <trkpt lat="44.3216" lon="1.89594">
        <ele>410.2</ele>
        <time>2023-08-20T15:43:30Z</time>
      </trkpt>
      <trkpt lat="44.32148" lon="1.89583">
        <ele>408.8</ele>
        <time>2023-08-20T15:43:31Z</time>
      </trkpt>
      <trkpt lat="44.32136" lon="1.89572">
        <ele>407.2</ele>
        <time>2023-08-20T15:43:32Z</time>
      </trkpt>
      <trkpt lat="44.32125" lon="1.8956">
        <ele>406.2</ele>
        <time>2023-08-20T15:43:33Z</time>
      </trkpt>
      <trkpt lat="44.32114" lon="1.89549">
        <ele>404.8</ele>
        <time>2023-08-20T15:43:34Z</time>
      </trkpt>
      <trkpt lat="44.32103" lon="1.89538">
        <ele>403.8</ele>
        <time>2023-08-20T15:43:35Z</time>
      </trkpt>
      <trkpt lat="44.32093" lon="1.89527">
        <ele>402.4</ele>
        <time>2023-08-20T15:43:36Z</time>
      </trkpt>
      <trkpt lat="44.32082" lon="1.89516">
        <ele>401.8</ele>
        <time>2023-08-20T15:43:37Z</time>
      </trkpt>
      <trkpt lat="44.32071" lon="1.89507">
        <ele>400.6</ele>
        <time>2023-08-20T15:43:38Z</time>
      </trkpt>
      <trkpt lat="44.32058" lon="1.89499">
        <ele>400.2</ele>
        <time>2023-08-20T15:43:39Z</time>
      </trkpt>
      <trkpt lat="44.32045" lon="1.8949">
        <ele>399.6</ele>
        <time>2023-08-20T15:43:40Z</time>
      </trkpt>
      <trkpt lat="44.3202" lon="1.89469">
        <ele>398.2</ele>
        <time>2023-08-20T15:43:42Z</time>
      </trkpt>
      <trkpt lat="44.32007" lon="1.89457">
        <ele>397.8</ele>
        <time>2023-08-20T15:43:43Z</time>
      </trkpt>
      <trkpt lat="44.31984" lon="1.89435">
        <ele>397.4</ele>
        <time>2023-08-20T15:43:45Z</time>
      </trkpt>
      <trkpt lat="44.31925" lon="1.89379">
        <ele>396.8</ele>
        <time>2023-08-20T15:43:49Z</time>
      </trkpt>
      <trkpt lat="44.31867" lon="1.89324">
        <ele>396.8</ele>
        <time>2023-08-20T15:43:53Z</time>
      </trkpt>
      <trkpt lat="44.31852" lon="1.8931">
        <ele>396.8</ele>
        <time>2023-08-20T15:43:54Z</time>
      </trkpt>
      <trkpt lat="44.31792" lon="1.89253">
        <ele>397.8</ele>
        <time>2023-08-20T15:43:58Z</time>
      </trkpt>
      <trkpt lat="44.31757" lon="1.89221">
        <ele>398.2</ele>
        <time>2023-08-20T15:44:00Z</time>
      </trkpt>
      <trkpt lat="44.31743" lon="1.89207">
        <ele>398.2</ele>
        <time>2023-08-20T15:44:01Z</time>
      </trkpt>
      <trkpt lat="44.31684" lon="1.89152">
        <ele>399.6</ele>
        <time>2023-08-20T15:44:04Z</time>
      </trkpt>
      <trkpt lat="44.31651" lon="1.8912">
        <ele>400</ele>
        <time>2023-08-20T15:44:06Z</time>
      </trkpt>
      <trkpt lat="44.31636" lon="1.89105">
        <ele>400.2</ele>
        <time>2023-08-20T15:44:07Z</time>
      </trkpt>
      <trkpt lat="44.3162" lon="1.89091">
        <ele>400.2</ele>
        <time>2023-08-20T15:44:08Z</time>
      </trkpt>
      <trkpt lat="44.31605" lon="1.89077">
        <ele>400.2</ele>
        <time>2023-08-20T15:44:09Z</time>
      </trkpt>
      <trkpt lat="44.31591" lon="1.89063">
        <ele>399.6</ele>
        <time>2023-08-20T15:44:10Z</time>
      </trkpt>
      <trkpt lat="44.31578" lon="1.8905">
        <ele>399.6</ele>
        <time>2023-08-20T15:44:11Z</time>
      </trkpt>
      <trkpt lat="44.31566" lon="1.89037">
        <ele>399.4</ele>
        <time>2023-08-20T15:44:12Z</time>
      </trkpt>
      <trkpt lat="44.31554" lon="1.89026">
        <ele>398.8</ele>
        <time>2023-08-20T15:44:13Z</time>
      </trkpt>
      <trkpt lat="44.31543" lon="1.89015">
        <ele>397.8</ele>
        <time>2023-08-20T15:44:14Z</time>
      </trkpt>
      <trkpt lat="44.31531" lon="1.89004">
        <ele>396.8</ele>
        <time>2023-08-20T15:44:15Z</time>
      </trkpt>
      <trkpt lat="44.31519" lon="1.88993">
        <ele>396.4</ele>
        <time>2023-08-20T15:44:16Z</time>
      </trkpt>
      <trkpt lat="44.31505" lon="1.88981">
        <ele>396.2</ele>
        <time>2023-08-20T15:44:17Z</time>
      </trkpt>
      <trkpt lat="44.3149" lon="1.88967">
        <ele>395.8</ele>
        <time>2023-08-20T15:44:18Z</time>
      </trkpt>
      <trkpt lat="44.31471" lon="1.88952">
        <ele>395.6</ele>
        <time>2023-08-20T15:44:19Z</time>
      </trkpt>
      <trkpt lat="44.31455" lon="1.88937">
        <ele>395.6</ele>
        <time>2023-08-20T15:44:20Z</time>
      </trkpt>
      <trkpt lat="44.31409" lon="1.88893">
        <ele>395.6</ele>
        <time>2023-08-20T15:44:22Z</time>
      </trkpt>
      <trkpt lat="44.31388" lon="1.88871">
        <ele>395.6</ele>
        <time>2023-08-20T15:44:23Z</time>
      </trkpt>
      <trkpt lat="44.31366" lon="1.8885">
        <ele>397.4</ele>
        <time>2023-08-20T15:44:24Z</time>
      </trkpt>
      <trkpt lat="44.3132" lon="1.88807">
        <ele>399.6</ele>
        <time>2023-08-20T15:44:26Z</time>
      </trkpt>
      <trkpt lat="44.31296" lon="1.88784">
        <ele>400</ele>
        <time>2023-08-20T15:44:27Z</time>
      </trkpt>
      <trkpt lat="44.31272" lon="1.88762">
        <ele>400.6</ele>
        <time>2023-08-20T15:44:28Z</time>
      </trkpt>
      <trkpt lat="44.31224" lon="1.88715">
        <ele>401.2</ele>
        <time>2023-08-20T15:44:30Z</time>
      </trkpt>
      <trkpt lat="44.31177" lon="1.8867">
        <ele>401.6</ele>
        <time>2023-08-20T15:44:32Z</time>
      </trkpt>
      <trkpt lat="44.31129" lon="1.88625">
        <ele>401.8</ele>
        <time>2023-08-20T15:44:34Z</time>
      </trkpt>
      <trkpt lat="44.31105" lon="1.88603">
        <ele>402</ele>
        <time>2023-08-20T15:44:35Z</time>
      </trkpt>
      <trkpt lat="44.31082" lon="1.8858">
        <ele>402</ele>
        <time>2023-08-20T15:44:36Z</time>
      </trkpt>
      <trkpt lat="44.31058" lon="1.88558">
        <ele>402</ele>
        <time>2023-08-20T15:44:37Z</time>
      </trkpt>
      <trkpt lat="44.31035" lon="1.88536">
        <ele>402</ele>
        <time>2023-08-20T15:44:38Z</time>
      </trkpt>
      <trkpt lat="44.31013" lon="1.88515">
        <ele>402</ele>
        <time>2023-08-20T15:44:39Z</time>
      </trkpt>
      <trkpt lat="44.30992" lon="1.88495">
        <ele>402</ele>
        <time>2023-08-20T15:44:40Z</time>
      </trkpt>
      <trkpt lat="44.30976" lon="1.88479">
        <ele>401.8</ele>
        <time>2023-08-20T15:44:41Z</time>
      </trkpt>
      <trkpt lat="44.3095" lon="1.88455">
        <ele>401.4</ele>
        <time>2023-08-20T15:44:42Z</time>
      </trkpt>
      <trkpt lat="44.30929" lon="1.88435">
        <ele>401.2</ele>
        <time>2023-08-20T15:44:43Z</time>
      </trkpt>
      <trkpt lat="44.30929" lon="1.88435">
        <ele>401</ele>
        <time>2023-08-20T15:44:44Z</time>
      </trkpt>
      <trkpt lat="44.3089" lon="1.88398">
        <ele>401</ele>
        <time>2023-08-20T15:44:45Z</time>
      </trkpt>
      <trkpt lat="44.30869" lon="1.88377">
        <ele>401.2</ele>
        <time>2023-08-20T15:44:46Z</time>
      </trkpt>
      <trkpt lat="44.30842" lon="1.88351">
        <ele>401.2</ele>
        <time>2023-08-20T15:44:47Z</time>
      </trkpt>
      <trkpt lat="44.30819" lon="1.88329">
        <ele>401.2</ele>
        <time>2023-08-20T15:44:48Z</time>
      </trkpt>
      <trkpt lat="44.30796" lon="1.88308">
        <ele>401.2</ele>
        <time>2023-08-20T15:44:49Z</time>
      </trkpt>
      <trkpt lat="44.30773" lon="1.88286">
        <ele>401.2</ele>
        <time>2023-08-20T15:44:50Z</time>
      </trkpt>
      <trkpt lat="44.30704" lon="1.8822">
        <ele>402</ele>
        <time>2023-08-20T15:44:53Z</time>
      </trkpt>
      <trkpt lat="44.30658" lon="1.88177">
        <ele>402.2</ele>
        <time>2023-08-20T15:44:55Z</time>
      </trkpt>
      <trkpt lat="44.30618" lon="1.88139">
        <ele>402.6</ele>
        <time>2023-08-20T15:44:57Z</time>
      </trkpt>
      <trkpt lat="44.30591" lon="1.88114">
        <ele>402.8</ele>
        <time>2023-08-20T15:44:58Z</time>
      </trkpt>
      <trkpt lat="44.30569" lon="1.88093">
        <ele>403.2</ele>
        <time>2023-08-20T15:44:59Z</time>
      </trkpt>
      <trkpt lat="44.3053" lon="1.88055">
        <ele>403.8</ele>
        <time>2023-08-20T15:45:01Z</time>
      </trkpt>
      <trkpt lat="44.30483" lon="1.8801">
        <ele>404.6</ele>
        <time>2023-08-20T15:45:03Z</time>
      </trkpt>
      <trkpt lat="44.30463" lon="1.87992">
        <ele>405</ele>
        <time>2023-08-20T15:45:04Z</time>
      </trkpt>
      <trkpt lat="44.30444" lon="1.87973">
        <ele>405</ele>
        <time>2023-08-20T15:45:05Z</time>
      </trkpt>
      <trkpt lat="44.30426" lon="1.87955">
        <ele>405</ele>
        <time>2023-08-20T15:45:06Z</time>
      </trkpt>
      <trkpt lat="44.30408" lon="1.87938">
        <ele>405</ele>
        <time>2023-08-20T15:45:07Z</time>
      </trkpt>
      <trkpt lat="44.30391" lon="1.87922">
        <ele>405</ele>
        <time>2023-08-20T15:45:08Z</time>
      </trkpt>
      <trkpt lat="44.30374" lon="1.87905">
        <ele>404.8</ele>
        <time>2023-08-20T15:45:09Z</time>
      </trkpt>
      <trkpt lat="44.30358" lon="1.87889">
        <ele>404.8</ele>
        <time>2023-08-20T15:45:10Z</time>
      </trkpt>
      <trkpt lat="44.30341" lon="1.87873">
        <ele>404.6</ele>
        <time>2023-08-20T15:45:11Z</time>
      </trkpt>
      <trkpt lat="44.30324" lon="1.87857">
        <ele>404.6</ele>
        <time>2023-08-20T15:45:12Z</time>
      </trkpt>
      <trkpt lat="44.30307" lon="1.87841">
        <ele>404.2</ele>
        <time>2023-08-20T15:45:13Z</time>
      </trkpt>
      <trkpt lat="44.30289" lon="1.87825">
        <ele>404</ele>
        <time>2023-08-20T15:45:14Z</time>
      </trkpt>
      <trkpt lat="44.30272" lon="1.87809">
        <ele>403.8</ele>
        <time>2023-08-20T15:45:15Z</time>
      </trkpt>
      <trkpt lat="44.30254" lon="1.87792">
        <ele>403.6</ele>
        <time>2023-08-20T15:45:16Z</time>
      </trkpt>
      <trkpt lat="44.30237" lon="1.87775">
        <ele>403.2</ele>
        <time>2023-08-20T15:45:17Z</time>
      </trkpt>
      <trkpt lat="44.30182" lon="1.87723">
        <ele>402.4</ele>
        <time>2023-08-20T15:45:20Z</time>
      </trkpt>
      <trkpt lat="44.30146" lon="1.87688">
        <ele>402.2</ele>
        <time>2023-08-20T15:45:22Z</time>
      </trkpt>
      <trkpt lat="44.30092" lon="1.87636">
        <ele>402.2</ele>
        <time>2023-08-20T15:45:25Z</time>
      </trkpt>
      <trkpt lat="44.30074" lon="1.87619">
        <ele>402.2</ele>
        <time>2023-08-20T15:45:26Z</time>
      </trkpt>
      <trkpt lat="44.3002" lon="1.87568">
        <ele>402.6</ele>
        <time>2023-08-20T15:45:29Z</time>
      </trkpt>
      <trkpt lat="44.29985" lon="1.87534">
        <ele>403.6</ele>
        <time>2023-08-20T15:45:31Z</time>
      </trkpt>
      <trkpt lat="44.29949" lon="1.875">
        <ele>404.4</ele>
        <time>2023-08-20T15:45:33Z</time>
      </trkpt>
      <trkpt lat="44.29932" lon="1.87484">
        <ele>404.8</ele>
        <time>2023-08-20T15:45:34Z</time>
      </trkpt>
      <trkpt lat="44.29896" lon="1.87449">
        <ele>406</ele>
        <time>2023-08-20T15:45:36Z</time>
      </trkpt>
      <trkpt lat="44.29841" lon="1.87397">
        <ele>406.4</ele>
        <time>2023-08-20T15:45:39Z</time>
      </trkpt>
      <trkpt lat="44.29785" lon="1.87345">
        <ele>406.6</ele>
        <time>2023-08-20T15:45:42Z</time>
      </trkpt>
      <trkpt lat="44.29767" lon="1.87327">
        <ele>406.4</ele>
        <time>2023-08-20T15:45:43Z</time>
      </trkpt>
      <trkpt lat="44.29749" lon="1.8731">
        <ele>406.6</ele>
        <time>2023-08-20T15:45:44Z</time>
      </trkpt>
      <trkpt lat="44.2973" lon="1.87292">
        <ele>406.6</ele>
        <time>2023-08-20T15:45:45Z</time>
      </trkpt>
      <trkpt lat="44.29709" lon="1.87272">
        <ele>406.6</ele>
        <time>2023-08-20T15:45:46Z</time>
      </trkpt>
      <trkpt lat="44.29694" lon="1.87258">
        <ele>406.6</ele>
        <time>2023-08-20T15:45:47Z</time>
      </trkpt>
      <trkpt lat="44.29673" lon="1.87238">
        <ele>406.8</ele>
        <time>2023-08-20T15:45:48Z</time>
      </trkpt>
      <trkpt lat="44.29659" lon="1.87225">
        <ele>407</ele>
        <time>2023-08-20T15:45:49Z</time>
      </trkpt>
      <trkpt lat="44.29641" lon="1.87208">
        <ele>407.4</ele>
        <time>2023-08-20T15:45:50Z</time>
      </trkpt>
      <trkpt lat="44.29622" lon="1.87191">
        <ele>407.8</ele>
        <time>2023-08-20T15:45:51Z</time>
      </trkpt>
      <trkpt lat="44.29604" lon="1.87174">
        <ele>408.2</ele>
        <time>2023-08-20T15:45:52Z</time>
      </trkpt>
      <trkpt lat="44.29585" lon="1.87156">
        <ele>408.6</ele>
        <time>2023-08-20T15:45:53Z</time>
      </trkpt>
      <trkpt lat="44.29566" lon="1.87138">
        <ele>408.8</ele>
        <time>2023-08-20T15:45:54Z</time>
      </trkpt>
      <trkpt lat="44.29548" lon="1.8712">
        <ele>408.8</ele>
        <time>2023-08-20T15:45:55Z</time>
      </trkpt>
      <trkpt lat="44.29529" lon="1.87103">
        <ele>409</ele>
        <time>2023-08-20T15:45:56Z</time>
      </trkpt>
      <trkpt lat="44.29511" lon="1.87086">
        <ele>409</ele>
        <time>2023-08-20T15:45:57Z</time>
      </trkpt>
      <trkpt lat="44.29488" lon="1.87065">
        <ele>408.8</ele>
        <time>2023-08-20T15:45:58Z</time>
      </trkpt>
      <trkpt lat="44.29473" lon="1.87051">
        <ele>408.8</ele>
        <time>2023-08-20T15:45:59Z</time>
      </trkpt>
      <trkpt lat="44.29455" lon="1.87034">
        <ele>408.4</ele>
        <time>2023-08-20T15:46:00Z</time>
      </trkpt>
      <trkpt lat="44.29433" lon="1.87013">
        <ele>408.4</ele>
        <time>2023-08-20T15:46:01Z</time>
      </trkpt>
      <trkpt lat="44.29419" lon="1.87">
        <ele>407.8</ele>
        <time>2023-08-20T15:46:02Z</time>
      </trkpt>
      <trkpt lat="44.29401" lon="1.86982">
        <ele>407.4</ele>
        <time>2023-08-20T15:46:03Z</time>
      </trkpt>
      <trkpt lat="44.29383" lon="1.86965">
        <ele>407.2</ele>
        <time>2023-08-20T15:46:04Z</time>
      </trkpt>
      <trkpt lat="44.29364" lon="1.86947">
        <ele>406.6</ele>
        <time>2023-08-20T15:46:05Z</time>
      </trkpt>
      <trkpt lat="44.29345" lon="1.8693">
        <ele>406.6</ele>
        <time>2023-08-20T15:46:06Z</time>
      </trkpt>
      <trkpt lat="44.29327" lon="1.86912">
        <ele>406.2</ele>
        <time>2023-08-20T15:46:07Z</time>
      </trkpt>
      <trkpt lat="44.2929" lon="1.86877">
        <ele>405.6</ele>
        <time>2023-08-20T15:46:09Z</time>
      </trkpt>
      <trkpt lat="44.29271" lon="1.86859">
        <ele>405.4</ele>
        <time>2023-08-20T15:46:10Z</time>
      </trkpt>
      <trkpt lat="44.29207" lon="1.86798">
        <ele>405.4</ele>
        <time>2023-08-20T15:46:13Z</time>
      </trkpt>
      <trkpt lat="44.29183" lon="1.86776">
        <ele>405.4</ele>
        <time>2023-08-20T15:46:14Z</time>
      </trkpt>
      <trkpt lat="44.29133" lon="1.8673">
        <ele>406</ele>
        <time>2023-08-20T15:46:16Z</time>
      </trkpt>
      <trkpt lat="44.29108" lon="1.86705">
        <ele>407</ele>
        <time>2023-08-20T15:46:17Z</time>
      </trkpt>
      <trkpt lat="44.29082" lon="1.86681">
        <ele>408.4</ele>
        <time>2023-08-20T15:46:18Z</time>
      </trkpt>
      <trkpt lat="44.29029" lon="1.86631">
        <ele>411</ele>
        <time>2023-08-20T15:46:20Z</time>
      </trkpt>
      <trkpt lat="44.29003" lon="1.86606">
        <ele>413.4</ele>
        <time>2023-08-20T15:46:21Z</time>
      </trkpt>
      <trkpt lat="44.28949" lon="1.86556">
        <ele>415.6</ele>
        <time>2023-08-20T15:46:23Z</time>
      </trkpt>
      <trkpt lat="44.28922" lon="1.8653">
        <ele>416.4</ele>
        <time>2023-08-20T15:46:24Z</time>
      </trkpt>
      <trkpt lat="44.28894" lon="1.86503">
        <ele>417.8</ele>
        <time>2023-08-20T15:46:25Z</time>
      </trkpt>
      <trkpt lat="44.28866" lon="1.86476">
        <ele>418.4</ele>
        <time>2023-08-20T15:46:26Z</time>
      </trkpt>
      <trkpt lat="44.28838" lon="1.86449">
        <ele>420.4</ele>
        <time>2023-08-20T15:46:27Z</time>
      </trkpt>
      <trkpt lat="44.2881" lon="1.86422">
        <ele>421.2</ele>
        <time>2023-08-20T15:46:28Z</time>
      </trkpt>
      <trkpt lat="44.28782" lon="1.86396">
        <ele>422.6</ele>
        <time>2023-08-20T15:46:29Z</time>
      </trkpt>
      <trkpt lat="44.28755" lon="1.86369">
        <ele>423</ele>
        <time>2023-08-20T15:46:30Z</time>
      </trkpt>
      <trkpt lat="44.28727" lon="1.86343">
        <ele>423.2</ele>
        <time>2023-08-20T15:46:31Z</time>
      </trkpt>
      <trkpt lat="44.28701" lon="1.86318">
        <ele>423.2</ele>
        <time>2023-08-20T15:46:32Z</time>
      </trkpt>
      <trkpt lat="44.28675" lon="1.86293">
        <ele>423.2</ele>
        <time>2023-08-20T15:46:33Z</time>
      </trkpt>
      <trkpt lat="44.28647" lon="1.86266">
        <ele>423.4</ele>
        <time>2023-08-20T15:46:34Z</time>
      </trkpt>
      <trkpt lat="44.28624" lon="1.86244">
        <ele>422.8</ele>
        <time>2023-08-20T15:46:35Z</time>
      </trkpt>
      <trkpt lat="44.28601" lon="1.86222">
        <ele>421.4</ele>
        <time>2023-08-20T15:46:36Z</time>
      </trkpt>
      <trkpt lat="44.28579" lon="1.86202">
        <ele>420.8</ele>
        <time>2023-08-20T15:46:37Z</time>
      </trkpt>
      <trkpt lat="44.28562" lon="1.86185">
        <ele>419</ele>
        <time>2023-08-20T15:46:38Z</time>
      </trkpt>
      <trkpt lat="44.28536" lon="1.8616">
        <ele>417</ele>
        <time>2023-08-20T15:46:39Z</time>
      </trkpt>
      <trkpt lat="44.28514" lon="1.86139">
        <ele>416.4</ele>
        <time>2023-08-20T15:46:40Z</time>
      </trkpt>
      <trkpt lat="44.28493" lon="1.86119">
        <ele>415.2</ele>
        <time>2023-08-20T15:46:41Z</time>
      </trkpt>
      <trkpt lat="44.28471" lon="1.86098">
        <ele>415</ele>
        <time>2023-08-20T15:46:42Z</time>
      </trkpt>
      <trkpt lat="44.28453" lon="1.86081">
        <ele>414.8</ele>
        <time>2023-08-20T15:46:43Z</time>
      </trkpt>
      <trkpt lat="44.28427" lon="1.86056">
        <ele>414.8</ele>
        <time>2023-08-20T15:46:44Z</time>
      </trkpt>
      <trkpt lat="44.28405" lon="1.86035">
        <ele>414.6</ele>
        <time>2023-08-20T15:46:45Z</time>
      </trkpt>
      <trkpt lat="44.28384" lon="1.86015">
        <ele>414.6</ele>
        <time>2023-08-20T15:46:46Z</time>
      </trkpt>
      <trkpt lat="44.28363" lon="1.85995">
        <ele>414.6</ele>
        <time>2023-08-20T15:46:47Z</time>
      </trkpt>
      <trkpt lat="44.28343" lon="1.85976">
        <ele>415.4</ele>
        <time>2023-08-20T15:46:48Z</time>
      </trkpt>
      <trkpt lat="44.28323" lon="1.85957">
        <ele>415.8</ele>
        <time>2023-08-20T15:46:49Z</time>
      </trkpt>
      <trkpt lat="44.28304" lon="1.85939">
        <ele>416.4</ele>
        <time>2023-08-20T15:46:50Z</time>
      </trkpt>
      <trkpt lat="44.28285" lon="1.85921">
        <ele>416.6</ele>
        <time>2023-08-20T15:46:51Z</time>
      </trkpt>
      <trkpt lat="44.28267" lon="1.85904">
        <ele>417</ele>
        <time>2023-08-20T15:46:52Z</time>
      </trkpt>
      <trkpt lat="44.28253" lon="1.85891">
        <ele>417.2</ele>
        <time>2023-08-20T15:46:53Z</time>
      </trkpt>
      <trkpt lat="44.28233" lon="1.85871">
        <ele>417.2</ele>
        <time>2023-08-20T15:46:54Z</time>
      </trkpt>
      <trkpt lat="44.28217" lon="1.85856">
        <ele>417.2</ele>
        <time>2023-08-20T15:46:55Z</time>
      </trkpt>
      <trkpt lat="44.28201" lon="1.85842">
        <ele>417.2</ele>
        <time>2023-08-20T15:46:56Z</time>
      </trkpt>
      <trkpt lat="44.28188" lon="1.85832">
        <ele>417</ele>
        <time>2023-08-20T15:46:57Z</time>
      </trkpt>
      <trkpt lat="44.28168" lon="1.85818">
        <ele>416.8</ele>
        <time>2023-08-20T15:46:58Z</time>
      </trkpt>
      <trkpt lat="44.28149" lon="1.85808">
        <ele>416.2</ele>
        <time>2023-08-20T15:46:59Z</time>
      </trkpt>
      <trkpt lat="44.28129" lon="1.85801">
        <ele>415.8</ele>
        <time>2023-08-20T15:47:00Z</time>
      </trkpt>
      <trkpt lat="44.28109" lon="1.85795">
        <ele>414.8</ele>
        <time>2023-08-20T15:47:01Z</time>
      </trkpt>
      <trkpt lat="44.28066" lon="1.85789">
        <ele>413.4</ele>
        <time>2023-08-20T15:47:03Z</time>
      </trkpt>
      <trkpt lat="44.28025" lon="1.85783">
        <ele>412</ele>
        <time>2023-08-20T15:47:05Z</time>
      </trkpt>
      <trkpt lat="44.27979" lon="1.85777">
        <ele>411</ele>
        <time>2023-08-20T15:47:07Z</time>
      </trkpt>
      <trkpt lat="44.27955" lon="1.85773">
        <ele>410.2</ele>
        <time>2023-08-20T15:47:08Z</time>
      </trkpt>
      <trkpt lat="44.27931" lon="1.85769">
        <ele>409.4</ele>
        <time>2023-08-20T15:47:09Z</time>
      </trkpt>
      <trkpt lat="44.27881" lon="1.85762">
        <ele>408.4</ele>
        <time>2023-08-20T15:47:11Z</time>
      </trkpt>
      <trkpt lat="44.27824" lon="1.85753">
        <ele>408</ele>
        <time>2023-08-20T15:47:13Z</time>
      </trkpt>
      <trkpt lat="44.27749" lon="1.85742">
        <ele>408</ele>
        <time>2023-08-20T15:47:16Z</time>
      </trkpt>
      <trkpt lat="44.27688" lon="1.85733">
        <ele>408.6</ele>
        <time>2023-08-20T15:47:18Z</time>
      </trkpt>
      <trkpt lat="44.2766" lon="1.85729">
        <ele>409.4</ele>
        <time>2023-08-20T15:47:19Z</time>
      </trkpt>
      <trkpt lat="44.27632" lon="1.85725">
        <ele>409.6</ele>
        <time>2023-08-20T15:47:20Z</time>
      </trkpt>
      <trkpt lat="44.27547" lon="1.85711">
        <ele>410.4</ele>
        <time>2023-08-20T15:47:23Z</time>
      </trkpt>
      <trkpt lat="44.2749" lon="1.85703">
        <ele>410.8</ele>
        <time>2023-08-20T15:47:25Z</time>
      </trkpt>
      <trkpt lat="44.27438" lon="1.85695">
        <ele>411</ele>
        <time>2023-08-20T15:47:27Z</time>
      </trkpt>
      <trkpt lat="44.27382" lon="1.85687">
        <ele>411</ele>
        <time>2023-08-20T15:47:29Z</time>
      </trkpt>
      <trkpt lat="44.27326" lon="1.85678">
        <ele>410.8</ele>
        <time>2023-08-20T15:47:31Z</time>
      </trkpt>
      <trkpt lat="44.27299" lon="1.85674">
        <ele>410.8</ele>
        <time>2023-08-20T15:47:32Z</time>
      </trkpt>
      <trkpt lat="44.27267" lon="1.85669">
        <ele>410.4</ele>
        <time>2023-08-20T15:47:33Z</time>
      </trkpt>
      <trkpt lat="44.27242" lon="1.85664">
        <ele>410.2</ele>
        <time>2023-08-20T15:47:34Z</time>
      </trkpt>
      <trkpt lat="44.27217" lon="1.8566">
        <ele>409.8</ele>
        <time>2023-08-20T15:47:35Z</time>
      </trkpt>
      <trkpt lat="44.27197" lon="1.85657">
        <ele>409.8</ele>
        <time>2023-08-20T15:47:36Z</time>
      </trkpt>
      <trkpt lat="44.27174" lon="1.85653">
        <ele>409.6</ele>
        <time>2023-08-20T15:47:37Z</time>
      </trkpt>
      <trkpt lat="44.27147" lon="1.85648">
        <ele>409.4</ele>
        <time>2023-08-20T15:47:38Z</time>
      </trkpt>
      <trkpt lat="44.27126" lon="1.85644">
        <ele>409.2</ele>
        <time>2023-08-20T15:47:39Z</time>
      </trkpt>
      <trkpt lat="44.27109" lon="1.85642">
        <ele>409</ele>
        <time>2023-08-20T15:47:40Z</time>
      </trkpt>
      <trkpt lat="44.2709" lon="1.85638">
        <ele>409</ele>
        <time>2023-08-20T15:47:41Z</time>
      </trkpt>
      <trkpt lat="44.27072" lon="1.85634">
        <ele>408.6</ele>
        <time>2023-08-20T15:47:42Z</time>
      </trkpt>
      <trkpt lat="44.27055" lon="1.85631">
        <ele>408.6</ele>
        <time>2023-08-20T15:47:43Z</time>
      </trkpt>
      <trkpt lat="44.27039" lon="1.85628">
        <ele>408.2</ele>
        <time>2023-08-20T15:47:44Z</time>
      </trkpt>
      <trkpt lat="44.27024" lon="1.85626">
        <ele>407.8</ele>
        <time>2023-08-20T15:47:45Z</time>
      </trkpt>
      <trkpt lat="44.2701" lon="1.85623">
        <ele>407</ele>
        <time>2023-08-20T15:47:46Z</time>
      </trkpt>
      <trkpt lat="44.26997" lon="1.85621">
        <ele>406.6</ele>
        <time>2023-08-20T15:47:47Z</time>
      </trkpt>
      <trkpt lat="44.26984" lon="1.85618">
        <ele>406</ele>
        <time>2023-08-20T15:47:48Z</time>
      </trkpt>
      <trkpt lat="44.26971" lon="1.85614">
        <ele>405.4</ele>
        <time>2023-08-20T15:47:49Z</time>
      </trkpt>
      <trkpt lat="44.2696" lon="1.85609">
        <ele>404.8</ele>
        <time>2023-08-20T15:47:50Z</time>
      </trkpt>
      <trkpt lat="44.26953" lon="1.85605">
        <ele>404.2</ele>
        <time>2023-08-20T15:47:51Z</time>
      </trkpt>
      <trkpt lat="44.26945" lon="1.85598">
        <ele>404</ele>
        <time>2023-08-20T15:47:52Z</time>
      </trkpt>
      <trkpt lat="44.26939" lon="1.85592">
        <ele>403.6</ele>
        <time>2023-08-20T15:47:53Z</time>
      </trkpt>
      <trkpt lat="44.26932" lon="1.85588">
        <ele>403.4</ele>
        <time>2023-08-20T15:47:54Z</time>
      </trkpt>
      <trkpt lat="44.26925" lon="1.85588">
        <ele>403</ele>
        <time>2023-08-20T15:47:55Z</time>
      </trkpt>
      <trkpt lat="44.26917" lon="1.85589">
        <ele>402.8</ele>
        <time>2023-08-20T15:47:56Z</time>
      </trkpt>
      <trkpt lat="44.26907" lon="1.85589">
        <ele>402.8</ele>
        <time>2023-08-20T15:47:57Z</time>
      </trkpt>
      <trkpt lat="44.26895" lon="1.85586">
        <ele>402.8</ele>
        <time>2023-08-20T15:47:58Z</time>
      </trkpt>
      <trkpt lat="44.26879" lon="1.8558">
        <ele>402.8</ele>
        <time>2023-08-20T15:47:59Z</time>
      </trkpt>
      <trkpt lat="44.26849" lon="1.85562">
        <ele>402.8</ele>
        <time>2023-08-20T15:48:01Z</time>
      </trkpt>
      <trkpt lat="44.2683" lon="1.85542">
        <ele>402.8</ele>
        <time>2023-08-20T15:48:02Z</time>
      </trkpt>
      <trkpt lat="44.26818" lon="1.85526">
        <ele>403</ele>
        <time>2023-08-20T15:48:03Z</time>
      </trkpt>
      <trkpt lat="44.26804" lon="1.85502">
        <ele>405</ele>
        <time>2023-08-20T15:48:04Z</time>
      </trkpt>
      <trkpt lat="44.26791" lon="1.85476">
        <ele>406.4</ele>
        <time>2023-08-20T15:48:05Z</time>
      </trkpt>
      <trkpt lat="44.26781" lon="1.85447">
        <ele>406.8</ele>
        <time>2023-08-20T15:48:06Z</time>
      </trkpt>
      <trkpt lat="44.26772" lon="1.85418">
        <ele>407.6</ele>
        <time>2023-08-20T15:48:07Z</time>
      </trkpt>
      <trkpt lat="44.26766" lon="1.85388">
        <ele>408.2</ele>
        <time>2023-08-20T15:48:08Z</time>
      </trkpt>
      <trkpt lat="44.26761" lon="1.85358">
        <ele>409.6</ele>
        <time>2023-08-20T15:48:09Z</time>
      </trkpt>
      <trkpt lat="44.26759" lon="1.85328">
        <ele>410.4</ele>
        <time>2023-08-20T15:48:10Z</time>
      </trkpt>
      <trkpt lat="44.26757" lon="1.85298">
        <ele>411.4</ele>
        <time>2023-08-20T15:48:11Z</time>
      </trkpt>
      <trkpt lat="44.26756" lon="1.85269">
        <ele>411.6</ele>
        <time>2023-08-20T15:48:12Z</time>
      </trkpt>
      <trkpt lat="44.26755" lon="1.85203">
        <ele>412</ele>
        <time>2023-08-20T15:48:14Z</time>
      </trkpt>
      <trkpt lat="44.26754" lon="1.85179">
        <ele>412</ele>
        <time>2023-08-20T15:48:15Z</time>
      </trkpt>
      <trkpt lat="44.26753" lon="1.85148">
        <ele>412</ele>
        <time>2023-08-20T15:48:16Z</time>
      </trkpt>
      <trkpt lat="44.26752" lon="1.85118">
        <ele>412.2</ele>
        <time>2023-08-20T15:48:17Z</time>
      </trkpt>
      <trkpt lat="44.26751" lon="1.85088">
        <ele>412</ele>
        <time>2023-08-20T15:48:18Z</time>
      </trkpt>
      <trkpt lat="44.2675" lon="1.85058">
        <ele>412</ele>
        <time>2023-08-20T15:48:19Z</time>
      </trkpt>
      <trkpt lat="44.2675" lon="1.85029">
        <ele>412</ele>
        <time>2023-08-20T15:48:20Z</time>
      </trkpt>
      <trkpt lat="44.26749" lon="1.85">
        <ele>412</ele>
        <time>2023-08-20T15:48:21Z</time>
      </trkpt>
      <trkpt lat="44.26748" lon="1.84966">
        <ele>412</ele>
        <time>2023-08-20T15:48:22Z</time>
      </trkpt>
      <trkpt lat="44.26747" lon="1.8494">
        <ele>411.8</ele>
        <time>2023-08-20T15:48:23Z</time>
      </trkpt>
      <trkpt lat="44.26745" lon="1.84913">
        <ele>411.8</ele>
        <time>2023-08-20T15:48:24Z</time>
      </trkpt>
      <trkpt lat="44.26742" lon="1.84891">
        <ele>411.8</ele>
        <time>2023-08-20T15:48:25Z</time>
      </trkpt>
      <trkpt lat="44.26737" lon="1.84858">
        <ele>411.6</ele>
        <time>2023-08-20T15:48:26Z</time>
      </trkpt>
      <trkpt lat="44.26734" lon="1.84834">
        <ele>411.6</ele>
        <time>2023-08-20T15:48:27Z</time>
      </trkpt>
      <trkpt lat="44.26728" lon="1.84805">
        <ele>411.6</ele>
        <time>2023-08-20T15:48:28Z</time>
      </trkpt>
      <trkpt lat="44.26723" lon="1.84775">
        <ele>411.6</ele>
        <time>2023-08-20T15:48:29Z</time>
      </trkpt>
      <trkpt lat="44.26718" lon="1.84744">
        <ele>411.6</ele>
        <time>2023-08-20T15:48:30Z</time>
      </trkpt>
      <trkpt lat="44.26712" lon="1.84713">
        <ele>411.6</ele>
        <time>2023-08-20T15:48:31Z</time>
      </trkpt>
      <trkpt lat="44.26706" lon="1.8468">
        <ele>411.8</ele>
        <time>2023-08-20T15:48:32Z</time>
      </trkpt>
      <trkpt lat="44.26699" lon="1.8464">
        <ele>411.8</ele>
        <time>2023-08-20T15:48:33Z</time>
      </trkpt>
      <trkpt lat="44.26693" lon="1.84606">
        <ele>411.8</ele>
        <time>2023-08-20T15:48:34Z</time>
      </trkpt>
      <trkpt lat="44.26687" lon="1.84578">
        <ele>411.8</ele>
        <time>2023-08-20T15:48:35Z</time>
      </trkpt>
      <trkpt lat="44.26679" lon="1.84535">
        <ele>412</ele>
        <time>2023-08-20T15:48:36Z</time>
      </trkpt>
      <trkpt lat="44.26674" lon="1.84506">
        <ele>412.2</ele>
        <time>2023-08-20T15:48:37Z</time>
      </trkpt>
      <trkpt lat="44.26666" lon="1.84461">
        <ele>412.2</ele>
        <time>2023-08-20T15:48:38Z</time>
      </trkpt>
      <trkpt lat="44.26654" lon="1.84393">
        <ele>412.4</ele>
        <time>2023-08-20T15:48:40Z</time>
      </trkpt>
      <trkpt lat="44.26639" lon="1.84309">
        <ele>412.4</ele>
        <time>2023-08-20T15:48:42Z</time>
      </trkpt>
      <trkpt lat="44.26619" lon="1.84203">
        <ele>412.4</ele>
        <time>2023-08-20T15:48:45Z</time>
      </trkpt>
      <trkpt lat="44.26612" lon="1.84167">
        <ele>412.4</ele>
        <time>2023-08-20T15:48:46Z</time>
      </trkpt>
      <trkpt lat="44.26604" lon="1.84123">
        <ele>412.4</ele>
        <time>2023-08-20T15:48:47Z</time>
      </trkpt>
      <trkpt lat="44.26599" lon="1.84094">
        <ele>412.4</ele>
        <time>2023-08-20T15:48:48Z</time>
      </trkpt>
      <trkpt lat="44.26593" lon="1.84058">
        <ele>412.6</ele>
        <time>2023-08-20T15:48:49Z</time>
      </trkpt>
      <trkpt lat="44.26586" lon="1.84021">
        <ele>412.8</ele>
        <time>2023-08-20T15:48:50Z</time>
      </trkpt>
      <trkpt lat="44.26571" lon="1.8394">
        <ele>413</ele>
        <time>2023-08-20T15:48:52Z</time>
      </trkpt>
      <trkpt lat="44.26565" lon="1.83911">
        <ele>413</ele>
        <time>2023-08-20T15:48:53Z</time>
      </trkpt>
      <trkpt lat="44.26552" lon="1.83839">
        <ele>412.8</ele>
        <time>2023-08-20T15:48:55Z</time>
      </trkpt>
      <trkpt lat="44.26546" lon="1.83803">
        <ele>412.8</ele>
        <time>2023-08-20T15:48:56Z</time>
      </trkpt>
      <trkpt lat="44.26539" lon="1.83766">
        <ele>412.8</ele>
        <time>2023-08-20T15:48:57Z</time>
      </trkpt>
      <trkpt lat="44.26525" lon="1.83693">
        <ele>412.6</ele>
        <time>2023-08-20T15:49:00Z</time>
      </trkpt>
      <trkpt lat="44.26512" lon="1.83619">
        <ele>411.2</ele>
        <time>2023-08-20T15:49:02Z</time>
      </trkpt>
      <trkpt lat="44.26504" lon="1.83574">
        <ele>410.4</ele>
        <time>2023-08-20T15:49:03Z</time>
      </trkpt>
      <trkpt lat="44.26498" lon="1.83545">
        <ele>408.8</ele>
        <time>2023-08-20T15:49:04Z</time>
      </trkpt>
      <trkpt lat="44.26485" lon="1.83471">
        <ele>406.4</ele>
        <time>2023-08-20T15:49:06Z</time>
      </trkpt>
      <trkpt lat="44.26478" lon="1.83434">
        <ele>404.8</ele>
        <time>2023-08-20T15:49:07Z</time>
      </trkpt>
      <trkpt lat="44.26464" lon="1.8336">
        <ele>402.2</ele>
        <time>2023-08-20T15:49:09Z</time>
      </trkpt>
      <trkpt lat="44.26457" lon="1.83322">
        <ele>401</ele>
        <time>2023-08-20T15:49:10Z</time>
      </trkpt>
      <trkpt lat="44.26451" lon="1.83285">
        <ele>399.4</ele>
        <time>2023-08-20T15:49:11Z</time>
      </trkpt>
      <trkpt lat="44.26444" lon="1.83248">
        <ele>398</ele>
        <time>2023-08-20T15:49:12Z</time>
      </trkpt>
      <trkpt lat="44.26437" lon="1.83211">
        <ele>396.6</ele>
        <time>2023-08-20T15:49:13Z</time>
      </trkpt>
      <trkpt lat="44.2643" lon="1.83174">
        <ele>395.4</ele>
        <time>2023-08-20T15:49:14Z</time>
      </trkpt>
      <trkpt lat="44.26423" lon="1.83137">
        <ele>393.8</ele>
        <time>2023-08-20T15:49:15Z</time>
      </trkpt>
      <trkpt lat="44.26416" lon="1.83099">
        <ele>392.8</ele>
        <time>2023-08-20T15:49:16Z</time>
      </trkpt>
      <trkpt lat="44.26402" lon="1.83023">
        <ele>391</ele>
        <time>2023-08-20T15:49:18Z</time>
      </trkpt>
      <trkpt lat="44.26388" lon="1.82947">
        <ele>389.6</ele>
        <time>2023-08-20T15:49:20Z</time>
      </trkpt>
      <trkpt lat="44.26374" lon="1.82872">
        <ele>388</ele>
        <time>2023-08-20T15:49:22Z</time>
      </trkpt>
      <trkpt lat="44.2636" lon="1.82797">
        <ele>386.6</ele>
        <time>2023-08-20T15:49:24Z</time>
      </trkpt>
      <trkpt lat="44.26353" lon="1.8276">
        <ele>385.4</ele>
        <time>2023-08-20T15:49:25Z</time>
      </trkpt>
      <trkpt lat="44.2634" lon="1.82686">
        <ele>384.2</ele>
        <time>2023-08-20T15:49:27Z</time>
      </trkpt>
      <trkpt lat="44.26326" lon="1.82611">
        <ele>383.6</ele>
        <time>2023-08-20T15:49:29Z</time>
      </trkpt>
      <trkpt lat="44.26311" lon="1.82531">
        <ele>383</ele>
        <time>2023-08-20T15:49:31Z</time>
      </trkpt>
      <trkpt lat="44.26302" lon="1.82488">
        <ele>383</ele>
        <time>2023-08-20T15:49:32Z</time>
      </trkpt>
      <trkpt lat="44.26285" lon="1.82398">
        <ele>383</ele>
        <time>2023-08-20T15:49:34Z</time>
      </trkpt>
      <trkpt lat="44.26277" lon="1.82354">
        <ele>383</ele>
        <time>2023-08-20T15:49:35Z</time>
      </trkpt>
      <trkpt lat="44.26263" lon="1.82271">
        <ele>383.4</ele>
        <time>2023-08-20T15:49:37Z</time>
      </trkpt>
      <trkpt lat="44.26256" lon="1.82233">
        <ele>383.6</ele>
        <time>2023-08-20T15:49:38Z</time>
      </trkpt>
      <trkpt lat="44.26249" lon="1.82196">
        <ele>383.6</ele>
        <time>2023-08-20T15:49:39Z</time>
      </trkpt>
      <trkpt lat="44.26243" lon="1.82159">
        <ele>383.6</ele>
        <time>2023-08-20T15:49:40Z</time>
      </trkpt>
      <trkpt lat="44.26236" lon="1.82123">
        <ele>383.6</ele>
        <time>2023-08-20T15:49:41Z</time>
      </trkpt>
      <trkpt lat="44.26229" lon="1.82088">
        <ele>383.6</ele>
        <time>2023-08-20T15:49:42Z</time>
      </trkpt>
      <trkpt lat="44.26222" lon="1.82054">
        <ele>382.8</ele>
        <time>2023-08-20T15:49:43Z</time>
      </trkpt>
      <trkpt lat="44.26216" lon="1.8202">
        <ele>382.2</ele>
        <time>2023-08-20T15:49:44Z</time>
      </trkpt>
      <trkpt lat="44.2621" lon="1.81988">
        <ele>381.6</ele>
        <time>2023-08-20T15:49:45Z</time>
      </trkpt>
      <trkpt lat="44.26205" lon="1.81958">
        <ele>381.2</ele>
        <time>2023-08-20T15:49:46Z</time>
      </trkpt>
      <trkpt lat="44.262" lon="1.81928">
        <ele>380.2</ele>
        <time>2023-08-20T15:49:47Z</time>
      </trkpt>
      <trkpt lat="44.26195" lon="1.81899">
        <ele>379.4</ele>
        <time>2023-08-20T15:49:48Z</time>
      </trkpt>
      <trkpt lat="44.26189" lon="1.81869">
        <ele>378.4</ele>
        <time>2023-08-20T15:49:49Z</time>
      </trkpt>
      <trkpt lat="44.26183" lon="1.8184">
        <ele>378.2</ele>
        <time>2023-08-20T15:49:50Z</time>
      </trkpt>
      <trkpt lat="44.26175" lon="1.81804">
        <ele>377.8</ele>
        <time>2023-08-20T15:49:51Z</time>
      </trkpt>
      <trkpt lat="44.26146" lon="1.81721">
        <ele>377.6</ele>
        <time>2023-08-20T15:49:54Z</time>
      </trkpt>
      <trkpt lat="44.26098" lon="1.81631">
        <ele>378</ele>
        <time>2023-08-20T15:49:57Z</time>
      </trkpt>
      <trkpt lat="44.26064" lon="1.81571">
        <ele>379.2</ele>
        <time>2023-08-20T15:49:59Z</time>
      </trkpt>
      <trkpt lat="44.26046" lon="1.8154">
        <ele>380.2</ele>
        <time>2023-08-20T15:50:00Z</time>
      </trkpt>
      <trkpt lat="44.26029" lon="1.8151">
        <ele>381.4</ele>
        <time>2023-08-20T15:50:01Z</time>
      </trkpt>
      <trkpt lat="44.25995" lon="1.81451">
        <ele>383.4</ele>
        <time>2023-08-20T15:50:03Z</time>
      </trkpt>
      <trkpt lat="44.25945" lon="1.81364">
        <ele>384.4</ele>
        <time>2023-08-20T15:50:06Z</time>
      </trkpt>
      <trkpt lat="44.25929" lon="1.81335">
        <ele>384.6</ele>
        <time>2023-08-20T15:50:07Z</time>
      </trkpt>
      <trkpt lat="44.25913" lon="1.81307">
        <ele>384.6</ele>
        <time>2023-08-20T15:50:08Z</time>
      </trkpt>
      <trkpt lat="44.25898" lon="1.8128">
        <ele>384.6</ele>
        <time>2023-08-20T15:50:09Z</time>
      </trkpt>
      <trkpt lat="44.25882" lon="1.81254">
        <ele>384.6</ele>
        <time>2023-08-20T15:50:10Z</time>
      </trkpt>
      <trkpt lat="44.25868" lon="1.81228">
        <ele>384.6</ele>
        <time>2023-08-20T15:50:11Z</time>
      </trkpt>
      <trkpt lat="44.25854" lon="1.81202">
        <ele>384.6</ele>
        <time>2023-08-20T15:50:12Z</time>
      </trkpt>
      <trkpt lat="44.2584" lon="1.81176">
        <ele>384.6</ele>
        <time>2023-08-20T15:50:13Z</time>
      </trkpt>
      <trkpt lat="44.25825" lon="1.81148">
        <ele>384.6</ele>
        <time>2023-08-20T15:50:14Z</time>
      </trkpt>
      <trkpt lat="44.2581" lon="1.81121">
        <ele>384.6</ele>
        <time>2023-08-20T15:50:15Z</time>
      </trkpt>
      <trkpt lat="44.25794" lon="1.81093">
        <ele>384.8</ele>
        <time>2023-08-20T15:50:16Z</time>
      </trkpt>
      <trkpt lat="44.25778" lon="1.81065">
        <ele>384.6</ele>
        <time>2023-08-20T15:50:17Z</time>
      </trkpt>
      <trkpt lat="44.25762" lon="1.81038">
        <ele>384.8</ele>
        <time>2023-08-20T15:50:18Z</time>
      </trkpt>
      <trkpt lat="44.25746" lon="1.81011">
        <ele>384.8</ele>
        <time>2023-08-20T15:50:19Z</time>
      </trkpt>
      <trkpt lat="44.2573" lon="1.80985">
        <ele>384.8</ele>
        <time>2023-08-20T15:50:20Z</time>
      </trkpt>
      <trkpt lat="44.25715" lon="1.80962">
        <ele>384.8</ele>
        <time>2023-08-20T15:50:21Z</time>
      </trkpt>
      <trkpt lat="44.25701" lon="1.80939">
        <ele>384.8</ele>
        <time>2023-08-20T15:50:22Z</time>
      </trkpt>
      <trkpt lat="44.25687" lon="1.80918">
        <ele>384.6</ele>
        <time>2023-08-20T15:50:23Z</time>
      </trkpt>
      <trkpt lat="44.25674" lon="1.80899">
        <ele>384.4</ele>
        <time>2023-08-20T15:50:24Z</time>
      </trkpt>
      <trkpt lat="44.2566" lon="1.80881">
        <ele>384</ele>
        <time>2023-08-20T15:50:25Z</time>
      </trkpt>
      <trkpt lat="44.25647" lon="1.80867">
        <ele>384</ele>
        <time>2023-08-20T15:50:26Z</time>
      </trkpt>
      <trkpt lat="44.25633" lon="1.80856">
        <ele>383</ele>
        <time>2023-08-20T15:50:27Z</time>
      </trkpt>
      <trkpt lat="44.25617" lon="1.80849">
        <ele>382.4</ele>
        <time>2023-08-20T15:50:28Z</time>
      </trkpt>
      <trkpt lat="44.25601" lon="1.80844">
        <ele>382.2</ele>
        <time>2023-08-20T15:50:29Z</time>
      </trkpt>
      <trkpt lat="44.25584" lon="1.80843">
        <ele>381.4</ele>
        <time>2023-08-20T15:50:30Z</time>
      </trkpt>
      <trkpt lat="44.25565" lon="1.80843">
        <ele>380.8</ele>
        <time>2023-08-20T15:50:31Z</time>
      </trkpt>
      <trkpt lat="44.25545" lon="1.80843">
        <ele>380.2</ele>
        <time>2023-08-20T15:50:32Z</time>
      </trkpt>
      <trkpt lat="44.25488" lon="1.80838">
        <ele>379.4</ele>
        <time>2023-08-20T15:50:35Z</time>
      </trkpt>
      <trkpt lat="44.25471" lon="1.80835">
        <ele>379.4</ele>
        <time>2023-08-20T15:50:36Z</time>
      </trkpt>
      <trkpt lat="44.25454" lon="1.8083">
        <ele>379.2</ele>
        <time>2023-08-20T15:50:37Z</time>
      </trkpt>
      <trkpt lat="44.25437" lon="1.80821">
        <ele>379</ele>
        <time>2023-08-20T15:50:38Z</time>
      </trkpt>
      <trkpt lat="44.25419" lon="1.80809">
        <ele>378.8</ele>
        <time>2023-08-20T15:50:39Z</time>
      </trkpt>
      <trkpt lat="44.25401" lon="1.80793">
        <ele>378.8</ele>
        <time>2023-08-20T15:50:40Z</time>
      </trkpt>
      <trkpt lat="44.25346" lon="1.80731">
        <ele>378.6</ele>
        <time>2023-08-20T15:50:43Z</time>
      </trkpt>
      <trkpt lat="44.25327" lon="1.8071">
        <ele>378.8</ele>
        <time>2023-08-20T15:50:44Z</time>
      </trkpt>
      <trkpt lat="44.25268" lon="1.80643">
        <ele>379</ele>
        <time>2023-08-20T15:50:47Z</time>
      </trkpt>
      <trkpt lat="44.25208" lon="1.80577">
        <ele>379.8</ele>
        <time>2023-08-20T15:50:50Z</time>
      </trkpt>
      <trkpt lat="44.25148" lon="1.80509">
        <ele>379.8</ele>
        <time>2023-08-20T15:50:53Z</time>
      </trkpt>
      <trkpt lat="44.2511" lon="1.80465">
        <ele>379.6</ele>
        <time>2023-08-20T15:50:55Z</time>
      </trkpt>
      <trkpt lat="44.25089" lon="1.80438">
        <ele>379.4</ele>
        <time>2023-08-20T15:50:56Z</time>
      </trkpt>
      <trkpt lat="44.25076" lon="1.80419">
        <ele>379</ele>
        <time>2023-08-20T15:50:57Z</time>
      </trkpt>
      <trkpt lat="44.25061" lon="1.80394">
        <ele>378.6</ele>
        <time>2023-08-20T15:50:58Z</time>
      </trkpt>
      <trkpt lat="44.25047" lon="1.80367">
        <ele>377.8</ele>
        <time>2023-08-20T15:50:59Z</time>
      </trkpt>
      <trkpt lat="44.25016" lon="1.80311">
        <ele>376.4</ele>
        <time>2023-08-20T15:51:01Z</time>
      </trkpt>
      <trkpt lat="44.25" lon="1.80281">
        <ele>375.8</ele>
        <time>2023-08-20T15:51:02Z</time>
      </trkpt>
      <trkpt lat="44.24968" lon="1.80219">
        <ele>375</ele>
        <time>2023-08-20T15:51:04Z</time>
      </trkpt>
      <trkpt lat="44.24935" lon="1.80157">
        <ele>374.6</ele>
        <time>2023-08-20T15:51:06Z</time>
      </trkpt>
      <trkpt lat="44.24901" lon="1.80093">
        <ele>374.4</ele>
        <time>2023-08-20T15:51:08Z</time>
      </trkpt>
      <trkpt lat="44.24864" lon="1.80025">
        <ele>374.8</ele>
        <time>2023-08-20T15:51:10Z</time>
      </trkpt>
      <trkpt lat="44.24825" lon="1.79955">
        <ele>374.8</ele>
        <time>2023-08-20T15:51:12Z</time>
      </trkpt>
      <trkpt lat="44.24786" lon="1.79884">
        <ele>374.8</ele>
        <time>2023-08-20T15:51:14Z</time>
      </trkpt>
      <trkpt lat="44.24748" lon="1.79815">
        <ele>374.8</ele>
        <time>2023-08-20T15:51:16Z</time>
      </trkpt>
      <trkpt lat="44.2473" lon="1.79781">
        <ele>374.8</ele>
        <time>2023-08-20T15:51:17Z</time>
      </trkpt>
      <trkpt lat="44.24712" lon="1.79748">
        <ele>374.6</ele>
        <time>2023-08-20T15:51:18Z</time>
      </trkpt>
      <trkpt lat="44.24694" lon="1.79715">
        <ele>374.4</ele>
        <time>2023-08-20T15:51:19Z</time>
      </trkpt>
      <trkpt lat="44.24677" lon="1.79682">
        <ele>374.2</ele>
        <time>2023-08-20T15:51:20Z</time>
      </trkpt>
      <trkpt lat="44.2466" lon="1.79651">
        <ele>374</ele>
        <time>2023-08-20T15:51:21Z</time>
      </trkpt>
      <trkpt lat="44.24642" lon="1.79619">
        <ele>373.2</ele>
        <time>2023-08-20T15:51:22Z</time>
      </trkpt>
      <trkpt lat="44.24625" lon="1.79588">
        <ele>373.2</ele>
        <time>2023-08-20T15:51:23Z</time>
      </trkpt>
      <trkpt lat="44.24608" lon="1.79557">
        <ele>373</ele>
        <time>2023-08-20T15:51:24Z</time>
      </trkpt>
      <trkpt lat="44.24591" lon="1.79526">
        <ele>372.8</ele>
        <time>2023-08-20T15:51:25Z</time>
      </trkpt>
      <trkpt lat="44.24572" lon="1.7949">
        <ele>372</ele>
        <time>2023-08-20T15:51:26Z</time>
      </trkpt>
      <trkpt lat="44.24559" lon="1.79466">
        <ele>371.8</ele>
        <time>2023-08-20T15:51:27Z</time>
      </trkpt>
      <trkpt lat="44.24543" lon="1.79437">
        <ele>371.4</ele>
        <time>2023-08-20T15:51:28Z</time>
      </trkpt>
      <trkpt lat="44.24527" lon="1.79408">
        <ele>371.2</ele>
        <time>2023-08-20T15:51:29Z</time>
      </trkpt>
      <trkpt lat="44.24512" lon="1.79379">
        <ele>371</ele>
        <time>2023-08-20T15:51:30Z</time>
      </trkpt>
      <trkpt lat="44.24496" lon="1.79351">
        <ele>369.8</ele>
        <time>2023-08-20T15:51:31Z</time>
      </trkpt>
      <trkpt lat="44.24481" lon="1.79325">
        <ele>369.2</ele>
        <time>2023-08-20T15:51:32Z</time>
      </trkpt>
      <trkpt lat="44.24467" lon="1.79299">
        <ele>367.6</ele>
        <time>2023-08-20T15:51:33Z</time>
      </trkpt>
      <trkpt lat="44.24453" lon="1.79273">
        <ele>366.6</ele>
        <time>2023-08-20T15:51:34Z</time>
      </trkpt>
      <trkpt lat="44.2444" lon="1.79246">
        <ele>365.2</ele>
        <time>2023-08-20T15:51:35Z</time>
      </trkpt>
      <trkpt lat="44.24428" lon="1.79219">
        <ele>364.4</ele>
        <time>2023-08-20T15:51:36Z</time>
      </trkpt>
      <trkpt lat="44.24418" lon="1.7919">
        <ele>362.4</ele>
        <time>2023-08-20T15:51:37Z</time>
      </trkpt>
      <trkpt lat="44.24408" lon="1.7916">
        <ele>361</ele>
        <time>2023-08-20T15:51:38Z</time>
      </trkpt>
      <trkpt lat="44.24389" lon="1.79098">
        <ele>359.2</ele>
        <time>2023-08-20T15:51:40Z</time>
      </trkpt>
      <trkpt lat="44.2437" lon="1.79034">
        <ele>357.2</ele>
        <time>2023-08-20T15:51:42Z</time>
      </trkpt>
      <trkpt lat="44.24355" lon="1.7897">
        <ele>355</ele>
        <time>2023-08-20T15:51:44Z</time>
      </trkpt>
      <trkpt lat="44.2435" lon="1.78937">
        <ele>354.2</ele>
        <time>2023-08-20T15:51:45Z</time>
      </trkpt>
      <trkpt lat="44.24347" lon="1.78904">
        <ele>353.4</ele>
        <time>2023-08-20T15:51:46Z</time>
      </trkpt>
      <trkpt lat="44.24345" lon="1.7887">
        <ele>352.2</ele>
        <time>2023-08-20T15:51:47Z</time>
      </trkpt>
      <trkpt lat="44.24344" lon="1.78835">
        <ele>351.4</ele>
        <time>2023-08-20T15:51:48Z</time>
      </trkpt>
      <trkpt lat="44.24343" lon="1.78794">
        <ele>350</ele>
        <time>2023-08-20T15:51:49Z</time>
      </trkpt>
      <trkpt lat="44.24344" lon="1.78731">
        <ele>348.6</ele>
        <time>2023-08-20T15:51:51Z</time>
      </trkpt>
      <trkpt lat="44.24345" lon="1.78663">
        <ele>347</ele>
        <time>2023-08-20T15:51:53Z</time>
      </trkpt>
      <trkpt lat="44.24346" lon="1.78602">
        <ele>344.8</ele>
        <time>2023-08-20T15:51:55Z</time>
      </trkpt>
      <trkpt lat="44.24347" lon="1.78575">
        <ele>343.4</ele>
        <time>2023-08-20T15:51:56Z</time>
      </trkpt>
      <trkpt lat="44.24348" lon="1.7855">
        <ele>342.8</ele>
        <time>2023-08-20T15:51:57Z</time>
      </trkpt>
      <trkpt lat="44.24348" lon="1.78528">
        <ele>341.8</ele>
        <time>2023-08-20T15:51:58Z</time>
      </trkpt>
      <trkpt lat="44.24347" lon="1.78507">
        <ele>340.8</ele>
        <time>2023-08-20T15:51:59Z</time>
      </trkpt>
      <trkpt lat="44.24345" lon="1.78488">
        <ele>338.8</ele>
        <time>2023-08-20T15:52:00Z</time>
      </trkpt>
      <trkpt lat="44.24339" lon="1.7847">
        <ele>337.8</ele>
        <time>2023-08-20T15:52:01Z</time>
      </trkpt>
      <trkpt lat="44.24331" lon="1.78452">
        <ele>335.2</ele>
        <time>2023-08-20T15:52:02Z</time>
      </trkpt>
      <trkpt lat="44.2432" lon="1.78436">
        <ele>334</ele>
        <time>2023-08-20T15:52:03Z</time>
      </trkpt>
      <trkpt lat="44.24307" lon="1.78423">
        <ele>331.4</ele>
        <time>2023-08-20T15:52:04Z</time>
      </trkpt>
      <trkpt lat="44.24294" lon="1.78414">
        <ele>329.6</ele>
        <time>2023-08-20T15:52:05Z</time>
      </trkpt>
      <trkpt lat="44.24279" lon="1.78408">
        <ele>328.4</ele>
        <time>2023-08-20T15:52:06Z</time>
      </trkpt>
      <trkpt lat="44.24264" lon="1.78406">
        <ele>326.4</ele>
        <time>2023-08-20T15:52:07Z</time>
      </trkpt>
      <trkpt lat="44.24248" lon="1.78406">
        <ele>325.2</ele>
        <time>2023-08-20T15:52:08Z</time>
      </trkpt>
      <trkpt lat="44.24233" lon="1.78407">
        <ele>323.2</ele>
        <time>2023-08-20T15:52:09Z</time>
      </trkpt>
      <trkpt lat="44.24217" lon="1.78409">
        <ele>322</ele>
        <time>2023-08-20T15:52:10Z</time>
      </trkpt>
      <trkpt lat="44.242" lon="1.78413">
        <ele>320.6</ele>
        <time>2023-08-20T15:52:11Z</time>
      </trkpt>
      <trkpt lat="44.24169" lon="1.78424">
        <ele>318.4</ele>
        <time>2023-08-20T15:52:13Z</time>
      </trkpt>
      <trkpt lat="44.24154" lon="1.7843">
        <ele>316.6</ele>
        <time>2023-08-20T15:52:14Z</time>
      </trkpt>
      <trkpt lat="44.2414" lon="1.78436">
        <ele>315.6</ele>
        <time>2023-08-20T15:52:15Z</time>
      </trkpt>
      <trkpt lat="44.24128" lon="1.78442">
        <ele>313.8</ele>
        <time>2023-08-20T15:52:16Z</time>
      </trkpt>
      <trkpt lat="44.24117" lon="1.78445">
        <ele>313</ele>
        <time>2023-08-20T15:52:17Z</time>
      </trkpt>
      <trkpt lat="44.24108" lon="1.78447">
        <ele>310.8</ele>
        <time>2023-08-20T15:52:18Z</time>
      </trkpt>
      <trkpt lat="44.24099" lon="1.78446">
        <ele>310.2</ele>
        <time>2023-08-20T15:52:19Z</time>
      </trkpt>
      <trkpt lat="44.24091" lon="1.78441">
        <ele>308</ele>
        <time>2023-08-20T15:52:20Z</time>
      </trkpt>
      <trkpt lat="44.24088" lon="1.7843">
        <ele>306.8</ele>
        <time>2023-08-20T15:52:21Z</time>
      </trkpt>
      <trkpt lat="44.24088" lon="1.78416">
        <ele>304.4</ele>
        <time>2023-08-20T15:52:22Z</time>
      </trkpt>
      <trkpt lat="44.24094" lon="1.78399">
        <ele>302.2</ele>
        <time>2023-08-20T15:52:23Z</time>
      </trkpt>
      <trkpt lat="44.24114" lon="1.7837">
        <ele>300.2</ele>
        <time>2023-08-20T15:52:25Z</time>
      </trkpt>
      <trkpt lat="44.24126" lon="1.7835">
        <ele>300</ele>
        <time>2023-08-20T15:52:26Z</time>
      </trkpt>
      <trkpt lat="44.2414" lon="1.78328">
        <ele>299.6</ele>
        <time>2023-08-20T15:52:27Z</time>
      </trkpt>
      <trkpt lat="44.24167" lon="1.7828">
        <ele>299</ele>
        <time>2023-08-20T15:52:29Z</time>
      </trkpt>
      <trkpt lat="44.24183" lon="1.78251">
        <ele>298.6</ele>
        <time>2023-08-20T15:52:30Z</time>
      </trkpt>
      <trkpt lat="44.24214" lon="1.78178">
        <ele>298</ele>
        <time>2023-08-20T15:52:33Z</time>
      </trkpt>
      <trkpt lat="44.24222" lon="1.78153">
        <ele>297.8</ele>
        <time>2023-08-20T15:52:34Z</time>
      </trkpt>
      <trkpt lat="44.24227" lon="1.78134">
        <ele>297.8</ele>
        <time>2023-08-20T15:52:35Z</time>
      </trkpt>
      <trkpt lat="44.24233" lon="1.78111">
        <ele>297</ele>
        <time>2023-08-20T15:52:36Z</time>
      </trkpt>
      <trkpt lat="44.24236" lon="1.78089">
        <ele>296.4</ele>
        <time>2023-08-20T15:52:37Z</time>
      </trkpt>
      <trkpt lat="44.24237" lon="1.78068">
        <ele>294.8</ele>
        <time>2023-08-20T15:52:38Z</time>
      </trkpt>
      <trkpt lat="44.24234" lon="1.78049">
        <ele>292.2</ele>
        <time>2023-08-20T15:52:39Z</time>
      </trkpt>
      <trkpt lat="44.24228" lon="1.78031">
        <ele>291.4</ele>
        <time>2023-08-20T15:52:40Z</time>
      </trkpt>
      <trkpt lat="44.24219" lon="1.78016">
        <ele>288.4</ele>
        <time>2023-08-20T15:52:41Z</time>
      </trkpt>
      <trkpt lat="44.24208" lon="1.78003">
        <ele>287.2</ele>
        <time>2023-08-20T15:52:42Z</time>
      </trkpt>
      <trkpt lat="44.24194" lon="1.77995">
        <ele>284.6</ele>
        <time>2023-08-20T15:52:43Z</time>
      </trkpt>
      <trkpt lat="44.24179" lon="1.7799">
        <ele>283.8</ele>
        <time>2023-08-20T15:52:44Z</time>
      </trkpt>
      <trkpt lat="44.24163" lon="1.77988">
        <ele>281.8</ele>
        <time>2023-08-20T15:52:45Z</time>
      </trkpt>
      <trkpt lat="44.24146" lon="1.7799">
        <ele>280.6</ele>
        <time>2023-08-20T15:52:46Z</time>
      </trkpt>
      <trkpt lat="44.24126" lon="1.77995">
        <ele>278.6</ele>
        <time>2023-08-20T15:52:47Z</time>
      </trkpt>
      <trkpt lat="44.24106" lon="1.77999">
        <ele>277.2</ele>
        <time>2023-08-20T15:52:48Z</time>
      </trkpt>
      <trkpt lat="44.24081" lon="1.78004">
        <ele>276.8</ele>
        <time>2023-08-20T15:52:49Z</time>
      </trkpt>
      <trkpt lat="44.2406" lon="1.78008">
        <ele>275.8</ele>
        <time>2023-08-20T15:52:50Z</time>
      </trkpt>
      <trkpt lat="44.24023" lon="1.78014">
        <ele>274</ele>
        <time>2023-08-20T15:52:52Z</time>
      </trkpt>
      <trkpt lat="44.24001" lon="1.78014">
        <ele>273.4</ele>
        <time>2023-08-20T15:52:53Z</time>
      </trkpt>
      <trkpt lat="44.23989" lon="1.78014">
        <ele>272.6</ele>
        <time>2023-08-20T15:52:54Z</time>
      </trkpt>
      <trkpt lat="44.23976" lon="1.78013">
        <ele>272.2</ele>
        <time>2023-08-20T15:52:55Z</time>
      </trkpt>
      <trkpt lat="44.23965" lon="1.78012">
        <ele>271.2</ele>
        <time>2023-08-20T15:52:56Z</time>
      </trkpt>
      <trkpt lat="44.23954" lon="1.78014">
        <ele>268.6</ele>
        <time>2023-08-20T15:52:57Z</time>
      </trkpt>
      <trkpt lat="44.23948" lon="1.78017">
        <ele>267.4</ele>
        <time>2023-08-20T15:52:58Z</time>
      </trkpt>
      <trkpt lat="44.23941" lon="1.78024">
        <ele>265.2</ele>
        <time>2023-08-20T15:52:59Z</time>
      </trkpt>
      <trkpt lat="44.23937" lon="1.78032">
        <ele>264</ele>
        <time>2023-08-20T15:53:00Z</time>
      </trkpt>
      <trkpt lat="44.23935" lon="1.78045">
        <ele>261.8</ele>
        <time>2023-08-20T15:53:01Z</time>
      </trkpt>
      <trkpt lat="44.23934" lon="1.78057">
        <ele>261</ele>
        <time>2023-08-20T15:53:02Z</time>
      </trkpt>
      <trkpt lat="44.23935" lon="1.78071">
        <ele>259</ele>
        <time>2023-08-20T15:53:03Z</time>
      </trkpt>
      <trkpt lat="44.23938" lon="1.78086">
        <ele>258.4</ele>
        <time>2023-08-20T15:53:04Z</time>
      </trkpt>
      <trkpt lat="44.23944" lon="1.78104">
        <ele>257.4</ele>
        <time>2023-08-20T15:53:05Z</time>
      </trkpt>
      <trkpt lat="44.2396" lon="1.78141">
        <ele>256.6</ele>
        <time>2023-08-20T15:53:06Z</time>
      </trkpt>
      <trkpt lat="44.23972" lon="1.78167">
        <ele>256.2</ele>
        <time>2023-08-20T15:53:07Z</time>
      </trkpt>
      <trkpt lat="44.23978" lon="1.78188">
        <ele>255.6</ele>
        <time>2023-08-20T15:53:08Z</time>
      </trkpt>
      <trkpt lat="44.2398" lon="1.78206">
        <ele>255.2</ele>
        <time>2023-08-20T15:53:09Z</time>
      </trkpt>
      <trkpt lat="44.23979" lon="1.7822">
        <ele>254.4</ele>
        <time>2023-08-20T15:53:10Z</time>
      </trkpt>
      <trkpt lat="44.23974" lon="1.78233">
        <ele>253.8</ele>
        <time>2023-08-20T15:53:11Z</time>
      </trkpt>
      <trkpt lat="44.23968" lon="1.78243">
        <ele>252.4</ele>
        <time>2023-08-20T15:53:12Z</time>
      </trkpt>
      <trkpt lat="44.23959" lon="1.78247">
        <ele>251.8</ele>
        <time>2023-08-20T15:53:13Z</time>
      </trkpt>
      <trkpt lat="44.23948" lon="1.78244">
        <ele>250.2</ele>
        <time>2023-08-20T15:53:14Z</time>
      </trkpt>
      <trkpt lat="44.23939" lon="1.78237">
        <ele>248.8</ele>
        <time>2023-08-20T15:53:15Z</time>
      </trkpt>
      <trkpt lat="44.2393" lon="1.78223">
        <ele>248.2</ele>
        <time>2023-08-20T15:53:16Z</time>
      </trkpt>
      <trkpt lat="44.23922" lon="1.78207">
        <ele>247.2</ele>
        <time>2023-08-20T15:53:17Z</time>
      </trkpt>
      <trkpt lat="44.23905" lon="1.78165">
        <ele>245</ele>
        <time>2023-08-20T15:53:19Z</time>
      </trkpt>
      <trkpt lat="44.23896" lon="1.78145">
        <ele>244.4</ele>
        <time>2023-08-20T15:53:20Z</time>
      </trkpt>
      <trkpt lat="44.23888" lon="1.78123">
        <ele>243.8</ele>
        <time>2023-08-20T15:53:21Z</time>
      </trkpt>
      <trkpt lat="44.23882" lon="1.78098">
        <ele>243.6</ele>
        <time>2023-08-20T15:53:22Z</time>
      </trkpt>
      <trkpt lat="44.23879" lon="1.78072">
        <ele>243.2</ele>
        <time>2023-08-20T15:53:23Z</time>
      </trkpt>
      <trkpt lat="44.2388" lon="1.78044">
        <ele>242.6</ele>
        <time>2023-08-20T15:53:24Z</time>
      </trkpt>
      <trkpt lat="44.23882" lon="1.78015">
        <ele>242</ele>
        <time>2023-08-20T15:53:25Z</time>
      </trkpt>
      <trkpt lat="44.23885" lon="1.77986">
        <ele>240.8</ele>
        <time>2023-08-20T15:53:26Z</time>
      </trkpt>
      <trkpt lat="44.23889" lon="1.77958">
        <ele>240.2</ele>
        <time>2023-08-20T15:53:27Z</time>
      </trkpt>
      <trkpt lat="44.23892" lon="1.7793">
        <ele>239</ele>
        <time>2023-08-20T15:53:28Z</time>
      </trkpt>
      <trkpt lat="44.23899" lon="1.77875">
        <ele>237.8</ele>
        <time>2023-08-20T15:53:30Z</time>
      </trkpt>
      <trkpt lat="44.23902" lon="1.77847">
        <ele>237</ele>
        <time>2023-08-20T15:53:31Z</time>
      </trkpt>
      <trkpt lat="44.23906" lon="1.7782">
        <ele>235.2</ele>
        <time>2023-08-20T15:53:32Z</time>
      </trkpt>
      <trkpt lat="44.23908" lon="1.77793">
        <ele>233.8</ele>
        <time>2023-08-20T15:53:33Z</time>
      </trkpt>
      <trkpt lat="44.23911" lon="1.77768">
        <ele>233.2</ele>
        <time>2023-08-20T15:53:34Z</time>
      </trkpt>
      <trkpt lat="44.23914" lon="1.77744">
        <ele>231.8</ele>
        <time>2023-08-20T15:53:35Z</time>
      </trkpt>
      <trkpt lat="44.23917" lon="1.7772">
        <ele>231.4</ele>
        <time>2023-08-20T15:53:36Z</time>
      </trkpt>
      <trkpt lat="44.23918" lon="1.77697">
        <ele>230</ele>
        <time>2023-08-20T15:53:37Z</time>
      </trkpt>
      <trkpt lat="44.23919" lon="1.77675">
        <ele>229</ele>
        <time>2023-08-20T15:53:38Z</time>
      </trkpt>
      <trkpt lat="44.2392" lon="1.77653">
        <ele>227.2</ele>
        <time>2023-08-20T15:53:39Z</time>
      </trkpt>
      <trkpt lat="44.23921" lon="1.77633">
        <ele>226.4</ele>
        <time>2023-08-20T15:53:40Z</time>
      </trkpt>
      <trkpt lat="44.23922" lon="1.77613">
        <ele>224.8</ele>
        <time>2023-08-20T15:53:41Z</time>
      </trkpt>
      <trkpt lat="44.23923" lon="1.77594">
        <ele>223.6</ele>
        <time>2023-08-20T15:53:42Z</time>
      </trkpt>
      <trkpt lat="44.23923" lon="1.77572">
        <ele>223</ele>
        <time>2023-08-20T15:53:43Z</time>
      </trkpt>
      <trkpt lat="44.23921" lon="1.77558">
        <ele>221.6</ele>
        <time>2023-08-20T15:53:44Z</time>
      </trkpt>
      <trkpt lat="44.23918" lon="1.77544">
        <ele>220.8</ele>
        <time>2023-08-20T15:53:45Z</time>
      </trkpt>
      <trkpt lat="44.2391" lon="1.77532">
        <ele>219.4</ele>
        <time>2023-08-20T15:53:46Z</time>
      </trkpt>
      <trkpt lat="44.239" lon="1.77521">
        <ele>219</ele>
        <time>2023-08-20T15:53:47Z</time>
      </trkpt>
      <trkpt lat="44.23875" lon="1.775">
        <ele>218.4</ele>
        <time>2023-08-20T15:53:49Z</time>
      </trkpt>
      <trkpt lat="44.23862" lon="1.77489">
        <ele>218.4</ele>
        <time>2023-08-20T15:53:50Z</time>
      </trkpt>
      <trkpt lat="44.23812" lon="1.77446">
        <ele>218.8</ele>
        <time>2023-08-20T15:53:54Z</time>
      </trkpt>
      <trkpt lat="44.238" lon="1.77436">
        <ele>219.8</ele>
        <time>2023-08-20T15:53:55Z</time>
      </trkpt>
      <trkpt lat="44.23788" lon="1.77426">
        <ele>220.4</ele>
        <time>2023-08-20T15:53:56Z</time>
      </trkpt>
      <trkpt lat="44.23777" lon="1.77416">
        <ele>221.8</ele>
        <time>2023-08-20T15:53:57Z</time>
      </trkpt>
      <trkpt lat="44.23765" lon="1.77406">
        <ele>222.2</ele>
        <time>2023-08-20T15:53:58Z</time>
      </trkpt>
      <trkpt lat="44.23753" lon="1.77395">
        <ele>222.8</ele>
        <time>2023-08-20T15:53:59Z</time>
      </trkpt>
      <trkpt lat="44.23728" lon="1.77372">
        <ele>224.4</ele>
        <time>2023-08-20T15:54:01Z</time>
      </trkpt>
      <trkpt lat="44.23717" lon="1.7736">
        <ele>226</ele>
        <time>2023-08-20T15:54:02Z</time>
      </trkpt>
      <trkpt lat="44.23707" lon="1.77348">
        <ele>226.6</ele>
        <time>2023-08-20T15:54:03Z</time>
      </trkpt>
      <trkpt lat="44.23698" lon="1.77337">
        <ele>228.4</ele>
        <time>2023-08-20T15:54:04Z</time>
      </trkpt>
      <trkpt lat="44.23689" lon="1.77324">
        <ele>229.4</ele>
        <time>2023-08-20T15:54:05Z</time>
      </trkpt>
      <trkpt lat="44.23682" lon="1.77311">
        <ele>231.2</ele>
        <time>2023-08-20T15:54:06Z</time>
      </trkpt>
      <trkpt lat="44.23676" lon="1.77296">
        <ele>232</ele>
        <time>2023-08-20T15:54:07Z</time>
      </trkpt>
      <trkpt lat="44.2367" lon="1.77277">
        <ele>233.6</ele>
        <time>2023-08-20T15:54:08Z</time>
      </trkpt>
      <trkpt lat="44.23668" lon="1.77267">
        <ele>235.2</ele>
        <time>2023-08-20T15:54:09Z</time>
      </trkpt>
      <trkpt lat="44.23664" lon="1.77247">
        <ele>236</ele>
        <time>2023-08-20T15:54:10Z</time>
      </trkpt>
      <trkpt lat="44.2366" lon="1.7723">
        <ele>237.4</ele>
        <time>2023-08-20T15:54:11Z</time>
      </trkpt>
      <trkpt lat="44.23656" lon="1.77213">
        <ele>238.2</ele>
        <time>2023-08-20T15:54:12Z</time>
      </trkpt>
      <trkpt lat="44.23653" lon="1.77195">
        <ele>239.8</ele>
        <time>2023-08-20T15:54:13Z</time>
      </trkpt>
      <trkpt lat="44.23651" lon="1.77178">
        <ele>240.4</ele>
        <time>2023-08-20T15:54:14Z</time>
      </trkpt>
      <trkpt lat="44.2365" lon="1.77159">
        <ele>241.6</ele>
        <time>2023-08-20T15:54:15Z</time>
      </trkpt>
      <trkpt lat="44.23651" lon="1.77141">
        <ele>242.8</ele>
        <time>2023-08-20T15:54:16Z</time>
      </trkpt>
      <trkpt lat="44.23651" lon="1.77123">
        <ele>243.4</ele>
        <time>2023-08-20T15:54:17Z</time>
      </trkpt>
      <trkpt lat="44.23652" lon="1.77104">
        <ele>244.4</ele>
        <time>2023-08-20T15:54:18Z</time>
      </trkpt>
      <trkpt lat="44.23652" lon="1.77085">
        <ele>244.8</ele>
        <time>2023-08-20T15:54:19Z</time>
      </trkpt>
      <trkpt lat="44.23653" lon="1.77066">
        <ele>246</ele>
        <time>2023-08-20T15:54:20Z</time>
      </trkpt>
      <trkpt lat="44.23653" lon="1.77047">
        <ele>246.6</ele>
        <time>2023-08-20T15:54:21Z</time>
      </trkpt>
      <trkpt lat="44.23654" lon="1.77027">
        <ele>247.6</ele>
        <time>2023-08-20T15:54:22Z</time>
      </trkpt>
      <trkpt lat="44.23655" lon="1.77007">
        <ele>248.2</ele>
        <time>2023-08-20T15:54:23Z</time>
      </trkpt>
      <trkpt lat="44.23657" lon="1.76987">
        <ele>249.2</ele>
        <time>2023-08-20T15:54:24Z</time>
      </trkpt>
      <trkpt lat="44.23658" lon="1.76967">
        <ele>249.4</ele>
        <time>2023-08-20T15:54:25Z</time>
      </trkpt>
      <trkpt lat="44.23661" lon="1.76946">
        <ele>250.6</ele>
        <time>2023-08-20T15:54:26Z</time>
      </trkpt>
      <trkpt lat="44.23664" lon="1.76924">
        <ele>251.6</ele>
        <time>2023-08-20T15:54:27Z</time>
      </trkpt>
      <trkpt lat="44.23667" lon="1.76903">
        <ele>252.4</ele>
        <time>2023-08-20T15:54:28Z</time>
      </trkpt>
      <trkpt lat="44.2367" lon="1.7688">
        <ele>253.2</ele>
        <time>2023-08-20T15:54:29Z</time>
      </trkpt>
      <trkpt lat="44.23671" lon="1.76857">
        <ele>253.8</ele>
        <time>2023-08-20T15:54:30Z</time>
      </trkpt>
      <trkpt lat="44.23673" lon="1.76832">
        <ele>255.6</ele>
        <time>2023-08-20T15:54:31Z</time>
      </trkpt>
      <trkpt lat="44.23674" lon="1.76807">
        <ele>256.4</ele>
        <time>2023-08-20T15:54:32Z</time>
      </trkpt>
      <trkpt lat="44.23673" lon="1.76782">
        <ele>258</ele>
        <time>2023-08-20T15:54:33Z</time>
      </trkpt>
      <trkpt lat="44.23673" lon="1.76757">
        <ele>259</ele>
        <time>2023-08-20T15:54:34Z</time>
      </trkpt>
      <trkpt lat="44.23672" lon="1.76732">
        <ele>260</ele>
        <time>2023-08-20T15:54:35Z</time>
      </trkpt>
      <trkpt lat="44.23671" lon="1.76708">
        <ele>261.8</ele>
        <time>2023-08-20T15:54:36Z</time>
      </trkpt>
      <trkpt lat="44.2367" lon="1.76684">
        <ele>262.6</ele>
        <time>2023-08-20T15:54:37Z</time>
      </trkpt>
      <trkpt lat="44.23669" lon="1.76661">
        <ele>264</ele>
        <time>2023-08-20T15:54:38Z</time>
      </trkpt>
      <trkpt lat="44.23669" lon="1.76639">
        <ele>264.6</ele>
        <time>2023-08-20T15:54:39Z</time>
      </trkpt>
      <trkpt lat="44.23669" lon="1.76618">
        <ele>266.2</ele>
        <time>2023-08-20T15:54:40Z</time>
      </trkpt>
      <trkpt lat="44.23671" lon="1.76596">
        <ele>267</ele>
        <time>2023-08-20T15:54:41Z</time>
      </trkpt>
      <trkpt lat="44.23672" lon="1.76575">
        <ele>268.4</ele>
        <time>2023-08-20T15:54:42Z</time>
      </trkpt>
      <trkpt lat="44.23673" lon="1.76554">
        <ele>269.8</ele>
        <time>2023-08-20T15:54:43Z</time>
      </trkpt>
      <trkpt lat="44.23671" lon="1.76535">
        <ele>270.6</ele>
        <time>2023-08-20T15:54:44Z</time>
      </trkpt>
      <trkpt lat="44.23667" lon="1.76517">
        <ele>271.8</ele>
        <time>2023-08-20T15:54:45Z</time>
      </trkpt>
      <trkpt lat="44.2366" lon="1.76501">
        <ele>272.4</ele>
        <time>2023-08-20T15:54:46Z</time>
      </trkpt>
      <trkpt lat="44.23651" lon="1.76487">
        <ele>273.8</ele>
        <time>2023-08-20T15:54:47Z</time>
      </trkpt>
      <trkpt lat="44.2364" lon="1.76475">
        <ele>274.6</ele>
        <time>2023-08-20T15:54:48Z</time>
      </trkpt>
      <trkpt lat="44.23624" lon="1.76465">
        <ele>275.8</ele>
        <time>2023-08-20T15:54:49Z</time>
      </trkpt>
      <trkpt lat="44.23609" lon="1.76461">
        <ele>276.4</ele>
        <time>2023-08-20T15:54:50Z</time>
      </trkpt>
      <trkpt lat="44.23595" lon="1.76463">
        <ele>277.6</ele>
        <time>2023-08-20T15:54:51Z</time>
      </trkpt>
      <trkpt lat="44.23578" lon="1.76469">
        <ele>278.8</ele>
        <time>2023-08-20T15:54:52Z</time>
      </trkpt>
      <trkpt lat="44.23558" lon="1.76482">
        <ele>279.6</ele>
        <time>2023-08-20T15:54:53Z</time>
      </trkpt>
      <trkpt lat="44.23545" lon="1.76494">
        <ele>281.4</ele>
        <time>2023-08-20T15:54:54Z</time>
      </trkpt>
      <trkpt lat="44.23529" lon="1.76511">
        <ele>282.4</ele>
        <time>2023-08-20T15:54:55Z</time>
      </trkpt>
      <trkpt lat="44.23512" lon="1.7653">
        <ele>284.4</ele>
        <time>2023-08-20T15:54:56Z</time>
      </trkpt>
      <trkpt lat="44.23489" lon="1.76554">
        <ele>285.4</ele>
        <time>2023-08-20T15:54:57Z</time>
      </trkpt>
      <trkpt lat="44.23467" lon="1.76574">
        <ele>287.8</ele>
        <time>2023-08-20T15:54:58Z</time>
      </trkpt>
      <trkpt lat="44.23444" lon="1.76597">
        <ele>289</ele>
        <time>2023-08-20T15:54:59Z</time>
      </trkpt>
      <trkpt lat="44.23425" lon="1.76617">
        <ele>291.6</ele>
        <time>2023-08-20T15:55:00Z</time>
      </trkpt>
      <trkpt lat="44.23401" lon="1.76643">
        <ele>294.4</ele>
        <time>2023-08-20T15:55:01Z</time>
      </trkpt>
      <trkpt lat="44.23377" lon="1.76668">
        <ele>296.2</ele>
        <time>2023-08-20T15:55:02Z</time>
      </trkpt>
      <trkpt lat="44.23355" lon="1.76692">
        <ele>300.4</ele>
        <time>2023-08-20T15:55:03Z</time>
      </trkpt>
      <trkpt lat="44.23335" lon="1.76714">
        <ele>303.6</ele>
        <time>2023-08-20T15:55:04Z</time>
      </trkpt>
      <trkpt lat="44.23315" lon="1.76732">
        <ele>307.8</ele>
        <time>2023-08-20T15:55:05Z</time>
      </trkpt>
      <trkpt lat="44.23296" lon="1.76749">
        <ele>309.4</ele>
        <time>2023-08-20T15:55:06Z</time>
      </trkpt>
      <trkpt lat="44.23277" lon="1.76763">
        <ele>312.8</ele>
        <time>2023-08-20T15:55:07Z</time>
      </trkpt>
      <trkpt lat="44.2326" lon="1.76774">
        <ele>314</ele>
        <time>2023-08-20T15:55:08Z</time>
      </trkpt>
      <trkpt lat="44.23245" lon="1.76781">
        <ele>315</ele>
        <time>2023-08-20T15:55:09Z</time>
      </trkpt>
      <trkpt lat="44.23231" lon="1.76785">
        <ele>315.4</ele>
        <time>2023-08-20T15:55:10Z</time>
      </trkpt>
      <trkpt lat="44.23221" lon="1.76781">
        <ele>315.4</ele>
        <time>2023-08-20T15:55:11Z</time>
      </trkpt>
      <trkpt lat="44.23215" lon="1.76772">
        <ele>315.6</ele>
        <time>2023-08-20T15:55:12Z</time>
      </trkpt>
      <trkpt lat="44.23209" lon="1.76758">
        <ele>315.6</ele>
        <time>2023-08-20T15:55:13Z</time>
      </trkpt>
      <trkpt lat="44.23203" lon="1.76741">
        <ele>315.8</ele>
        <time>2023-08-20T15:55:14Z</time>
      </trkpt>
      <trkpt lat="44.23194" lon="1.76695">
        <ele>316</ele>
        <time>2023-08-20T15:55:16Z</time>
      </trkpt>
      <trkpt lat="44.23192" lon="1.76666">
        <ele>316</ele>
        <time>2023-08-20T15:55:17Z</time>
      </trkpt>
      <trkpt lat="44.2319" lon="1.76633">
        <ele>316.2</ele>
        <time>2023-08-20T15:55:18Z</time>
      </trkpt>
      <trkpt lat="44.23187" lon="1.76598">
        <ele>316.8</ele>
        <time>2023-08-20T15:55:19Z</time>
      </trkpt>
      <trkpt lat="44.23184" lon="1.76563">
        <ele>317.8</ele>
        <time>2023-08-20T15:55:20Z</time>
      </trkpt>
      <trkpt lat="44.2318" lon="1.76531">
        <ele>320.2</ele>
        <time>2023-08-20T15:55:21Z</time>
      </trkpt>
      <trkpt lat="44.23176" lon="1.76501">
        <ele>321.8</ele>
        <time>2023-08-20T15:55:22Z</time>
      </trkpt>
      <trkpt lat="44.23172" lon="1.76473">
        <ele>324.4</ele>
        <time>2023-08-20T15:55:23Z</time>
      </trkpt>
      <trkpt lat="44.23166" lon="1.76446">
        <ele>325.8</ele>
        <time>2023-08-20T15:55:24Z</time>
      </trkpt>
      <trkpt lat="44.23159" lon="1.76417">
        <ele>328</ele>
        <time>2023-08-20T15:55:25Z</time>
      </trkpt>
      <trkpt lat="44.23142" lon="1.76359">
        <ele>329.6</ele>
        <time>2023-08-20T15:55:27Z</time>
      </trkpt>
      <trkpt lat="44.2311" lon="1.7627">
        <ele>331.2</ele>
        <time>2023-08-20T15:55:30Z</time>
      </trkpt>
      <trkpt lat="44.23099" lon="1.7624">
        <ele>331.6</ele>
        <time>2023-08-20T15:55:31Z</time>
      </trkpt>
      <trkpt lat="44.23078" lon="1.76183">
        <ele>332.2</ele>
        <time>2023-08-20T15:55:33Z</time>
      </trkpt>
      <trkpt lat="44.23067" lon="1.76155">
        <ele>332.4</ele>
        <time>2023-08-20T15:55:34Z</time>
      </trkpt>
      <trkpt lat="44.23047" lon="1.761">
        <ele>332.4</ele>
        <time>2023-08-20T15:55:36Z</time>
      </trkpt>
      <trkpt lat="44.23037" lon="1.76073">
        <ele>332.4</ele>
        <time>2023-08-20T15:55:37Z</time>
      </trkpt>
      <trkpt lat="44.23026" lon="1.76045">
        <ele>332.4</ele>
        <time>2023-08-20T15:55:38Z</time>
      </trkpt>
      <trkpt lat="44.23016" lon="1.76018">
        <ele>332.2</ele>
        <time>2023-08-20T15:55:39Z</time>
      </trkpt>
      <trkpt lat="44.23006" lon="1.75992">
        <ele>332</ele>
        <time>2023-08-20T15:55:40Z</time>
      </trkpt>
      <trkpt lat="44.22996" lon="1.75965">
        <ele>331.6</ele>
        <time>2023-08-20T15:55:41Z</time>
      </trkpt>
      <trkpt lat="44.22987" lon="1.7594">
        <ele>331.4</ele>
        <time>2023-08-20T15:55:42Z</time>
      </trkpt>
      <trkpt lat="44.22979" lon="1.75917">
        <ele>331.2</ele>
        <time>2023-08-20T15:55:43Z</time>
      </trkpt>
      <trkpt lat="44.22971" lon="1.75895">
        <ele>331</ele>
        <time>2023-08-20T15:55:44Z</time>
      </trkpt>
      <trkpt lat="44.22964" lon="1.75875">
        <ele>330.6</ele>
        <time>2023-08-20T15:55:45Z</time>
      </trkpt>
      <trkpt lat="44.22958" lon="1.75859">
        <ele>330.4</ele>
        <time>2023-08-20T15:55:46Z</time>
      </trkpt>
      <trkpt lat="44.22953" lon="1.75844">
        <ele>330.2</ele>
        <time>2023-08-20T15:55:47Z</time>
      </trkpt>
      <trkpt lat="44.2295" lon="1.75831">
        <ele>329.4</ele>
        <time>2023-08-20T15:55:48Z</time>
      </trkpt>
      <trkpt lat="44.22948" lon="1.75818">
        <ele>328.6</ele>
        <time>2023-08-20T15:55:49Z</time>
      </trkpt>
      <trkpt lat="44.22946" lon="1.75807">
        <ele>327.2</ele>
        <time>2023-08-20T15:55:50Z</time>
      </trkpt>
      <trkpt lat="44.22942" lon="1.75798">
        <ele>326.6</ele>
        <time>2023-08-20T15:55:51Z</time>
      </trkpt>
      <trkpt lat="44.22937" lon="1.7579">
        <ele>325.4</ele>
        <time>2023-08-20T15:55:52Z</time>
      </trkpt>
      <trkpt lat="44.2293" lon="1.75779">
        <ele>325</ele>
        <time>2023-08-20T15:55:53Z</time>
      </trkpt>
      <trkpt lat="44.22922" lon="1.75764">
        <ele>324.8</ele>
        <time>2023-08-20T15:55:54Z</time>
      </trkpt>
      <trkpt lat="44.22915" lon="1.75746">
        <ele>324.6</ele>
        <time>2023-08-20T15:55:55Z</time>
      </trkpt>
      <trkpt lat="44.22897" lon="1.75698">
        <ele>324.6</ele>
        <time>2023-08-20T15:55:57Z</time>
      </trkpt>
      <trkpt lat="44.22863" lon="1.75609">
        <ele>325.6</ele>
        <time>2023-08-20T15:56:00Z</time>
      </trkpt>
      <trkpt lat="44.2285" lon="1.75576">
        <ele>327.2</ele>
        <time>2023-08-20T15:56:01Z</time>
      </trkpt>
      <trkpt lat="44.22824" lon="1.75505">
        <ele>330.6</ele>
        <time>2023-08-20T15:56:03Z</time>
      </trkpt>
      <trkpt lat="44.2281" lon="1.75468">
        <ele>333.6</ele>
        <time>2023-08-20T15:56:04Z</time>
      </trkpt>
      <trkpt lat="44.22796" lon="1.75431">
        <ele>334.8</ele>
        <time>2023-08-20T15:56:05Z</time>
      </trkpt>
      <trkpt lat="44.22782" lon="1.75394">
        <ele>337.8</ele>
        <time>2023-08-20T15:56:06Z</time>
      </trkpt>
      <trkpt lat="44.22769" lon="1.75358">
        <ele>339.4</ele>
        <time>2023-08-20T15:56:07Z</time>
      </trkpt>
      <trkpt lat="44.22756" lon="1.75325">
        <ele>343.4</ele>
        <time>2023-08-20T15:56:08Z</time>
      </trkpt>
      <trkpt lat="44.22744" lon="1.75291">
        <ele>345</ele>
        <time>2023-08-20T15:56:09Z</time>
      </trkpt>
      <trkpt lat="44.22732" lon="1.75259">
        <ele>349.2</ele>
        <time>2023-08-20T15:56:10Z</time>
      </trkpt>
      <trkpt lat="44.2272" lon="1.75227">
        <ele>351</ele>
        <time>2023-08-20T15:56:11Z</time>
      </trkpt>
      <trkpt lat="44.22709" lon="1.75195">
        <ele>352.8</ele>
        <time>2023-08-20T15:56:12Z</time>
      </trkpt>
      <trkpt lat="44.22697" lon="1.75164">
        <ele>353.6</ele>
        <time>2023-08-20T15:56:13Z</time>
      </trkpt>
      <trkpt lat="44.22687" lon="1.75134">
        <ele>353.8</ele>
        <time>2023-08-20T15:56:14Z</time>
      </trkpt>
      <trkpt lat="44.22675" lon="1.75103">
        <ele>354</ele>
        <time>2023-08-20T15:56:15Z</time>
      </trkpt>
      <trkpt lat="44.22664" lon="1.75071">
        <ele>354</ele>
        <time>2023-08-20T15:56:16Z</time>
      </trkpt>
      <trkpt lat="44.22652" lon="1.7504">
        <ele>354.2</ele>
        <time>2023-08-20T15:56:17Z</time>
      </trkpt>
      <trkpt lat="44.22615" lon="1.74941">
        <ele>353.8</ele>
        <time>2023-08-20T15:56:20Z</time>
      </trkpt>
      <trkpt lat="44.22576" lon="1.7485">
        <ele>353.2</ele>
        <time>2023-08-20T15:56:23Z</time>
      </trkpt>
      <trkpt lat="44.22562" lon="1.74822">
        <ele>353</ele>
        <time>2023-08-20T15:56:24Z</time>
      </trkpt>
      <trkpt lat="44.22548" lon="1.74796">
        <ele>352.8</ele>
        <time>2023-08-20T15:56:25Z</time>
      </trkpt>
      <trkpt lat="44.22533" lon="1.7477">
        <ele>352.6</ele>
        <time>2023-08-20T15:56:26Z</time>
      </trkpt>
      <trkpt lat="44.22518" lon="1.74745">
        <ele>352.6</ele>
        <time>2023-08-20T15:56:27Z</time>
      </trkpt>
      <trkpt lat="44.22502" lon="1.74719">
        <ele>352.2</ele>
        <time>2023-08-20T15:56:28Z</time>
      </trkpt>
      <trkpt lat="44.22486" lon="1.74692">
        <ele>352.2</ele>
        <time>2023-08-20T15:56:29Z</time>
      </trkpt>
      <trkpt lat="44.22469" lon="1.74664">
        <ele>352</ele>
        <time>2023-08-20T15:56:30Z</time>
      </trkpt>
      <trkpt lat="44.22451" lon="1.74636">
        <ele>351.8</ele>
        <time>2023-08-20T15:56:31Z</time>
      </trkpt>
      <trkpt lat="44.22433" lon="1.74606">
        <ele>351.8</ele>
        <time>2023-08-20T15:56:32Z</time>
      </trkpt>
      <trkpt lat="44.22414" lon="1.74577">
        <ele>351.8</ele>
        <time>2023-08-20T15:56:33Z</time>
      </trkpt>
      <trkpt lat="44.22396" lon="1.74547">
        <ele>351.8</ele>
        <time>2023-08-20T15:56:34Z</time>
      </trkpt>
      <trkpt lat="44.22378" lon="1.74518">
        <ele>351.2</ele>
        <time>2023-08-20T15:56:35Z</time>
      </trkpt>
      <trkpt lat="44.2236" lon="1.7449">
        <ele>351.2</ele>
        <time>2023-08-20T15:56:36Z</time>
      </trkpt>
      <trkpt lat="44.22344" lon="1.74463">
        <ele>351</ele>
        <time>2023-08-20T15:56:37Z</time>
      </trkpt>
      <trkpt lat="44.22328" lon="1.74437">
        <ele>350.8</ele>
        <time>2023-08-20T15:56:38Z</time>
      </trkpt>
      <trkpt lat="44.22312" lon="1.74412">
        <ele>350.8</ele>
        <time>2023-08-20T15:56:39Z</time>
      </trkpt>
      <trkpt lat="44.22297" lon="1.74387">
        <ele>350.2</ele>
        <time>2023-08-20T15:56:40Z</time>
      </trkpt>
      <trkpt lat="44.22285" lon="1.74368">
        <ele>349.2</ele>
        <time>2023-08-20T15:56:41Z</time>
      </trkpt>
      <trkpt lat="44.22267" lon="1.74339">
        <ele>347.8</ele>
        <time>2023-08-20T15:56:42Z</time>
      </trkpt>
      <trkpt lat="44.22252" lon="1.74315">
        <ele>346.8</ele>
        <time>2023-08-20T15:56:43Z</time>
      </trkpt>
      <trkpt lat="44.22237" lon="1.74291">
        <ele>345.2</ele>
        <time>2023-08-20T15:56:44Z</time>
      </trkpt>
      <trkpt lat="44.22223" lon="1.74268">
        <ele>344.6</ele>
        <time>2023-08-20T15:56:45Z</time>
      </trkpt>
      <trkpt lat="44.22208" lon="1.74245">
        <ele>343.8</ele>
        <time>2023-08-20T15:56:46Z</time>
      </trkpt>
      <trkpt lat="44.22194" lon="1.74222">
        <ele>343.2</ele>
        <time>2023-08-20T15:56:47Z</time>
      </trkpt>
      <trkpt lat="44.2218" lon="1.74198">
        <ele>341.8</ele>
        <time>2023-08-20T15:56:48Z</time>
      </trkpt>
      <trkpt lat="44.22152" lon="1.74152">
        <ele>340.2</ele>
        <time>2023-08-20T15:56:50Z</time>
      </trkpt>
      <trkpt lat="44.22124" lon="1.74107">
        <ele>339</ele>
        <time>2023-08-20T15:56:52Z</time>
      </trkpt>
      <trkpt lat="44.22096" lon="1.74062">
        <ele>338.2</ele>
        <time>2023-08-20T15:56:54Z</time>
      </trkpt>
      <trkpt lat="44.22082" lon="1.7404">
        <ele>337.6</ele>
        <time>2023-08-20T15:56:55Z</time>
      </trkpt>
      <trkpt lat="44.22068" lon="1.74017">
        <ele>337.4</ele>
        <time>2023-08-20T15:56:56Z</time>
      </trkpt>
      <trkpt lat="44.22026" lon="1.73949">
        <ele>337.2</ele>
        <time>2023-08-20T15:56:59Z</time>
      </trkpt>
      <trkpt lat="44.21985" lon="1.73881">
        <ele>337.2</ele>
        <time>2023-08-20T15:57:02Z</time>
      </trkpt>
      <trkpt lat="44.21944" lon="1.73814">
        <ele>337.6</ele>
        <time>2023-08-20T15:57:05Z</time>
      </trkpt>
      <trkpt lat="44.21906" lon="1.73752">
        <ele>338</ele>
        <time>2023-08-20T15:57:08Z</time>
      </trkpt>
      <trkpt lat="44.21863" lon="1.7368">
        <ele>338.4</ele>
        <time>2023-08-20T15:57:11Z</time>
      </trkpt>
      <trkpt lat="44.21821" lon="1.73611">
        <ele>338.6</ele>
        <time>2023-08-20T15:57:14Z</time>
      </trkpt>
      <trkpt lat="44.21793" lon="1.73565">
        <ele>338.8</ele>
        <time>2023-08-20T15:57:16Z</time>
      </trkpt>
      <trkpt lat="44.21751" lon="1.73498">
        <ele>339</ele>
        <time>2023-08-20T15:57:19Z</time>
      </trkpt>
      <trkpt lat="44.21723" lon="1.73453">
        <ele>339</ele>
        <time>2023-08-20T15:57:21Z</time>
      </trkpt>
      <trkpt lat="44.21682" lon="1.73384">
        <ele>339</ele>
        <time>2023-08-20T15:57:24Z</time>
      </trkpt>
      <trkpt lat="44.21641" lon="1.73317">
        <ele>338.8</ele>
        <time>2023-08-20T15:57:27Z</time>
      </trkpt>
      <trkpt lat="44.21613" lon="1.73272">
        <ele>338.4</ele>
        <time>2023-08-20T15:57:29Z</time>
      </trkpt>
      <trkpt lat="44.21572" lon="1.73205">
        <ele>337.4</ele>
        <time>2023-08-20T15:57:32Z</time>
      </trkpt>
      <trkpt lat="44.21528" lon="1.73135">
        <ele>336.4</ele>
        <time>2023-08-20T15:57:35Z</time>
      </trkpt>
      <trkpt lat="44.21512" lon="1.73108">
        <ele>336</ele>
        <time>2023-08-20T15:57:36Z</time>
      </trkpt>
      <trkpt lat="44.2146" lon="1.73023">
        <ele>335.8</ele>
        <time>2023-08-20T15:57:39Z</time>
      </trkpt>
      <trkpt lat="44.21409" lon="1.72938">
        <ele>336</ele>
        <time>2023-08-20T15:57:42Z</time>
      </trkpt>
      <trkpt lat="44.21396" lon="1.72916">
        <ele>336.2</ele>
        <time>2023-08-20T15:57:43Z</time>
      </trkpt>
      <trkpt lat="44.21376" lon="1.72883">
        <ele>336.4</ele>
        <time>2023-08-20T15:57:44Z</time>
      </trkpt>
      <trkpt lat="44.21359" lon="1.72855">
        <ele>336.4</ele>
        <time>2023-08-20T15:57:45Z</time>
      </trkpt>
      <trkpt lat="44.21322" lon="1.72796">
        <ele>336.6</ele>
        <time>2023-08-20T15:57:47Z</time>
      </trkpt>
      <trkpt lat="44.21283" lon="1.72732">
        <ele>337</ele>
        <time>2023-08-20T15:57:49Z</time>
      </trkpt>
      <trkpt lat="44.21262" lon="1.72698">
        <ele>337.4</ele>
        <time>2023-08-20T15:57:50Z</time>
      </trkpt>
      <trkpt lat="44.21219" lon="1.72628">
        <ele>337.4</ele>
        <time>2023-08-20T15:57:52Z</time>
      </trkpt>
      <trkpt lat="44.21175" lon="1.72557">
        <ele>338.6</ele>
        <time>2023-08-20T15:57:54Z</time>
      </trkpt>
      <trkpt lat="44.2113" lon="1.72484">
        <ele>339.6</ele>
        <time>2023-08-20T15:57:56Z</time>
      </trkpt>
      <trkpt lat="44.21107" lon="1.72448">
        <ele>340.6</ele>
        <time>2023-08-20T15:57:57Z</time>
      </trkpt>
      <trkpt lat="44.21084" lon="1.7241">
        <ele>340.8</ele>
        <time>2023-08-20T15:57:58Z</time>
      </trkpt>
      <trkpt lat="44.21035" lon="1.72332">
        <ele>342.2</ele>
        <time>2023-08-20T15:58:00Z</time>
      </trkpt>
      <trkpt lat="44.21009" lon="1.72291">
        <ele>344.2</ele>
        <time>2023-08-20T15:58:01Z</time>
      </trkpt>
      <trkpt lat="44.20983" lon="1.72248">
        <ele>345.2</ele>
        <time>2023-08-20T15:58:02Z</time>
      </trkpt>
      <trkpt lat="44.20956" lon="1.72204">
        <ele>346.8</ele>
        <time>2023-08-20T15:58:03Z</time>
      </trkpt>
      <trkpt lat="44.20929" lon="1.72159">
        <ele>348.4</ele>
        <time>2023-08-20T15:58:04Z</time>
      </trkpt>
      <trkpt lat="44.20904" lon="1.72116">
        <ele>349.2</ele>
        <time>2023-08-20T15:58:05Z</time>
      </trkpt>
      <trkpt lat="44.2088" lon="1.72074">
        <ele>353</ele>
        <time>2023-08-20T15:58:06Z</time>
      </trkpt>
      <trkpt lat="44.20857" lon="1.72036">
        <ele>354.2</ele>
        <time>2023-08-20T15:58:07Z</time>
      </trkpt>
      <trkpt lat="44.20839" lon="1.72007">
        <ele>355.4</ele>
        <time>2023-08-20T15:58:08Z</time>
      </trkpt>
      <trkpt lat="44.20814" lon="1.71966">
        <ele>355.6</ele>
        <time>2023-08-20T15:58:09Z</time>
      </trkpt>
      <trkpt lat="44.20794" lon="1.71933">
        <ele>356</ele>
        <time>2023-08-20T15:58:10Z</time>
      </trkpt>
      <trkpt lat="44.20776" lon="1.71899">
        <ele>356</ele>
        <time>2023-08-20T15:58:11Z</time>
      </trkpt>
      <trkpt lat="44.20759" lon="1.71864">
        <ele>356</ele>
        <time>2023-08-20T15:58:12Z</time>
      </trkpt>
      <trkpt lat="44.20742" lon="1.71827">
        <ele>355.6</ele>
        <time>2023-08-20T15:58:13Z</time>
      </trkpt>
      <trkpt lat="44.20729" lon="1.71797">
        <ele>355.4</ele>
        <time>2023-08-20T15:58:14Z</time>
      </trkpt>
      <trkpt lat="44.20709" lon="1.71752">
        <ele>354.8</ele>
        <time>2023-08-20T15:58:15Z</time>
      </trkpt>
      <trkpt lat="44.20693" lon="1.71714">
        <ele>354.4</ele>
        <time>2023-08-20T15:58:16Z</time>
      </trkpt>
      <trkpt lat="44.20677" lon="1.71677">
        <ele>354.2</ele>
        <time>2023-08-20T15:58:17Z</time>
      </trkpt>
      <trkpt lat="44.20661" lon="1.71641">
        <ele>354</ele>
        <time>2023-08-20T15:58:18Z</time>
      </trkpt>
      <trkpt lat="44.20646" lon="1.71605">
        <ele>353.8</ele>
        <time>2023-08-20T15:58:19Z</time>
      </trkpt>
      <trkpt lat="44.20631" lon="1.7157">
        <ele>353.2</ele>
        <time>2023-08-20T15:58:20Z</time>
      </trkpt>
      <trkpt lat="44.20616" lon="1.71536">
        <ele>353</ele>
        <time>2023-08-20T15:58:21Z</time>
      </trkpt>
      <trkpt lat="44.20602" lon="1.71502">
        <ele>351.8</ele>
        <time>2023-08-20T15:58:22Z</time>
      </trkpt>
      <trkpt lat="44.20588" lon="1.71469">
        <ele>350.8</ele>
        <time>2023-08-20T15:58:23Z</time>
      </trkpt>
      <trkpt lat="44.20574" lon="1.71435">
        <ele>349.6</ele>
        <time>2023-08-20T15:58:24Z</time>
      </trkpt>
      <trkpt lat="44.20562" lon="1.71409">
        <ele>349.2</ele>
        <time>2023-08-20T15:58:25Z</time>
      </trkpt>
      <trkpt lat="44.20546" lon="1.71369">
        <ele>348.6</ele>
        <time>2023-08-20T15:58:26Z</time>
      </trkpt>
      <trkpt lat="44.20532" lon="1.71337">
        <ele>348.2</ele>
        <time>2023-08-20T15:58:27Z</time>
      </trkpt>
      <trkpt lat="44.20518" lon="1.71304">
        <ele>347</ele>
        <time>2023-08-20T15:58:28Z</time>
      </trkpt>
      <trkpt lat="44.20504" lon="1.71272">
        <ele>346</ele>
        <time>2023-08-20T15:58:29Z</time>
      </trkpt>
      <trkpt lat="44.20491" lon="1.7124">
        <ele>344.8</ele>
        <time>2023-08-20T15:58:30Z</time>
      </trkpt>
      <trkpt lat="44.20477" lon="1.71207">
        <ele>343</ele>
        <time>2023-08-20T15:58:31Z</time>
      </trkpt>
      <trkpt lat="44.20449" lon="1.71142">
        <ele>341.2</ele>
        <time>2023-08-20T15:58:33Z</time>
      </trkpt>
      <trkpt lat="44.2042" lon="1.71075">
        <ele>339.6</ele>
        <time>2023-08-20T15:58:35Z</time>
      </trkpt>
      <trkpt lat="44.20392" lon="1.71009">
        <ele>338.6</ele>
        <time>2023-08-20T15:58:37Z</time>
      </trkpt>
      <trkpt lat="44.20378" lon="1.70975">
        <ele>338.4</ele>
        <time>2023-08-20T15:58:38Z</time>
      </trkpt>
      <trkpt lat="44.20352" lon="1.70915">
        <ele>338.2</ele>
        <time>2023-08-20T15:58:40Z</time>
      </trkpt>
      <trkpt lat="44.20321" lon="1.70842">
        <ele>338.2</ele>
        <time>2023-08-20T15:58:42Z</time>
      </trkpt>
      <trkpt lat="44.20292" lon="1.70776">
        <ele>338.2</ele>
        <time>2023-08-20T15:58:44Z</time>
      </trkpt>
      <trkpt lat="44.20264" lon="1.7071">
        <ele>338</ele>
        <time>2023-08-20T15:58:46Z</time>
      </trkpt>
      <trkpt lat="44.20236" lon="1.70644">
        <ele>338</ele>
        <time>2023-08-20T15:58:48Z</time>
      </trkpt>
      <trkpt lat="44.20209" lon="1.70578">
        <ele>338</ele>
        <time>2023-08-20T15:58:50Z</time>
      </trkpt>
      <trkpt lat="44.20198" lon="1.70551">
        <ele>337.8</ele>
        <time>2023-08-20T15:58:51Z</time>
      </trkpt>
      <trkpt lat="44.20166" lon="1.70478">
        <ele>337.4</ele>
        <time>2023-08-20T15:58:53Z</time>
      </trkpt>
      <trkpt lat="44.20138" lon="1.70412">
        <ele>335.4</ele>
        <time>2023-08-20T15:58:55Z</time>
      </trkpt>
      <trkpt lat="44.2011" lon="1.70347">
        <ele>334.2</ele>
        <time>2023-08-20T15:58:57Z</time>
      </trkpt>
      <trkpt lat="44.2011" lon="1.70347">
        <ele>334</ele>
        <time>2023-08-20T15:58:58Z</time>
      </trkpt>
      <trkpt lat="44.20083" lon="1.70284">
        <ele>334</ele>
        <time>2023-08-20T15:58:59Z</time>
      </trkpt>
      <trkpt lat="44.20072" lon="1.70259">
        <ele>333.8</ele>
        <time>2023-08-20T15:59:00Z</time>
      </trkpt>
      <trkpt lat="44.20056" lon="1.70221">
        <ele>333.8</ele>
        <time>2023-08-20T15:59:01Z</time>
      </trkpt>
      <trkpt lat="44.20042" lon="1.7019">
        <ele>333.8</ele>
        <time>2023-08-20T15:59:02Z</time>
      </trkpt>
      <trkpt lat="44.20029" lon="1.70159">
        <ele>334</ele>
        <time>2023-08-20T15:59:03Z</time>
      </trkpt>
      <trkpt lat="44.20002" lon="1.70096">
        <ele>334.2</ele>
        <time>2023-08-20T15:59:05Z</time>
      </trkpt>
      <trkpt lat="44.19961" lon="1.69998">
        <ele>334.6</ele>
        <time>2023-08-20T15:59:08Z</time>
      </trkpt>
      <trkpt lat="44.19918" lon="1.69899">
        <ele>334.8</ele>
        <time>2023-08-20T15:59:11Z</time>
      </trkpt>
      <trkpt lat="44.1989" lon="1.69832">
        <ele>334.8</ele>
        <time>2023-08-20T15:59:13Z</time>
      </trkpt>
      <trkpt lat="44.19861" lon="1.69766">
        <ele>334.8</ele>
        <time>2023-08-20T15:59:15Z</time>
      </trkpt>
      <trkpt lat="44.19833" lon="1.697">
        <ele>334.8</ele>
        <time>2023-08-20T15:59:17Z</time>
      </trkpt>
      <trkpt lat="44.19805" lon="1.69635">
        <ele>335.2</ele>
        <time>2023-08-20T15:59:19Z</time>
      </trkpt>
      <trkpt lat="44.19792" lon="1.69603">
        <ele>335.4</ele>
        <time>2023-08-20T15:59:20Z</time>
      </trkpt>
      <trkpt lat="44.19779" lon="1.69572">
        <ele>335.6</ele>
        <time>2023-08-20T15:59:21Z</time>
      </trkpt>
      <trkpt lat="44.19766" lon="1.69541">
        <ele>335.6</ele>
        <time>2023-08-20T15:59:22Z</time>
      </trkpt>
      <trkpt lat="44.19755" lon="1.69509">
        <ele>335.8</ele>
        <time>2023-08-20T15:59:23Z</time>
      </trkpt>
      <trkpt lat="44.19745" lon="1.69476">
        <ele>336</ele>
        <time>2023-08-20T15:59:24Z</time>
      </trkpt>
      <trkpt lat="44.19736" lon="1.69443">
        <ele>336.8</ele>
        <time>2023-08-20T15:59:25Z</time>
      </trkpt>
      <trkpt lat="44.19717" lon="1.69376">
        <ele>338.6</ele>
        <time>2023-08-20T15:59:27Z</time>
      </trkpt>
      <trkpt lat="44.19686" lon="1.69272">
        <ele>339.4</ele>
        <time>2023-08-20T15:59:30Z</time>
      </trkpt>
      <trkpt lat="44.19666" lon="1.69199">
        <ele>339.4</ele>
        <time>2023-08-20T15:59:32Z</time>
      </trkpt>
      <trkpt lat="44.19656" lon="1.69163">
        <ele>339.4</ele>
        <time>2023-08-20T15:59:33Z</time>
      </trkpt>
      <trkpt lat="44.19645" lon="1.69126">
        <ele>339.2</ele>
        <time>2023-08-20T15:59:34Z</time>
      </trkpt>
      <trkpt lat="44.19635" lon="1.6909">
        <ele>339.2</ele>
        <time>2023-08-20T15:59:35Z</time>
      </trkpt>
      <trkpt lat="44.19625" lon="1.69054">
        <ele>338.4</ele>
        <time>2023-08-20T15:59:36Z</time>
      </trkpt>
      <trkpt lat="44.19614" lon="1.69017">
        <ele>338.2</ele>
        <time>2023-08-20T15:59:37Z</time>
      </trkpt>
      <trkpt lat="44.19604" lon="1.68981">
        <ele>337.8</ele>
        <time>2023-08-20T15:59:38Z</time>
      </trkpt>
      <trkpt lat="44.19593" lon="1.68945">
        <ele>337.6</ele>
        <time>2023-08-20T15:59:39Z</time>
      </trkpt>
      <trkpt lat="44.19583" lon="1.68908">
        <ele>337.4</ele>
        <time>2023-08-20T15:59:40Z</time>
      </trkpt>
      <trkpt lat="44.19572" lon="1.68871">
        <ele>337.4</ele>
        <time>2023-08-20T15:59:41Z</time>
      </trkpt>
      <trkpt lat="44.19562" lon="1.68834">
        <ele>337.2</ele>
        <time>2023-08-20T15:59:42Z</time>
      </trkpt>
      <trkpt lat="44.19551" lon="1.68797">
        <ele>336.8</ele>
        <time>2023-08-20T15:59:43Z</time>
      </trkpt>
      <trkpt lat="44.1953" lon="1.68724">
        <ele>335.8</ele>
        <time>2023-08-20T15:59:45Z</time>
      </trkpt>
      <trkpt lat="44.19512" lon="1.68658">
        <ele>334.6</ele>
        <time>2023-08-20T15:59:47Z</time>
      </trkpt>
      <trkpt lat="44.19499" lon="1.68615">
        <ele>333.6</ele>
        <time>2023-08-20T15:59:48Z</time>
      </trkpt>
      <trkpt lat="44.19479" lon="1.68543">
        <ele>332</ele>
        <time>2023-08-20T15:59:50Z</time>
      </trkpt>
      <trkpt lat="44.19459" lon="1.68471">
        <ele>330</ele>
        <time>2023-08-20T15:59:52Z</time>
      </trkpt>
      <trkpt lat="44.19438" lon="1.684">
        <ele>327.8</ele>
        <time>2023-08-20T15:59:54Z</time>
      </trkpt>
      <trkpt lat="44.19428" lon="1.68366">
        <ele>327.2</ele>
        <time>2023-08-20T15:59:55Z</time>
      </trkpt>
      <trkpt lat="44.19418" lon="1.68331">
        <ele>326.6</ele>
        <time>2023-08-20T15:59:56Z</time>
      </trkpt>
      <trkpt lat="44.19398" lon="1.68261">
        <ele>326.2</ele>
        <time>2023-08-20T15:59:58Z</time>
      </trkpt>
      <trkpt lat="44.19388" lon="1.68226">
        <ele>326.2</ele>
        <time>2023-08-20T15:59:59Z</time>
      </trkpt>
      <trkpt lat="44.19378" lon="1.68191">
        <ele>326</ele>
        <time>2023-08-20T16:00:00Z</time>
      </trkpt>
      <trkpt lat="44.19358" lon="1.68121">
        <ele>326.2</ele>
        <time>2023-08-20T16:00:02Z</time>
      </trkpt>
      <trkpt lat="44.19339" lon="1.6805">
        <ele>327</ele>
        <time>2023-08-20T16:00:04Z</time>
      </trkpt>
      <trkpt lat="44.19319" lon="1.6798">
        <ele>327.8</ele>
        <time>2023-08-20T16:00:06Z</time>
      </trkpt>
      <trkpt lat="44.19298" lon="1.6791">
        <ele>328.2</ele>
        <time>2023-08-20T16:00:08Z</time>
      </trkpt>
      <trkpt lat="44.19278" lon="1.67838">
        <ele>328.6</ele>
        <time>2023-08-20T16:00:10Z</time>
      </trkpt>
      <trkpt lat="44.19258" lon="1.67767">
        <ele>328.4</ele>
        <time>2023-08-20T16:00:12Z</time>
      </trkpt>
      <trkpt lat="44.19248" lon="1.67731">
        <ele>328.4</ele>
        <time>2023-08-20T16:00:13Z</time>
      </trkpt>
      <trkpt lat="44.19228" lon="1.67659">
        <ele>328.6</ele>
        <time>2023-08-20T16:00:15Z</time>
      </trkpt>
      <trkpt lat="44.19208" lon="1.67588">
        <ele>328.4</ele>
        <time>2023-08-20T16:00:17Z</time>
      </trkpt>
      <trkpt lat="44.19188" lon="1.67516">
        <ele>327.8</ele>
        <time>2023-08-20T16:00:19Z</time>
      </trkpt>
      <trkpt lat="44.19168" lon="1.67445">
        <ele>327.6</ele>
        <time>2023-08-20T16:00:21Z</time>
      </trkpt>
      <trkpt lat="44.19148" lon="1.67374">
        <ele>327.4</ele>
        <time>2023-08-20T16:00:23Z</time>
      </trkpt>
      <trkpt lat="44.19138" lon="1.67339">
        <ele>327.2</ele>
        <time>2023-08-20T16:00:24Z</time>
      </trkpt>
      <trkpt lat="44.19118" lon="1.67268">
        <ele>327</ele>
        <time>2023-08-20T16:00:26Z</time>
      </trkpt>
      <trkpt lat="44.19118" lon="1.67268">
        <ele>327</ele>
        <time>2023-08-20T16:00:27Z</time>
      </trkpt>
      <trkpt lat="44.19098" lon="1.67196">
        <ele>327</ele>
        <time>2023-08-20T16:00:28Z</time>
      </trkpt>
      <trkpt lat="44.19078" lon="1.67127">
        <ele>327</ele>
        <time>2023-08-20T16:00:30Z</time>
      </trkpt>
      <trkpt lat="44.19048" lon="1.67022">
        <ele>326.8</ele>
        <time>2023-08-20T16:00:33Z</time>
      </trkpt>
      <trkpt lat="44.19029" lon="1.6695">
        <ele>326.4</ele>
        <time>2023-08-20T16:00:35Z</time>
      </trkpt>
      <trkpt lat="44.19019" lon="1.66914">
        <ele>326</ele>
        <time>2023-08-20T16:00:36Z</time>
      </trkpt>
      <trkpt lat="44.19009" lon="1.66877">
        <ele>325</ele>
        <time>2023-08-20T16:00:37Z</time>
      </trkpt>
      <trkpt lat="44.18989" lon="1.66802">
        <ele>323.6</ele>
        <time>2023-08-20T16:00:39Z</time>
      </trkpt>
      <trkpt lat="44.18979" lon="1.66765">
        <ele>322.2</ele>
        <time>2023-08-20T16:00:40Z</time>
      </trkpt>
      <trkpt lat="44.18958" lon="1.66689">
        <ele>319.4</ele>
        <time>2023-08-20T16:00:42Z</time>
      </trkpt>
      <trkpt lat="44.18938" lon="1.66612">
        <ele>316.4</ele>
        <time>2023-08-20T16:00:44Z</time>
      </trkpt>
      <trkpt lat="44.18918" lon="1.66535">
        <ele>313.2</ele>
        <time>2023-08-20T16:00:46Z</time>
      </trkpt>
      <trkpt lat="44.18908" lon="1.66497">
        <ele>312.2</ele>
        <time>2023-08-20T16:00:47Z</time>
      </trkpt>
      <trkpt lat="44.18897" lon="1.66459">
        <ele>309.6</ele>
        <time>2023-08-20T16:00:48Z</time>
      </trkpt>
      <trkpt lat="44.18888" lon="1.66421">
        <ele>306.4</ele>
        <time>2023-08-20T16:00:49Z</time>
      </trkpt>
      <trkpt lat="44.18878" lon="1.66384">
        <ele>305.2</ele>
        <time>2023-08-20T16:00:50Z</time>
      </trkpt>
      <trkpt lat="44.18868" lon="1.66347">
        <ele>303</ele>
        <time>2023-08-20T16:00:51Z</time>
      </trkpt>
      <trkpt lat="44.18858" lon="1.6631">
        <ele>301.4</ele>
        <time>2023-08-20T16:00:52Z</time>
      </trkpt>
      <trkpt lat="44.18848" lon="1.66273">
        <ele>299.4</ele>
        <time>2023-08-20T16:00:53Z</time>
      </trkpt>
      <trkpt lat="44.18838" lon="1.66236">
        <ele>298</ele>
        <time>2023-08-20T16:00:54Z</time>
      </trkpt>
      <trkpt lat="44.18828" lon="1.66199">
        <ele>296.4</ele>
        <time>2023-08-20T16:00:55Z</time>
      </trkpt>
      <trkpt lat="44.18818" lon="1.66161">
        <ele>295.2</ele>
        <time>2023-08-20T16:00:56Z</time>
      </trkpt>
      <trkpt lat="44.18809" lon="1.66124">
        <ele>293.4</ele>
        <time>2023-08-20T16:00:57Z</time>
      </trkpt>
      <trkpt lat="44.18798" lon="1.66087">
        <ele>291.6</ele>
        <time>2023-08-20T16:00:58Z</time>
      </trkpt>
      <trkpt lat="44.18779" lon="1.66012">
        <ele>289.4</ele>
        <time>2023-08-20T16:01:00Z</time>
      </trkpt>
      <trkpt lat="44.18759" lon="1.65938">
        <ele>287.6</ele>
        <time>2023-08-20T16:01:02Z</time>
      </trkpt>
      <trkpt lat="44.18739" lon="1.65864">
        <ele>285.6</ele>
        <time>2023-08-20T16:01:04Z</time>
      </trkpt>
      <trkpt lat="44.18729" lon="1.65827">
        <ele>283.4</ele>
        <time>2023-08-20T16:01:05Z</time>
      </trkpt>
      <trkpt lat="44.1871" lon="1.65755">
        <ele>280.8</ele>
        <time>2023-08-20T16:01:07Z</time>
      </trkpt>
      <trkpt lat="44.18691" lon="1.65684">
        <ele>279</ele>
        <time>2023-08-20T16:01:09Z</time>
      </trkpt>
      <trkpt lat="44.18681" lon="1.65648">
        <ele>278.6</ele>
        <time>2023-08-20T16:01:10Z</time>
      </trkpt>
      <trkpt lat="44.18672" lon="1.65613">
        <ele>278</ele>
        <time>2023-08-20T16:01:11Z</time>
      </trkpt>
      <trkpt lat="44.18662" lon="1.65577">
        <ele>277.8</ele>
        <time>2023-08-20T16:01:12Z</time>
      </trkpt>
      <trkpt lat="44.18643" lon="1.65507">
        <ele>276.8</ele>
        <time>2023-08-20T16:01:14Z</time>
      </trkpt>
      <trkpt lat="44.18624" lon="1.65436">
        <ele>274.6</ele>
        <time>2023-08-20T16:01:16Z</time>
      </trkpt>
      <trkpt lat="44.18606" lon="1.65364">
        <ele>273.4</ele>
        <time>2023-08-20T16:01:18Z</time>
      </trkpt>
      <trkpt lat="44.18586" lon="1.65292">
        <ele>272.4</ele>
        <time>2023-08-20T16:01:20Z</time>
      </trkpt>
      <trkpt lat="44.18577" lon="1.65256">
        <ele>272</ele>
        <time>2023-08-20T16:01:21Z</time>
      </trkpt>
      <trkpt lat="44.18557" lon="1.65184">
        <ele>269.6</ele>
        <time>2023-08-20T16:01:23Z</time>
      </trkpt>
      <trkpt lat="44.18548" lon="1.65147">
        <ele>268</ele>
        <time>2023-08-20T16:01:24Z</time>
      </trkpt>
      <trkpt lat="44.18538" lon="1.6511">
        <ele>265.4</ele>
        <time>2023-08-20T16:01:25Z</time>
      </trkpt>
      <trkpt lat="44.18528" lon="1.65074">
        <ele>264.2</ele>
        <time>2023-08-20T16:01:26Z</time>
      </trkpt>
      <trkpt lat="44.18518" lon="1.65037">
        <ele>261.6</ele>
        <time>2023-08-20T16:01:27Z</time>
      </trkpt>
      <trkpt lat="44.18498" lon="1.64963">
        <ele>258.6</ele>
        <time>2023-08-20T16:01:29Z</time>
      </trkpt>
      <trkpt lat="44.18477" lon="1.64888">
        <ele>256.2</ele>
        <time>2023-08-20T16:01:31Z</time>
      </trkpt>
      <trkpt lat="44.18467" lon="1.6485">
        <ele>255</ele>
        <time>2023-08-20T16:01:32Z</time>
      </trkpt>
      <trkpt lat="44.18457" lon="1.64812">
        <ele>254</ele>
        <time>2023-08-20T16:01:33Z</time>
      </trkpt>
      <trkpt lat="44.18447" lon="1.64774">
        <ele>251.4</ele>
        <time>2023-08-20T16:01:34Z</time>
      </trkpt>
      <trkpt lat="44.18437" lon="1.64736">
        <ele>250.4</ele>
        <time>2023-08-20T16:01:35Z</time>
      </trkpt>
      <trkpt lat="44.18427" lon="1.64699">
        <ele>248.2</ele>
        <time>2023-08-20T16:01:36Z</time>
      </trkpt>
      <trkpt lat="44.18417" lon="1.64663">
        <ele>246.8</ele>
        <time>2023-08-20T16:01:37Z</time>
      </trkpt>
      <trkpt lat="44.18407" lon="1.64627">
        <ele>245</ele>
        <time>2023-08-20T16:01:38Z</time>
      </trkpt>
      <trkpt lat="44.18397" lon="1.64591">
        <ele>244.4</ele>
        <time>2023-08-20T16:01:39Z</time>
      </trkpt>
      <trkpt lat="44.18388" lon="1.64555">
        <ele>243.6</ele>
        <time>2023-08-20T16:01:40Z</time>
      </trkpt>
      <trkpt lat="44.18378" lon="1.64519">
        <ele>242.6</ele>
        <time>2023-08-20T16:01:41Z</time>
      </trkpt>
      <trkpt lat="44.18369" lon="1.64484">
        <ele>242.2</ele>
        <time>2023-08-20T16:01:42Z</time>
      </trkpt>
      <trkpt lat="44.1835" lon="1.64412">
        <ele>241</ele>
        <time>2023-08-20T16:01:44Z</time>
      </trkpt>
      <trkpt lat="44.18332" lon="1.64341">
        <ele>240</ele>
        <time>2023-08-20T16:01:46Z</time>
      </trkpt>
      <trkpt lat="44.18312" lon="1.64268">
        <ele>239.4</ele>
        <time>2023-08-20T16:01:48Z</time>
      </trkpt>
      <trkpt lat="44.18294" lon="1.64196">
        <ele>239.2</ele>
        <time>2023-08-20T16:01:50Z</time>
      </trkpt>
      <trkpt lat="44.18275" lon="1.64124">
        <ele>239</ele>
        <time>2023-08-20T16:01:52Z</time>
      </trkpt>
      <trkpt lat="44.18255" lon="1.64051">
        <ele>238.8</ele>
        <time>2023-08-20T16:01:54Z</time>
      </trkpt>
      <trkpt lat="44.18236" lon="1.63978">
        <ele>238.2</ele>
        <time>2023-08-20T16:01:56Z</time>
      </trkpt>
      <trkpt lat="44.18216" lon="1.63906">
        <ele>237.6</ele>
        <time>2023-08-20T16:01:58Z</time>
      </trkpt>
      <trkpt lat="44.18207" lon="1.6387">
        <ele>237.2</ele>
        <time>2023-08-20T16:01:59Z</time>
      </trkpt>
      <trkpt lat="44.18188" lon="1.63798">
        <ele>236.4</ele>
        <time>2023-08-20T16:02:01Z</time>
      </trkpt>
      <trkpt lat="44.18169" lon="1.63727">
        <ele>235.6</ele>
        <time>2023-08-20T16:02:03Z</time>
      </trkpt>
      <trkpt lat="44.1816" lon="1.63692">
        <ele>235</ele>
        <time>2023-08-20T16:02:04Z</time>
      </trkpt>
      <trkpt lat="44.18141" lon="1.63621">
        <ele>233.8</ele>
        <time>2023-08-20T16:02:06Z</time>
      </trkpt>
      <trkpt lat="44.18122" lon="1.63551">
        <ele>231.6</ele>
        <time>2023-08-20T16:02:08Z</time>
      </trkpt>
      <trkpt lat="44.18113" lon="1.63516">
        <ele>231.4</ele>
        <time>2023-08-20T16:02:09Z</time>
      </trkpt>
      <trkpt lat="44.18104" lon="1.63481">
        <ele>230</ele>
        <time>2023-08-20T16:02:10Z</time>
      </trkpt>
      <trkpt lat="44.18085" lon="1.63411">
        <ele>228.2</ele>
        <time>2023-08-20T16:02:12Z</time>
      </trkpt>
      <trkpt lat="44.18067" lon="1.63342">
        <ele>227</ele>
        <time>2023-08-20T16:02:14Z</time>
      </trkpt>
      <trkpt lat="44.18058" lon="1.63308">
        <ele>226.4</ele>
        <time>2023-08-20T16:02:15Z</time>
      </trkpt>
      <trkpt lat="44.18049" lon="1.63275">
        <ele>225.8</ele>
        <time>2023-08-20T16:02:16Z</time>
      </trkpt>
      <trkpt lat="44.1804" lon="1.63242">
        <ele>225</ele>
        <time>2023-08-20T16:02:17Z</time>
      </trkpt>
      <trkpt lat="44.18031" lon="1.6321">
        <ele>224.6</ele>
        <time>2023-08-20T16:02:18Z</time>
      </trkpt>
      <trkpt lat="44.18023" lon="1.63177">
        <ele>223.4</ele>
        <time>2023-08-20T16:02:19Z</time>
      </trkpt>
      <trkpt lat="44.18014" lon="1.63145">
        <ele>222.8</ele>
        <time>2023-08-20T16:02:20Z</time>
      </trkpt>
      <trkpt lat="44.18006" lon="1.63113">
        <ele>221.6</ele>
        <time>2023-08-20T16:02:21Z</time>
      </trkpt>
      <trkpt lat="44.17997" lon="1.63082">
        <ele>221.4</ele>
        <time>2023-08-20T16:02:22Z</time>
      </trkpt>
      <trkpt lat="44.17989" lon="1.63051">
        <ele>220.2</ele>
        <time>2023-08-20T16:02:23Z</time>
      </trkpt>
      <trkpt lat="44.17981" lon="1.63021">
        <ele>219.8</ele>
        <time>2023-08-20T16:02:24Z</time>
      </trkpt>
      <trkpt lat="44.17973" lon="1.6299">
        <ele>218.8</ele>
        <time>2023-08-20T16:02:25Z</time>
      </trkpt>
      <trkpt lat="44.17965" lon="1.6296">
        <ele>217.2</ele>
        <time>2023-08-20T16:02:26Z</time>
      </trkpt>
      <trkpt lat="44.17949" lon="1.62899">
        <ele>214.4</ele>
        <time>2023-08-20T16:02:28Z</time>
      </trkpt>
      <trkpt lat="44.17933" lon="1.62837">
        <ele>212.4</ele>
        <time>2023-08-20T16:02:30Z</time>
      </trkpt>
      <trkpt lat="44.17916" lon="1.62775">
        <ele>210</ele>
        <time>2023-08-20T16:02:32Z</time>
      </trkpt>
      <trkpt lat="44.17908" lon="1.62744">
        <ele>208.8</ele>
        <time>2023-08-20T16:02:33Z</time>
      </trkpt>
      <trkpt lat="44.17893" lon="1.62689">
        <ele>207.4</ele>
        <time>2023-08-20T16:02:35Z</time>
      </trkpt>
      <trkpt lat="44.17875" lon="1.62626">
        <ele>206.8</ele>
        <time>2023-08-20T16:02:37Z</time>
      </trkpt>
      <trkpt lat="44.17868" lon="1.62597">
        <ele>206.6</ele>
        <time>2023-08-20T16:02:38Z</time>
      </trkpt>
      <trkpt lat="44.1786" lon="1.6257">
        <ele>206.2</ele>
        <time>2023-08-20T16:02:39Z</time>
      </trkpt>
      <trkpt lat="44.17853" lon="1.62542">
        <ele>206</ele>
        <time>2023-08-20T16:02:40Z</time>
      </trkpt>
      <trkpt lat="44.17846" lon="1.62514">
        <ele>204.4</ele>
        <time>2023-08-20T16:02:41Z</time>
      </trkpt>
      <trkpt lat="44.17839" lon="1.62487">
        <ele>203.2</ele>
        <time>2023-08-20T16:02:42Z</time>
      </trkpt>
      <trkpt lat="44.17832" lon="1.6246">
        <ele>202.8</ele>
        <time>2023-08-20T16:02:43Z</time>
      </trkpt>
      <trkpt lat="44.17825" lon="1.62434">
        <ele>201.8</ele>
        <time>2023-08-20T16:02:44Z</time>
      </trkpt>
      <trkpt lat="44.17819" lon="1.62409">
        <ele>201.2</ele>
        <time>2023-08-20T16:02:45Z</time>
      </trkpt>
      <trkpt lat="44.17812" lon="1.62384">
        <ele>200.4</ele>
        <time>2023-08-20T16:02:46Z</time>
      </trkpt>
      <trkpt lat="44.17806" lon="1.62361">
        <ele>200</ele>
        <time>2023-08-20T16:02:47Z</time>
      </trkpt>
      <trkpt lat="44.17801" lon="1.62339">
        <ele>199</ele>
        <time>2023-08-20T16:02:48Z</time>
      </trkpt>
      <trkpt lat="44.17796" lon="1.62318">
        <ele>198.8</ele>
        <time>2023-08-20T16:02:49Z</time>
      </trkpt>
      <trkpt lat="44.17792" lon="1.62302">
        <ele>198</ele>
        <time>2023-08-20T16:02:50Z</time>
      </trkpt>
      <trkpt lat="44.17787" lon="1.62279">
        <ele>196.6</ele>
        <time>2023-08-20T16:02:51Z</time>
      </trkpt>
      <trkpt lat="44.17782" lon="1.62261">
        <ele>195.8</ele>
        <time>2023-08-20T16:02:52Z</time>
      </trkpt>
      <trkpt lat="44.17776" lon="1.62244">
        <ele>194.8</ele>
        <time>2023-08-20T16:02:53Z</time>
      </trkpt>
      <trkpt lat="44.17771" lon="1.62226">
        <ele>194.4</ele>
        <time>2023-08-20T16:02:54Z</time>
      </trkpt>
      <trkpt lat="44.17766" lon="1.62208">
        <ele>193.2</ele>
        <time>2023-08-20T16:02:55Z</time>
      </trkpt>
      <trkpt lat="44.17746" lon="1.62132">
        <ele>192</ele>
        <time>2023-08-20T16:02:59Z</time>
      </trkpt>
      <trkpt lat="44.17727" lon="1.6206">
        <ele>191.8</ele>
        <time>2023-08-20T16:03:03Z</time>
      </trkpt>
      <trkpt lat="44.17723" lon="1.62045">
        <ele>191.8</ele>
        <time>2023-08-20T16:03:04Z</time>
      </trkpt>
      <trkpt lat="44.1772" lon="1.62031">
        <ele>191.8</ele>
        <time>2023-08-20T16:03:05Z</time>
      </trkpt>
      <trkpt lat="44.17717" lon="1.62021">
        <ele>191.8</ele>
        <time>2023-08-20T16:03:06Z</time>
      </trkpt>
      <trkpt lat="44.17714" lon="1.62007">
        <ele>191.8</ele>
        <time>2023-08-20T16:03:07Z</time>
      </trkpt>
      <trkpt lat="44.17711" lon="1.61996">
        <ele>191.8</ele>
        <time>2023-08-20T16:03:08Z</time>
      </trkpt>
      <trkpt lat="44.17708" lon="1.61986">
        <ele>191.6</ele>
        <time>2023-08-20T16:03:09Z</time>
      </trkpt>
      <trkpt lat="44.17706" lon="1.61979">
        <ele>191.4</ele>
        <time>2023-08-20T16:03:10Z</time>
      </trkpt>
      <trkpt lat="44.17703" lon="1.6197">
        <ele>191.2</ele>
        <time>2023-08-20T16:03:11Z</time>
      </trkpt>
      <trkpt lat="44.17701" lon="1.61961">
        <ele>191</ele>
        <time>2023-08-20T16:03:12Z</time>
      </trkpt>
      <trkpt lat="44.17698" lon="1.6195">
        <ele>190.8</ele>
        <time>2023-08-20T16:03:13Z</time>
      </trkpt>
      <trkpt lat="44.17696" lon="1.6194">
        <ele>190.6</ele>
        <time>2023-08-20T16:03:14Z</time>
      </trkpt>
      <trkpt lat="44.1768" lon="1.61887">
        <ele>190.2</ele>
        <time>2023-08-20T16:03:19Z</time>
      </trkpt>
      <trkpt lat="44.17678" lon="1.61878">
        <ele>190</ele>
        <time>2023-08-20T16:03:20Z</time>
      </trkpt>
      <trkpt lat="44.17676" lon="1.6187">
        <ele>190</ele>
        <time>2023-08-20T16:03:21Z</time>
      </trkpt>
      <trkpt lat="44.17674" lon="1.61862">
        <ele>189.8</ele>
        <time>2023-08-20T16:03:22Z</time>
      </trkpt>
      <trkpt lat="44.17672" lon="1.61854">
        <ele>189.8</ele>
        <time>2023-08-20T16:03:23Z</time>
      </trkpt>
      <trkpt lat="44.17668" lon="1.61849">
        <ele>190</ele>
        <time>2023-08-20T16:03:24Z</time>
      </trkpt>
      <trkpt lat="44.17662" lon="1.61845">
        <ele>190</ele>
        <time>2023-08-20T16:03:25Z</time>
      </trkpt>
      <trkpt lat="44.17654" lon="1.61843">
        <ele>189.8</ele>
        <time>2023-08-20T16:03:26Z</time>
      </trkpt>
      <trkpt lat="44.17638" lon="1.61838">
        <ele>189.8</ele>
        <time>2023-08-20T16:03:28Z</time>
      </trkpt>
      <trkpt lat="44.17626" lon="1.61833">
        <ele>189.8</ele>
        <time>2023-08-20T16:03:29Z</time>
      </trkpt>
      <trkpt lat="44.17581" lon="1.61812">
        <ele>190.2</ele>
        <time>2023-08-20T16:03:33Z</time>
      </trkpt>
      <trkpt lat="44.17537" lon="1.61787">
        <ele>191.4</ele>
        <time>2023-08-20T16:03:36Z</time>
      </trkpt>
      <trkpt lat="44.17524" lon="1.61779">
        <ele>191.6</ele>
        <time>2023-08-20T16:03:37Z</time>
      </trkpt>
      <trkpt lat="44.17481" lon="1.61754">
        <ele>192.8</ele>
        <time>2023-08-20T16:03:39Z</time>
      </trkpt>
      <trkpt lat="44.17459" lon="1.6174">
        <ele>193.8</ele>
        <time>2023-08-20T16:03:40Z</time>
      </trkpt>
      <trkpt lat="44.17418" lon="1.61715">
        <ele>196.4</ele>
        <time>2023-08-20T16:03:42Z</time>
      </trkpt>
      <trkpt lat="44.17396" lon="1.61701">
        <ele>198.6</ele>
        <time>2023-08-20T16:03:43Z</time>
      </trkpt>
      <trkpt lat="44.17371" lon="1.61684">
        <ele>200.2</ele>
        <time>2023-08-20T16:03:44Z</time>
      </trkpt>
      <trkpt lat="44.17351" lon="1.61669">
        <ele>202.2</ele>
        <time>2023-08-20T16:03:45Z</time>
      </trkpt>
      <trkpt lat="44.17334" lon="1.61652">
        <ele>203</ele>
        <time>2023-08-20T16:03:46Z</time>
      </trkpt>
      <trkpt lat="44.17321" lon="1.61637">
        <ele>204.4</ele>
        <time>2023-08-20T16:03:47Z</time>
      </trkpt>
      <trkpt lat="44.17307" lon="1.61617">
        <ele>205</ele>
        <time>2023-08-20T16:03:48Z</time>
      </trkpt>
      <trkpt lat="44.1729" lon="1.61594">
        <ele>205.6</ele>
        <time>2023-08-20T16:03:49Z</time>
      </trkpt>
      <trkpt lat="44.17276" lon="1.61574">
        <ele>205.8</ele>
        <time>2023-08-20T16:03:50Z</time>
      </trkpt>
      <trkpt lat="44.1726" lon="1.61555">
        <ele>206.2</ele>
        <time>2023-08-20T16:03:51Z</time>
      </trkpt>
      <trkpt lat="44.17246" lon="1.61541">
        <ele>206.6</ele>
        <time>2023-08-20T16:03:52Z</time>
      </trkpt>
      <trkpt lat="44.17226" lon="1.61522">
        <ele>206.8</ele>
        <time>2023-08-20T16:03:53Z</time>
      </trkpt>
      <trkpt lat="44.17201" lon="1.61499">
        <ele>207.4</ele>
        <time>2023-08-20T16:03:54Z</time>
      </trkpt>
      <trkpt lat="44.17177" lon="1.61478">
        <ele>207.8</ele>
        <time>2023-08-20T16:03:55Z</time>
      </trkpt>
      <trkpt lat="44.17153" lon="1.61457">
        <ele>209</ele>
        <time>2023-08-20T16:03:56Z</time>
      </trkpt>
      <trkpt lat="44.17134" lon="1.61439">
        <ele>209.6</ele>
        <time>2023-08-20T16:03:57Z</time>
      </trkpt>
      <trkpt lat="44.17109" lon="1.61417">
        <ele>213</ele>
        <time>2023-08-20T16:03:58Z</time>
      </trkpt>
      <trkpt lat="44.17081" lon="1.61392">
        <ele>214</ele>
        <time>2023-08-20T16:03:59Z</time>
      </trkpt>
      <trkpt lat="44.17058" lon="1.61371">
        <ele>216.2</ele>
        <time>2023-08-20T16:04:00Z</time>
      </trkpt>
      <trkpt lat="44.17037" lon="1.61351">
        <ele>218.2</ele>
        <time>2023-08-20T16:04:01Z</time>
      </trkpt>
      <trkpt lat="44.1702" lon="1.61336">
        <ele>219</ele>
        <time>2023-08-20T16:04:02Z</time>
      </trkpt>
      <trkpt lat="44.17001" lon="1.61318">
        <ele>219.6</ele>
        <time>2023-08-20T16:04:03Z</time>
      </trkpt>
      <trkpt lat="44.16979" lon="1.61298">
        <ele>219.8</ele>
        <time>2023-08-20T16:04:04Z</time>
      </trkpt>
      <trkpt lat="44.16961" lon="1.61283">
        <ele>220</ele>
        <time>2023-08-20T16:04:05Z</time>
      </trkpt>
      <trkpt lat="44.16943" lon="1.61269">
        <ele>220</ele>
        <time>2023-08-20T16:04:06Z</time>
      </trkpt>
      <trkpt lat="44.16928" lon="1.61258">
        <ele>220.4</ele>
        <time>2023-08-20T16:04:07Z</time>
      </trkpt>
      <trkpt lat="44.16908" lon="1.61245">
        <ele>220.6</ele>
        <time>2023-08-20T16:04:08Z</time>
      </trkpt>
      <trkpt lat="44.16883" lon="1.61232">
        <ele>220.6</ele>
        <time>2023-08-20T16:04:09Z</time>
      </trkpt>
      <trkpt lat="44.16863" lon="1.6122">
        <ele>220.6</ele>
        <time>2023-08-20T16:04:10Z</time>
      </trkpt>
      <trkpt lat="44.16843" lon="1.61208">
        <ele>220.6</ele>
        <time>2023-08-20T16:04:11Z</time>
      </trkpt>
      <trkpt lat="44.16827" lon="1.61197">
        <ele>220.6</ele>
        <time>2023-08-20T16:04:12Z</time>
      </trkpt>
      <trkpt lat="44.16807" lon="1.61181">
        <ele>220.6</ele>
        <time>2023-08-20T16:04:13Z</time>
      </trkpt>
      <trkpt lat="44.16783" lon="1.61162">
        <ele>220.8</ele>
        <time>2023-08-20T16:04:14Z</time>
      </trkpt>
      <trkpt lat="44.16764" lon="1.61146">
        <ele>221</ele>
        <time>2023-08-20T16:04:15Z</time>
      </trkpt>
      <trkpt lat="44.16746" lon="1.6113">
        <ele>221.4</ele>
        <time>2023-08-20T16:04:16Z</time>
      </trkpt>
      <trkpt lat="44.16731" lon="1.61119">
        <ele>221.8</ele>
        <time>2023-08-20T16:04:17Z</time>
      </trkpt>
      <trkpt lat="44.16713" lon="1.61107">
        <ele>222</ele>
        <time>2023-08-20T16:04:18Z</time>
      </trkpt>
      <trkpt lat="44.16693" lon="1.61098">
        <ele>222.4</ele>
        <time>2023-08-20T16:04:19Z</time>
      </trkpt>
      <trkpt lat="44.16669" lon="1.6109">
        <ele>222.4</ele>
        <time>2023-08-20T16:04:20Z</time>
      </trkpt>
      <trkpt lat="44.16648" lon="1.61085">
        <ele>222.6</ele>
        <time>2023-08-20T16:04:21Z</time>
      </trkpt>
      <trkpt lat="44.1663" lon="1.61082">
        <ele>222.8</ele>
        <time>2023-08-20T16:04:22Z</time>
      </trkpt>
      <trkpt lat="44.16606" lon="1.61078">
        <ele>223</ele>
        <time>2023-08-20T16:04:23Z</time>
      </trkpt>
      <trkpt lat="44.1658" lon="1.61073">
        <ele>223</ele>
        <time>2023-08-20T16:04:24Z</time>
      </trkpt>
      <trkpt lat="44.16549" lon="1.61068">
        <ele>223</ele>
        <time>2023-08-20T16:04:25Z</time>
      </trkpt>
      <trkpt lat="44.16522" lon="1.61064">
        <ele>223</ele>
        <time>2023-08-20T16:04:26Z</time>
      </trkpt>
      <trkpt lat="44.16495" lon="1.6106">
        <ele>223.4</ele>
        <time>2023-08-20T16:04:27Z</time>
      </trkpt>
      <trkpt lat="44.16468" lon="1.61057">
        <ele>224</ele>
        <time>2023-08-20T16:04:28Z</time>
      </trkpt>
      <trkpt lat="44.16442" lon="1.61054">
        <ele>224.6</ele>
        <time>2023-08-20T16:04:29Z</time>
      </trkpt>
      <trkpt lat="44.16417" lon="1.61052">
        <ele>225.8</ele>
        <time>2023-08-20T16:04:30Z</time>
      </trkpt>
      <trkpt lat="44.16391" lon="1.61051">
        <ele>226.6</ele>
        <time>2023-08-20T16:04:31Z</time>
      </trkpt>
      <trkpt lat="44.16366" lon="1.61051">
        <ele>227.6</ele>
        <time>2023-08-20T16:04:32Z</time>
      </trkpt>
      <trkpt lat="44.16341" lon="1.6105">
        <ele>227.8</ele>
        <time>2023-08-20T16:04:33Z</time>
      </trkpt>
      <trkpt lat="44.16321" lon="1.6105">
        <ele>228.4</ele>
        <time>2023-08-20T16:04:34Z</time>
      </trkpt>
      <trkpt lat="44.1629" lon="1.61048">
        <ele>228.6</ele>
        <time>2023-08-20T16:04:35Z</time>
      </trkpt>
      <trkpt lat="44.16265" lon="1.61047">
        <ele>229</ele>
        <time>2023-08-20T16:04:36Z</time>
      </trkpt>
      <trkpt lat="44.16238" lon="1.61045">
        <ele>229.4</ele>
        <time>2023-08-20T16:04:37Z</time>
      </trkpt>
      <trkpt lat="44.16212" lon="1.61044">
        <ele>229.4</ele>
        <time>2023-08-20T16:04:38Z</time>
      </trkpt>
      <trkpt lat="44.16185" lon="1.61043">
        <ele>229.4</ele>
        <time>2023-08-20T16:04:39Z</time>
      </trkpt>
      <trkpt lat="44.16159" lon="1.61043">
        <ele>229.4</ele>
        <time>2023-08-20T16:04:40Z</time>
      </trkpt>
      <trkpt lat="44.16134" lon="1.61041">
        <ele>229.4</ele>
        <time>2023-08-20T16:04:41Z</time>
      </trkpt>
      <trkpt lat="44.16109" lon="1.61039">
        <ele>229.2</ele>
        <time>2023-08-20T16:04:42Z</time>
      </trkpt>
      <trkpt lat="44.16085" lon="1.61036">
        <ele>228.8</ele>
        <time>2023-08-20T16:04:43Z</time>
      </trkpt>
      <trkpt lat="44.16063" lon="1.61029">
        <ele>228.2</ele>
        <time>2023-08-20T16:04:44Z</time>
      </trkpt>
      <trkpt lat="44.16041" lon="1.61018">
        <ele>226.8</ele>
        <time>2023-08-20T16:04:45Z</time>
      </trkpt>
      <trkpt lat="44.16019" lon="1.61006">
        <ele>224.4</ele>
        <time>2023-08-20T16:04:46Z</time>
      </trkpt>
      <trkpt lat="44.15997" lon="1.60993">
        <ele>223.8</ele>
        <time>2023-08-20T16:04:47Z</time>
      </trkpt>
      <trkpt lat="44.15974" lon="1.60982">
        <ele>223.2</ele>
        <time>2023-08-20T16:04:48Z</time>
      </trkpt>
      <trkpt lat="44.1595" lon="1.60972">
        <ele>223</ele>
        <time>2023-08-20T16:04:49Z</time>
      </trkpt>
      <trkpt lat="44.15923" lon="1.60963">
        <ele>222.8</ele>
        <time>2023-08-20T16:04:50Z</time>
      </trkpt>
      <trkpt lat="44.15896" lon="1.60954">
        <ele>222.8</ele>
        <time>2023-08-20T16:04:51Z</time>
      </trkpt>
      <trkpt lat="44.15843" lon="1.60935">
        <ele>222.8</ele>
        <time>2023-08-20T16:04:53Z</time>
      </trkpt>
      <trkpt lat="44.15817" lon="1.60925">
        <ele>222.8</ele>
        <time>2023-08-20T16:04:54Z</time>
      </trkpt>
      <trkpt lat="44.15793" lon="1.60913">
        <ele>222.8</ele>
        <time>2023-08-20T16:04:55Z</time>
      </trkpt>
      <trkpt lat="44.15771" lon="1.60901">
        <ele>222.8</ele>
        <time>2023-08-20T16:04:56Z</time>
      </trkpt>
      <trkpt lat="44.1575" lon="1.60889">
        <ele>222.8</ele>
        <time>2023-08-20T16:04:57Z</time>
      </trkpt>
      <trkpt lat="44.15732" lon="1.60879">
        <ele>222.8</ele>
        <time>2023-08-20T16:04:58Z</time>
      </trkpt>
      <trkpt lat="44.15712" lon="1.60872">
        <ele>222.8</ele>
        <time>2023-08-20T16:04:59Z</time>
      </trkpt>
      <trkpt lat="44.15691" lon="1.60866">
        <ele>222.2</ele>
        <time>2023-08-20T16:05:00Z</time>
      </trkpt>
      <trkpt lat="44.15669" lon="1.60863">
        <ele>221</ele>
        <time>2023-08-20T16:05:01Z</time>
      </trkpt>
      <trkpt lat="44.1562" lon="1.60856">
        <ele>219.4</ele>
        <time>2023-08-20T16:05:03Z</time>
      </trkpt>
      <trkpt lat="44.15596" lon="1.60849">
        <ele>218.8</ele>
        <time>2023-08-20T16:05:04Z</time>
      </trkpt>
      <trkpt lat="44.15529" lon="1.60812">
        <ele>218.4</ele>
        <time>2023-08-20T16:05:07Z</time>
      </trkpt>
      <trkpt lat="44.15508" lon="1.60799">
        <ele>218.2</ele>
        <time>2023-08-20T16:05:08Z</time>
      </trkpt>
      <trkpt lat="44.15488" lon="1.60788">
        <ele>218</ele>
        <time>2023-08-20T16:05:09Z</time>
      </trkpt>
      <trkpt lat="44.15467" lon="1.60779">
        <ele>217.6</ele>
        <time>2023-08-20T16:05:10Z</time>
      </trkpt>
      <trkpt lat="44.15446" lon="1.60773">
        <ele>217.4</ele>
        <time>2023-08-20T16:05:11Z</time>
      </trkpt>
      <trkpt lat="44.15424" lon="1.60768">
        <ele>216.6</ele>
        <time>2023-08-20T16:05:12Z</time>
      </trkpt>
      <trkpt lat="44.15403" lon="1.60765">
        <ele>215</ele>
        <time>2023-08-20T16:05:13Z</time>
      </trkpt>
      <trkpt lat="44.1536" lon="1.6076">
        <ele>212.8</ele>
        <time>2023-08-20T16:05:15Z</time>
      </trkpt>
      <trkpt lat="44.1534" lon="1.60756">
        <ele>212</ele>
        <time>2023-08-20T16:05:16Z</time>
      </trkpt>
      <trkpt lat="44.1532" lon="1.6075">
        <ele>210</ele>
        <time>2023-08-20T16:05:17Z</time>
      </trkpt>
      <trkpt lat="44.15301" lon="1.60741">
        <ele>209.2</ele>
        <time>2023-08-20T16:05:18Z</time>
      </trkpt>
      <trkpt lat="44.15283" lon="1.6073">
        <ele>207</ele>
        <time>2023-08-20T16:05:19Z</time>
      </trkpt>
      <trkpt lat="44.15265" lon="1.60719">
        <ele>205.8</ele>
        <time>2023-08-20T16:05:20Z</time>
      </trkpt>
      <trkpt lat="44.15248" lon="1.6071">
        <ele>203.4</ele>
        <time>2023-08-20T16:05:21Z</time>
      </trkpt>
      <trkpt lat="44.15231" lon="1.60703">
        <ele>201.2</ele>
        <time>2023-08-20T16:05:22Z</time>
      </trkpt>
      <trkpt lat="44.15216" lon="1.60698">
        <ele>200.4</ele>
        <time>2023-08-20T16:05:23Z</time>
      </trkpt>
      <trkpt lat="44.15201" lon="1.60696">
        <ele>198</ele>
        <time>2023-08-20T16:05:24Z</time>
      </trkpt>
      <trkpt lat="44.15187" lon="1.60697">
        <ele>196.8</ele>
        <time>2023-08-20T16:05:25Z</time>
      </trkpt>
      <trkpt lat="44.15174" lon="1.60703">
        <ele>194.2</ele>
        <time>2023-08-20T16:05:26Z</time>
      </trkpt>
      <trkpt lat="44.15163" lon="1.6071">
        <ele>193</ele>
        <time>2023-08-20T16:05:27Z</time>
      </trkpt>
      <trkpt lat="44.15152" lon="1.60717">
        <ele>189.8</ele>
        <time>2023-08-20T16:05:28Z</time>
      </trkpt>
      <trkpt lat="44.1514" lon="1.6072">
        <ele>188.4</ele>
        <time>2023-08-20T16:05:29Z</time>
      </trkpt>
      <trkpt lat="44.15127" lon="1.60719">
        <ele>185.6</ele>
        <time>2023-08-20T16:05:30Z</time>
      </trkpt>
      <trkpt lat="44.15112" lon="1.60711">
        <ele>183.4</ele>
        <time>2023-08-20T16:05:31Z</time>
      </trkpt>
      <trkpt lat="44.15097" lon="1.60698">
        <ele>182.6</ele>
        <time>2023-08-20T16:05:32Z</time>
      </trkpt>
      <trkpt lat="44.1508" lon="1.60683">
        <ele>181.2</ele>
        <time>2023-08-20T16:05:33Z</time>
      </trkpt>
      <trkpt lat="44.15061" lon="1.60667">
        <ele>181</ele>
        <time>2023-08-20T16:05:34Z</time>
      </trkpt>
      <trkpt lat="44.15041" lon="1.60654">
        <ele>180.6</ele>
        <time>2023-08-20T16:05:35Z</time>
      </trkpt>
      <trkpt lat="44.14978" lon="1.60629">
        <ele>180.6</ele>
        <time>2023-08-20T16:05:38Z</time>
      </trkpt>
      <trkpt lat="44.14919" lon="1.60627">
        <ele>182.4</ele>
        <time>2023-08-20T16:05:41Z</time>
      </trkpt>
      <trkpt lat="44.14902" lon="1.60627">
        <ele>183</ele>
        <time>2023-08-20T16:05:42Z</time>
      </trkpt>
      <trkpt lat="44.14885" lon="1.60623">
        <ele>183.4</ele>
        <time>2023-08-20T16:05:43Z</time>
      </trkpt>
      <trkpt lat="44.14867" lon="1.60616">
        <ele>184</ele>
        <time>2023-08-20T16:05:44Z</time>
      </trkpt>
      <trkpt lat="44.14849" lon="1.60608">
        <ele>184.2</ele>
        <time>2023-08-20T16:05:45Z</time>
      </trkpt>
      <trkpt lat="44.14812" lon="1.60589">
        <ele>184.4</ele>
        <time>2023-08-20T16:05:47Z</time>
      </trkpt>
      <trkpt lat="44.14777" lon="1.60571">
        <ele>185</ele>
        <time>2023-08-20T16:05:49Z</time>
      </trkpt>
      <trkpt lat="44.14762" lon="1.60559">
        <ele>185.2</ele>
        <time>2023-08-20T16:05:50Z</time>
      </trkpt>
      <trkpt lat="44.14747" lon="1.60546">
        <ele>185.2</ele>
        <time>2023-08-20T16:05:51Z</time>
      </trkpt>
      <trkpt lat="44.14733" lon="1.60535">
        <ele>185</ele>
        <time>2023-08-20T16:05:52Z</time>
      </trkpt>
      <trkpt lat="44.14718" lon="1.60527">
        <ele>185</ele>
        <time>2023-08-20T16:05:53Z</time>
      </trkpt>
      <trkpt lat="44.14703" lon="1.60522">
        <ele>185</ele>
        <time>2023-08-20T16:05:54Z</time>
      </trkpt>
      <trkpt lat="44.14688" lon="1.6052">
        <ele>185.2</ele>
        <time>2023-08-20T16:05:55Z</time>
      </trkpt>
      <trkpt lat="44.14674" lon="1.6052">
        <ele>185.2</ele>
        <time>2023-08-20T16:05:56Z</time>
      </trkpt>
      <trkpt lat="44.14662" lon="1.6052">
        <ele>185</ele>
        <time>2023-08-20T16:05:57Z</time>
      </trkpt>
      <trkpt lat="44.14652" lon="1.60521">
        <ele>185</ele>
        <time>2023-08-20T16:05:58Z</time>
      </trkpt>
      <trkpt lat="44.14644" lon="1.60522">
        <ele>184.8</ele>
        <time>2023-08-20T16:05:59Z</time>
      </trkpt>
      <trkpt lat="44.14636" lon="1.60523">
        <ele>184.8</ele>
        <time>2023-08-20T16:06:00Z</time>
      </trkpt>
      <trkpt lat="44.14628" lon="1.60525">
        <ele>184.8</ele>
        <time>2023-08-20T16:06:01Z</time>
      </trkpt>
      <trkpt lat="44.1462" lon="1.60527">
        <ele>184.6</ele>
        <time>2023-08-20T16:06:02Z</time>
      </trkpt>
      <trkpt lat="44.14612" lon="1.6053">
        <ele>184.6</ele>
        <time>2023-08-20T16:06:03Z</time>
      </trkpt>
      <trkpt lat="44.14605" lon="1.60532">
        <ele>184.4</ele>
        <time>2023-08-20T16:06:04Z</time>
      </trkpt>
      <trkpt lat="44.14597" lon="1.60534">
        <ele>184.4</ele>
        <time>2023-08-20T16:06:05Z</time>
      </trkpt>
      <trkpt lat="44.14585" lon="1.60535">
        <ele>184.2</ele>
        <time>2023-08-20T16:06:07Z</time>
      </trkpt>
      <trkpt lat="44.1458" lon="1.60534">
        <ele>184.2</ele>
        <time>2023-08-20T16:06:08Z</time>
      </trkpt>
      <trkpt lat="44.14577" lon="1.60531">
        <ele>184</ele>
        <time>2023-08-20T16:06:09Z</time>
      </trkpt>
      <trkpt lat="44.14575" lon="1.60528">
        <ele>183.8</ele>
        <time>2023-08-20T16:06:10Z</time>
      </trkpt>
      <trkpt lat="44.14571" lon="1.60522">
        <ele>183.6</ele>
        <time>2023-08-20T16:06:11Z</time>
      </trkpt>
      <trkpt lat="44.14567" lon="1.60518">
        <ele>183.4</ele>
        <time>2023-08-20T16:06:12Z</time>
      </trkpt>
      <trkpt lat="44.14562" lon="1.60515">
        <ele>183.2</ele>
        <time>2023-08-20T16:06:13Z</time>
      </trkpt>
      <trkpt lat="44.14555" lon="1.60514">
        <ele>183</ele>
        <time>2023-08-20T16:06:14Z</time>
      </trkpt>
      <trkpt lat="44.14547" lon="1.60512">
        <ele>182.6</ele>
        <time>2023-08-20T16:06:15Z</time>
      </trkpt>
      <trkpt lat="44.14539" lon="1.60508">
        <ele>182.4</ele>
        <time>2023-08-20T16:06:16Z</time>
      </trkpt>
      <trkpt lat="44.14529" lon="1.60502">
        <ele>182.4</ele>
        <time>2023-08-20T16:06:17Z</time>
      </trkpt>
      <trkpt lat="44.14509" lon="1.60489">
        <ele>182.4</ele>
        <time>2023-08-20T16:06:19Z</time>
      </trkpt>
      <trkpt lat="44.14485" lon="1.60486">
        <ele>182.2</ele>
        <time>2023-08-20T16:06:21Z</time>
      </trkpt>
      <trkpt lat="44.14475" lon="1.60489">
        <ele>182</ele>
        <time>2023-08-20T16:06:22Z</time>
      </trkpt>
      <trkpt lat="44.14466" lon="1.60496">
        <ele>182.2</ele>
        <time>2023-08-20T16:06:23Z</time>
      </trkpt>
      <trkpt lat="44.14457" lon="1.60508">
        <ele>182.4</ele>
        <time>2023-08-20T16:06:24Z</time>
      </trkpt>
      <trkpt lat="44.14448" lon="1.60524">
        <ele>182.6</ele>
        <time>2023-08-20T16:06:25Z</time>
      </trkpt>
      <trkpt lat="44.14438" lon="1.60544">
        <ele>182.8</ele>
        <time>2023-08-20T16:06:26Z</time>
      </trkpt>
      <trkpt lat="44.14428" lon="1.60566">
        <ele>183.2</ele>
        <time>2023-08-20T16:06:27Z</time>
      </trkpt>
      <trkpt lat="44.14417" lon="1.6059">
        <ele>183.4</ele>
        <time>2023-08-20T16:06:28Z</time>
      </trkpt>
      <trkpt lat="44.14405" lon="1.60614">
        <ele>183.6</ele>
        <time>2023-08-20T16:06:29Z</time>
      </trkpt>
      <trkpt lat="44.14378" lon="1.60664">
        <ele>185.6</ele>
        <time>2023-08-20T16:06:31Z</time>
      </trkpt>
      <trkpt lat="44.14361" lon="1.60687">
        <ele>186.6</ele>
        <time>2023-08-20T16:06:32Z</time>
      </trkpt>
      <trkpt lat="44.14342" lon="1.60708">
        <ele>187</ele>
        <time>2023-08-20T16:06:33Z</time>
      </trkpt>
      <trkpt lat="44.1428" lon="1.60756">
        <ele>187.6</ele>
        <time>2023-08-20T16:06:36Z</time>
      </trkpt>
      <trkpt lat="44.14259" lon="1.60768">
        <ele>187.6</ele>
        <time>2023-08-20T16:06:37Z</time>
      </trkpt>
      <trkpt lat="44.14239" lon="1.60779">
        <ele>187.6</ele>
        <time>2023-08-20T16:06:38Z</time>
      </trkpt>
      <trkpt lat="44.14219" lon="1.60788">
        <ele>187.6</ele>
        <time>2023-08-20T16:06:39Z</time>
      </trkpt>
      <trkpt lat="44.14199" lon="1.60792">
        <ele>187.4</ele>
        <time>2023-08-20T16:06:40Z</time>
      </trkpt>
      <trkpt lat="44.1418" lon="1.6079">
        <ele>187</ele>
        <time>2023-08-20T16:06:41Z</time>
      </trkpt>
      <trkpt lat="44.1416" lon="1.60782">
        <ele>186.6</ele>
        <time>2023-08-20T16:06:42Z</time>
      </trkpt>
      <trkpt lat="44.14139" lon="1.60775">
        <ele>186</ele>
        <time>2023-08-20T16:06:43Z</time>
      </trkpt>
      <trkpt lat="44.1412" lon="1.60767">
        <ele>185.8</ele>
        <time>2023-08-20T16:06:44Z</time>
      </trkpt>
      <trkpt lat="44.14101" lon="1.6076">
        <ele>185.6</ele>
        <time>2023-08-20T16:06:45Z</time>
      </trkpt>
      <trkpt lat="44.14082" lon="1.60755">
        <ele>185.4</ele>
        <time>2023-08-20T16:06:46Z</time>
      </trkpt>
      <trkpt lat="44.14063" lon="1.60754">
        <ele>185.6</ele>
        <time>2023-08-20T16:06:47Z</time>
      </trkpt>
      <trkpt lat="44.14045" lon="1.60757">
        <ele>185.6</ele>
        <time>2023-08-20T16:06:48Z</time>
      </trkpt>
      <trkpt lat="44.14027" lon="1.60767">
        <ele>185.6</ele>
        <time>2023-08-20T16:06:49Z</time>
      </trkpt>
      <trkpt lat="44.14007" lon="1.60779">
        <ele>185.8</ele>
        <time>2023-08-20T16:06:50Z</time>
      </trkpt>
      <trkpt lat="44.13987" lon="1.60791">
        <ele>185.8</ele>
        <time>2023-08-20T16:06:51Z</time>
      </trkpt>
      <trkpt lat="44.13967" lon="1.60802">
        <ele>186.2</ele>
        <time>2023-08-20T16:06:52Z</time>
      </trkpt>
      <trkpt lat="44.13912" lon="1.60828">
        <ele>186.8</ele>
        <time>2023-08-20T16:06:55Z</time>
      </trkpt>
      <trkpt lat="44.13895" lon="1.60831">
        <ele>186.8</ele>
        <time>2023-08-20T16:06:56Z</time>
      </trkpt>
      <trkpt lat="44.13878" lon="1.60831">
        <ele>186.8</ele>
        <time>2023-08-20T16:06:57Z</time>
      </trkpt>
      <trkpt lat="44.13862" lon="1.60826">
        <ele>187</ele>
        <time>2023-08-20T16:06:58Z</time>
      </trkpt>
      <trkpt lat="44.13845" lon="1.60819">
        <ele>187.2</ele>
        <time>2023-08-20T16:06:59Z</time>
      </trkpt>
      <trkpt lat="44.13828" lon="1.60809">
        <ele>187.2</ele>
        <time>2023-08-20T16:07:00Z</time>
      </trkpt>
      <trkpt lat="44.13808" lon="1.60798">
        <ele>187.4</ele>
        <time>2023-08-20T16:07:01Z</time>
      </trkpt>
      <trkpt lat="44.13769" lon="1.60778">
        <ele>188</ele>
        <time>2023-08-20T16:07:03Z</time>
      </trkpt>
      <trkpt lat="44.13728" lon="1.60757">
        <ele>188.6</ele>
        <time>2023-08-20T16:07:05Z</time>
      </trkpt>
      <trkpt lat="44.13688" lon="1.60739">
        <ele>190</ele>
        <time>2023-08-20T16:07:07Z</time>
      </trkpt>
      <trkpt lat="44.13669" lon="1.60732">
        <ele>190.6</ele>
        <time>2023-08-20T16:07:08Z</time>
      </trkpt>
      <trkpt lat="44.13651" lon="1.60726">
        <ele>191</ele>
        <time>2023-08-20T16:07:09Z</time>
      </trkpt>
      <trkpt lat="44.13636" lon="1.6072">
        <ele>191.4</ele>
        <time>2023-08-20T16:07:10Z</time>
      </trkpt>
      <trkpt lat="44.13622" lon="1.60712">
        <ele>191.6</ele>
        <time>2023-08-20T16:07:11Z</time>
      </trkpt>
      <trkpt lat="44.13612" lon="1.60702">
        <ele>191.8</ele>
        <time>2023-08-20T16:07:12Z</time>
      </trkpt>
      <trkpt lat="44.13603" lon="1.60688">
        <ele>192</ele>
        <time>2023-08-20T16:07:13Z</time>
      </trkpt>
      <trkpt lat="44.13594" lon="1.60671">
        <ele>192</ele>
        <time>2023-08-20T16:07:14Z</time>
      </trkpt>
      <trkpt lat="44.13584" lon="1.60653">
        <ele>192.2</ele>
        <time>2023-08-20T16:07:15Z</time>
      </trkpt>
      <trkpt lat="44.13573" lon="1.60632">
        <ele>192.2</ele>
        <time>2023-08-20T16:07:16Z</time>
      </trkpt>
      <trkpt lat="44.13561" lon="1.60609">
        <ele>192.2</ele>
        <time>2023-08-20T16:07:17Z</time>
      </trkpt>
      <trkpt lat="44.13548" lon="1.60586">
        <ele>192.2</ele>
        <time>2023-08-20T16:07:18Z</time>
      </trkpt>
      <trkpt lat="44.13534" lon="1.60561">
        <ele>192</ele>
        <time>2023-08-20T16:07:19Z</time>
      </trkpt>
      <trkpt lat="44.1352" lon="1.60536">
        <ele>192</ele>
        <time>2023-08-20T16:07:20Z</time>
      </trkpt>
      <trkpt lat="44.13506" lon="1.6051">
        <ele>192</ele>
        <time>2023-08-20T16:07:21Z</time>
      </trkpt>
      <trkpt lat="44.13491" lon="1.60485">
        <ele>192</ele>
        <time>2023-08-20T16:07:22Z</time>
      </trkpt>
      <trkpt lat="44.13474" lon="1.60459">
        <ele>191.6</ele>
        <time>2023-08-20T16:07:23Z</time>
      </trkpt>
      <trkpt lat="44.13456" lon="1.60433">
        <ele>191.4</ele>
        <time>2023-08-20T16:07:24Z</time>
      </trkpt>
      <trkpt lat="44.13438" lon="1.60407">
        <ele>190.8</ele>
        <time>2023-08-20T16:07:25Z</time>
      </trkpt>
      <trkpt lat="44.13419" lon="1.60381">
        <ele>190.2</ele>
        <time>2023-08-20T16:07:26Z</time>
      </trkpt>
      <trkpt lat="44.134" lon="1.60357">
        <ele>190</ele>
        <time>2023-08-20T16:07:27Z</time>
      </trkpt>
      <trkpt lat="44.13381" lon="1.60334">
        <ele>189.4</ele>
        <time>2023-08-20T16:07:28Z</time>
      </trkpt>
      <trkpt lat="44.13363" lon="1.60314">
        <ele>188.8</ele>
        <time>2023-08-20T16:07:29Z</time>
      </trkpt>
      <trkpt lat="44.13345" lon="1.60294">
        <ele>187.8</ele>
        <time>2023-08-20T16:07:30Z</time>
      </trkpt>
      <trkpt lat="44.1333" lon="1.60274">
        <ele>186.6</ele>
        <time>2023-08-20T16:07:31Z</time>
      </trkpt>
      <trkpt lat="44.13317" lon="1.60254">
        <ele>185</ele>
        <time>2023-08-20T16:07:32Z</time>
      </trkpt>
      <trkpt lat="44.13306" lon="1.60235">
        <ele>183.8</ele>
        <time>2023-08-20T16:07:33Z</time>
      </trkpt>
      <trkpt lat="44.13298" lon="1.60216">
        <ele>181.6</ele>
        <time>2023-08-20T16:07:34Z</time>
      </trkpt>
      <trkpt lat="44.13293" lon="1.60196">
        <ele>179.4</ele>
        <time>2023-08-20T16:07:35Z</time>
      </trkpt>
      <trkpt lat="44.13291" lon="1.60175">
        <ele>178.4</ele>
        <time>2023-08-20T16:07:36Z</time>
      </trkpt>
      <trkpt lat="44.13291" lon="1.60154">
        <ele>176.2</ele>
        <time>2023-08-20T16:07:37Z</time>
      </trkpt>
      <trkpt lat="44.13293" lon="1.60132">
        <ele>175.4</ele>
        <time>2023-08-20T16:07:38Z</time>
      </trkpt>
      <trkpt lat="44.13294" lon="1.60112">
        <ele>173.2</ele>
        <time>2023-08-20T16:07:39Z</time>
      </trkpt>
      <trkpt lat="44.13295" lon="1.60092">
        <ele>172.6</ele>
        <time>2023-08-20T16:07:40Z</time>
      </trkpt>
      <trkpt lat="44.13294" lon="1.60074">
        <ele>171.2</ele>
        <time>2023-08-20T16:07:41Z</time>
      </trkpt>
      <trkpt lat="44.13289" lon="1.60057">
        <ele>171</ele>
        <time>2023-08-20T16:07:42Z</time>
      </trkpt>
      <trkpt lat="44.13282" lon="1.60041">
        <ele>170.4</ele>
        <time>2023-08-20T16:07:43Z</time>
      </trkpt>
      <trkpt lat="44.13272" lon="1.60024">
        <ele>170.2</ele>
        <time>2023-08-20T16:07:44Z</time>
      </trkpt>
      <trkpt lat="44.13261" lon="1.60006">
        <ele>170</ele>
        <time>2023-08-20T16:07:45Z</time>
      </trkpt>
      <trkpt lat="44.1325" lon="1.59987">
        <ele>170</ele>
        <time>2023-08-20T16:07:46Z</time>
      </trkpt>
      <trkpt lat="44.13214" lon="1.5993">
        <ele>170</ele>
        <time>2023-08-20T16:07:49Z</time>
      </trkpt>
      <trkpt lat="44.13192" lon="1.59895">
        <ele>170.4</ele>
        <time>2023-08-20T16:07:51Z</time>
      </trkpt>
      <trkpt lat="44.1318" lon="1.59879">
        <ele>171</ele>
        <time>2023-08-20T16:07:52Z</time>
      </trkpt>
      <trkpt lat="44.13168" lon="1.59862">
        <ele>171.6</ele>
        <time>2023-08-20T16:07:53Z</time>
      </trkpt>
      <trkpt lat="44.13123" lon="1.59808">
        <ele>172.4</ele>
        <time>2023-08-20T16:07:56Z</time>
      </trkpt>
      <trkpt lat="44.13094" lon="1.5977">
        <ele>172.6</ele>
        <time>2023-08-20T16:07:58Z</time>
      </trkpt>
      <trkpt lat="44.13082" lon="1.59748">
        <ele>172.4</ele>
        <time>2023-08-20T16:07:59Z</time>
      </trkpt>
      <trkpt lat="44.13049" lon="1.59673">
        <ele>171.6</ele>
        <time>2023-08-20T16:08:02Z</time>
      </trkpt>
      <trkpt lat="44.13038" lon="1.59647">
        <ele>171.4</ele>
        <time>2023-08-20T16:08:03Z</time>
      </trkpt>
      <trkpt lat="44.13008" lon="1.59575">
        <ele>170.2</ele>
        <time>2023-08-20T16:08:06Z</time>
      </trkpt>
      <trkpt lat="44.12998" lon="1.59553">
        <ele>170</ele>
        <time>2023-08-20T16:08:07Z</time>
      </trkpt>
      <trkpt lat="44.12988" lon="1.59532">
        <ele>169.4</ele>
        <time>2023-08-20T16:08:08Z</time>
      </trkpt>
      <trkpt lat="44.12977" lon="1.59514">
        <ele>169</ele>
        <time>2023-08-20T16:08:09Z</time>
      </trkpt>
      <trkpt lat="44.12963" lon="1.59497">
        <ele>168.6</ele>
        <time>2023-08-20T16:08:10Z</time>
      </trkpt>
      <trkpt lat="44.12948" lon="1.59481">
        <ele>167.4</ele>
        <time>2023-08-20T16:08:11Z</time>
      </trkpt>
      <trkpt lat="44.12914" lon="1.59451">
        <ele>166.2</ele>
        <time>2023-08-20T16:08:13Z</time>
      </trkpt>
      <trkpt lat="44.12859" lon="1.59401">
        <ele>165.8</ele>
        <time>2023-08-20T16:08:16Z</time>
      </trkpt>
      <trkpt lat="44.12814" lon="1.59357">
        <ele>165.8</ele>
        <time>2023-08-20T16:08:18Z</time>
      </trkpt>
      <trkpt lat="44.12775" lon="1.59322">
        <ele>167.2</ele>
        <time>2023-08-20T16:08:20Z</time>
      </trkpt>
      <trkpt lat="44.12757" lon="1.59307">
        <ele>167.4</ele>
        <time>2023-08-20T16:08:21Z</time>
      </trkpt>
      <trkpt lat="44.12739" lon="1.59292">
        <ele>168</ele>
        <time>2023-08-20T16:08:22Z</time>
      </trkpt>
      <trkpt lat="44.12723" lon="1.59277">
        <ele>168.2</ele>
        <time>2023-08-20T16:08:23Z</time>
      </trkpt>
      <trkpt lat="44.12708" lon="1.59261">
        <ele>168.4</ele>
        <time>2023-08-20T16:08:24Z</time>
      </trkpt>
      <trkpt lat="44.12695" lon="1.59244">
        <ele>168.4</ele>
        <time>2023-08-20T16:08:25Z</time>
      </trkpt>
      <trkpt lat="44.12682" lon="1.59229">
        <ele>168.4</ele>
        <time>2023-08-20T16:08:26Z</time>
      </trkpt>
      <trkpt lat="44.12671" lon="1.59214">
        <ele>168.6</ele>
        <time>2023-08-20T16:08:27Z</time>
      </trkpt>
      <trkpt lat="44.12662" lon="1.59198">
        <ele>168.6</ele>
        <time>2023-08-20T16:08:28Z</time>
      </trkpt>
      <trkpt lat="44.12656" lon="1.5918">
        <ele>168.8</ele>
        <time>2023-08-20T16:08:29Z</time>
      </trkpt>
      <trkpt lat="44.12652" lon="1.59162">
        <ele>168.8</ele>
        <time>2023-08-20T16:08:30Z</time>
      </trkpt>
      <trkpt lat="44.1265" lon="1.59141">
        <ele>168.8</ele>
        <time>2023-08-20T16:08:31Z</time>
      </trkpt>
      <trkpt lat="44.12648" lon="1.59119">
        <ele>169</ele>
        <time>2023-08-20T16:08:32Z</time>
      </trkpt>
      <trkpt lat="44.12647" lon="1.59096">
        <ele>169</ele>
        <time>2023-08-20T16:08:33Z</time>
      </trkpt>
      <trkpt lat="44.12645" lon="1.59072">
        <ele>169</ele>
        <time>2023-08-20T16:08:34Z</time>
      </trkpt>
      <trkpt lat="44.12641" lon="1.59024">
        <ele>169.6</ele>
        <time>2023-08-20T16:08:36Z</time>
      </trkpt>
      <trkpt lat="44.12638" lon="1.5898">
        <ele>171.2</ele>
        <time>2023-08-20T16:08:38Z</time>
      </trkpt>
      <trkpt lat="44.12637" lon="1.5896">
        <ele>171.8</ele>
        <time>2023-08-20T16:08:39Z</time>
      </trkpt>
      <trkpt lat="44.12633" lon="1.58943">
        <ele>172.8</ele>
        <time>2023-08-20T16:08:40Z</time>
      </trkpt>
      <trkpt lat="44.12627" lon="1.58929">
        <ele>173</ele>
        <time>2023-08-20T16:08:41Z</time>
      </trkpt>
      <trkpt lat="44.12619" lon="1.58917">
        <ele>173.2</ele>
        <time>2023-08-20T16:08:42Z</time>
      </trkpt>
      <trkpt lat="44.12608" lon="1.58905">
        <ele>173.4</ele>
        <time>2023-08-20T16:08:43Z</time>
      </trkpt>
      <trkpt lat="44.12596" lon="1.58893">
        <ele>173.6</ele>
        <time>2023-08-20T16:08:44Z</time>
      </trkpt>
      <trkpt lat="44.12582" lon="1.5888">
        <ele>173.8</ele>
        <time>2023-08-20T16:08:45Z</time>
      </trkpt>
      <trkpt lat="44.12567" lon="1.58865">
        <ele>174</ele>
        <time>2023-08-20T16:08:46Z</time>
      </trkpt>
      <trkpt lat="44.12551" lon="1.58849">
        <ele>174.4</ele>
        <time>2023-08-20T16:08:47Z</time>
      </trkpt>
      <trkpt lat="44.12534" lon="1.58833">
        <ele>174.4</ele>
        <time>2023-08-20T16:08:48Z</time>
      </trkpt>
      <trkpt lat="44.12518" lon="1.58817">
        <ele>175.2</ele>
        <time>2023-08-20T16:08:49Z</time>
      </trkpt>
      <trkpt lat="44.12501" lon="1.58801">
        <ele>175.6</ele>
        <time>2023-08-20T16:08:50Z</time>
      </trkpt>
      <trkpt lat="44.12485" lon="1.58785">
        <ele>176.6</ele>
        <time>2023-08-20T16:08:51Z</time>
      </trkpt>
      <trkpt lat="44.12469" lon="1.58769">
        <ele>177</ele>
        <time>2023-08-20T16:08:52Z</time>
      </trkpt>
      <trkpt lat="44.12452" lon="1.58754">
        <ele>177.8</ele>
        <time>2023-08-20T16:08:53Z</time>
      </trkpt>
      <trkpt lat="44.12437" lon="1.58738">
        <ele>178.8</ele>
        <time>2023-08-20T16:08:54Z</time>
      </trkpt>
      <trkpt lat="44.12421" lon="1.58723">
        <ele>179.2</ele>
        <time>2023-08-20T16:08:55Z</time>
      </trkpt>
      <trkpt lat="44.12406" lon="1.58708">
        <ele>179.4</ele>
        <time>2023-08-20T16:08:56Z</time>
      </trkpt>
      <trkpt lat="44.12392" lon="1.58694">
        <ele>179.6</ele>
        <time>2023-08-20T16:08:57Z</time>
      </trkpt>
      <trkpt lat="44.12378" lon="1.58681">
        <ele>179.6</ele>
        <time>2023-08-20T16:08:58Z</time>
      </trkpt>
      <trkpt lat="44.12365" lon="1.58669">
        <ele>179.6</ele>
        <time>2023-08-20T16:08:59Z</time>
      </trkpt>
      <trkpt lat="44.12353" lon="1.58657">
        <ele>179.6</ele>
        <time>2023-08-20T16:09:00Z</time>
      </trkpt>
      <trkpt lat="44.12342" lon="1.58646">
        <ele>179.6</ele>
        <time>2023-08-20T16:09:01Z</time>
      </trkpt>
      <trkpt lat="44.12332" lon="1.58637">
        <ele>178.8</ele>
        <time>2023-08-20T16:09:02Z</time>
      </trkpt>
      <trkpt lat="44.12321" lon="1.58631">
        <ele>177.6</ele>
        <time>2023-08-20T16:09:03Z</time>
      </trkpt>
      <trkpt lat="44.1231" lon="1.58627">
        <ele>176.8</ele>
        <time>2023-08-20T16:09:04Z</time>
      </trkpt>
      <trkpt lat="44.12301" lon="1.58625">
        <ele>175.2</ele>
        <time>2023-08-20T16:09:05Z</time>
      </trkpt>
      <trkpt lat="44.12295" lon="1.58623">
        <ele>174.4</ele>
        <time>2023-08-20T16:09:06Z</time>
      </trkpt>
      <trkpt lat="44.12291" lon="1.5862">
        <ele>173.2</ele>
        <time>2023-08-20T16:09:07Z</time>
      </trkpt>
      <trkpt lat="44.12288" lon="1.58616">
        <ele>172.6</ele>
        <time>2023-08-20T16:09:08Z</time>
      </trkpt>
      <trkpt lat="44.12287" lon="1.58613">
        <ele>170.8</ele>
        <time>2023-08-20T16:09:09Z</time>
      </trkpt>
      <trkpt lat="44.12286" lon="1.58611">
        <ele>169.8</ele>
        <time>2023-08-20T16:09:10Z</time>
      </trkpt>
      <trkpt lat="44.12285" lon="1.5861">
        <ele>168.2</ele>
        <time>2023-08-20T16:09:11Z</time>
      </trkpt>
      <trkpt lat="44.12285" lon="1.5861">
        <ele>166.8</ele>
        <time>2023-08-20T16:09:12Z</time>
      </trkpt>
      <trkpt lat="44.12285" lon="1.5861">
        <ele>166</ele>
        <time>2023-08-20T16:09:13Z</time>
      </trkpt>
      <trkpt lat="44.12277" lon="1.58611">
        <ele>164.6</ele>
        <time>2023-08-20T16:09:15Z</time>
      </trkpt>
      <trkpt lat="44.1227" lon="1.58614">
        <ele>164</ele>
        <time>2023-08-20T16:09:16Z</time>
      </trkpt>
      <trkpt lat="44.12251" lon="1.58627">
        <ele>163.6</ele>
        <time>2023-08-20T16:09:18Z</time>
      </trkpt>
      <trkpt lat="44.12241" lon="1.58635">
        <ele>163.6</ele>
        <time>2023-08-20T16:09:19Z</time>
      </trkpt>
      <trkpt lat="44.12231" lon="1.58642">
        <ele>163.2</ele>
        <time>2023-08-20T16:09:20Z</time>
      </trkpt>
      <trkpt lat="44.12172" lon="1.58682">
        <ele>162.4</ele>
        <time>2023-08-20T16:09:25Z</time>
      </trkpt>
      <trkpt lat="44.12121" lon="1.58717">
        <ele>162.4</ele>
        <time>2023-08-20T16:09:28Z</time>
      </trkpt>
      <trkpt lat="44.1205" lon="1.58763">
        <ele>162.8</ele>
        <time>2023-08-20T16:09:31Z</time>
      </trkpt>
      <trkpt lat="44.11996" lon="1.58799">
        <ele>163.6</ele>
        <time>2023-08-20T16:09:33Z</time>
      </trkpt>
      <trkpt lat="44.11969" lon="1.58818">
        <ele>165.4</ele>
        <time>2023-08-20T16:09:34Z</time>
      </trkpt>
      <trkpt lat="44.11943" lon="1.58836">
        <ele>166.6</ele>
        <time>2023-08-20T16:09:35Z</time>
      </trkpt>
      <trkpt lat="44.11916" lon="1.58853">
        <ele>168.2</ele>
        <time>2023-08-20T16:09:36Z</time>
      </trkpt>
      <trkpt lat="44.1189" lon="1.58872">
        <ele>168.8</ele>
        <time>2023-08-20T16:09:37Z</time>
      </trkpt>
      <trkpt lat="44.11863" lon="1.5889">
        <ele>169.6</ele>
        <time>2023-08-20T16:09:38Z</time>
      </trkpt>
      <trkpt lat="44.11836" lon="1.58908">
        <ele>170.2</ele>
        <time>2023-08-20T16:09:39Z</time>
      </trkpt>
      <trkpt lat="44.11808" lon="1.58926">
        <ele>170.6</ele>
        <time>2023-08-20T16:09:40Z</time>
      </trkpt>
      <trkpt lat="44.11753" lon="1.58963">
        <ele>171.4</ele>
        <time>2023-08-20T16:09:42Z</time>
      </trkpt>
      <trkpt lat="44.11725" lon="1.58982">
        <ele>171.8</ele>
        <time>2023-08-20T16:09:43Z</time>
      </trkpt>
      <trkpt lat="44.11698" lon="1.59">
        <ele>171.8</ele>
        <time>2023-08-20T16:09:44Z</time>
      </trkpt>
      <trkpt lat="44.11671" lon="1.59018">
        <ele>172.6</ele>
        <time>2023-08-20T16:09:45Z</time>
      </trkpt>
      <trkpt lat="44.11644" lon="1.59037">
        <ele>173.4</ele>
        <time>2023-08-20T16:09:46Z</time>
      </trkpt>
      <trkpt lat="44.11617" lon="1.59055">
        <ele>173.8</ele>
        <time>2023-08-20T16:09:47Z</time>
      </trkpt>
      <trkpt lat="44.1159" lon="1.59073">
        <ele>174.4</ele>
        <time>2023-08-20T16:09:48Z</time>
      </trkpt>
      <trkpt lat="44.11563" lon="1.59091">
        <ele>174.6</ele>
        <time>2023-08-20T16:09:49Z</time>
      </trkpt>
      <trkpt lat="44.11537" lon="1.59109">
        <ele>174.8</ele>
        <time>2023-08-20T16:09:50Z</time>
      </trkpt>
      <trkpt lat="44.1151" lon="1.59127">
        <ele>174.8</ele>
        <time>2023-08-20T16:09:51Z</time>
      </trkpt>
      <trkpt lat="44.11484" lon="1.59145">
        <ele>174.8</ele>
        <time>2023-08-20T16:09:52Z</time>
      </trkpt>
      <trkpt lat="44.11458" lon="1.59162">
        <ele>175</ele>
        <time>2023-08-20T16:09:53Z</time>
      </trkpt>
      <trkpt lat="44.11432" lon="1.5918">
        <ele>175.2</ele>
        <time>2023-08-20T16:09:54Z</time>
      </trkpt>
      <trkpt lat="44.11407" lon="1.59197">
        <ele>175.2</ele>
        <time>2023-08-20T16:09:55Z</time>
      </trkpt>
      <trkpt lat="44.11381" lon="1.59213">
        <ele>175.4</ele>
        <time>2023-08-20T16:09:56Z</time>
      </trkpt>
      <trkpt lat="44.11355" lon="1.59231">
        <ele>175.4</ele>
        <time>2023-08-20T16:09:57Z</time>
      </trkpt>
      <trkpt lat="44.11329" lon="1.59248">
        <ele>175.4</ele>
        <time>2023-08-20T16:09:58Z</time>
      </trkpt>
      <trkpt lat="44.11304" lon="1.59266">
        <ele>175.4</ele>
        <time>2023-08-20T16:09:59Z</time>
      </trkpt>
      <trkpt lat="44.11278" lon="1.59284">
        <ele>175.4</ele>
        <time>2023-08-20T16:10:00Z</time>
      </trkpt>
      <trkpt lat="44.11252" lon="1.59301">
        <ele>175.6</ele>
        <time>2023-08-20T16:10:01Z</time>
      </trkpt>
      <trkpt lat="44.11228" lon="1.59318">
        <ele>175.6</ele>
        <time>2023-08-20T16:10:02Z</time>
      </trkpt>
      <trkpt lat="44.11205" lon="1.59335">
        <ele>175.6</ele>
        <time>2023-08-20T16:10:03Z</time>
      </trkpt>
      <trkpt lat="44.11183" lon="1.5935">
        <ele>175.4</ele>
        <time>2023-08-20T16:10:04Z</time>
      </trkpt>
      <trkpt lat="44.11162" lon="1.59364">
        <ele>175.4</ele>
        <time>2023-08-20T16:10:05Z</time>
      </trkpt>
      <trkpt lat="44.11142" lon="1.59378">
        <ele>175.2</ele>
        <time>2023-08-20T16:10:06Z</time>
      </trkpt>
      <trkpt lat="44.11123" lon="1.5939">
        <ele>175.2</ele>
        <time>2023-08-20T16:10:07Z</time>
      </trkpt>
      <trkpt lat="44.11106" lon="1.59402">
        <ele>173.8</ele>
        <time>2023-08-20T16:10:08Z</time>
      </trkpt>
      <trkpt lat="44.11089" lon="1.59414">
        <ele>173.2</ele>
        <time>2023-08-20T16:10:09Z</time>
      </trkpt>
      <trkpt lat="44.11074" lon="1.59424">
        <ele>171.4</ele>
        <time>2023-08-20T16:10:10Z</time>
      </trkpt>
      <trkpt lat="44.1106" lon="1.59433">
        <ele>169.2</ele>
        <time>2023-08-20T16:10:11Z</time>
      </trkpt>
      <trkpt lat="44.11049" lon="1.59441">
        <ele>168.4</ele>
        <time>2023-08-20T16:10:12Z</time>
      </trkpt>
      <trkpt lat="44.11034" lon="1.5945">
        <ele>166.6</ele>
        <time>2023-08-20T16:10:13Z</time>
      </trkpt>
      <trkpt lat="44.11017" lon="1.59462">
        <ele>166</ele>
        <time>2023-08-20T16:10:14Z</time>
      </trkpt>
      <trkpt lat="44.11003" lon="1.59472">
        <ele>164.4</ele>
        <time>2023-08-20T16:10:15Z</time>
      </trkpt>
      <trkpt lat="44.10976" lon="1.5949">
        <ele>162.6</ele>
        <time>2023-08-20T16:10:17Z</time>
      </trkpt>
      <trkpt lat="44.10963" lon="1.59499">
        <ele>162.2</ele>
        <time>2023-08-20T16:10:18Z</time>
      </trkpt>
      <trkpt lat="44.1095" lon="1.59509">
        <ele>161.2</ele>
        <time>2023-08-20T16:10:19Z</time>
      </trkpt>
      <trkpt lat="44.10937" lon="1.59519">
        <ele>160.6</ele>
        <time>2023-08-20T16:10:20Z</time>
      </trkpt>
      <trkpt lat="44.10924" lon="1.59529">
        <ele>160</ele>
        <time>2023-08-20T16:10:21Z</time>
      </trkpt>
      <trkpt lat="44.10893" lon="1.5955">
        <ele>158.8</ele>
        <time>2023-08-20T16:10:23Z</time>
      </trkpt>
      <trkpt lat="44.10875" lon="1.59562">
        <ele>158.6</ele>
        <time>2023-08-20T16:10:24Z</time>
      </trkpt>
      <trkpt lat="44.10837" lon="1.59587">
        <ele>158.4</ele>
        <time>2023-08-20T16:10:26Z</time>
      </trkpt>
      <trkpt lat="44.10791" lon="1.59616">
        <ele>158.4</ele>
        <time>2023-08-20T16:10:28Z</time>
      </trkpt>
      <trkpt lat="44.10738" lon="1.59651">
        <ele>159</ele>
        <time>2023-08-20T16:10:30Z</time>
      </trkpt>
      <trkpt lat="44.10689" lon="1.59691">
        <ele>162</ele>
        <time>2023-08-20T16:10:31Z</time>
      </trkpt>
      <trkpt lat="44.10651" lon="1.59716">
        <ele>163.6</ele>
        <time>2023-08-20T16:10:32Z</time>
      </trkpt>
      <trkpt lat="44.10619" lon="1.59737">
        <ele>165.2</ele>
        <time>2023-08-20T16:10:33Z</time>
      </trkpt>
      <trkpt lat="44.10558" lon="1.59777">
        <ele>165.8</ele>
        <time>2023-08-20T16:10:35Z</time>
      </trkpt>
      <trkpt lat="44.10529" lon="1.59796">
        <ele>165.8</ele>
        <time>2023-08-20T16:10:36Z</time>
      </trkpt>
      <trkpt lat="44.10501" lon="1.59816">
        <ele>166</ele>
        <time>2023-08-20T16:10:37Z</time>
      </trkpt>
      <trkpt lat="44.10472" lon="1.59834">
        <ele>165.6</ele>
        <time>2023-08-20T16:10:38Z</time>
      </trkpt>
      <trkpt lat="44.10445" lon="1.59852">
        <ele>164.8</ele>
        <time>2023-08-20T16:10:39Z</time>
      </trkpt>
      <trkpt lat="44.10418" lon="1.59871">
        <ele>164</ele>
        <time>2023-08-20T16:10:40Z</time>
      </trkpt>
      <trkpt lat="44.10391" lon="1.59888">
        <ele>163.2</ele>
        <time>2023-08-20T16:10:41Z</time>
      </trkpt>
      <trkpt lat="44.10364" lon="1.59905">
        <ele>161.6</ele>
        <time>2023-08-20T16:10:42Z</time>
      </trkpt>
      <trkpt lat="44.10309" lon="1.59944">
        <ele>159.4</ele>
        <time>2023-08-20T16:10:44Z</time>
      </trkpt>
      <trkpt lat="44.10281" lon="1.59963">
        <ele>159</ele>
        <time>2023-08-20T16:10:45Z</time>
      </trkpt>
      <trkpt lat="44.10254" lon="1.59982">
        <ele>157.8</ele>
        <time>2023-08-20T16:10:46Z</time>
      </trkpt>
      <trkpt lat="44.10198" lon="1.60019">
        <ele>156.8</ele>
        <time>2023-08-20T16:10:48Z</time>
      </trkpt>
      <trkpt lat="44.1017" lon="1.60038">
        <ele>156.6</ele>
        <time>2023-08-20T16:10:49Z</time>
      </trkpt>
      <trkpt lat="44.10116" lon="1.60074">
        <ele>156.2</ele>
        <time>2023-08-20T16:10:51Z</time>
      </trkpt>
      <trkpt lat="44.10089" lon="1.60092">
        <ele>156.2</ele>
        <time>2023-08-20T16:10:52Z</time>
      </trkpt>
      <trkpt lat="44.10063" lon="1.6011">
        <ele>156</ele>
        <time>2023-08-20T16:10:53Z</time>
      </trkpt>
      <trkpt lat="44.10037" lon="1.60128">
        <ele>156</ele>
        <time>2023-08-20T16:10:54Z</time>
      </trkpt>
      <trkpt lat="44.1001" lon="1.60145">
        <ele>156</ele>
        <time>2023-08-20T16:10:55Z</time>
      </trkpt>
      <trkpt lat="44.09957" lon="1.60182">
        <ele>156</ele>
        <time>2023-08-20T16:10:57Z</time>
      </trkpt>
      <trkpt lat="44.09904" lon="1.60218">
        <ele>156</ele>
        <time>2023-08-20T16:10:59Z</time>
      </trkpt>
      <trkpt lat="44.09877" lon="1.60236">
        <ele>156</ele>
        <time>2023-08-20T16:11:00Z</time>
      </trkpt>
      <trkpt lat="44.09824" lon="1.60272">
        <ele>156.2</ele>
        <time>2023-08-20T16:11:02Z</time>
      </trkpt>
      <trkpt lat="44.0977" lon="1.60308">
        <ele>156.2</ele>
        <time>2023-08-20T16:11:04Z</time>
      </trkpt>
      <trkpt lat="44.09716" lon="1.60345">
        <ele>156.4</ele>
        <time>2023-08-20T16:11:06Z</time>
      </trkpt>
      <trkpt lat="44.09661" lon="1.60383">
        <ele>156.6</ele>
        <time>2023-08-20T16:11:08Z</time>
      </trkpt>
      <trkpt lat="44.09605" lon="1.60421">
        <ele>156.8</ele>
        <time>2023-08-20T16:11:10Z</time>
      </trkpt>
      <trkpt lat="44.09542" lon="1.60464">
        <ele>157.4</ele>
        <time>2023-08-20T16:11:12Z</time>
      </trkpt>
      <trkpt lat="44.0949" lon="1.60499">
        <ele>157.8</ele>
        <time>2023-08-20T16:11:14Z</time>
      </trkpt>
      <trkpt lat="44.09432" lon="1.60538">
        <ele>159.2</ele>
        <time>2023-08-20T16:11:16Z</time>
      </trkpt>
      <trkpt lat="44.09404" lon="1.60558">
        <ele>159.4</ele>
        <time>2023-08-20T16:11:17Z</time>
      </trkpt>
      <trkpt lat="44.09346" lon="1.60597">
        <ele>160</ele>
        <time>2023-08-20T16:11:19Z</time>
      </trkpt>
      <trkpt lat="44.09289" lon="1.60636">
        <ele>160.2</ele>
        <time>2023-08-20T16:11:21Z</time>
      </trkpt>
      <trkpt lat="44.09233" lon="1.60674">
        <ele>160.2</ele>
        <time>2023-08-20T16:11:23Z</time>
      </trkpt>
      <trkpt lat="44.09206" lon="1.60692">
        <ele>160.2</ele>
        <time>2023-08-20T16:11:24Z</time>
      </trkpt>
      <trkpt lat="44.09179" lon="1.60709">
        <ele>160.2</ele>
        <time>2023-08-20T16:11:25Z</time>
      </trkpt>
      <trkpt lat="44.09153" lon="1.60727">
        <ele>160.2</ele>
        <time>2023-08-20T16:11:26Z</time>
      </trkpt>
      <trkpt lat="44.09126" lon="1.60745">
        <ele>160</ele>
        <time>2023-08-20T16:11:27Z</time>
      </trkpt>
      <trkpt lat="44.09101" lon="1.60763">
        <ele>160</ele>
        <time>2023-08-20T16:11:28Z</time>
      </trkpt>
      <trkpt lat="44.09075" lon="1.60781">
        <ele>159.8</ele>
        <time>2023-08-20T16:11:29Z</time>
      </trkpt>
      <trkpt lat="44.09049" lon="1.60799">
        <ele>159.8</ele>
        <time>2023-08-20T16:11:30Z</time>
      </trkpt>
      <trkpt lat="44.09023" lon="1.60816">
        <ele>159.8</ele>
        <time>2023-08-20T16:11:31Z</time>
      </trkpt>
      <trkpt lat="44.08997" lon="1.60834">
        <ele>159.6</ele>
        <time>2023-08-20T16:11:32Z</time>
      </trkpt>
      <trkpt lat="44.08971" lon="1.60851">
        <ele>159.6</ele>
        <time>2023-08-20T16:11:33Z</time>
      </trkpt>
      <trkpt lat="44.08944" lon="1.6087">
        <ele>159.6</ele>
        <time>2023-08-20T16:11:34Z</time>
      </trkpt>
      <trkpt lat="44.08889" lon="1.60907">
        <ele>159.6</ele>
        <time>2023-08-20T16:11:36Z</time>
      </trkpt>
      <trkpt lat="44.08831" lon="1.60946">
        <ele>159.8</ele>
        <time>2023-08-20T16:11:38Z</time>
      </trkpt>
      <trkpt lat="44.08773" lon="1.60986">
        <ele>160.4</ele>
        <time>2023-08-20T16:11:40Z</time>
      </trkpt>
      <trkpt lat="44.08716" lon="1.61025">
        <ele>161.8</ele>
        <time>2023-08-20T16:11:42Z</time>
      </trkpt>
      <trkpt lat="44.08659" lon="1.61063">
        <ele>162.2</ele>
        <time>2023-08-20T16:11:44Z</time>
      </trkpt>
      <trkpt lat="44.08632" lon="1.61082">
        <ele>162.4</ele>
        <time>2023-08-20T16:11:45Z</time>
      </trkpt>
      <trkpt lat="44.08605" lon="1.611">
        <ele>162.4</ele>
        <time>2023-08-20T16:11:46Z</time>
      </trkpt>
      <trkpt lat="44.08579" lon="1.61117">
        <ele>162.4</ele>
        <time>2023-08-20T16:11:47Z</time>
      </trkpt>
      <trkpt lat="44.08554" lon="1.61134">
        <ele>162.4</ele>
        <time>2023-08-20T16:11:48Z</time>
      </trkpt>
      <trkpt lat="44.08529" lon="1.61152">
        <ele>162.4</ele>
        <time>2023-08-20T16:11:49Z</time>
      </trkpt>
      <trkpt lat="44.08504" lon="1.61169">
        <ele>161.8</ele>
        <time>2023-08-20T16:11:50Z</time>
      </trkpt>
      <trkpt lat="44.08478" lon="1.61188">
        <ele>161.4</ele>
        <time>2023-08-20T16:11:51Z</time>
      </trkpt>
      <trkpt lat="44.08452" lon="1.61206">
        <ele>161</ele>
        <time>2023-08-20T16:11:52Z</time>
      </trkpt>
      <trkpt lat="44.08425" lon="1.61225">
        <ele>160.8</ele>
        <time>2023-08-20T16:11:53Z</time>
      </trkpt>
      <trkpt lat="44.08398" lon="1.61244">
        <ele>160.6</ele>
        <time>2023-08-20T16:11:54Z</time>
      </trkpt>
      <trkpt lat="44.08344" lon="1.6128">
        <ele>160.2</ele>
        <time>2023-08-20T16:11:56Z</time>
      </trkpt>
      <trkpt lat="44.08318" lon="1.61297">
        <ele>160.2</ele>
        <time>2023-08-20T16:11:57Z</time>
      </trkpt>
      <trkpt lat="44.08265" lon="1.61331">
        <ele>160</ele>
        <time>2023-08-20T16:11:59Z</time>
      </trkpt>
      <trkpt lat="44.08213" lon="1.61366">
        <ele>160.2</ele>
        <time>2023-08-20T16:12:01Z</time>
      </trkpt>
      <trkpt lat="44.08161" lon="1.61402">
        <ele>160.2</ele>
        <time>2023-08-20T16:12:03Z</time>
      </trkpt>
      <trkpt lat="44.0811" lon="1.61436">
        <ele>160</ele>
        <time>2023-08-20T16:12:05Z</time>
      </trkpt>
      <trkpt lat="44.08084" lon="1.61453">
        <ele>160</ele>
        <time>2023-08-20T16:12:06Z</time>
      </trkpt>
      <trkpt lat="44.0806" lon="1.6147">
        <ele>159.8</ele>
        <time>2023-08-20T16:12:07Z</time>
      </trkpt>
      <trkpt lat="44.08035" lon="1.61487">
        <ele>159.8</ele>
        <time>2023-08-20T16:12:08Z</time>
      </trkpt>
      <trkpt lat="44.0801" lon="1.61504">
        <ele>159.8</ele>
        <time>2023-08-20T16:12:09Z</time>
      </trkpt>
      <trkpt lat="44.07985" lon="1.61521">
        <ele>159.6</ele>
        <time>2023-08-20T16:12:10Z</time>
      </trkpt>
      <trkpt lat="44.07962" lon="1.61537">
        <ele>159.6</ele>
        <time>2023-08-20T16:12:11Z</time>
      </trkpt>
      <trkpt lat="44.07938" lon="1.61553">
        <ele>159.4</ele>
        <time>2023-08-20T16:12:12Z</time>
      </trkpt>
      <trkpt lat="44.07916" lon="1.61568">
        <ele>159.2</ele>
        <time>2023-08-20T16:12:13Z</time>
      </trkpt>
      <trkpt lat="44.07894" lon="1.61583">
        <ele>159.2</ele>
        <time>2023-08-20T16:12:14Z</time>
      </trkpt>
      <trkpt lat="44.07874" lon="1.61597">
        <ele>158.8</ele>
        <time>2023-08-20T16:12:15Z</time>
      </trkpt>
      <trkpt lat="44.07855" lon="1.61609">
        <ele>158.4</ele>
        <time>2023-08-20T16:12:16Z</time>
      </trkpt>
      <trkpt lat="44.07838" lon="1.61621">
        <ele>157</ele>
        <time>2023-08-20T16:12:17Z</time>
      </trkpt>
      <trkpt lat="44.07823" lon="1.61631">
        <ele>156.2</ele>
        <time>2023-08-20T16:12:18Z</time>
      </trkpt>
      <trkpt lat="44.0781" lon="1.61637">
        <ele>155</ele>
        <time>2023-08-20T16:12:19Z</time>
      </trkpt>
      <trkpt lat="44.07798" lon="1.61639">
        <ele>154</ele>
        <time>2023-08-20T16:12:20Z</time>
      </trkpt>
      <trkpt lat="44.07786" lon="1.61639">
        <ele>152</ele>
        <time>2023-08-20T16:12:21Z</time>
      </trkpt>
      <trkpt lat="44.07773" lon="1.61635">
        <ele>150.4</ele>
        <time>2023-08-20T16:12:22Z</time>
      </trkpt>
      <trkpt lat="44.0776" lon="1.61629">
        <ele>147.6</ele>
        <time>2023-08-20T16:12:23Z</time>
      </trkpt>
      <trkpt lat="44.07749" lon="1.61624">
        <ele>146.6</ele>
        <time>2023-08-20T16:12:24Z</time>
      </trkpt>
      <trkpt lat="44.07739" lon="1.6162">
        <ele>144.8</ele>
        <time>2023-08-20T16:12:25Z</time>
      </trkpt>
      <trkpt lat="44.0773" lon="1.61616">
        <ele>143.2</ele>
        <time>2023-08-20T16:12:26Z</time>
      </trkpt>
      <trkpt lat="44.0772" lon="1.61612">
        <ele>142.6</ele>
        <time>2023-08-20T16:12:27Z</time>
      </trkpt>
      <trkpt lat="44.0771" lon="1.61608">
        <ele>141.2</ele>
        <time>2023-08-20T16:12:28Z</time>
      </trkpt>
      <trkpt lat="44.07699" lon="1.61605">
        <ele>140.8</ele>
        <time>2023-08-20T16:12:29Z</time>
      </trkpt>
      <trkpt lat="44.07688" lon="1.61602">
        <ele>140.2</ele>
        <time>2023-08-20T16:12:30Z</time>
      </trkpt>
      <trkpt lat="44.07653" lon="1.61597">
        <ele>139</ele>
        <time>2023-08-20T16:12:33Z</time>
      </trkpt>
      <trkpt lat="44.07642" lon="1.61597">
        <ele>138.6</ele>
        <time>2023-08-20T16:12:34Z</time>
      </trkpt>
      <trkpt lat="44.07632" lon="1.616">
        <ele>137.8</ele>
        <time>2023-08-20T16:12:35Z</time>
      </trkpt>
      <trkpt lat="44.07622" lon="1.61604">
        <ele>137.6</ele>
        <time>2023-08-20T16:12:36Z</time>
      </trkpt>
      <trkpt lat="44.07611" lon="1.6161">
        <ele>137</ele>
        <time>2023-08-20T16:12:37Z</time>
      </trkpt>
      <trkpt lat="44.076" lon="1.61618">
        <ele>136.8</ele>
        <time>2023-08-20T16:12:38Z</time>
      </trkpt>
      <trkpt lat="44.07571" lon="1.61637">
        <ele>136.2</ele>
        <time>2023-08-20T16:12:41Z</time>
      </trkpt>
      <trkpt lat="44.07564" lon="1.61642">
        <ele>136</ele>
        <time>2023-08-20T16:12:42Z</time>
      </trkpt>
      <trkpt lat="44.07557" lon="1.61646">
        <ele>136</ele>
        <time>2023-08-20T16:12:43Z</time>
      </trkpt>
      <trkpt lat="44.0755" lon="1.6165">
        <ele>135.4</ele>
        <time>2023-08-20T16:12:44Z</time>
      </trkpt>
      <trkpt lat="44.07543" lon="1.61655">
        <ele>135</ele>
        <time>2023-08-20T16:12:45Z</time>
      </trkpt>
      <trkpt lat="44.07536" lon="1.61659">
        <ele>134.2</ele>
        <time>2023-08-20T16:12:46Z</time>
      </trkpt>
      <trkpt lat="44.0753" lon="1.61664">
        <ele>133.8</ele>
        <time>2023-08-20T16:12:47Z</time>
      </trkpt>
      <trkpt lat="44.07523" lon="1.61669">
        <ele>133</ele>
        <time>2023-08-20T16:12:48Z</time>
      </trkpt>
      <trkpt lat="44.07511" lon="1.61682">
        <ele>131.4</ele>
        <time>2023-08-20T16:12:50Z</time>
      </trkpt>
      <trkpt lat="44.07493" lon="1.61704">
        <ele>130.2</ele>
        <time>2023-08-20T16:12:53Z</time>
      </trkpt>
      <trkpt lat="44.07479" lon="1.61724">
        <ele>129</ele>
        <time>2023-08-20T16:12:56Z</time>
      </trkpt>
      <trkpt lat="44.07476" lon="1.61728">
        <ele>128.4</ele>
        <time>2023-08-20T16:12:57Z</time>
      </trkpt>
      <trkpt lat="44.07475" lon="1.6173">
        <ele>128</ele>
        <time>2023-08-20T16:12:58Z</time>
      </trkpt>
      <trkpt lat="44.07474" lon="1.61731">
        <ele>127.2</ele>
        <time>2023-08-20T16:12:59Z</time>
      </trkpt>
      <trkpt lat="44.07472" lon="1.61733">
        <ele>126.8</ele>
        <time>2023-08-20T16:13:00Z</time>
      </trkpt>
      <trkpt lat="44.0747" lon="1.61735">
        <ele>126</ele>
        <time>2023-08-20T16:13:01Z</time>
      </trkpt>
      <trkpt lat="44.07466" lon="1.61738">
        <ele>125.4</ele>
        <time>2023-08-20T16:13:02Z</time>
      </trkpt>
      <trkpt lat="44.0746" lon="1.6174">
        <ele>125</ele>
        <time>2023-08-20T16:13:03Z</time>
      </trkpt>
      <trkpt lat="44.07448" lon="1.61739">
        <ele>124.6</ele>
        <time>2023-08-20T16:13:05Z</time>
      </trkpt>
      <trkpt lat="44.0744" lon="1.61735">
        <ele>124.4</ele>
        <time>2023-08-20T16:13:06Z</time>
      </trkpt>
      <trkpt lat="44.07429" lon="1.6173">
        <ele>124.4</ele>
        <time>2023-08-20T16:13:07Z</time>
      </trkpt>
      <trkpt lat="44.07416" lon="1.61725">
        <ele>124.2</ele>
        <time>2023-08-20T16:13:08Z</time>
      </trkpt>
      <trkpt lat="44.07374" lon="1.61708">
        <ele>124.6</ele>
        <time>2023-08-20T16:13:11Z</time>
      </trkpt>
      <trkpt lat="44.07331" lon="1.6169">
        <ele>125.6</ele>
        <time>2023-08-20T16:13:14Z</time>
      </trkpt>
      <trkpt lat="44.07305" lon="1.61678">
        <ele>126.2</ele>
        <time>2023-08-20T16:13:16Z</time>
      </trkpt>
      <trkpt lat="44.07293" lon="1.61673">
        <ele>126.2</ele>
        <time>2023-08-20T16:13:17Z</time>
      </trkpt>
      <trkpt lat="44.07282" lon="1.61668">
        <ele>126.2</ele>
        <time>2023-08-20T16:13:18Z</time>
      </trkpt>
      <trkpt lat="44.07272" lon="1.61664">
        <ele>126.2</ele>
        <time>2023-08-20T16:13:19Z</time>
      </trkpt>
      <trkpt lat="44.07262" lon="1.6166">
        <ele>126.2</ele>
        <time>2023-08-20T16:13:20Z</time>
      </trkpt>
      <trkpt lat="44.07254" lon="1.61655">
        <ele>126.2</ele>
        <time>2023-08-20T16:13:21Z</time>
      </trkpt>
      <trkpt lat="44.07247" lon="1.61648">
        <ele>126</ele>
        <time>2023-08-20T16:13:22Z</time>
      </trkpt>
      <trkpt lat="44.07242" lon="1.61638">
        <ele>126</ele>
        <time>2023-08-20T16:13:23Z</time>
      </trkpt>
      <trkpt lat="44.07239" lon="1.61627">
        <ele>125.8</ele>
        <time>2023-08-20T16:13:24Z</time>
      </trkpt>
      <trkpt lat="44.0724" lon="1.61614">
        <ele>125.8</ele>
        <time>2023-08-20T16:13:25Z</time>
      </trkpt>
      <trkpt lat="44.07242" lon="1.61601">
        <ele>125.8</ele>
        <time>2023-08-20T16:13:26Z</time>
      </trkpt>
      <trkpt lat="44.07247" lon="1.61576">
        <ele>126.2</ele>
        <time>2023-08-20T16:13:28Z</time>
      </trkpt>
      <trkpt lat="44.0725" lon="1.61563">
        <ele>126.4</ele>
        <time>2023-08-20T16:13:29Z</time>
      </trkpt>
      <trkpt lat="44.07254" lon="1.61543">
        <ele>126.8</ele>
        <time>2023-08-20T16:13:31Z</time>
      </trkpt>
      <trkpt lat="44.07257" lon="1.61535">
        <ele>127</ele>
        <time>2023-08-20T16:13:32Z</time>
      </trkpt>
      <trkpt lat="44.07259" lon="1.6153">
        <ele>127.6</ele>
        <time>2023-08-20T16:13:33Z</time>
      </trkpt>
      <trkpt lat="44.0726" lon="1.61526">
        <ele>128</ele>
        <time>2023-08-20T16:13:34Z</time>
      </trkpt>
      <trkpt lat="44.07262" lon="1.61524">
        <ele>128.4</ele>
        <time>2023-08-20T16:13:35Z</time>
      </trkpt>
      <trkpt lat="44.07264" lon="1.61522">
        <ele>128.4</ele>
        <time>2023-08-20T16:13:36Z</time>
      </trkpt>
      <trkpt lat="44.07267" lon="1.61521">
        <ele>128.6</ele>
        <time>2023-08-20T16:13:37Z</time>
      </trkpt>
      <trkpt lat="44.07272" lon="1.61519">
        <ele>128.6</ele>
        <time>2023-08-20T16:13:38Z</time>
      </trkpt>
      <trkpt lat="44.07278" lon="1.61517">
        <ele>128.6</ele>
        <time>2023-08-20T16:13:39Z</time>
      </trkpt>
      <trkpt lat="44.07284" lon="1.61514">
        <ele>128.8</ele>
        <time>2023-08-20T16:13:40Z</time>
      </trkpt>
      <trkpt lat="44.07289" lon="1.61507">
        <ele>128.8</ele>
        <time>2023-08-20T16:13:41Z</time>
      </trkpt>
      <trkpt lat="44.07292" lon="1.61499">
        <ele>128.8</ele>
        <time>2023-08-20T16:13:42Z</time>
      </trkpt>
      <trkpt lat="44.07292" lon="1.6149">
        <ele>128.8</ele>
        <time>2023-08-20T16:13:43Z</time>
      </trkpt>
      <trkpt lat="44.07289" lon="1.61483">
        <ele>129</ele>
        <time>2023-08-20T16:13:44Z</time>
      </trkpt>
      <trkpt lat="44.07285" lon="1.61478">
        <ele>129.2</ele>
        <time>2023-08-20T16:13:45Z</time>
      </trkpt>
      <trkpt lat="44.0728" lon="1.61474">
        <ele>129.2</ele>
        <time>2023-08-20T16:13:46Z</time>
      </trkpt>
      <trkpt lat="44.07276" lon="1.61471">
        <ele>129.2</ele>
        <time>2023-08-20T16:13:47Z</time>
      </trkpt>
      <trkpt lat="44.07272" lon="1.61469">
        <ele>129.4</ele>
        <time>2023-08-20T16:13:48Z</time>
      </trkpt>
      <trkpt lat="44.07268" lon="1.61468">
        <ele>129.4</ele>
        <time>2023-08-20T16:13:49Z</time>
      </trkpt>
      <trkpt lat="44.07265" lon="1.61467">
        <ele>129.4</ele>
        <time>2023-08-20T16:13:50Z</time>
      </trkpt>
      <trkpt lat="44.07261" lon="1.61467">
        <ele>129.2</ele>
        <time>2023-08-20T16:13:51Z</time>
      </trkpt>
      <trkpt lat="44.07258" lon="1.61467">
        <ele>129.2</ele>
        <time>2023-08-20T16:13:52Z</time>
      </trkpt>
      <trkpt lat="44.07257" lon="1.61467">
        <ele>129.2</ele>
        <time>2023-08-20T16:13:53Z</time>
      </trkpt>
      <trkpt lat="44.07256" lon="1.61467">
        <ele>129.2</ele>
        <time>2023-08-20T16:13:54Z</time>
      </trkpt>
      <trkpt lat="44.07256" lon="1.61467">
        <ele>129</ele>
        <time>2023-08-20T16:13:55Z</time>
      </trkpt>
      <trkpt lat="44.07256" lon="1.61467">
        <ele>129</ele>
        <time>2023-08-20T16:13:56Z</time>
      </trkpt>
      <trkpt lat="44.07253" lon="1.61467">
        <ele>127.8</ele>
        <time>2023-08-20T16:14:39Z</time>
      </trkpt>
      <trkpt lat="44.0725" lon="1.61467">
        <ele>127.8</ele>
        <time>2023-08-20T16:14:41Z</time>
      </trkpt>
      <trkpt lat="44.0725" lon="1.61467">
        <ele>127.8</ele>
        <time>2023-08-20T16:14:42Z</time>
      </trkpt>
      <trkpt lat="44.0725" lon="1.61467">
        <ele>127.6</ele>
        <time>2023-08-20T16:14:43Z</time>
      </trkpt>
      <trkpt lat="44.07245" lon="1.61469">
        <ele>131.4</ele>
        <time>2023-08-20T17:05:05Z</time>
      </trkpt>
      <trkpt lat="44.07245" lon="1.61469">
        <ele>131.4</ele>
        <time>2023-08-20T17:05:06Z</time>
      </trkpt>
      <trkpt lat="44.07245" lon="1.61469">
        <ele>131.4</ele>
        <time>2023-08-20T17:05:07Z</time>
      </trkpt>
      <trkpt lat="44.07244" lon="1.61474">
        <ele>131.4</ele>
        <time>2023-08-20T17:05:15Z</time>
      </trkpt>
      <trkpt lat="44.07245" lon="1.61478">
        <ele>131.4</ele>
        <time>2023-08-20T17:05:16Z</time>
      </trkpt>
      <trkpt lat="44.07252" lon="1.61487">
        <ele>131.4</ele>
        <time>2023-08-20T17:05:18Z</time>
      </trkpt>
      <trkpt lat="44.07256" lon="1.61493">
        <ele>131.4</ele>
        <time>2023-08-20T17:05:19Z</time>
      </trkpt>
      <trkpt lat="44.07261" lon="1.61501">
        <ele>131.4</ele>
        <time>2023-08-20T17:05:20Z</time>
      </trkpt>
      <trkpt lat="44.07267" lon="1.6151">
        <ele>131.4</ele>
        <time>2023-08-20T17:05:21Z</time>
      </trkpt>
      <trkpt lat="44.07277" lon="1.61529">
        <ele>131.4</ele>
        <time>2023-08-20T17:05:23Z</time>
      </trkpt>
      <trkpt lat="44.07282" lon="1.61539">
        <ele>131.4</ele>
        <time>2023-08-20T17:05:24Z</time>
      </trkpt>
      <trkpt lat="44.07283" lon="1.61562">
        <ele>131.4</ele>
        <time>2023-08-20T17:05:26Z</time>
      </trkpt>
      <trkpt lat="44.0728" lon="1.61575">
        <ele>131.4</ele>
        <time>2023-08-20T17:05:27Z</time>
      </trkpt>
      <trkpt lat="44.07273" lon="1.6161">
        <ele>131.6</ele>
        <time>2023-08-20T17:05:29Z</time>
      </trkpt>
      <trkpt lat="44.07269" lon="1.6163">
        <ele>131.6</ele>
        <time>2023-08-20T17:05:30Z</time>
      </trkpt>
      <trkpt lat="44.0726" lon="1.61675">
        <ele>132.2</ele>
        <time>2023-08-20T17:05:32Z</time>
      </trkpt>
      <trkpt lat="44.07253" lon="1.61721">
        <ele>132.6</ele>
        <time>2023-08-20T17:05:34Z</time>
      </trkpt>
      <trkpt lat="44.07249" lon="1.61749">
        <ele>133.4</ele>
        <time>2023-08-20T17:05:35Z</time>
      </trkpt>
      <trkpt lat="44.07245" lon="1.61777">
        <ele>133.8</ele>
        <time>2023-08-20T17:05:36Z</time>
      </trkpt>
      <trkpt lat="44.07242" lon="1.61812">
        <ele>135</ele>
        <time>2023-08-20T17:05:37Z</time>
      </trkpt>
      <trkpt lat="44.07241" lon="1.61842">
        <ele>135.6</ele>
        <time>2023-08-20T17:05:38Z</time>
      </trkpt>
      <trkpt lat="44.07241" lon="1.61871">
        <ele>136.6</ele>
        <time>2023-08-20T17:05:39Z</time>
      </trkpt>
      <trkpt lat="44.07242" lon="1.61894">
        <ele>137.6</ele>
        <time>2023-08-20T17:05:40Z</time>
      </trkpt>
      <trkpt lat="44.07243" lon="1.61923">
        <ele>138.4</ele>
        <time>2023-08-20T17:05:41Z</time>
      </trkpt>
      <trkpt lat="44.07246" lon="1.61959">
        <ele>139.4</ele>
        <time>2023-08-20T17:05:42Z</time>
      </trkpt>
      <trkpt lat="44.07248" lon="1.61988">
        <ele>140.2</ele>
        <time>2023-08-20T17:05:43Z</time>
      </trkpt>
      <trkpt lat="44.0725" lon="1.62018">
        <ele>141</ele>
        <time>2023-08-20T17:05:44Z</time>
      </trkpt>
      <trkpt lat="44.07252" lon="1.62042">
        <ele>141.4</ele>
        <time>2023-08-20T17:05:45Z</time>
      </trkpt>
      <trkpt lat="44.07254" lon="1.62071">
        <ele>141.8</ele>
        <time>2023-08-20T17:05:46Z</time>
      </trkpt>
      <trkpt lat="44.07257" lon="1.62107">
        <ele>142.2</ele>
        <time>2023-08-20T17:05:47Z</time>
      </trkpt>
      <trkpt lat="44.0726" lon="1.62137">
        <ele>142.2</ele>
        <time>2023-08-20T17:05:48Z</time>
      </trkpt>
      <trkpt lat="44.07262" lon="1.62167">
        <ele>142.4</ele>
        <time>2023-08-20T17:05:49Z</time>
      </trkpt>
      <trkpt lat="44.07265" lon="1.62196">
        <ele>142.6</ele>
        <time>2023-08-20T17:05:50Z</time>
      </trkpt>
      <trkpt lat="44.07267" lon="1.62226">
        <ele>142.6</ele>
        <time>2023-08-20T17:05:51Z</time>
      </trkpt>
      <trkpt lat="44.07268" lon="1.62255">
        <ele>142.6</ele>
        <time>2023-08-20T17:05:52Z</time>
      </trkpt>
      <trkpt lat="44.07269" lon="1.62285">
        <ele>142.8</ele>
        <time>2023-08-20T17:05:53Z</time>
      </trkpt>
      <trkpt lat="44.07269" lon="1.62315">
        <ele>142.8</ele>
        <time>2023-08-20T17:05:54Z</time>
      </trkpt>
      <trkpt lat="44.07269" lon="1.62338">
        <ele>143.2</ele>
        <time>2023-08-20T17:05:55Z</time>
      </trkpt>
      <trkpt lat="44.07268" lon="1.62373">
        <ele>143.6</ele>
        <time>2023-08-20T17:05:56Z</time>
      </trkpt>
      <trkpt lat="44.07267" lon="1.62397">
        <ele>143.8</ele>
        <time>2023-08-20T17:05:57Z</time>
      </trkpt>
      <trkpt lat="44.07265" lon="1.62432">
        <ele>144</ele>
        <time>2023-08-20T17:05:58Z</time>
      </trkpt>
      <trkpt lat="44.07262" lon="1.62461">
        <ele>144.2</ele>
        <time>2023-08-20T17:05:59Z</time>
      </trkpt>
      <trkpt lat="44.07258" lon="1.62484">
        <ele>144.2</ele>
        <time>2023-08-20T17:06:00Z</time>
      </trkpt>
      <trkpt lat="44.07252" lon="1.62512">
        <ele>144.2</ele>
        <time>2023-08-20T17:06:01Z</time>
      </trkpt>
      <trkpt lat="44.07246" lon="1.62539">
        <ele>144.2</ele>
        <time>2023-08-20T17:06:02Z</time>
      </trkpt>
      <trkpt lat="44.07237" lon="1.62572">
        <ele>144.2</ele>
        <time>2023-08-20T17:06:03Z</time>
      </trkpt>
      <trkpt lat="44.07229" lon="1.62599">
        <ele>144.2</ele>
        <time>2023-08-20T17:06:04Z</time>
      </trkpt>
      <trkpt lat="44.07222" lon="1.62626">
        <ele>143.8</ele>
        <time>2023-08-20T17:06:05Z</time>
      </trkpt>
      <trkpt lat="44.07222" lon="1.62626">
        <ele>143.8</ele>
        <time>2023-08-20T17:06:06Z</time>
      </trkpt>
      <trkpt lat="44.0721" lon="1.62675">
        <ele>143.6</ele>
        <time>2023-08-20T17:06:07Z</time>
      </trkpt>
      <trkpt lat="44.07203" lon="1.62709">
        <ele>143.4</ele>
        <time>2023-08-20T17:06:08Z</time>
      </trkpt>
      <trkpt lat="44.07198" lon="1.62737">
        <ele>143.4</ele>
        <time>2023-08-20T17:06:09Z</time>
      </trkpt>
      <trkpt lat="44.07193" lon="1.62765">
        <ele>143.4</ele>
        <time>2023-08-20T17:06:10Z</time>
      </trkpt>
      <trkpt lat="44.0719" lon="1.62793">
        <ele>143.4</ele>
        <time>2023-08-20T17:06:11Z</time>
      </trkpt>
      <trkpt lat="44.07188" lon="1.62822">
        <ele>143.4</ele>
        <time>2023-08-20T17:06:12Z</time>
      </trkpt>
      <trkpt lat="44.07187" lon="1.62851">
        <ele>143.4</ele>
        <time>2023-08-20T17:06:13Z</time>
      </trkpt>
      <trkpt lat="44.07187" lon="1.62879">
        <ele>143.6</ele>
        <time>2023-08-20T17:06:14Z</time>
      </trkpt>
      <trkpt lat="44.07188" lon="1.62908">
        <ele>143.6</ele>
        <time>2023-08-20T17:06:15Z</time>
      </trkpt>
      <trkpt lat="44.07189" lon="1.62936">
        <ele>143.8</ele>
        <time>2023-08-20T17:06:16Z</time>
      </trkpt>
      <trkpt lat="44.07192" lon="1.62964">
        <ele>143.8</ele>
        <time>2023-08-20T17:06:17Z</time>
      </trkpt>
      <trkpt lat="44.07201" lon="1.6302">
        <ele>144.2</ele>
        <time>2023-08-20T17:06:19Z</time>
      </trkpt>
      <trkpt lat="44.07213" lon="1.63075">
        <ele>144.8</ele>
        <time>2023-08-20T17:06:21Z</time>
      </trkpt>
      <trkpt lat="44.07231" lon="1.63158">
        <ele>145.6</ele>
        <time>2023-08-20T17:06:24Z</time>
      </trkpt>
      <trkpt lat="44.07237" lon="1.63186">
        <ele>146.2</ele>
        <time>2023-08-20T17:06:25Z</time>
      </trkpt>
      <trkpt lat="44.07249" lon="1.63241">
        <ele>146.6</ele>
        <time>2023-08-20T17:06:27Z</time>
      </trkpt>
      <trkpt lat="44.07254" lon="1.63269">
        <ele>146.6</ele>
        <time>2023-08-20T17:06:28Z</time>
      </trkpt>
      <trkpt lat="44.0726" lon="1.63296">
        <ele>146.8</ele>
        <time>2023-08-20T17:06:29Z</time>
      </trkpt>
      <trkpt lat="44.07266" lon="1.63323">
        <ele>147</ele>
        <time>2023-08-20T17:06:30Z</time>
      </trkpt>
      <trkpt lat="44.07271" lon="1.6335">
        <ele>147</ele>
        <time>2023-08-20T17:06:31Z</time>
      </trkpt>
      <trkpt lat="44.07276" lon="1.63371">
        <ele>147.2</ele>
        <time>2023-08-20T17:06:32Z</time>
      </trkpt>
      <trkpt lat="44.07283" lon="1.63403">
        <ele>147.2</ele>
        <time>2023-08-20T17:06:33Z</time>
      </trkpt>
      <trkpt lat="44.07288" lon="1.6343">
        <ele>147.2</ele>
        <time>2023-08-20T17:06:34Z</time>
      </trkpt>
      <trkpt lat="44.07293" lon="1.63456">
        <ele>147.2</ele>
        <time>2023-08-20T17:06:35Z</time>
      </trkpt>
      <trkpt lat="44.07299" lon="1.63483">
        <ele>147.2</ele>
        <time>2023-08-20T17:06:36Z</time>
      </trkpt>
      <trkpt lat="44.07303" lon="1.63504">
        <ele>147</ele>
        <time>2023-08-20T17:06:37Z</time>
      </trkpt>
      <trkpt lat="44.07309" lon="1.63535">
        <ele>147</ele>
        <time>2023-08-20T17:06:38Z</time>
      </trkpt>
      <trkpt lat="44.07314" lon="1.63562">
        <ele>146.8</ele>
        <time>2023-08-20T17:06:39Z</time>
      </trkpt>
      <trkpt lat="44.07318" lon="1.63589">
        <ele>146.8</ele>
        <time>2023-08-20T17:06:40Z</time>
      </trkpt>
      <trkpt lat="44.07323" lon="1.63616">
        <ele>146.8</ele>
        <time>2023-08-20T17:06:41Z</time>
      </trkpt>
      <trkpt lat="44.07326" lon="1.63643">
        <ele>146.6</ele>
        <time>2023-08-20T17:06:42Z</time>
      </trkpt>
      <trkpt lat="44.0733" lon="1.6367">
        <ele>146.6</ele>
        <time>2023-08-20T17:06:43Z</time>
      </trkpt>
      <trkpt lat="44.07333" lon="1.63697">
        <ele>146.6</ele>
        <time>2023-08-20T17:06:44Z</time>
      </trkpt>
      <trkpt lat="44.07341" lon="1.6378">
        <ele>146.6</ele>
        <time>2023-08-20T17:06:47Z</time>
      </trkpt>
      <trkpt lat="44.07344" lon="1.63835">
        <ele>146.6</ele>
        <time>2023-08-20T17:06:49Z</time>
      </trkpt>
      <trkpt lat="44.07346" lon="1.63919">
        <ele>146.8</ele>
        <time>2023-08-20T17:06:52Z</time>
      </trkpt>
      <trkpt lat="44.07345" lon="1.63975">
        <ele>147</ele>
        <time>2023-08-20T17:06:54Z</time>
      </trkpt>
      <trkpt lat="44.07342" lon="1.64053">
        <ele>147.2</ele>
        <time>2023-08-20T17:06:57Z</time>
      </trkpt>
      <trkpt lat="44.07338" lon="1.64114">
        <ele>147.2</ele>
        <time>2023-08-20T17:06:59Z</time>
      </trkpt>
      <trkpt lat="44.07328" lon="1.64197">
        <ele>147.2</ele>
        <time>2023-08-20T17:07:02Z</time>
      </trkpt>
      <trkpt lat="44.07315" lon="1.64279">
        <ele>147.2</ele>
        <time>2023-08-20T17:07:05Z</time>
      </trkpt>
      <trkpt lat="44.07307" lon="1.64323">
        <ele>147.2</ele>
        <time>2023-08-20T17:07:07Z</time>
      </trkpt>
      <trkpt lat="44.07302" lon="1.64342">
        <ele>147</ele>
        <time>2023-08-20T17:07:08Z</time>
      </trkpt>
      <trkpt lat="44.07297" lon="1.64363">
        <ele>147</ele>
        <time>2023-08-20T17:07:09Z</time>
      </trkpt>
      <trkpt lat="44.07294" lon="1.64378">
        <ele>146.6</ele>
        <time>2023-08-20T17:07:10Z</time>
      </trkpt>
      <trkpt lat="44.07291" lon="1.64393">
        <ele>146.6</ele>
        <time>2023-08-20T17:07:11Z</time>
      </trkpt>
      <trkpt lat="44.07287" lon="1.64407">
        <ele>145.8</ele>
        <time>2023-08-20T17:07:12Z</time>
      </trkpt>
      <trkpt lat="44.07284" lon="1.64419">
        <ele>145.4</ele>
        <time>2023-08-20T17:07:13Z</time>
      </trkpt>
      <trkpt lat="44.0728" lon="1.64436">
        <ele>144.2</ele>
        <time>2023-08-20T17:07:14Z</time>
      </trkpt>
      <trkpt lat="44.07276" lon="1.64451">
        <ele>143.6</ele>
        <time>2023-08-20T17:07:15Z</time>
      </trkpt>
      <trkpt lat="44.07272" lon="1.64465">
        <ele>142.6</ele>
        <time>2023-08-20T17:07:16Z</time>
      </trkpt>
      <trkpt lat="44.07265" lon="1.64489">
        <ele>141.6</ele>
        <time>2023-08-20T17:07:18Z</time>
      </trkpt>
      <trkpt lat="44.07253" lon="1.64527">
        <ele>140.2</ele>
        <time>2023-08-20T17:07:21Z</time>
      </trkpt>
      <trkpt lat="44.07251" lon="1.64532">
        <ele>140</ele>
        <time>2023-08-20T17:07:22Z</time>
      </trkpt>
      <trkpt lat="44.0725" lon="1.64537">
        <ele>139.6</ele>
        <time>2023-08-20T17:07:23Z</time>
      </trkpt>
      <trkpt lat="44.07251" lon="1.64539">
        <ele>139.4</ele>
        <time>2023-08-20T17:07:24Z</time>
      </trkpt>
      <trkpt lat="44.07253" lon="1.64538">
        <ele>139</ele>
        <time>2023-08-20T17:07:25Z</time>
      </trkpt>
      <trkpt lat="44.07255" lon="1.64534">
        <ele>138.6</ele>
        <time>2023-08-20T17:07:26Z</time>
      </trkpt>
      <trkpt lat="44.07256" lon="1.64528">
        <ele>138.6</ele>
        <time>2023-08-20T17:07:27Z</time>
      </trkpt>
      <trkpt lat="44.07265" lon="1.645">
        <ele>138.4</ele>
        <time>2023-08-20T17:07:29Z</time>
      </trkpt>
      <trkpt lat="44.07278" lon="1.64457">
        <ele>138.4</ele>
        <time>2023-08-20T17:07:31Z</time>
      </trkpt>
      <trkpt lat="44.07292" lon="1.64399">
        <ele>138.6</ele>
        <time>2023-08-20T17:07:33Z</time>
      </trkpt>
      <trkpt lat="44.07305" lon="1.64337">
        <ele>140.8</ele>
        <time>2023-08-20T17:07:35Z</time>
      </trkpt>
      <trkpt lat="44.07317" lon="1.64277">
        <ele>144.2</ele>
        <time>2023-08-20T17:07:37Z</time>
      </trkpt>
      <trkpt lat="44.07325" lon="1.64228">
        <ele>146.2</ele>
        <time>2023-08-20T17:07:39Z</time>
      </trkpt>
      <trkpt lat="44.07328" lon="1.64208">
        <ele>146.4</ele>
        <time>2023-08-20T17:07:40Z</time>
      </trkpt>
      <trkpt lat="44.07331" lon="1.64191">
        <ele>146.6</ele>
        <time>2023-08-20T17:07:41Z</time>
      </trkpt>
      <trkpt lat="44.07332" lon="1.64177">
        <ele>146.8</ele>
        <time>2023-08-20T17:07:42Z</time>
      </trkpt>
      <trkpt lat="44.07333" lon="1.64167">
        <ele>146.8</ele>
        <time>2023-08-20T17:07:43Z</time>
      </trkpt>
      <trkpt lat="44.07332" lon="1.6416">
        <ele>146.4</ele>
        <time>2023-08-20T17:07:44Z</time>
      </trkpt>
      <trkpt lat="44.0733" lon="1.64156">
        <ele>146.2</ele>
        <time>2023-08-20T17:07:45Z</time>
      </trkpt>
      <trkpt lat="44.07328" lon="1.64157">
        <ele>144.4</ele>
        <time>2023-08-20T17:07:46Z</time>
      </trkpt>
      <trkpt lat="44.07327" lon="1.64159">
        <ele>143.6</ele>
        <time>2023-08-20T17:07:47Z</time>
      </trkpt>
      <trkpt lat="44.07327" lon="1.64161">
        <ele>142.2</ele>
        <time>2023-08-20T17:07:48Z</time>
      </trkpt>
      <trkpt lat="44.07327" lon="1.64161">
        <ele>141.4</ele>
        <time>2023-08-20T17:07:49Z</time>
      </trkpt>
      <trkpt lat="44.07328" lon="1.64162">
        <ele>140</ele>
        <time>2023-08-20T17:07:50Z</time>
      </trkpt>
      <trkpt lat="44.07328" lon="1.64162">
        <ele>139.4</ele>
        <time>2023-08-20T17:07:51Z</time>
      </trkpt>
      <trkpt lat="44.07328" lon="1.64162">
        <ele>138</ele>
        <time>2023-08-20T17:07:52Z</time>
      </trkpt>
      <trkpt lat="44.0733" lon="1.64174">
        <ele>134.8</ele>
        <time>2023-08-20T17:12:31Z</time>
      </trkpt>
      <trkpt lat="44.0733" lon="1.64174">
        <ele>134.8</ele>
        <time>2023-08-20T17:12:32Z</time>
      </trkpt>
      <trkpt lat="44.07329" lon="1.64187">
        <ele>134.8</ele>
        <time>2023-08-20T17:12:33Z</time>
      </trkpt>
      <trkpt lat="44.07327" lon="1.64204">
        <ele>135</ele>
        <time>2023-08-20T17:12:34Z</time>
      </trkpt>
      <trkpt lat="44.07318" lon="1.64252">
        <ele>135.4</ele>
        <time>2023-08-20T17:12:35Z</time>
      </trkpt>
      <trkpt lat="44.07312" lon="1.64282">
        <ele>135.6</ele>
        <time>2023-08-20T17:12:36Z</time>
      </trkpt>
      <trkpt lat="44.07306" lon="1.64316">
        <ele>136.4</ele>
        <time>2023-08-20T17:12:37Z</time>
      </trkpt>
      <trkpt lat="44.07298" lon="1.6435">
        <ele>137.2</ele>
        <time>2023-08-20T17:12:38Z</time>
      </trkpt>
      <trkpt lat="44.07291" lon="1.64383">
        <ele>139.8</ele>
        <time>2023-08-20T17:12:39Z</time>
      </trkpt>
      <trkpt lat="44.07283" lon="1.64415">
        <ele>141.6</ele>
        <time>2023-08-20T17:12:40Z</time>
      </trkpt>
      <trkpt lat="44.07283" lon="1.64415">
        <ele>143.6</ele>
        <time>2023-08-20T17:12:41Z</time>
      </trkpt>
      <trkpt lat="44.07266" lon="1.64476">
        <ele>144.4</ele>
        <time>2023-08-20T17:12:42Z</time>
      </trkpt>
      <trkpt lat="44.07266" lon="1.64476">
        <ele>146</ele>
        <time>2023-08-20T17:12:43Z</time>
      </trkpt>
      <trkpt lat="44.07257" lon="1.64506">
        <ele>147</ele>
        <time>2023-08-20T17:12:44Z</time>
      </trkpt>
      <trkpt lat="44.07238" lon="1.64564">
        <ele>147.2</ele>
        <time>2023-08-20T17:12:45Z</time>
      </trkpt>
      <trkpt lat="44.07238" lon="1.64564">
        <ele>147.6</ele>
        <time>2023-08-20T17:12:46Z</time>
      </trkpt>
      <trkpt lat="44.07218" lon="1.6462">
        <ele>147.6</ele>
        <time>2023-08-20T17:12:47Z</time>
      </trkpt>
      <trkpt lat="44.07218" lon="1.6462">
        <ele>147.8</ele>
        <time>2023-08-20T17:12:48Z</time>
      </trkpt>
      <trkpt lat="44.07207" lon="1.64647">
        <ele>147.8</ele>
        <time>2023-08-20T17:12:49Z</time>
      </trkpt>
      <trkpt lat="44.07185" lon="1.647">
        <ele>147.8</ele>
        <time>2023-08-20T17:12:50Z</time>
      </trkpt>
      <trkpt lat="44.07174" lon="1.64725">
        <ele>147.8</ele>
        <time>2023-08-20T17:12:51Z</time>
      </trkpt>
      <trkpt lat="44.07162" lon="1.64751">
        <ele>147.6</ele>
        <time>2023-08-20T17:12:52Z</time>
      </trkpt>
      <trkpt lat="44.0715" lon="1.64776">
        <ele>147.6</ele>
        <time>2023-08-20T17:12:53Z</time>
      </trkpt>
      <trkpt lat="44.0715" lon="1.64776">
        <ele>147.6</ele>
        <time>2023-08-20T17:12:54Z</time>
      </trkpt>
      <trkpt lat="44.07138" lon="1.64802">
        <ele>147.6</ele>
        <time>2023-08-20T17:12:55Z</time>
      </trkpt>
      <trkpt lat="44.07113" lon="1.64853">
        <ele>147.6</ele>
        <time>2023-08-20T17:12:56Z</time>
      </trkpt>
      <trkpt lat="44.071" lon="1.64878">
        <ele>147.6</ele>
        <time>2023-08-20T17:12:57Z</time>
      </trkpt>
      <trkpt lat="44.07088" lon="1.64904">
        <ele>147.6</ele>
        <time>2023-08-20T17:12:58Z</time>
      </trkpt>
      <trkpt lat="44.07075" lon="1.64929">
        <ele>147.6</ele>
        <time>2023-08-20T17:12:59Z</time>
      </trkpt>
      <trkpt lat="44.07062" lon="1.64955">
        <ele>147.6</ele>
        <time>2023-08-20T17:13:00Z</time>
      </trkpt>
      <trkpt lat="44.07049" lon="1.64981">
        <ele>147.6</ele>
        <time>2023-08-20T17:13:01Z</time>
      </trkpt>
      <trkpt lat="44.07036" lon="1.65007">
        <ele>147.8</ele>
        <time>2023-08-20T17:13:02Z</time>
      </trkpt>
      <trkpt lat="44.07021" lon="1.65038">
        <ele>147.8</ele>
        <time>2023-08-20T17:13:03Z</time>
      </trkpt>
      <trkpt lat="44.07007" lon="1.65064">
        <ele>147.8</ele>
        <time>2023-08-20T17:13:04Z</time>
      </trkpt>
      <trkpt lat="44.06997" lon="1.65085">
        <ele>147.8</ele>
        <time>2023-08-20T17:13:05Z</time>
      </trkpt>
      <trkpt lat="44.06983" lon="1.65111">
        <ele>148</ele>
        <time>2023-08-20T17:13:06Z</time>
      </trkpt>
      <trkpt lat="44.0697" lon="1.65138">
        <ele>148</ele>
        <time>2023-08-20T17:13:07Z</time>
      </trkpt>
      <trkpt lat="44.06957" lon="1.65164">
        <ele>148.2</ele>
        <time>2023-08-20T17:13:08Z</time>
      </trkpt>
      <trkpt lat="44.06943" lon="1.6519">
        <ele>148.2</ele>
        <time>2023-08-20T17:13:09Z</time>
      </trkpt>
      <trkpt lat="44.0693" lon="1.65217">
        <ele>148.2</ele>
        <time>2023-08-20T17:13:10Z</time>
      </trkpt>
      <trkpt lat="44.06917" lon="1.65244">
        <ele>148.2</ele>
        <time>2023-08-20T17:13:11Z</time>
      </trkpt>
      <trkpt lat="44.06904" lon="1.65271">
        <ele>148.2</ele>
        <time>2023-08-20T17:13:12Z</time>
      </trkpt>
      <trkpt lat="44.0689" lon="1.65298">
        <ele>148.4</ele>
        <time>2023-08-20T17:13:13Z</time>
      </trkpt>
      <trkpt lat="44.0689" lon="1.65298">
        <ele>148.4</ele>
        <time>2023-08-20T17:13:14Z</time>
      </trkpt>
      <trkpt lat="44.06864" lon="1.65351">
        <ele>148.4</ele>
        <time>2023-08-20T17:13:15Z</time>
      </trkpt>
      <trkpt lat="44.06851" lon="1.65378">
        <ele>148.4</ele>
        <time>2023-08-20T17:13:16Z</time>
      </trkpt>
      <trkpt lat="44.06838" lon="1.65404">
        <ele>148.4</ele>
        <time>2023-08-20T17:13:17Z</time>
      </trkpt>
      <trkpt lat="44.06825" lon="1.6543">
        <ele>148.4</ele>
        <time>2023-08-20T17:13:18Z</time>
      </trkpt>
      <trkpt lat="44.0681" lon="1.65461">
        <ele>148.4</ele>
        <time>2023-08-20T17:13:19Z</time>
      </trkpt>
      <trkpt lat="44.06799" lon="1.65482">
        <ele>148.2</ele>
        <time>2023-08-20T17:13:20Z</time>
      </trkpt>
      <trkpt lat="44.06761" lon="1.65559">
        <ele>148</ele>
        <time>2023-08-20T17:13:23Z</time>
      </trkpt>
      <trkpt lat="44.06748" lon="1.65585">
        <ele>147.6</ele>
        <time>2023-08-20T17:13:24Z</time>
      </trkpt>
      <trkpt lat="44.06735" lon="1.65611">
        <ele>147.4</ele>
        <time>2023-08-20T17:13:25Z</time>
      </trkpt>
      <trkpt lat="44.06694" lon="1.65694">
        <ele>146.6</ele>
        <time>2023-08-20T17:13:28Z</time>
      </trkpt>
      <trkpt lat="44.0668" lon="1.6572">
        <ele>146.4</ele>
        <time>2023-08-20T17:13:29Z</time>
      </trkpt>
      <trkpt lat="44.06666" lon="1.65746">
        <ele>146.2</ele>
        <time>2023-08-20T17:13:31Z</time>
      </trkpt>
      <trkpt lat="44.06605" lon="1.65844">
        <ele>146.2</ele>
        <time>2023-08-20T17:13:34Z</time>
      </trkpt>
      <trkpt lat="44.0659" lon="1.65868">
        <ele>146.2</ele>
        <time>2023-08-20T17:13:35Z</time>
      </trkpt>
      <trkpt lat="44.06543" lon="1.65938">
        <ele>146.6</ele>
        <time>2023-08-20T17:13:38Z</time>
      </trkpt>
      <trkpt lat="44.06497" lon="1.66008">
        <ele>147.2</ele>
        <time>2023-08-20T17:13:41Z</time>
      </trkpt>
      <trkpt lat="44.06451" lon="1.66079">
        <ele>147.4</ele>
        <time>2023-08-20T17:13:44Z</time>
      </trkpt>
      <trkpt lat="44.06435" lon="1.66102">
        <ele>147.4</ele>
        <time>2023-08-20T17:13:45Z</time>
      </trkpt>
      <trkpt lat="44.0639" lon="1.66172">
        <ele>147.4</ele>
        <time>2023-08-20T17:13:48Z</time>
      </trkpt>
      <trkpt lat="44.06343" lon="1.66242">
        <ele>147.6</ele>
        <time>2023-08-20T17:13:51Z</time>
      </trkpt>
      <trkpt lat="44.06328" lon="1.66265">
        <ele>147.6</ele>
        <time>2023-08-20T17:13:52Z</time>
      </trkpt>
      <trkpt lat="44.06296" lon="1.6631">
        <ele>147.8</ele>
        <time>2023-08-20T17:13:54Z</time>
      </trkpt>
      <trkpt lat="44.06245" lon="1.66372">
        <ele>147.8</ele>
        <time>2023-08-20T17:13:57Z</time>
      </trkpt>
      <trkpt lat="44.06227" lon="1.66391">
        <ele>147.8</ele>
        <time>2023-08-20T17:13:58Z</time>
      </trkpt>
      <trkpt lat="44.06169" lon="1.66444">
        <ele>147.4</ele>
        <time>2023-08-20T17:14:01Z</time>
      </trkpt>
      <trkpt lat="44.06148" lon="1.66459">
        <ele>147.4</ele>
        <time>2023-08-20T17:14:02Z</time>
      </trkpt>
      <trkpt lat="44.06084" lon="1.66499">
        <ele>147</ele>
        <time>2023-08-20T17:14:05Z</time>
      </trkpt>
      <trkpt lat="44.06018" lon="1.66528">
        <ele>146.8</ele>
        <time>2023-08-20T17:14:08Z</time>
      </trkpt>
      <trkpt lat="44.05996" lon="1.66536">
        <ele>146.8</ele>
        <time>2023-08-20T17:14:09Z</time>
      </trkpt>
      <trkpt lat="44.05927" lon="1.66561">
        <ele>147</ele>
        <time>2023-08-20T17:14:12Z</time>
      </trkpt>
      <trkpt lat="44.05858" lon="1.66586">
        <ele>146.8</ele>
        <time>2023-08-20T17:14:15Z</time>
      </trkpt>
      <trkpt lat="44.05813" lon="1.66603">
        <ele>146.6</ele>
        <time>2023-08-20T17:14:17Z</time>
      </trkpt>
      <trkpt lat="44.05791" lon="1.66613">
        <ele>146.6</ele>
        <time>2023-08-20T17:14:18Z</time>
      </trkpt>
      <trkpt lat="44.05745" lon="1.66644">
        <ele>146.6</ele>
        <time>2023-08-20T17:14:20Z</time>
      </trkpt>
      <trkpt lat="44.05711" lon="1.6668">
        <ele>146.6</ele>
        <time>2023-08-20T17:14:22Z</time>
      </trkpt>
      <trkpt lat="44.05691" lon="1.66708">
        <ele>146.6</ele>
        <time>2023-08-20T17:14:23Z</time>
      </trkpt>
      <trkpt lat="44.05663" lon="1.66762">
        <ele>146.6</ele>
        <time>2023-08-20T17:14:25Z</time>
      </trkpt>
      <trkpt lat="44.05651" lon="1.66791">
        <ele>146.8</ele>
        <time>2023-08-20T17:14:26Z</time>
      </trkpt>
      <trkpt lat="44.05634" lon="1.66852">
        <ele>147.6</ele>
        <time>2023-08-20T17:14:28Z</time>
      </trkpt>
      <trkpt lat="44.05628" lon="1.66883">
        <ele>147.8</ele>
        <time>2023-08-20T17:14:29Z</time>
      </trkpt>
      <trkpt lat="44.05626" lon="1.66914">
        <ele>148</ele>
        <time>2023-08-20T17:14:30Z</time>
      </trkpt>
      <trkpt lat="44.05625" lon="1.66945">
        <ele>148</ele>
        <time>2023-08-20T17:14:31Z</time>
      </trkpt>
      <trkpt lat="44.05624" lon="1.66969">
        <ele>148</ele>
        <time>2023-08-20T17:14:32Z</time>
      </trkpt>
      <trkpt lat="44.05624" lon="1.66997">
        <ele>148</ele>
        <time>2023-08-20T17:14:33Z</time>
      </trkpt>
      <trkpt lat="44.05625" lon="1.67022">
        <ele>147.6</ele>
        <time>2023-08-20T17:14:34Z</time>
      </trkpt>
      <trkpt lat="44.05624" lon="1.67042">
        <ele>147.4</ele>
        <time>2023-08-20T17:14:35Z</time>
      </trkpt>
      <trkpt lat="44.05622" lon="1.67056">
        <ele>147</ele>
        <time>2023-08-20T17:14:36Z</time>
      </trkpt>
      <trkpt lat="44.05617" lon="1.67069">
        <ele>145.8</ele>
        <time>2023-08-20T17:14:37Z</time>
      </trkpt>
      <trkpt lat="44.05609" lon="1.6708">
        <ele>144.8</ele>
        <time>2023-08-20T17:14:38Z</time>
      </trkpt>
      <trkpt lat="44.056" lon="1.67092">
        <ele>142.6</ele>
        <time>2023-08-20T17:14:39Z</time>
      </trkpt>
      <trkpt lat="44.05586" lon="1.67103">
        <ele>141.4</ele>
        <time>2023-08-20T17:14:40Z</time>
      </trkpt>
      <trkpt lat="44.05568" lon="1.67115">
        <ele>140.6</ele>
        <time>2023-08-20T17:14:41Z</time>
      </trkpt>
      <trkpt lat="44.05542" lon="1.67126">
        <ele>140.2</ele>
        <time>2023-08-20T17:14:42Z</time>
      </trkpt>
      <trkpt lat="44.05474" lon="1.67169">
        <ele>140</ele>
        <time>2023-08-20T17:14:45Z</time>
      </trkpt>
      <trkpt lat="44.0545" lon="1.67182">
        <ele>140</ele>
        <time>2023-08-20T17:14:46Z</time>
      </trkpt>
      <trkpt lat="44.05426" lon="1.67191">
        <ele>140.2</ele>
        <time>2023-08-20T17:14:47Z</time>
      </trkpt>
      <trkpt lat="44.05401" lon="1.67199">
        <ele>141.4</ele>
        <time>2023-08-20T17:14:48Z</time>
      </trkpt>
      <trkpt lat="44.05375" lon="1.67205">
        <ele>142</ele>
        <time>2023-08-20T17:14:49Z</time>
      </trkpt>
      <trkpt lat="44.05349" lon="1.67211">
        <ele>142.8</ele>
        <time>2023-08-20T17:14:50Z</time>
      </trkpt>
      <trkpt lat="44.05296" lon="1.67222">
        <ele>144.6</ele>
        <time>2023-08-20T17:14:52Z</time>
      </trkpt>
      <trkpt lat="44.05246" lon="1.67233">
        <ele>146.4</ele>
        <time>2023-08-20T17:14:54Z</time>
      </trkpt>
      <trkpt lat="44.05222" lon="1.67238">
        <ele>147</ele>
        <time>2023-08-20T17:14:55Z</time>
      </trkpt>
      <trkpt lat="44.05199" lon="1.67243">
        <ele>147.4</ele>
        <time>2023-08-20T17:14:56Z</time>
      </trkpt>
      <trkpt lat="44.05178" lon="1.67248">
        <ele>147.8</ele>
        <time>2023-08-20T17:14:57Z</time>
      </trkpt>
      <trkpt lat="44.05157" lon="1.67254">
        <ele>148</ele>
        <time>2023-08-20T17:14:58Z</time>
      </trkpt>
      <trkpt lat="44.05138" lon="1.67262">
        <ele>148</ele>
        <time>2023-08-20T17:14:59Z</time>
      </trkpt>
      <trkpt lat="44.05121" lon="1.67273">
        <ele>148</ele>
        <time>2023-08-20T17:15:00Z</time>
      </trkpt>
      <trkpt lat="44.05104" lon="1.67289">
        <ele>148.2</ele>
        <time>2023-08-20T17:15:01Z</time>
      </trkpt>
      <trkpt lat="44.05089" lon="1.67309">
        <ele>148.2</ele>
        <time>2023-08-20T17:15:02Z</time>
      </trkpt>
      <trkpt lat="44.05072" lon="1.67332">
        <ele>148.4</ele>
        <time>2023-08-20T17:15:03Z</time>
      </trkpt>
      <trkpt lat="44.05055" lon="1.67355">
        <ele>148.4</ele>
        <time>2023-08-20T17:15:04Z</time>
      </trkpt>
      <trkpt lat="44.05038" lon="1.67379">
        <ele>148.4</ele>
        <time>2023-08-20T17:15:05Z</time>
      </trkpt>
      <trkpt lat="44.0502" lon="1.67401">
        <ele>148.4</ele>
        <time>2023-08-20T17:15:06Z</time>
      </trkpt>
      <trkpt lat="44.05004" lon="1.67422">
        <ele>148.2</ele>
        <time>2023-08-20T17:15:07Z</time>
      </trkpt>
      <trkpt lat="44.04987" lon="1.67441">
        <ele>148</ele>
        <time>2023-08-20T17:15:08Z</time>
      </trkpt>
      <trkpt lat="44.04971" lon="1.67455">
        <ele>148</ele>
        <time>2023-08-20T17:15:09Z</time>
      </trkpt>
      <trkpt lat="44.04954" lon="1.67465">
        <ele>147.8</ele>
        <time>2023-08-20T17:15:10Z</time>
      </trkpt>
      <trkpt lat="44.04937" lon="1.67473">
        <ele>147.8</ele>
        <time>2023-08-20T17:15:11Z</time>
      </trkpt>
      <trkpt lat="44.04919" lon="1.67478">
        <ele>147.8</ele>
        <time>2023-08-20T17:15:12Z</time>
      </trkpt>
      <trkpt lat="44.04898" lon="1.67469">
        <ele>147.8</ele>
        <time>2023-08-20T17:15:13Z</time>
      </trkpt>
      <trkpt lat="44.04876" lon="1.67461">
        <ele>147.8</ele>
        <time>2023-08-20T17:15:14Z</time>
      </trkpt>
      <trkpt lat="44.04852" lon="1.67454">
        <ele>147.8</ele>
        <time>2023-08-20T17:15:15Z</time>
      </trkpt>
      <trkpt lat="44.04829" lon="1.67447">
        <ele>147.8</ele>
        <time>2023-08-20T17:15:16Z</time>
      </trkpt>
      <trkpt lat="44.04805" lon="1.67441">
        <ele>147.8</ele>
        <time>2023-08-20T17:15:17Z</time>
      </trkpt>
      <trkpt lat="44.04781" lon="1.67435">
        <ele>147.8</ele>
        <time>2023-08-20T17:15:18Z</time>
      </trkpt>
      <trkpt lat="44.04756" lon="1.67429">
        <ele>148.2</ele>
        <time>2023-08-20T17:15:19Z</time>
      </trkpt>
      <trkpt lat="44.04706" lon="1.67421">
        <ele>149.4</ele>
        <time>2023-08-20T17:15:21Z</time>
      </trkpt>
      <trkpt lat="44.04658" lon="1.67414">
        <ele>150.8</ele>
        <time>2023-08-20T17:15:23Z</time>
      </trkpt>
      <trkpt lat="44.04636" lon="1.6741">
        <ele>151</ele>
        <time>2023-08-20T17:15:24Z</time>
      </trkpt>
      <trkpt lat="44.04617" lon="1.67405">
        <ele>151</ele>
        <time>2023-08-20T17:15:25Z</time>
      </trkpt>
      <trkpt lat="44.046" lon="1.674">
        <ele>151.2</ele>
        <time>2023-08-20T17:15:26Z</time>
      </trkpt>
      <trkpt lat="44.04585" lon="1.67391">
        <ele>151.2</ele>
        <time>2023-08-20T17:15:27Z</time>
      </trkpt>
      <trkpt lat="44.04572" lon="1.67377">
        <ele>151.2</ele>
        <time>2023-08-20T17:15:28Z</time>
      </trkpt>
      <trkpt lat="44.04562" lon="1.67356">
        <ele>150.6</ele>
        <time>2023-08-20T17:15:29Z</time>
      </trkpt>
      <trkpt lat="44.04553" lon="1.67327">
        <ele>149.4</ele>
        <time>2023-08-20T17:15:30Z</time>
      </trkpt>
      <trkpt lat="44.04546" lon="1.67296">
        <ele>148.8</ele>
        <time>2023-08-20T17:15:31Z</time>
      </trkpt>
      <trkpt lat="44.04537" lon="1.67263">
        <ele>148.8</ele>
        <time>2023-08-20T17:15:32Z</time>
      </trkpt>
      <trkpt lat="44.04529" lon="1.6723">
        <ele>148.6</ele>
        <time>2023-08-20T17:15:33Z</time>
      </trkpt>
      <trkpt lat="44.04521" lon="1.67198">
        <ele>148.6</ele>
        <time>2023-08-20T17:15:34Z</time>
      </trkpt>
      <trkpt lat="44.04514" lon="1.67167">
        <ele>148.2</ele>
        <time>2023-08-20T17:15:35Z</time>
      </trkpt>
      <trkpt lat="44.04507" lon="1.67139">
        <ele>147.8</ele>
        <time>2023-08-20T17:15:36Z</time>
      </trkpt>
      <trkpt lat="44.04501" lon="1.67114">
        <ele>147.6</ele>
        <time>2023-08-20T17:15:37Z</time>
      </trkpt>
      <trkpt lat="44.04494" lon="1.67093">
        <ele>147.4</ele>
        <time>2023-08-20T17:15:38Z</time>
      </trkpt>
      <trkpt lat="44.04486" lon="1.67076">
        <ele>147.4</ele>
        <time>2023-08-20T17:15:39Z</time>
      </trkpt>
      <trkpt lat="44.04474" lon="1.67066">
        <ele>147.4</ele>
        <time>2023-08-20T17:15:40Z</time>
      </trkpt>
      <trkpt lat="44.04461" lon="1.67064">
        <ele>147.4</ele>
        <time>2023-08-20T17:15:41Z</time>
      </trkpt>
      <trkpt lat="44.04444" lon="1.67067">
        <ele>147.4</ele>
        <time>2023-08-20T17:15:42Z</time>
      </trkpt>
      <trkpt lat="44.04402" lon="1.6708">
        <ele>147.4</ele>
        <time>2023-08-20T17:15:44Z</time>
      </trkpt>
      <trkpt lat="44.04379" lon="1.67089">
        <ele>147.4</ele>
        <time>2023-08-20T17:15:45Z</time>
      </trkpt>
      <trkpt lat="44.04355" lon="1.67098">
        <ele>147.4</ele>
        <time>2023-08-20T17:15:46Z</time>
      </trkpt>
      <trkpt lat="44.04332" lon="1.67108">
        <ele>147.8</ele>
        <time>2023-08-20T17:15:47Z</time>
      </trkpt>
      <trkpt lat="44.04289" lon="1.67127">
        <ele>149.8</ele>
        <time>2023-08-20T17:15:49Z</time>
      </trkpt>
      <trkpt lat="44.04268" lon="1.67139">
        <ele>151</ele>
        <time>2023-08-20T17:15:50Z</time>
      </trkpt>
      <trkpt lat="44.04248" lon="1.67154">
        <ele>152</ele>
        <time>2023-08-20T17:15:51Z</time>
      </trkpt>
      <trkpt lat="44.04228" lon="1.67172">
        <ele>152.4</ele>
        <time>2023-08-20T17:15:52Z</time>
      </trkpt>
      <trkpt lat="44.04188" lon="1.67213">
        <ele>153</ele>
        <time>2023-08-20T17:15:54Z</time>
      </trkpt>
      <trkpt lat="44.04151" lon="1.67251">
        <ele>153.2</ele>
        <time>2023-08-20T17:15:56Z</time>
      </trkpt>
      <trkpt lat="44.04133" lon="1.67266">
        <ele>153</ele>
        <time>2023-08-20T17:15:57Z</time>
      </trkpt>
      <trkpt lat="44.04113" lon="1.67278">
        <ele>153</ele>
        <time>2023-08-20T17:15:58Z</time>
      </trkpt>
      <trkpt lat="44.04093" lon="1.67284">
        <ele>152.8</ele>
        <time>2023-08-20T17:15:59Z</time>
      </trkpt>
      <trkpt lat="44.04072" lon="1.67286">
        <ele>152.8</ele>
        <time>2023-08-20T17:16:00Z</time>
      </trkpt>
      <trkpt lat="44.04049" lon="1.67285">
        <ele>152.6</ele>
        <time>2023-08-20T17:16:01Z</time>
      </trkpt>
      <trkpt lat="44.04025" lon="1.67285">
        <ele>152</ele>
        <time>2023-08-20T17:16:02Z</time>
      </trkpt>
      <trkpt lat="44.04001" lon="1.67285">
        <ele>151.8</ele>
        <time>2023-08-20T17:16:03Z</time>
      </trkpt>
      <trkpt lat="44.03979" lon="1.67284">
        <ele>151.6</ele>
        <time>2023-08-20T17:16:04Z</time>
      </trkpt>
      <trkpt lat="44.0396" lon="1.67281">
        <ele>151</ele>
        <time>2023-08-20T17:16:05Z</time>
      </trkpt>
      <trkpt lat="44.03942" lon="1.67275">
        <ele>150.4</ele>
        <time>2023-08-20T17:16:06Z</time>
      </trkpt>
      <trkpt lat="44.03924" lon="1.67264">
        <ele>150</ele>
        <time>2023-08-20T17:16:07Z</time>
      </trkpt>
      <trkpt lat="44.03905" lon="1.67247">
        <ele>149.8</ele>
        <time>2023-08-20T17:16:08Z</time>
      </trkpt>
      <trkpt lat="44.03887" lon="1.67225">
        <ele>150.6</ele>
        <time>2023-08-20T17:16:09Z</time>
      </trkpt>
      <trkpt lat="44.03867" lon="1.67202">
        <ele>150.8</ele>
        <time>2023-08-20T17:16:10Z</time>
      </trkpt>
      <trkpt lat="44.03845" lon="1.67178">
        <ele>151.2</ele>
        <time>2023-08-20T17:16:11Z</time>
      </trkpt>
      <trkpt lat="44.038" lon="1.67127">
        <ele>151.6</ele>
        <time>2023-08-20T17:16:13Z</time>
      </trkpt>
      <trkpt lat="44.03777" lon="1.671">
        <ele>151.8</ele>
        <time>2023-08-20T17:16:14Z</time>
      </trkpt>
      <trkpt lat="44.03732" lon="1.67049">
        <ele>154</ele>
        <time>2023-08-20T17:16:16Z</time>
      </trkpt>
      <trkpt lat="44.03711" lon="1.67024">
        <ele>155.4</ele>
        <time>2023-08-20T17:16:17Z</time>
      </trkpt>
      <trkpt lat="44.03691" lon="1.67001">
        <ele>156.6</ele>
        <time>2023-08-20T17:16:18Z</time>
      </trkpt>
      <trkpt lat="44.03672" lon="1.66979">
        <ele>157</ele>
        <time>2023-08-20T17:16:19Z</time>
      </trkpt>
      <trkpt lat="44.03654" lon="1.6696">
        <ele>157.2</ele>
        <time>2023-08-20T17:16:20Z</time>
      </trkpt>
      <trkpt lat="44.03637" lon="1.66943">
        <ele>157.2</ele>
        <time>2023-08-20T17:16:21Z</time>
      </trkpt>
      <trkpt lat="44.03621" lon="1.6693">
        <ele>157.4</ele>
        <time>2023-08-20T17:16:22Z</time>
      </trkpt>
      <trkpt lat="44.03603" lon="1.66922">
        <ele>157.2</ele>
        <time>2023-08-20T17:16:23Z</time>
      </trkpt>
      <trkpt lat="44.03582" lon="1.66918">
        <ele>156.8</ele>
        <time>2023-08-20T17:16:24Z</time>
      </trkpt>
      <trkpt lat="44.03559" lon="1.66917">
        <ele>156.4</ele>
        <time>2023-08-20T17:16:25Z</time>
      </trkpt>
      <trkpt lat="44.03532" lon="1.66917">
        <ele>156.2</ele>
        <time>2023-08-20T17:16:26Z</time>
      </trkpt>
      <trkpt lat="44.03505" lon="1.66916">
        <ele>156</ele>
        <time>2023-08-20T17:16:27Z</time>
      </trkpt>
      <trkpt lat="44.03478" lon="1.66915">
        <ele>155.8</ele>
        <time>2023-08-20T17:16:28Z</time>
      </trkpt>
      <trkpt lat="44.03453" lon="1.66914">
        <ele>155.6</ele>
        <time>2023-08-20T17:16:29Z</time>
      </trkpt>
      <trkpt lat="44.03429" lon="1.66913">
        <ele>155.4</ele>
        <time>2023-08-20T17:16:30Z</time>
      </trkpt>
      <trkpt lat="44.03407" lon="1.66914">
        <ele>155</ele>
        <time>2023-08-20T17:16:31Z</time>
      </trkpt>
      <trkpt lat="44.03385" lon="1.66915">
        <ele>155.2</ele>
        <time>2023-08-20T17:16:32Z</time>
      </trkpt>
      <trkpt lat="44.03363" lon="1.66918">
        <ele>155.2</ele>
        <time>2023-08-20T17:16:33Z</time>
      </trkpt>
      <trkpt lat="44.03339" lon="1.66923">
        <ele>155.4</ele>
        <time>2023-08-20T17:16:34Z</time>
      </trkpt>
      <trkpt lat="44.03311" lon="1.66928">
        <ele>155.4</ele>
        <time>2023-08-20T17:16:35Z</time>
      </trkpt>
      <trkpt lat="44.03283" lon="1.66933">
        <ele>155.6</ele>
        <time>2023-08-20T17:16:36Z</time>
      </trkpt>
      <trkpt lat="44.03256" lon="1.66939">
        <ele>155.8</ele>
        <time>2023-08-20T17:16:37Z</time>
      </trkpt>
      <trkpt lat="44.03231" lon="1.66946">
        <ele>156.6</ele>
        <time>2023-08-20T17:16:38Z</time>
      </trkpt>
      <trkpt lat="44.03207" lon="1.66955">
        <ele>157.2</ele>
        <time>2023-08-20T17:16:39Z</time>
      </trkpt>
      <trkpt lat="44.03185" lon="1.66967">
        <ele>157.6</ele>
        <time>2023-08-20T17:16:40Z</time>
      </trkpt>
      <trkpt lat="44.03165" lon="1.66982">
        <ele>157.8</ele>
        <time>2023-08-20T17:16:41Z</time>
      </trkpt>
      <trkpt lat="44.03146" lon="1.67001">
        <ele>158</ele>
        <time>2023-08-20T17:16:42Z</time>
      </trkpt>
      <trkpt lat="44.03125" lon="1.67025">
        <ele>158.2</ele>
        <time>2023-08-20T17:16:43Z</time>
      </trkpt>
      <trkpt lat="44.03103" lon="1.67051">
        <ele>158.2</ele>
        <time>2023-08-20T17:16:44Z</time>
      </trkpt>
      <trkpt lat="44.03081" lon="1.67076">
        <ele>158.6</ele>
        <time>2023-08-20T17:16:45Z</time>
      </trkpt>
      <trkpt lat="44.0306" lon="1.671">
        <ele>158.6</ele>
        <time>2023-08-20T17:16:46Z</time>
      </trkpt>
      <trkpt lat="44.03039" lon="1.67121">
        <ele>158.4</ele>
        <time>2023-08-20T17:16:47Z</time>
      </trkpt>
      <trkpt lat="44.03018" lon="1.67142">
        <ele>158.4</ele>
        <time>2023-08-20T17:16:48Z</time>
      </trkpt>
      <trkpt lat="44.02997" lon="1.67157">
        <ele>159.2</ele>
        <time>2023-08-20T17:16:49Z</time>
      </trkpt>
      <trkpt lat="44.02972" lon="1.67166">
        <ele>159.6</ele>
        <time>2023-08-20T17:16:50Z</time>
      </trkpt>
      <trkpt lat="44.02946" lon="1.67175">
        <ele>160</ele>
        <time>2023-08-20T17:16:51Z</time>
      </trkpt>
      <trkpt lat="44.02918" lon="1.67185">
        <ele>160.6</ele>
        <time>2023-08-20T17:16:52Z</time>
      </trkpt>
      <trkpt lat="44.02889" lon="1.67196">
        <ele>160.8</ele>
        <time>2023-08-20T17:16:53Z</time>
      </trkpt>
      <trkpt lat="44.02861" lon="1.67207">
        <ele>161.2</ele>
        <time>2023-08-20T17:16:54Z</time>
      </trkpt>
      <trkpt lat="44.02833" lon="1.67217">
        <ele>161.2</ele>
        <time>2023-08-20T17:16:55Z</time>
      </trkpt>
      <trkpt lat="44.02806" lon="1.67227">
        <ele>162</ele>
        <time>2023-08-20T17:16:56Z</time>
      </trkpt>
      <trkpt lat="44.02779" lon="1.67236">
        <ele>163</ele>
        <time>2023-08-20T17:16:57Z</time>
      </trkpt>
      <trkpt lat="44.02753" lon="1.67244">
        <ele>164</ele>
        <time>2023-08-20T17:16:58Z</time>
      </trkpt>
      <trkpt lat="44.02726" lon="1.67249">
        <ele>164.6</ele>
        <time>2023-08-20T17:16:59Z</time>
      </trkpt>
      <trkpt lat="44.02699" lon="1.6725">
        <ele>164.6</ele>
        <time>2023-08-20T17:17:00Z</time>
      </trkpt>
      <trkpt lat="44.02673" lon="1.6725">
        <ele>164.8</ele>
        <time>2023-08-20T17:17:01Z</time>
      </trkpt>
      <trkpt lat="44.02649" lon="1.67249">
        <ele>164.8</ele>
        <time>2023-08-20T17:17:02Z</time>
      </trkpt>
      <trkpt lat="44.02626" lon="1.67248">
        <ele>164.8</ele>
        <time>2023-08-20T17:17:03Z</time>
      </trkpt>
      <trkpt lat="44.02603" lon="1.67249">
        <ele>164.8</ele>
        <time>2023-08-20T17:17:04Z</time>
      </trkpt>
      <trkpt lat="44.02582" lon="1.67252">
        <ele>164.6</ele>
        <time>2023-08-20T17:17:05Z</time>
      </trkpt>
      <trkpt lat="44.02561" lon="1.67258">
        <ele>164</ele>
        <time>2023-08-20T17:17:06Z</time>
      </trkpt>
      <trkpt lat="44.02541" lon="1.67267">
        <ele>163.4</ele>
        <time>2023-08-20T17:17:07Z</time>
      </trkpt>
      <trkpt lat="44.02523" lon="1.6728">
        <ele>162.8</ele>
        <time>2023-08-20T17:17:08Z</time>
      </trkpt>
      <trkpt lat="44.02506" lon="1.67295">
        <ele>162.2</ele>
        <time>2023-08-20T17:17:09Z</time>
      </trkpt>
      <trkpt lat="44.02489" lon="1.6731">
        <ele>160.8</ele>
        <time>2023-08-20T17:17:10Z</time>
      </trkpt>
      <trkpt lat="44.02472" lon="1.67323">
        <ele>160</ele>
        <time>2023-08-20T17:17:11Z</time>
      </trkpt>
      <trkpt lat="44.02452" lon="1.67331">
        <ele>159.2</ele>
        <time>2023-08-20T17:17:12Z</time>
      </trkpt>
      <trkpt lat="44.02431" lon="1.67338">
        <ele>159</ele>
        <time>2023-08-20T17:17:13Z</time>
      </trkpt>
      <trkpt lat="44.02406" lon="1.67344">
        <ele>158.8</ele>
        <time>2023-08-20T17:17:14Z</time>
      </trkpt>
      <trkpt lat="44.02382" lon="1.6735">
        <ele>158.6</ele>
        <time>2023-08-20T17:17:15Z</time>
      </trkpt>
      <trkpt lat="44.02358" lon="1.67356">
        <ele>158.6</ele>
        <time>2023-08-20T17:17:16Z</time>
      </trkpt>
      <trkpt lat="44.02312" lon="1.67364">
        <ele>158.6</ele>
        <time>2023-08-20T17:17:18Z</time>
      </trkpt>
      <trkpt lat="44.02289" lon="1.67362">
        <ele>158.6</ele>
        <time>2023-08-20T17:17:19Z</time>
      </trkpt>
      <trkpt lat="44.0224" lon="1.67348">
        <ele>159.2</ele>
        <time>2023-08-20T17:17:21Z</time>
      </trkpt>
      <trkpt lat="44.02215" lon="1.67336">
        <ele>159.6</ele>
        <time>2023-08-20T17:17:22Z</time>
      </trkpt>
      <trkpt lat="44.02167" lon="1.67312">
        <ele>162</ele>
        <time>2023-08-20T17:17:24Z</time>
      </trkpt>
      <trkpt lat="44.02145" lon="1.67301">
        <ele>163.2</ele>
        <time>2023-08-20T17:17:25Z</time>
      </trkpt>
      <trkpt lat="44.02125" lon="1.67292">
        <ele>165</ele>
        <time>2023-08-20T17:17:26Z</time>
      </trkpt>
      <trkpt lat="44.02104" lon="1.67286">
        <ele>165.2</ele>
        <time>2023-08-20T17:17:27Z</time>
      </trkpt>
      <trkpt lat="44.02083" lon="1.67284">
        <ele>165.8</ele>
        <time>2023-08-20T17:17:28Z</time>
      </trkpt>
      <trkpt lat="44.02063" lon="1.67287">
        <ele>166</ele>
        <time>2023-08-20T17:17:29Z</time>
      </trkpt>
      <trkpt lat="44.02044" lon="1.67295">
        <ele>166.2</ele>
        <time>2023-08-20T17:17:30Z</time>
      </trkpt>
      <trkpt lat="44.02026" lon="1.67307">
        <ele>166.2</ele>
        <time>2023-08-20T17:17:31Z</time>
      </trkpt>
      <trkpt lat="44.0201" lon="1.67321">
        <ele>166.2</ele>
        <time>2023-08-20T17:17:32Z</time>
      </trkpt>
      <trkpt lat="44.01996" lon="1.67338">
        <ele>166.2</ele>
        <time>2023-08-20T17:17:33Z</time>
      </trkpt>
      <trkpt lat="44.01982" lon="1.67358">
        <ele>166</ele>
        <time>2023-08-20T17:17:34Z</time>
      </trkpt>
      <trkpt lat="44.0197" lon="1.67378">
        <ele>166</ele>
        <time>2023-08-20T17:17:35Z</time>
      </trkpt>
      <trkpt lat="44.01959" lon="1.67398">
        <ele>165.8</ele>
        <time>2023-08-20T17:17:36Z</time>
      </trkpt>
      <trkpt lat="44.01952" lon="1.67417">
        <ele>165.8</ele>
        <time>2023-08-20T17:17:37Z</time>
      </trkpt>
      <trkpt lat="44.0195" lon="1.67436">
        <ele>165.6</ele>
        <time>2023-08-20T17:17:38Z</time>
      </trkpt>
      <trkpt lat="44.01951" lon="1.67453">
        <ele>165.6</ele>
        <time>2023-08-20T17:17:39Z</time>
      </trkpt>
      <trkpt lat="44.01951" lon="1.67468">
        <ele>165.4</ele>
        <time>2023-08-20T17:17:40Z</time>
      </trkpt>
      <trkpt lat="44.01946" lon="1.67484">
        <ele>165.2</ele>
        <time>2023-08-20T17:17:41Z</time>
      </trkpt>
      <trkpt lat="44.01938" lon="1.67499">
        <ele>165</ele>
        <time>2023-08-20T17:17:42Z</time>
      </trkpt>
      <trkpt lat="44.01928" lon="1.67516">
        <ele>165</ele>
        <time>2023-08-20T17:17:43Z</time>
      </trkpt>
      <trkpt lat="44.01919" lon="1.67535">
        <ele>165</ele>
        <time>2023-08-20T17:17:44Z</time>
      </trkpt>
      <trkpt lat="44.01913" lon="1.67554">
        <ele>165</ele>
        <time>2023-08-20T17:17:45Z</time>
      </trkpt>
      <trkpt lat="44.0191" lon="1.67574">
        <ele>165</ele>
        <time>2023-08-20T17:17:46Z</time>
      </trkpt>
      <trkpt lat="44.01909" lon="1.67594">
        <ele>165.2</ele>
        <time>2023-08-20T17:17:47Z</time>
      </trkpt>
      <trkpt lat="44.01907" lon="1.67614">
        <ele>165.4</ele>
        <time>2023-08-20T17:17:48Z</time>
      </trkpt>
      <trkpt lat="44.01903" lon="1.67633">
        <ele>165.6</ele>
        <time>2023-08-20T17:17:49Z</time>
      </trkpt>
      <trkpt lat="44.01896" lon="1.6765">
        <ele>166</ele>
        <time>2023-08-20T17:17:50Z</time>
      </trkpt>
      <trkpt lat="44.01887" lon="1.67667">
        <ele>166.4</ele>
        <time>2023-08-20T17:17:51Z</time>
      </trkpt>
      <trkpt lat="44.01878" lon="1.67683">
        <ele>166.4</ele>
        <time>2023-08-20T17:17:52Z</time>
      </trkpt>
      <trkpt lat="44.01868" lon="1.67699">
        <ele>166.8</ele>
        <time>2023-08-20T17:17:53Z</time>
      </trkpt>
      <trkpt lat="44.0185" lon="1.6773">
        <ele>167.4</ele>
        <time>2023-08-20T17:17:55Z</time>
      </trkpt>
      <trkpt lat="44.0184" lon="1.67744">
        <ele>167.6</ele>
        <time>2023-08-20T17:17:56Z</time>
      </trkpt>
      <trkpt lat="44.01828" lon="1.67755">
        <ele>168</ele>
        <time>2023-08-20T17:17:57Z</time>
      </trkpt>
      <trkpt lat="44.01813" lon="1.67763">
        <ele>168.4</ele>
        <time>2023-08-20T17:17:58Z</time>
      </trkpt>
      <trkpt lat="44.01798" lon="1.67769">
        <ele>168.8</ele>
        <time>2023-08-20T17:17:59Z</time>
      </trkpt>
      <trkpt lat="44.01783" lon="1.67772">
        <ele>169.2</ele>
        <time>2023-08-20T17:18:00Z</time>
      </trkpt>
      <trkpt lat="44.01768" lon="1.67773">
        <ele>169.4</ele>
        <time>2023-08-20T17:18:01Z</time>
      </trkpt>
      <trkpt lat="44.01752" lon="1.67773">
        <ele>169.8</ele>
        <time>2023-08-20T17:18:02Z</time>
      </trkpt>
      <trkpt lat="44.01742" lon="1.67762">
        <ele>170</ele>
        <time>2023-08-20T17:18:03Z</time>
      </trkpt>
      <trkpt lat="44.0173" lon="1.67751">
        <ele>170.4</ele>
        <time>2023-08-20T17:18:04Z</time>
      </trkpt>
      <trkpt lat="44.01719" lon="1.67737">
        <ele>170.6</ele>
        <time>2023-08-20T17:18:05Z</time>
      </trkpt>
      <trkpt lat="44.01707" lon="1.67724">
        <ele>170.8</ele>
        <time>2023-08-20T17:18:06Z</time>
      </trkpt>
      <trkpt lat="44.01694" lon="1.67712">
        <ele>171</ele>
        <time>2023-08-20T17:18:07Z</time>
      </trkpt>
      <trkpt lat="44.01682" lon="1.67701">
        <ele>171.4</ele>
        <time>2023-08-20T17:18:08Z</time>
      </trkpt>
      <trkpt lat="44.01669" lon="1.6769">
        <ele>172</ele>
        <time>2023-08-20T17:18:09Z</time>
      </trkpt>
      <trkpt lat="44.01656" lon="1.67679">
        <ele>172.6</ele>
        <time>2023-08-20T17:18:10Z</time>
      </trkpt>
      <trkpt lat="44.01643" lon="1.67668">
        <ele>173.2</ele>
        <time>2023-08-20T17:18:11Z</time>
      </trkpt>
      <trkpt lat="44.0163" lon="1.67658">
        <ele>173.6</ele>
        <time>2023-08-20T17:18:12Z</time>
      </trkpt>
      <trkpt lat="44.01616" lon="1.67651">
        <ele>174.4</ele>
        <time>2023-08-20T17:18:13Z</time>
      </trkpt>
      <trkpt lat="44.01601" lon="1.67647">
        <ele>174.6</ele>
        <time>2023-08-20T17:18:14Z</time>
      </trkpt>
      <trkpt lat="44.01587" lon="1.67648">
        <ele>175</ele>
        <time>2023-08-20T17:18:15Z</time>
      </trkpt>
      <trkpt lat="44.01572" lon="1.67652">
        <ele>175.2</ele>
        <time>2023-08-20T17:18:16Z</time>
      </trkpt>
      <trkpt lat="44.01559" lon="1.6766">
        <ele>175.4</ele>
        <time>2023-08-20T17:18:17Z</time>
      </trkpt>
      <trkpt lat="44.01548" lon="1.67672">
        <ele>175.6</ele>
        <time>2023-08-20T17:18:18Z</time>
      </trkpt>
      <trkpt lat="44.01537" lon="1.67691">
        <ele>176</ele>
        <time>2023-08-20T17:18:19Z</time>
      </trkpt>
      <trkpt lat="44.01526" lon="1.67715">
        <ele>176.6</ele>
        <time>2023-08-20T17:18:20Z</time>
      </trkpt>
      <trkpt lat="44.01513" lon="1.67743">
        <ele>176.8</ele>
        <time>2023-08-20T17:18:21Z</time>
      </trkpt>
      <trkpt lat="44.01498" lon="1.67773">
        <ele>177.4</ele>
        <time>2023-08-20T17:18:22Z</time>
      </trkpt>
      <trkpt lat="44.01482" lon="1.67807">
        <ele>177.6</ele>
        <time>2023-08-20T17:18:23Z</time>
      </trkpt>
      <trkpt lat="44.01466" lon="1.67842">
        <ele>178.4</ele>
        <time>2023-08-20T17:18:24Z</time>
      </trkpt>
      <trkpt lat="44.0145" lon="1.67878">
        <ele>179.6</ele>
        <time>2023-08-20T17:18:25Z</time>
      </trkpt>
      <trkpt lat="44.01436" lon="1.67914">
        <ele>180.6</ele>
        <time>2023-08-20T17:18:26Z</time>
      </trkpt>
      <trkpt lat="44.01423" lon="1.67949">
        <ele>183.4</ele>
        <time>2023-08-20T17:18:27Z</time>
      </trkpt>
      <trkpt lat="44.01409" lon="1.67984">
        <ele>185</ele>
        <time>2023-08-20T17:18:28Z</time>
      </trkpt>
      <trkpt lat="44.01394" lon="1.68016">
        <ele>186.4</ele>
        <time>2023-08-20T17:18:29Z</time>
      </trkpt>
      <trkpt lat="44.01376" lon="1.68045">
        <ele>186.6</ele>
        <time>2023-08-20T17:18:30Z</time>
      </trkpt>
      <trkpt lat="44.01357" lon="1.6807">
        <ele>187</ele>
        <time>2023-08-20T17:18:31Z</time>
      </trkpt>
      <trkpt lat="44.01336" lon="1.68091">
        <ele>187</ele>
        <time>2023-08-20T17:18:32Z</time>
      </trkpt>
      <trkpt lat="44.01313" lon="1.68108">
        <ele>187.2</ele>
        <time>2023-08-20T17:18:33Z</time>
      </trkpt>
      <trkpt lat="44.01288" lon="1.68124">
        <ele>187</ele>
        <time>2023-08-20T17:18:34Z</time>
      </trkpt>
      <trkpt lat="44.01261" lon="1.68139">
        <ele>186</ele>
        <time>2023-08-20T17:18:35Z</time>
      </trkpt>
      <trkpt lat="44.01235" lon="1.68153">
        <ele>184.8</ele>
        <time>2023-08-20T17:18:36Z</time>
      </trkpt>
      <trkpt lat="44.01209" lon="1.68165">
        <ele>184.4</ele>
        <time>2023-08-20T17:18:37Z</time>
      </trkpt>
      <trkpt lat="44.01189" lon="1.68171">
        <ele>183.6</ele>
        <time>2023-08-20T17:18:38Z</time>
      </trkpt>
      <trkpt lat="44.01165" lon="1.68177">
        <ele>183.2</ele>
        <time>2023-08-20T17:18:39Z</time>
      </trkpt>
      <trkpt lat="44.01141" lon="1.68182">
        <ele>182.4</ele>
        <time>2023-08-20T17:18:40Z</time>
      </trkpt>
      <trkpt lat="44.01123" lon="1.68189">
        <ele>182.2</ele>
        <time>2023-08-20T17:18:41Z</time>
      </trkpt>
      <trkpt lat="44.01105" lon="1.68201">
        <ele>180.4</ele>
        <time>2023-08-20T17:18:42Z</time>
      </trkpt>
      <trkpt lat="44.01088" lon="1.68218">
        <ele>178.4</ele>
        <time>2023-08-20T17:18:43Z</time>
      </trkpt>
      <trkpt lat="44.01071" lon="1.68238">
        <ele>176.6</ele>
        <time>2023-08-20T17:18:44Z</time>
      </trkpt>
      <trkpt lat="44.01055" lon="1.68259">
        <ele>174.6</ele>
        <time>2023-08-20T17:18:45Z</time>
      </trkpt>
      <trkpt lat="44.01039" lon="1.68278">
        <ele>173.8</ele>
        <time>2023-08-20T17:18:46Z</time>
      </trkpt>
      <trkpt lat="44.01021" lon="1.68293">
        <ele>172.6</ele>
        <time>2023-08-20T17:18:47Z</time>
      </trkpt>
      <trkpt lat="44.01002" lon="1.68303">
        <ele>172.2</ele>
        <time>2023-08-20T17:18:48Z</time>
      </trkpt>
      <trkpt lat="44.00983" lon="1.6831">
        <ele>171.4</ele>
        <time>2023-08-20T17:18:49Z</time>
      </trkpt>
      <trkpt lat="44.00964" lon="1.68311">
        <ele>170.4</ele>
        <time>2023-08-20T17:18:50Z</time>
      </trkpt>
      <trkpt lat="44.00944" lon="1.68306">
        <ele>169.2</ele>
        <time>2023-08-20T17:18:51Z</time>
      </trkpt>
      <trkpt lat="44.00924" lon="1.68297">
        <ele>168.6</ele>
        <time>2023-08-20T17:18:52Z</time>
      </trkpt>
      <trkpt lat="44.00904" lon="1.68284">
        <ele>168.4</ele>
        <time>2023-08-20T17:18:53Z</time>
      </trkpt>
      <trkpt lat="44.00882" lon="1.68271">
        <ele>168.2</ele>
        <time>2023-08-20T17:18:54Z</time>
      </trkpt>
      <trkpt lat="44.00859" lon="1.68258">
        <ele>168.2</ele>
        <time>2023-08-20T17:18:55Z</time>
      </trkpt>
      <trkpt lat="44.0081" lon="1.6824">
        <ele>168.2</ele>
        <time>2023-08-20T17:18:57Z</time>
      </trkpt>
      <trkpt lat="44.00761" lon="1.6823">
        <ele>168.6</ele>
        <time>2023-08-20T17:18:59Z</time>
      </trkpt>
      <trkpt lat="44.00735" lon="1.6823">
        <ele>169</ele>
        <time>2023-08-20T17:19:00Z</time>
      </trkpt>
      <trkpt lat="44.00679" lon="1.68234">
        <ele>169.8</ele>
        <time>2023-08-20T17:19:02Z</time>
      </trkpt>
      <trkpt lat="44.0065" lon="1.68236">
        <ele>170.8</ele>
        <time>2023-08-20T17:19:03Z</time>
      </trkpt>
      <trkpt lat="44.00594" lon="1.68233">
        <ele>171.8</ele>
        <time>2023-08-20T17:19:05Z</time>
      </trkpt>
      <trkpt lat="44.00566" lon="1.68226">
        <ele>172</ele>
        <time>2023-08-20T17:19:06Z</time>
      </trkpt>
      <trkpt lat="44.00538" lon="1.68217">
        <ele>172.2</ele>
        <time>2023-08-20T17:19:07Z</time>
      </trkpt>
      <trkpt lat="44.00481" lon="1.68199">
        <ele>172.6</ele>
        <time>2023-08-20T17:19:09Z</time>
      </trkpt>
      <trkpt lat="44.00453" lon="1.68191">
        <ele>172.8</ele>
        <time>2023-08-20T17:19:10Z</time>
      </trkpt>
      <trkpt lat="44.00398" lon="1.68181">
        <ele>172.8</ele>
        <time>2023-08-20T17:19:12Z</time>
      </trkpt>
      <trkpt lat="44.00372" lon="1.68177">
        <ele>172.8</ele>
        <time>2023-08-20T17:19:13Z</time>
      </trkpt>
      <trkpt lat="44.00346" lon="1.68173">
        <ele>172.6</ele>
        <time>2023-08-20T17:19:14Z</time>
      </trkpt>
      <trkpt lat="44.0032" lon="1.68169">
        <ele>172.6</ele>
        <time>2023-08-20T17:19:15Z</time>
      </trkpt>
      <trkpt lat="44.00295" lon="1.68165">
        <ele>172.4</ele>
        <time>2023-08-20T17:19:16Z</time>
      </trkpt>
      <trkpt lat="44.00271" lon="1.68162">
        <ele>171.8</ele>
        <time>2023-08-20T17:19:17Z</time>
      </trkpt>
      <trkpt lat="44.00248" lon="1.6816">
        <ele>171.6</ele>
        <time>2023-08-20T17:19:18Z</time>
      </trkpt>
      <trkpt lat="44.00225" lon="1.6816">
        <ele>170.8</ele>
        <time>2023-08-20T17:19:19Z</time>
      </trkpt>
      <trkpt lat="44.00204" lon="1.68162">
        <ele>170.2</ele>
        <time>2023-08-20T17:19:20Z</time>
      </trkpt>
      <trkpt lat="44.00184" lon="1.68166">
        <ele>169.2</ele>
        <time>2023-08-20T17:19:21Z</time>
      </trkpt>
      <trkpt lat="44.00167" lon="1.68174">
        <ele>169</ele>
        <time>2023-08-20T17:19:22Z</time>
      </trkpt>
      <trkpt lat="44.00152" lon="1.68185">
        <ele>167.6</ele>
        <time>2023-08-20T17:19:23Z</time>
      </trkpt>
      <trkpt lat="44.00139" lon="1.68199">
        <ele>167</ele>
        <time>2023-08-20T17:19:24Z</time>
      </trkpt>
      <trkpt lat="44.00127" lon="1.68214">
        <ele>165</ele>
        <time>2023-08-20T17:19:25Z</time>
      </trkpt>
      <trkpt lat="44.00119" lon="1.68235">
        <ele>163.2</ele>
        <time>2023-08-20T17:19:26Z</time>
      </trkpt>
      <trkpt lat="44.00112" lon="1.68259">
        <ele>162.4</ele>
        <time>2023-08-20T17:19:27Z</time>
      </trkpt>
      <trkpt lat="44.00106" lon="1.68285">
        <ele>161.4</ele>
        <time>2023-08-20T17:19:28Z</time>
      </trkpt>
      <trkpt lat="44.00102" lon="1.68312">
        <ele>161</ele>
        <time>2023-08-20T17:19:29Z</time>
      </trkpt>
      <trkpt lat="44.00101" lon="1.6834">
        <ele>160.8</ele>
        <time>2023-08-20T17:19:30Z</time>
      </trkpt>
      <trkpt lat="44.00101" lon="1.68369">
        <ele>160.8</ele>
        <time>2023-08-20T17:19:31Z</time>
      </trkpt>
      <trkpt lat="44.00105" lon="1.68429">
        <ele>160.6</ele>
        <time>2023-08-20T17:19:33Z</time>
      </trkpt>
      <trkpt lat="44.0012" lon="1.68519">
        <ele>161</ele>
        <time>2023-08-20T17:19:36Z</time>
      </trkpt>
      <trkpt lat="44.00143" lon="1.68605">
        <ele>162.6</ele>
        <time>2023-08-20T17:19:39Z</time>
      </trkpt>
    </trkseg>
  </trk>
</gpx>